<?xml version="1.0" encoding="UTF-8" standalone="no" ?>
<gpx xmlns="http://www.topografix.com/GPX/1/1" xmlns:xsi="http://www.w3.org/2001/XMLSchema-instance" xsi:schemaLocation="http://www.topografix.com/GPX/1/1 http://www.topografix.com/GPX/1/1/gpx.xsd" version="1.1" creator="VisuGPX - https://www.visugpx.com">
  <metadata>
    <name>BELFAHY BALLON SERVANCE 260518</name>
    <desc><![CDATA[Exigeant mais magnifique !]]></desc>
  </metadata>
  <trk>
    <name><![CDATA[BELFAHY BALLON SERVANCE 260518]]></name>
    <trkseg>
      <trkpt lat="47.89745" lon="6.73323">
        <ele>469.3</ele>
        <time>2018-05-26T11:46:22Z</time>
      </trkpt>
      <trkpt lat="47.8979" lon="6.73234">
        <ele>479.444092</ele>
        <time>2018-05-26T11:46:23Z</time>
      </trkpt>
      <trkpt lat="47.89788" lon="6.73232">
        <ele>479.392975</ele>
        <time>2018-05-26T11:46:24Z</time>
      </trkpt>
      <trkpt lat="47.89786" lon="6.73231">
        <ele>479.331299</ele>
        <time>2018-05-26T11:46:25Z</time>
      </trkpt>
      <trkpt lat="47.89783" lon="6.73231">
        <ele>479.233154</ele>
        <time>2018-05-26T11:46:26Z</time>
      </trkpt>
      <trkpt lat="47.89781" lon="6.73232">
        <ele>479.164307</ele>
        <time>2018-05-26T11:46:27Z</time>
      </trkpt>
      <trkpt lat="47.89778" lon="6.73234">
        <ele>479.088959</ele>
        <time>2018-05-26T11:46:28Z</time>
      </trkpt>
      <trkpt lat="47.89775" lon="6.73235">
        <ele>478.962677</ele>
        <time>2018-05-26T11:46:29Z</time>
      </trkpt>
      <trkpt lat="47.89771" lon="6.73236">
        <ele>478.870575</ele>
        <time>2018-05-26T11:46:30Z</time>
      </trkpt>
      <trkpt lat="47.89768" lon="6.73237">
        <ele>478.735321</ele>
        <time>2018-05-26T11:46:31Z</time>
      </trkpt>
      <trkpt lat="47.89764" lon="6.73237">
        <ele>478.661987</ele>
        <time>2018-05-26T11:46:32Z</time>
      </trkpt>
      <trkpt lat="47.89761" lon="6.73237">
        <ele>478.568359</ele>
        <time>2018-05-26T11:46:33Z</time>
      </trkpt>
      <trkpt lat="47.89758" lon="6.73237">
        <ele>478.513184</ele>
        <time>2018-05-26T11:46:34Z</time>
      </trkpt>
      <trkpt lat="47.89754" lon="6.73237">
        <ele>478.470612</ele>
        <time>2018-05-26T11:46:35Z</time>
      </trkpt>
      <trkpt lat="47.8975" lon="6.73236">
        <ele>478.422516</ele>
        <time>2018-05-26T11:46:36Z</time>
      </trkpt>
      <trkpt lat="47.89747" lon="6.73236">
        <ele>478.38858</ele>
        <time>2018-05-26T11:46:37Z</time>
      </trkpt>
      <trkpt lat="47.89743" lon="6.73235">
        <ele>478.349518</ele>
        <time>2018-05-26T11:46:38Z</time>
      </trkpt>
      <trkpt lat="47.8974" lon="6.73235">
        <ele>478.297974</ele>
        <time>2018-05-26T11:46:39Z</time>
      </trkpt>
      <trkpt lat="47.89737" lon="6.73234">
        <ele>478.283447</ele>
        <time>2018-05-26T11:46:40Z</time>
      </trkpt>
      <trkpt lat="47.89733" lon="6.73233">
        <ele>478.283539</ele>
        <time>2018-05-26T11:46:41Z</time>
      </trkpt>
      <trkpt lat="47.89729" lon="6.73233">
        <ele>478.296387</ele>
        <time>2018-05-26T11:46:42Z</time>
      </trkpt>
      <trkpt lat="47.89726" lon="6.73232">
        <ele>478.324585</ele>
        <time>2018-05-26T11:46:43Z</time>
      </trkpt>
      <trkpt lat="47.89723" lon="6.73231">
        <ele>478.398712</ele>
        <time>2018-05-26T11:46:44Z</time>
      </trkpt>
      <trkpt lat="47.89721" lon="6.73229">
        <ele>478.458893</ele>
        <time>2018-05-26T11:46:45Z</time>
      </trkpt>
      <trkpt lat="47.89718" lon="6.73228">
        <ele>478.516602</ele>
        <time>2018-05-26T11:46:46Z</time>
      </trkpt>
      <trkpt lat="47.89714" lon="6.73225">
        <ele>478.579681</ele>
        <time>2018-05-26T11:46:47Z</time>
      </trkpt>
      <trkpt lat="47.89711" lon="6.73222">
        <ele>478.60434</ele>
        <time>2018-05-26T11:46:48Z</time>
      </trkpt>
      <trkpt lat="47.89709" lon="6.73218">
        <ele>478.616943</ele>
        <time>2018-05-26T11:46:49Z</time>
      </trkpt>
      <trkpt lat="47.89706" lon="6.73215">
        <ele>478.61792</ele>
        <time>2018-05-26T11:46:50Z</time>
      </trkpt>
      <trkpt lat="47.89704" lon="6.73211">
        <ele>478.606201</ele>
        <time>2018-05-26T11:46:51Z</time>
      </trkpt>
      <trkpt lat="47.89701" lon="6.73209">
        <ele>478.575531</ele>
        <time>2018-05-26T11:46:52Z</time>
      </trkpt>
      <trkpt lat="47.89697" lon="6.73207">
        <ele>478.489014</ele>
        <time>2018-05-26T11:46:53Z</time>
      </trkpt>
      <trkpt lat="47.89692" lon="6.73206">
        <ele>478.408722</ele>
        <time>2018-05-26T11:46:54Z</time>
      </trkpt>
      <trkpt lat="47.89687" lon="6.73205">
        <ele>478.25415</ele>
        <time>2018-05-26T11:46:55Z</time>
      </trkpt>
      <trkpt lat="47.89684" lon="6.73205">
        <ele>478.120148</ele>
        <time>2018-05-26T11:46:56Z</time>
      </trkpt>
      <trkpt lat="47.89681" lon="6.73203">
        <ele>477.957153</ele>
        <time>2018-05-26T11:46:57Z</time>
      </trkpt>
      <trkpt lat="47.8968" lon="6.73202">
        <ele>477.678741</ele>
        <time>2018-05-26T11:46:58Z</time>
      </trkpt>
      <trkpt lat="47.89678" lon="6.73201">
        <ele>477.508392</ele>
        <time>2018-05-26T11:46:59Z</time>
      </trkpt>
      <trkpt lat="47.89676" lon="6.73201">
        <ele>477.322357</ele>
        <time>2018-05-26T11:47:00Z</time>
      </trkpt>
      <trkpt lat="47.89675" lon="6.73201">
        <ele>477.24057</ele>
        <time>2018-05-26T11:47:01Z</time>
      </trkpt>
      <trkpt lat="47.89662" lon="6.73197">
        <ele>476.9086</ele>
        <time>2018-05-26T11:47:09Z</time>
      </trkpt>
      <trkpt lat="47.89658" lon="6.73198">
        <ele>476.884674</ele>
        <time>2018-05-26T11:47:12Z</time>
      </trkpt>
      <trkpt lat="47.89655" lon="6.73199">
        <ele>476.83371</ele>
        <time>2018-05-26T11:47:13Z</time>
      </trkpt>
      <trkpt lat="47.89652" lon="6.732">
        <ele>476.75769</ele>
        <time>2018-05-26T11:47:14Z</time>
      </trkpt>
      <trkpt lat="47.89648" lon="6.73201">
        <ele>476.729401</ele>
        <time>2018-05-26T11:47:15Z</time>
      </trkpt>
      <trkpt lat="47.89644" lon="6.73202">
        <ele>476.729584</ele>
        <time>2018-05-26T11:47:16Z</time>
      </trkpt>
      <trkpt lat="47.89641" lon="6.73203">
        <ele>476.767426</ele>
        <time>2018-05-26T11:47:17Z</time>
      </trkpt>
      <trkpt lat="47.89637" lon="6.73204">
        <ele>476.855499</ele>
        <time>2018-05-26T11:47:18Z</time>
      </trkpt>
      <trkpt lat="47.89634" lon="6.73205">
        <ele>477.061615</ele>
        <time>2018-05-26T11:47:19Z</time>
      </trkpt>
      <trkpt lat="47.8963" lon="6.73206">
        <ele>477.237549</ele>
        <time>2018-05-26T11:47:20Z</time>
      </trkpt>
      <trkpt lat="47.89627" lon="6.73207">
        <ele>477.548248</ele>
        <time>2018-05-26T11:47:21Z</time>
      </trkpt>
      <trkpt lat="47.89624" lon="6.73208">
        <ele>477.770538</ele>
        <time>2018-05-26T11:47:22Z</time>
      </trkpt>
      <trkpt lat="47.89621" lon="6.73209">
        <ele>477.984955</ele>
        <time>2018-05-26T11:47:23Z</time>
      </trkpt>
      <trkpt lat="47.89618" lon="6.7321">
        <ele>478.276215</ele>
        <time>2018-05-26T11:47:24Z</time>
      </trkpt>
      <trkpt lat="47.89615" lon="6.73212">
        <ele>478.453094</ele>
        <time>2018-05-26T11:47:25Z</time>
      </trkpt>
      <trkpt lat="47.89611" lon="6.73213">
        <ele>478.714996</ele>
        <time>2018-05-26T11:47:26Z</time>
      </trkpt>
      <trkpt lat="47.89608" lon="6.73214">
        <ele>478.89563</ele>
        <time>2018-05-26T11:47:27Z</time>
      </trkpt>
      <trkpt lat="47.89606" lon="6.73216">
        <ele>479.181915</ele>
        <time>2018-05-26T11:47:28Z</time>
      </trkpt>
      <trkpt lat="47.89603" lon="6.73217">
        <ele>479.376373</ele>
        <time>2018-05-26T11:47:29Z</time>
      </trkpt>
      <trkpt lat="47.896" lon="6.73219">
        <ele>479.675201</ele>
        <time>2018-05-26T11:47:30Z</time>
      </trkpt>
      <trkpt lat="47.89597" lon="6.73221">
        <ele>479.869537</ele>
        <time>2018-05-26T11:47:31Z</time>
      </trkpt>
      <trkpt lat="47.89594" lon="6.73223">
        <ele>480.045532</ele>
        <time>2018-05-26T11:47:32Z</time>
      </trkpt>
      <trkpt lat="47.89591" lon="6.73225">
        <ele>480.189453</ele>
        <time>2018-05-26T11:47:33Z</time>
      </trkpt>
      <trkpt lat="47.89587" lon="6.73227">
        <ele>480.356293</ele>
        <time>2018-05-26T11:47:34Z</time>
      </trkpt>
      <trkpt lat="47.89585" lon="6.7323">
        <ele>480.446136</ele>
        <time>2018-05-26T11:47:35Z</time>
      </trkpt>
      <trkpt lat="47.89582" lon="6.73234">
        <ele>480.525177</ele>
        <time>2018-05-26T11:47:36Z</time>
      </trkpt>
      <trkpt lat="47.8958" lon="6.73238">
        <ele>480.628021</ele>
        <time>2018-05-26T11:47:37Z</time>
      </trkpt>
      <trkpt lat="47.89578" lon="6.73242">
        <ele>480.69339</ele>
        <time>2018-05-26T11:47:38Z</time>
      </trkpt>
      <trkpt lat="47.89575" lon="6.73245">
        <ele>480.764404</ele>
        <time>2018-05-26T11:47:39Z</time>
      </trkpt>
      <trkpt lat="47.89573" lon="6.73249">
        <ele>480.895233</ele>
        <time>2018-05-26T11:47:40Z</time>
      </trkpt>
      <trkpt lat="47.8957" lon="6.73252">
        <ele>480.995087</ele>
        <time>2018-05-26T11:47:41Z</time>
      </trkpt>
      <trkpt lat="47.89568" lon="6.73257">
        <ele>481.095215</ele>
        <time>2018-05-26T11:47:42Z</time>
      </trkpt>
      <trkpt lat="47.89566" lon="6.73261">
        <ele>481.230103</ele>
        <time>2018-05-26T11:47:43Z</time>
      </trkpt>
      <trkpt lat="47.89564" lon="6.73266">
        <ele>481.305878</ele>
        <time>2018-05-26T11:47:44Z</time>
      </trkpt>
      <trkpt lat="47.89563" lon="6.7327">
        <ele>481.37204</ele>
        <time>2018-05-26T11:47:45Z</time>
      </trkpt>
      <trkpt lat="47.89561" lon="6.73275">
        <ele>481.468384</ele>
        <time>2018-05-26T11:47:46Z</time>
      </trkpt>
      <trkpt lat="47.8956" lon="6.73281">
        <ele>481.526093</ele>
        <time>2018-05-26T11:47:47Z</time>
      </trkpt>
      <trkpt lat="47.89559" lon="6.73286">
        <ele>481.574097</ele>
        <time>2018-05-26T11:47:48Z</time>
      </trkpt>
      <trkpt lat="47.89557" lon="6.73291">
        <ele>481.615875</ele>
        <time>2018-05-26T11:47:49Z</time>
      </trkpt>
      <trkpt lat="47.89555" lon="6.73297">
        <ele>481.684601</ele>
        <time>2018-05-26T11:47:50Z</time>
      </trkpt>
      <trkpt lat="47.89554" lon="6.73302">
        <ele>481.731567</ele>
        <time>2018-05-26T11:47:51Z</time>
      </trkpt>
      <trkpt lat="47.89553" lon="6.73308">
        <ele>481.772552</ele>
        <time>2018-05-26T11:47:52Z</time>
      </trkpt>
      <trkpt lat="47.89552" lon="6.73314">
        <ele>481.80249</ele>
        <time>2018-05-26T11:47:53Z</time>
      </trkpt>
      <trkpt lat="47.8955" lon="6.7332">
        <ele>481.846588</ele>
        <time>2018-05-26T11:47:54Z</time>
      </trkpt>
      <trkpt lat="47.89549" lon="6.73326">
        <ele>481.882782</ele>
        <time>2018-05-26T11:47:55Z</time>
      </trkpt>
      <trkpt lat="47.89548" lon="6.73332">
        <ele>481.922729</ele>
        <time>2018-05-26T11:47:56Z</time>
      </trkpt>
      <trkpt lat="47.89547" lon="6.73338">
        <ele>481.959137</ele>
        <time>2018-05-26T11:47:57Z</time>
      </trkpt>
      <trkpt lat="47.89545" lon="6.73343">
        <ele>482.021729</ele>
        <time>2018-05-26T11:47:58Z</time>
      </trkpt>
      <trkpt lat="47.89544" lon="6.73349">
        <ele>482.070435</ele>
        <time>2018-05-26T11:47:59Z</time>
      </trkpt>
      <trkpt lat="47.89542" lon="6.73356">
        <ele>482.125275</ele>
        <time>2018-05-26T11:48:00Z</time>
      </trkpt>
      <trkpt lat="47.89541" lon="6.73362">
        <ele>482.177338</ele>
        <time>2018-05-26T11:48:01Z</time>
      </trkpt>
      <trkpt lat="47.89539" lon="6.73369">
        <ele>482.251587</ele>
        <time>2018-05-26T11:48:02Z</time>
      </trkpt>
      <trkpt lat="47.89537" lon="6.73375">
        <ele>482.299561</ele>
        <time>2018-05-26T11:48:03Z</time>
      </trkpt>
      <trkpt lat="47.89536" lon="6.73382">
        <ele>482.347992</ele>
        <time>2018-05-26T11:48:04Z</time>
      </trkpt>
      <trkpt lat="47.89534" lon="6.73389">
        <ele>482.406219</ele>
        <time>2018-05-26T11:48:05Z</time>
      </trkpt>
      <trkpt lat="47.89532" lon="6.73395">
        <ele>482.444366</ele>
        <time>2018-05-26T11:48:06Z</time>
      </trkpt>
      <trkpt lat="47.89531" lon="6.73401">
        <ele>482.480194</ele>
        <time>2018-05-26T11:48:07Z</time>
      </trkpt>
      <trkpt lat="47.89529" lon="6.73407">
        <ele>482.536591</ele>
        <time>2018-05-26T11:48:08Z</time>
      </trkpt>
      <trkpt lat="47.89527" lon="6.73414">
        <ele>482.581268</ele>
        <time>2018-05-26T11:48:09Z</time>
      </trkpt>
      <trkpt lat="47.89525" lon="6.7342">
        <ele>482.640778</ele>
        <time>2018-05-26T11:48:10Z</time>
      </trkpt>
      <trkpt lat="47.89523" lon="6.73426">
        <ele>482.675079</ele>
        <time>2018-05-26T11:48:11Z</time>
      </trkpt>
      <trkpt lat="47.89521" lon="6.73432">
        <ele>482.71167</ele>
        <time>2018-05-26T11:48:12Z</time>
      </trkpt>
      <trkpt lat="47.89518" lon="6.73438">
        <ele>482.792816</ele>
        <time>2018-05-26T11:48:13Z</time>
      </trkpt>
      <trkpt lat="47.89516" lon="6.73444">
        <ele>482.914093</ele>
        <time>2018-05-26T11:48:14Z</time>
      </trkpt>
      <trkpt lat="47.89513" lon="6.73449">
        <ele>482.987091</ele>
        <time>2018-05-26T11:48:15Z</time>
      </trkpt>
      <trkpt lat="47.89511" lon="6.73455">
        <ele>483.050415</ele>
        <time>2018-05-26T11:48:16Z</time>
      </trkpt>
      <trkpt lat="47.89508" lon="6.73461">
        <ele>483.13858</ele>
        <time>2018-05-26T11:48:17Z</time>
      </trkpt>
      <trkpt lat="47.89506" lon="6.73467">
        <ele>483.195435</ele>
        <time>2018-05-26T11:48:18Z</time>
      </trkpt>
      <trkpt lat="47.89504" lon="6.73472">
        <ele>483.251923</ele>
        <time>2018-05-26T11:48:19Z</time>
      </trkpt>
      <trkpt lat="47.89501" lon="6.73478">
        <ele>483.301514</ele>
        <time>2018-05-26T11:48:20Z</time>
      </trkpt>
      <trkpt lat="47.89499" lon="6.73484">
        <ele>483.35849</ele>
        <time>2018-05-26T11:48:21Z</time>
      </trkpt>
      <trkpt lat="47.89497" lon="6.73489">
        <ele>483.384552</ele>
        <time>2018-05-26T11:48:22Z</time>
      </trkpt>
      <trkpt lat="47.89494" lon="6.73495">
        <ele>483.395142</ele>
        <time>2018-05-26T11:48:23Z</time>
      </trkpt>
      <trkpt lat="47.89492" lon="6.73501">
        <ele>483.389984</ele>
        <time>2018-05-26T11:48:24Z</time>
      </trkpt>
      <trkpt lat="47.8949" lon="6.73507">
        <ele>483.359772</ele>
        <time>2018-05-26T11:48:25Z</time>
      </trkpt>
      <trkpt lat="47.89488" lon="6.73513">
        <ele>483.306641</ele>
        <time>2018-05-26T11:48:26Z</time>
      </trkpt>
      <trkpt lat="47.89486" lon="6.73519">
        <ele>483.224274</ele>
        <time>2018-05-26T11:48:27Z</time>
      </trkpt>
      <trkpt lat="47.89484" lon="6.73525">
        <ele>483.192169</ele>
        <time>2018-05-26T11:48:28Z</time>
      </trkpt>
      <trkpt lat="47.89482" lon="6.73531">
        <ele>483.186615</ele>
        <time>2018-05-26T11:48:29Z</time>
      </trkpt>
      <trkpt lat="47.8948" lon="6.73537">
        <ele>483.195801</ele>
        <time>2018-05-26T11:48:30Z</time>
      </trkpt>
      <trkpt lat="47.89478" lon="6.73543">
        <ele>483.221893</ele>
        <time>2018-05-26T11:48:31Z</time>
      </trkpt>
      <trkpt lat="47.89476" lon="6.7355">
        <ele>483.257782</ele>
        <time>2018-05-26T11:48:32Z</time>
      </trkpt>
      <trkpt lat="47.89473" lon="6.73555">
        <ele>483.31723</ele>
        <time>2018-05-26T11:48:33Z</time>
      </trkpt>
      <trkpt lat="47.89469" lon="6.7356">
        <ele>483.352173</ele>
        <time>2018-05-26T11:48:34Z</time>
      </trkpt>
      <trkpt lat="47.89465" lon="6.73565">
        <ele>483.373505</ele>
        <time>2018-05-26T11:48:35Z</time>
      </trkpt>
      <trkpt lat="47.8946" lon="6.73571">
        <ele>483.376709</ele>
        <time>2018-05-26T11:48:36Z</time>
      </trkpt>
      <trkpt lat="47.89457" lon="6.73578">
        <ele>483.36731</ele>
        <time>2018-05-26T11:48:37Z</time>
      </trkpt>
      <trkpt lat="47.89454" lon="6.73587">
        <ele>483.33667</ele>
        <time>2018-05-26T11:48:38Z</time>
      </trkpt>
      <trkpt lat="47.8945" lon="6.73596">
        <ele>483.237915</ele>
        <time>2018-05-26T11:48:39Z</time>
      </trkpt>
      <trkpt lat="47.89446" lon="6.73605">
        <ele>483.119476</ele>
        <time>2018-05-26T11:48:40Z</time>
      </trkpt>
      <trkpt lat="47.89442" lon="6.73615">
        <ele>482.95285</ele>
        <time>2018-05-26T11:48:41Z</time>
      </trkpt>
      <trkpt lat="47.89439" lon="6.73624">
        <ele>482.623932</ele>
        <time>2018-05-26T11:48:42Z</time>
      </trkpt>
      <trkpt lat="47.89434" lon="6.73633">
        <ele>482.355621</ele>
        <time>2018-05-26T11:48:43Z</time>
      </trkpt>
      <trkpt lat="47.8943" lon="6.73642">
        <ele>482.059662</ele>
        <time>2018-05-26T11:48:44Z</time>
      </trkpt>
      <trkpt lat="47.89427" lon="6.73651">
        <ele>481.603119</ele>
        <time>2018-05-26T11:48:45Z</time>
      </trkpt>
      <trkpt lat="47.89423" lon="6.7366">
        <ele>481.322021</ele>
        <time>2018-05-26T11:48:46Z</time>
      </trkpt>
      <trkpt lat="47.89419" lon="6.73669">
        <ele>481.073578</ele>
        <time>2018-05-26T11:48:47Z</time>
      </trkpt>
      <trkpt lat="47.89415" lon="6.73678">
        <ele>480.770996</ele>
        <time>2018-05-26T11:48:48Z</time>
      </trkpt>
      <trkpt lat="47.89411" lon="6.73687">
        <ele>480.628082</ele>
        <time>2018-05-26T11:48:49Z</time>
      </trkpt>
      <trkpt lat="47.89407" lon="6.73696">
        <ele>480.53067</ele>
        <time>2018-05-26T11:48:50Z</time>
      </trkpt>
      <trkpt lat="47.89403" lon="6.73704">
        <ele>480.434723</ele>
        <time>2018-05-26T11:48:51Z</time>
      </trkpt>
      <trkpt lat="47.89399" lon="6.73712">
        <ele>480.378662</ele>
        <time>2018-05-26T11:48:52Z</time>
      </trkpt>
      <trkpt lat="47.89394" lon="6.7372">
        <ele>480.31723</ele>
        <time>2018-05-26T11:48:53Z</time>
      </trkpt>
      <trkpt lat="47.8939" lon="6.73727">
        <ele>480.197632</ele>
        <time>2018-05-26T11:48:54Z</time>
      </trkpt>
      <trkpt lat="47.89385" lon="6.73734">
        <ele>480.08725</ele>
        <time>2018-05-26T11:48:55Z</time>
      </trkpt>
      <trkpt lat="47.8938" lon="6.73741">
        <ele>479.954346</ele>
        <time>2018-05-26T11:48:56Z</time>
      </trkpt>
      <trkpt lat="47.89375" lon="6.73748">
        <ele>479.740204</ele>
        <time>2018-05-26T11:48:57Z</time>
      </trkpt>
      <trkpt lat="47.8937" lon="6.73754">
        <ele>479.622589</ele>
        <time>2018-05-26T11:48:58Z</time>
      </trkpt>
      <trkpt lat="47.89364" lon="6.7376">
        <ele>479.559113</ele>
        <time>2018-05-26T11:48:59Z</time>
      </trkpt>
      <trkpt lat="47.89359" lon="6.73766">
        <ele>479.550049</ele>
        <time>2018-05-26T11:49:00Z</time>
      </trkpt>
      <trkpt lat="47.89353" lon="6.73772">
        <ele>479.566742</ele>
        <time>2018-05-26T11:49:01Z</time>
      </trkpt>
      <trkpt lat="47.89348" lon="6.73777">
        <ele>479.605957</ele>
        <time>2018-05-26T11:49:02Z</time>
      </trkpt>
      <trkpt lat="47.89342" lon="6.73783">
        <ele>479.658661</ele>
        <time>2018-05-26T11:49:03Z</time>
      </trkpt>
      <trkpt lat="47.89336" lon="6.73788">
        <ele>479.687897</ele>
        <time>2018-05-26T11:49:04Z</time>
      </trkpt>
      <trkpt lat="47.8933" lon="6.73793">
        <ele>479.707184</ele>
        <time>2018-05-26T11:49:05Z</time>
      </trkpt>
      <trkpt lat="47.89325" lon="6.73798">
        <ele>479.709564</ele>
        <time>2018-05-26T11:49:06Z</time>
      </trkpt>
      <trkpt lat="47.89319" lon="6.73803">
        <ele>479.695068</ele>
        <time>2018-05-26T11:49:07Z</time>
      </trkpt>
      <trkpt lat="47.89313" lon="6.73808">
        <ele>479.662201</ele>
        <time>2018-05-26T11:49:08Z</time>
      </trkpt>
      <trkpt lat="47.89308" lon="6.73813">
        <ele>479.621552</ele>
        <time>2018-05-26T11:49:09Z</time>
      </trkpt>
      <trkpt lat="47.89302" lon="6.73818">
        <ele>479.618286</ele>
        <time>2018-05-26T11:49:10Z</time>
      </trkpt>
      <trkpt lat="47.89286" lon="6.73834">
        <ele>479.618286</ele>
        <time>2018-05-26T11:49:13Z</time>
      </trkpt>
      <trkpt lat="47.89281" lon="6.7384">
        <ele>479.631226</ele>
        <time>2018-05-26T11:49:14Z</time>
      </trkpt>
      <trkpt lat="47.89276" lon="6.73846">
        <ele>479.666046</ele>
        <time>2018-05-26T11:49:15Z</time>
      </trkpt>
      <trkpt lat="47.89271" lon="6.73851">
        <ele>479.741699</ele>
        <time>2018-05-26T11:49:16Z</time>
      </trkpt>
      <trkpt lat="47.89267" lon="6.73857">
        <ele>479.808746</ele>
        <time>2018-05-26T11:49:17Z</time>
      </trkpt>
      <trkpt lat="47.89262" lon="6.73863">
        <ele>479.88974</ele>
        <time>2018-05-26T11:49:18Z</time>
      </trkpt>
      <trkpt lat="47.89257" lon="6.73869">
        <ele>480.03064</ele>
        <time>2018-05-26T11:49:19Z</time>
      </trkpt>
      <trkpt lat="47.89253" lon="6.73876">
        <ele>480.116547</ele>
        <time>2018-05-26T11:49:20Z</time>
      </trkpt>
      <trkpt lat="47.89248" lon="6.73882">
        <ele>480.190399</ele>
        <time>2018-05-26T11:49:21Z</time>
      </trkpt>
      <trkpt lat="47.89244" lon="6.73888">
        <ele>480.266602</ele>
        <time>2018-05-26T11:49:22Z</time>
      </trkpt>
      <trkpt lat="47.89239" lon="6.73893">
        <ele>480.311737</ele>
        <time>2018-05-26T11:49:23Z</time>
      </trkpt>
      <trkpt lat="47.89235" lon="6.73899">
        <ele>480.363922</ele>
        <time>2018-05-26T11:49:24Z</time>
      </trkpt>
      <trkpt lat="47.89231" lon="6.73904">
        <ele>480.477753</ele>
        <time>2018-05-26T11:49:25Z</time>
      </trkpt>
      <trkpt lat="47.89227" lon="6.7391">
        <ele>480.582001</ele>
        <time>2018-05-26T11:49:26Z</time>
      </trkpt>
      <trkpt lat="47.89222" lon="6.73913">
        <ele>480.706665</ele>
        <time>2018-05-26T11:49:27Z</time>
      </trkpt>
      <trkpt lat="47.89216" lon="6.73913">
        <ele>480.891144</ele>
        <time>2018-05-26T11:49:28Z</time>
      </trkpt>
      <trkpt lat="47.89211" lon="6.73912">
        <ele>480.991089</ele>
        <time>2018-05-26T11:49:29Z</time>
      </trkpt>
      <trkpt lat="47.89206" lon="6.73911">
        <ele>481.067596</ele>
        <time>2018-05-26T11:49:30Z</time>
      </trkpt>
      <trkpt lat="47.89201" lon="6.73911">
        <ele>481.136383</ele>
        <time>2018-05-26T11:49:31Z</time>
      </trkpt>
      <trkpt lat="47.89196" lon="6.73911">
        <ele>481.144043</ele>
        <time>2018-05-26T11:49:32Z</time>
      </trkpt>
      <trkpt lat="47.89191" lon="6.73911">
        <ele>481.140137</ele>
        <time>2018-05-26T11:49:33Z</time>
      </trkpt>
      <trkpt lat="47.89186" lon="6.7391">
        <ele>481.129364</ele>
        <time>2018-05-26T11:49:34Z</time>
      </trkpt>
      <trkpt lat="47.8918" lon="6.73911">
        <ele>481.124146</ele>
        <time>2018-05-26T11:49:35Z</time>
      </trkpt>
      <trkpt lat="47.89175" lon="6.73914">
        <ele>481.128174</ele>
        <time>2018-05-26T11:49:36Z</time>
      </trkpt>
      <trkpt lat="47.89169" lon="6.73918">
        <ele>481.142944</ele>
        <time>2018-05-26T11:49:37Z</time>
      </trkpt>
      <trkpt lat="47.89164" lon="6.73923">
        <ele>481.152222</ele>
        <time>2018-05-26T11:49:38Z</time>
      </trkpt>
      <trkpt lat="47.8916" lon="6.73928">
        <ele>481.1492</ele>
        <time>2018-05-26T11:49:39Z</time>
      </trkpt>
      <trkpt lat="47.89155" lon="6.73933">
        <ele>481.117188</ele>
        <time>2018-05-26T11:49:40Z</time>
      </trkpt>
      <trkpt lat="47.8915" lon="6.73938">
        <ele>480.98999</ele>
        <time>2018-05-26T11:49:41Z</time>
      </trkpt>
      <trkpt lat="47.89146" lon="6.73944">
        <ele>480.868683</ele>
        <time>2018-05-26T11:49:42Z</time>
      </trkpt>
      <trkpt lat="47.89141" lon="6.73947">
        <ele>480.729004</ele>
        <time>2018-05-26T11:49:43Z</time>
      </trkpt>
      <trkpt lat="47.89136" lon="6.73947">
        <ele>480.500153</ele>
        <time>2018-05-26T11:49:44Z</time>
      </trkpt>
      <trkpt lat="47.8913" lon="6.73945">
        <ele>480.339447</ele>
        <time>2018-05-26T11:49:45Z</time>
      </trkpt>
      <trkpt lat="47.89126" lon="6.7394">
        <ele>480.196198</ele>
        <time>2018-05-26T11:49:46Z</time>
      </trkpt>
      <trkpt lat="47.89122" lon="6.73935">
        <ele>480.087799</ele>
        <time>2018-05-26T11:49:47Z</time>
      </trkpt>
      <trkpt lat="47.89118" lon="6.7393">
        <ele>480.08725</ele>
        <time>2018-05-26T11:49:48Z</time>
      </trkpt>
      <trkpt lat="47.89114" lon="6.73926">
        <ele>480.102783</ele>
        <time>2018-05-26T11:49:49Z</time>
      </trkpt>
      <trkpt lat="47.89111" lon="6.73922">
        <ele>480.240204</ele>
        <time>2018-05-26T11:49:50Z</time>
      </trkpt>
      <trkpt lat="47.89108" lon="6.73919">
        <ele>480.391449</ele>
        <time>2018-05-26T11:49:51Z</time>
      </trkpt>
      <trkpt lat="47.89105" lon="6.73917">
        <ele>480.583862</ele>
        <time>2018-05-26T11:49:52Z</time>
      </trkpt>
      <trkpt lat="47.89101" lon="6.73914">
        <ele>480.92984</ele>
        <time>2018-05-26T11:49:53Z</time>
      </trkpt>
      <trkpt lat="47.89098" lon="6.73912">
        <ele>481.183685</ele>
        <time>2018-05-26T11:49:54Z</time>
      </trkpt>
      <trkpt lat="47.89095" lon="6.7391">
        <ele>481.606445</ele>
        <time>2018-05-26T11:49:55Z</time>
      </trkpt>
      <trkpt lat="47.89092" lon="6.73909">
        <ele>481.915527</ele>
        <time>2018-05-26T11:49:56Z</time>
      </trkpt>
      <trkpt lat="47.89088" lon="6.73908">
        <ele>482.243988</ele>
        <time>2018-05-26T11:49:57Z</time>
      </trkpt>
      <trkpt lat="47.89085" lon="6.73907">
        <ele>482.741119</ele>
        <time>2018-05-26T11:49:58Z</time>
      </trkpt>
      <trkpt lat="47.89082" lon="6.73906">
        <ele>483.06723</ele>
        <time>2018-05-26T11:49:59Z</time>
      </trkpt>
      <trkpt lat="47.89078" lon="6.73906">
        <ele>483.532715</ele>
        <time>2018-05-26T11:50:00Z</time>
      </trkpt>
      <trkpt lat="47.89075" lon="6.73907">
        <ele>483.819672</ele>
        <time>2018-05-26T11:50:01Z</time>
      </trkpt>
      <trkpt lat="47.89071" lon="6.73907">
        <ele>484.083984</ele>
        <time>2018-05-26T11:50:02Z</time>
      </trkpt>
      <trkpt lat="47.89068" lon="6.73908">
        <ele>484.4375</ele>
        <time>2018-05-26T11:50:03Z</time>
      </trkpt>
      <trkpt lat="47.89064" lon="6.73908">
        <ele>484.647797</ele>
        <time>2018-05-26T11:50:04Z</time>
      </trkpt>
      <trkpt lat="47.8906" lon="6.73908">
        <ele>484.932617</ele>
        <time>2018-05-26T11:50:05Z</time>
      </trkpt>
      <trkpt lat="47.89056" lon="6.73908">
        <ele>485.104218</ele>
        <time>2018-05-26T11:50:06Z</time>
      </trkpt>
      <trkpt lat="47.89052" lon="6.73909">
        <ele>485.263031</ele>
        <time>2018-05-26T11:50:07Z</time>
      </trkpt>
      <trkpt lat="47.89048" lon="6.73909">
        <ele>485.470825</ele>
        <time>2018-05-26T11:50:08Z</time>
      </trkpt>
      <trkpt lat="47.89043" lon="6.73909">
        <ele>485.583649</ele>
        <time>2018-05-26T11:50:09Z</time>
      </trkpt>
      <trkpt lat="47.89039" lon="6.73909">
        <ele>485.714478</ele>
        <time>2018-05-26T11:50:10Z</time>
      </trkpt>
      <trkpt lat="47.89035" lon="6.7391">
        <ele>485.749908</ele>
        <time>2018-05-26T11:50:11Z</time>
      </trkpt>
      <trkpt lat="47.8903" lon="6.7391">
        <ele>485.821808</ele>
        <time>2018-05-26T11:50:12Z</time>
      </trkpt>
      <trkpt lat="47.89026" lon="6.7391">
        <ele>485.831207</ele>
        <time>2018-05-26T11:50:13Z</time>
      </trkpt>
      <trkpt lat="47.89021" lon="6.7391">
        <ele>485.824554</ele>
        <time>2018-05-26T11:50:14Z</time>
      </trkpt>
      <trkpt lat="47.89016" lon="6.7391">
        <ele>485.796112</ele>
        <time>2018-05-26T11:50:15Z</time>
      </trkpt>
      <trkpt lat="47.89011" lon="6.7391">
        <ele>485.751984</ele>
        <time>2018-05-26T11:50:16Z</time>
      </trkpt>
      <trkpt lat="47.89006" lon="6.7391">
        <ele>485.742218</ele>
        <time>2018-05-26T11:50:17Z</time>
      </trkpt>
      <trkpt lat="47.89002" lon="6.73911">
        <ele>485.742218</ele>
        <time>2018-05-26T11:50:18Z</time>
      </trkpt>
      <trkpt lat="47.88996" lon="6.73911">
        <ele>485.763397</ele>
        <time>2018-05-26T11:50:19Z</time>
      </trkpt>
      <trkpt lat="47.88991" lon="6.73911">
        <ele>485.794312</ele>
        <time>2018-05-26T11:50:20Z</time>
      </trkpt>
      <trkpt lat="47.88986" lon="6.73911">
        <ele>485.854858</ele>
        <time>2018-05-26T11:50:21Z</time>
      </trkpt>
      <trkpt lat="47.88981" lon="6.73911">
        <ele>485.902588</ele>
        <time>2018-05-26T11:50:22Z</time>
      </trkpt>
      <trkpt lat="47.88976" lon="6.73912">
        <ele>485.954346</ele>
        <time>2018-05-26T11:50:23Z</time>
      </trkpt>
      <trkpt lat="47.88971" lon="6.73913">
        <ele>486.023315</ele>
        <time>2018-05-26T11:50:24Z</time>
      </trkpt>
      <trkpt lat="47.88967" lon="6.73914">
        <ele>486.051483</ele>
        <time>2018-05-26T11:50:25Z</time>
      </trkpt>
      <trkpt lat="47.88962" lon="6.73915">
        <ele>486.067383</ele>
        <time>2018-05-26T11:50:26Z</time>
      </trkpt>
      <trkpt lat="47.88958" lon="6.73917">
        <ele>486.072754</ele>
        <time>2018-05-26T11:50:27Z</time>
      </trkpt>
      <trkpt lat="47.88953" lon="6.73919">
        <ele>486.081787</ele>
        <time>2018-05-26T11:50:28Z</time>
      </trkpt>
      <trkpt lat="47.88949" lon="6.73921">
        <ele>486.098907</ele>
        <time>2018-05-26T11:50:29Z</time>
      </trkpt>
      <trkpt lat="47.88945" lon="6.73923">
        <ele>486.117798</ele>
        <time>2018-05-26T11:50:30Z</time>
      </trkpt>
      <trkpt lat="47.88941" lon="6.73927">
        <ele>486.158966</ele>
        <time>2018-05-26T11:50:31Z</time>
      </trkpt>
      <trkpt lat="47.88937" lon="6.7393">
        <ele>486.273834</ele>
        <time>2018-05-26T11:50:32Z</time>
      </trkpt>
      <trkpt lat="47.88933" lon="6.73934">
        <ele>486.375824</ele>
        <time>2018-05-26T11:50:33Z</time>
      </trkpt>
      <trkpt lat="47.88929" lon="6.73938">
        <ele>486.480316</ele>
        <time>2018-05-26T11:50:34Z</time>
      </trkpt>
      <trkpt lat="47.88926" lon="6.73942">
        <ele>486.620636</ele>
        <time>2018-05-26T11:50:35Z</time>
      </trkpt>
      <trkpt lat="47.88922" lon="6.73946">
        <ele>486.701385</ele>
        <time>2018-05-26T11:50:36Z</time>
      </trkpt>
      <trkpt lat="47.88919" lon="6.73951">
        <ele>486.774811</ele>
        <time>2018-05-26T11:50:37Z</time>
      </trkpt>
      <trkpt lat="47.88915" lon="6.73955">
        <ele>486.887054</ele>
        <time>2018-05-26T11:50:38Z</time>
      </trkpt>
      <trkpt lat="47.88912" lon="6.73959">
        <ele>486.972412</ele>
        <time>2018-05-26T11:50:39Z</time>
      </trkpt>
      <trkpt lat="47.88909" lon="6.73964">
        <ele>487.074097</ele>
        <time>2018-05-26T11:50:40Z</time>
      </trkpt>
      <trkpt lat="47.88906" lon="6.73969">
        <ele>487.195465</ele>
        <time>2018-05-26T11:50:41Z</time>
      </trkpt>
      <trkpt lat="47.88903" lon="6.73973">
        <ele>487.408203</ele>
        <time>2018-05-26T11:50:42Z</time>
      </trkpt>
      <trkpt lat="47.88899" lon="6.73977">
        <ele>487.556274</ele>
        <time>2018-05-26T11:50:43Z</time>
      </trkpt>
      <trkpt lat="47.88896" lon="6.73982">
        <ele>487.694061</ele>
        <time>2018-05-26T11:50:44Z</time>
      </trkpt>
      <trkpt lat="47.88892" lon="6.73985">
        <ele>487.877716</ele>
        <time>2018-05-26T11:50:45Z</time>
      </trkpt>
      <trkpt lat="47.88888" lon="6.73989">
        <ele>487.992157</ele>
        <time>2018-05-26T11:50:46Z</time>
      </trkpt>
      <trkpt lat="47.88884" lon="6.73993">
        <ele>488.097443</ele>
        <time>2018-05-26T11:50:47Z</time>
      </trkpt>
      <trkpt lat="47.8888" lon="6.73997">
        <ele>488.219574</ele>
        <time>2018-05-26T11:50:48Z</time>
      </trkpt>
      <trkpt lat="47.88876" lon="6.74001">
        <ele>488.27597</ele>
        <time>2018-05-26T11:50:49Z</time>
      </trkpt>
      <trkpt lat="47.88871" lon="6.74005">
        <ele>488.319977</ele>
        <time>2018-05-26T11:50:50Z</time>
      </trkpt>
      <trkpt lat="47.88866" lon="6.74008">
        <ele>488.368164</ele>
        <time>2018-05-26T11:50:51Z</time>
      </trkpt>
      <trkpt lat="47.88862" lon="6.74012">
        <ele>488.37326</ele>
        <time>2018-05-26T11:50:52Z</time>
      </trkpt>
      <trkpt lat="47.88857" lon="6.74017">
        <ele>488.371674</ele>
        <time>2018-05-26T11:50:53Z</time>
      </trkpt>
      <trkpt lat="47.88852" lon="6.74021">
        <ele>488.327301</ele>
        <time>2018-05-26T11:50:54Z</time>
      </trkpt>
      <trkpt lat="47.88847" lon="6.74025">
        <ele>488.276947</ele>
        <time>2018-05-26T11:50:55Z</time>
      </trkpt>
      <trkpt lat="47.88842" lon="6.74029">
        <ele>488.215912</ele>
        <time>2018-05-26T11:50:56Z</time>
      </trkpt>
      <trkpt lat="47.88837" lon="6.74033">
        <ele>488.097534</ele>
        <time>2018-05-26T11:50:57Z</time>
      </trkpt>
      <trkpt lat="47.88833" lon="6.74037">
        <ele>488.006378</ele>
        <time>2018-05-26T11:50:58Z</time>
      </trkpt>
      <trkpt lat="47.88828" lon="6.74041">
        <ele>487.913177</ele>
        <time>2018-05-26T11:50:59Z</time>
      </trkpt>
      <trkpt lat="47.88823" lon="6.74045">
        <ele>487.787109</ele>
        <time>2018-05-26T11:51:00Z</time>
      </trkpt>
      <trkpt lat="47.88818" lon="6.7405">
        <ele>487.712738</ele>
        <time>2018-05-26T11:51:01Z</time>
      </trkpt>
      <trkpt lat="47.88813" lon="6.74055">
        <ele>487.643402</ele>
        <time>2018-05-26T11:51:02Z</time>
      </trkpt>
      <trkpt lat="47.88808" lon="6.74059">
        <ele>487.558929</ele>
        <time>2018-05-26T11:51:03Z</time>
      </trkpt>
      <trkpt lat="47.88804" lon="6.74064">
        <ele>487.522949</ele>
        <time>2018-05-26T11:51:04Z</time>
      </trkpt>
      <trkpt lat="47.88799" lon="6.74069">
        <ele>487.502686</ele>
        <time>2018-05-26T11:51:05Z</time>
      </trkpt>
      <trkpt lat="47.88795" lon="6.74074">
        <ele>487.495514</ele>
        <time>2018-05-26T11:51:06Z</time>
      </trkpt>
      <trkpt lat="47.88791" lon="6.74079">
        <ele>487.495575</ele>
        <time>2018-05-26T11:51:07Z</time>
      </trkpt>
      <trkpt lat="47.88787" lon="6.74085">
        <ele>487.504272</ele>
        <time>2018-05-26T11:51:08Z</time>
      </trkpt>
      <trkpt lat="47.88783" lon="6.7409">
        <ele>487.527985</ele>
        <time>2018-05-26T11:51:09Z</time>
      </trkpt>
      <trkpt lat="47.88779" lon="6.74096">
        <ele>487.546783</ele>
        <time>2018-05-26T11:51:10Z</time>
      </trkpt>
      <trkpt lat="47.88775" lon="6.74102">
        <ele>487.570953</ele>
        <time>2018-05-26T11:51:11Z</time>
      </trkpt>
      <trkpt lat="47.88771" lon="6.74107">
        <ele>487.587738</ele>
        <time>2018-05-26T11:51:12Z</time>
      </trkpt>
      <trkpt lat="47.88768" lon="6.74113">
        <ele>487.609222</ele>
        <time>2018-05-26T11:51:13Z</time>
      </trkpt>
      <trkpt lat="47.88765" lon="6.74118">
        <ele>487.673431</ele>
        <time>2018-05-26T11:51:14Z</time>
      </trkpt>
      <trkpt lat="47.88761" lon="6.74124">
        <ele>487.835449</ele>
        <time>2018-05-26T11:51:15Z</time>
      </trkpt>
      <trkpt lat="47.88758" lon="6.74129">
        <ele>487.987946</ele>
        <time>2018-05-26T11:51:16Z</time>
      </trkpt>
      <trkpt lat="47.88755" lon="6.74134">
        <ele>488.170288</ele>
        <time>2018-05-26T11:51:17Z</time>
      </trkpt>
      <trkpt lat="47.88752" lon="6.7414">
        <ele>488.480072</ele>
        <time>2018-05-26T11:51:18Z</time>
      </trkpt>
      <trkpt lat="47.88748" lon="6.74144">
        <ele>488.691071</ele>
        <time>2018-05-26T11:51:19Z</time>
      </trkpt>
      <trkpt lat="47.88746" lon="6.74149">
        <ele>488.890503</ele>
        <time>2018-05-26T11:51:20Z</time>
      </trkpt>
      <trkpt lat="47.88742" lon="6.74154">
        <ele>489.075104</ele>
        <time>2018-05-26T11:51:21Z</time>
      </trkpt>
      <trkpt lat="47.88739" lon="6.74159">
        <ele>489.328033</ele>
        <time>2018-05-26T11:51:22Z</time>
      </trkpt>
      <trkpt lat="47.88736" lon="6.74163">
        <ele>489.487274</ele>
        <time>2018-05-26T11:51:23Z</time>
      </trkpt>
      <trkpt lat="47.88733" lon="6.74168">
        <ele>489.639191</ele>
        <time>2018-05-26T11:51:24Z</time>
      </trkpt>
      <trkpt lat="47.8873" lon="6.74172">
        <ele>489.858551</ele>
        <time>2018-05-26T11:51:25Z</time>
      </trkpt>
      <trkpt lat="47.88726" lon="6.74177">
        <ele>489.996002</ele>
        <time>2018-05-26T11:51:26Z</time>
      </trkpt>
      <trkpt lat="47.88723" lon="6.74181">
        <ele>490.12207</ele>
        <time>2018-05-26T11:51:27Z</time>
      </trkpt>
      <trkpt lat="47.88719" lon="6.74185">
        <ele>490.292084</ele>
        <time>2018-05-26T11:51:28Z</time>
      </trkpt>
      <trkpt lat="47.88715" lon="6.74188">
        <ele>490.405151</ele>
        <time>2018-05-26T11:51:29Z</time>
      </trkpt>
      <trkpt lat="47.88711" lon="6.74191">
        <ele>490.519897</ele>
        <time>2018-05-26T11:51:30Z</time>
      </trkpt>
      <trkpt lat="47.88707" lon="6.74193">
        <ele>490.681122</ele>
        <time>2018-05-26T11:51:31Z</time>
      </trkpt>
      <trkpt lat="47.88702" lon="6.74194">
        <ele>490.769043</ele>
        <time>2018-05-26T11:51:32Z</time>
      </trkpt>
      <trkpt lat="47.88698" lon="6.74195">
        <ele>490.874756</ele>
        <time>2018-05-26T11:51:33Z</time>
      </trkpt>
      <trkpt lat="47.88694" lon="6.74195">
        <ele>490.9375</ele>
        <time>2018-05-26T11:51:34Z</time>
      </trkpt>
      <trkpt lat="47.88689" lon="6.74195">
        <ele>491.000763</ele>
        <time>2018-05-26T11:51:35Z</time>
      </trkpt>
      <trkpt lat="47.88684" lon="6.74195">
        <ele>491.101959</ele>
        <time>2018-05-26T11:51:36Z</time>
      </trkpt>
      <trkpt lat="47.8868" lon="6.74196">
        <ele>491.169525</ele>
        <time>2018-05-26T11:51:37Z</time>
      </trkpt>
      <trkpt lat="47.88675" lon="6.74197">
        <ele>491.264069</ele>
        <time>2018-05-26T11:51:38Z</time>
      </trkpt>
      <trkpt lat="47.8867" lon="6.74198">
        <ele>491.327545</ele>
        <time>2018-05-26T11:51:39Z</time>
      </trkpt>
      <trkpt lat="47.88665" lon="6.742">
        <ele>491.453247</ele>
        <time>2018-05-26T11:51:40Z</time>
      </trkpt>
      <trkpt lat="47.88661" lon="6.74202">
        <ele>491.553436</ele>
        <time>2018-05-26T11:51:41Z</time>
      </trkpt>
      <trkpt lat="47.88657" lon="6.74206">
        <ele>491.654327</ele>
        <time>2018-05-26T11:51:42Z</time>
      </trkpt>
      <trkpt lat="47.88652" lon="6.74209">
        <ele>491.798828</ele>
        <time>2018-05-26T11:51:43Z</time>
      </trkpt>
      <trkpt lat="47.88648" lon="6.74213">
        <ele>491.903778</ele>
        <time>2018-05-26T11:51:44Z</time>
      </trkpt>
      <trkpt lat="47.88644" lon="6.74216">
        <ele>492.025879</ele>
        <time>2018-05-26T11:51:45Z</time>
      </trkpt>
      <trkpt lat="47.8864" lon="6.7422">
        <ele>492.232758</ele>
        <time>2018-05-26T11:51:46Z</time>
      </trkpt>
      <trkpt lat="47.88635" lon="6.74224">
        <ele>492.365326</ele>
        <time>2018-05-26T11:51:47Z</time>
      </trkpt>
      <trkpt lat="47.88631" lon="6.74227">
        <ele>492.483978</ele>
        <time>2018-05-26T11:51:48Z</time>
      </trkpt>
      <trkpt lat="47.88627" lon="6.74231">
        <ele>492.637787</ele>
        <time>2018-05-26T11:51:49Z</time>
      </trkpt>
      <trkpt lat="47.88622" lon="6.74234">
        <ele>492.731812</ele>
        <time>2018-05-26T11:51:50Z</time>
      </trkpt>
      <trkpt lat="47.88619" lon="6.74238">
        <ele>492.814911</ele>
        <time>2018-05-26T11:51:51Z</time>
      </trkpt>
      <trkpt lat="47.88615" lon="6.74242">
        <ele>492.920624</ele>
        <time>2018-05-26T11:51:52Z</time>
      </trkpt>
      <trkpt lat="47.88611" lon="6.74246">
        <ele>492.989532</ele>
        <time>2018-05-26T11:51:53Z</time>
      </trkpt>
      <trkpt lat="47.88606" lon="6.7425">
        <ele>493.065155</ele>
        <time>2018-05-26T11:51:54Z</time>
      </trkpt>
      <trkpt lat="47.88602" lon="6.74254">
        <ele>493.198212</ele>
        <time>2018-05-26T11:51:55Z</time>
      </trkpt>
      <trkpt lat="47.88598" lon="6.74257">
        <ele>493.292816</ele>
        <time>2018-05-26T11:51:56Z</time>
      </trkpt>
      <trkpt lat="47.88594" lon="6.74261">
        <ele>493.386871</ele>
        <time>2018-05-26T11:51:57Z</time>
      </trkpt>
      <trkpt lat="47.8859" lon="6.74265">
        <ele>493.508148</ele>
        <time>2018-05-26T11:51:58Z</time>
      </trkpt>
      <trkpt lat="47.88586" lon="6.74268">
        <ele>493.568939</ele>
        <time>2018-05-26T11:51:59Z</time>
      </trkpt>
      <trkpt lat="47.88583" lon="6.74272">
        <ele>493.607025</ele>
        <time>2018-05-26T11:52:00Z</time>
      </trkpt>
      <trkpt lat="47.88579" lon="6.74276">
        <ele>493.636322</ele>
        <time>2018-05-26T11:52:01Z</time>
      </trkpt>
      <trkpt lat="47.88575" lon="6.7428">
        <ele>493.64444</ele>
        <time>2018-05-26T11:52:02Z</time>
      </trkpt>
      <trkpt lat="47.8857" lon="6.74285">
        <ele>493.64975</ele>
        <time>2018-05-26T11:52:03Z</time>
      </trkpt>
      <trkpt lat="47.88567" lon="6.74288">
        <ele>493.664215</ele>
        <time>2018-05-26T11:52:04Z</time>
      </trkpt>
      <trkpt lat="47.88563" lon="6.74292">
        <ele>493.691193</ele>
        <time>2018-05-26T11:52:05Z</time>
      </trkpt>
      <trkpt lat="47.88558" lon="6.74296">
        <ele>493.735809</ele>
        <time>2018-05-26T11:52:06Z</time>
      </trkpt>
      <trkpt lat="47.88554" lon="6.743">
        <ele>493.8302</ele>
        <time>2018-05-26T11:52:07Z</time>
      </trkpt>
      <trkpt lat="47.8855" lon="6.74305">
        <ele>493.905975</ele>
        <time>2018-05-26T11:52:08Z</time>
      </trkpt>
      <trkpt lat="47.88546" lon="6.74309">
        <ele>493.989349</ele>
        <time>2018-05-26T11:52:09Z</time>
      </trkpt>
      <trkpt lat="47.88543" lon="6.74313">
        <ele>494.115875</ele>
        <time>2018-05-26T11:52:10Z</time>
      </trkpt>
      <trkpt lat="47.88539" lon="6.74318">
        <ele>494.201508</ele>
        <time>2018-05-26T11:52:11Z</time>
      </trkpt>
      <trkpt lat="47.88535" lon="6.74323">
        <ele>494.292389</ele>
        <time>2018-05-26T11:52:12Z</time>
      </trkpt>
      <trkpt lat="47.88531" lon="6.74327">
        <ele>494.342163</ele>
        <time>2018-05-26T11:52:13Z</time>
      </trkpt>
      <trkpt lat="47.88528" lon="6.74332">
        <ele>494.395782</ele>
        <time>2018-05-26T11:52:14Z</time>
      </trkpt>
      <trkpt lat="47.88524" lon="6.74338">
        <ele>494.512604</ele>
        <time>2018-05-26T11:52:15Z</time>
      </trkpt>
      <trkpt lat="47.88521" lon="6.74343">
        <ele>494.693481</ele>
        <time>2018-05-26T11:52:16Z</time>
      </trkpt>
      <trkpt lat="47.88517" lon="6.74349">
        <ele>494.798676</ele>
        <time>2018-05-26T11:52:17Z</time>
      </trkpt>
      <trkpt lat="47.88514" lon="6.74355">
        <ele>494.888794</ele>
        <time>2018-05-26T11:52:18Z</time>
      </trkpt>
      <trkpt lat="47.88511" lon="6.74361">
        <ele>495.001556</ele>
        <time>2018-05-26T11:52:19Z</time>
      </trkpt>
      <trkpt lat="47.88508" lon="6.74367">
        <ele>495.060791</ele>
        <time>2018-05-26T11:52:20Z</time>
      </trkpt>
      <trkpt lat="47.88505" lon="6.74373">
        <ele>495.096436</ele>
        <time>2018-05-26T11:52:21Z</time>
      </trkpt>
      <trkpt lat="47.88502" lon="6.74379">
        <ele>495.107666</ele>
        <time>2018-05-26T11:52:22Z</time>
      </trkpt>
      <trkpt lat="47.885" lon="6.74386">
        <ele>495.110626</ele>
        <time>2018-05-26T11:52:23Z</time>
      </trkpt>
      <trkpt lat="47.88497" lon="6.74392">
        <ele>495.111664</ele>
        <time>2018-05-26T11:52:24Z</time>
      </trkpt>
      <trkpt lat="47.88494" lon="6.74398">
        <ele>495.114716</ele>
        <time>2018-05-26T11:52:25Z</time>
      </trkpt>
      <trkpt lat="47.88491" lon="6.74404">
        <ele>495.147461</ele>
        <time>2018-05-26T11:52:26Z</time>
      </trkpt>
      <trkpt lat="47.88488" lon="6.7441">
        <ele>495.185394</ele>
        <time>2018-05-26T11:52:27Z</time>
      </trkpt>
      <trkpt lat="47.88485" lon="6.74416">
        <ele>495.231079</ele>
        <time>2018-05-26T11:52:28Z</time>
      </trkpt>
      <trkpt lat="47.88482" lon="6.74423">
        <ele>495.296051</ele>
        <time>2018-05-26T11:52:29Z</time>
      </trkpt>
      <trkpt lat="47.8848" lon="6.74429">
        <ele>495.333862</ele>
        <time>2018-05-26T11:52:30Z</time>
      </trkpt>
      <trkpt lat="47.88477" lon="6.74435">
        <ele>495.365967</ele>
        <time>2018-05-26T11:52:31Z</time>
      </trkpt>
      <trkpt lat="47.88474" lon="6.74441">
        <ele>495.404022</ele>
        <time>2018-05-26T11:52:32Z</time>
      </trkpt>
      <trkpt lat="47.88471" lon="6.74447">
        <ele>495.425049</ele>
        <time>2018-05-26T11:52:33Z</time>
      </trkpt>
      <trkpt lat="47.88468" lon="6.74453">
        <ele>495.447632</ele>
        <time>2018-05-26T11:52:34Z</time>
      </trkpt>
      <trkpt lat="47.88465" lon="6.74459">
        <ele>495.48703</ele>
        <time>2018-05-26T11:52:35Z</time>
      </trkpt>
      <trkpt lat="47.88462" lon="6.74465">
        <ele>495.513641</ele>
        <time>2018-05-26T11:52:36Z</time>
      </trkpt>
      <trkpt lat="47.88459" lon="6.74471">
        <ele>495.535675</ele>
        <time>2018-05-26T11:52:37Z</time>
      </trkpt>
      <trkpt lat="47.88456" lon="6.74476">
        <ele>495.560059</ele>
        <time>2018-05-26T11:52:38Z</time>
      </trkpt>
      <trkpt lat="47.88453" lon="6.74482">
        <ele>495.573364</ele>
        <time>2018-05-26T11:52:39Z</time>
      </trkpt>
      <trkpt lat="47.88449" lon="6.74488">
        <ele>495.580231</ele>
        <time>2018-05-26T11:52:40Z</time>
      </trkpt>
      <trkpt lat="47.88446" lon="6.74494">
        <ele>495.583008</ele>
        <time>2018-05-26T11:52:41Z</time>
      </trkpt>
      <trkpt lat="47.88442" lon="6.74499">
        <ele>495.585663</ele>
        <time>2018-05-26T11:52:42Z</time>
      </trkpt>
      <trkpt lat="47.88438" lon="6.74504">
        <ele>495.587036</ele>
        <time>2018-05-26T11:52:43Z</time>
      </trkpt>
      <trkpt lat="47.88434" lon="6.74508">
        <ele>495.604584</ele>
        <time>2018-05-26T11:52:44Z</time>
      </trkpt>
      <trkpt lat="47.8843" lon="6.74512">
        <ele>495.623657</ele>
        <time>2018-05-26T11:52:45Z</time>
      </trkpt>
      <trkpt lat="47.88425" lon="6.74516">
        <ele>495.646881</ele>
        <time>2018-05-26T11:52:46Z</time>
      </trkpt>
      <trkpt lat="47.88421" lon="6.7452">
        <ele>495.699219</ele>
        <time>2018-05-26T11:52:47Z</time>
      </trkpt>
      <trkpt lat="47.88416" lon="6.74524">
        <ele>495.75058</ele>
        <time>2018-05-26T11:52:48Z</time>
      </trkpt>
      <trkpt lat="47.88411" lon="6.74526">
        <ele>495.813995</ele>
        <time>2018-05-26T11:52:49Z</time>
      </trkpt>
      <trkpt lat="47.88406" lon="6.74529">
        <ele>495.93042</ele>
        <time>2018-05-26T11:52:50Z</time>
      </trkpt>
      <trkpt lat="47.88401" lon="6.74531">
        <ele>496.022827</ele>
        <time>2018-05-26T11:52:51Z</time>
      </trkpt>
      <trkpt lat="47.88396" lon="6.74533">
        <ele>496.126709</ele>
        <time>2018-05-26T11:52:52Z</time>
      </trkpt>
      <trkpt lat="47.8839" lon="6.74535">
        <ele>496.28833</ele>
        <time>2018-05-26T11:52:53Z</time>
      </trkpt>
      <trkpt lat="47.88386" lon="6.74537">
        <ele>496.388794</ele>
        <time>2018-05-26T11:52:54Z</time>
      </trkpt>
      <trkpt lat="47.8838" lon="6.74538">
        <ele>496.514923</ele>
        <time>2018-05-26T11:52:55Z</time>
      </trkpt>
      <trkpt lat="47.88376" lon="6.7454">
        <ele>496.578705</ele>
        <time>2018-05-26T11:52:56Z</time>
      </trkpt>
      <trkpt lat="47.88371" lon="6.74541">
        <ele>496.65329</ele>
        <time>2018-05-26T11:52:57Z</time>
      </trkpt>
      <trkpt lat="47.88365" lon="6.74543">
        <ele>496.690918</ele>
        <time>2018-05-26T11:52:58Z</time>
      </trkpt>
      <trkpt lat="47.88361" lon="6.74544">
        <ele>496.719391</ele>
        <time>2018-05-26T11:52:59Z</time>
      </trkpt>
      <trkpt lat="47.88355" lon="6.74545">
        <ele>496.748871</ele>
        <time>2018-05-26T11:53:00Z</time>
      </trkpt>
      <trkpt lat="47.88351" lon="6.74547">
        <ele>496.765533</ele>
        <time>2018-05-26T11:53:01Z</time>
      </trkpt>
      <trkpt lat="47.88347" lon="6.74548">
        <ele>496.78244</ele>
        <time>2018-05-26T11:53:02Z</time>
      </trkpt>
      <trkpt lat="47.88342" lon="6.7455">
        <ele>496.787262</ele>
        <time>2018-05-26T11:53:03Z</time>
      </trkpt>
      <trkpt lat="47.88337" lon="6.74552">
        <ele>496.789703</ele>
        <time>2018-05-26T11:53:04Z</time>
      </trkpt>
      <trkpt lat="47.88332" lon="6.74554">
        <ele>496.802338</ele>
        <time>2018-05-26T11:53:05Z</time>
      </trkpt>
      <trkpt lat="47.88327" lon="6.74556">
        <ele>496.826416</ele>
        <time>2018-05-26T11:53:06Z</time>
      </trkpt>
      <trkpt lat="47.88323" lon="6.74559">
        <ele>496.874603</ele>
        <time>2018-05-26T11:53:07Z</time>
      </trkpt>
      <trkpt lat="47.88319" lon="6.74561">
        <ele>496.99411</ele>
        <time>2018-05-26T11:53:08Z</time>
      </trkpt>
      <trkpt lat="47.88314" lon="6.74563">
        <ele>497.097015</ele>
        <time>2018-05-26T11:53:09Z</time>
      </trkpt>
      <trkpt lat="47.8831" lon="6.74566">
        <ele>497.206451</ele>
        <time>2018-05-26T11:53:10Z</time>
      </trkpt>
      <trkpt lat="47.88306" lon="6.7457">
        <ele>497.366821</ele>
        <time>2018-05-26T11:53:11Z</time>
      </trkpt>
      <trkpt lat="47.88302" lon="6.74573">
        <ele>497.480865</ele>
        <time>2018-05-26T11:53:12Z</time>
      </trkpt>
      <trkpt lat="47.88298" lon="6.74577">
        <ele>497.601074</ele>
        <time>2018-05-26T11:53:13Z</time>
      </trkpt>
      <trkpt lat="47.88294" lon="6.74581">
        <ele>497.662598</ele>
        <time>2018-05-26T11:53:14Z</time>
      </trkpt>
      <trkpt lat="47.88291" lon="6.74586">
        <ele>497.842682</ele>
        <time>2018-05-26T11:53:15Z</time>
      </trkpt>
      <trkpt lat="47.88289" lon="6.74591">
        <ele>497.954681</ele>
        <time>2018-05-26T11:53:16Z</time>
      </trkpt>
      <trkpt lat="47.88285" lon="6.74596">
        <ele>498.062988</ele>
        <time>2018-05-26T11:53:17Z</time>
      </trkpt>
      <trkpt lat="47.88283" lon="6.74601">
        <ele>498.168304</ele>
        <time>2018-05-26T11:53:18Z</time>
      </trkpt>
      <trkpt lat="47.88279" lon="6.74606">
        <ele>498.266754</ele>
        <time>2018-05-26T11:53:19Z</time>
      </trkpt>
      <trkpt lat="47.88277" lon="6.74612">
        <ele>498.398956</ele>
        <time>2018-05-26T11:53:20Z</time>
      </trkpt>
      <trkpt lat="47.88275" lon="6.74617">
        <ele>498.486481</ele>
        <time>2018-05-26T11:53:21Z</time>
      </trkpt>
      <trkpt lat="47.88273" lon="6.74624">
        <ele>498.585297</ele>
        <time>2018-05-26T11:53:22Z</time>
      </trkpt>
      <trkpt lat="47.88271" lon="6.7463">
        <ele>498.766083</ele>
        <time>2018-05-26T11:53:23Z</time>
      </trkpt>
      <trkpt lat="47.88269" lon="6.74636">
        <ele>498.905792</ele>
        <time>2018-05-26T11:53:24Z</time>
      </trkpt>
      <trkpt lat="47.88267" lon="6.74642">
        <ele>499.057159</ele>
        <time>2018-05-26T11:53:25Z</time>
      </trkpt>
      <trkpt lat="47.88265" lon="6.74648">
        <ele>499.3013</ele>
        <time>2018-05-26T11:53:26Z</time>
      </trkpt>
      <trkpt lat="47.88263" lon="6.74655">
        <ele>499.46225</ele>
        <time>2018-05-26T11:53:27Z</time>
      </trkpt>
      <trkpt lat="47.88262" lon="6.74661">
        <ele>499.616852</ele>
        <time>2018-05-26T11:53:28Z</time>
      </trkpt>
      <trkpt lat="47.8826" lon="6.74668">
        <ele>499.823029</ele>
        <time>2018-05-26T11:53:29Z</time>
      </trkpt>
      <trkpt lat="47.88258" lon="6.74675">
        <ele>499.938019</ele>
        <time>2018-05-26T11:53:30Z</time>
      </trkpt>
      <trkpt lat="47.88257" lon="6.74681">
        <ele>500.029266</ele>
        <time>2018-05-26T11:53:31Z</time>
      </trkpt>
      <trkpt lat="47.88255" lon="6.74688">
        <ele>500.142548</ele>
        <time>2018-05-26T11:53:32Z</time>
      </trkpt>
      <trkpt lat="47.88253" lon="6.74695">
        <ele>500.217407</ele>
        <time>2018-05-26T11:53:33Z</time>
      </trkpt>
      <trkpt lat="47.88251" lon="6.74702">
        <ele>500.306061</ele>
        <time>2018-05-26T11:53:34Z</time>
      </trkpt>
      <trkpt lat="47.88249" lon="6.74708">
        <ele>500.405396</ele>
        <time>2018-05-26T11:53:35Z</time>
      </trkpt>
      <trkpt lat="47.88247" lon="6.74715">
        <ele>500.568726</ele>
        <time>2018-05-26T11:53:36Z</time>
      </trkpt>
      <trkpt lat="47.88245" lon="6.74722">
        <ele>500.676483</ele>
        <time>2018-05-26T11:53:37Z</time>
      </trkpt>
      <trkpt lat="47.88243" lon="6.74728">
        <ele>500.776367</ele>
        <time>2018-05-26T11:53:38Z</time>
      </trkpt>
      <trkpt lat="47.88241" lon="6.74735">
        <ele>500.861725</ele>
        <time>2018-05-26T11:53:39Z</time>
      </trkpt>
      <trkpt lat="47.8824" lon="6.74742">
        <ele>500.934174</ele>
        <time>2018-05-26T11:53:40Z</time>
      </trkpt>
      <trkpt lat="47.88238" lon="6.74749">
        <ele>500.993988</ele>
        <time>2018-05-26T11:53:41Z</time>
      </trkpt>
      <trkpt lat="47.88236" lon="6.74755">
        <ele>501.057404</ele>
        <time>2018-05-26T11:53:42Z</time>
      </trkpt>
      <trkpt lat="47.88234" lon="6.74762">
        <ele>501.083252</ele>
        <time>2018-05-26T11:53:43Z</time>
      </trkpt>
      <trkpt lat="47.88232" lon="6.74769">
        <ele>501.104767</ele>
        <time>2018-05-26T11:53:44Z</time>
      </trkpt>
      <trkpt lat="47.8823" lon="6.74776">
        <ele>501.129272</ele>
        <time>2018-05-26T11:53:45Z</time>
      </trkpt>
      <trkpt lat="47.88227" lon="6.74783">
        <ele>501.144196</ele>
        <time>2018-05-26T11:53:46Z</time>
      </trkpt>
      <trkpt lat="47.88224" lon="6.7479">
        <ele>501.159027</ele>
        <time>2018-05-26T11:53:47Z</time>
      </trkpt>
      <trkpt lat="47.88222" lon="6.74797">
        <ele>501.170746</ele>
        <time>2018-05-26T11:53:48Z</time>
      </trkpt>
      <trkpt lat="47.88219" lon="6.74804">
        <ele>501.170746</ele>
        <time>2018-05-26T11:53:49Z</time>
      </trkpt>
      <trkpt lat="47.88215" lon="6.7481">
        <ele>501.161011</ele>
        <time>2018-05-26T11:53:50Z</time>
      </trkpt>
      <trkpt lat="47.88211" lon="6.74816">
        <ele>501.141815</ele>
        <time>2018-05-26T11:53:51Z</time>
      </trkpt>
      <trkpt lat="47.88207" lon="6.74822">
        <ele>501.113556</ele>
        <time>2018-05-26T11:53:52Z</time>
      </trkpt>
      <trkpt lat="47.88203" lon="6.74827">
        <ele>501.092896</ele>
        <time>2018-05-26T11:53:53Z</time>
      </trkpt>
      <trkpt lat="47.88199" lon="6.74832">
        <ele>501.062469</ele>
        <time>2018-05-26T11:53:54Z</time>
      </trkpt>
      <trkpt lat="47.88194" lon="6.74837">
        <ele>501.008026</ele>
        <time>2018-05-26T11:53:55Z</time>
      </trkpt>
      <trkpt lat="47.88189" lon="6.74842">
        <ele>500.996552</ele>
        <time>2018-05-26T11:53:56Z</time>
      </trkpt>
      <trkpt lat="47.88185" lon="6.74846">
        <ele>500.996552</ele>
        <time>2018-05-26T11:53:57Z</time>
      </trkpt>
      <trkpt lat="47.8818" lon="6.74851">
        <ele>501.018036</ele>
        <time>2018-05-26T11:53:58Z</time>
      </trkpt>
      <trkpt lat="47.88175" lon="6.74856">
        <ele>501.040985</ele>
        <time>2018-05-26T11:53:59Z</time>
      </trkpt>
      <trkpt lat="47.88171" lon="6.7486">
        <ele>501.067047</ele>
        <time>2018-05-26T11:54:00Z</time>
      </trkpt>
      <trkpt lat="47.88166" lon="6.74865">
        <ele>501.127594</ele>
        <time>2018-05-26T11:54:01Z</time>
      </trkpt>
      <trkpt lat="47.88162" lon="6.74869">
        <ele>501.180328</ele>
        <time>2018-05-26T11:54:02Z</time>
      </trkpt>
      <trkpt lat="47.88157" lon="6.74873">
        <ele>501.229492</ele>
        <time>2018-05-26T11:54:03Z</time>
      </trkpt>
      <trkpt lat="47.88152" lon="6.74878">
        <ele>501.282959</ele>
        <time>2018-05-26T11:54:04Z</time>
      </trkpt>
      <trkpt lat="47.88147" lon="6.74882">
        <ele>501.307465</ele>
        <time>2018-05-26T11:54:05Z</time>
      </trkpt>
      <trkpt lat="47.88143" lon="6.74886">
        <ele>501.317139</ele>
        <time>2018-05-26T11:54:06Z</time>
      </trkpt>
      <trkpt lat="47.88139" lon="6.74891">
        <ele>501.31308</ele>
        <time>2018-05-26T11:54:07Z</time>
      </trkpt>
      <trkpt lat="47.88134" lon="6.74895">
        <ele>501.285645</ele>
        <time>2018-05-26T11:54:08Z</time>
      </trkpt>
      <trkpt lat="47.88129" lon="6.749">
        <ele>501.23526</ele>
        <time>2018-05-26T11:54:09Z</time>
      </trkpt>
      <trkpt lat="47.88125" lon="6.74905">
        <ele>501.145172</ele>
        <time>2018-05-26T11:54:10Z</time>
      </trkpt>
      <trkpt lat="47.88121" lon="6.7491">
        <ele>501.084473</ele>
        <time>2018-05-26T11:54:11Z</time>
      </trkpt>
      <trkpt lat="47.88117" lon="6.74915">
        <ele>501.029938</ele>
        <time>2018-05-26T11:54:12Z</time>
      </trkpt>
      <trkpt lat="47.88113" lon="6.7492">
        <ele>500.970093</ele>
        <time>2018-05-26T11:54:13Z</time>
      </trkpt>
      <trkpt lat="47.8811" lon="6.74926">
        <ele>500.953156</ele>
        <time>2018-05-26T11:54:14Z</time>
      </trkpt>
      <trkpt lat="47.88107" lon="6.74933">
        <ele>500.95163</ele>
        <time>2018-05-26T11:54:15Z</time>
      </trkpt>
      <trkpt lat="47.88104" lon="6.74939">
        <ele>500.95163</ele>
        <time>2018-05-26T11:54:16Z</time>
      </trkpt>
      <trkpt lat="47.881" lon="6.74945">
        <ele>500.95163</ele>
        <time>2018-05-26T11:54:17Z</time>
      </trkpt>
      <trkpt lat="47.88098" lon="6.74952">
        <ele>500.95871</ele>
        <time>2018-05-26T11:54:18Z</time>
      </trkpt>
      <trkpt lat="47.88095" lon="6.74958">
        <ele>500.98996</ele>
        <time>2018-05-26T11:54:19Z</time>
      </trkpt>
      <trkpt lat="47.88092" lon="6.74965">
        <ele>501.022736</ele>
        <time>2018-05-26T11:54:20Z</time>
      </trkpt>
      <trkpt lat="47.88089" lon="6.74971">
        <ele>501.058807</ele>
        <time>2018-05-26T11:54:21Z</time>
      </trkpt>
      <trkpt lat="47.88086" lon="6.74978">
        <ele>501.104858</ele>
        <time>2018-05-26T11:54:22Z</time>
      </trkpt>
      <trkpt lat="47.88084" lon="6.74985">
        <ele>501.133209</ele>
        <time>2018-05-26T11:54:23Z</time>
      </trkpt>
      <trkpt lat="47.88081" lon="6.74992">
        <ele>501.168701</ele>
        <time>2018-05-26T11:54:24Z</time>
      </trkpt>
      <trkpt lat="47.88078" lon="6.74998">
        <ele>501.204681</ele>
        <time>2018-05-26T11:54:25Z</time>
      </trkpt>
      <trkpt lat="47.88075" lon="6.75005">
        <ele>501.241302</ele>
        <time>2018-05-26T11:54:26Z</time>
      </trkpt>
      <trkpt lat="47.88071" lon="6.75011">
        <ele>501.243805</ele>
        <time>2018-05-26T11:54:27Z</time>
      </trkpt>
      <trkpt lat="47.88068" lon="6.75018">
        <ele>501.242645</ele>
        <time>2018-05-26T11:54:28Z</time>
      </trkpt>
      <trkpt lat="47.88066" lon="6.75024">
        <ele>501.213654</ele>
        <time>2018-05-26T11:54:29Z</time>
      </trkpt>
      <trkpt lat="47.88063" lon="6.75031">
        <ele>501.180084</ele>
        <time>2018-05-26T11:54:30Z</time>
      </trkpt>
      <trkpt lat="47.8806" lon="6.75037">
        <ele>501.134186</ele>
        <time>2018-05-26T11:54:31Z</time>
      </trkpt>
      <trkpt lat="47.88058" lon="6.75044">
        <ele>501.052979</ele>
        <time>2018-05-26T11:54:32Z</time>
      </trkpt>
      <trkpt lat="47.88055" lon="6.75051">
        <ele>501.002594</ele>
        <time>2018-05-26T11:54:33Z</time>
      </trkpt>
      <trkpt lat="47.88054" lon="6.75059">
        <ele>500.973389</ele>
        <time>2018-05-26T11:54:34Z</time>
      </trkpt>
      <trkpt lat="47.88052" lon="6.75066">
        <ele>500.967773</ele>
        <time>2018-05-26T11:54:35Z</time>
      </trkpt>
      <trkpt lat="47.8805" lon="6.75073">
        <ele>500.974365</ele>
        <time>2018-05-26T11:54:36Z</time>
      </trkpt>
      <trkpt lat="47.88046" lon="6.7508">
        <ele>500.995514</ele>
        <time>2018-05-26T11:54:37Z</time>
      </trkpt>
      <trkpt lat="47.88042" lon="6.75085">
        <ele>501.036346</ele>
        <time>2018-05-26T11:54:38Z</time>
      </trkpt>
      <trkpt lat="47.88038" lon="6.7509">
        <ele>501.068085</ele>
        <time>2018-05-26T11:54:39Z</time>
      </trkpt>
      <trkpt lat="47.88034" lon="6.75094">
        <ele>501.10257</ele>
        <time>2018-05-26T11:54:40Z</time>
      </trkpt>
      <trkpt lat="47.8803" lon="6.75099">
        <ele>501.161255</ele>
        <time>2018-05-26T11:54:41Z</time>
      </trkpt>
      <trkpt lat="47.88027" lon="6.75104">
        <ele>501.215668</ele>
        <time>2018-05-26T11:54:42Z</time>
      </trkpt>
      <trkpt lat="47.88025" lon="6.75108">
        <ele>501.295166</ele>
        <time>2018-05-26T11:54:43Z</time>
      </trkpt>
      <trkpt lat="47.88022" lon="6.75113">
        <ele>501.401855</ele>
        <time>2018-05-26T11:54:44Z</time>
      </trkpt>
      <trkpt lat="47.88019" lon="6.75117">
        <ele>501.614899</ele>
        <time>2018-05-26T11:54:45Z</time>
      </trkpt>
      <trkpt lat="47.88016" lon="6.7512">
        <ele>501.800385</ele>
        <time>2018-05-26T11:54:46Z</time>
      </trkpt>
      <trkpt lat="47.88013" lon="6.75124">
        <ele>502.017059</ele>
        <time>2018-05-26T11:54:47Z</time>
      </trkpt>
      <trkpt lat="47.8801" lon="6.75127">
        <ele>502.251221</ele>
        <time>2018-05-26T11:54:48Z</time>
      </trkpt>
      <trkpt lat="47.88007" lon="6.7513">
        <ele>502.61972</ele>
        <time>2018-05-26T11:54:49Z</time>
      </trkpt>
      <trkpt lat="47.88005" lon="6.75132">
        <ele>502.869904</ele>
        <time>2018-05-26T11:54:50Z</time>
      </trkpt>
      <trkpt lat="47.88002" lon="6.75135">
        <ele>503.123016</ele>
        <time>2018-05-26T11:54:51Z</time>
      </trkpt>
      <trkpt lat="47.87999" lon="6.75138">
        <ele>503.495514</ele>
        <time>2018-05-26T11:54:52Z</time>
      </trkpt>
      <trkpt lat="47.87995" lon="6.7514">
        <ele>503.734161</ele>
        <time>2018-05-26T11:54:53Z</time>
      </trkpt>
      <trkpt lat="47.87992" lon="6.75142">
        <ele>503.958405</ele>
        <time>2018-05-26T11:54:54Z</time>
      </trkpt>
      <trkpt lat="47.87988" lon="6.75144">
        <ele>504.261627</ele>
        <time>2018-05-26T11:54:55Z</time>
      </trkpt>
      <trkpt lat="47.87985" lon="6.75145">
        <ele>504.443268</ele>
        <time>2018-05-26T11:54:56Z</time>
      </trkpt>
      <trkpt lat="47.87981" lon="6.75147">
        <ele>504.616852</ele>
        <time>2018-05-26T11:54:57Z</time>
      </trkpt>
      <trkpt lat="47.87978" lon="6.75149">
        <ele>504.868683</ele>
        <time>2018-05-26T11:54:58Z</time>
      </trkpt>
      <trkpt lat="47.87975" lon="6.75151">
        <ele>505.02774</ele>
        <time>2018-05-26T11:54:59Z</time>
      </trkpt>
      <trkpt lat="47.87972" lon="6.75153">
        <ele>505.174683</ele>
        <time>2018-05-26T11:55:00Z</time>
      </trkpt>
      <trkpt lat="47.87968" lon="6.75155">
        <ele>505.367828</ele>
        <time>2018-05-26T11:55:01Z</time>
      </trkpt>
      <trkpt lat="47.87965" lon="6.75157">
        <ele>505.474396</ele>
        <time>2018-05-26T11:55:02Z</time>
      </trkpt>
      <trkpt lat="47.87962" lon="6.75158">
        <ele>505.566284</ele>
        <time>2018-05-26T11:55:03Z</time>
      </trkpt>
      <trkpt lat="47.87959" lon="6.7516">
        <ele>505.694611</ele>
        <time>2018-05-26T11:55:04Z</time>
      </trkpt>
      <trkpt lat="47.87956" lon="6.75162">
        <ele>505.782318</ele>
        <time>2018-05-26T11:55:05Z</time>
      </trkpt>
      <trkpt lat="47.87953" lon="6.75165">
        <ele>505.875946</ele>
        <time>2018-05-26T11:55:06Z</time>
      </trkpt>
      <trkpt lat="47.8795" lon="6.75168">
        <ele>506.043121</ele>
        <time>2018-05-26T11:55:07Z</time>
      </trkpt>
      <trkpt lat="47.87947" lon="6.75171">
        <ele>506.161957</ele>
        <time>2018-05-26T11:55:08Z</time>
      </trkpt>
      <trkpt lat="47.87944" lon="6.75174">
        <ele>506.27832</ele>
        <time>2018-05-26T11:55:09Z</time>
      </trkpt>
      <trkpt lat="47.87941" lon="6.75177">
        <ele>506.446625</ele>
        <time>2018-05-26T11:55:10Z</time>
      </trkpt>
      <trkpt lat="47.87938" lon="6.75181">
        <ele>506.56778</ele>
        <time>2018-05-26T11:55:11Z</time>
      </trkpt>
      <trkpt lat="47.87935" lon="6.75185">
        <ele>506.693756</ele>
        <time>2018-05-26T11:55:12Z</time>
      </trkpt>
      <trkpt lat="47.87932" lon="6.75189">
        <ele>506.874908</ele>
        <time>2018-05-26T11:55:13Z</time>
      </trkpt>
      <trkpt lat="47.87929" lon="6.75193">
        <ele>506.975739</ele>
        <time>2018-05-26T11:55:14Z</time>
      </trkpt>
      <trkpt lat="47.87923" lon="6.75201">
        <ele>507.021637</ele>
        <time>2018-05-26T11:55:16Z</time>
      </trkpt>
      <trkpt lat="47.8792" lon="6.75206">
        <ele>507.066162</ele>
        <time>2018-05-26T11:55:17Z</time>
      </trkpt>
      <trkpt lat="47.87917" lon="6.7521">
        <ele>507.154572</ele>
        <time>2018-05-26T11:55:18Z</time>
      </trkpt>
      <trkpt lat="47.87914" lon="6.75215">
        <ele>507.247162</ele>
        <time>2018-05-26T11:55:19Z</time>
      </trkpt>
      <trkpt lat="47.87911" lon="6.75219">
        <ele>507.385101</ele>
        <time>2018-05-26T11:55:20Z</time>
      </trkpt>
      <trkpt lat="47.87908" lon="6.75224">
        <ele>507.473541</ele>
        <time>2018-05-26T11:55:21Z</time>
      </trkpt>
      <trkpt lat="47.87905" lon="6.75228">
        <ele>507.566132</ele>
        <time>2018-05-26T11:55:22Z</time>
      </trkpt>
      <trkpt lat="47.87903" lon="6.75233">
        <ele>507.718628</ele>
        <time>2018-05-26T11:55:23Z</time>
      </trkpt>
      <trkpt lat="47.879" lon="6.75237">
        <ele>507.82193</ele>
        <time>2018-05-26T11:55:24Z</time>
      </trkpt>
      <trkpt lat="47.87897" lon="6.75241">
        <ele>507.914307</ele>
        <time>2018-05-26T11:55:25Z</time>
      </trkpt>
      <trkpt lat="47.87894" lon="6.75246">
        <ele>508.041992</ele>
        <time>2018-05-26T11:55:26Z</time>
      </trkpt>
      <trkpt lat="47.87891" lon="6.7525">
        <ele>508.122467</ele>
        <time>2018-05-26T11:55:27Z</time>
      </trkpt>
      <trkpt lat="47.87888" lon="6.75255">
        <ele>508.192749</ele>
        <time>2018-05-26T11:55:28Z</time>
      </trkpt>
      <trkpt lat="47.87885" lon="6.75259">
        <ele>508.265106</ele>
        <time>2018-05-26T11:55:29Z</time>
      </trkpt>
      <trkpt lat="47.87883" lon="6.75263">
        <ele>508.295135</ele>
        <time>2018-05-26T11:55:30Z</time>
      </trkpt>
      <trkpt lat="47.8788" lon="6.75267">
        <ele>508.317291</ele>
        <time>2018-05-26T11:55:31Z</time>
      </trkpt>
      <trkpt lat="47.87877" lon="6.7527">
        <ele>508.348419</ele>
        <time>2018-05-26T11:55:32Z</time>
      </trkpt>
      <trkpt lat="47.87874" lon="6.75274">
        <ele>508.365021</ele>
        <time>2018-05-26T11:55:33Z</time>
      </trkpt>
      <trkpt lat="47.8787" lon="6.75277">
        <ele>508.377106</ele>
        <time>2018-05-26T11:55:34Z</time>
      </trkpt>
      <trkpt lat="47.87867" lon="6.7528">
        <ele>508.412842</ele>
        <time>2018-05-26T11:55:35Z</time>
      </trkpt>
      <trkpt lat="47.87864" lon="6.75283">
        <ele>508.463104</ele>
        <time>2018-05-26T11:55:36Z</time>
      </trkpt>
      <trkpt lat="47.8786" lon="6.75286">
        <ele>508.538208</ele>
        <time>2018-05-26T11:55:37Z</time>
      </trkpt>
      <trkpt lat="47.87857" lon="6.75289">
        <ele>508.688751</ele>
        <time>2018-05-26T11:55:38Z</time>
      </trkpt>
      <trkpt lat="47.87853" lon="6.75293">
        <ele>508.803467</ele>
        <time>2018-05-26T11:55:39Z</time>
      </trkpt>
      <trkpt lat="47.87851" lon="6.75296">
        <ele>508.922272</ele>
        <time>2018-05-26T11:55:40Z</time>
      </trkpt>
      <trkpt lat="47.87847" lon="6.753">
        <ele>509.042633</ele>
        <time>2018-05-26T11:55:41Z</time>
      </trkpt>
      <trkpt lat="47.87844" lon="6.75303">
        <ele>509.222412</ele>
        <time>2018-05-26T11:55:42Z</time>
      </trkpt>
      <trkpt lat="47.87841" lon="6.75307">
        <ele>509.33609</ele>
        <time>2018-05-26T11:55:43Z</time>
      </trkpt>
      <trkpt lat="47.87838" lon="6.7531">
        <ele>509.441986</ele>
        <time>2018-05-26T11:55:44Z</time>
      </trkpt>
      <trkpt lat="47.87835" lon="6.75314">
        <ele>509.591949</ele>
        <time>2018-05-26T11:55:45Z</time>
      </trkpt>
      <trkpt lat="47.87831" lon="6.75318">
        <ele>509.688141</ele>
        <time>2018-05-26T11:55:46Z</time>
      </trkpt>
      <trkpt lat="47.87828" lon="6.75322">
        <ele>509.776642</ele>
        <time>2018-05-26T11:55:47Z</time>
      </trkpt>
      <trkpt lat="47.87825" lon="6.75326">
        <ele>509.890961</ele>
        <time>2018-05-26T11:55:48Z</time>
      </trkpt>
      <trkpt lat="47.87822" lon="6.75329">
        <ele>509.954956</ele>
        <time>2018-05-26T11:55:49Z</time>
      </trkpt>
      <trkpt lat="47.87819" lon="6.75333">
        <ele>510.015411</ele>
        <time>2018-05-26T11:55:50Z</time>
      </trkpt>
      <trkpt lat="47.87816" lon="6.75336">
        <ele>510.108185</ele>
        <time>2018-05-26T11:55:51Z</time>
      </trkpt>
      <trkpt lat="47.87813" lon="6.75339">
        <ele>510.176971</ele>
        <time>2018-05-26T11:55:52Z</time>
      </trkpt>
      <trkpt lat="47.8781" lon="6.75342">
        <ele>510.254059</ele>
        <time>2018-05-26T11:55:53Z</time>
      </trkpt>
      <trkpt lat="47.87807" lon="6.75344">
        <ele>510.389252</ele>
        <time>2018-05-26T11:55:54Z</time>
      </trkpt>
      <trkpt lat="47.87804" lon="6.75347">
        <ele>510.49234</ele>
        <time>2018-05-26T11:55:55Z</time>
      </trkpt>
      <trkpt lat="47.878" lon="6.75348">
        <ele>510.611908</ele>
        <time>2018-05-26T11:55:56Z</time>
      </trkpt>
      <trkpt lat="47.87797" lon="6.75349">
        <ele>510.831207</ele>
        <time>2018-05-26T11:55:57Z</time>
      </trkpt>
      <trkpt lat="47.87794" lon="6.75349">
        <ele>510.996002</ele>
        <time>2018-05-26T11:55:58Z</time>
      </trkpt>
      <trkpt lat="47.87791" lon="6.7535">
        <ele>511.168945</ele>
        <time>2018-05-26T11:55:59Z</time>
      </trkpt>
      <trkpt lat="47.87788" lon="6.75351">
        <ele>511.440521</ele>
        <time>2018-05-26T11:56:00Z</time>
      </trkpt>
      <trkpt lat="47.87786" lon="6.75353">
        <ele>511.635529</ele>
        <time>2018-05-26T11:56:01Z</time>
      </trkpt>
      <trkpt lat="47.87783" lon="6.75354">
        <ele>511.838715</ele>
        <time>2018-05-26T11:56:02Z</time>
      </trkpt>
      <trkpt lat="47.87781" lon="6.75356">
        <ele>512.146057</ele>
        <time>2018-05-26T11:56:03Z</time>
      </trkpt>
      <trkpt lat="47.8778" lon="6.75358">
        <ele>512.34021</ele>
        <time>2018-05-26T11:56:04Z</time>
      </trkpt>
      <trkpt lat="47.87778" lon="6.75361">
        <ele>512.522156</ele>
        <time>2018-05-26T11:56:05Z</time>
      </trkpt>
      <trkpt lat="47.87776" lon="6.75365">
        <ele>512.683411</ele>
        <time>2018-05-26T11:56:06Z</time>
      </trkpt>
      <trkpt lat="47.87774" lon="6.75369">
        <ele>512.889832</ele>
        <time>2018-05-26T11:56:07Z</time>
      </trkpt>
      <trkpt lat="47.87772" lon="6.75372">
        <ele>513.012024</ele>
        <time>2018-05-26T11:56:08Z</time>
      </trkpt>
      <trkpt lat="47.8777" lon="6.75375">
        <ele>513.132874</ele>
        <time>2018-05-26T11:56:09Z</time>
      </trkpt>
      <trkpt lat="47.87768" lon="6.75378">
        <ele>513.314148</ele>
        <time>2018-05-26T11:56:10Z</time>
      </trkpt>
      <trkpt lat="47.87766" lon="6.75381">
        <ele>513.443054</ele>
        <time>2018-05-26T11:56:11Z</time>
      </trkpt>
      <trkpt lat="47.87763" lon="6.75383">
        <ele>513.583435</ele>
        <time>2018-05-26T11:56:12Z</time>
      </trkpt>
      <trkpt lat="47.87761" lon="6.75386">
        <ele>513.810791</ele>
        <time>2018-05-26T11:56:13Z</time>
      </trkpt>
      <trkpt lat="47.87759" lon="6.75388">
        <ele>513.960388</ele>
        <time>2018-05-26T11:56:14Z</time>
      </trkpt>
      <trkpt lat="47.87758" lon="6.7539">
        <ele>514.031189</ele>
        <time>2018-05-26T11:56:15Z</time>
      </trkpt>
      <trkpt lat="47.87756" lon="6.75392">
        <ele>514.229675</ele>
        <time>2018-05-26T11:56:16Z</time>
      </trkpt>
      <trkpt lat="47.87753" lon="6.75394">
        <ele>514.356689</ele>
        <time>2018-05-26T11:56:17Z</time>
      </trkpt>
      <trkpt lat="47.87751" lon="6.75396">
        <ele>514.479797</ele>
        <time>2018-05-26T11:56:18Z</time>
      </trkpt>
      <trkpt lat="47.87749" lon="6.75397">
        <ele>514.641846</ele>
        <time>2018-05-26T11:56:19Z</time>
      </trkpt>
      <trkpt lat="47.87746" lon="6.75399">
        <ele>514.739807</ele>
        <time>2018-05-26T11:56:20Z</time>
      </trkpt>
      <trkpt lat="47.87744" lon="6.754">
        <ele>514.841614</ele>
        <time>2018-05-26T11:56:21Z</time>
      </trkpt>
      <trkpt lat="47.87742" lon="6.75402">
        <ele>515.01593</ele>
        <time>2018-05-26T11:56:22Z</time>
      </trkpt>
      <trkpt lat="47.8774" lon="6.75404">
        <ele>515.138489</ele>
        <time>2018-05-26T11:56:23Z</time>
      </trkpt>
      <trkpt lat="47.87737" lon="6.75405">
        <ele>515.261658</ele>
        <time>2018-05-26T11:56:24Z</time>
      </trkpt>
      <trkpt lat="47.87735" lon="6.75407">
        <ele>515.436707</ele>
        <time>2018-05-26T11:56:25Z</time>
      </trkpt>
      <trkpt lat="47.87733" lon="6.75409">
        <ele>515.547852</ele>
        <time>2018-05-26T11:56:26Z</time>
      </trkpt>
      <trkpt lat="47.87731" lon="6.75411">
        <ele>515.65332</ele>
        <time>2018-05-26T11:56:27Z</time>
      </trkpt>
      <trkpt lat="47.87729" lon="6.75413">
        <ele>515.804443</ele>
        <time>2018-05-26T11:56:28Z</time>
      </trkpt>
      <trkpt lat="47.87726" lon="6.75414">
        <ele>515.897156</ele>
        <time>2018-05-26T11:56:29Z</time>
      </trkpt>
      <trkpt lat="47.87724" lon="6.75416">
        <ele>515.981934</ele>
        <time>2018-05-26T11:56:30Z</time>
      </trkpt>
      <trkpt lat="47.87721" lon="6.75417">
        <ele>516.099365</ele>
        <time>2018-05-26T11:56:31Z</time>
      </trkpt>
      <trkpt lat="47.87718" lon="6.75419">
        <ele>516.180603</ele>
        <time>2018-05-26T11:56:32Z</time>
      </trkpt>
      <trkpt lat="47.87715" lon="6.75421">
        <ele>516.268494</ele>
        <time>2018-05-26T11:56:33Z</time>
      </trkpt>
      <trkpt lat="47.87712" lon="6.75422">
        <ele>516.417542</ele>
        <time>2018-05-26T11:56:34Z</time>
      </trkpt>
      <trkpt lat="47.87709" lon="6.75423">
        <ele>516.530701</ele>
        <time>2018-05-26T11:56:35Z</time>
      </trkpt>
      <trkpt lat="47.87707" lon="6.75424">
        <ele>516.651672</ele>
        <time>2018-05-26T11:56:36Z</time>
      </trkpt>
      <trkpt lat="47.87705" lon="6.75425">
        <ele>516.82428</ele>
        <time>2018-05-26T11:56:37Z</time>
      </trkpt>
      <trkpt lat="47.87702" lon="6.75426">
        <ele>516.929504</ele>
        <time>2018-05-26T11:56:38Z</time>
      </trkpt>
      <trkpt lat="47.87699" lon="6.75427">
        <ele>517.085938</ele>
        <time>2018-05-26T11:56:39Z</time>
      </trkpt>
      <trkpt lat="47.87696" lon="6.75428">
        <ele>517.197754</ele>
        <time>2018-05-26T11:56:40Z</time>
      </trkpt>
      <trkpt lat="47.87693" lon="6.75429">
        <ele>517.316467</ele>
        <time>2018-05-26T11:56:41Z</time>
      </trkpt>
      <trkpt lat="47.87691" lon="6.7543">
        <ele>517.500977</ele>
        <time>2018-05-26T11:56:42Z</time>
      </trkpt>
      <trkpt lat="47.87688" lon="6.7543">
        <ele>517.628662</ele>
        <time>2018-05-26T11:56:43Z</time>
      </trkpt>
      <trkpt lat="47.87686" lon="6.75431">
        <ele>517.836182</ele>
        <time>2018-05-26T11:56:44Z</time>
      </trkpt>
      <trkpt lat="47.87683" lon="6.75432">
        <ele>517.978455</ele>
        <time>2018-05-26T11:56:45Z</time>
      </trkpt>
      <trkpt lat="47.8768" lon="6.75433">
        <ele>518.115967</ele>
        <time>2018-05-26T11:56:46Z</time>
      </trkpt>
      <trkpt lat="47.87678" lon="6.75433">
        <ele>518.30835</ele>
        <time>2018-05-26T11:56:47Z</time>
      </trkpt>
      <trkpt lat="47.87676" lon="6.75433">
        <ele>518.428711</ele>
        <time>2018-05-26T11:56:48Z</time>
      </trkpt>
      <trkpt lat="47.87673" lon="6.75433">
        <ele>518.601807</ele>
        <time>2018-05-26T11:56:49Z</time>
      </trkpt>
      <trkpt lat="47.8767" lon="6.75433">
        <ele>518.720459</ele>
        <time>2018-05-26T11:56:50Z</time>
      </trkpt>
      <trkpt lat="47.87668" lon="6.75434">
        <ele>518.847717</ele>
        <time>2018-05-26T11:56:51Z</time>
      </trkpt>
      <trkpt lat="47.87666" lon="6.75434">
        <ele>519.047668</ele>
        <time>2018-05-26T11:56:52Z</time>
      </trkpt>
      <trkpt lat="47.87663" lon="6.75435">
        <ele>519.17804</ele>
        <time>2018-05-26T11:56:53Z</time>
      </trkpt>
      <trkpt lat="47.87661" lon="6.75435">
        <ele>519.382507</ele>
        <time>2018-05-26T11:56:54Z</time>
      </trkpt>
      <trkpt lat="47.87659" lon="6.75435">
        <ele>519.536438</ele>
        <time>2018-05-26T11:56:55Z</time>
      </trkpt>
      <trkpt lat="47.87656" lon="6.75435">
        <ele>519.705505</ele>
        <time>2018-05-26T11:56:56Z</time>
      </trkpt>
      <trkpt lat="47.87654" lon="6.75435">
        <ele>519.962952</ele>
        <time>2018-05-26T11:56:57Z</time>
      </trkpt>
      <trkpt lat="47.87651" lon="6.75435">
        <ele>520.124817</ele>
        <time>2018-05-26T11:56:58Z</time>
      </trkpt>
      <trkpt lat="47.87649" lon="6.75436">
        <ele>520.353027</ele>
        <time>2018-05-26T11:56:59Z</time>
      </trkpt>
      <trkpt lat="47.87647" lon="6.75437">
        <ele>520.494629</ele>
        <time>2018-05-26T11:57:00Z</time>
      </trkpt>
      <trkpt lat="47.87644" lon="6.75438">
        <ele>520.618958</ele>
        <time>2018-05-26T11:57:01Z</time>
      </trkpt>
      <trkpt lat="47.87642" lon="6.75438">
        <ele>520.778015</ele>
        <time>2018-05-26T11:57:02Z</time>
      </trkpt>
      <trkpt lat="47.87639" lon="6.75439">
        <ele>520.875977</ele>
        <time>2018-05-26T11:57:03Z</time>
      </trkpt>
      <trkpt lat="47.87637" lon="6.7544">
        <ele>521.026367</ele>
        <time>2018-05-26T11:57:04Z</time>
      </trkpt>
      <trkpt lat="47.87637" lon="6.75441">
        <ele>521.131531</ele>
        <time>2018-05-26T11:57:05Z</time>
      </trkpt>
      <trkpt lat="47.87635" lon="6.75441">
        <ele>521.237549</ele>
        <time>2018-05-26T11:57:06Z</time>
      </trkpt>
      <trkpt lat="47.87633" lon="6.75444">
        <ele>521.394348</ele>
        <time>2018-05-26T11:57:07Z</time>
      </trkpt>
      <trkpt lat="47.87631" lon="6.75445">
        <ele>521.49408</ele>
        <time>2018-05-26T11:57:08Z</time>
      </trkpt>
      <trkpt lat="47.87629" lon="6.75447">
        <ele>521.589355</ele>
        <time>2018-05-26T11:57:09Z</time>
      </trkpt>
      <trkpt lat="47.87627" lon="6.75448">
        <ele>521.734741</ele>
        <time>2018-05-26T11:57:10Z</time>
      </trkpt>
      <trkpt lat="47.87624" lon="6.75449">
        <ele>521.843628</ele>
        <time>2018-05-26T11:57:11Z</time>
      </trkpt>
      <trkpt lat="47.87623" lon="6.75449">
        <ele>522.016602</ele>
        <time>2018-05-26T11:57:12Z</time>
      </trkpt>
      <trkpt lat="47.87621" lon="6.75449">
        <ele>522.132019</ele>
        <time>2018-05-26T11:57:13Z</time>
      </trkpt>
      <trkpt lat="47.87618" lon="6.7545">
        <ele>522.247375</ele>
        <time>2018-05-26T11:57:14Z</time>
      </trkpt>
      <trkpt lat="47.87614" lon="6.7545">
        <ele>522.306641</ele>
        <time>2018-05-26T11:57:15Z</time>
      </trkpt>
      <trkpt lat="47.87611" lon="6.75451">
        <ele>522.368469</ele>
        <time>2018-05-26T11:57:16Z</time>
      </trkpt>
      <trkpt lat="47.8761" lon="6.75451">
        <ele>522.567688</ele>
        <time>2018-05-26T11:57:17Z</time>
      </trkpt>
      <trkpt lat="47.87608" lon="6.7545">
        <ele>522.703064</ele>
        <time>2018-05-26T11:57:18Z</time>
      </trkpt>
      <trkpt lat="47.87605" lon="6.7545">
        <ele>522.899719</ele>
        <time>2018-05-26T11:57:19Z</time>
      </trkpt>
      <trkpt lat="47.87603" lon="6.75451">
        <ele>523.025818</ele>
        <time>2018-05-26T11:57:20Z</time>
      </trkpt>
      <trkpt lat="47.87601" lon="6.75452">
        <ele>523.148865</ele>
        <time>2018-05-26T11:57:21Z</time>
      </trkpt>
      <trkpt lat="47.87598" lon="6.75452">
        <ele>523.32605</ele>
        <time>2018-05-26T11:57:22Z</time>
      </trkpt>
      <trkpt lat="47.87595" lon="6.75453">
        <ele>523.438538</ele>
        <time>2018-05-26T11:57:23Z</time>
      </trkpt>
      <trkpt lat="47.87593" lon="6.75454">
        <ele>523.603699</ele>
        <time>2018-05-26T11:57:24Z</time>
      </trkpt>
      <trkpt lat="47.8759" lon="6.75455">
        <ele>523.720947</ele>
        <time>2018-05-26T11:57:25Z</time>
      </trkpt>
      <trkpt lat="47.87587" lon="6.75456">
        <ele>523.846008</ele>
        <time>2018-05-26T11:57:26Z</time>
      </trkpt>
      <trkpt lat="47.87584" lon="6.75456">
        <ele>524.041016</ele>
        <time>2018-05-26T11:57:27Z</time>
      </trkpt>
      <trkpt lat="47.87582" lon="6.75457">
        <ele>524.175476</ele>
        <time>2018-05-26T11:57:28Z</time>
      </trkpt>
      <trkpt lat="47.87579" lon="6.75458">
        <ele>524.381042</ele>
        <time>2018-05-26T11:57:29Z</time>
      </trkpt>
      <trkpt lat="47.87576" lon="6.75459">
        <ele>524.518372</ele>
        <time>2018-05-26T11:57:30Z</time>
      </trkpt>
      <trkpt lat="47.87574" lon="6.75459">
        <ele>524.649536</ele>
        <time>2018-05-26T11:57:31Z</time>
      </trkpt>
      <trkpt lat="47.87571" lon="6.7546">
        <ele>524.82373</ele>
        <time>2018-05-26T11:57:32Z</time>
      </trkpt>
      <trkpt lat="47.87568" lon="6.7546">
        <ele>524.924438</ele>
        <time>2018-05-26T11:57:33Z</time>
      </trkpt>
      <trkpt lat="47.87566" lon="6.75461">
        <ele>525.020447</ele>
        <time>2018-05-26T11:57:34Z</time>
      </trkpt>
      <trkpt lat="47.87563" lon="6.75461">
        <ele>525.163147</ele>
        <time>2018-05-26T11:57:35Z</time>
      </trkpt>
      <trkpt lat="47.87561" lon="6.75462">
        <ele>525.263977</ele>
        <time>2018-05-26T11:57:36Z</time>
      </trkpt>
      <trkpt lat="47.87558" lon="6.75463">
        <ele>525.433167</ele>
        <time>2018-05-26T11:57:37Z</time>
      </trkpt>
      <trkpt lat="47.87555" lon="6.75464">
        <ele>525.557068</ele>
        <time>2018-05-26T11:57:38Z</time>
      </trkpt>
      <trkpt lat="47.87553" lon="6.75464">
        <ele>525.683411</ele>
        <time>2018-05-26T11:57:39Z</time>
      </trkpt>
      <trkpt lat="47.87551" lon="6.75464">
        <ele>525.881958</ele>
        <time>2018-05-26T11:57:40Z</time>
      </trkpt>
      <trkpt lat="47.87549" lon="6.75464">
        <ele>526.024475</ele>
        <time>2018-05-26T11:57:41Z</time>
      </trkpt>
      <trkpt lat="47.87547" lon="6.75464">
        <ele>526.181946</ele>
        <time>2018-05-26T11:57:42Z</time>
      </trkpt>
      <trkpt lat="47.87544" lon="6.75464">
        <ele>526.438904</ele>
        <time>2018-05-26T11:57:43Z</time>
      </trkpt>
      <trkpt lat="47.87541" lon="6.75464">
        <ele>526.616028</ele>
        <time>2018-05-26T11:57:44Z</time>
      </trkpt>
      <trkpt lat="47.87539" lon="6.75464">
        <ele>526.879395</ele>
        <time>2018-05-26T11:57:45Z</time>
      </trkpt>
      <trkpt lat="47.87537" lon="6.75463">
        <ele>527.050659</ele>
        <time>2018-05-26T11:57:46Z</time>
      </trkpt>
      <trkpt lat="47.87534" lon="6.75463">
        <ele>527.21991</ele>
        <time>2018-05-26T11:57:47Z</time>
      </trkpt>
      <trkpt lat="47.87532" lon="6.75462">
        <ele>527.466309</ele>
        <time>2018-05-26T11:57:48Z</time>
      </trkpt>
      <trkpt lat="47.87529" lon="6.75461">
        <ele>527.623474</ele>
        <time>2018-05-26T11:57:49Z</time>
      </trkpt>
      <trkpt lat="47.87526" lon="6.75461">
        <ele>527.850037</ele>
        <time>2018-05-26T11:57:50Z</time>
      </trkpt>
      <trkpt lat="47.87524" lon="6.7546">
        <ele>527.993103</ele>
        <time>2018-05-26T11:57:51Z</time>
      </trkpt>
      <trkpt lat="47.87521" lon="6.75458">
        <ele>528.128113</ele>
        <time>2018-05-26T11:57:52Z</time>
      </trkpt>
      <trkpt lat="47.87519" lon="6.75457">
        <ele>528.321838</ele>
        <time>2018-05-26T11:57:53Z</time>
      </trkpt>
      <trkpt lat="47.87516" lon="6.75456">
        <ele>528.445618</ele>
        <time>2018-05-26T11:57:54Z</time>
      </trkpt>
      <trkpt lat="47.87513" lon="6.75455">
        <ele>528.560242</ele>
        <time>2018-05-26T11:57:55Z</time>
      </trkpt>
      <trkpt lat="47.87511" lon="6.75455">
        <ele>528.715759</ele>
        <time>2018-05-26T11:57:56Z</time>
      </trkpt>
      <trkpt lat="47.87508" lon="6.75455">
        <ele>528.814819</ele>
        <time>2018-05-26T11:57:57Z</time>
      </trkpt>
      <trkpt lat="47.87507" lon="6.75455">
        <ele>528.964294</ele>
        <time>2018-05-26T11:57:58Z</time>
      </trkpt>
      <trkpt lat="47.87503" lon="6.75457">
        <ele>529.065552</ele>
        <time>2018-05-26T11:57:59Z</time>
      </trkpt>
      <trkpt lat="47.87501" lon="6.75459">
        <ele>529.167664</ele>
        <time>2018-05-26T11:58:00Z</time>
      </trkpt>
      <trkpt lat="47.87499" lon="6.75461">
        <ele>529.331726</ele>
        <time>2018-05-26T11:58:01Z</time>
      </trkpt>
      <trkpt lat="47.87497" lon="6.75462">
        <ele>529.4505</ele>
        <time>2018-05-26T11:58:02Z</time>
      </trkpt>
      <trkpt lat="47.87494" lon="6.75463">
        <ele>529.573059</ele>
        <time>2018-05-26T11:58:03Z</time>
      </trkpt>
      <trkpt lat="47.87492" lon="6.75465">
        <ele>529.767029</ele>
        <time>2018-05-26T11:58:04Z</time>
      </trkpt>
      <trkpt lat="47.8749" lon="6.75467">
        <ele>529.899841</ele>
        <time>2018-05-26T11:58:05Z</time>
      </trkpt>
      <trkpt lat="47.87487" lon="6.75469">
        <ele>530.030945</ele>
        <time>2018-05-26T11:58:06Z</time>
      </trkpt>
      <trkpt lat="47.87485" lon="6.7547">
        <ele>530.224426</ele>
        <time>2018-05-26T11:58:07Z</time>
      </trkpt>
      <trkpt lat="47.87483" lon="6.75472">
        <ele>530.35675</ele>
        <time>2018-05-26T11:58:08Z</time>
      </trkpt>
      <trkpt lat="47.87481" lon="6.75474">
        <ele>530.493408</ele>
        <time>2018-05-26T11:58:09Z</time>
      </trkpt>
      <trkpt lat="47.87479" lon="6.75476">
        <ele>530.698181</ele>
        <time>2018-05-26T11:58:10Z</time>
      </trkpt>
      <trkpt lat="47.87477" lon="6.75478">
        <ele>530.839539</ele>
        <time>2018-05-26T11:58:11Z</time>
      </trkpt>
      <trkpt lat="47.87475" lon="6.75479">
        <ele>530.99469</ele>
        <time>2018-05-26T11:58:12Z</time>
      </trkpt>
      <trkpt lat="47.87473" lon="6.75481">
        <ele>531.259827</ele>
        <time>2018-05-26T11:58:13Z</time>
      </trkpt>
      <trkpt lat="47.87471" lon="6.75483">
        <ele>531.457275</ele>
        <time>2018-05-26T11:58:14Z</time>
      </trkpt>
      <trkpt lat="47.8747" lon="6.75484">
        <ele>531.672729</ele>
        <time>2018-05-26T11:58:15Z</time>
      </trkpt>
      <trkpt lat="47.87468" lon="6.75486">
        <ele>531.785706</ele>
        <time>2018-05-26T11:58:16Z</time>
      </trkpt>
      <trkpt lat="47.87467" lon="6.75487">
        <ele>531.900085</ele>
        <time>2018-05-26T11:58:17Z</time>
      </trkpt>
      <trkpt lat="47.87465" lon="6.75488">
        <ele>532.131042</ele>
        <time>2018-05-26T11:58:18Z</time>
      </trkpt>
      <trkpt lat="47.87464" lon="6.75489">
        <ele>532.465759</ele>
        <time>2018-05-26T11:58:19Z</time>
      </trkpt>
      <trkpt lat="47.87462" lon="6.75491">
        <ele>532.681335</ele>
        <time>2018-05-26T11:58:20Z</time>
      </trkpt>
      <trkpt lat="47.8746" lon="6.75492">
        <ele>532.888489</ele>
        <time>2018-05-26T11:58:21Z</time>
      </trkpt>
      <trkpt lat="47.87458" lon="6.75494">
        <ele>533.17865</ele>
        <time>2018-05-26T11:58:22Z</time>
      </trkpt>
      <trkpt lat="47.87456" lon="6.75496">
        <ele>533.349915</ele>
        <time>2018-05-26T11:58:23Z</time>
      </trkpt>
      <trkpt lat="47.87454" lon="6.75497">
        <ele>533.505859</ele>
        <time>2018-05-26T11:58:24Z</time>
      </trkpt>
      <trkpt lat="47.87452" lon="6.75498">
        <ele>533.728088</ele>
        <time>2018-05-26T11:58:25Z</time>
      </trkpt>
      <trkpt lat="47.8745" lon="6.75499">
        <ele>533.878479</ele>
        <time>2018-05-26T11:58:26Z</time>
      </trkpt>
      <trkpt lat="47.87447" lon="6.75499">
        <ele>534.030212</ele>
        <time>2018-05-26T11:58:27Z</time>
      </trkpt>
      <trkpt lat="47.87445" lon="6.75499">
        <ele>534.252563</ele>
        <time>2018-05-26T11:58:28Z</time>
      </trkpt>
      <trkpt lat="47.87443" lon="6.75498">
        <ele>534.400024</ele>
        <time>2018-05-26T11:58:29Z</time>
      </trkpt>
      <trkpt lat="47.87442" lon="6.75497">
        <ele>534.550476</ele>
        <time>2018-05-26T11:58:30Z</time>
      </trkpt>
      <trkpt lat="47.87439" lon="6.75496">
        <ele>534.787659</ele>
        <time>2018-05-26T11:58:31Z</time>
      </trkpt>
      <trkpt lat="47.87437" lon="6.75496">
        <ele>534.951233</ele>
        <time>2018-05-26T11:58:32Z</time>
      </trkpt>
      <trkpt lat="47.87434" lon="6.75495">
        <ele>535.116516</ele>
        <time>2018-05-26T11:58:33Z</time>
      </trkpt>
      <trkpt lat="47.87432" lon="6.75493">
        <ele>535.369812</ele>
        <time>2018-05-26T11:58:34Z</time>
      </trkpt>
      <trkpt lat="47.87429" lon="6.75492">
        <ele>535.546753</ele>
        <time>2018-05-26T11:58:35Z</time>
      </trkpt>
      <trkpt lat="47.87428" lon="6.75491">
        <ele>535.731628</ele>
        <time>2018-05-26T11:58:36Z</time>
      </trkpt>
      <trkpt lat="47.87427" lon="6.7549">
        <ele>536.017029</ele>
        <time>2018-05-26T11:58:37Z</time>
      </trkpt>
      <trkpt lat="47.87425" lon="6.75489">
        <ele>536.205139</ele>
        <time>2018-05-26T11:58:38Z</time>
      </trkpt>
      <trkpt lat="47.87423" lon="6.75488">
        <ele>536.382507</ele>
        <time>2018-05-26T11:58:39Z</time>
      </trkpt>
      <trkpt lat="47.87422" lon="6.75486">
        <ele>536.61554</ele>
        <time>2018-05-26T11:58:40Z</time>
      </trkpt>
      <trkpt lat="47.8742" lon="6.75485">
        <ele>536.745544</ele>
        <time>2018-05-26T11:58:41Z</time>
      </trkpt>
      <trkpt lat="47.87418" lon="6.75484">
        <ele>536.860657</ele>
        <time>2018-05-26T11:58:42Z</time>
      </trkpt>
      <trkpt lat="47.87416" lon="6.75483">
        <ele>537.019836</ele>
        <time>2018-05-26T11:58:43Z</time>
      </trkpt>
      <trkpt lat="47.87414" lon="6.75482">
        <ele>537.12384</ele>
        <time>2018-05-26T11:58:44Z</time>
      </trkpt>
      <trkpt lat="47.87412" lon="6.75481">
        <ele>537.230408</ele>
        <time>2018-05-26T11:58:45Z</time>
      </trkpt>
      <trkpt lat="47.87409" lon="6.7548">
        <ele>537.402283</ele>
        <time>2018-05-26T11:58:46Z</time>
      </trkpt>
      <trkpt lat="47.87407" lon="6.75479">
        <ele>537.524414</ele>
        <time>2018-05-26T11:58:47Z</time>
      </trkpt>
      <trkpt lat="47.87404" lon="6.75478">
        <ele>537.646545</ele>
        <time>2018-05-26T11:58:48Z</time>
      </trkpt>
      <trkpt lat="47.87402" lon="6.75477">
        <ele>537.827087</ele>
        <time>2018-05-26T11:58:49Z</time>
      </trkpt>
      <trkpt lat="47.87399" lon="6.75476">
        <ele>537.947998</ele>
        <time>2018-05-26T11:58:50Z</time>
      </trkpt>
      <trkpt lat="47.87396" lon="6.75475">
        <ele>538.122498</ele>
        <time>2018-05-26T11:58:51Z</time>
      </trkpt>
      <trkpt lat="47.87394" lon="6.75474">
        <ele>538.2229</ele>
        <time>2018-05-26T11:58:52Z</time>
      </trkpt>
      <trkpt lat="47.87391" lon="6.75473">
        <ele>538.30835</ele>
        <time>2018-05-26T11:58:53Z</time>
      </trkpt>
      <trkpt lat="47.87389" lon="6.75472">
        <ele>538.421448</ele>
        <time>2018-05-26T11:58:54Z</time>
      </trkpt>
      <trkpt lat="47.87387" lon="6.7547">
        <ele>538.496338</ele>
        <time>2018-05-26T11:58:55Z</time>
      </trkpt>
      <trkpt lat="47.87384" lon="6.75469">
        <ele>538.60614</ele>
        <time>2018-05-26T11:58:56Z</time>
      </trkpt>
      <trkpt lat="47.87381" lon="6.75469">
        <ele>538.680359</ele>
        <time>2018-05-26T11:58:57Z</time>
      </trkpt>
      <trkpt lat="47.87379" lon="6.75468">
        <ele>538.807434</ele>
        <time>2018-05-26T11:58:58Z</time>
      </trkpt>
      <trkpt lat="47.87376" lon="6.75467">
        <ele>538.908997</ele>
        <time>2018-05-26T11:58:59Z</time>
      </trkpt>
      <trkpt lat="47.87374" lon="6.75466">
        <ele>539.024841</ele>
        <time>2018-05-26T11:59:00Z</time>
      </trkpt>
      <trkpt lat="47.87371" lon="6.75465">
        <ele>539.221619</ele>
        <time>2018-05-26T11:59:01Z</time>
      </trkpt>
      <trkpt lat="47.87368" lon="6.75464">
        <ele>539.359985</ele>
        <time>2018-05-26T11:59:02Z</time>
      </trkpt>
      <trkpt lat="47.87366" lon="6.75463">
        <ele>539.553772</ele>
        <time>2018-05-26T11:59:03Z</time>
      </trkpt>
      <trkpt lat="47.87363" lon="6.75462">
        <ele>539.66748</ele>
        <time>2018-05-26T11:59:04Z</time>
      </trkpt>
      <trkpt lat="47.8736" lon="6.75461">
        <ele>539.772034</ele>
        <time>2018-05-26T11:59:05Z</time>
      </trkpt>
      <trkpt lat="47.87357" lon="6.75459">
        <ele>539.908325</ele>
        <time>2018-05-26T11:59:06Z</time>
      </trkpt>
      <trkpt lat="47.87355" lon="6.75458">
        <ele>539.980286</ele>
        <time>2018-05-26T11:59:07Z</time>
      </trkpt>
      <trkpt lat="47.87352" lon="6.75456">
        <ele>540.06488</ele>
        <time>2018-05-26T11:59:08Z</time>
      </trkpt>
      <trkpt lat="47.87349" lon="6.75455">
        <ele>540.129944</ele>
        <time>2018-05-26T11:59:09Z</time>
      </trkpt>
      <trkpt lat="47.87347" lon="6.75454">
        <ele>540.216614</ele>
        <time>2018-05-26T11:59:10Z</time>
      </trkpt>
      <trkpt lat="47.87344" lon="6.75453">
        <ele>540.389893</ele>
        <time>2018-05-26T11:59:11Z</time>
      </trkpt>
      <trkpt lat="47.87341" lon="6.75452">
        <ele>540.520447</ele>
        <time>2018-05-26T11:59:12Z</time>
      </trkpt>
      <trkpt lat="47.87338" lon="6.7545">
        <ele>540.727051</ele>
        <time>2018-05-26T11:59:13Z</time>
      </trkpt>
      <trkpt lat="47.87336" lon="6.75449">
        <ele>540.86261</ele>
        <time>2018-05-26T11:59:14Z</time>
      </trkpt>
      <trkpt lat="47.87333" lon="6.75447">
        <ele>540.981506</ele>
        <time>2018-05-26T11:59:15Z</time>
      </trkpt>
      <trkpt lat="47.8733" lon="6.75446">
        <ele>541.109131</ele>
        <time>2018-05-26T11:59:16Z</time>
      </trkpt>
      <trkpt lat="47.87327" lon="6.75444">
        <ele>541.138367</ele>
        <time>2018-05-26T11:59:17Z</time>
      </trkpt>
      <trkpt lat="47.87324" lon="6.75442">
        <ele>541.160706</ele>
        <time>2018-05-26T11:59:18Z</time>
      </trkpt>
      <trkpt lat="47.87321" lon="6.7544">
        <ele>541.204895</ele>
        <time>2018-05-26T11:59:19Z</time>
      </trkpt>
      <trkpt lat="47.87318" lon="6.75438">
        <ele>541.224548</ele>
        <time>2018-05-26T11:59:20Z</time>
      </trkpt>
      <trkpt lat="47.87315" lon="6.75436">
        <ele>541.246887</ele>
        <time>2018-05-26T11:59:21Z</time>
      </trkpt>
      <trkpt lat="47.87311" lon="6.75434">
        <ele>541.290283</ele>
        <time>2018-05-26T11:59:22Z</time>
      </trkpt>
      <trkpt lat="47.87309" lon="6.75432">
        <ele>541.333496</ele>
        <time>2018-05-26T11:59:23Z</time>
      </trkpt>
      <trkpt lat="47.87305" lon="6.7543">
        <ele>541.382629</ele>
        <time>2018-05-26T11:59:24Z</time>
      </trkpt>
      <trkpt lat="47.87302" lon="6.75428">
        <ele>541.454529</ele>
        <time>2018-05-26T11:59:25Z</time>
      </trkpt>
      <trkpt lat="47.87298" lon="6.75426">
        <ele>541.486572</ele>
        <time>2018-05-26T11:59:26Z</time>
      </trkpt>
      <trkpt lat="47.87295" lon="6.75424">
        <ele>541.500427</ele>
        <time>2018-05-26T11:59:27Z</time>
      </trkpt>
      <trkpt lat="47.87292" lon="6.75423">
        <ele>541.501648</ele>
        <time>2018-05-26T11:59:28Z</time>
      </trkpt>
      <trkpt lat="47.87288" lon="6.75421">
        <ele>541.502258</ele>
        <time>2018-05-26T11:59:29Z</time>
      </trkpt>
      <trkpt lat="47.87285" lon="6.75419">
        <ele>541.504395</ele>
        <time>2018-05-26T11:59:30Z</time>
      </trkpt>
      <trkpt lat="47.87282" lon="6.75416">
        <ele>541.519653</ele>
        <time>2018-05-26T11:59:31Z</time>
      </trkpt>
      <trkpt lat="47.8728" lon="6.75413">
        <ele>541.548584</ele>
        <time>2018-05-26T11:59:32Z</time>
      </trkpt>
      <trkpt lat="47.87277" lon="6.7541">
        <ele>541.636475</ele>
        <time>2018-05-26T11:59:33Z</time>
      </trkpt>
      <trkpt lat="47.87274" lon="6.75407">
        <ele>541.726746</ele>
        <time>2018-05-26T11:59:34Z</time>
      </trkpt>
      <trkpt lat="47.87272" lon="6.75403">
        <ele>541.832214</ele>
        <time>2018-05-26T11:59:35Z</time>
      </trkpt>
      <trkpt lat="47.87269" lon="6.75398">
        <ele>541.990784</ele>
        <time>2018-05-26T11:59:36Z</time>
      </trkpt>
      <trkpt lat="47.87267" lon="6.75394">
        <ele>542.09375</ele>
        <time>2018-05-26T11:59:37Z</time>
      </trkpt>
      <trkpt lat="47.87265" lon="6.7539">
        <ele>542.200378</ele>
        <time>2018-05-26T11:59:38Z</time>
      </trkpt>
      <trkpt lat="47.87262" lon="6.75386">
        <ele>542.375793</ele>
        <time>2018-05-26T11:59:39Z</time>
      </trkpt>
      <trkpt lat="47.8726" lon="6.75382">
        <ele>542.494934</ele>
        <time>2018-05-26T11:59:40Z</time>
      </trkpt>
      <trkpt lat="47.87259" lon="6.75378">
        <ele>542.607117</ele>
        <time>2018-05-26T11:59:41Z</time>
      </trkpt>
      <trkpt lat="47.87257" lon="6.75373">
        <ele>542.771729</ele>
        <time>2018-05-26T11:59:42Z</time>
      </trkpt>
      <trkpt lat="47.87255" lon="6.75369">
        <ele>542.900635</ele>
        <time>2018-05-26T11:59:43Z</time>
      </trkpt>
      <trkpt lat="47.87253" lon="6.75365">
        <ele>543.047058</ele>
        <time>2018-05-26T11:59:44Z</time>
      </trkpt>
      <trkpt lat="47.87252" lon="6.75361">
        <ele>543.205017</ele>
        <time>2018-05-26T11:59:45Z</time>
      </trkpt>
      <trkpt lat="47.8725" lon="6.75357">
        <ele>543.456238</ele>
        <time>2018-05-26T11:59:46Z</time>
      </trkpt>
      <trkpt lat="47.87249" lon="6.75353">
        <ele>543.63208</ele>
        <time>2018-05-26T11:59:47Z</time>
      </trkpt>
      <trkpt lat="47.87247" lon="6.75349">
        <ele>543.803223</ele>
        <time>2018-05-26T11:59:48Z</time>
      </trkpt>
      <trkpt lat="47.87246" lon="6.75344">
        <ele>544.047607</ele>
        <time>2018-05-26T11:59:49Z</time>
      </trkpt>
      <trkpt lat="47.87243" lon="6.7534">
        <ele>544.205383</ele>
        <time>2018-05-26T11:59:50Z</time>
      </trkpt>
      <trkpt lat="47.87241" lon="6.75336">
        <ele>544.356873</ele>
        <time>2018-05-26T11:59:51Z</time>
      </trkpt>
      <trkpt lat="47.8724" lon="6.75332">
        <ele>544.486328</ele>
        <time>2018-05-26T11:59:52Z</time>
      </trkpt>
      <trkpt lat="47.87237" lon="6.75328">
        <ele>544.626282</ele>
        <time>2018-05-26T11:59:53Z</time>
      </trkpt>
      <trkpt lat="47.87235" lon="6.75323">
        <ele>544.685181</ele>
        <time>2018-05-26T11:59:54Z</time>
      </trkpt>
      <trkpt lat="47.87233" lon="6.75319">
        <ele>544.728333</ele>
        <time>2018-05-26T11:59:55Z</time>
      </trkpt>
      <trkpt lat="47.8723" lon="6.75315">
        <ele>544.761169</ele>
        <time>2018-05-26T11:59:56Z</time>
      </trkpt>
      <trkpt lat="47.87227" lon="6.75311">
        <ele>544.792236</ele>
        <time>2018-05-26T11:59:57Z</time>
      </trkpt>
      <trkpt lat="47.87224" lon="6.75308">
        <ele>544.800537</ele>
        <time>2018-05-26T11:59:58Z</time>
      </trkpt>
      <trkpt lat="47.87221" lon="6.75304">
        <ele>544.811523</ele>
        <time>2018-05-26T11:59:59Z</time>
      </trkpt>
      <trkpt lat="47.87219" lon="6.75301">
        <ele>544.850403</ele>
        <time>2018-05-26T12:00:00Z</time>
      </trkpt>
      <trkpt lat="47.87217" lon="6.75298">
        <ele>544.924866</ele>
        <time>2018-05-26T12:00:01Z</time>
      </trkpt>
      <trkpt lat="47.87214" lon="6.75294">
        <ele>544.99469</ele>
        <time>2018-05-26T12:00:02Z</time>
      </trkpt>
      <trkpt lat="47.87212" lon="6.75291">
        <ele>545.073059</ele>
        <time>2018-05-26T12:00:03Z</time>
      </trkpt>
      <trkpt lat="47.8721" lon="6.75288">
        <ele>545.188049</ele>
        <time>2018-05-26T12:00:04Z</time>
      </trkpt>
      <trkpt lat="47.87207" lon="6.75284">
        <ele>545.257263</ele>
        <time>2018-05-26T12:00:05Z</time>
      </trkpt>
      <trkpt lat="47.87205" lon="6.75281">
        <ele>545.329773</ele>
        <time>2018-05-26T12:00:06Z</time>
      </trkpt>
      <trkpt lat="47.87202" lon="6.75278">
        <ele>545.412415</ele>
        <time>2018-05-26T12:00:07Z</time>
      </trkpt>
      <trkpt lat="47.872" lon="6.75275">
        <ele>545.554382</ele>
        <time>2018-05-26T12:00:08Z</time>
      </trkpt>
      <trkpt lat="47.87197" lon="6.75271">
        <ele>545.646301</ele>
        <time>2018-05-26T12:00:09Z</time>
      </trkpt>
      <trkpt lat="47.87194" lon="6.75267">
        <ele>545.738281</ele>
        <time>2018-05-26T12:00:10Z</time>
      </trkpt>
      <trkpt lat="47.87192" lon="6.75263">
        <ele>545.888611</ele>
        <time>2018-05-26T12:00:11Z</time>
      </trkpt>
      <trkpt lat="47.8719" lon="6.75259">
        <ele>546.00116</ele>
        <time>2018-05-26T12:00:12Z</time>
      </trkpt>
      <trkpt lat="47.87187" lon="6.75254">
        <ele>546.104492</ele>
        <time>2018-05-26T12:00:13Z</time>
      </trkpt>
      <trkpt lat="47.87185" lon="6.75251">
        <ele>546.21875</ele>
        <time>2018-05-26T12:00:14Z</time>
      </trkpt>
      <trkpt lat="47.87182" lon="6.75247">
        <ele>546.254822</ele>
        <time>2018-05-26T12:00:15Z</time>
      </trkpt>
      <trkpt lat="47.87179" lon="6.75243">
        <ele>546.258484</ele>
        <time>2018-05-26T12:00:16Z</time>
      </trkpt>
      <trkpt lat="47.87177" lon="6.75239">
        <ele>546.236877</ele>
        <time>2018-05-26T12:00:17Z</time>
      </trkpt>
      <trkpt lat="47.87174" lon="6.75236">
        <ele>546.215393</ele>
        <time>2018-05-26T12:00:18Z</time>
      </trkpt>
      <trkpt lat="47.87169" lon="6.75231">
        <ele>546.115417</ele>
        <time>2018-05-26T12:00:19Z</time>
      </trkpt>
      <trkpt lat="47.87165" lon="6.75227">
        <ele>546.036133</ele>
        <time>2018-05-26T12:00:20Z</time>
      </trkpt>
      <trkpt lat="47.87161" lon="6.75222">
        <ele>545.952026</ele>
        <time>2018-05-26T12:00:21Z</time>
      </trkpt>
      <trkpt lat="47.87155" lon="6.75219">
        <ele>545.818542</ele>
        <time>2018-05-26T12:00:22Z</time>
      </trkpt>
      <trkpt lat="47.8715" lon="6.75216">
        <ele>545.704224</ele>
        <time>2018-05-26T12:00:23Z</time>
      </trkpt>
      <trkpt lat="47.87144" lon="6.75216">
        <ele>545.549255</ele>
        <time>2018-05-26T12:00:24Z</time>
      </trkpt>
      <trkpt lat="47.87138" lon="6.75218">
        <ele>545.207214</ele>
        <time>2018-05-26T12:00:25Z</time>
      </trkpt>
      <trkpt lat="47.87132" lon="6.75221">
        <ele>544.903625</ele>
        <time>2018-05-26T12:00:26Z</time>
      </trkpt>
      <trkpt lat="47.87127" lon="6.75224">
        <ele>544.559753</ele>
        <time>2018-05-26T12:00:27Z</time>
      </trkpt>
      <trkpt lat="47.87122" lon="6.75227">
        <ele>544.035583</ele>
        <time>2018-05-26T12:00:28Z</time>
      </trkpt>
      <trkpt lat="47.87117" lon="6.75229">
        <ele>543.725281</ele>
        <time>2018-05-26T12:00:29Z</time>
      </trkpt>
      <trkpt lat="47.87112" lon="6.7523">
        <ele>543.374939</ele>
        <time>2018-05-26T12:00:30Z</time>
      </trkpt>
      <trkpt lat="47.87109" lon="6.75231">
        <ele>543.253601</ele>
        <time>2018-05-26T12:00:31Z</time>
      </trkpt>
      <trkpt lat="47.87106" lon="6.75231">
        <ele>543.237244</ele>
        <time>2018-05-26T12:00:32Z</time>
      </trkpt>
      <trkpt lat="47.87102" lon="6.75231">
        <ele>543.292053</ele>
        <time>2018-05-26T12:00:33Z</time>
      </trkpt>
      <trkpt lat="47.87099" lon="6.75231">
        <ele>543.448425</ele>
        <time>2018-05-26T12:00:34Z</time>
      </trkpt>
      <trkpt lat="47.87095" lon="6.7523">
        <ele>543.787537</ele>
        <time>2018-05-26T12:00:35Z</time>
      </trkpt>
      <trkpt lat="47.87092" lon="6.7523">
        <ele>544.055115</ele>
        <time>2018-05-26T12:00:36Z</time>
      </trkpt>
      <trkpt lat="47.87088" lon="6.7523">
        <ele>544.336487</ele>
        <time>2018-05-26T12:00:37Z</time>
      </trkpt>
      <trkpt lat="47.87085" lon="6.7523">
        <ele>544.748474</ele>
        <time>2018-05-26T12:00:38Z</time>
      </trkpt>
      <trkpt lat="47.87082" lon="6.7523">
        <ele>545.00238</ele>
        <time>2018-05-26T12:00:39Z</time>
      </trkpt>
      <trkpt lat="47.8708" lon="6.75231">
        <ele>545.346619</ele>
        <time>2018-05-26T12:00:40Z</time>
      </trkpt>
      <trkpt lat="47.87077" lon="6.75232">
        <ele>545.561584</ele>
        <time>2018-05-26T12:00:41Z</time>
      </trkpt>
      <trkpt lat="47.87074" lon="6.75233">
        <ele>545.776794</ele>
        <time>2018-05-26T12:00:42Z</time>
      </trkpt>
      <trkpt lat="47.87071" lon="6.75234">
        <ele>546.103638</ele>
        <time>2018-05-26T12:00:43Z</time>
      </trkpt>
      <trkpt lat="47.87069" lon="6.75235">
        <ele>546.325134</ele>
        <time>2018-05-26T12:00:44Z</time>
      </trkpt>
      <trkpt lat="47.87067" lon="6.75237">
        <ele>546.551086</ele>
        <time>2018-05-26T12:00:45Z</time>
      </trkpt>
      <trkpt lat="47.87064" lon="6.75238">
        <ele>546.904663</ele>
        <time>2018-05-26T12:00:46Z</time>
      </trkpt>
      <trkpt lat="47.87062" lon="6.7524">
        <ele>547.146912</ele>
        <time>2018-05-26T12:00:47Z</time>
      </trkpt>
      <trkpt lat="47.8706" lon="6.75241">
        <ele>547.393677</ele>
        <time>2018-05-26T12:00:48Z</time>
      </trkpt>
      <trkpt lat="47.87057" lon="6.75243">
        <ele>547.781555</ele>
        <time>2018-05-26T12:00:49Z</time>
      </trkpt>
      <trkpt lat="47.87054" lon="6.75245">
        <ele>548.047974</ele>
        <time>2018-05-26T12:00:50Z</time>
      </trkpt>
      <trkpt lat="47.87053" lon="6.75246">
        <ele>548.306763</ele>
        <time>2018-05-26T12:00:51Z</time>
      </trkpt>
      <trkpt lat="47.8705" lon="6.75249">
        <ele>548.672913</ele>
        <time>2018-05-26T12:00:52Z</time>
      </trkpt>
      <trkpt lat="47.87047" lon="6.7525">
        <ele>548.904541</ele>
        <time>2018-05-26T12:00:53Z</time>
      </trkpt>
      <trkpt lat="47.87044" lon="6.75252">
        <ele>549.12738</ele>
        <time>2018-05-26T12:00:54Z</time>
      </trkpt>
      <trkpt lat="47.87042" lon="6.75253">
        <ele>549.440979</ele>
        <time>2018-05-26T12:00:55Z</time>
      </trkpt>
      <trkpt lat="47.8704" lon="6.75253">
        <ele>549.635315</ele>
        <time>2018-05-26T12:00:56Z</time>
      </trkpt>
      <trkpt lat="47.87038" lon="6.75254">
        <ele>549.920593</ele>
        <time>2018-05-26T12:00:57Z</time>
      </trkpt>
      <trkpt lat="47.87035" lon="6.75255">
        <ele>550.114746</ele>
        <time>2018-05-26T12:00:58Z</time>
      </trkpt>
      <trkpt lat="47.87032" lon="6.75256">
        <ele>550.314941</ele>
        <time>2018-05-26T12:00:59Z</time>
      </trkpt>
      <trkpt lat="47.87029" lon="6.75257">
        <ele>550.613953</ele>
        <time>2018-05-26T12:01:00Z</time>
      </trkpt>
      <trkpt lat="47.87026" lon="6.75258">
        <ele>550.799194</ele>
        <time>2018-05-26T12:01:01Z</time>
      </trkpt>
      <trkpt lat="47.87023" lon="6.75258">
        <ele>551.044617</ele>
        <time>2018-05-26T12:01:02Z</time>
      </trkpt>
      <trkpt lat="47.87019" lon="6.75258">
        <ele>551.185852</ele>
        <time>2018-05-26T12:01:03Z</time>
      </trkpt>
      <trkpt lat="47.87017" lon="6.75259">
        <ele>551.3078</ele>
        <time>2018-05-26T12:01:04Z</time>
      </trkpt>
      <trkpt lat="47.87014" lon="6.75259">
        <ele>551.451111</ele>
        <time>2018-05-26T12:01:05Z</time>
      </trkpt>
      <trkpt lat="47.87011" lon="6.75259">
        <ele>551.523926</ele>
        <time>2018-05-26T12:01:06Z</time>
      </trkpt>
      <trkpt lat="47.87009" lon="6.75259">
        <ele>551.587402</ele>
        <time>2018-05-26T12:01:07Z</time>
      </trkpt>
      <trkpt lat="47.87007" lon="6.75259">
        <ele>551.67572</ele>
        <time>2018-05-26T12:01:08Z</time>
      </trkpt>
      <trkpt lat="47.87005" lon="6.75259">
        <ele>551.736511</ele>
        <time>2018-05-26T12:01:09Z</time>
      </trkpt>
      <trkpt lat="47.87003" lon="6.75259">
        <ele>551.839111</ele>
        <time>2018-05-26T12:01:10Z</time>
      </trkpt>
      <trkpt lat="47.87001" lon="6.75258">
        <ele>551.920715</ele>
        <time>2018-05-26T12:01:11Z</time>
      </trkpt>
      <trkpt lat="47.86998" lon="6.75258">
        <ele>552.010437</ele>
        <time>2018-05-26T12:01:12Z</time>
      </trkpt>
      <trkpt lat="47.86996" lon="6.75258">
        <ele>552.147583</ele>
        <time>2018-05-26T12:01:13Z</time>
      </trkpt>
      <trkpt lat="47.86993" lon="6.75258">
        <ele>552.230042</ele>
        <time>2018-05-26T12:01:14Z</time>
      </trkpt>
      <trkpt lat="47.8699" lon="6.75258">
        <ele>552.334656</ele>
        <time>2018-05-26T12:01:15Z</time>
      </trkpt>
      <trkpt lat="47.86987" lon="6.75258">
        <ele>552.398499</ele>
        <time>2018-05-26T12:01:16Z</time>
      </trkpt>
      <trkpt lat="47.86984" lon="6.75257">
        <ele>552.463196</ele>
        <time>2018-05-26T12:01:17Z</time>
      </trkpt>
      <trkpt lat="47.86982" lon="6.75257">
        <ele>552.558716</ele>
        <time>2018-05-26T12:01:18Z</time>
      </trkpt>
      <trkpt lat="47.86979" lon="6.75257">
        <ele>552.590515</ele>
        <time>2018-05-26T12:01:19Z</time>
      </trkpt>
      <trkpt lat="47.86976" lon="6.75257">
        <ele>552.625732</ele>
        <time>2018-05-26T12:01:20Z</time>
      </trkpt>
      <trkpt lat="47.86973" lon="6.75256">
        <ele>552.762024</ele>
        <time>2018-05-26T12:01:21Z</time>
      </trkpt>
      <trkpt lat="47.86971" lon="6.75256">
        <ele>552.875305</ele>
        <time>2018-05-26T12:01:22Z</time>
      </trkpt>
      <trkpt lat="47.86968" lon="6.75255">
        <ele>553.052063</ele>
        <time>2018-05-26T12:01:23Z</time>
      </trkpt>
      <trkpt lat="47.86965" lon="6.75255">
        <ele>553.163635</ele>
        <time>2018-05-26T12:01:24Z</time>
      </trkpt>
      <trkpt lat="47.86963" lon="6.75255">
        <ele>553.273804</ele>
        <time>2018-05-26T12:01:25Z</time>
      </trkpt>
      <trkpt lat="47.86961" lon="6.75256">
        <ele>553.447205</ele>
        <time>2018-05-26T12:01:26Z</time>
      </trkpt>
      <trkpt lat="47.86958" lon="6.75257">
        <ele>553.574646</ele>
        <time>2018-05-26T12:01:27Z</time>
      </trkpt>
      <trkpt lat="47.86956" lon="6.75259">
        <ele>553.712097</ele>
        <time>2018-05-26T12:01:28Z</time>
      </trkpt>
      <trkpt lat="47.86954" lon="6.75262">
        <ele>553.942932</ele>
        <time>2018-05-26T12:01:29Z</time>
      </trkpt>
      <trkpt lat="47.86951" lon="6.75264">
        <ele>554.103821</ele>
        <time>2018-05-26T12:01:30Z</time>
      </trkpt>
      <trkpt lat="47.8695" lon="6.75267">
        <ele>554.256042</ele>
        <time>2018-05-26T12:01:31Z</time>
      </trkpt>
      <trkpt lat="47.86947" lon="6.75269">
        <ele>554.391907</ele>
        <time>2018-05-26T12:01:32Z</time>
      </trkpt>
      <trkpt lat="47.86945" lon="6.75271">
        <ele>554.565796</ele>
        <time>2018-05-26T12:01:33Z</time>
      </trkpt>
      <trkpt lat="47.86942" lon="6.75274">
        <ele>554.656006</ele>
        <time>2018-05-26T12:01:34Z</time>
      </trkpt>
      <trkpt lat="47.8694" lon="6.75276">
        <ele>554.722229</ele>
        <time>2018-05-26T12:01:35Z</time>
      </trkpt>
      <trkpt lat="47.86936" lon="6.75278">
        <ele>554.772705</ele>
        <time>2018-05-26T12:01:36Z</time>
      </trkpt>
      <trkpt lat="47.86933" lon="6.75279">
        <ele>554.784241</ele>
        <time>2018-05-26T12:01:37Z</time>
      </trkpt>
      <trkpt lat="47.86929" lon="6.7528">
        <ele>554.791077</ele>
        <time>2018-05-26T12:01:38Z</time>
      </trkpt>
      <trkpt lat="47.86925" lon="6.7528">
        <ele>554.803223</ele>
        <time>2018-05-26T12:01:39Z</time>
      </trkpt>
      <trkpt lat="47.86921" lon="6.75281">
        <ele>554.805603</ele>
        <time>2018-05-26T12:01:40Z</time>
      </trkpt>
      <trkpt lat="47.86917" lon="6.75281">
        <ele>554.802429</ele>
        <time>2018-05-26T12:01:41Z</time>
      </trkpt>
      <trkpt lat="47.86913" lon="6.75281">
        <ele>554.787781</ele>
        <time>2018-05-26T12:01:42Z</time>
      </trkpt>
      <trkpt lat="47.86909" lon="6.75281">
        <ele>554.761719</ele>
        <time>2018-05-26T12:01:43Z</time>
      </trkpt>
      <trkpt lat="47.86904" lon="6.75281">
        <ele>554.694275</ele>
        <time>2018-05-26T12:01:44Z</time>
      </trkpt>
      <trkpt lat="47.86899" lon="6.75282">
        <ele>554.61792</ele>
        <time>2018-05-26T12:01:45Z</time>
      </trkpt>
      <trkpt lat="47.86894" lon="6.75282">
        <ele>554.441711</ele>
        <time>2018-05-26T12:01:46Z</time>
      </trkpt>
      <trkpt lat="47.86888" lon="6.75283">
        <ele>554.283691</ele>
        <time>2018-05-26T12:01:47Z</time>
      </trkpt>
      <trkpt lat="47.86883" lon="6.75285">
        <ele>554.102295</ele>
        <time>2018-05-26T12:01:48Z</time>
      </trkpt>
      <trkpt lat="47.86878" lon="6.75289">
        <ele>553.807861</ele>
        <time>2018-05-26T12:01:49Z</time>
      </trkpt>
      <trkpt lat="47.86874" lon="6.75294">
        <ele>553.601379</ele>
        <time>2018-05-26T12:01:50Z</time>
      </trkpt>
      <trkpt lat="47.86869" lon="6.753">
        <ele>553.388367</ele>
        <time>2018-05-26T12:01:51Z</time>
      </trkpt>
      <trkpt lat="47.86865" lon="6.75305">
        <ele>553.073914</ele>
        <time>2018-05-26T12:01:52Z</time>
      </trkpt>
      <trkpt lat="47.86858" lon="6.7531">
        <ele>552.874268</ele>
        <time>2018-05-26T12:01:53Z</time>
      </trkpt>
      <trkpt lat="47.86852" lon="6.75315">
        <ele>552.676575</ele>
        <time>2018-05-26T12:01:54Z</time>
      </trkpt>
      <trkpt lat="47.86845" lon="6.75319">
        <ele>552.35199</ele>
        <time>2018-05-26T12:01:55Z</time>
      </trkpt>
      <trkpt lat="47.86839" lon="6.75324">
        <ele>552.099915</ele>
        <time>2018-05-26T12:01:56Z</time>
      </trkpt>
      <trkpt lat="47.86832" lon="6.7533">
        <ele>551.813904</ele>
        <time>2018-05-26T12:01:57Z</time>
      </trkpt>
      <trkpt lat="47.86825" lon="6.75336">
        <ele>551.318115</ele>
        <time>2018-05-26T12:01:58Z</time>
      </trkpt>
      <trkpt lat="47.86819" lon="6.75342">
        <ele>550.946777</ele>
        <time>2018-05-26T12:01:59Z</time>
      </trkpt>
      <trkpt lat="47.86812" lon="6.75347">
        <ele>550.542786</ele>
        <time>2018-05-26T12:02:00Z</time>
      </trkpt>
      <trkpt lat="47.86806" lon="6.75352">
        <ele>549.932373</ele>
        <time>2018-05-26T12:02:01Z</time>
      </trkpt>
      <trkpt lat="47.868" lon="6.75356">
        <ele>549.558655</ele>
        <time>2018-05-26T12:02:02Z</time>
      </trkpt>
      <trkpt lat="47.86794" lon="6.7536">
        <ele>549.239929</ele>
        <time>2018-05-26T12:02:03Z</time>
      </trkpt>
      <trkpt lat="47.86789" lon="6.75363">
        <ele>548.899475</ele>
        <time>2018-05-26T12:02:04Z</time>
      </trkpt>
      <trkpt lat="47.86784" lon="6.75366">
        <ele>548.809753</ele>
        <time>2018-05-26T12:02:05Z</time>
      </trkpt>
      <trkpt lat="47.86779" lon="6.75368">
        <ele>548.809875</ele>
        <time>2018-05-26T12:02:06Z</time>
      </trkpt>
      <trkpt lat="47.86774" lon="6.75369">
        <ele>548.891663</ele>
        <time>2018-05-26T12:02:07Z</time>
      </trkpt>
      <trkpt lat="47.8677" lon="6.7537">
        <ele>549.05426</ele>
        <time>2018-05-26T12:02:08Z</time>
      </trkpt>
      <trkpt lat="47.86766" lon="6.75372">
        <ele>549.378357</ele>
        <time>2018-05-26T12:02:09Z</time>
      </trkpt>
      <trkpt lat="47.86763" lon="6.75373">
        <ele>549.628235</ele>
        <time>2018-05-26T12:02:10Z</time>
      </trkpt>
      <trkpt lat="47.86759" lon="6.75375">
        <ele>550.02948</ele>
        <time>2018-05-26T12:02:11Z</time>
      </trkpt>
      <trkpt lat="47.86756" lon="6.75376">
        <ele>550.303894</ele>
        <time>2018-05-26T12:02:12Z</time>
      </trkpt>
      <trkpt lat="47.86752" lon="6.75377">
        <ele>550.728943</ele>
        <time>2018-05-26T12:02:13Z</time>
      </trkpt>
      <trkpt lat="47.86749" lon="6.75378">
        <ele>551.01532</ele>
        <time>2018-05-26T12:02:14Z</time>
      </trkpt>
      <trkpt lat="47.86747" lon="6.75379">
        <ele>551.298584</ele>
        <time>2018-05-26T12:02:15Z</time>
      </trkpt>
      <trkpt lat="47.86744" lon="6.75381">
        <ele>551.574402</ele>
        <time>2018-05-26T12:02:16Z</time>
      </trkpt>
      <trkpt lat="47.86741" lon="6.75384">
        <ele>551.966797</ele>
        <time>2018-05-26T12:02:17Z</time>
      </trkpt>
      <trkpt lat="47.86739" lon="6.75386">
        <ele>552.208679</ele>
        <time>2018-05-26T12:02:18Z</time>
      </trkpt>
      <trkpt lat="47.86737" lon="6.75389">
        <ele>552.439758</ele>
        <time>2018-05-26T12:02:19Z</time>
      </trkpt>
      <trkpt lat="47.86737" lon="6.75393">
        <ele>552.552612</ele>
        <time>2018-05-26T12:02:20Z</time>
      </trkpt>
      <trkpt lat="47.86737" lon="6.75396">
        <ele>552.6651</ele>
        <time>2018-05-26T12:02:21Z</time>
      </trkpt>
      <trkpt lat="47.86739" lon="6.75399">
        <ele>552.893127</ele>
        <time>2018-05-26T12:02:22Z</time>
      </trkpt>
      <trkpt lat="47.86742" lon="6.75401">
        <ele>553.267883</ele>
        <time>2018-05-26T12:02:23Z</time>
      </trkpt>
      <trkpt lat="47.86745" lon="6.75402">
        <ele>553.549988</ele>
        <time>2018-05-26T12:02:24Z</time>
      </trkpt>
      <trkpt lat="47.86747" lon="6.75404">
        <ele>553.850037</ele>
        <time>2018-05-26T12:02:25Z</time>
      </trkpt>
      <trkpt lat="47.86749" lon="6.75406">
        <ele>554.315857</ele>
        <time>2018-05-26T12:02:26Z</time>
      </trkpt>
      <trkpt lat="47.86751" lon="6.75407">
        <ele>554.628418</ele>
        <time>2018-05-26T12:02:27Z</time>
      </trkpt>
      <trkpt lat="47.86754" lon="6.75408">
        <ele>554.931702</ele>
        <time>2018-05-26T12:02:28Z</time>
      </trkpt>
      <trkpt lat="47.86756" lon="6.75408">
        <ele>555.351013</ele>
        <time>2018-05-26T12:02:29Z</time>
      </trkpt>
      <trkpt lat="47.86759" lon="6.7541">
        <ele>555.602905</ele>
        <time>2018-05-26T12:02:30Z</time>
      </trkpt>
      <trkpt lat="47.86761" lon="6.75411">
        <ele>555.835571</ele>
        <time>2018-05-26T12:02:31Z</time>
      </trkpt>
      <trkpt lat="47.86763" lon="6.75412">
        <ele>556.1474</ele>
        <time>2018-05-26T12:02:32Z</time>
      </trkpt>
      <trkpt lat="47.86766" lon="6.75413">
        <ele>556.33551</ele>
        <time>2018-05-26T12:02:33Z</time>
      </trkpt>
      <trkpt lat="47.86768" lon="6.75415">
        <ele>556.51239</ele>
        <time>2018-05-26T12:02:34Z</time>
      </trkpt>
      <trkpt lat="47.86769" lon="6.75417">
        <ele>556.779724</ele>
        <time>2018-05-26T12:02:35Z</time>
      </trkpt>
      <trkpt lat="47.8677" lon="6.7542">
        <ele>556.966003</ele>
        <time>2018-05-26T12:02:36Z</time>
      </trkpt>
      <trkpt lat="47.86771" lon="6.75424">
        <ele>557.154358</ele>
        <time>2018-05-26T12:02:37Z</time>
      </trkpt>
      <trkpt lat="47.86772" lon="6.75426">
        <ele>557.337097</ele>
        <time>2018-05-26T12:02:38Z</time>
      </trkpt>
      <trkpt lat="47.86772" lon="6.75429">
        <ele>557.515381</ele>
        <time>2018-05-26T12:02:39Z</time>
      </trkpt>
      <trkpt lat="47.86772" lon="6.75432">
        <ele>557.774292</ele>
        <time>2018-05-26T12:02:40Z</time>
      </trkpt>
      <trkpt lat="47.86771" lon="6.75435">
        <ele>557.940674</ele>
        <time>2018-05-26T12:02:41Z</time>
      </trkpt>
      <trkpt lat="47.86771" lon="6.75437">
        <ele>558.099365</ele>
        <time>2018-05-26T12:02:42Z</time>
      </trkpt>
      <trkpt lat="47.86771" lon="6.75438">
        <ele>558.337585</ele>
        <time>2018-05-26T12:02:43Z</time>
      </trkpt>
      <trkpt lat="47.8677" lon="6.75439">
        <ele>558.509949</ele>
        <time>2018-05-26T12:02:44Z</time>
      </trkpt>
      <trkpt lat="47.86769" lon="6.7544">
        <ele>558.695984</ele>
        <time>2018-05-26T12:02:45Z</time>
      </trkpt>
      <trkpt lat="47.86767" lon="6.7544">
        <ele>558.88324</ele>
        <time>2018-05-26T12:02:46Z</time>
      </trkpt>
      <trkpt lat="47.86765" lon="6.75441">
        <ele>559.133911</ele>
        <time>2018-05-26T12:02:47Z</time>
      </trkpt>
      <trkpt lat="47.86762" lon="6.75441">
        <ele>559.274963</ele>
        <time>2018-05-26T12:02:48Z</time>
      </trkpt>
      <trkpt lat="47.8676" lon="6.75442">
        <ele>559.465149</ele>
        <time>2018-05-26T12:02:49Z</time>
      </trkpt>
      <trkpt lat="47.86757" lon="6.75443">
        <ele>559.572449</ele>
        <time>2018-05-26T12:02:50Z</time>
      </trkpt>
      <trkpt lat="47.86754" lon="6.75445">
        <ele>559.659607</ele>
        <time>2018-05-26T12:02:51Z</time>
      </trkpt>
      <trkpt lat="47.86751" lon="6.75446">
        <ele>559.765137</ele>
        <time>2018-05-26T12:02:52Z</time>
      </trkpt>
      <trkpt lat="47.86748" lon="6.75447">
        <ele>559.840759</ele>
        <time>2018-05-26T12:02:53Z</time>
      </trkpt>
      <trkpt lat="47.86746" lon="6.75448">
        <ele>559.933594</ele>
        <time>2018-05-26T12:02:54Z</time>
      </trkpt>
      <trkpt lat="47.86743" lon="6.75449">
        <ele>560.106506</ele>
        <time>2018-05-26T12:02:55Z</time>
      </trkpt>
      <trkpt lat="47.86741" lon="6.75451">
        <ele>560.237854</ele>
        <time>2018-05-26T12:02:56Z</time>
      </trkpt>
      <trkpt lat="47.8674" lon="6.75453">
        <ele>560.37616</ele>
        <time>2018-05-26T12:02:57Z</time>
      </trkpt>
      <trkpt lat="47.86738" lon="6.75456">
        <ele>560.573669</ele>
        <time>2018-05-26T12:02:58Z</time>
      </trkpt>
      <trkpt lat="47.86737" lon="6.7546">
        <ele>560.693909</ele>
        <time>2018-05-26T12:02:59Z</time>
      </trkpt>
      <trkpt lat="47.86739" lon="6.75463">
        <ele>560.812195</ele>
        <time>2018-05-26T12:03:00Z</time>
      </trkpt>
      <trkpt lat="47.8674" lon="6.75466">
        <ele>560.934875</ele>
        <time>2018-05-26T12:03:01Z</time>
      </trkpt>
      <trkpt lat="47.86741" lon="6.75469">
        <ele>561.065918</ele>
        <time>2018-05-26T12:03:02Z</time>
      </trkpt>
      <trkpt lat="47.86743" lon="6.75472">
        <ele>561.280396</ele>
        <time>2018-05-26T12:03:03Z</time>
      </trkpt>
      <trkpt lat="47.86744" lon="6.75475">
        <ele>561.441711</ele>
        <time>2018-05-26T12:03:04Z</time>
      </trkpt>
      <trkpt lat="47.86744" lon="6.75478">
        <ele>561.626526</ele>
        <time>2018-05-26T12:03:05Z</time>
      </trkpt>
      <trkpt lat="47.86745" lon="6.75482">
        <ele>561.832581</ele>
        <time>2018-05-26T12:03:06Z</time>
      </trkpt>
      <trkpt lat="47.86746" lon="6.75484">
        <ele>562.154907</ele>
        <time>2018-05-26T12:03:07Z</time>
      </trkpt>
      <trkpt lat="47.86747" lon="6.75487">
        <ele>562.361755</ele>
        <time>2018-05-26T12:03:08Z</time>
      </trkpt>
      <trkpt lat="47.86747" lon="6.7549">
        <ele>562.565613</ele>
        <time>2018-05-26T12:03:09Z</time>
      </trkpt>
      <trkpt lat="47.86748" lon="6.75492">
        <ele>562.769592</ele>
        <time>2018-05-26T12:03:10Z</time>
      </trkpt>
      <trkpt lat="47.86749" lon="6.75495">
        <ele>563.082214</ele>
        <time>2018-05-26T12:03:11Z</time>
      </trkpt>
      <trkpt lat="47.8675" lon="6.75498">
        <ele>563.289185</ele>
        <time>2018-05-26T12:03:12Z</time>
      </trkpt>
      <trkpt lat="47.8675" lon="6.755">
        <ele>563.495605</ele>
        <time>2018-05-26T12:03:13Z</time>
      </trkpt>
      <trkpt lat="47.86751" lon="6.75502">
        <ele>563.811462</ele>
        <time>2018-05-26T12:03:14Z</time>
      </trkpt>
      <trkpt lat="47.86752" lon="6.75505">
        <ele>564.026611</ele>
        <time>2018-05-26T12:03:15Z</time>
      </trkpt>
      <trkpt lat="47.86753" lon="6.75507">
        <ele>564.236267</ele>
        <time>2018-05-26T12:03:16Z</time>
      </trkpt>
      <trkpt lat="47.86754" lon="6.75509">
        <ele>564.527222</ele>
        <time>2018-05-26T12:03:17Z</time>
      </trkpt>
      <trkpt lat="47.86755" lon="6.75512">
        <ele>564.71228</ele>
        <time>2018-05-26T12:03:18Z</time>
      </trkpt>
      <trkpt lat="47.86755" lon="6.75514">
        <ele>564.898499</ele>
        <time>2018-05-26T12:03:19Z</time>
      </trkpt>
      <trkpt lat="47.86756" lon="6.75516">
        <ele>565.172668</ele>
        <time>2018-05-26T12:03:20Z</time>
      </trkpt>
      <trkpt lat="47.86757" lon="6.75519">
        <ele>565.259521</ele>
        <time>2018-05-26T12:03:21Z</time>
      </trkpt>
      <trkpt lat="47.86757" lon="6.75521">
        <ele>565.424866</ele>
        <time>2018-05-26T12:03:22Z</time>
      </trkpt>
      <trkpt lat="47.86758" lon="6.75524">
        <ele>565.584045</ele>
        <time>2018-05-26T12:03:23Z</time>
      </trkpt>
      <trkpt lat="47.86758" lon="6.75527">
        <ele>565.811523</ele>
        <time>2018-05-26T12:03:24Z</time>
      </trkpt>
      <trkpt lat="47.86759" lon="6.7553">
        <ele>565.948181</ele>
        <time>2018-05-26T12:03:25Z</time>
      </trkpt>
      <trkpt lat="47.8676" lon="6.75533">
        <ele>566.071228</ele>
        <time>2018-05-26T12:03:26Z</time>
      </trkpt>
      <trkpt lat="47.8676" lon="6.75536">
        <ele>566.180969</ele>
        <time>2018-05-26T12:03:27Z</time>
      </trkpt>
      <trkpt lat="47.86761" lon="6.75538">
        <ele>566.336182</ele>
        <time>2018-05-26T12:03:28Z</time>
      </trkpt>
      <trkpt lat="47.86762" lon="6.75541">
        <ele>566.446533</ele>
        <time>2018-05-26T12:03:29Z</time>
      </trkpt>
      <trkpt lat="47.86762" lon="6.75544">
        <ele>566.572449</ele>
        <time>2018-05-26T12:03:30Z</time>
      </trkpt>
      <trkpt lat="47.86763" lon="6.75547">
        <ele>566.719055</ele>
        <time>2018-05-26T12:03:31Z</time>
      </trkpt>
      <trkpt lat="47.86763" lon="6.75549">
        <ele>566.883484</ele>
        <time>2018-05-26T12:03:32Z</time>
      </trkpt>
      <trkpt lat="47.86763" lon="6.75552">
        <ele>567.149902</ele>
        <time>2018-05-26T12:03:33Z</time>
      </trkpt>
      <trkpt lat="47.86763" lon="6.75555">
        <ele>567.334534</ele>
        <time>2018-05-26T12:03:34Z</time>
      </trkpt>
      <trkpt lat="47.86763" lon="6.75558">
        <ele>567.517273</ele>
        <time>2018-05-26T12:03:35Z</time>
      </trkpt>
      <trkpt lat="47.86763" lon="6.75561">
        <ele>567.693481</ele>
        <time>2018-05-26T12:03:36Z</time>
      </trkpt>
      <trkpt lat="47.86763" lon="6.75564">
        <ele>567.855774</ele>
        <time>2018-05-26T12:03:37Z</time>
      </trkpt>
      <trkpt lat="47.86763" lon="6.75567">
        <ele>568.003845</ele>
        <time>2018-05-26T12:03:38Z</time>
      </trkpt>
      <trkpt lat="47.86763" lon="6.7557">
        <ele>568.13739</ele>
        <time>2018-05-26T12:03:39Z</time>
      </trkpt>
      <trkpt lat="47.86763" lon="6.75574">
        <ele>568.260376</ele>
        <time>2018-05-26T12:03:40Z</time>
      </trkpt>
      <trkpt lat="47.86763" lon="6.75576">
        <ele>568.432068</ele>
        <time>2018-05-26T12:03:41Z</time>
      </trkpt>
      <trkpt lat="47.86763" lon="6.75579">
        <ele>568.542847</ele>
        <time>2018-05-26T12:03:42Z</time>
      </trkpt>
      <trkpt lat="47.86763" lon="6.75583">
        <ele>568.64801</ele>
        <time>2018-05-26T12:03:43Z</time>
      </trkpt>
      <trkpt lat="47.86763" lon="6.75586">
        <ele>568.75238</ele>
        <time>2018-05-26T12:03:44Z</time>
      </trkpt>
      <trkpt lat="47.86763" lon="6.75589">
        <ele>568.854187</ele>
        <time>2018-05-26T12:03:45Z</time>
      </trkpt>
      <trkpt lat="47.86763" lon="6.75591">
        <ele>569.018494</ele>
        <time>2018-05-26T12:03:46Z</time>
      </trkpt>
      <trkpt lat="47.86762" lon="6.75594">
        <ele>569.138245</ele>
        <time>2018-05-26T12:03:47Z</time>
      </trkpt>
      <trkpt lat="47.86762" lon="6.75597">
        <ele>569.271912</ele>
        <time>2018-05-26T12:03:48Z</time>
      </trkpt>
      <trkpt lat="47.8676" lon="6.75599">
        <ele>569.415527</ele>
        <time>2018-05-26T12:03:49Z</time>
      </trkpt>
      <trkpt lat="47.8676" lon="6.75602">
        <ele>569.635071</ele>
        <time>2018-05-26T12:03:50Z</time>
      </trkpt>
      <trkpt lat="47.8676" lon="6.75604">
        <ele>569.783447</ele>
        <time>2018-05-26T12:03:51Z</time>
      </trkpt>
      <trkpt lat="47.86759" lon="6.75607">
        <ele>569.937317</ele>
        <time>2018-05-26T12:03:52Z</time>
      </trkpt>
      <trkpt lat="47.86758" lon="6.7561">
        <ele>570.095398</ele>
        <time>2018-05-26T12:03:53Z</time>
      </trkpt>
      <trkpt lat="47.86757" lon="6.75612">
        <ele>570.333557</ele>
        <time>2018-05-26T12:03:54Z</time>
      </trkpt>
      <trkpt lat="47.86756" lon="6.75615">
        <ele>570.497498</ele>
        <time>2018-05-26T12:03:55Z</time>
      </trkpt>
      <trkpt lat="47.86755" lon="6.75617">
        <ele>570.667786</ele>
        <time>2018-05-26T12:03:56Z</time>
      </trkpt>
      <trkpt lat="47.86754" lon="6.7562">
        <ele>570.929626</ele>
        <time>2018-05-26T12:03:57Z</time>
      </trkpt>
      <trkpt lat="47.86753" lon="6.75622">
        <ele>571.102356</ele>
        <time>2018-05-26T12:03:58Z</time>
      </trkpt>
      <trkpt lat="47.86751" lon="6.75625">
        <ele>571.264343</ele>
        <time>2018-05-26T12:03:59Z</time>
      </trkpt>
      <trkpt lat="47.8675" lon="6.75627">
        <ele>571.477905</ele>
        <time>2018-05-26T12:04:00Z</time>
      </trkpt>
      <trkpt lat="47.86749" lon="6.7563">
        <ele>571.603394</ele>
        <time>2018-05-26T12:04:01Z</time>
      </trkpt>
      <trkpt lat="47.86748" lon="6.75632">
        <ele>571.718445</ele>
        <time>2018-05-26T12:04:02Z</time>
      </trkpt>
      <trkpt lat="47.86747" lon="6.75635">
        <ele>571.824707</ele>
        <time>2018-05-26T12:04:03Z</time>
      </trkpt>
      <trkpt lat="47.86745" lon="6.75637">
        <ele>571.92572</ele>
        <time>2018-05-26T12:04:04Z</time>
      </trkpt>
      <trkpt lat="47.86744" lon="6.7564">
        <ele>572.072632</ele>
        <time>2018-05-26T12:04:05Z</time>
      </trkpt>
      <trkpt lat="47.86742" lon="6.75642">
        <ele>572.175476</ele>
        <time>2018-05-26T12:04:06Z</time>
      </trkpt>
      <trkpt lat="47.86741" lon="6.75645">
        <ele>572.286377</ele>
        <time>2018-05-26T12:04:07Z</time>
      </trkpt>
      <trkpt lat="47.8674" lon="6.75648">
        <ele>572.467224</ele>
        <time>2018-05-26T12:04:08Z</time>
      </trkpt>
      <trkpt lat="47.86739" lon="6.75651">
        <ele>572.594849</ele>
        <time>2018-05-26T12:04:09Z</time>
      </trkpt>
      <trkpt lat="47.86738" lon="6.75654">
        <ele>572.724548</ele>
        <time>2018-05-26T12:04:10Z</time>
      </trkpt>
      <trkpt lat="47.86737" lon="6.75657">
        <ele>572.851501</ele>
        <time>2018-05-26T12:04:11Z</time>
      </trkpt>
      <trkpt lat="47.86736" lon="6.7566">
        <ele>573.018555</ele>
        <time>2018-05-26T12:04:12Z</time>
      </trkpt>
      <trkpt lat="47.86734" lon="6.75664">
        <ele>573.108582</ele>
        <time>2018-05-26T12:04:13Z</time>
      </trkpt>
      <trkpt lat="47.86734" lon="6.75667">
        <ele>573.184082</ele>
        <time>2018-05-26T12:04:14Z</time>
      </trkpt>
      <trkpt lat="47.86733" lon="6.7567">
        <ele>573.252197</ele>
        <time>2018-05-26T12:04:15Z</time>
      </trkpt>
      <trkpt lat="47.86731" lon="6.75673">
        <ele>573.351196</ele>
        <time>2018-05-26T12:04:16Z</time>
      </trkpt>
      <trkpt lat="47.8673" lon="6.75677">
        <ele>573.419617</ele>
        <time>2018-05-26T12:04:17Z</time>
      </trkpt>
      <trkpt lat="47.86729" lon="6.7568">
        <ele>573.490173</ele>
        <time>2018-05-26T12:04:18Z</time>
      </trkpt>
      <trkpt lat="47.86728" lon="6.75684">
        <ele>573.600342</ele>
        <time>2018-05-26T12:04:19Z</time>
      </trkpt>
      <trkpt lat="47.86727" lon="6.75687">
        <ele>573.683105</ele>
        <time>2018-05-26T12:04:20Z</time>
      </trkpt>
      <trkpt lat="47.86726" lon="6.7569">
        <ele>573.781067</ele>
        <time>2018-05-26T12:04:21Z</time>
      </trkpt>
      <trkpt lat="47.86726" lon="6.75693">
        <ele>573.83606</ele>
        <time>2018-05-26T12:04:22Z</time>
      </trkpt>
      <trkpt lat="47.86725" lon="6.75697">
        <ele>573.894592</ele>
        <time>2018-05-26T12:04:23Z</time>
      </trkpt>
      <trkpt lat="47.86725" lon="6.757">
        <ele>574.019287</ele>
        <time>2018-05-26T12:04:24Z</time>
      </trkpt>
      <trkpt lat="47.86724" lon="6.75704">
        <ele>574.148682</ele>
        <time>2018-05-26T12:04:25Z</time>
      </trkpt>
      <trkpt lat="47.86723" lon="6.75707">
        <ele>574.282898</ele>
        <time>2018-05-26T12:04:26Z</time>
      </trkpt>
      <trkpt lat="47.86723" lon="6.75711">
        <ele>574.498352</ele>
        <time>2018-05-26T12:04:27Z</time>
      </trkpt>
      <trkpt lat="47.86723" lon="6.75715">
        <ele>574.652649</ele>
        <time>2018-05-26T12:04:28Z</time>
      </trkpt>
      <trkpt lat="47.86723" lon="6.75718">
        <ele>574.81012</ele>
        <time>2018-05-26T12:04:29Z</time>
      </trkpt>
      <trkpt lat="47.86723" lon="6.75722">
        <ele>575.056396</ele>
        <time>2018-05-26T12:04:30Z</time>
      </trkpt>
      <trkpt lat="47.86723" lon="6.75725">
        <ele>575.229675</ele>
        <time>2018-05-26T12:04:31Z</time>
      </trkpt>
      <trkpt lat="47.86723" lon="6.75729">
        <ele>575.402161</ele>
        <time>2018-05-26T12:04:32Z</time>
      </trkpt>
      <trkpt lat="47.86723" lon="6.75733">
        <ele>575.562927</ele>
        <time>2018-05-26T12:04:33Z</time>
      </trkpt>
      <trkpt lat="47.86723" lon="6.75737">
        <ele>575.771118</ele>
        <time>2018-05-26T12:04:34Z</time>
      </trkpt>
      <trkpt lat="47.86724" lon="6.7574">
        <ele>575.8927</ele>
        <time>2018-05-26T12:04:35Z</time>
      </trkpt>
      <trkpt lat="47.86725" lon="6.75745">
        <ele>576.006104</ele>
        <time>2018-05-26T12:04:36Z</time>
      </trkpt>
      <trkpt lat="47.86726" lon="6.75749">
        <ele>576.169861</ele>
        <time>2018-05-26T12:04:37Z</time>
      </trkpt>
      <trkpt lat="47.86727" lon="6.75752">
        <ele>576.276611</ele>
        <time>2018-05-26T12:04:38Z</time>
      </trkpt>
      <trkpt lat="47.86728" lon="6.75756">
        <ele>576.382263</ele>
        <time>2018-05-26T12:04:39Z</time>
      </trkpt>
      <trkpt lat="47.86728" lon="6.7576">
        <ele>576.54071</ele>
        <time>2018-05-26T12:04:40Z</time>
      </trkpt>
      <trkpt lat="47.86729" lon="6.75763">
        <ele>576.641418</ele>
        <time>2018-05-26T12:04:41Z</time>
      </trkpt>
      <trkpt lat="47.86731" lon="6.75767">
        <ele>576.738464</ele>
        <time>2018-05-26T12:04:42Z</time>
      </trkpt>
      <trkpt lat="47.86732" lon="6.7577">
        <ele>576.870605</ele>
        <time>2018-05-26T12:04:43Z</time>
      </trkpt>
      <trkpt lat="47.86733" lon="6.75773">
        <ele>576.946045</ele>
        <time>2018-05-26T12:04:44Z</time>
      </trkpt>
      <trkpt lat="47.86734" lon="6.75777">
        <ele>577.013977</ele>
        <time>2018-05-26T12:04:45Z</time>
      </trkpt>
      <trkpt lat="47.86735" lon="6.7578">
        <ele>577.088928</ele>
        <time>2018-05-26T12:04:46Z</time>
      </trkpt>
      <trkpt lat="47.86736" lon="6.75783">
        <ele>577.22821</ele>
        <time>2018-05-26T12:04:47Z</time>
      </trkpt>
      <trkpt lat="47.86737" lon="6.75786">
        <ele>577.336975</ele>
        <time>2018-05-26T12:04:48Z</time>
      </trkpt>
      <trkpt lat="47.86739" lon="6.7579">
        <ele>577.448059</ele>
        <time>2018-05-26T12:04:49Z</time>
      </trkpt>
      <trkpt lat="47.8674" lon="6.75793">
        <ele>577.562683</ele>
        <time>2018-05-26T12:04:50Z</time>
      </trkpt>
      <trkpt lat="47.86741" lon="6.75796">
        <ele>577.738953</ele>
        <time>2018-05-26T12:04:51Z</time>
      </trkpt>
      <trkpt lat="47.86742" lon="6.75799">
        <ele>577.862793</ele>
        <time>2018-05-26T12:04:52Z</time>
      </trkpt>
      <trkpt lat="47.86744" lon="6.75803">
        <ele>577.987976</ele>
        <time>2018-05-26T12:04:53Z</time>
      </trkpt>
      <trkpt lat="47.86744" lon="6.75806">
        <ele>578.201355</ele>
        <time>2018-05-26T12:04:54Z</time>
      </trkpt>
      <trkpt lat="47.86746" lon="6.75809">
        <ele>578.361877</ele>
        <time>2018-05-26T12:04:55Z</time>
      </trkpt>
      <trkpt lat="47.86746" lon="6.75813">
        <ele>578.539063</ele>
        <time>2018-05-26T12:04:56Z</time>
      </trkpt>
      <trkpt lat="47.86747" lon="6.75816">
        <ele>578.721863</ele>
        <time>2018-05-26T12:04:57Z</time>
      </trkpt>
      <trkpt lat="47.86748" lon="6.7582">
        <ele>578.989441</ele>
        <time>2018-05-26T12:04:58Z</time>
      </trkpt>
      <trkpt lat="47.86749" lon="6.75823">
        <ele>579.152405</ele>
        <time>2018-05-26T12:04:59Z</time>
      </trkpt>
      <trkpt lat="47.86749" lon="6.75827">
        <ele>579.303772</ele>
        <time>2018-05-26T12:05:00Z</time>
      </trkpt>
      <trkpt lat="47.8675" lon="6.7583">
        <ele>579.517273</ele>
        <time>2018-05-26T12:05:01Z</time>
      </trkpt>
      <trkpt lat="47.8675" lon="6.75834">
        <ele>579.664978</ele>
        <time>2018-05-26T12:05:02Z</time>
      </trkpt>
      <trkpt lat="47.86752" lon="6.75837">
        <ele>579.825623</ele>
        <time>2018-05-26T12:05:03Z</time>
      </trkpt>
      <trkpt lat="47.86753" lon="6.75841">
        <ele>580.090576</ele>
        <time>2018-05-26T12:05:04Z</time>
      </trkpt>
      <trkpt lat="47.86754" lon="6.75844">
        <ele>580.278503</ele>
        <time>2018-05-26T12:05:05Z</time>
      </trkpt>
      <trkpt lat="47.86755" lon="6.75848">
        <ele>580.469666</ele>
        <time>2018-05-26T12:05:06Z</time>
      </trkpt>
      <trkpt lat="47.86756" lon="6.75851">
        <ele>580.747131</ele>
        <time>2018-05-26T12:05:07Z</time>
      </trkpt>
      <trkpt lat="47.86757" lon="6.75854">
        <ele>580.918701</ele>
        <time>2018-05-26T12:05:08Z</time>
      </trkpt>
      <trkpt lat="47.86758" lon="6.75857">
        <ele>581.08252</ele>
        <time>2018-05-26T12:05:09Z</time>
      </trkpt>
      <trkpt lat="47.86759" lon="6.75861">
        <ele>581.316528</ele>
        <time>2018-05-26T12:05:10Z</time>
      </trkpt>
      <trkpt lat="47.8676" lon="6.75864">
        <ele>581.467773</ele>
        <time>2018-05-26T12:05:11Z</time>
      </trkpt>
      <trkpt lat="47.86761" lon="6.75867">
        <ele>581.617615</ele>
        <time>2018-05-26T12:05:12Z</time>
      </trkpt>
      <trkpt lat="47.86762" lon="6.7587">
        <ele>581.846985</ele>
        <time>2018-05-26T12:05:13Z</time>
      </trkpt>
      <trkpt lat="47.86763" lon="6.75873">
        <ele>582.006775</ele>
        <time>2018-05-26T12:05:14Z</time>
      </trkpt>
      <trkpt lat="47.86765" lon="6.75876">
        <ele>582.173706</ele>
        <time>2018-05-26T12:05:15Z</time>
      </trkpt>
      <trkpt lat="47.86766" lon="6.7588">
        <ele>582.42981</ele>
        <time>2018-05-26T12:05:16Z</time>
      </trkpt>
      <trkpt lat="47.86767" lon="6.75883">
        <ele>582.601379</ele>
        <time>2018-05-26T12:05:17Z</time>
      </trkpt>
      <trkpt lat="47.86768" lon="6.75886">
        <ele>582.776672</ele>
        <time>2018-05-26T12:05:18Z</time>
      </trkpt>
      <trkpt lat="47.8677" lon="6.75888">
        <ele>583.05304</ele>
        <time>2018-05-26T12:05:19Z</time>
      </trkpt>
      <trkpt lat="47.86771" lon="6.75891">
        <ele>583.241516</ele>
        <time>2018-05-26T12:05:20Z</time>
      </trkpt>
      <trkpt lat="47.86773" lon="6.75893">
        <ele>583.426697</ele>
        <time>2018-05-26T12:05:21Z</time>
      </trkpt>
      <trkpt lat="47.86774" lon="6.75896">
        <ele>583.610413</ele>
        <time>2018-05-26T12:05:22Z</time>
      </trkpt>
      <trkpt lat="47.86775" lon="6.75899">
        <ele>583.701416</ele>
        <time>2018-05-26T12:05:23Z</time>
      </trkpt>
      <trkpt lat="47.86777" lon="6.75901">
        <ele>583.792297</ele>
        <time>2018-05-26T12:05:24Z</time>
      </trkpt>
      <trkpt lat="47.86778" lon="6.75904">
        <ele>583.974915</ele>
        <time>2018-05-26T12:05:25Z</time>
      </trkpt>
      <trkpt lat="47.8678" lon="6.75906">
        <ele>584.254272</ele>
        <time>2018-05-26T12:05:26Z</time>
      </trkpt>
      <trkpt lat="47.86782" lon="6.75908">
        <ele>584.449707</ele>
        <time>2018-05-26T12:05:27Z</time>
      </trkpt>
      <trkpt lat="47.86783" lon="6.75911">
        <ele>584.653137</ele>
        <time>2018-05-26T12:05:28Z</time>
      </trkpt>
      <trkpt lat="47.86785" lon="6.75913">
        <ele>584.862732</ele>
        <time>2018-05-26T12:05:29Z</time>
      </trkpt>
      <trkpt lat="47.86786" lon="6.75915">
        <ele>585.187317</ele>
        <time>2018-05-26T12:05:30Z</time>
      </trkpt>
      <trkpt lat="47.86787" lon="6.75917">
        <ele>585.407043</ele>
        <time>2018-05-26T12:05:31Z</time>
      </trkpt>
      <trkpt lat="47.86789" lon="6.75919">
        <ele>585.626892</ele>
        <time>2018-05-26T12:05:32Z</time>
      </trkpt>
      <trkpt lat="47.8679" lon="6.75921">
        <ele>585.951904</ele>
        <time>2018-05-26T12:05:33Z</time>
      </trkpt>
      <trkpt lat="47.86791" lon="6.75923">
        <ele>586.164978</ele>
        <time>2018-05-26T12:05:34Z</time>
      </trkpt>
      <trkpt lat="47.86792" lon="6.75925">
        <ele>586.376404</ele>
        <time>2018-05-26T12:05:35Z</time>
      </trkpt>
      <trkpt lat="47.86794" lon="6.75927">
        <ele>586.586975</ele>
        <time>2018-05-26T12:05:36Z</time>
      </trkpt>
      <trkpt lat="47.86795" lon="6.75928">
        <ele>586.896179</ele>
        <time>2018-05-26T12:05:37Z</time>
      </trkpt>
      <trkpt lat="47.86797" lon="6.7593">
        <ele>587.098633</ele>
        <time>2018-05-26T12:05:38Z</time>
      </trkpt>
      <trkpt lat="47.86799" lon="6.75932">
        <ele>587.301819</ele>
        <time>2018-05-26T12:05:39Z</time>
      </trkpt>
      <trkpt lat="47.868" lon="6.75934">
        <ele>587.610046</ele>
        <time>2018-05-26T12:05:40Z</time>
      </trkpt>
      <trkpt lat="47.86801" lon="6.75936">
        <ele>587.818604</ele>
        <time>2018-05-26T12:05:41Z</time>
      </trkpt>
      <trkpt lat="47.86803" lon="6.75938">
        <ele>588.032471</ele>
        <time>2018-05-26T12:05:42Z</time>
      </trkpt>
      <trkpt lat="47.86803" lon="6.7594">
        <ele>588.36261</ele>
        <time>2018-05-26T12:05:43Z</time>
      </trkpt>
      <trkpt lat="47.86805" lon="6.75942">
        <ele>588.579834</ele>
        <time>2018-05-26T12:05:44Z</time>
      </trkpt>
      <trkpt lat="47.86806" lon="6.75944">
        <ele>588.787903</ele>
        <time>2018-05-26T12:05:45Z</time>
      </trkpt>
      <trkpt lat="47.86807" lon="6.75946">
        <ele>589.083435</ele>
        <time>2018-05-26T12:05:46Z</time>
      </trkpt>
      <trkpt lat="47.86808" lon="6.75949">
        <ele>589.269714</ele>
        <time>2018-05-26T12:05:47Z</time>
      </trkpt>
      <trkpt lat="47.86809" lon="6.75951">
        <ele>589.44989</ele>
        <time>2018-05-26T12:05:48Z</time>
      </trkpt>
      <trkpt lat="47.8681" lon="6.75954">
        <ele>589.708923</ele>
        <time>2018-05-26T12:05:49Z</time>
      </trkpt>
      <trkpt lat="47.86812" lon="6.75956">
        <ele>589.879883</ele>
        <time>2018-05-26T12:05:50Z</time>
      </trkpt>
      <trkpt lat="47.86813" lon="6.75958">
        <ele>590.052979</ele>
        <time>2018-05-26T12:05:51Z</time>
      </trkpt>
      <trkpt lat="47.86814" lon="6.75961">
        <ele>590.231506</ele>
        <time>2018-05-26T12:05:52Z</time>
      </trkpt>
      <trkpt lat="47.86815" lon="6.75963">
        <ele>590.505432</ele>
        <time>2018-05-26T12:05:53Z</time>
      </trkpt>
      <trkpt lat="47.86816" lon="6.75966">
        <ele>590.681702</ele>
        <time>2018-05-26T12:05:54Z</time>
      </trkpt>
      <trkpt lat="47.86818" lon="6.75968">
        <ele>590.851868</ele>
        <time>2018-05-26T12:05:55Z</time>
      </trkpt>
      <trkpt lat="47.86819" lon="6.75971">
        <ele>591.018494</ele>
        <time>2018-05-26T12:05:56Z</time>
      </trkpt>
      <trkpt lat="47.8682" lon="6.75973">
        <ele>591.26355</ele>
        <time>2018-05-26T12:05:57Z</time>
      </trkpt>
      <trkpt lat="47.86822" lon="6.75976">
        <ele>591.424133</ele>
        <time>2018-05-26T12:05:58Z</time>
      </trkpt>
      <trkpt lat="47.86823" lon="6.75978">
        <ele>591.580261</ele>
        <time>2018-05-26T12:05:59Z</time>
      </trkpt>
      <trkpt lat="47.86824" lon="6.75981">
        <ele>591.733887</ele>
        <time>2018-05-26T12:06:00Z</time>
      </trkpt>
      <trkpt lat="47.86826" lon="6.75983">
        <ele>591.94928</ele>
        <time>2018-05-26T12:06:01Z</time>
      </trkpt>
      <trkpt lat="47.86828" lon="6.75986">
        <ele>592.083984</ele>
        <time>2018-05-26T12:06:02Z</time>
      </trkpt>
      <trkpt lat="47.86829" lon="6.75988">
        <ele>592.213257</ele>
        <time>2018-05-26T12:06:03Z</time>
      </trkpt>
      <trkpt lat="47.86831" lon="6.75991">
        <ele>592.341309</ele>
        <time>2018-05-26T12:06:04Z</time>
      </trkpt>
      <trkpt lat="47.86832" lon="6.75993">
        <ele>592.537415</ele>
        <time>2018-05-26T12:06:05Z</time>
      </trkpt>
      <trkpt lat="47.86834" lon="6.75996">
        <ele>592.672668</ele>
        <time>2018-05-26T12:06:06Z</time>
      </trkpt>
      <trkpt lat="47.86835" lon="6.75998">
        <ele>592.88446</ele>
        <time>2018-05-26T12:06:07Z</time>
      </trkpt>
      <trkpt lat="47.86837" lon="6.76001">
        <ele>593.03302</ele>
        <time>2018-05-26T12:06:08Z</time>
      </trkpt>
      <trkpt lat="47.86838" lon="6.76003">
        <ele>593.187073</ele>
        <time>2018-05-26T12:06:09Z</time>
      </trkpt>
      <trkpt lat="47.8684" lon="6.76006">
        <ele>593.343567</ele>
        <time>2018-05-26T12:06:10Z</time>
      </trkpt>
      <trkpt lat="47.86841" lon="6.76009">
        <ele>593.498535</ele>
        <time>2018-05-26T12:06:11Z</time>
      </trkpt>
      <trkpt lat="47.86842" lon="6.76012">
        <ele>593.713318</ele>
        <time>2018-05-26T12:06:12Z</time>
      </trkpt>
      <trkpt lat="47.86843" lon="6.76015">
        <ele>593.843628</ele>
        <time>2018-05-26T12:06:13Z</time>
      </trkpt>
      <trkpt lat="47.86844" lon="6.76018">
        <ele>593.96936</ele>
        <time>2018-05-26T12:06:14Z</time>
      </trkpt>
      <trkpt lat="47.86845" lon="6.76021">
        <ele>594.100281</ele>
        <time>2018-05-26T12:06:15Z</time>
      </trkpt>
      <trkpt lat="47.86845" lon="6.76025">
        <ele>594.309998</ele>
        <time>2018-05-26T12:06:16Z</time>
      </trkpt>
      <trkpt lat="47.86846" lon="6.76028">
        <ele>594.462158</ele>
        <time>2018-05-26T12:06:17Z</time>
      </trkpt>
      <trkpt lat="47.86847" lon="6.76032">
        <ele>594.621887</ele>
        <time>2018-05-26T12:06:18Z</time>
      </trkpt>
      <trkpt lat="47.86846" lon="6.76036">
        <ele>594.788574</ele>
        <time>2018-05-26T12:06:19Z</time>
      </trkpt>
      <trkpt lat="47.86845" lon="6.7604">
        <ele>594.958923</ele>
        <time>2018-05-26T12:06:20Z</time>
      </trkpt>
      <trkpt lat="47.86845" lon="6.76043">
        <ele>595.211487</ele>
        <time>2018-05-26T12:06:21Z</time>
      </trkpt>
      <trkpt lat="47.86844" lon="6.76047">
        <ele>595.372742</ele>
        <time>2018-05-26T12:06:22Z</time>
      </trkpt>
      <trkpt lat="47.86844" lon="6.7605">
        <ele>595.529785</ele>
        <time>2018-05-26T12:06:23Z</time>
      </trkpt>
      <trkpt lat="47.86842" lon="6.76053">
        <ele>595.607483</ele>
        <time>2018-05-26T12:06:24Z</time>
      </trkpt>
      <trkpt lat="47.86841" lon="6.76056">
        <ele>595.836914</ele>
        <time>2018-05-26T12:06:25Z</time>
      </trkpt>
      <trkpt lat="47.86839" lon="6.76058">
        <ele>595.985291</ele>
        <time>2018-05-26T12:06:26Z</time>
      </trkpt>
      <trkpt lat="47.86838" lon="6.76061">
        <ele>596.13147</ele>
        <time>2018-05-26T12:06:27Z</time>
      </trkpt>
      <trkpt lat="47.86837" lon="6.76064">
        <ele>596.34137</ele>
        <time>2018-05-26T12:06:28Z</time>
      </trkpt>
      <trkpt lat="47.86836" lon="6.76066">
        <ele>596.475403</ele>
        <time>2018-05-26T12:06:29Z</time>
      </trkpt>
      <trkpt lat="47.86834" lon="6.76069">
        <ele>596.60199</ele>
        <time>2018-05-26T12:06:30Z</time>
      </trkpt>
      <trkpt lat="47.86833" lon="6.76071">
        <ele>596.781189</ele>
        <time>2018-05-26T12:06:31Z</time>
      </trkpt>
      <trkpt lat="47.86832" lon="6.76074">
        <ele>596.895935</ele>
        <time>2018-05-26T12:06:32Z</time>
      </trkpt>
      <trkpt lat="47.8683" lon="6.76076">
        <ele>597.012146</ele>
        <time>2018-05-26T12:06:33Z</time>
      </trkpt>
      <trkpt lat="47.86829" lon="6.76079">
        <ele>597.196228</ele>
        <time>2018-05-26T12:06:34Z</time>
      </trkpt>
      <trkpt lat="47.86827" lon="6.76081">
        <ele>597.332581</ele>
        <time>2018-05-26T12:06:35Z</time>
      </trkpt>
      <trkpt lat="47.86826" lon="6.76084">
        <ele>597.47998</ele>
        <time>2018-05-26T12:06:36Z</time>
      </trkpt>
      <trkpt lat="47.86824" lon="6.76086">
        <ele>597.719421</ele>
        <time>2018-05-26T12:06:37Z</time>
      </trkpt>
      <trkpt lat="47.86822" lon="6.76089">
        <ele>597.885925</ele>
        <time>2018-05-26T12:06:38Z</time>
      </trkpt>
      <trkpt lat="47.86821" lon="6.76092">
        <ele>598.050293</ele>
        <time>2018-05-26T12:06:39Z</time>
      </trkpt>
      <trkpt lat="47.8682" lon="6.76094">
        <ele>598.277527</ele>
        <time>2018-05-26T12:06:40Z</time>
      </trkpt>
      <trkpt lat="47.86819" lon="6.76097">
        <ele>598.416504</ele>
        <time>2018-05-26T12:06:41Z</time>
      </trkpt>
      <trkpt lat="47.86818" lon="6.761">
        <ele>598.547485</ele>
        <time>2018-05-26T12:06:42Z</time>
      </trkpt>
      <trkpt lat="47.86816" lon="6.76102">
        <ele>598.674561</ele>
        <time>2018-05-26T12:06:43Z</time>
      </trkpt>
      <trkpt lat="47.86815" lon="6.76105">
        <ele>598.85968</ele>
        <time>2018-05-26T12:06:44Z</time>
      </trkpt>
      <trkpt lat="47.86814" lon="6.76108">
        <ele>598.984192</ele>
        <time>2018-05-26T12:06:45Z</time>
      </trkpt>
      <trkpt lat="47.86813" lon="6.7611">
        <ele>599.115417</ele>
        <time>2018-05-26T12:06:46Z</time>
      </trkpt>
      <trkpt lat="47.86812" lon="6.76113">
        <ele>599.257568</ele>
        <time>2018-05-26T12:06:47Z</time>
      </trkpt>
      <trkpt lat="47.8681" lon="6.76116">
        <ele>599.407532</ele>
        <time>2018-05-26T12:06:48Z</time>
      </trkpt>
      <trkpt lat="47.86809" lon="6.76119">
        <ele>599.632385</ele>
        <time>2018-05-26T12:06:49Z</time>
      </trkpt>
      <trkpt lat="47.86808" lon="6.76122">
        <ele>599.778748</ele>
        <time>2018-05-26T12:06:50Z</time>
      </trkpt>
      <trkpt lat="47.86807" lon="6.76125">
        <ele>599.921692</ele>
        <time>2018-05-26T12:06:51Z</time>
      </trkpt>
      <trkpt lat="47.86806" lon="6.76127">
        <ele>600.064514</ele>
        <time>2018-05-26T12:06:52Z</time>
      </trkpt>
      <trkpt lat="47.86805" lon="6.7613">
        <ele>600.280212</ele>
        <time>2018-05-26T12:06:53Z</time>
      </trkpt>
      <trkpt lat="47.86803" lon="6.76133">
        <ele>600.425476</ele>
        <time>2018-05-26T12:06:54Z</time>
      </trkpt>
      <trkpt lat="47.86803" lon="6.76136">
        <ele>600.568604</ele>
        <time>2018-05-26T12:06:55Z</time>
      </trkpt>
      <trkpt lat="47.86802" lon="6.76139">
        <ele>600.788391</ele>
        <time>2018-05-26T12:06:56Z</time>
      </trkpt>
      <trkpt lat="47.868" lon="6.76142">
        <ele>600.941345</ele>
        <time>2018-05-26T12:06:57Z</time>
      </trkpt>
      <trkpt lat="47.86799" lon="6.76144">
        <ele>601.099976</ele>
        <time>2018-05-26T12:06:58Z</time>
      </trkpt>
      <trkpt lat="47.86798" lon="6.76147">
        <ele>601.260559</ele>
        <time>2018-05-26T12:06:59Z</time>
      </trkpt>
      <trkpt lat="47.86796" lon="6.7615">
        <ele>601.507019</ele>
        <time>2018-05-26T12:07:00Z</time>
      </trkpt>
      <trkpt lat="47.86795" lon="6.76152">
        <ele>601.673035</ele>
        <time>2018-05-26T12:07:01Z</time>
      </trkpt>
      <trkpt lat="47.86794" lon="6.76155">
        <ele>601.840637</ele>
        <time>2018-05-26T12:07:02Z</time>
      </trkpt>
      <trkpt lat="47.86792" lon="6.76158">
        <ele>602.094055</ele>
        <time>2018-05-26T12:07:03Z</time>
      </trkpt>
      <trkpt lat="47.86791" lon="6.76161">
        <ele>602.267578</ele>
        <time>2018-05-26T12:07:04Z</time>
      </trkpt>
      <trkpt lat="47.8679" lon="6.76164">
        <ele>602.444275</ele>
        <time>2018-05-26T12:07:05Z</time>
      </trkpt>
      <trkpt lat="47.86789" lon="6.76167">
        <ele>602.625732</ele>
        <time>2018-05-26T12:07:06Z</time>
      </trkpt>
      <trkpt lat="47.86787" lon="6.7617">
        <ele>602.897644</ele>
        <time>2018-05-26T12:07:07Z</time>
      </trkpt>
      <trkpt lat="47.86786" lon="6.76173">
        <ele>603.078674</ele>
        <time>2018-05-26T12:07:08Z</time>
      </trkpt>
      <trkpt lat="47.86785" lon="6.76176">
        <ele>603.256775</ele>
        <time>2018-05-26T12:07:09Z</time>
      </trkpt>
      <trkpt lat="47.86784" lon="6.76178">
        <ele>603.51239</ele>
        <time>2018-05-26T12:07:10Z</time>
      </trkpt>
      <trkpt lat="47.86783" lon="6.76182">
        <ele>603.668274</ele>
        <time>2018-05-26T12:07:11Z</time>
      </trkpt>
      <trkpt lat="47.86782" lon="6.76185">
        <ele>603.8172</ele>
        <time>2018-05-26T12:07:12Z</time>
      </trkpt>
      <trkpt lat="47.8678" lon="6.76188">
        <ele>603.963928</ele>
        <time>2018-05-26T12:07:13Z</time>
      </trkpt>
      <trkpt lat="47.86779" lon="6.76191">
        <ele>604.190369</ele>
        <time>2018-05-26T12:07:14Z</time>
      </trkpt>
      <trkpt lat="47.86778" lon="6.76194">
        <ele>604.339905</ele>
        <time>2018-05-26T12:07:15Z</time>
      </trkpt>
      <trkpt lat="47.86777" lon="6.76197">
        <ele>604.487488</ele>
        <time>2018-05-26T12:07:16Z</time>
      </trkpt>
      <trkpt lat="47.86776" lon="6.76201">
        <ele>604.710022</ele>
        <time>2018-05-26T12:07:17Z</time>
      </trkpt>
      <trkpt lat="47.86774" lon="6.76204">
        <ele>604.860474</ele>
        <time>2018-05-26T12:07:18Z</time>
      </trkpt>
      <trkpt lat="47.86774" lon="6.76207">
        <ele>605.009155</ele>
        <time>2018-05-26T12:07:19Z</time>
      </trkpt>
      <trkpt lat="47.86773" lon="6.7621">
        <ele>605.227966</ele>
        <time>2018-05-26T12:07:20Z</time>
      </trkpt>
      <trkpt lat="47.86772" lon="6.76213">
        <ele>605.367798</ele>
        <time>2018-05-26T12:07:21Z</time>
      </trkpt>
      <trkpt lat="47.8677" lon="6.76217">
        <ele>605.502869</ele>
        <time>2018-05-26T12:07:22Z</time>
      </trkpt>
      <trkpt lat="47.8677" lon="6.7622">
        <ele>605.634399</ele>
        <time>2018-05-26T12:07:23Z</time>
      </trkpt>
      <trkpt lat="47.86768" lon="6.76222">
        <ele>605.69989</ele>
        <time>2018-05-26T12:07:24Z</time>
      </trkpt>
      <trkpt lat="47.86767" lon="6.76226">
        <ele>605.765503</ele>
        <time>2018-05-26T12:07:25Z</time>
      </trkpt>
      <trkpt lat="47.86766" lon="6.76229">
        <ele>605.899719</ele>
        <time>2018-05-26T12:07:26Z</time>
      </trkpt>
      <trkpt lat="47.86765" lon="6.76232">
        <ele>606.042847</ele>
        <time>2018-05-26T12:07:27Z</time>
      </trkpt>
      <trkpt lat="47.86763" lon="6.76235">
        <ele>606.198547</ele>
        <time>2018-05-26T12:07:28Z</time>
      </trkpt>
      <trkpt lat="47.86762" lon="6.76238">
        <ele>606.459351</ele>
        <time>2018-05-26T12:07:29Z</time>
      </trkpt>
      <trkpt lat="47.86761" lon="6.7624">
        <ele>606.647156</ele>
        <time>2018-05-26T12:07:30Z</time>
      </trkpt>
      <trkpt lat="47.8676" lon="6.76243">
        <ele>606.844299</ele>
        <time>2018-05-26T12:07:31Z</time>
      </trkpt>
      <trkpt lat="47.86758" lon="6.76246">
        <ele>607.160156</ele>
        <time>2018-05-26T12:07:32Z</time>
      </trkpt>
      <trkpt lat="47.86757" lon="6.76248">
        <ele>607.381287</ele>
        <time>2018-05-26T12:07:33Z</time>
      </trkpt>
      <trkpt lat="47.86757" lon="6.7625">
        <ele>607.593933</ele>
        <time>2018-05-26T12:07:34Z</time>
      </trkpt>
      <trkpt lat="47.86755" lon="6.76253">
        <ele>607.789063</ele>
        <time>2018-05-26T12:07:35Z</time>
      </trkpt>
      <trkpt lat="47.86754" lon="6.76255">
        <ele>608.043213</ele>
        <time>2018-05-26T12:07:36Z</time>
      </trkpt>
      <trkpt lat="47.86753" lon="6.76258">
        <ele>608.200745</ele>
        <time>2018-05-26T12:07:37Z</time>
      </trkpt>
      <trkpt lat="47.86751" lon="6.7626">
        <ele>608.356323</ele>
        <time>2018-05-26T12:07:38Z</time>
      </trkpt>
      <trkpt lat="47.8675" lon="6.76263">
        <ele>608.580566</ele>
        <time>2018-05-26T12:07:39Z</time>
      </trkpt>
      <trkpt lat="47.86749" lon="6.76266">
        <ele>608.721619</ele>
        <time>2018-05-26T12:07:40Z</time>
      </trkpt>
      <trkpt lat="47.86748" lon="6.76268">
        <ele>608.863464</ele>
        <time>2018-05-26T12:07:41Z</time>
      </trkpt>
      <trkpt lat="47.86747" lon="6.7627">
        <ele>609.084167</ele>
        <time>2018-05-26T12:07:42Z</time>
      </trkpt>
      <trkpt lat="47.86746" lon="6.76273">
        <ele>609.234436</ele>
        <time>2018-05-26T12:07:43Z</time>
      </trkpt>
      <trkpt lat="47.86745" lon="6.76275">
        <ele>609.385437</ele>
        <time>2018-05-26T12:07:44Z</time>
      </trkpt>
      <trkpt lat="47.86744" lon="6.76278">
        <ele>609.612976</ele>
        <time>2018-05-26T12:07:45Z</time>
      </trkpt>
      <trkpt lat="47.86742" lon="6.7628">
        <ele>609.768372</ele>
        <time>2018-05-26T12:07:46Z</time>
      </trkpt>
      <trkpt lat="47.86741" lon="6.76282">
        <ele>609.922363</ele>
        <time>2018-05-26T12:07:47Z</time>
      </trkpt>
      <trkpt lat="47.86741" lon="6.76285">
        <ele>610.148438</ele>
        <time>2018-05-26T12:07:48Z</time>
      </trkpt>
      <trkpt lat="47.8674" lon="6.76287">
        <ele>610.294556</ele>
        <time>2018-05-26T12:07:49Z</time>
      </trkpt>
      <trkpt lat="47.86739" lon="6.7629">
        <ele>610.440735</ele>
        <time>2018-05-26T12:07:50Z</time>
      </trkpt>
      <trkpt lat="47.86737" lon="6.76292">
        <ele>610.584961</ele>
        <time>2018-05-26T12:07:51Z</time>
      </trkpt>
      <trkpt lat="47.86736" lon="6.76295">
        <ele>610.812744</ele>
        <time>2018-05-26T12:07:52Z</time>
      </trkpt>
      <trkpt lat="47.86735" lon="6.76297">
        <ele>610.977356</ele>
        <time>2018-05-26T12:07:53Z</time>
      </trkpt>
      <trkpt lat="47.86734" lon="6.763">
        <ele>611.157776</ele>
        <time>2018-05-26T12:07:54Z</time>
      </trkpt>
      <trkpt lat="47.86733" lon="6.76302">
        <ele>611.454773</ele>
        <time>2018-05-26T12:07:55Z</time>
      </trkpt>
      <trkpt lat="47.86731" lon="6.76305">
        <ele>611.66156</ele>
        <time>2018-05-26T12:07:56Z</time>
      </trkpt>
      <trkpt lat="47.86731" lon="6.76308">
        <ele>611.85968</ele>
        <time>2018-05-26T12:07:57Z</time>
      </trkpt>
      <trkpt lat="47.86729" lon="6.7631">
        <ele>612.041443</ele>
        <time>2018-05-26T12:07:58Z</time>
      </trkpt>
      <trkpt lat="47.86728" lon="6.76313">
        <ele>612.275696</ele>
        <time>2018-05-26T12:07:59Z</time>
      </trkpt>
      <trkpt lat="47.86727" lon="6.76316">
        <ele>612.412048</ele>
        <time>2018-05-26T12:08:00Z</time>
      </trkpt>
      <trkpt lat="47.86725" lon="6.76318">
        <ele>612.534241</ele>
        <time>2018-05-26T12:08:01Z</time>
      </trkpt>
      <trkpt lat="47.86724" lon="6.7632">
        <ele>612.704041</ele>
        <time>2018-05-26T12:08:02Z</time>
      </trkpt>
      <trkpt lat="47.86723" lon="6.76323">
        <ele>612.825989</ele>
        <time>2018-05-26T12:08:03Z</time>
      </trkpt>
      <trkpt lat="47.86721" lon="6.76325">
        <ele>612.964355</ele>
        <time>2018-05-26T12:08:04Z</time>
      </trkpt>
      <trkpt lat="47.8672" lon="6.76327">
        <ele>613.116272</ele>
        <time>2018-05-26T12:08:05Z</time>
      </trkpt>
      <trkpt lat="47.86719" lon="6.7633">
        <ele>613.276367</ele>
        <time>2018-05-26T12:08:06Z</time>
      </trkpt>
      <trkpt lat="47.86718" lon="6.76332">
        <ele>613.533508</ele>
        <time>2018-05-26T12:08:07Z</time>
      </trkpt>
      <trkpt lat="47.86717" lon="6.76334">
        <ele>613.715027</ele>
        <time>2018-05-26T12:08:08Z</time>
      </trkpt>
      <trkpt lat="47.86715" lon="6.76337">
        <ele>613.900635</ele>
        <time>2018-05-26T12:08:09Z</time>
      </trkpt>
      <trkpt lat="47.86714" lon="6.76339">
        <ele>614.173828</ele>
        <time>2018-05-26T12:08:10Z</time>
      </trkpt>
      <trkpt lat="47.86713" lon="6.76342">
        <ele>614.353149</ele>
        <time>2018-05-26T12:08:11Z</time>
      </trkpt>
      <trkpt lat="47.86712" lon="6.76344">
        <ele>614.532593</ele>
        <time>2018-05-26T12:08:12Z</time>
      </trkpt>
      <trkpt lat="47.86711" lon="6.76347">
        <ele>614.800293</ele>
        <time>2018-05-26T12:08:13Z</time>
      </trkpt>
      <trkpt lat="47.86709" lon="6.76349">
        <ele>614.973572</ele>
        <time>2018-05-26T12:08:14Z</time>
      </trkpt>
      <trkpt lat="47.86708" lon="6.76351">
        <ele>615.144226</ele>
        <time>2018-05-26T12:08:15Z</time>
      </trkpt>
      <trkpt lat="47.86707" lon="6.76353">
        <ele>615.313538</ele>
        <time>2018-05-26T12:08:16Z</time>
      </trkpt>
      <trkpt lat="47.86705" lon="6.76356">
        <ele>615.567444</ele>
        <time>2018-05-26T12:08:17Z</time>
      </trkpt>
      <trkpt lat="47.86704" lon="6.76358">
        <ele>615.736084</ele>
        <time>2018-05-26T12:08:18Z</time>
      </trkpt>
      <trkpt lat="47.86702" lon="6.7636">
        <ele>615.908264</ele>
        <time>2018-05-26T12:08:19Z</time>
      </trkpt>
      <trkpt lat="47.86701" lon="6.76362">
        <ele>616.172668</ele>
        <time>2018-05-26T12:08:20Z</time>
      </trkpt>
      <trkpt lat="47.86699" lon="6.76364">
        <ele>616.343933</ele>
        <time>2018-05-26T12:08:21Z</time>
      </trkpt>
      <trkpt lat="47.86697" lon="6.76366">
        <ele>616.505249</ele>
        <time>2018-05-26T12:08:22Z</time>
      </trkpt>
      <trkpt lat="47.86696" lon="6.76367">
        <ele>616.756775</ele>
        <time>2018-05-26T12:08:23Z</time>
      </trkpt>
      <trkpt lat="47.86694" lon="6.76368">
        <ele>616.848694</ele>
        <time>2018-05-26T12:08:24Z</time>
      </trkpt>
      <trkpt lat="47.86692" lon="6.76369">
        <ele>616.945679</ele>
        <time>2018-05-26T12:08:25Z</time>
      </trkpt>
      <trkpt lat="47.86689" lon="6.76369">
        <ele>617.253113</ele>
        <time>2018-05-26T12:08:26Z</time>
      </trkpt>
      <trkpt lat="47.86688" lon="6.7637">
        <ele>617.456055</ele>
        <time>2018-05-26T12:08:27Z</time>
      </trkpt>
      <trkpt lat="47.86685" lon="6.7637">
        <ele>617.75885</ele>
        <time>2018-05-26T12:08:28Z</time>
      </trkpt>
      <trkpt lat="47.86684" lon="6.7637">
        <ele>617.963562</ele>
        <time>2018-05-26T12:08:29Z</time>
      </trkpt>
      <trkpt lat="47.86681" lon="6.7637">
        <ele>618.173889</ele>
        <time>2018-05-26T12:08:30Z</time>
      </trkpt>
      <trkpt lat="47.86679" lon="6.76369">
        <ele>618.481689</ele>
        <time>2018-05-26T12:08:31Z</time>
      </trkpt>
      <trkpt lat="47.86677" lon="6.76369">
        <ele>618.677307</ele>
        <time>2018-05-26T12:08:32Z</time>
      </trkpt>
      <trkpt lat="47.86675" lon="6.76368">
        <ele>618.943665</ele>
        <time>2018-05-26T12:08:33Z</time>
      </trkpt>
      <trkpt lat="47.86673" lon="6.76367">
        <ele>619.108948</ele>
        <time>2018-05-26T12:08:34Z</time>
      </trkpt>
      <trkpt lat="47.86671" lon="6.76365">
        <ele>619.272217</ele>
        <time>2018-05-26T12:08:35Z</time>
      </trkpt>
      <trkpt lat="47.86669" lon="6.76364">
        <ele>619.525818</ele>
        <time>2018-05-26T12:08:36Z</time>
      </trkpt>
      <trkpt lat="47.86667" lon="6.76362">
        <ele>619.696838</ele>
        <time>2018-05-26T12:08:37Z</time>
      </trkpt>
      <trkpt lat="47.86665" lon="6.76361">
        <ele>619.869324</ele>
        <time>2018-05-26T12:08:38Z</time>
      </trkpt>
      <trkpt lat="47.86663" lon="6.7636">
        <ele>620.117859</ele>
        <time>2018-05-26T12:08:39Z</time>
      </trkpt>
      <trkpt lat="47.86661" lon="6.76359">
        <ele>620.276794</ele>
        <time>2018-05-26T12:08:40Z</time>
      </trkpt>
      <trkpt lat="47.86659" lon="6.76358">
        <ele>620.431458</ele>
        <time>2018-05-26T12:08:41Z</time>
      </trkpt>
      <trkpt lat="47.86657" lon="6.76356">
        <ele>620.655823</ele>
        <time>2018-05-26T12:08:42Z</time>
      </trkpt>
      <trkpt lat="47.86656" lon="6.76355">
        <ele>620.800598</ele>
        <time>2018-05-26T12:08:43Z</time>
      </trkpt>
      <trkpt lat="47.86654" lon="6.76353">
        <ele>620.9505</ele>
        <time>2018-05-26T12:08:44Z</time>
      </trkpt>
      <trkpt lat="47.86652" lon="6.76352">
        <ele>621.193542</ele>
        <time>2018-05-26T12:08:45Z</time>
      </trkpt>
      <trkpt lat="47.86651" lon="6.76351">
        <ele>621.361511</ele>
        <time>2018-05-26T12:08:46Z</time>
      </trkpt>
      <trkpt lat="47.86649" lon="6.7635">
        <ele>621.530762</ele>
        <time>2018-05-26T12:08:47Z</time>
      </trkpt>
      <trkpt lat="47.86647" lon="6.76348">
        <ele>621.790039</ele>
        <time>2018-05-26T12:08:48Z</time>
      </trkpt>
      <trkpt lat="47.86644" lon="6.76347">
        <ele>621.966614</ele>
        <time>2018-05-26T12:08:49Z</time>
      </trkpt>
      <trkpt lat="47.86643" lon="6.76346">
        <ele>622.134705</ele>
        <time>2018-05-26T12:08:50Z</time>
      </trkpt>
      <trkpt lat="47.86641" lon="6.76344">
        <ele>622.350281</ele>
        <time>2018-05-26T12:08:51Z</time>
      </trkpt>
      <trkpt lat="47.86639" lon="6.76342">
        <ele>622.468323</ele>
        <time>2018-05-26T12:08:52Z</time>
      </trkpt>
      <trkpt lat="47.86636" lon="6.76341">
        <ele>622.573425</ele>
        <time>2018-05-26T12:08:53Z</time>
      </trkpt>
      <trkpt lat="47.86634" lon="6.76339">
        <ele>622.711975</ele>
        <time>2018-05-26T12:08:54Z</time>
      </trkpt>
      <trkpt lat="47.86632" lon="6.76337">
        <ele>622.789368</ele>
        <time>2018-05-26T12:08:55Z</time>
      </trkpt>
      <trkpt lat="47.8663" lon="6.76336">
        <ele>622.853088</ele>
        <time>2018-05-26T12:08:56Z</time>
      </trkpt>
      <trkpt lat="47.86628" lon="6.76334">
        <ele>622.939392</ele>
        <time>2018-05-26T12:08:57Z</time>
      </trkpt>
      <trkpt lat="47.86626" lon="6.76333">
        <ele>622.996887</ele>
        <time>2018-05-26T12:08:58Z</time>
      </trkpt>
      <trkpt lat="47.86624" lon="6.76332">
        <ele>623.059631</ele>
        <time>2018-05-26T12:08:59Z</time>
      </trkpt>
      <trkpt lat="47.86622" lon="6.76331">
        <ele>623.165405</ele>
        <time>2018-05-26T12:09:00Z</time>
      </trkpt>
      <trkpt lat="47.8662" lon="6.7633">
        <ele>623.248901</ele>
        <time>2018-05-26T12:09:01Z</time>
      </trkpt>
      <trkpt lat="47.86618" lon="6.7633">
        <ele>623.387085</ele>
        <time>2018-05-26T12:09:02Z</time>
      </trkpt>
      <trkpt lat="47.86615" lon="6.7633">
        <ele>623.484009</ele>
        <time>2018-05-26T12:09:03Z</time>
      </trkpt>
      <trkpt lat="47.86613" lon="6.76329">
        <ele>623.575928</ele>
        <time>2018-05-26T12:09:04Z</time>
      </trkpt>
      <trkpt lat="47.8661" lon="6.76328">
        <ele>623.704041</ele>
        <time>2018-05-26T12:09:05Z</time>
      </trkpt>
      <trkpt lat="47.86609" lon="6.76328">
        <ele>623.783386</ele>
        <time>2018-05-26T12:09:06Z</time>
      </trkpt>
      <trkpt lat="47.86607" lon="6.76327">
        <ele>623.8974</ele>
        <time>2018-05-26T12:09:07Z</time>
      </trkpt>
      <trkpt lat="47.86604" lon="6.76327">
        <ele>623.968323</ele>
        <time>2018-05-26T12:09:08Z</time>
      </trkpt>
      <trkpt lat="47.86602" lon="6.76326">
        <ele>624.077576</ele>
        <time>2018-05-26T12:09:09Z</time>
      </trkpt>
      <trkpt lat="47.86601" lon="6.76325">
        <ele>624.156555</ele>
        <time>2018-05-26T12:09:10Z</time>
      </trkpt>
      <trkpt lat="47.86598" lon="6.76324">
        <ele>624.245422</ele>
        <time>2018-05-26T12:09:11Z</time>
      </trkpt>
      <trkpt lat="47.86596" lon="6.76324">
        <ele>624.39386</ele>
        <time>2018-05-26T12:09:12Z</time>
      </trkpt>
      <trkpt lat="47.86594" lon="6.76323">
        <ele>624.499939</ele>
        <time>2018-05-26T12:09:13Z</time>
      </trkpt>
      <trkpt lat="47.86592" lon="6.76322">
        <ele>624.610657</ele>
        <time>2018-05-26T12:09:14Z</time>
      </trkpt>
      <trkpt lat="47.8659" lon="6.76321">
        <ele>624.795837</ele>
        <time>2018-05-26T12:09:15Z</time>
      </trkpt>
      <trkpt lat="47.86588" lon="6.7632">
        <ele>624.934021</ele>
        <time>2018-05-26T12:09:16Z</time>
      </trkpt>
      <trkpt lat="47.86586" lon="6.76319">
        <ele>625.079773</ele>
        <time>2018-05-26T12:09:17Z</time>
      </trkpt>
      <trkpt lat="47.86584" lon="6.76317">
        <ele>625.305908</ele>
        <time>2018-05-26T12:09:18Z</time>
      </trkpt>
      <trkpt lat="47.86582" lon="6.76316">
        <ele>625.460144</ele>
        <time>2018-05-26T12:09:19Z</time>
      </trkpt>
      <trkpt lat="47.86581" lon="6.76314">
        <ele>625.624146</ele>
        <time>2018-05-26T12:09:20Z</time>
      </trkpt>
      <trkpt lat="47.86579" lon="6.76311">
        <ele>625.896667</ele>
        <time>2018-05-26T12:09:21Z</time>
      </trkpt>
      <trkpt lat="47.86578" lon="6.76309">
        <ele>626.096375</ele>
        <time>2018-05-26T12:09:22Z</time>
      </trkpt>
      <trkpt lat="47.86577" lon="6.76306">
        <ele>626.303772</ele>
        <time>2018-05-26T12:09:23Z</time>
      </trkpt>
      <trkpt lat="47.86575" lon="6.76303">
        <ele>626.515564</ele>
        <time>2018-05-26T12:09:24Z</time>
      </trkpt>
      <trkpt lat="47.86575" lon="6.763">
        <ele>626.6203</ele>
        <time>2018-05-26T12:09:25Z</time>
      </trkpt>
      <trkpt lat="47.86574" lon="6.76297">
        <ele>626.928162</ele>
        <time>2018-05-26T12:09:26Z</time>
      </trkpt>
      <trkpt lat="47.86573" lon="6.76294">
        <ele>627.124878</ele>
        <time>2018-05-26T12:09:27Z</time>
      </trkpt>
      <trkpt lat="47.86573" lon="6.76291">
        <ele>627.320435</ele>
        <time>2018-05-26T12:09:28Z</time>
      </trkpt>
      <trkpt lat="47.86573" lon="6.76288">
        <ele>627.517883</ele>
        <time>2018-05-26T12:09:29Z</time>
      </trkpt>
      <trkpt lat="47.86573" lon="6.76285">
        <ele>627.718506</ele>
        <time>2018-05-26T12:09:30Z</time>
      </trkpt>
      <trkpt lat="47.86573" lon="6.76282">
        <ele>627.924561</ele>
        <time>2018-05-26T12:09:31Z</time>
      </trkpt>
      <trkpt lat="47.86573" lon="6.76279">
        <ele>628.250183</ele>
        <time>2018-05-26T12:09:32Z</time>
      </trkpt>
      <trkpt lat="47.86573" lon="6.76276">
        <ele>628.468811</ele>
        <time>2018-05-26T12:09:33Z</time>
      </trkpt>
      <trkpt lat="47.86573" lon="6.76273">
        <ele>628.676941</ele>
        <time>2018-05-26T12:09:34Z</time>
      </trkpt>
      <trkpt lat="47.86573" lon="6.7627">
        <ele>628.871643</ele>
        <time>2018-05-26T12:09:35Z</time>
      </trkpt>
      <trkpt lat="47.86572" lon="6.76267">
        <ele>629.060791</ele>
        <time>2018-05-26T12:09:36Z</time>
      </trkpt>
      <trkpt lat="47.86572" lon="6.76264">
        <ele>629.342957</ele>
        <time>2018-05-26T12:09:37Z</time>
      </trkpt>
      <trkpt lat="47.86572" lon="6.76261">
        <ele>629.532471</ele>
        <time>2018-05-26T12:09:38Z</time>
      </trkpt>
      <trkpt lat="47.86572" lon="6.76258">
        <ele>629.718384</ele>
        <time>2018-05-26T12:09:39Z</time>
      </trkpt>
      <trkpt lat="47.86572" lon="6.76255">
        <ele>629.900146</ele>
        <time>2018-05-26T12:09:40Z</time>
      </trkpt>
      <trkpt lat="47.86572" lon="6.76252">
        <ele>630.163696</ele>
        <time>2018-05-26T12:09:41Z</time>
      </trkpt>
      <trkpt lat="47.86572" lon="6.7625">
        <ele>630.337708</ele>
        <time>2018-05-26T12:09:42Z</time>
      </trkpt>
      <trkpt lat="47.86571" lon="6.76247">
        <ele>630.511963</ele>
        <time>2018-05-26T12:09:43Z</time>
      </trkpt>
      <trkpt lat="47.86571" lon="6.76245">
        <ele>630.772278</ele>
        <time>2018-05-26T12:09:44Z</time>
      </trkpt>
      <trkpt lat="47.8657" lon="6.76243">
        <ele>630.950317</ele>
        <time>2018-05-26T12:09:45Z</time>
      </trkpt>
      <trkpt lat="47.8657" lon="6.7624">
        <ele>631.131836</ele>
        <time>2018-05-26T12:09:46Z</time>
      </trkpt>
      <trkpt lat="47.8657" lon="6.76238">
        <ele>631.315857</ele>
        <time>2018-05-26T12:09:47Z</time>
      </trkpt>
      <trkpt lat="47.86569" lon="6.76235">
        <ele>631.59375</ele>
        <time>2018-05-26T12:09:48Z</time>
      </trkpt>
      <trkpt lat="47.86569" lon="6.76233">
        <ele>631.773987</ele>
        <time>2018-05-26T12:09:49Z</time>
      </trkpt>
      <trkpt lat="47.86568" lon="6.76231">
        <ele>631.947937</ele>
        <time>2018-05-26T12:09:50Z</time>
      </trkpt>
      <trkpt lat="47.86567" lon="6.76229">
        <ele>632.201721</ele>
        <time>2018-05-26T12:09:51Z</time>
      </trkpt>
      <trkpt lat="47.86566" lon="6.76227">
        <ele>632.369934</ele>
        <time>2018-05-26T12:09:52Z</time>
      </trkpt>
      <trkpt lat="47.86565" lon="6.76225">
        <ele>632.542664</ele>
        <time>2018-05-26T12:09:53Z</time>
      </trkpt>
      <trkpt lat="47.86563" lon="6.76224">
        <ele>632.720947</ele>
        <time>2018-05-26T12:09:54Z</time>
      </trkpt>
      <trkpt lat="47.86562" lon="6.76223">
        <ele>632.994446</ele>
        <time>2018-05-26T12:09:55Z</time>
      </trkpt>
      <trkpt lat="47.8656" lon="6.76222">
        <ele>633.182251</ele>
        <time>2018-05-26T12:09:56Z</time>
      </trkpt>
      <trkpt lat="47.86559" lon="6.76222">
        <ele>633.378357</ele>
        <time>2018-05-26T12:09:57Z</time>
      </trkpt>
      <trkpt lat="47.86558" lon="6.76222">
        <ele>633.685425</ele>
        <time>2018-05-26T12:09:58Z</time>
      </trkpt>
      <trkpt lat="47.86557" lon="6.76223">
        <ele>633.895325</ele>
        <time>2018-05-26T12:09:59Z</time>
      </trkpt>
      <trkpt lat="47.86555" lon="6.76225">
        <ele>634.222656</ele>
        <time>2018-05-26T12:10:00Z</time>
      </trkpt>
      <trkpt lat="47.86554" lon="6.76227">
        <ele>634.454346</ele>
        <time>2018-05-26T12:10:01Z</time>
      </trkpt>
      <trkpt lat="47.86552" lon="6.76229">
        <ele>634.688293</ele>
        <time>2018-05-26T12:10:02Z</time>
      </trkpt>
      <trkpt lat="47.86552" lon="6.7623">
        <ele>634.919128</ele>
        <time>2018-05-26T12:10:03Z</time>
      </trkpt>
      <trkpt lat="47.86551" lon="6.76232">
        <ele>635.250244</ele>
        <time>2018-05-26T12:10:04Z</time>
      </trkpt>
      <trkpt lat="47.8655" lon="6.76234">
        <ele>635.462219</ele>
        <time>2018-05-26T12:10:05Z</time>
      </trkpt>
      <trkpt lat="47.86549" lon="6.76237">
        <ele>635.669006</ele>
        <time>2018-05-26T12:10:06Z</time>
      </trkpt>
      <trkpt lat="47.86549" lon="6.76239">
        <ele>635.975098</ele>
        <time>2018-05-26T12:10:07Z</time>
      </trkpt>
      <trkpt lat="47.86548" lon="6.76242">
        <ele>636.169312</ele>
        <time>2018-05-26T12:10:08Z</time>
      </trkpt>
      <trkpt lat="47.86548" lon="6.76244">
        <ele>636.354919</ele>
        <time>2018-05-26T12:10:09Z</time>
      </trkpt>
      <trkpt lat="47.86546" lon="6.76246">
        <ele>636.621643</ele>
        <time>2018-05-26T12:10:10Z</time>
      </trkpt>
      <trkpt lat="47.86546" lon="6.76248">
        <ele>636.794983</ele>
        <time>2018-05-26T12:10:11Z</time>
      </trkpt>
      <trkpt lat="47.86545" lon="6.7625">
        <ele>636.962219</ele>
        <time>2018-05-26T12:10:12Z</time>
      </trkpt>
      <trkpt lat="47.86543" lon="6.76252">
        <ele>637.195068</ele>
        <time>2018-05-26T12:10:13Z</time>
      </trkpt>
      <trkpt lat="47.86543" lon="6.76255">
        <ele>637.344299</ele>
        <time>2018-05-26T12:10:14Z</time>
      </trkpt>
      <trkpt lat="47.86542" lon="6.76257">
        <ele>637.498718</ele>
        <time>2018-05-26T12:10:15Z</time>
      </trkpt>
      <trkpt lat="47.86541" lon="6.76259">
        <ele>637.662109</ele>
        <time>2018-05-26T12:10:16Z</time>
      </trkpt>
      <trkpt lat="47.8654" lon="6.76262">
        <ele>637.926453</ele>
        <time>2018-05-26T12:10:17Z</time>
      </trkpt>
      <trkpt lat="47.86539" lon="6.76264">
        <ele>638.111145</ele>
        <time>2018-05-26T12:10:18Z</time>
      </trkpt>
      <trkpt lat="47.86538" lon="6.76266">
        <ele>638.300842</ele>
        <time>2018-05-26T12:10:19Z</time>
      </trkpt>
      <trkpt lat="47.86536" lon="6.76268">
        <ele>638.592102</ele>
        <time>2018-05-26T12:10:20Z</time>
      </trkpt>
      <trkpt lat="47.86535" lon="6.7627">
        <ele>638.793884</ele>
        <time>2018-05-26T12:10:21Z</time>
      </trkpt>
      <trkpt lat="47.86533" lon="6.76272">
        <ele>639.001038</ele>
        <time>2018-05-26T12:10:22Z</time>
      </trkpt>
      <trkpt lat="47.86532" lon="6.76274">
        <ele>639.323303</ele>
        <time>2018-05-26T12:10:23Z</time>
      </trkpt>
      <trkpt lat="47.8653" lon="6.76276">
        <ele>639.545532</ele>
        <time>2018-05-26T12:10:24Z</time>
      </trkpt>
      <trkpt lat="47.86528" lon="6.76278">
        <ele>639.658569</ele>
        <time>2018-05-26T12:10:25Z</time>
      </trkpt>
      <trkpt lat="47.86527" lon="6.7628">
        <ele>639.770203</ele>
        <time>2018-05-26T12:10:26Z</time>
      </trkpt>
      <trkpt lat="47.86525" lon="6.76281">
        <ele>639.986511</ele>
        <time>2018-05-26T12:10:27Z</time>
      </trkpt>
      <trkpt lat="47.86524" lon="6.76282">
        <ele>640.28894</ele>
        <time>2018-05-26T12:10:28Z</time>
      </trkpt>
      <trkpt lat="47.86522" lon="6.76284">
        <ele>640.484009</ele>
        <time>2018-05-26T12:10:29Z</time>
      </trkpt>
      <trkpt lat="47.86521" lon="6.76285">
        <ele>640.678528</ele>
        <time>2018-05-26T12:10:30Z</time>
      </trkpt>
      <trkpt lat="47.86519" lon="6.76287">
        <ele>640.973328</ele>
        <time>2018-05-26T12:10:31Z</time>
      </trkpt>
      <trkpt lat="47.86518" lon="6.76289">
        <ele>641.16803</ele>
        <time>2018-05-26T12:10:32Z</time>
      </trkpt>
      <trkpt lat="47.86516" lon="6.76291">
        <ele>641.358154</ele>
        <time>2018-05-26T12:10:33Z</time>
      </trkpt>
      <trkpt lat="47.86514" lon="6.76293">
        <ele>641.629089</ele>
        <time>2018-05-26T12:10:34Z</time>
      </trkpt>
      <trkpt lat="47.86513" lon="6.76295">
        <ele>641.798523</ele>
        <time>2018-05-26T12:10:35Z</time>
      </trkpt>
      <trkpt lat="47.86511" lon="6.76297">
        <ele>641.960876</ele>
        <time>2018-05-26T12:10:36Z</time>
      </trkpt>
      <trkpt lat="47.86509" lon="6.76298">
        <ele>642.117615</ele>
        <time>2018-05-26T12:10:37Z</time>
      </trkpt>
      <trkpt lat="47.86508" lon="6.763">
        <ele>642.341492</ele>
        <time>2018-05-26T12:10:38Z</time>
      </trkpt>
      <trkpt lat="47.86506" lon="6.76302">
        <ele>642.489502</ele>
        <time>2018-05-26T12:10:39Z</time>
      </trkpt>
      <trkpt lat="47.86504" lon="6.76304">
        <ele>642.643738</ele>
        <time>2018-05-26T12:10:40Z</time>
      </trkpt>
      <trkpt lat="47.86503" lon="6.76306">
        <ele>642.878967</ele>
        <time>2018-05-26T12:10:41Z</time>
      </trkpt>
      <trkpt lat="47.86501" lon="6.76307">
        <ele>643.029297</ele>
        <time>2018-05-26T12:10:42Z</time>
      </trkpt>
      <trkpt lat="47.86499" lon="6.76309">
        <ele>643.174438</ele>
        <time>2018-05-26T12:10:43Z</time>
      </trkpt>
      <trkpt lat="47.86497" lon="6.76311">
        <ele>643.385376</ele>
        <time>2018-05-26T12:10:44Z</time>
      </trkpt>
      <trkpt lat="47.86496" lon="6.76313">
        <ele>643.516052</ele>
        <time>2018-05-26T12:10:45Z</time>
      </trkpt>
      <trkpt lat="47.86494" lon="6.76314">
        <ele>643.632019</ele>
        <time>2018-05-26T12:10:46Z</time>
      </trkpt>
      <trkpt lat="47.86493" lon="6.76316">
        <ele>643.774475</ele>
        <time>2018-05-26T12:10:47Z</time>
      </trkpt>
      <trkpt lat="47.86491" lon="6.76318">
        <ele>643.859009</ele>
        <time>2018-05-26T12:10:48Z</time>
      </trkpt>
      <trkpt lat="47.8649" lon="6.7632">
        <ele>643.940308</ele>
        <time>2018-05-26T12:10:49Z</time>
      </trkpt>
      <trkpt lat="47.86487" lon="6.76322">
        <ele>644.017517</ele>
        <time>2018-05-26T12:10:50Z</time>
      </trkpt>
      <trkpt lat="47.86486" lon="6.76324">
        <ele>644.121521</ele>
        <time>2018-05-26T12:10:51Z</time>
      </trkpt>
      <trkpt lat="47.86483" lon="6.76326">
        <ele>644.180664</ele>
        <time>2018-05-26T12:10:52Z</time>
      </trkpt>
      <trkpt lat="47.86482" lon="6.76329">
        <ele>644.236023</ele>
        <time>2018-05-26T12:10:53Z</time>
      </trkpt>
      <trkpt lat="47.86479" lon="6.76331">
        <ele>644.318298</ele>
        <time>2018-05-26T12:10:54Z</time>
      </trkpt>
      <trkpt lat="47.86477" lon="6.76334">
        <ele>644.36969</ele>
        <time>2018-05-26T12:10:55Z</time>
      </trkpt>
      <trkpt lat="47.86475" lon="6.76337">
        <ele>644.414856</ele>
        <time>2018-05-26T12:10:56Z</time>
      </trkpt>
      <trkpt lat="47.86474" lon="6.76339">
        <ele>644.471924</ele>
        <time>2018-05-26T12:10:57Z</time>
      </trkpt>
      <trkpt lat="47.86471" lon="6.76343">
        <ele>644.5047</ele>
        <time>2018-05-26T12:10:58Z</time>
      </trkpt>
      <trkpt lat="47.8647" lon="6.76345">
        <ele>644.541199</ele>
        <time>2018-05-26T12:10:59Z</time>
      </trkpt>
      <trkpt lat="47.86468" lon="6.76348">
        <ele>644.612854</ele>
        <time>2018-05-26T12:11:00Z</time>
      </trkpt>
      <trkpt lat="47.86466" lon="6.76351">
        <ele>644.674011</ele>
        <time>2018-05-26T12:11:01Z</time>
      </trkpt>
      <trkpt lat="47.86464" lon="6.76354">
        <ele>644.741394</ele>
        <time>2018-05-26T12:11:02Z</time>
      </trkpt>
      <trkpt lat="47.86462" lon="6.76357">
        <ele>644.856873</ele>
        <time>2018-05-26T12:11:03Z</time>
      </trkpt>
      <trkpt lat="47.86461" lon="6.76361">
        <ele>644.945251</ele>
        <time>2018-05-26T12:11:04Z</time>
      </trkpt>
      <trkpt lat="47.86459" lon="6.76364">
        <ele>645.042175</ele>
        <time>2018-05-26T12:11:05Z</time>
      </trkpt>
      <trkpt lat="47.86457" lon="6.76368">
        <ele>645.191711</ele>
        <time>2018-05-26T12:11:06Z</time>
      </trkpt>
      <trkpt lat="47.86456" lon="6.76371">
        <ele>645.290222</ele>
        <time>2018-05-26T12:11:07Z</time>
      </trkpt>
      <trkpt lat="47.86454" lon="6.76374">
        <ele>645.392761</ele>
        <time>2018-05-26T12:11:08Z</time>
      </trkpt>
      <trkpt lat="47.86452" lon="6.76377">
        <ele>645.500488</ele>
        <time>2018-05-26T12:11:09Z</time>
      </trkpt>
      <trkpt lat="47.86451" lon="6.7638">
        <ele>645.664795</ele>
        <time>2018-05-26T12:11:10Z</time>
      </trkpt>
      <trkpt lat="47.86449" lon="6.76383">
        <ele>645.772888</ele>
        <time>2018-05-26T12:11:11Z</time>
      </trkpt>
      <trkpt lat="47.86447" lon="6.76387">
        <ele>645.879639</ele>
        <time>2018-05-26T12:11:12Z</time>
      </trkpt>
      <trkpt lat="47.86446" lon="6.7639">
        <ele>646.029602</ele>
        <time>2018-05-26T12:11:13Z</time>
      </trkpt>
      <trkpt lat="47.86444" lon="6.76393">
        <ele>646.118591</ele>
        <time>2018-05-26T12:11:14Z</time>
      </trkpt>
      <trkpt lat="47.86442" lon="6.76396">
        <ele>646.200623</ele>
        <time>2018-05-26T12:11:15Z</time>
      </trkpt>
      <trkpt lat="47.86441" lon="6.76399">
        <ele>646.284668</ele>
        <time>2018-05-26T12:11:16Z</time>
      </trkpt>
      <trkpt lat="47.8644" lon="6.76402">
        <ele>646.424622</ele>
        <time>2018-05-26T12:11:17Z</time>
      </trkpt>
      <trkpt lat="47.86438" lon="6.76405">
        <ele>646.526062</ele>
        <time>2018-05-26T12:11:18Z</time>
      </trkpt>
      <trkpt lat="47.86436" lon="6.76408">
        <ele>646.640503</ele>
        <time>2018-05-26T12:11:19Z</time>
      </trkpt>
      <trkpt lat="47.86434" lon="6.76411">
        <ele>646.848572</ele>
        <time>2018-05-26T12:11:20Z</time>
      </trkpt>
      <trkpt lat="47.86433" lon="6.76413">
        <ele>647.008057</ele>
        <time>2018-05-26T12:11:21Z</time>
      </trkpt>
      <trkpt lat="47.86431" lon="6.76416">
        <ele>647.1745</ele>
        <time>2018-05-26T12:11:22Z</time>
      </trkpt>
      <trkpt lat="47.8643" lon="6.76419">
        <ele>647.425537</ele>
        <time>2018-05-26T12:11:23Z</time>
      </trkpt>
      <trkpt lat="47.86429" lon="6.76421">
        <ele>647.593445</ele>
        <time>2018-05-26T12:11:24Z</time>
      </trkpt>
      <trkpt lat="47.86427" lon="6.76425">
        <ele>647.76062</ele>
        <time>2018-05-26T12:11:25Z</time>
      </trkpt>
      <trkpt lat="47.86426" lon="6.76427">
        <ele>647.844666</ele>
        <time>2018-05-26T12:11:26Z</time>
      </trkpt>
      <trkpt lat="47.86425" lon="6.7643">
        <ele>648.106873</ele>
        <time>2018-05-26T12:11:27Z</time>
      </trkpt>
      <trkpt lat="47.86424" lon="6.76432">
        <ele>648.303467</ele>
        <time>2018-05-26T12:11:28Z</time>
      </trkpt>
      <trkpt lat="47.86422" lon="6.76435">
        <ele>648.521545</ele>
        <time>2018-05-26T12:11:29Z</time>
      </trkpt>
      <trkpt lat="47.86421" lon="6.76437">
        <ele>648.869202</ele>
        <time>2018-05-26T12:11:30Z</time>
      </trkpt>
      <trkpt lat="47.8642" lon="6.7644">
        <ele>649.09845</ele>
        <time>2018-05-26T12:11:31Z</time>
      </trkpt>
      <trkpt lat="47.86419" lon="6.76443">
        <ele>649.31488</ele>
        <time>2018-05-26T12:11:32Z</time>
      </trkpt>
      <trkpt lat="47.86418" lon="6.76445">
        <ele>649.514709</ele>
        <time>2018-05-26T12:11:33Z</time>
      </trkpt>
      <trkpt lat="47.86416" lon="6.76447">
        <ele>649.776306</ele>
        <time>2018-05-26T12:11:34Z</time>
      </trkpt>
      <trkpt lat="47.86415" lon="6.7645">
        <ele>649.92572</ele>
        <time>2018-05-26T12:11:35Z</time>
      </trkpt>
      <trkpt lat="47.86414" lon="6.76452">
        <ele>650.058167</ele>
        <time>2018-05-26T12:11:36Z</time>
      </trkpt>
      <trkpt lat="47.86412" lon="6.76454">
        <ele>650.179688</ele>
        <time>2018-05-26T12:11:37Z</time>
      </trkpt>
      <trkpt lat="47.86411" lon="6.76457">
        <ele>650.358093</ele>
        <time>2018-05-26T12:11:38Z</time>
      </trkpt>
      <trkpt lat="47.86409" lon="6.76459">
        <ele>650.481384</ele>
        <time>2018-05-26T12:11:39Z</time>
      </trkpt>
      <trkpt lat="47.86408" lon="6.76461">
        <ele>650.609314</ele>
        <time>2018-05-26T12:11:40Z</time>
      </trkpt>
      <trkpt lat="47.86406" lon="6.76464">
        <ele>650.805847</ele>
        <time>2018-05-26T12:11:41Z</time>
      </trkpt>
      <trkpt lat="47.86405" lon="6.76467">
        <ele>650.938477</ele>
        <time>2018-05-26T12:11:42Z</time>
      </trkpt>
      <trkpt lat="47.86404" lon="6.76469">
        <ele>651.071594</ele>
        <time>2018-05-26T12:11:43Z</time>
      </trkpt>
      <trkpt lat="47.86402" lon="6.76472">
        <ele>651.204407</ele>
        <time>2018-05-26T12:11:44Z</time>
      </trkpt>
      <trkpt lat="47.86401" lon="6.76474">
        <ele>651.409668</ele>
        <time>2018-05-26T12:11:45Z</time>
      </trkpt>
      <trkpt lat="47.86401" lon="6.76477">
        <ele>651.554626</ele>
        <time>2018-05-26T12:11:46Z</time>
      </trkpt>
      <trkpt lat="47.864" lon="6.76479">
        <ele>651.71051</ele>
        <time>2018-05-26T12:11:47Z</time>
      </trkpt>
      <trkpt lat="47.86398" lon="6.76482">
        <ele>651.878357</ele>
        <time>2018-05-26T12:11:48Z</time>
      </trkpt>
      <trkpt lat="47.86398" lon="6.76485">
        <ele>652.152405</ele>
        <time>2018-05-26T12:11:49Z</time>
      </trkpt>
      <trkpt lat="47.86396" lon="6.76487">
        <ele>652.348633</ele>
        <time>2018-05-26T12:11:50Z</time>
      </trkpt>
      <trkpt lat="47.86395" lon="6.7649">
        <ele>652.55188</ele>
        <time>2018-05-26T12:11:51Z</time>
      </trkpt>
      <trkpt lat="47.86393" lon="6.76492">
        <ele>652.76593</ele>
        <time>2018-05-26T12:11:52Z</time>
      </trkpt>
      <trkpt lat="47.86392" lon="6.76495">
        <ele>652.993225</ele>
        <time>2018-05-26T12:11:53Z</time>
      </trkpt>
      <trkpt lat="47.86391" lon="6.76498">
        <ele>653.232971</ele>
        <time>2018-05-26T12:11:54Z</time>
      </trkpt>
      <trkpt lat="47.8639" lon="6.765">
        <ele>653.599426</ele>
        <time>2018-05-26T12:11:55Z</time>
      </trkpt>
      <trkpt lat="47.86389" lon="6.76503">
        <ele>653.837708</ele>
        <time>2018-05-26T12:11:56Z</time>
      </trkpt>
      <trkpt lat="47.86388" lon="6.76506">
        <ele>654.065491</ele>
        <time>2018-05-26T12:11:57Z</time>
      </trkpt>
      <trkpt lat="47.86387" lon="6.76509">
        <ele>654.376953</ele>
        <time>2018-05-26T12:11:58Z</time>
      </trkpt>
      <trkpt lat="47.86385" lon="6.76511">
        <ele>654.553467</ele>
        <time>2018-05-26T12:11:59Z</time>
      </trkpt>
      <trkpt lat="47.86384" lon="6.76513">
        <ele>654.702393</ele>
        <time>2018-05-26T12:12:00Z</time>
      </trkpt>
      <trkpt lat="47.86383" lon="6.76516">
        <ele>654.886658</ele>
        <time>2018-05-26T12:12:01Z</time>
      </trkpt>
      <trkpt lat="47.86383" lon="6.76519">
        <ele>654.991638</ele>
        <time>2018-05-26T12:12:02Z</time>
      </trkpt>
      <trkpt lat="47.86382" lon="6.76522">
        <ele>655.079529</ele>
        <time>2018-05-26T12:12:03Z</time>
      </trkpt>
      <trkpt lat="47.8638" lon="6.76525">
        <ele>655.154602</ele>
        <time>2018-05-26T12:12:04Z</time>
      </trkpt>
      <trkpt lat="47.86379" lon="6.76528">
        <ele>655.251953</ele>
        <time>2018-05-26T12:12:05Z</time>
      </trkpt>
      <trkpt lat="47.86377" lon="6.76531">
        <ele>655.311646</ele>
        <time>2018-05-26T12:12:06Z</time>
      </trkpt>
      <trkpt lat="47.86375" lon="6.76534">
        <ele>655.365173</ele>
        <time>2018-05-26T12:12:07Z</time>
      </trkpt>
      <trkpt lat="47.86374" lon="6.76538">
        <ele>655.435974</ele>
        <time>2018-05-26T12:12:08Z</time>
      </trkpt>
      <trkpt lat="47.86373" lon="6.76542">
        <ele>655.477234</ele>
        <time>2018-05-26T12:12:09Z</time>
      </trkpt>
      <trkpt lat="47.86372" lon="6.76545">
        <ele>655.518066</ele>
        <time>2018-05-26T12:12:10Z</time>
      </trkpt>
      <trkpt lat="47.86371" lon="6.76549">
        <ele>655.573608</ele>
        <time>2018-05-26T12:12:11Z</time>
      </trkpt>
      <trkpt lat="47.8637" lon="6.76553">
        <ele>655.607727</ele>
        <time>2018-05-26T12:12:12Z</time>
      </trkpt>
      <trkpt lat="47.86369" lon="6.76557">
        <ele>655.641113</ele>
        <time>2018-05-26T12:12:13Z</time>
      </trkpt>
      <trkpt lat="47.86368" lon="6.7656">
        <ele>655.69928</ele>
        <time>2018-05-26T12:12:14Z</time>
      </trkpt>
      <trkpt lat="47.86366" lon="6.76563">
        <ele>655.747009</ele>
        <time>2018-05-26T12:12:15Z</time>
      </trkpt>
      <trkpt lat="47.86365" lon="6.76566">
        <ele>655.804749</ele>
        <time>2018-05-26T12:12:16Z</time>
      </trkpt>
      <trkpt lat="47.86363" lon="6.7657">
        <ele>655.917114</ele>
        <time>2018-05-26T12:12:17Z</time>
      </trkpt>
      <trkpt lat="47.86362" lon="6.76573">
        <ele>656.005188</ele>
        <time>2018-05-26T12:12:18Z</time>
      </trkpt>
      <trkpt lat="47.8636" lon="6.76576">
        <ele>656.09668</ele>
        <time>2018-05-26T12:12:19Z</time>
      </trkpt>
      <trkpt lat="47.86358" lon="6.76579">
        <ele>656.232361</ele>
        <time>2018-05-26T12:12:20Z</time>
      </trkpt>
      <trkpt lat="47.86357" lon="6.76582">
        <ele>656.324219</ele>
        <time>2018-05-26T12:12:21Z</time>
      </trkpt>
      <trkpt lat="47.86355" lon="6.76585">
        <ele>656.419739</ele>
        <time>2018-05-26T12:12:22Z</time>
      </trkpt>
      <trkpt lat="47.86353" lon="6.76588">
        <ele>656.518677</ele>
        <time>2018-05-26T12:12:23Z</time>
      </trkpt>
      <trkpt lat="47.86351" lon="6.76591">
        <ele>656.669861</ele>
        <time>2018-05-26T12:12:24Z</time>
      </trkpt>
      <trkpt lat="47.8635" lon="6.76594">
        <ele>656.773865</ele>
        <time>2018-05-26T12:12:25Z</time>
      </trkpt>
      <trkpt lat="47.86348" lon="6.76597">
        <ele>656.829285</ele>
        <time>2018-05-26T12:12:26Z</time>
      </trkpt>
      <trkpt lat="47.86346" lon="6.76599">
        <ele>656.829285</ele>
        <time>2018-05-26T12:12:27Z</time>
      </trkpt>
      <trkpt lat="47.86345" lon="6.76602">
        <ele>656.950623</ele>
        <time>2018-05-26T12:12:28Z</time>
      </trkpt>
      <trkpt lat="47.86343" lon="6.76605">
        <ele>657.095032</ele>
        <time>2018-05-26T12:12:29Z</time>
      </trkpt>
      <trkpt lat="47.86342" lon="6.76607">
        <ele>657.35553</ele>
        <time>2018-05-26T12:12:30Z</time>
      </trkpt>
      <trkpt lat="47.8634" lon="6.7661">
        <ele>657.550232</ele>
        <time>2018-05-26T12:12:31Z</time>
      </trkpt>
      <trkpt lat="47.86338" lon="6.76613">
        <ele>657.745605</ele>
        <time>2018-05-26T12:12:32Z</time>
      </trkpt>
      <trkpt lat="47.86337" lon="6.76616">
        <ele>658.040833</ele>
        <time>2018-05-26T12:12:33Z</time>
      </trkpt>
      <trkpt lat="47.86335" lon="6.76619">
        <ele>658.245056</ele>
        <time>2018-05-26T12:12:34Z</time>
      </trkpt>
      <trkpt lat="47.86334" lon="6.76622">
        <ele>658.460999</ele>
        <time>2018-05-26T12:12:35Z</time>
      </trkpt>
      <trkpt lat="47.86333" lon="6.76625">
        <ele>658.792053</ele>
        <time>2018-05-26T12:12:36Z</time>
      </trkpt>
      <trkpt lat="47.86332" lon="6.76628">
        <ele>659.013367</ele>
        <time>2018-05-26T12:12:37Z</time>
      </trkpt>
      <trkpt lat="47.8633" lon="6.7663">
        <ele>659.236816</ele>
        <time>2018-05-26T12:12:38Z</time>
      </trkpt>
      <trkpt lat="47.86329" lon="6.76633">
        <ele>659.589539</ele>
        <time>2018-05-26T12:12:39Z</time>
      </trkpt>
      <trkpt lat="47.86327" lon="6.76636">
        <ele>659.831482</ele>
        <time>2018-05-26T12:12:40Z</time>
      </trkpt>
      <trkpt lat="47.86326" lon="6.76639">
        <ele>660.073547</ele>
        <time>2018-05-26T12:12:41Z</time>
      </trkpt>
      <trkpt lat="47.86324" lon="6.76642">
        <ele>660.310486</ele>
        <time>2018-05-26T12:12:42Z</time>
      </trkpt>
      <trkpt lat="47.86324" lon="6.76646">
        <ele>660.65094</ele>
        <time>2018-05-26T12:12:43Z</time>
      </trkpt>
      <trkpt lat="47.86322" lon="6.76649">
        <ele>660.869446</ele>
        <time>2018-05-26T12:12:44Z</time>
      </trkpt>
      <trkpt lat="47.86321" lon="6.76652">
        <ele>661.080627</ele>
        <time>2018-05-26T12:12:45Z</time>
      </trkpt>
      <trkpt lat="47.8632" lon="6.76654">
        <ele>661.384094</ele>
        <time>2018-05-26T12:12:46Z</time>
      </trkpt>
      <trkpt lat="47.86319" lon="6.76657">
        <ele>661.579712</ele>
        <time>2018-05-26T12:12:47Z</time>
      </trkpt>
      <trkpt lat="47.86317" lon="6.7666">
        <ele>661.767944</ele>
        <time>2018-05-26T12:12:48Z</time>
      </trkpt>
      <trkpt lat="47.86317" lon="6.76662">
        <ele>662.041565</ele>
        <time>2018-05-26T12:12:49Z</time>
      </trkpt>
      <trkpt lat="47.86316" lon="6.76664">
        <ele>662.22699</ele>
        <time>2018-05-26T12:12:50Z</time>
      </trkpt>
      <trkpt lat="47.86314" lon="6.76666">
        <ele>662.416687</ele>
        <time>2018-05-26T12:12:51Z</time>
      </trkpt>
      <trkpt lat="47.86314" lon="6.76667">
        <ele>662.702454</ele>
        <time>2018-05-26T12:12:52Z</time>
      </trkpt>
      <trkpt lat="47.86313" lon="6.7667">
        <ele>662.889587</ele>
        <time>2018-05-26T12:12:53Z</time>
      </trkpt>
      <trkpt lat="47.86312" lon="6.76672">
        <ele>663.071167</ele>
        <time>2018-05-26T12:12:54Z</time>
      </trkpt>
      <trkpt lat="47.86313" lon="6.76673">
        <ele>663.246338</ele>
        <time>2018-05-26T12:12:55Z</time>
      </trkpt>
      <trkpt lat="47.86314" lon="6.76673">
        <ele>663.605225</ele>
        <time>2018-05-26T12:12:56Z</time>
      </trkpt>
      <trkpt lat="47.86314" lon="6.76671">
        <ele>663.706848</ele>
        <time>2018-05-26T12:12:58Z</time>
      </trkpt>
      <trkpt lat="47.86314" lon="6.76668">
        <ele>663.825256</ele>
        <time>2018-05-26T12:12:59Z</time>
      </trkpt>
      <trkpt lat="47.86314" lon="6.76666">
        <ele>663.884949</ele>
        <time>2018-05-26T12:13:00Z</time>
      </trkpt>
      <trkpt lat="47.86313" lon="6.76663">
        <ele>663.929016</ele>
        <time>2018-05-26T12:13:01Z</time>
      </trkpt>
      <trkpt lat="47.86313" lon="6.76661">
        <ele>663.955994</ele>
        <time>2018-05-26T12:13:02Z</time>
      </trkpt>
      <trkpt lat="47.86312" lon="6.76658">
        <ele>663.973694</ele>
        <time>2018-05-26T12:13:03Z</time>
      </trkpt>
      <trkpt lat="47.86312" lon="6.76654">
        <ele>663.981812</ele>
        <time>2018-05-26T12:13:04Z</time>
      </trkpt>
      <trkpt lat="47.86311" lon="6.76652">
        <ele>663.993591</ele>
        <time>2018-05-26T12:13:05Z</time>
      </trkpt>
      <trkpt lat="47.8631" lon="6.7665">
        <ele>664.021973</ele>
        <time>2018-05-26T12:13:06Z</time>
      </trkpt>
      <trkpt lat="47.86309" lon="6.76648">
        <ele>664.097107</ele>
        <time>2018-05-26T12:13:07Z</time>
      </trkpt>
      <trkpt lat="47.86309" lon="6.76645">
        <ele>664.168945</ele>
        <time>2018-05-26T12:13:08Z</time>
      </trkpt>
      <trkpt lat="47.86308" lon="6.76643">
        <ele>664.256897</ele>
        <time>2018-05-26T12:13:09Z</time>
      </trkpt>
      <trkpt lat="47.86306" lon="6.76641">
        <ele>664.421936</ele>
        <time>2018-05-26T12:13:10Z</time>
      </trkpt>
      <trkpt lat="47.86305" lon="6.76639">
        <ele>664.555603</ele>
        <time>2018-05-26T12:13:11Z</time>
      </trkpt>
      <trkpt lat="47.86304" lon="6.76637">
        <ele>664.704407</ele>
        <time>2018-05-26T12:13:12Z</time>
      </trkpt>
      <trkpt lat="47.86303" lon="6.76635">
        <ele>664.927673</ele>
        <time>2018-05-26T12:13:13Z</time>
      </trkpt>
      <trkpt lat="47.86303" lon="6.76633">
        <ele>665.068298</ele>
        <time>2018-05-26T12:13:14Z</time>
      </trkpt>
      <trkpt lat="47.86303" lon="6.76631">
        <ele>665.206909</ele>
        <time>2018-05-26T12:13:15Z</time>
      </trkpt>
      <trkpt lat="47.86302" lon="6.76629">
        <ele>665.347839</ele>
        <time>2018-05-26T12:13:16Z</time>
      </trkpt>
      <trkpt lat="47.86302" lon="6.76626">
        <ele>665.578796</ele>
        <time>2018-05-26T12:13:17Z</time>
      </trkpt>
      <trkpt lat="47.86302" lon="6.76624">
        <ele>665.74939</ele>
        <time>2018-05-26T12:13:18Z</time>
      </trkpt>
      <trkpt lat="47.86301" lon="6.76622">
        <ele>665.932556</ele>
        <time>2018-05-26T12:13:19Z</time>
      </trkpt>
      <trkpt lat="47.86301" lon="6.7662">
        <ele>666.237366</ele>
        <time>2018-05-26T12:13:20Z</time>
      </trkpt>
      <trkpt lat="47.86301" lon="6.76619">
        <ele>666.460266</ele>
        <time>2018-05-26T12:13:21Z</time>
      </trkpt>
      <trkpt lat="47.86301" lon="6.76617">
        <ele>666.695374</ele>
        <time>2018-05-26T12:13:22Z</time>
      </trkpt>
      <trkpt lat="47.86301" lon="6.76615">
        <ele>667.052246</ele>
        <time>2018-05-26T12:13:23Z</time>
      </trkpt>
      <trkpt lat="47.86302" lon="6.76613">
        <ele>667.2901</ele>
        <time>2018-05-26T12:13:24Z</time>
      </trkpt>
      <trkpt lat="47.86302" lon="6.76611">
        <ele>667.528931</ele>
        <time>2018-05-26T12:13:25Z</time>
      </trkpt>
      <trkpt lat="47.86302" lon="6.76609">
        <ele>667.646912</ele>
        <time>2018-05-26T12:13:26Z</time>
      </trkpt>
      <trkpt lat="47.86302" lon="6.76607">
        <ele>667.76239</ele>
        <time>2018-05-26T12:13:27Z</time>
      </trkpt>
      <trkpt lat="47.86302" lon="6.76605">
        <ele>667.988098</ele>
        <time>2018-05-26T12:13:28Z</time>
      </trkpt>
      <trkpt lat="47.86302" lon="6.76604">
        <ele>668.205261</ele>
        <time>2018-05-26T12:13:29Z</time>
      </trkpt>
      <trkpt lat="47.86301" lon="6.76602">
        <ele>668.525085</ele>
        <time>2018-05-26T12:13:30Z</time>
      </trkpt>
      <trkpt lat="47.86301" lon="6.766">
        <ele>668.739197</ele>
        <time>2018-05-26T12:13:31Z</time>
      </trkpt>
      <trkpt lat="47.86301" lon="6.76599">
        <ele>668.961609</ele>
        <time>2018-05-26T12:13:32Z</time>
      </trkpt>
      <trkpt lat="47.86301" lon="6.76597">
        <ele>669.304138</ele>
        <time>2018-05-26T12:13:33Z</time>
      </trkpt>
      <trkpt lat="47.86301" lon="6.76595">
        <ele>669.537781</ele>
        <time>2018-05-26T12:13:34Z</time>
      </trkpt>
      <trkpt lat="47.86301" lon="6.76593">
        <ele>669.77533</ele>
        <time>2018-05-26T12:13:35Z</time>
      </trkpt>
      <trkpt lat="47.863" lon="6.76592">
        <ele>670.137573</ele>
        <time>2018-05-26T12:13:36Z</time>
      </trkpt>
      <trkpt lat="47.863" lon="6.7659">
        <ele>670.375122</ele>
        <time>2018-05-26T12:13:37Z</time>
      </trkpt>
      <trkpt lat="47.863" lon="6.76589">
        <ele>670.60437</ele>
        <time>2018-05-26T12:13:38Z</time>
      </trkpt>
      <trkpt lat="47.86299" lon="6.76587">
        <ele>670.824158</ele>
        <time>2018-05-26T12:13:39Z</time>
      </trkpt>
      <trkpt lat="47.86298" lon="6.76585">
        <ele>671.037659</ele>
        <time>2018-05-26T12:13:40Z</time>
      </trkpt>
      <trkpt lat="47.86298" lon="6.76583">
        <ele>671.248474</ele>
        <time>2018-05-26T12:13:41Z</time>
      </trkpt>
      <trkpt lat="47.86298" lon="6.76582">
        <ele>671.46167</ele>
        <time>2018-05-26T12:13:42Z</time>
      </trkpt>
      <trkpt lat="47.86298" lon="6.7658">
        <ele>671.682434</ele>
        <time>2018-05-26T12:13:43Z</time>
      </trkpt>
      <trkpt lat="47.86298" lon="6.76578">
        <ele>671.913208</ele>
        <time>2018-05-26T12:13:44Z</time>
      </trkpt>
      <trkpt lat="47.86298" lon="6.76576">
        <ele>672.154846</ele>
        <time>2018-05-26T12:13:45Z</time>
      </trkpt>
      <trkpt lat="47.86298" lon="6.76574">
        <ele>672.399353</ele>
        <time>2018-05-26T12:13:46Z</time>
      </trkpt>
      <trkpt lat="47.86298" lon="6.76572">
        <ele>672.768555</ele>
        <time>2018-05-26T12:13:47Z</time>
      </trkpt>
      <trkpt lat="47.86297" lon="6.7657">
        <ele>673.008606</ele>
        <time>2018-05-26T12:13:48Z</time>
      </trkpt>
      <trkpt lat="47.86297" lon="6.76569">
        <ele>673.240295</ele>
        <time>2018-05-26T12:13:49Z</time>
      </trkpt>
      <trkpt lat="47.86297" lon="6.76567">
        <ele>673.572571</ele>
        <time>2018-05-26T12:13:50Z</time>
      </trkpt>
      <trkpt lat="47.86297" lon="6.76565">
        <ele>673.798218</ele>
        <time>2018-05-26T12:13:51Z</time>
      </trkpt>
      <trkpt lat="47.86297" lon="6.76563">
        <ele>674.035706</ele>
        <time>2018-05-26T12:13:52Z</time>
      </trkpt>
      <trkpt lat="47.86297" lon="6.76561">
        <ele>674.411865</ele>
        <time>2018-05-26T12:13:53Z</time>
      </trkpt>
      <trkpt lat="47.86297" lon="6.76559">
        <ele>674.673035</ele>
        <time>2018-05-26T12:13:54Z</time>
      </trkpt>
      <trkpt lat="47.86297" lon="6.76558">
        <ele>674.94043</ele>
        <time>2018-05-26T12:13:55Z</time>
      </trkpt>
      <trkpt lat="47.86297" lon="6.76556">
        <ele>675.335205</ele>
        <time>2018-05-26T12:13:56Z</time>
      </trkpt>
      <trkpt lat="47.86296" lon="6.76554">
        <ele>675.582458</ele>
        <time>2018-05-26T12:13:57Z</time>
      </trkpt>
      <trkpt lat="47.86296" lon="6.76552">
        <ele>675.818054</ele>
        <time>2018-05-26T12:13:58Z</time>
      </trkpt>
      <trkpt lat="47.86296" lon="6.76551">
        <ele>676.046326</ele>
        <time>2018-05-26T12:13:59Z</time>
      </trkpt>
      <trkpt lat="47.86295" lon="6.76549">
        <ele>676.371155</ele>
        <time>2018-05-26T12:14:00Z</time>
      </trkpt>
      <trkpt lat="47.86295" lon="6.76547">
        <ele>676.576904</ele>
        <time>2018-05-26T12:14:01Z</time>
      </trkpt>
      <trkpt lat="47.86294" lon="6.76546">
        <ele>676.779968</ele>
        <time>2018-05-26T12:14:02Z</time>
      </trkpt>
      <trkpt lat="47.86294" lon="6.76544">
        <ele>676.984863</ele>
        <time>2018-05-26T12:14:03Z</time>
      </trkpt>
      <trkpt lat="47.86293" lon="6.76543">
        <ele>677.19281</ele>
        <time>2018-05-26T12:14:04Z</time>
      </trkpt>
      <trkpt lat="47.86293" lon="6.76541">
        <ele>677.513428</ele>
        <time>2018-05-26T12:14:05Z</time>
      </trkpt>
      <trkpt lat="47.86293" lon="6.76539">
        <ele>677.732605</ele>
        <time>2018-05-26T12:14:06Z</time>
      </trkpt>
      <trkpt lat="47.86292" lon="6.76538">
        <ele>677.956116</ele>
        <time>2018-05-26T12:14:07Z</time>
      </trkpt>
      <trkpt lat="47.86292" lon="6.76536">
        <ele>678.294006</ele>
        <time>2018-05-26T12:14:08Z</time>
      </trkpt>
      <trkpt lat="47.86292" lon="6.76535">
        <ele>678.522278</ele>
        <time>2018-05-26T12:14:09Z</time>
      </trkpt>
      <trkpt lat="47.86292" lon="6.76533">
        <ele>678.751648</ele>
        <time>2018-05-26T12:14:10Z</time>
      </trkpt>
      <trkpt lat="47.86292" lon="6.76531">
        <ele>679.099304</ele>
        <time>2018-05-26T12:14:11Z</time>
      </trkpt>
      <trkpt lat="47.86291" lon="6.76529">
        <ele>679.33429</ele>
        <time>2018-05-26T12:14:12Z</time>
      </trkpt>
      <trkpt lat="47.86291" lon="6.76527">
        <ele>679.574707</ele>
        <time>2018-05-26T12:14:13Z</time>
      </trkpt>
      <trkpt lat="47.86291" lon="6.76525">
        <ele>679.950745</ele>
        <time>2018-05-26T12:14:14Z</time>
      </trkpt>
      <trkpt lat="47.86291" lon="6.76524">
        <ele>680.206299</ele>
        <time>2018-05-26T12:14:15Z</time>
      </trkpt>
      <trkpt lat="47.86291" lon="6.76522">
        <ele>680.456726</ele>
        <time>2018-05-26T12:14:16Z</time>
      </trkpt>
      <trkpt lat="47.8629" lon="6.7652">
        <ele>680.811829</ele>
        <time>2018-05-26T12:14:17Z</time>
      </trkpt>
      <trkpt lat="47.8629" lon="6.76518">
        <ele>681.034546</ele>
        <time>2018-05-26T12:14:18Z</time>
      </trkpt>
      <trkpt lat="47.8629" lon="6.76516">
        <ele>681.247986</ele>
        <time>2018-05-26T12:14:19Z</time>
      </trkpt>
      <trkpt lat="47.8629" lon="6.76514">
        <ele>681.560242</ele>
        <time>2018-05-26T12:14:20Z</time>
      </trkpt>
      <trkpt lat="47.86289" lon="6.76513">
        <ele>681.762024</ele>
        <time>2018-05-26T12:14:21Z</time>
      </trkpt>
      <trkpt lat="47.86289" lon="6.76511">
        <ele>681.953674</ele>
        <time>2018-05-26T12:14:22Z</time>
      </trkpt>
      <trkpt lat="47.86289" lon="6.76509">
        <ele>682.220642</ele>
        <time>2018-05-26T12:14:23Z</time>
      </trkpt>
      <trkpt lat="47.86289" lon="6.76507">
        <ele>682.389038</ele>
        <time>2018-05-26T12:14:24Z</time>
      </trkpt>
      <trkpt lat="47.86289" lon="6.76505">
        <ele>682.550964</ele>
        <time>2018-05-26T12:14:25Z</time>
      </trkpt>
      <trkpt lat="47.86289" lon="6.76503">
        <ele>682.707031</ele>
        <time>2018-05-26T12:14:26Z</time>
      </trkpt>
      <trkpt lat="47.86289" lon="6.76501">
        <ele>682.782959</ele>
        <time>2018-05-26T12:14:27Z</time>
      </trkpt>
      <trkpt lat="47.86288" lon="6.765">
        <ele>682.936951</ele>
        <time>2018-05-26T12:14:28Z</time>
      </trkpt>
      <trkpt lat="47.86288" lon="6.76498">
        <ele>683.183533</ele>
        <time>2018-05-26T12:14:29Z</time>
      </trkpt>
      <trkpt lat="47.86288" lon="6.76496">
        <ele>683.360596</ele>
        <time>2018-05-26T12:14:30Z</time>
      </trkpt>
      <trkpt lat="47.86288" lon="6.76494">
        <ele>683.540039</ele>
        <time>2018-05-26T12:14:31Z</time>
      </trkpt>
      <trkpt lat="47.86288" lon="6.76492">
        <ele>683.792969</ele>
        <time>2018-05-26T12:14:32Z</time>
      </trkpt>
      <trkpt lat="47.86288" lon="6.7649">
        <ele>683.942688</ele>
        <time>2018-05-26T12:14:33Z</time>
      </trkpt>
      <trkpt lat="47.86287" lon="6.76488">
        <ele>684.076843</ele>
        <time>2018-05-26T12:14:34Z</time>
      </trkpt>
      <trkpt lat="47.86287" lon="6.76486">
        <ele>684.194031</ele>
        <time>2018-05-26T12:14:35Z</time>
      </trkpt>
      <trkpt lat="47.86287" lon="6.76485">
        <ele>684.349426</ele>
        <time>2018-05-26T12:14:36Z</time>
      </trkpt>
      <trkpt lat="47.86287" lon="6.76483">
        <ele>684.441895</ele>
        <time>2018-05-26T12:14:37Z</time>
      </trkpt>
      <trkpt lat="47.86288" lon="6.76481">
        <ele>684.528503</ele>
        <time>2018-05-26T12:14:38Z</time>
      </trkpt>
      <trkpt lat="47.86289" lon="6.76479">
        <ele>684.615051</ele>
        <time>2018-05-26T12:14:39Z</time>
      </trkpt>
      <trkpt lat="47.8629" lon="6.76477">
        <ele>684.763428</ele>
        <time>2018-05-26T12:14:40Z</time>
      </trkpt>
      <trkpt lat="47.8629" lon="6.76476">
        <ele>684.890076</ele>
        <time>2018-05-26T12:14:41Z</time>
      </trkpt>
      <trkpt lat="47.8629" lon="6.76474">
        <ele>685.044373</ele>
        <time>2018-05-26T12:14:42Z</time>
      </trkpt>
      <trkpt lat="47.8629" lon="6.76472">
        <ele>685.301086</ele>
        <time>2018-05-26T12:14:43Z</time>
      </trkpt>
      <trkpt lat="47.8629" lon="6.7647">
        <ele>685.472961</ele>
        <time>2018-05-26T12:14:44Z</time>
      </trkpt>
      <trkpt lat="47.86291" lon="6.76468">
        <ele>685.641907</ele>
        <time>2018-05-26T12:14:45Z</time>
      </trkpt>
      <trkpt lat="47.86291" lon="6.76466">
        <ele>685.809265</ele>
        <time>2018-05-26T12:14:46Z</time>
      </trkpt>
      <trkpt lat="47.86291" lon="6.76464">
        <ele>685.967712</ele>
        <time>2018-05-26T12:14:47Z</time>
      </trkpt>
      <trkpt lat="47.86291" lon="6.76462">
        <ele>686.109436</ele>
        <time>2018-05-26T12:14:48Z</time>
      </trkpt>
      <trkpt lat="47.86291" lon="6.7646">
        <ele>686.231689</ele>
        <time>2018-05-26T12:14:49Z</time>
      </trkpt>
      <trkpt lat="47.86291" lon="6.76458">
        <ele>686.338867</ele>
        <time>2018-05-26T12:14:50Z</time>
      </trkpt>
      <trkpt lat="47.86291" lon="6.76456">
        <ele>686.437744</ele>
        <time>2018-05-26T12:14:51Z</time>
      </trkpt>
      <trkpt lat="47.86291" lon="6.76454">
        <ele>686.535828</ele>
        <time>2018-05-26T12:14:52Z</time>
      </trkpt>
      <trkpt lat="47.86291" lon="6.76453">
        <ele>686.633789</ele>
        <time>2018-05-26T12:14:53Z</time>
      </trkpt>
      <trkpt lat="47.86291" lon="6.76451">
        <ele>686.783508</ele>
        <time>2018-05-26T12:14:54Z</time>
      </trkpt>
      <trkpt lat="47.86291" lon="6.76449">
        <ele>686.881592</ele>
        <time>2018-05-26T12:14:55Z</time>
      </trkpt>
      <trkpt lat="47.86291" lon="6.76447">
        <ele>686.977295</ele>
        <time>2018-05-26T12:14:56Z</time>
      </trkpt>
      <trkpt lat="47.86291" lon="6.76446">
        <ele>687.070129</ele>
        <time>2018-05-26T12:14:57Z</time>
      </trkpt>
      <trkpt lat="47.86291" lon="6.76444">
        <ele>687.170227</ele>
        <time>2018-05-26T12:14:58Z</time>
      </trkpt>
      <trkpt lat="47.86292" lon="6.76442">
        <ele>687.279846</ele>
        <time>2018-05-26T12:14:59Z</time>
      </trkpt>
      <trkpt lat="47.86292" lon="6.7644">
        <ele>687.402649</ele>
        <time>2018-05-26T12:15:00Z</time>
      </trkpt>
      <trkpt lat="47.86292" lon="6.76438">
        <ele>687.606995</ele>
        <time>2018-05-26T12:15:01Z</time>
      </trkpt>
      <trkpt lat="47.86292" lon="6.76436">
        <ele>687.758118</ele>
        <time>2018-05-26T12:15:02Z</time>
      </trkpt>
      <trkpt lat="47.86293" lon="6.76434">
        <ele>687.915955</ele>
        <time>2018-05-26T12:15:03Z</time>
      </trkpt>
      <trkpt lat="47.86294" lon="6.76433">
        <ele>688.148987</ele>
        <time>2018-05-26T12:15:04Z</time>
      </trkpt>
      <trkpt lat="47.86295" lon="6.76431">
        <ele>688.298401</ele>
        <time>2018-05-26T12:15:05Z</time>
      </trkpt>
      <trkpt lat="47.86295" lon="6.76429">
        <ele>688.446045</ele>
        <time>2018-05-26T12:15:06Z</time>
      </trkpt>
      <trkpt lat="47.86295" lon="6.76427">
        <ele>688.660645</ele>
        <time>2018-05-26T12:15:07Z</time>
      </trkpt>
      <trkpt lat="47.86295" lon="6.76424">
        <ele>688.789063</ele>
        <time>2018-05-26T12:15:08Z</time>
      </trkpt>
      <trkpt lat="47.86295" lon="6.76422">
        <ele>688.898743</ele>
        <time>2018-05-26T12:15:09Z</time>
      </trkpt>
      <trkpt lat="47.86294" lon="6.7642">
        <ele>688.99054</ele>
        <time>2018-05-26T12:15:10Z</time>
      </trkpt>
      <trkpt lat="47.86294" lon="6.76418">
        <ele>689.103821</ele>
        <time>2018-05-26T12:15:11Z</time>
      </trkpt>
      <trkpt lat="47.86294" lon="6.76416">
        <ele>689.164734</ele>
        <time>2018-05-26T12:15:12Z</time>
      </trkpt>
      <trkpt lat="47.86294" lon="6.76414">
        <ele>689.215637</ele>
        <time>2018-05-26T12:15:13Z</time>
      </trkpt>
      <trkpt lat="47.86294" lon="6.76411">
        <ele>689.283691</ele>
        <time>2018-05-26T12:15:14Z</time>
      </trkpt>
      <trkpt lat="47.86294" lon="6.76409">
        <ele>689.337585</ele>
        <time>2018-05-26T12:15:15Z</time>
      </trkpt>
      <trkpt lat="47.86294" lon="6.76407">
        <ele>689.406494</ele>
        <time>2018-05-26T12:15:16Z</time>
      </trkpt>
      <trkpt lat="47.86294" lon="6.76404">
        <ele>689.488281</ele>
        <time>2018-05-26T12:15:17Z</time>
      </trkpt>
      <trkpt lat="47.86295" lon="6.76402">
        <ele>689.62384</ele>
        <time>2018-05-26T12:15:18Z</time>
      </trkpt>
      <trkpt lat="47.86295" lon="6.764">
        <ele>689.720215</ele>
        <time>2018-05-26T12:15:19Z</time>
      </trkpt>
      <trkpt lat="47.86296" lon="6.76397">
        <ele>689.821777</ele>
        <time>2018-05-26T12:15:20Z</time>
      </trkpt>
      <trkpt lat="47.86296" lon="6.76395">
        <ele>689.935242</ele>
        <time>2018-05-26T12:15:21Z</time>
      </trkpt>
      <trkpt lat="47.86296" lon="6.76392">
        <ele>690.062988</ele>
        <time>2018-05-26T12:15:22Z</time>
      </trkpt>
      <trkpt lat="47.86296" lon="6.7639">
        <ele>690.202209</ele>
        <time>2018-05-26T12:15:23Z</time>
      </trkpt>
      <trkpt lat="47.86297" lon="6.76387">
        <ele>690.344299</ele>
        <time>2018-05-26T12:15:24Z</time>
      </trkpt>
      <trkpt lat="47.86297" lon="6.76385">
        <ele>690.490723</ele>
        <time>2018-05-26T12:15:25Z</time>
      </trkpt>
      <trkpt lat="47.86297" lon="6.76382">
        <ele>690.6474</ele>
        <time>2018-05-26T12:15:26Z</time>
      </trkpt>
      <trkpt lat="47.86297" lon="6.7638">
        <ele>690.732605</ele>
        <time>2018-05-26T12:15:27Z</time>
      </trkpt>
      <trkpt lat="47.86297" lon="6.76377">
        <ele>690.821777</ele>
        <time>2018-05-26T12:15:28Z</time>
      </trkpt>
      <trkpt lat="47.86297" lon="6.76375">
        <ele>690.915039</ele>
        <time>2018-05-26T12:15:29Z</time>
      </trkpt>
      <trkpt lat="47.86298" lon="6.76373">
        <ele>691.111145</ele>
        <time>2018-05-26T12:15:30Z</time>
      </trkpt>
      <trkpt lat="47.86298" lon="6.7637">
        <ele>691.405457</ele>
        <time>2018-05-26T12:15:31Z</time>
      </trkpt>
      <trkpt lat="47.86298" lon="6.76368">
        <ele>691.582214</ele>
        <time>2018-05-26T12:15:32Z</time>
      </trkpt>
      <trkpt lat="47.863" lon="6.76365">
        <ele>691.734863</ele>
        <time>2018-05-26T12:15:33Z</time>
      </trkpt>
      <trkpt lat="47.863" lon="6.76363">
        <ele>691.86084</ele>
        <time>2018-05-26T12:15:34Z</time>
      </trkpt>
      <trkpt lat="47.863" lon="6.7636">
        <ele>691.967957</ele>
        <time>2018-05-26T12:15:35Z</time>
      </trkpt>
      <trkpt lat="47.86299" lon="6.76358">
        <ele>692.094299</ele>
        <time>2018-05-26T12:15:36Z</time>
      </trkpt>
      <trkpt lat="47.86298" lon="6.76355">
        <ele>692.157288</ele>
        <time>2018-05-26T12:15:37Z</time>
      </trkpt>
      <trkpt lat="47.86298" lon="6.76353">
        <ele>692.202332</ele>
        <time>2018-05-26T12:15:38Z</time>
      </trkpt>
      <trkpt lat="47.86297" lon="6.7635">
        <ele>692.241272</ele>
        <time>2018-05-26T12:15:39Z</time>
      </trkpt>
      <trkpt lat="47.86297" lon="6.76347">
        <ele>692.297668</ele>
        <time>2018-05-26T12:15:40Z</time>
      </trkpt>
      <trkpt lat="47.86297" lon="6.76344">
        <ele>692.33667</ele>
        <time>2018-05-26T12:15:41Z</time>
      </trkpt>
      <trkpt lat="47.86296" lon="6.76342">
        <ele>692.375</ele>
        <time>2018-05-26T12:15:42Z</time>
      </trkpt>
      <trkpt lat="47.86296" lon="6.76339">
        <ele>692.414001</ele>
        <time>2018-05-26T12:15:43Z</time>
      </trkpt>
      <trkpt lat="47.86296" lon="6.76336">
        <ele>692.474792</ele>
        <time>2018-05-26T12:15:44Z</time>
      </trkpt>
      <trkpt lat="47.86296" lon="6.76333">
        <ele>692.520935</ele>
        <time>2018-05-26T12:15:45Z</time>
      </trkpt>
      <trkpt lat="47.86297" lon="6.7633">
        <ele>692.575012</ele>
        <time>2018-05-26T12:15:46Z</time>
      </trkpt>
      <trkpt lat="47.86298" lon="6.76326">
        <ele>692.63916</ele>
        <time>2018-05-26T12:15:47Z</time>
      </trkpt>
      <trkpt lat="47.86299" lon="6.76323">
        <ele>692.737976</ele>
        <time>2018-05-26T12:15:48Z</time>
      </trkpt>
      <trkpt lat="47.86301" lon="6.7632">
        <ele>692.795105</ele>
        <time>2018-05-26T12:15:49Z</time>
      </trkpt>
      <trkpt lat="47.86302" lon="6.76317">
        <ele>692.842224</ele>
        <time>2018-05-26T12:15:50Z</time>
      </trkpt>
      <trkpt lat="47.86304" lon="6.76314">
        <ele>692.899597</ele>
        <time>2018-05-26T12:15:51Z</time>
      </trkpt>
      <trkpt lat="47.86305" lon="6.76311">
        <ele>692.912109</ele>
        <time>2018-05-26T12:15:52Z</time>
      </trkpt>
      <trkpt lat="47.86307" lon="6.76309">
        <ele>692.912109</ele>
        <time>2018-05-26T12:15:53Z</time>
      </trkpt>
      <trkpt lat="47.86308" lon="6.76307">
        <ele>692.875977</ele>
        <time>2018-05-26T12:15:54Z</time>
      </trkpt>
      <trkpt lat="47.86314" lon="6.76295">
        <ele>692.803467</ele>
        <time>2018-05-26T12:16:02Z</time>
      </trkpt>
      <trkpt lat="47.86314" lon="6.76291">
        <ele>692.807861</ele>
        <time>2018-05-26T12:16:04Z</time>
      </trkpt>
      <trkpt lat="47.86314" lon="6.76287">
        <ele>692.80719</ele>
        <time>2018-05-26T12:16:05Z</time>
      </trkpt>
      <trkpt lat="47.86315" lon="6.76282">
        <ele>692.788635</ele>
        <time>2018-05-26T12:16:06Z</time>
      </trkpt>
      <trkpt lat="47.86314" lon="6.76278">
        <ele>692.717834</ele>
        <time>2018-05-26T12:16:07Z</time>
      </trkpt>
      <trkpt lat="47.86314" lon="6.76273">
        <ele>692.658752</ele>
        <time>2018-05-26T12:16:08Z</time>
      </trkpt>
      <trkpt lat="47.86314" lon="6.76268">
        <ele>692.602295</ele>
        <time>2018-05-26T12:16:09Z</time>
      </trkpt>
      <trkpt lat="47.86314" lon="6.76264">
        <ele>692.554138</ele>
        <time>2018-05-26T12:16:10Z</time>
      </trkpt>
      <trkpt lat="47.86314" lon="6.7626">
        <ele>692.514648</ele>
        <time>2018-05-26T12:16:11Z</time>
      </trkpt>
      <trkpt lat="47.86313" lon="6.76255">
        <ele>692.514648</ele>
        <time>2018-05-26T12:16:12Z</time>
      </trkpt>
      <trkpt lat="47.86313" lon="6.76251">
        <ele>692.522766</ele>
        <time>2018-05-26T12:16:13Z</time>
      </trkpt>
      <trkpt lat="47.86313" lon="6.76246">
        <ele>692.554382</ele>
        <time>2018-05-26T12:16:14Z</time>
      </trkpt>
      <trkpt lat="47.86313" lon="6.76242">
        <ele>692.621094</ele>
        <time>2018-05-26T12:16:15Z</time>
      </trkpt>
      <trkpt lat="47.86312" lon="6.76237">
        <ele>692.674561</ele>
        <time>2018-05-26T12:16:16Z</time>
      </trkpt>
      <trkpt lat="47.86311" lon="6.76233">
        <ele>692.729187</ele>
        <time>2018-05-26T12:16:17Z</time>
      </trkpt>
      <trkpt lat="47.86311" lon="6.76229">
        <ele>692.803528</ele>
        <time>2018-05-26T12:16:18Z</time>
      </trkpt>
      <trkpt lat="47.86311" lon="6.76225">
        <ele>692.8479</ele>
        <time>2018-05-26T12:16:19Z</time>
      </trkpt>
      <trkpt lat="47.86311" lon="6.7622">
        <ele>692.898193</ele>
        <time>2018-05-26T12:16:20Z</time>
      </trkpt>
      <trkpt lat="47.8631" lon="6.76216">
        <ele>692.959961</ele>
        <time>2018-05-26T12:16:21Z</time>
      </trkpt>
      <trkpt lat="47.8631" lon="6.76212">
        <ele>693.073547</ele>
        <time>2018-05-26T12:16:22Z</time>
      </trkpt>
      <trkpt lat="47.86309" lon="6.76208">
        <ele>693.161194</ele>
        <time>2018-05-26T12:16:23Z</time>
      </trkpt>
      <trkpt lat="47.86309" lon="6.76204">
        <ele>693.262268</ele>
        <time>2018-05-26T12:16:24Z</time>
      </trkpt>
      <trkpt lat="47.86308" lon="6.762">
        <ele>693.373047</ele>
        <time>2018-05-26T12:16:25Z</time>
      </trkpt>
      <trkpt lat="47.86308" lon="6.76195">
        <ele>693.539063</ele>
        <time>2018-05-26T12:16:26Z</time>
      </trkpt>
      <trkpt lat="47.86307" lon="6.76191">
        <ele>693.592773</ele>
        <time>2018-05-26T12:16:27Z</time>
      </trkpt>
      <trkpt lat="47.86307" lon="6.76187">
        <ele>693.701172</ele>
        <time>2018-05-26T12:16:28Z</time>
      </trkpt>
      <trkpt lat="47.86307" lon="6.76182">
        <ele>693.858887</ele>
        <time>2018-05-26T12:16:29Z</time>
      </trkpt>
      <trkpt lat="47.86307" lon="6.76177">
        <ele>693.949036</ele>
        <time>2018-05-26T12:16:30Z</time>
      </trkpt>
      <trkpt lat="47.86307" lon="6.76172">
        <ele>694.015564</ele>
        <time>2018-05-26T12:16:31Z</time>
      </trkpt>
      <trkpt lat="47.86307" lon="6.76167">
        <ele>694.05658</ele>
        <time>2018-05-26T12:16:32Z</time>
      </trkpt>
      <trkpt lat="47.86308" lon="6.76162">
        <ele>694.065857</ele>
        <time>2018-05-26T12:16:33Z</time>
      </trkpt>
      <trkpt lat="47.86308" lon="6.76157">
        <ele>694.056946</ele>
        <time>2018-05-26T12:16:34Z</time>
      </trkpt>
      <trkpt lat="47.86308" lon="6.76152">
        <ele>694.014648</ele>
        <time>2018-05-26T12:16:35Z</time>
      </trkpt>
      <trkpt lat="47.86309" lon="6.76147">
        <ele>693.943665</ele>
        <time>2018-05-26T12:16:36Z</time>
      </trkpt>
      <trkpt lat="47.86309" lon="6.76142">
        <ele>693.816589</ele>
        <time>2018-05-26T12:16:37Z</time>
      </trkpt>
      <trkpt lat="47.8631" lon="6.76137">
        <ele>693.731018</ele>
        <time>2018-05-26T12:16:38Z</time>
      </trkpt>
      <trkpt lat="47.8631" lon="6.76132">
        <ele>693.657043</ele>
        <time>2018-05-26T12:16:39Z</time>
      </trkpt>
      <trkpt lat="47.86311" lon="6.76128">
        <ele>693.594482</ele>
        <time>2018-05-26T12:16:40Z</time>
      </trkpt>
      <trkpt lat="47.86312" lon="6.76123">
        <ele>693.516418</ele>
        <time>2018-05-26T12:16:41Z</time>
      </trkpt>
      <trkpt lat="47.86312" lon="6.76119">
        <ele>693.463379</ele>
        <time>2018-05-26T12:16:42Z</time>
      </trkpt>
      <trkpt lat="47.86311" lon="6.76113">
        <ele>693.404785</ele>
        <time>2018-05-26T12:16:43Z</time>
      </trkpt>
      <trkpt lat="47.8631" lon="6.76108">
        <ele>693.337341</ele>
        <time>2018-05-26T12:16:44Z</time>
      </trkpt>
      <trkpt lat="47.86309" lon="6.76102">
        <ele>693.260803</ele>
        <time>2018-05-26T12:16:45Z</time>
      </trkpt>
      <trkpt lat="47.86308" lon="6.76096">
        <ele>693.114502</ele>
        <time>2018-05-26T12:16:46Z</time>
      </trkpt>
      <trkpt lat="47.86305" lon="6.76091">
        <ele>692.986755</ele>
        <time>2018-05-26T12:16:47Z</time>
      </trkpt>
      <trkpt lat="47.86303" lon="6.76088">
        <ele>692.838318</ele>
        <time>2018-05-26T12:16:48Z</time>
      </trkpt>
      <trkpt lat="47.86301" lon="6.76085">
        <ele>692.596741</ele>
        <time>2018-05-26T12:16:49Z</time>
      </trkpt>
      <trkpt lat="47.86298" lon="6.76083">
        <ele>692.436218</ele>
        <time>2018-05-26T12:16:50Z</time>
      </trkpt>
      <trkpt lat="47.86296" lon="6.7608">
        <ele>692.279846</ele>
        <time>2018-05-26T12:16:51Z</time>
      </trkpt>
      <trkpt lat="47.86294" lon="6.76078">
        <ele>692.079102</ele>
        <time>2018-05-26T12:16:52Z</time>
      </trkpt>
      <trkpt lat="47.86293" lon="6.76075">
        <ele>691.97467</ele>
        <time>2018-05-26T12:16:53Z</time>
      </trkpt>
      <trkpt lat="47.86291" lon="6.76071">
        <ele>691.893555</ele>
        <time>2018-05-26T12:16:54Z</time>
      </trkpt>
      <trkpt lat="47.8629" lon="6.76068">
        <ele>691.824951</ele>
        <time>2018-05-26T12:16:55Z</time>
      </trkpt>
      <trkpt lat="47.86288" lon="6.76065">
        <ele>691.743469</ele>
        <time>2018-05-26T12:16:56Z</time>
      </trkpt>
      <trkpt lat="47.86286" lon="6.76062">
        <ele>691.703064</ele>
        <time>2018-05-26T12:16:57Z</time>
      </trkpt>
      <trkpt lat="47.86284" lon="6.76058">
        <ele>691.67218</ele>
        <time>2018-05-26T12:16:58Z</time>
      </trkpt>
      <trkpt lat="47.86281" lon="6.76055">
        <ele>691.639465</ele>
        <time>2018-05-26T12:16:59Z</time>
      </trkpt>
      <trkpt lat="47.86279" lon="6.7605">
        <ele>691.558167</ele>
        <time>2018-05-26T12:17:00Z</time>
      </trkpt>
      <trkpt lat="47.86276" lon="6.76047">
        <ele>691.478027</ele>
        <time>2018-05-26T12:17:01Z</time>
      </trkpt>
      <trkpt lat="47.86274" lon="6.76044">
        <ele>691.388977</ele>
        <time>2018-05-26T12:17:02Z</time>
      </trkpt>
      <trkpt lat="47.86271" lon="6.76041">
        <ele>691.245117</ele>
        <time>2018-05-26T12:17:03Z</time>
      </trkpt>
      <trkpt lat="47.86268" lon="6.7604">
        <ele>691.149719</ele>
        <time>2018-05-26T12:17:04Z</time>
      </trkpt>
      <trkpt lat="47.86266" lon="6.76039">
        <ele>691.01123</ele>
        <time>2018-05-26T12:17:05Z</time>
      </trkpt>
      <trkpt lat="47.86264" lon="6.76037">
        <ele>690.941956</ele>
        <time>2018-05-26T12:17:06Z</time>
      </trkpt>
      <trkpt lat="47.86262" lon="6.76035">
        <ele>690.925476</ele>
        <time>2018-05-26T12:17:07Z</time>
      </trkpt>
      <trkpt lat="47.86261" lon="6.76033">
        <ele>690.941223</ele>
        <time>2018-05-26T12:17:08Z</time>
      </trkpt>
      <trkpt lat="47.86261" lon="6.76031">
        <ele>691.012939</ele>
        <time>2018-05-26T12:17:09Z</time>
      </trkpt>
      <trkpt lat="47.86261" lon="6.7603">
        <ele>691.121277</ele>
        <time>2018-05-26T12:17:10Z</time>
      </trkpt>
      <trkpt lat="47.86263" lon="6.76029">
        <ele>691.311035</ele>
        <time>2018-05-26T12:17:11Z</time>
      </trkpt>
      <trkpt lat="47.8626" lon="6.76028">
        <ele>691.457764</ele>
        <time>2018-05-26T12:17:12Z</time>
      </trkpt>
      <trkpt lat="47.86256" lon="6.76026">
        <ele>691.621826</ele>
        <time>2018-05-26T12:17:13Z</time>
      </trkpt>
      <trkpt lat="47.86255" lon="6.76025">
        <ele>691.803284</ele>
        <time>2018-05-26T12:17:14Z</time>
      </trkpt>
      <trkpt lat="47.86253" lon="6.76023">
        <ele>692.090759</ele>
        <time>2018-05-26T12:17:15Z</time>
      </trkpt>
      <trkpt lat="47.86251" lon="6.76021">
        <ele>692.280273</ele>
        <time>2018-05-26T12:17:16Z</time>
      </trkpt>
      <trkpt lat="47.86248" lon="6.76018">
        <ele>692.459229</ele>
        <time>2018-05-26T12:17:17Z</time>
      </trkpt>
      <trkpt lat="47.86247" lon="6.76015">
        <ele>692.697083</ele>
        <time>2018-05-26T12:17:18Z</time>
      </trkpt>
      <trkpt lat="47.86245" lon="6.76012">
        <ele>692.829285</ele>
        <time>2018-05-26T12:17:19Z</time>
      </trkpt>
      <trkpt lat="47.86245" lon="6.76009">
        <ele>692.933533</ele>
        <time>2018-05-26T12:17:20Z</time>
      </trkpt>
      <trkpt lat="47.86243" lon="6.76007">
        <ele>693.044189</ele>
        <time>2018-05-26T12:17:21Z</time>
      </trkpt>
      <trkpt lat="47.86242" lon="6.76005">
        <ele>693.102112</ele>
        <time>2018-05-26T12:17:22Z</time>
      </trkpt>
      <trkpt lat="47.86242" lon="6.76003">
        <ele>693.165955</ele>
        <time>2018-05-26T12:17:23Z</time>
      </trkpt>
      <trkpt lat="47.8624" lon="6.76001">
        <ele>693.239441</ele>
        <time>2018-05-26T12:17:24Z</time>
      </trkpt>
      <trkpt lat="47.86239" lon="6.75999">
        <ele>693.365967</ele>
        <time>2018-05-26T12:17:25Z</time>
      </trkpt>
      <trkpt lat="47.86238" lon="6.75997">
        <ele>693.4599</ele>
        <time>2018-05-26T12:17:26Z</time>
      </trkpt>
      <trkpt lat="47.86237" lon="6.75996">
        <ele>693.5625</ele>
        <time>2018-05-26T12:17:27Z</time>
      </trkpt>
      <trkpt lat="47.86236" lon="6.75993">
        <ele>693.615967</ele>
        <time>2018-05-26T12:17:28Z</time>
      </trkpt>
      <trkpt lat="47.86235" lon="6.75991">
        <ele>693.615967</ele>
        <time>2018-05-26T12:17:29Z</time>
      </trkpt>
      <trkpt lat="47.86234" lon="6.75989">
        <ele>693.722961</ele>
        <time>2018-05-26T12:17:30Z</time>
      </trkpt>
      <trkpt lat="47.86232" lon="6.75987">
        <ele>693.830505</ele>
        <time>2018-05-26T12:17:31Z</time>
      </trkpt>
      <trkpt lat="47.8623" lon="6.75985">
        <ele>693.999329</ele>
        <time>2018-05-26T12:17:32Z</time>
      </trkpt>
      <trkpt lat="47.86229" lon="6.75983">
        <ele>694.119446</ele>
        <time>2018-05-26T12:17:33Z</time>
      </trkpt>
      <trkpt lat="47.86229" lon="6.75982">
        <ele>694.241028</ele>
        <time>2018-05-26T12:17:34Z</time>
      </trkpt>
      <trkpt lat="47.86228" lon="6.75981">
        <ele>694.423828</ele>
        <time>2018-05-26T12:17:35Z</time>
      </trkpt>
      <trkpt lat="47.86227" lon="6.7598">
        <ele>694.683899</ele>
        <time>2018-05-26T12:17:36Z</time>
      </trkpt>
      <trkpt lat="47.86226" lon="6.75979">
        <ele>694.90802</ele>
        <time>2018-05-26T12:17:38Z</time>
      </trkpt>
      <trkpt lat="47.86225" lon="6.75976">
        <ele>695.055847</ele>
        <time>2018-05-26T12:17:39Z</time>
      </trkpt>
      <trkpt lat="47.86224" lon="6.75974">
        <ele>695.196472</ele>
        <time>2018-05-26T12:17:40Z</time>
      </trkpt>
      <trkpt lat="47.86224" lon="6.75972">
        <ele>695.338684</ele>
        <time>2018-05-26T12:17:41Z</time>
      </trkpt>
      <trkpt lat="47.86223" lon="6.7597">
        <ele>695.487305</ele>
        <time>2018-05-26T12:17:42Z</time>
      </trkpt>
      <trkpt lat="47.86222" lon="6.75968">
        <ele>695.715759</ele>
        <time>2018-05-26T12:17:43Z</time>
      </trkpt>
      <trkpt lat="47.86221" lon="6.75966">
        <ele>695.871765</ele>
        <time>2018-05-26T12:17:44Z</time>
      </trkpt>
      <trkpt lat="47.86221" lon="6.75965">
        <ele>696.033752</ele>
        <time>2018-05-26T12:17:45Z</time>
      </trkpt>
      <trkpt lat="47.86221" lon="6.75963">
        <ele>696.200989</ele>
        <time>2018-05-26T12:17:46Z</time>
      </trkpt>
      <trkpt lat="47.8622" lon="6.7596">
        <ele>696.460754</ele>
        <time>2018-05-26T12:17:47Z</time>
      </trkpt>
      <trkpt lat="47.8622" lon="6.75958">
        <ele>696.640198</ele>
        <time>2018-05-26T12:17:48Z</time>
      </trkpt>
      <trkpt lat="47.8622" lon="6.75956">
        <ele>696.820496</ele>
        <time>2018-05-26T12:17:49Z</time>
      </trkpt>
      <trkpt lat="47.8622" lon="6.75954">
        <ele>696.999084</ele>
        <time>2018-05-26T12:17:50Z</time>
      </trkpt>
      <trkpt lat="47.86219" lon="6.75951">
        <ele>697.243896</ele>
        <time>2018-05-26T12:17:51Z</time>
      </trkpt>
      <trkpt lat="47.86219" lon="6.75949">
        <ele>697.389221</ele>
        <time>2018-05-26T12:17:52Z</time>
      </trkpt>
      <trkpt lat="47.86219" lon="6.75946">
        <ele>697.531555</ele>
        <time>2018-05-26T12:17:53Z</time>
      </trkpt>
      <trkpt lat="47.86218" lon="6.75944">
        <ele>697.756836</ele>
        <time>2018-05-26T12:17:54Z</time>
      </trkpt>
      <trkpt lat="47.86218" lon="6.75941">
        <ele>697.914368</ele>
        <time>2018-05-26T12:17:55Z</time>
      </trkpt>
      <trkpt lat="47.86218" lon="6.75938">
        <ele>698.07251</ele>
        <time>2018-05-26T12:17:56Z</time>
      </trkpt>
      <trkpt lat="47.86219" lon="6.75936">
        <ele>698.224304</ele>
        <time>2018-05-26T12:17:57Z</time>
      </trkpt>
      <trkpt lat="47.86218" lon="6.75934">
        <ele>698.372131</ele>
        <time>2018-05-26T12:17:58Z</time>
      </trkpt>
      <trkpt lat="47.86218" lon="6.75933">
        <ele>698.519104</ele>
        <time>2018-05-26T12:17:59Z</time>
      </trkpt>
      <trkpt lat="47.86218" lon="6.75932">
        <ele>698.668152</ele>
        <time>2018-05-26T12:18:00Z</time>
      </trkpt>
      <trkpt lat="47.86218" lon="6.7593">
        <ele>698.819519</ele>
        <time>2018-05-26T12:18:01Z</time>
      </trkpt>
      <trkpt lat="47.86218" lon="6.75928">
        <ele>698.972717</ele>
        <time>2018-05-26T12:18:02Z</time>
      </trkpt>
      <trkpt lat="47.86217" lon="6.75926">
        <ele>699.127014</ele>
        <time>2018-05-26T12:18:03Z</time>
      </trkpt>
      <trkpt lat="47.86217" lon="6.75925">
        <ele>699.280212</ele>
        <time>2018-05-26T12:18:04Z</time>
      </trkpt>
      <trkpt lat="47.86216" lon="6.75923">
        <ele>699.79834</ele>
        <time>2018-05-26T12:18:06Z</time>
      </trkpt>
      <trkpt lat="47.86216" lon="6.75921">
        <ele>699.937805</ele>
        <time>2018-05-26T12:18:08Z</time>
      </trkpt>
      <trkpt lat="47.86216" lon="6.75919">
        <ele>700.070313</ele>
        <time>2018-05-26T12:18:09Z</time>
      </trkpt>
      <trkpt lat="47.86216" lon="6.75917">
        <ele>700.500732</ele>
        <time>2018-05-26T12:18:11Z</time>
      </trkpt>
      <trkpt lat="47.86216" lon="6.75915">
        <ele>700.710754</ele>
        <time>2018-05-26T12:18:13Z</time>
      </trkpt>
      <trkpt lat="47.86216" lon="6.75913">
        <ele>700.87384</ele>
        <time>2018-05-26T12:18:14Z</time>
      </trkpt>
      <trkpt lat="47.86216" lon="6.75911">
        <ele>701.058411</ele>
        <time>2018-05-26T12:18:15Z</time>
      </trkpt>
      <trkpt lat="47.86216" lon="6.75908">
        <ele>701.264221</ele>
        <time>2018-05-26T12:18:16Z</time>
      </trkpt>
      <trkpt lat="47.86215" lon="6.75906">
        <ele>701.59259</ele>
        <time>2018-05-26T12:18:17Z</time>
      </trkpt>
      <trkpt lat="47.86214" lon="6.75903">
        <ele>701.819519</ele>
        <time>2018-05-26T12:18:18Z</time>
      </trkpt>
      <trkpt lat="47.86213" lon="6.75901">
        <ele>702.052002</ele>
        <time>2018-05-26T12:18:19Z</time>
      </trkpt>
      <trkpt lat="47.86213" lon="6.75898">
        <ele>702.394531</ele>
        <time>2018-05-26T12:18:20Z</time>
      </trkpt>
      <trkpt lat="47.86213" lon="6.75896">
        <ele>702.608643</ele>
        <time>2018-05-26T12:18:21Z</time>
      </trkpt>
      <trkpt lat="47.86213" lon="6.75893">
        <ele>702.811584</ele>
        <time>2018-05-26T12:18:22Z</time>
      </trkpt>
      <trkpt lat="47.86213" lon="6.7589">
        <ele>703.005859</ele>
        <time>2018-05-26T12:18:23Z</time>
      </trkpt>
      <trkpt lat="47.86213" lon="6.75888">
        <ele>703.191345</ele>
        <time>2018-05-26T12:18:24Z</time>
      </trkpt>
      <trkpt lat="47.86212" lon="6.75886">
        <ele>703.367737</ele>
        <time>2018-05-26T12:18:25Z</time>
      </trkpt>
      <trkpt lat="47.86211" lon="6.75883">
        <ele>703.532288</ele>
        <time>2018-05-26T12:18:26Z</time>
      </trkpt>
      <trkpt lat="47.8621" lon="6.75881">
        <ele>703.750488</ele>
        <time>2018-05-26T12:18:27Z</time>
      </trkpt>
      <trkpt lat="47.8621" lon="6.75879">
        <ele>703.816101</ele>
        <time>2018-05-26T12:18:28Z</time>
      </trkpt>
      <trkpt lat="47.8621" lon="6.75876">
        <ele>703.943176</ele>
        <time>2018-05-26T12:18:29Z</time>
      </trkpt>
      <trkpt lat="47.8621" lon="6.75874">
        <ele>704.140381</ele>
        <time>2018-05-26T12:18:30Z</time>
      </trkpt>
      <trkpt lat="47.86209" lon="6.75872">
        <ele>704.279602</ele>
        <time>2018-05-26T12:18:31Z</time>
      </trkpt>
      <trkpt lat="47.86208" lon="6.75869">
        <ele>704.423584</ele>
        <time>2018-05-26T12:18:32Z</time>
      </trkpt>
      <trkpt lat="47.86208" lon="6.75867">
        <ele>704.571594</ele>
        <time>2018-05-26T12:18:33Z</time>
      </trkpt>
      <trkpt lat="47.86207" lon="6.75864">
        <ele>704.800232</ele>
        <time>2018-05-26T12:18:34Z</time>
      </trkpt>
      <trkpt lat="47.86206" lon="6.75862">
        <ele>704.949219</ele>
        <time>2018-05-26T12:18:35Z</time>
      </trkpt>
      <trkpt lat="47.86206" lon="6.7586">
        <ele>705.094299</ele>
        <time>2018-05-26T12:18:36Z</time>
      </trkpt>
      <trkpt lat="47.86207" lon="6.75857">
        <ele>705.239441</ele>
        <time>2018-05-26T12:18:37Z</time>
      </trkpt>
      <trkpt lat="47.86207" lon="6.75854">
        <ele>705.388733</ele>
        <time>2018-05-26T12:18:38Z</time>
      </trkpt>
      <trkpt lat="47.86207" lon="6.75852">
        <ele>705.536926</ele>
        <time>2018-05-26T12:18:39Z</time>
      </trkpt>
      <trkpt lat="47.86207" lon="6.7585">
        <ele>705.755432</ele>
        <time>2018-05-26T12:18:40Z</time>
      </trkpt>
      <trkpt lat="47.86208" lon="6.75848">
        <ele>705.906677</ele>
        <time>2018-05-26T12:18:41Z</time>
      </trkpt>
      <trkpt lat="47.86209" lon="6.75845">
        <ele>706.063782</ele>
        <time>2018-05-26T12:18:42Z</time>
      </trkpt>
      <trkpt lat="47.8621" lon="6.75843">
        <ele>706.214783</ele>
        <time>2018-05-26T12:18:43Z</time>
      </trkpt>
      <trkpt lat="47.8621" lon="6.75841">
        <ele>706.348328</ele>
        <time>2018-05-26T12:18:44Z</time>
      </trkpt>
      <trkpt lat="47.8621" lon="6.75838">
        <ele>706.521423</ele>
        <time>2018-05-26T12:18:45Z</time>
      </trkpt>
      <trkpt lat="47.8621" lon="6.75835">
        <ele>706.625244</ele>
        <time>2018-05-26T12:18:46Z</time>
      </trkpt>
      <trkpt lat="47.86209" lon="6.75832">
        <ele>706.720154</ele>
        <time>2018-05-26T12:18:47Z</time>
      </trkpt>
      <trkpt lat="47.86208" lon="6.7583">
        <ele>706.83136</ele>
        <time>2018-05-26T12:18:48Z</time>
      </trkpt>
      <trkpt lat="47.86209" lon="6.75827">
        <ele>706.880188</ele>
        <time>2018-05-26T12:18:49Z</time>
      </trkpt>
      <trkpt lat="47.86209" lon="6.75824">
        <ele>706.919434</ele>
        <time>2018-05-26T12:18:50Z</time>
      </trkpt>
      <trkpt lat="47.86209" lon="6.75821">
        <ele>706.960205</ele>
        <time>2018-05-26T12:18:51Z</time>
      </trkpt>
      <trkpt lat="47.8621" lon="6.75818">
        <ele>706.997253</ele>
        <time>2018-05-26T12:18:52Z</time>
      </trkpt>
      <trkpt lat="47.8621" lon="6.75815">
        <ele>707.023987</ele>
        <time>2018-05-26T12:18:53Z</time>
      </trkpt>
      <trkpt lat="47.8621" lon="6.75811">
        <ele>707.036682</ele>
        <time>2018-05-26T12:18:54Z</time>
      </trkpt>
      <trkpt lat="47.8621" lon="6.75808">
        <ele>707.042053</ele>
        <time>2018-05-26T12:18:55Z</time>
      </trkpt>
      <trkpt lat="47.86211" lon="6.75805">
        <ele>707.047546</ele>
        <time>2018-05-26T12:18:56Z</time>
      </trkpt>
      <trkpt lat="47.86211" lon="6.75802">
        <ele>707.063904</ele>
        <time>2018-05-26T12:18:57Z</time>
      </trkpt>
      <trkpt lat="47.86211" lon="6.75799">
        <ele>707.080322</ele>
        <time>2018-05-26T12:18:58Z</time>
      </trkpt>
      <trkpt lat="47.86211" lon="6.75796">
        <ele>707.094299</ele>
        <time>2018-05-26T12:18:59Z</time>
      </trkpt>
      <trkpt lat="47.86211" lon="6.75793">
        <ele>707.109558</ele>
        <time>2018-05-26T12:19:00Z</time>
      </trkpt>
      <trkpt lat="47.86211" lon="6.75791">
        <ele>707.123474</ele>
        <time>2018-05-26T12:19:01Z</time>
      </trkpt>
      <trkpt lat="47.86211" lon="6.75788">
        <ele>707.138855</ele>
        <time>2018-05-26T12:19:02Z</time>
      </trkpt>
      <trkpt lat="47.86212" lon="6.75786">
        <ele>707.169495</ele>
        <time>2018-05-26T12:19:03Z</time>
      </trkpt>
      <trkpt lat="47.86213" lon="6.75785">
        <ele>707.207336</ele>
        <time>2018-05-26T12:19:04Z</time>
      </trkpt>
      <trkpt lat="47.86213" lon="6.75783">
        <ele>707.261719</ele>
        <time>2018-05-26T12:19:05Z</time>
      </trkpt>
      <trkpt lat="47.86213" lon="6.75782">
        <ele>707.331726</ele>
        <time>2018-05-26T12:19:06Z</time>
      </trkpt>
      <trkpt lat="47.86214" lon="6.7578">
        <ele>707.466309</ele>
        <time>2018-05-26T12:19:07Z</time>
      </trkpt>
      <trkpt lat="47.86213" lon="6.75778">
        <ele>707.580261</ele>
        <time>2018-05-26T12:19:08Z</time>
      </trkpt>
      <trkpt lat="47.86213" lon="6.75776">
        <ele>707.716858</ele>
        <time>2018-05-26T12:19:09Z</time>
      </trkpt>
      <trkpt lat="47.86214" lon="6.75774">
        <ele>707.966858</ele>
        <time>2018-05-26T12:19:10Z</time>
      </trkpt>
      <trkpt lat="47.86214" lon="6.75772">
        <ele>708.16626</ele>
        <time>2018-05-26T12:19:11Z</time>
      </trkpt>
      <trkpt lat="47.86214" lon="6.7577">
        <ele>708.386414</ele>
        <time>2018-05-26T12:19:12Z</time>
      </trkpt>
      <trkpt lat="47.86214" lon="6.75768">
        <ele>708.626282</ele>
        <time>2018-05-26T12:19:13Z</time>
      </trkpt>
      <trkpt lat="47.86213" lon="6.75766">
        <ele>709.009827</ele>
        <time>2018-05-26T12:19:14Z</time>
      </trkpt>
      <trkpt lat="47.86213" lon="6.75764">
        <ele>709.266602</ele>
        <time>2018-05-26T12:19:15Z</time>
      </trkpt>
      <trkpt lat="47.86211" lon="6.75761">
        <ele>709.509766</ele>
        <time>2018-05-26T12:19:16Z</time>
      </trkpt>
      <trkpt lat="47.86211" lon="6.75759">
        <ele>709.835144</ele>
        <time>2018-05-26T12:19:17Z</time>
      </trkpt>
      <trkpt lat="47.8621" lon="6.75756">
        <ele>710.0271</ele>
        <time>2018-05-26T12:19:18Z</time>
      </trkpt>
      <trkpt lat="47.8621" lon="6.75754">
        <ele>710.204041</ele>
        <time>2018-05-26T12:19:19Z</time>
      </trkpt>
      <trkpt lat="47.86209" lon="6.75752">
        <ele>710.458008</ele>
        <time>2018-05-26T12:19:20Z</time>
      </trkpt>
      <trkpt lat="47.86208" lon="6.7575">
        <ele>710.631409</ele>
        <time>2018-05-26T12:19:21Z</time>
      </trkpt>
      <trkpt lat="47.86207" lon="6.75748">
        <ele>710.817688</ele>
        <time>2018-05-26T12:19:22Z</time>
      </trkpt>
      <trkpt lat="47.86206" lon="6.75746">
        <ele>711.124695</ele>
        <time>2018-05-26T12:19:23Z</time>
      </trkpt>
      <trkpt lat="47.86205" lon="6.75744">
        <ele>711.338318</ele>
        <time>2018-05-26T12:19:24Z</time>
      </trkpt>
      <trkpt lat="47.86204" lon="6.75742">
        <ele>711.543396</ele>
        <time>2018-05-26T12:19:25Z</time>
      </trkpt>
      <trkpt lat="47.86203" lon="6.7574">
        <ele>711.811523</ele>
        <time>2018-05-26T12:19:26Z</time>
      </trkpt>
      <trkpt lat="47.86203" lon="6.75738">
        <ele>711.973389</ele>
        <time>2018-05-26T12:19:27Z</time>
      </trkpt>
      <trkpt lat="47.86202" lon="6.75736">
        <ele>712.21405</ele>
        <time>2018-05-26T12:19:28Z</time>
      </trkpt>
      <trkpt lat="47.86201" lon="6.75734">
        <ele>712.29541</ele>
        <time>2018-05-26T12:19:29Z</time>
      </trkpt>
      <trkpt lat="47.862" lon="6.75732">
        <ele>712.375732</ele>
        <time>2018-05-26T12:19:30Z</time>
      </trkpt>
      <trkpt lat="47.86199" lon="6.75731">
        <ele>712.536194</ele>
        <time>2018-05-26T12:19:31Z</time>
      </trkpt>
      <trkpt lat="47.86198" lon="6.75729">
        <ele>712.696045</ele>
        <time>2018-05-26T12:19:32Z</time>
      </trkpt>
      <trkpt lat="47.86197" lon="6.75726">
        <ele>712.93634</ele>
        <time>2018-05-26T12:19:33Z</time>
      </trkpt>
      <trkpt lat="47.86196" lon="6.75724">
        <ele>713.089783</ele>
        <time>2018-05-26T12:19:34Z</time>
      </trkpt>
      <trkpt lat="47.86195" lon="6.75722">
        <ele>713.2276</ele>
        <time>2018-05-26T12:19:35Z</time>
      </trkpt>
      <trkpt lat="47.86194" lon="6.75719">
        <ele>713.341797</ele>
        <time>2018-05-26T12:19:36Z</time>
      </trkpt>
      <trkpt lat="47.86193" lon="6.75716">
        <ele>713.457825</ele>
        <time>2018-05-26T12:19:37Z</time>
      </trkpt>
      <trkpt lat="47.86192" lon="6.75714">
        <ele>713.504333</ele>
        <time>2018-05-26T12:19:38Z</time>
      </trkpt>
      <trkpt lat="47.86191" lon="6.7571">
        <ele>713.523254</ele>
        <time>2018-05-26T12:19:39Z</time>
      </trkpt>
      <trkpt lat="47.8619" lon="6.75707">
        <ele>713.520935</ele>
        <time>2018-05-26T12:19:40Z</time>
      </trkpt>
      <trkpt lat="47.86187" lon="6.75704">
        <ele>713.490417</ele>
        <time>2018-05-26T12:19:41Z</time>
      </trkpt>
      <trkpt lat="47.86186" lon="6.75701">
        <ele>713.424805</ele>
        <time>2018-05-26T12:19:42Z</time>
      </trkpt>
      <trkpt lat="47.86182" lon="6.75697">
        <ele>713.291443</ele>
        <time>2018-05-26T12:19:43Z</time>
      </trkpt>
      <trkpt lat="47.86178" lon="6.75694">
        <ele>713.192932</ele>
        <time>2018-05-26T12:19:44Z</time>
      </trkpt>
      <trkpt lat="47.86174" lon="6.7569">
        <ele>713.079529</ele>
        <time>2018-05-26T12:19:45Z</time>
      </trkpt>
      <trkpt lat="47.86171" lon="6.75686">
        <ele>712.849609</ele>
        <time>2018-05-26T12:19:46Z</time>
      </trkpt>
      <trkpt lat="47.86168" lon="6.7568">
        <ele>712.641052</ele>
        <time>2018-05-26T12:19:47Z</time>
      </trkpt>
      <trkpt lat="47.86167" lon="6.75673">
        <ele>712.396423</ele>
        <time>2018-05-26T12:19:48Z</time>
      </trkpt>
      <trkpt lat="47.86165" lon="6.75667">
        <ele>711.979797</ele>
        <time>2018-05-26T12:19:49Z</time>
      </trkpt>
      <trkpt lat="47.86164" lon="6.75661">
        <ele>711.674744</ele>
        <time>2018-05-26T12:19:50Z</time>
      </trkpt>
      <trkpt lat="47.86163" lon="6.75655">
        <ele>711.341614</ele>
        <time>2018-05-26T12:19:51Z</time>
      </trkpt>
      <trkpt lat="47.8616" lon="6.75647">
        <ele>710.795105</ele>
        <time>2018-05-26T12:19:52Z</time>
      </trkpt>
      <trkpt lat="47.86158" lon="6.75639">
        <ele>710.417297</ele>
        <time>2018-05-26T12:19:53Z</time>
      </trkpt>
      <trkpt lat="47.86156" lon="6.7563">
        <ele>710.028137</ele>
        <time>2018-05-26T12:19:54Z</time>
      </trkpt>
      <trkpt lat="47.86155" lon="6.7562">
        <ele>709.404114</ele>
        <time>2018-05-26T12:19:55Z</time>
      </trkpt>
      <trkpt lat="47.86154" lon="6.75609">
        <ele>708.939697</ele>
        <time>2018-05-26T12:19:56Z</time>
      </trkpt>
      <trkpt lat="47.86153" lon="6.75599">
        <ele>708.445251</ele>
        <time>2018-05-26T12:19:57Z</time>
      </trkpt>
      <trkpt lat="47.86153" lon="6.7559">
        <ele>707.928223</ele>
        <time>2018-05-26T12:19:58Z</time>
      </trkpt>
      <trkpt lat="47.86151" lon="6.75581">
        <ele>707.141296</ele>
        <time>2018-05-26T12:19:59Z</time>
      </trkpt>
      <trkpt lat="47.8615" lon="6.75573">
        <ele>706.642883</ele>
        <time>2018-05-26T12:20:00Z</time>
      </trkpt>
      <trkpt lat="47.86149" lon="6.75566">
        <ele>706.196777</ele>
        <time>2018-05-26T12:20:01Z</time>
      </trkpt>
      <trkpt lat="47.86147" lon="6.75559">
        <ele>705.635071</ele>
        <time>2018-05-26T12:20:02Z</time>
      </trkpt>
      <trkpt lat="47.86146" lon="6.75552">
        <ele>705.325378</ele>
        <time>2018-05-26T12:20:03Z</time>
      </trkpt>
      <trkpt lat="47.86144" lon="6.75545">
        <ele>705.055664</ele>
        <time>2018-05-26T12:20:04Z</time>
      </trkpt>
      <trkpt lat="47.86143" lon="6.75539">
        <ele>704.745911</ele>
        <time>2018-05-26T12:20:05Z</time>
      </trkpt>
      <trkpt lat="47.86141" lon="6.75533">
        <ele>704.610535</ele>
        <time>2018-05-26T12:20:06Z</time>
      </trkpt>
      <trkpt lat="47.86139" lon="6.75528">
        <ele>704.538269</ele>
        <time>2018-05-26T12:20:07Z</time>
      </trkpt>
      <trkpt lat="47.86137" lon="6.75523">
        <ele>704.489258</ele>
        <time>2018-05-26T12:20:08Z</time>
      </trkpt>
      <trkpt lat="47.86135" lon="6.7552">
        <ele>704.472656</ele>
        <time>2018-05-26T12:20:09Z</time>
      </trkpt>
      <trkpt lat="47.86134" lon="6.75516">
        <ele>704.468689</ele>
        <time>2018-05-26T12:20:10Z</time>
      </trkpt>
      <trkpt lat="47.86133" lon="6.75512">
        <ele>704.474915</ele>
        <time>2018-05-26T12:20:11Z</time>
      </trkpt>
      <trkpt lat="47.86132" lon="6.75508">
        <ele>704.49884</ele>
        <time>2018-05-26T12:20:12Z</time>
      </trkpt>
      <trkpt lat="47.86131" lon="6.75504">
        <ele>704.531982</ele>
        <time>2018-05-26T12:20:13Z</time>
      </trkpt>
      <trkpt lat="47.8613" lon="6.755">
        <ele>704.556152</ele>
        <time>2018-05-26T12:20:14Z</time>
      </trkpt>
      <trkpt lat="47.86128" lon="6.75496">
        <ele>704.577332</ele>
        <time>2018-05-26T12:20:15Z</time>
      </trkpt>
      <trkpt lat="47.86126" lon="6.75493">
        <ele>704.592773</ele>
        <time>2018-05-26T12:20:16Z</time>
      </trkpt>
      <trkpt lat="47.86124" lon="6.75489">
        <ele>704.611755</ele>
        <time>2018-05-26T12:20:17Z</time>
      </trkpt>
      <trkpt lat="47.86123" lon="6.75485">
        <ele>704.639343</ele>
        <time>2018-05-26T12:20:18Z</time>
      </trkpt>
      <trkpt lat="47.86121" lon="6.75482">
        <ele>704.664246</ele>
        <time>2018-05-26T12:20:19Z</time>
      </trkpt>
      <trkpt lat="47.8612" lon="6.75478">
        <ele>704.70343</ele>
        <time>2018-05-26T12:20:20Z</time>
      </trkpt>
      <trkpt lat="47.86118" lon="6.75475">
        <ele>704.751648</ele>
        <time>2018-05-26T12:20:21Z</time>
      </trkpt>
      <trkpt lat="47.86116" lon="6.75472">
        <ele>704.863953</ele>
        <time>2018-05-26T12:20:22Z</time>
      </trkpt>
      <trkpt lat="47.86114" lon="6.75469">
        <ele>704.982117</ele>
        <time>2018-05-26T12:20:23Z</time>
      </trkpt>
      <trkpt lat="47.86112" lon="6.75466">
        <ele>705.13446</ele>
        <time>2018-05-26T12:20:24Z</time>
      </trkpt>
      <trkpt lat="47.86111" lon="6.75464">
        <ele>705.309509</ele>
        <time>2018-05-26T12:20:25Z</time>
      </trkpt>
      <trkpt lat="47.86108" lon="6.75462">
        <ele>705.588135</ele>
        <time>2018-05-26T12:20:26Z</time>
      </trkpt>
      <trkpt lat="47.86107" lon="6.75459">
        <ele>705.76593</ele>
        <time>2018-05-26T12:20:27Z</time>
      </trkpt>
      <trkpt lat="47.86106" lon="6.75456">
        <ele>705.926697</ele>
        <time>2018-05-26T12:20:28Z</time>
      </trkpt>
      <trkpt lat="47.86105" lon="6.75454">
        <ele>706.117493</ele>
        <time>2018-05-26T12:20:29Z</time>
      </trkpt>
      <trkpt lat="47.86103" lon="6.75451">
        <ele>706.166565</ele>
        <time>2018-05-26T12:20:30Z</time>
      </trkpt>
      <trkpt lat="47.86102" lon="6.75448">
        <ele>706.209473</ele>
        <time>2018-05-26T12:20:31Z</time>
      </trkpt>
      <trkpt lat="47.861" lon="6.75445">
        <ele>706.276367</ele>
        <time>2018-05-26T12:20:32Z</time>
      </trkpt>
      <trkpt lat="47.86099" lon="6.75443">
        <ele>706.330139</ele>
        <time>2018-05-26T12:20:33Z</time>
      </trkpt>
      <trkpt lat="47.86098" lon="6.75439">
        <ele>706.339661</ele>
        <time>2018-05-26T12:20:34Z</time>
      </trkpt>
      <trkpt lat="47.86096" lon="6.75436">
        <ele>706.339661</ele>
        <time>2018-05-26T12:20:35Z</time>
      </trkpt>
      <trkpt lat="47.86095" lon="6.75432">
        <ele>706.332764</ele>
        <time>2018-05-26T12:20:36Z</time>
      </trkpt>
      <trkpt lat="47.86093" lon="6.75428">
        <ele>706.319824</ele>
        <time>2018-05-26T12:20:37Z</time>
      </trkpt>
      <trkpt lat="47.86091" lon="6.75425">
        <ele>706.293945</ele>
        <time>2018-05-26T12:20:38Z</time>
      </trkpt>
      <trkpt lat="47.86089" lon="6.75421">
        <ele>706.217041</ele>
        <time>2018-05-26T12:20:39Z</time>
      </trkpt>
      <trkpt lat="47.86087" lon="6.75417">
        <ele>706.144958</ele>
        <time>2018-05-26T12:20:40Z</time>
      </trkpt>
      <trkpt lat="47.86084" lon="6.75414">
        <ele>706.06012</ele>
        <time>2018-05-26T12:20:41Z</time>
      </trkpt>
      <trkpt lat="47.86083" lon="6.75411">
        <ele>705.925293</ele>
        <time>2018-05-26T12:20:42Z</time>
      </trkpt>
      <trkpt lat="47.86081" lon="6.75408">
        <ele>705.846924</ele>
        <time>2018-05-26T12:20:43Z</time>
      </trkpt>
      <trkpt lat="47.86079" lon="6.75405">
        <ele>705.796448</ele>
        <time>2018-05-26T12:20:44Z</time>
      </trkpt>
      <trkpt lat="47.86079" lon="6.75402">
        <ele>705.788147</ele>
        <time>2018-05-26T12:20:45Z</time>
      </trkpt>
      <trkpt lat="47.86079" lon="6.754">
        <ele>705.806396</ele>
        <time>2018-05-26T12:20:46Z</time>
      </trkpt>
      <trkpt lat="47.86078" lon="6.75398">
        <ele>705.866516</ele>
        <time>2018-05-26T12:20:47Z</time>
      </trkpt>
      <trkpt lat="47.86076" lon="6.75395">
        <ele>706.008484</ele>
        <time>2018-05-26T12:20:48Z</time>
      </trkpt>
      <trkpt lat="47.86075" lon="6.75392">
        <ele>706.134583</ele>
        <time>2018-05-26T12:20:49Z</time>
      </trkpt>
      <trkpt lat="47.86074" lon="6.7539">
        <ele>706.293457</ele>
        <time>2018-05-26T12:20:50Z</time>
      </trkpt>
      <trkpt lat="47.86073" lon="6.75387">
        <ele>706.610352</ele>
        <time>2018-05-26T12:20:51Z</time>
      </trkpt>
      <trkpt lat="47.86072" lon="6.75385">
        <ele>706.872742</ele>
        <time>2018-05-26T12:20:52Z</time>
      </trkpt>
      <trkpt lat="47.86071" lon="6.75383">
        <ele>707.16925</ele>
        <time>2018-05-26T12:20:53Z</time>
      </trkpt>
      <trkpt lat="47.8607" lon="6.75382">
        <ele>707.664368</ele>
        <time>2018-05-26T12:20:54Z</time>
      </trkpt>
      <trkpt lat="47.86069" lon="6.7538">
        <ele>708.013916</ele>
        <time>2018-05-26T12:20:55Z</time>
      </trkpt>
      <trkpt lat="47.86068" lon="6.75378">
        <ele>708.355042</ele>
        <time>2018-05-26T12:20:56Z</time>
      </trkpt>
      <trkpt lat="47.86068" lon="6.75376">
        <ele>708.823975</ele>
        <time>2018-05-26T12:20:57Z</time>
      </trkpt>
      <trkpt lat="47.86066" lon="6.75374">
        <ele>709.099792</ele>
        <time>2018-05-26T12:20:58Z</time>
      </trkpt>
      <trkpt lat="47.86066" lon="6.75372">
        <ele>709.349121</ele>
        <time>2018-05-26T12:20:59Z</time>
      </trkpt>
      <trkpt lat="47.86065" lon="6.7537">
        <ele>709.670715</ele>
        <time>2018-05-26T12:21:00Z</time>
      </trkpt>
      <trkpt lat="47.86064" lon="6.75368">
        <ele>709.85675</ele>
        <time>2018-05-26T12:21:01Z</time>
      </trkpt>
      <trkpt lat="47.86062" lon="6.75367">
        <ele>710.025391</ele>
        <time>2018-05-26T12:21:02Z</time>
      </trkpt>
      <trkpt lat="47.8606" lon="6.75364">
        <ele>710.247498</ele>
        <time>2018-05-26T12:21:03Z</time>
      </trkpt>
      <trkpt lat="47.86059" lon="6.75362">
        <ele>710.372498</ele>
        <time>2018-05-26T12:21:04Z</time>
      </trkpt>
      <trkpt lat="47.86058" lon="6.7536">
        <ele>710.480469</ele>
        <time>2018-05-26T12:21:05Z</time>
      </trkpt>
      <trkpt lat="47.86057" lon="6.75357">
        <ele>710.573303</ele>
        <time>2018-05-26T12:21:06Z</time>
      </trkpt>
      <trkpt lat="47.86057" lon="6.75354">
        <ele>710.689453</ele>
        <time>2018-05-26T12:21:07Z</time>
      </trkpt>
      <trkpt lat="47.86056" lon="6.75352">
        <ele>710.75</ele>
        <time>2018-05-26T12:21:08Z</time>
      </trkpt>
      <trkpt lat="47.86054" lon="6.7535">
        <ele>710.802429</ele>
        <time>2018-05-26T12:21:09Z</time>
      </trkpt>
      <trkpt lat="47.86053" lon="6.75348">
        <ele>710.87793</ele>
        <time>2018-05-26T12:21:10Z</time>
      </trkpt>
      <trkpt lat="47.86052" lon="6.75346">
        <ele>710.935059</ele>
        <time>2018-05-26T12:21:11Z</time>
      </trkpt>
      <trkpt lat="47.86052" lon="6.75343">
        <ele>710.997864</ele>
        <time>2018-05-26T12:21:12Z</time>
      </trkpt>
      <trkpt lat="47.86051" lon="6.75341">
        <ele>711.114319</ele>
        <time>2018-05-26T12:21:13Z</time>
      </trkpt>
      <trkpt lat="47.8605" lon="6.75338">
        <ele>711.214355</ele>
        <time>2018-05-26T12:21:14Z</time>
      </trkpt>
      <trkpt lat="47.8605" lon="6.75336">
        <ele>711.327942</ele>
        <time>2018-05-26T12:21:15Z</time>
      </trkpt>
      <trkpt lat="47.86049" lon="6.75334">
        <ele>711.448792</ele>
        <time>2018-05-26T12:21:16Z</time>
      </trkpt>
      <trkpt lat="47.86048" lon="6.75332">
        <ele>711.636719</ele>
        <time>2018-05-26T12:21:17Z</time>
      </trkpt>
      <trkpt lat="47.86047" lon="6.75331">
        <ele>711.760315</ele>
        <time>2018-05-26T12:21:18Z</time>
      </trkpt>
      <trkpt lat="47.86046" lon="6.7533">
        <ele>711.878723</ele>
        <time>2018-05-26T12:21:19Z</time>
      </trkpt>
      <trkpt lat="47.86046" lon="6.75328">
        <ele>712.058899</ele>
        <time>2018-05-26T12:21:20Z</time>
      </trkpt>
      <trkpt lat="47.86045" lon="6.75327">
        <ele>712.183105</ele>
        <time>2018-05-26T12:21:21Z</time>
      </trkpt>
      <trkpt lat="47.86043" lon="6.75326">
        <ele>712.305237</ele>
        <time>2018-05-26T12:21:22Z</time>
      </trkpt>
      <trkpt lat="47.86042" lon="6.75324">
        <ele>712.484436</ele>
        <time>2018-05-26T12:21:23Z</time>
      </trkpt>
      <trkpt lat="47.86042" lon="6.75323">
        <ele>712.604919</ele>
        <time>2018-05-26T12:21:24Z</time>
      </trkpt>
      <trkpt lat="47.86041" lon="6.75321">
        <ele>712.727295</ele>
        <time>2018-05-26T12:21:25Z</time>
      </trkpt>
      <trkpt lat="47.86039" lon="6.75319">
        <ele>712.914551</ele>
        <time>2018-05-26T12:21:26Z</time>
      </trkpt>
      <trkpt lat="47.86037" lon="6.75316">
        <ele>713.035156</ele>
        <time>2018-05-26T12:21:27Z</time>
      </trkpt>
      <trkpt lat="47.86036" lon="6.75313">
        <ele>713.158386</ele>
        <time>2018-05-26T12:21:28Z</time>
      </trkpt>
      <trkpt lat="47.86034" lon="6.75311">
        <ele>713.369202</ele>
        <time>2018-05-26T12:21:29Z</time>
      </trkpt>
      <trkpt lat="47.86033" lon="6.75309">
        <ele>713.535339</ele>
        <time>2018-05-26T12:21:30Z</time>
      </trkpt>
      <trkpt lat="47.86031" lon="6.75308">
        <ele>713.62616</ele>
        <time>2018-05-26T12:21:31Z</time>
      </trkpt>
      <trkpt lat="47.8603" lon="6.75306">
        <ele>713.927917</ele>
        <time>2018-05-26T12:21:32Z</time>
      </trkpt>
      <trkpt lat="47.86029" lon="6.75304">
        <ele>714.152344</ele>
        <time>2018-05-26T12:21:33Z</time>
      </trkpt>
      <trkpt lat="47.86028" lon="6.75302">
        <ele>714.389343</ele>
        <time>2018-05-26T12:21:34Z</time>
      </trkpt>
      <trkpt lat="47.86026" lon="6.753">
        <ele>714.631042</ele>
        <time>2018-05-26T12:21:35Z</time>
      </trkpt>
      <trkpt lat="47.86024" lon="6.75298">
        <ele>715.007019</ele>
        <time>2018-05-26T12:21:36Z</time>
      </trkpt>
      <trkpt lat="47.86023" lon="6.75295">
        <ele>715.263489</ele>
        <time>2018-05-26T12:21:37Z</time>
      </trkpt>
      <trkpt lat="47.86022" lon="6.75293">
        <ele>715.526123</ele>
        <time>2018-05-26T12:21:38Z</time>
      </trkpt>
      <trkpt lat="47.86022" lon="6.7529">
        <ele>715.927246</ele>
        <time>2018-05-26T12:21:39Z</time>
      </trkpt>
      <trkpt lat="47.86021" lon="6.75288">
        <ele>716.211487</ele>
        <time>2018-05-26T12:21:40Z</time>
      </trkpt>
      <trkpt lat="47.86021" lon="6.75287">
        <ele>716.519287</ele>
        <time>2018-05-26T12:21:41Z</time>
      </trkpt>
      <trkpt lat="47.8602" lon="6.75285">
        <ele>716.850159</ele>
        <time>2018-05-26T12:21:42Z</time>
      </trkpt>
      <trkpt lat="47.86019" lon="6.75283">
        <ele>717.192688</ele>
        <time>2018-05-26T12:21:43Z</time>
      </trkpt>
      <trkpt lat="47.86018" lon="6.75281">
        <ele>717.701599</ele>
        <time>2018-05-26T12:21:44Z</time>
      </trkpt>
      <trkpt lat="47.86017" lon="6.7528">
        <ele>718.032043</ele>
        <time>2018-05-26T12:21:45Z</time>
      </trkpt>
      <trkpt lat="47.86016" lon="6.75278">
        <ele>718.353333</ele>
        <time>2018-05-26T12:21:46Z</time>
      </trkpt>
      <trkpt lat="47.86014" lon="6.75278">
        <ele>718.797302</ele>
        <time>2018-05-26T12:21:47Z</time>
      </trkpt>
      <trkpt lat="47.86012" lon="6.75277">
        <ele>719.058594</ele>
        <time>2018-05-26T12:21:48Z</time>
      </trkpt>
      <trkpt lat="47.86011" lon="6.75276">
        <ele>719.292786</ele>
        <time>2018-05-26T12:21:49Z</time>
      </trkpt>
      <trkpt lat="47.8601" lon="6.75275">
        <ele>719.600769</ele>
        <time>2018-05-26T12:21:50Z</time>
      </trkpt>
      <trkpt lat="47.8601" lon="6.75274">
        <ele>719.774597</ele>
        <time>2018-05-26T12:21:51Z</time>
      </trkpt>
      <trkpt lat="47.86007" lon="6.75273">
        <ele>720.185486</ele>
        <time>2018-05-26T12:21:53Z</time>
      </trkpt>
      <trkpt lat="47.86006" lon="6.75272">
        <ele>720.26416</ele>
        <time>2018-05-26T12:21:55Z</time>
      </trkpt>
      <trkpt lat="47.86004" lon="6.75271">
        <ele>720.369202</ele>
        <time>2018-05-26T12:21:56Z</time>
      </trkpt>
      <trkpt lat="47.86001" lon="6.75269">
        <ele>720.437744</ele>
        <time>2018-05-26T12:21:57Z</time>
      </trkpt>
      <trkpt lat="47.85998" lon="6.75267">
        <ele>720.547424</ele>
        <time>2018-05-26T12:21:58Z</time>
      </trkpt>
      <trkpt lat="47.85997" lon="6.75265">
        <ele>720.625183</ele>
        <time>2018-05-26T12:21:59Z</time>
      </trkpt>
      <trkpt lat="47.85996" lon="6.75263">
        <ele>720.706848</ele>
        <time>2018-05-26T12:22:00Z</time>
      </trkpt>
      <trkpt lat="47.85994" lon="6.75262">
        <ele>720.822693</ele>
        <time>2018-05-26T12:22:01Z</time>
      </trkpt>
      <trkpt lat="47.85993" lon="6.75259">
        <ele>720.894226</ele>
        <time>2018-05-26T12:22:02Z</time>
      </trkpt>
      <trkpt lat="47.85992" lon="6.75258">
        <ele>720.969666</ele>
        <time>2018-05-26T12:22:03Z</time>
      </trkpt>
      <trkpt lat="47.85991" lon="6.75257">
        <ele>721.11377</ele>
        <time>2018-05-26T12:22:04Z</time>
      </trkpt>
      <trkpt lat="47.8599" lon="6.75256">
        <ele>721.233887</ele>
        <time>2018-05-26T12:22:05Z</time>
      </trkpt>
      <trkpt lat="47.85988" lon="6.75255">
        <ele>721.374329</ele>
        <time>2018-05-26T12:22:06Z</time>
      </trkpt>
      <trkpt lat="47.85987" lon="6.75254">
        <ele>721.621887</ele>
        <time>2018-05-26T12:22:07Z</time>
      </trkpt>
      <trkpt lat="47.85986" lon="6.75253">
        <ele>721.807861</ele>
        <time>2018-05-26T12:22:08Z</time>
      </trkpt>
      <trkpt lat="47.85984" lon="6.75252">
        <ele>722.010254</ele>
        <time>2018-05-26T12:22:09Z</time>
      </trkpt>
      <trkpt lat="47.85984" lon="6.75251">
        <ele>722.3526</ele>
        <time>2018-05-26T12:22:10Z</time>
      </trkpt>
      <trkpt lat="47.85983" lon="6.7525">
        <ele>722.604919</ele>
        <time>2018-05-26T12:22:11Z</time>
      </trkpt>
      <trkpt lat="47.85981" lon="6.75249">
        <ele>722.870544</ele>
        <time>2018-05-26T12:22:12Z</time>
      </trkpt>
      <trkpt lat="47.8598" lon="6.75248">
        <ele>723.283386</ele>
        <time>2018-05-26T12:22:13Z</time>
      </trkpt>
      <trkpt lat="47.85978" lon="6.75247">
        <ele>723.568298</ele>
        <time>2018-05-26T12:22:14Z</time>
      </trkpt>
      <trkpt lat="47.85976" lon="6.75246">
        <ele>723.982605</ele>
        <time>2018-05-26T12:22:15Z</time>
      </trkpt>
      <trkpt lat="47.85975" lon="6.75245">
        <ele>724.238708</ele>
        <time>2018-05-26T12:22:16Z</time>
      </trkpt>
      <trkpt lat="47.85974" lon="6.75244">
        <ele>724.475281</ele>
        <time>2018-05-26T12:22:17Z</time>
      </trkpt>
      <trkpt lat="47.85972" lon="6.75242">
        <ele>724.794434</ele>
        <time>2018-05-26T12:22:18Z</time>
      </trkpt>
      <trkpt lat="47.85971" lon="6.75241">
        <ele>724.984375</ele>
        <time>2018-05-26T12:22:19Z</time>
      </trkpt>
      <trkpt lat="47.8597" lon="6.75239">
        <ele>725.163757</ele>
        <time>2018-05-26T12:22:20Z</time>
      </trkpt>
      <trkpt lat="47.85969" lon="6.75237">
        <ele>725.403748</ele>
        <time>2018-05-26T12:22:21Z</time>
      </trkpt>
      <trkpt lat="47.85968" lon="6.75235">
        <ele>725.537598</ele>
        <time>2018-05-26T12:22:22Z</time>
      </trkpt>
      <trkpt lat="47.85966" lon="6.75233">
        <ele>725.654602</ele>
        <time>2018-05-26T12:22:23Z</time>
      </trkpt>
      <trkpt lat="47.85965" lon="6.75231">
        <ele>725.811829</ele>
        <time>2018-05-26T12:22:24Z</time>
      </trkpt>
      <trkpt lat="47.85965" lon="6.7523">
        <ele>726.020752</ele>
        <time>2018-05-26T12:22:25Z</time>
      </trkpt>
      <trkpt lat="47.85964" lon="6.75228">
        <ele>726.173584</ele>
        <time>2018-05-26T12:22:27Z</time>
      </trkpt>
      <trkpt lat="47.85963" lon="6.75225">
        <ele>726.27179</ele>
        <time>2018-05-26T12:22:28Z</time>
      </trkpt>
      <trkpt lat="47.85962" lon="6.75223">
        <ele>726.376648</ele>
        <time>2018-05-26T12:22:29Z</time>
      </trkpt>
      <trkpt lat="47.8596" lon="6.75221">
        <ele>726.558533</ele>
        <time>2018-05-26T12:22:30Z</time>
      </trkpt>
      <trkpt lat="47.85959" lon="6.7522">
        <ele>726.627625</ele>
        <time>2018-05-26T12:22:31Z</time>
      </trkpt>
      <trkpt lat="47.85958" lon="6.75217">
        <ele>726.699707</ele>
        <time>2018-05-26T12:22:32Z</time>
      </trkpt>
      <trkpt lat="47.85957" lon="6.75215">
        <ele>726.857483</ele>
        <time>2018-05-26T12:22:33Z</time>
      </trkpt>
      <trkpt lat="47.85955" lon="6.75214">
        <ele>727.034851</ele>
        <time>2018-05-26T12:22:34Z</time>
      </trkpt>
      <trkpt lat="47.85953" lon="6.75212">
        <ele>727.33136</ele>
        <time>2018-05-26T12:22:35Z</time>
      </trkpt>
      <trkpt lat="47.85952" lon="6.75209">
        <ele>727.53363</ele>
        <time>2018-05-26T12:22:36Z</time>
      </trkpt>
      <trkpt lat="47.8595" lon="6.75206">
        <ele>727.721619</ele>
        <time>2018-05-26T12:22:37Z</time>
      </trkpt>
      <trkpt lat="47.85948" lon="6.75204">
        <ele>727.958557</ele>
        <time>2018-05-26T12:22:38Z</time>
      </trkpt>
      <trkpt lat="47.85946" lon="6.75202">
        <ele>728.093262</ele>
        <time>2018-05-26T12:22:39Z</time>
      </trkpt>
      <trkpt lat="47.85945" lon="6.752">
        <ele>728.216248</ele>
        <time>2018-05-26T12:22:40Z</time>
      </trkpt>
      <trkpt lat="47.85945" lon="6.75197">
        <ele>728.384766</ele>
        <time>2018-05-26T12:22:41Z</time>
      </trkpt>
      <trkpt lat="47.85944" lon="6.75195">
        <ele>728.486877</ele>
        <time>2018-05-26T12:22:42Z</time>
      </trkpt>
      <trkpt lat="47.85942" lon="6.75193">
        <ele>728.588623</ele>
        <time>2018-05-26T12:22:43Z</time>
      </trkpt>
      <trkpt lat="47.8594" lon="6.75191">
        <ele>728.704651</ele>
        <time>2018-05-26T12:22:44Z</time>
      </trkpt>
      <trkpt lat="47.85939" lon="6.7519">
        <ele>728.926941</ele>
        <time>2018-05-26T12:22:45Z</time>
      </trkpt>
      <trkpt lat="47.85937" lon="6.75188">
        <ele>729.111511</ele>
        <time>2018-05-26T12:22:46Z</time>
      </trkpt>
      <trkpt lat="47.85936" lon="6.75186">
        <ele>729.323547</ele>
        <time>2018-05-26T12:22:47Z</time>
      </trkpt>
      <trkpt lat="47.85934" lon="6.75184">
        <ele>729.70343</ele>
        <time>2018-05-26T12:22:48Z</time>
      </trkpt>
      <trkpt lat="47.85933" lon="6.75183">
        <ele>729.988464</ele>
        <time>2018-05-26T12:22:49Z</time>
      </trkpt>
      <trkpt lat="47.85933" lon="6.75181">
        <ele>730.279236</ele>
        <time>2018-05-26T12:22:50Z</time>
      </trkpt>
      <trkpt lat="47.85933" lon="6.7518">
        <ele>730.692871</ele>
        <time>2018-05-26T12:22:51Z</time>
      </trkpt>
      <trkpt lat="47.85932" lon="6.75178">
        <ele>730.940247</ele>
        <time>2018-05-26T12:22:52Z</time>
      </trkpt>
      <trkpt lat="47.85926" lon="6.75169">
        <ele>732.319153</ele>
        <time>2018-05-26T12:23:34Z</time>
      </trkpt>
      <trkpt lat="47.85925" lon="6.75169">
        <ele>732.314758</ele>
        <time>2018-05-26T12:23:36Z</time>
      </trkpt>
      <trkpt lat="47.85924" lon="6.7517">
        <ele>732.258545</ele>
        <time>2018-05-26T12:23:37Z</time>
      </trkpt>
      <trkpt lat="47.85923" lon="6.75171">
        <ele>732.205322</ele>
        <time>2018-05-26T12:23:38Z</time>
      </trkpt>
      <trkpt lat="47.85922" lon="6.75172">
        <ele>732.15155</ele>
        <time>2018-05-26T12:23:39Z</time>
      </trkpt>
      <trkpt lat="47.85921" lon="6.75172">
        <ele>732.148132</ele>
        <time>2018-05-26T12:23:40Z</time>
      </trkpt>
      <trkpt lat="47.8592" lon="6.75171">
        <ele>732.152161</ele>
        <time>2018-05-26T12:23:41Z</time>
      </trkpt>
      <trkpt lat="47.85918" lon="6.7517">
        <ele>732.19989</ele>
        <time>2018-05-26T12:23:42Z</time>
      </trkpt>
      <trkpt lat="47.85917" lon="6.7517">
        <ele>732.247375</ele>
        <time>2018-05-26T12:23:43Z</time>
      </trkpt>
      <trkpt lat="47.85915" lon="6.7517">
        <ele>732.319885</ele>
        <time>2018-05-26T12:23:44Z</time>
      </trkpt>
      <trkpt lat="47.85913" lon="6.7517">
        <ele>732.356018</ele>
        <time>2018-05-26T12:23:45Z</time>
      </trkpt>
      <trkpt lat="47.85911" lon="6.7517">
        <ele>732.368896</ele>
        <time>2018-05-26T12:23:46Z</time>
      </trkpt>
      <trkpt lat="47.85908" lon="6.75171">
        <ele>732.364746</ele>
        <time>2018-05-26T12:23:47Z</time>
      </trkpt>
      <trkpt lat="47.85906" lon="6.75171">
        <ele>732.336426</ele>
        <time>2018-05-26T12:23:48Z</time>
      </trkpt>
      <trkpt lat="47.85902" lon="6.75172">
        <ele>732.255798</ele>
        <time>2018-05-26T12:23:49Z</time>
      </trkpt>
      <trkpt lat="47.85899" lon="6.75173">
        <ele>732.183411</ele>
        <time>2018-05-26T12:23:50Z</time>
      </trkpt>
      <trkpt lat="47.85895" lon="6.75173">
        <ele>732.0896</ele>
        <time>2018-05-26T12:23:51Z</time>
      </trkpt>
      <trkpt lat="47.8589" lon="6.75173">
        <ele>731.896423</ele>
        <time>2018-05-26T12:23:52Z</time>
      </trkpt>
      <trkpt lat="47.85885" lon="6.75173">
        <ele>731.727539</ele>
        <time>2018-05-26T12:23:53Z</time>
      </trkpt>
      <trkpt lat="47.85881" lon="6.75172">
        <ele>731.524902</ele>
        <time>2018-05-26T12:23:54Z</time>
      </trkpt>
      <trkpt lat="47.85877" lon="6.75173">
        <ele>731.144226</ele>
        <time>2018-05-26T12:23:55Z</time>
      </trkpt>
      <trkpt lat="47.85872" lon="6.75173">
        <ele>730.830811</ele>
        <time>2018-05-26T12:23:56Z</time>
      </trkpt>
      <trkpt lat="47.85868" lon="6.75173">
        <ele>730.281433</ele>
        <time>2018-05-26T12:23:57Z</time>
      </trkpt>
      <trkpt lat="47.85863" lon="6.75173">
        <ele>729.855957</ele>
        <time>2018-05-26T12:23:58Z</time>
      </trkpt>
      <trkpt lat="47.85857" lon="6.75173">
        <ele>729.13092</ele>
        <time>2018-05-26T12:23:59Z</time>
      </trkpt>
      <trkpt lat="47.85852" lon="6.75172">
        <ele>728.603943</ele>
        <time>2018-05-26T12:24:00Z</time>
      </trkpt>
      <trkpt lat="47.85847" lon="6.75172">
        <ele>728.053284</ele>
        <time>2018-05-26T12:24:01Z</time>
      </trkpt>
      <trkpt lat="47.85841" lon="6.75173">
        <ele>727.181885</ele>
        <time>2018-05-26T12:24:02Z</time>
      </trkpt>
      <trkpt lat="47.85836" lon="6.75176">
        <ele>726.586609</ele>
        <time>2018-05-26T12:24:03Z</time>
      </trkpt>
      <trkpt lat="47.85831" lon="6.7518">
        <ele>726.009277</ele>
        <time>2018-05-26T12:24:04Z</time>
      </trkpt>
      <trkpt lat="47.85826" lon="6.75185">
        <ele>725.188904</ele>
        <time>2018-05-26T12:24:05Z</time>
      </trkpt>
      <trkpt lat="47.85822" lon="6.75191">
        <ele>724.658936</ele>
        <time>2018-05-26T12:24:06Z</time>
      </trkpt>
      <trkpt lat="47.85818" lon="6.75197">
        <ele>724.141418</ele>
        <time>2018-05-26T12:24:07Z</time>
      </trkpt>
      <trkpt lat="47.85815" lon="6.75201">
        <ele>723.648254</ele>
        <time>2018-05-26T12:24:08Z</time>
      </trkpt>
      <trkpt lat="47.85813" lon="6.75206">
        <ele>722.964355</ele>
        <time>2018-05-26T12:24:09Z</time>
      </trkpt>
      <trkpt lat="47.85811" lon="6.75209">
        <ele>722.564026</ele>
        <time>2018-05-26T12:24:10Z</time>
      </trkpt>
      <trkpt lat="47.85809" lon="6.75213">
        <ele>722.227539</ele>
        <time>2018-05-26T12:24:11Z</time>
      </trkpt>
      <trkpt lat="47.85807" lon="6.75217">
        <ele>721.873535</ele>
        <time>2018-05-26T12:24:12Z</time>
      </trkpt>
      <trkpt lat="47.85806" lon="6.75221">
        <ele>721.758789</ele>
        <time>2018-05-26T12:24:13Z</time>
      </trkpt>
      <trkpt lat="47.85805" lon="6.75225">
        <ele>721.741394</ele>
        <time>2018-05-26T12:24:14Z</time>
      </trkpt>
      <trkpt lat="47.85804" lon="6.75229">
        <ele>721.746765</ele>
        <time>2018-05-26T12:24:15Z</time>
      </trkpt>
      <trkpt lat="47.85802" lon="6.75233">
        <ele>721.859314</ele>
        <time>2018-05-26T12:24:16Z</time>
      </trkpt>
      <trkpt lat="47.85801" lon="6.75237">
        <ele>721.961426</ele>
        <time>2018-05-26T12:24:17Z</time>
      </trkpt>
      <trkpt lat="47.85799" lon="6.75241">
        <ele>722.06543</ele>
        <time>2018-05-26T12:24:18Z</time>
      </trkpt>
      <trkpt lat="47.85797" lon="6.75245">
        <ele>722.210876</ele>
        <time>2018-05-26T12:24:19Z</time>
      </trkpt>
      <trkpt lat="47.85795" lon="6.75249">
        <ele>722.297546</ele>
        <time>2018-05-26T12:24:20Z</time>
      </trkpt>
      <trkpt lat="47.85793" lon="6.75252">
        <ele>722.372864</ele>
        <time>2018-05-26T12:24:21Z</time>
      </trkpt>
      <trkpt lat="47.8579" lon="6.75255">
        <ele>722.439392</ele>
        <time>2018-05-26T12:24:22Z</time>
      </trkpt>
      <trkpt lat="47.85788" lon="6.75258">
        <ele>722.522766</ele>
        <time>2018-05-26T12:24:23Z</time>
      </trkpt>
      <trkpt lat="47.85786" lon="6.75261">
        <ele>722.56781</ele>
        <time>2018-05-26T12:24:24Z</time>
      </trkpt>
      <trkpt lat="47.85783" lon="6.75264">
        <ele>722.606445</ele>
        <time>2018-05-26T12:24:25Z</time>
      </trkpt>
      <trkpt lat="47.8578" lon="6.75266">
        <ele>722.658264</ele>
        <time>2018-05-26T12:24:26Z</time>
      </trkpt>
      <trkpt lat="47.85778" lon="6.75269">
        <ele>722.697083</ele>
        <time>2018-05-26T12:24:27Z</time>
      </trkpt>
      <trkpt lat="47.85775" lon="6.75271">
        <ele>722.742188</ele>
        <time>2018-05-26T12:24:28Z</time>
      </trkpt>
      <trkpt lat="47.85772" lon="6.75274">
        <ele>722.81366</ele>
        <time>2018-05-26T12:24:29Z</time>
      </trkpt>
      <trkpt lat="47.85769" lon="6.75277">
        <ele>722.864075</ele>
        <time>2018-05-26T12:24:30Z</time>
      </trkpt>
      <trkpt lat="47.85767" lon="6.7528">
        <ele>722.931335</ele>
        <time>2018-05-26T12:24:31Z</time>
      </trkpt>
      <trkpt lat="47.85764" lon="6.75283">
        <ele>722.971497</ele>
        <time>2018-05-26T12:24:32Z</time>
      </trkpt>
      <trkpt lat="47.85762" lon="6.75286">
        <ele>723.113831</ele>
        <time>2018-05-26T12:24:33Z</time>
      </trkpt>
      <trkpt lat="47.8576" lon="6.75289">
        <ele>723.221497</ele>
        <time>2018-05-26T12:24:34Z</time>
      </trkpt>
      <trkpt lat="47.85758" lon="6.75292">
        <ele>723.340088</ele>
        <time>2018-05-26T12:24:35Z</time>
      </trkpt>
      <trkpt lat="47.85756" lon="6.75297">
        <ele>723.544434</ele>
        <time>2018-05-26T12:24:36Z</time>
      </trkpt>
      <trkpt lat="47.85754" lon="6.75301">
        <ele>723.694763</ele>
        <time>2018-05-26T12:24:37Z</time>
      </trkpt>
      <trkpt lat="47.85753" lon="6.75306">
        <ele>723.850098</ele>
        <time>2018-05-26T12:24:38Z</time>
      </trkpt>
      <trkpt lat="47.85752" lon="6.75311">
        <ele>724.080261</ele>
        <time>2018-05-26T12:24:39Z</time>
      </trkpt>
      <trkpt lat="47.85751" lon="6.75316">
        <ele>724.226501</ele>
        <time>2018-05-26T12:24:40Z</time>
      </trkpt>
      <trkpt lat="47.85751" lon="6.75321">
        <ele>724.368591</ele>
        <time>2018-05-26T12:24:41Z</time>
      </trkpt>
      <trkpt lat="47.8575" lon="6.75327">
        <ele>724.507324</ele>
        <time>2018-05-26T12:24:42Z</time>
      </trkpt>
      <trkpt lat="47.8575" lon="6.75332">
        <ele>724.716614</ele>
        <time>2018-05-26T12:24:43Z</time>
      </trkpt>
      <trkpt lat="47.8575" lon="6.75336">
        <ele>724.856201</ele>
        <time>2018-05-26T12:24:44Z</time>
      </trkpt>
      <trkpt lat="47.8575" lon="6.75341">
        <ele>724.994873</ele>
        <time>2018-05-26T12:24:45Z</time>
      </trkpt>
      <trkpt lat="47.85751" lon="6.75345">
        <ele>725.132385</ele>
        <time>2018-05-26T12:24:46Z</time>
      </trkpt>
      <trkpt lat="47.85751" lon="6.75349">
        <ele>725.269775</ele>
        <time>2018-05-26T12:24:47Z</time>
      </trkpt>
      <trkpt lat="47.85751" lon="6.75353">
        <ele>725.404602</ele>
        <time>2018-05-26T12:24:48Z</time>
      </trkpt>
      <trkpt lat="47.85752" lon="6.75357">
        <ele>725.538757</ele>
        <time>2018-05-26T12:24:49Z</time>
      </trkpt>
      <trkpt lat="47.85753" lon="6.75361">
        <ele>725.677795</ele>
        <time>2018-05-26T12:24:50Z</time>
      </trkpt>
      <trkpt lat="47.85753" lon="6.75365">
        <ele>725.82428</ele>
        <time>2018-05-26T12:24:51Z</time>
      </trkpt>
      <trkpt lat="47.85754" lon="6.75368">
        <ele>725.970398</ele>
        <time>2018-05-26T12:24:52Z</time>
      </trkpt>
      <trkpt lat="47.85755" lon="6.75372">
        <ele>726.106995</ele>
        <time>2018-05-26T12:24:53Z</time>
      </trkpt>
      <trkpt lat="47.85756" lon="6.75375">
        <ele>726.237305</ele>
        <time>2018-05-26T12:24:54Z</time>
      </trkpt>
      <trkpt lat="47.85756" lon="6.75379">
        <ele>726.371765</ele>
        <time>2018-05-26T12:24:55Z</time>
      </trkpt>
      <trkpt lat="47.85756" lon="6.75383">
        <ele>726.516785</ele>
        <time>2018-05-26T12:24:56Z</time>
      </trkpt>
      <trkpt lat="47.85757" lon="6.75386">
        <ele>726.66864</ele>
        <time>2018-05-26T12:24:57Z</time>
      </trkpt>
      <trkpt lat="47.85758" lon="6.7539">
        <ele>726.823914</ele>
        <time>2018-05-26T12:24:58Z</time>
      </trkpt>
      <trkpt lat="47.85759" lon="6.75393">
        <ele>726.986511</ele>
        <time>2018-05-26T12:24:59Z</time>
      </trkpt>
      <trkpt lat="47.85759" lon="6.75396">
        <ele>727.162598</ele>
        <time>2018-05-26T12:25:00Z</time>
      </trkpt>
      <trkpt lat="47.8576" lon="6.75399">
        <ele>727.356628</ele>
        <time>2018-05-26T12:25:01Z</time>
      </trkpt>
      <trkpt lat="47.85761" lon="6.75402">
        <ele>727.568542</ele>
        <time>2018-05-26T12:25:02Z</time>
      </trkpt>
      <trkpt lat="47.85761" lon="6.75405">
        <ele>727.790039</ele>
        <time>2018-05-26T12:25:03Z</time>
      </trkpt>
      <trkpt lat="47.85762" lon="6.75408">
        <ele>728.012512</ele>
        <time>2018-05-26T12:25:04Z</time>
      </trkpt>
      <trkpt lat="47.85763" lon="6.75412">
        <ele>728.225586</ele>
        <time>2018-05-26T12:25:05Z</time>
      </trkpt>
      <trkpt lat="47.85763" lon="6.75415">
        <ele>728.427063</ele>
        <time>2018-05-26T12:25:06Z</time>
      </trkpt>
      <trkpt lat="47.85764" lon="6.75418">
        <ele>728.620361</ele>
        <time>2018-05-26T12:25:07Z</time>
      </trkpt>
      <trkpt lat="47.85765" lon="6.75421">
        <ele>728.810059</ele>
        <time>2018-05-26T12:25:08Z</time>
      </trkpt>
      <trkpt lat="47.85766" lon="6.75424">
        <ele>729.001709</ele>
        <time>2018-05-26T12:25:09Z</time>
      </trkpt>
      <trkpt lat="47.85766" lon="6.75427">
        <ele>729.190857</ele>
        <time>2018-05-26T12:25:10Z</time>
      </trkpt>
      <trkpt lat="47.85766" lon="6.7543">
        <ele>729.375488</ele>
        <time>2018-05-26T12:25:11Z</time>
      </trkpt>
      <trkpt lat="47.85766" lon="6.75434">
        <ele>729.554016</ele>
        <time>2018-05-26T12:25:12Z</time>
      </trkpt>
      <trkpt lat="47.85766" lon="6.75437">
        <ele>729.725159</ele>
        <time>2018-05-26T12:25:13Z</time>
      </trkpt>
      <trkpt lat="47.85766" lon="6.7544">
        <ele>729.888489</ele>
        <time>2018-05-26T12:25:14Z</time>
      </trkpt>
      <trkpt lat="47.85766" lon="6.75443">
        <ele>730.043518</ele>
        <time>2018-05-26T12:25:15Z</time>
      </trkpt>
      <trkpt lat="47.85765" lon="6.75447">
        <ele>730.262268</ele>
        <time>2018-05-26T12:25:16Z</time>
      </trkpt>
      <trkpt lat="47.85765" lon="6.7545">
        <ele>730.399475</ele>
        <time>2018-05-26T12:25:17Z</time>
      </trkpt>
      <trkpt lat="47.85766" lon="6.75453">
        <ele>730.536438</ele>
        <time>2018-05-26T12:25:18Z</time>
      </trkpt>
      <trkpt lat="47.85765" lon="6.75456">
        <ele>730.678955</ele>
        <time>2018-05-26T12:25:19Z</time>
      </trkpt>
      <trkpt lat="47.85765" lon="6.75459">
        <ele>730.916504</ele>
        <time>2018-05-26T12:25:20Z</time>
      </trkpt>
      <trkpt lat="47.85764" lon="6.75462">
        <ele>731.098633</ele>
        <time>2018-05-26T12:25:21Z</time>
      </trkpt>
      <trkpt lat="47.85764" lon="6.75466">
        <ele>731.30127</ele>
        <time>2018-05-26T12:25:22Z</time>
      </trkpt>
      <trkpt lat="47.85764" lon="6.75469">
        <ele>731.519287</ele>
        <time>2018-05-26T12:25:23Z</time>
      </trkpt>
      <trkpt lat="47.85763" lon="6.75472">
        <ele>731.750793</ele>
        <time>2018-05-26T12:25:24Z</time>
      </trkpt>
      <trkpt lat="47.85763" lon="6.75475">
        <ele>732.112793</ele>
        <time>2018-05-26T12:25:25Z</time>
      </trkpt>
      <trkpt lat="47.85763" lon="6.75478">
        <ele>732.352234</ele>
        <time>2018-05-26T12:25:26Z</time>
      </trkpt>
      <trkpt lat="47.85763" lon="6.75481">
        <ele>732.582031</ele>
        <time>2018-05-26T12:25:27Z</time>
      </trkpt>
      <trkpt lat="47.85763" lon="6.75484">
        <ele>732.799622</ele>
        <time>2018-05-26T12:25:28Z</time>
      </trkpt>
      <trkpt lat="47.85763" lon="6.75487">
        <ele>733.005859</ele>
        <time>2018-05-26T12:25:29Z</time>
      </trkpt>
      <trkpt lat="47.85762" lon="6.7549">
        <ele>733.20636</ele>
        <time>2018-05-26T12:25:30Z</time>
      </trkpt>
      <trkpt lat="47.85762" lon="6.75493">
        <ele>733.40448</ele>
        <time>2018-05-26T12:25:31Z</time>
      </trkpt>
      <trkpt lat="47.85762" lon="6.75496">
        <ele>733.503113</ele>
        <time>2018-05-26T12:25:32Z</time>
      </trkpt>
      <trkpt lat="47.85762" lon="6.75499">
        <ele>733.601563</ele>
        <time>2018-05-26T12:25:33Z</time>
      </trkpt>
      <trkpt lat="47.85761" lon="6.75502">
        <ele>733.795105</ele>
        <time>2018-05-26T12:25:34Z</time>
      </trkpt>
      <trkpt lat="47.85761" lon="6.75505">
        <ele>734.074219</ele>
        <time>2018-05-26T12:25:35Z</time>
      </trkpt>
      <trkpt lat="47.85761" lon="6.75508">
        <ele>734.259033</ele>
        <time>2018-05-26T12:25:36Z</time>
      </trkpt>
      <trkpt lat="47.85761" lon="6.75511">
        <ele>734.448303</ele>
        <time>2018-05-26T12:25:37Z</time>
      </trkpt>
      <trkpt lat="47.8576" lon="6.75514">
        <ele>734.640686</ele>
        <time>2018-05-26T12:25:38Z</time>
      </trkpt>
      <trkpt lat="47.8576" lon="6.75517">
        <ele>734.83374</ele>
        <time>2018-05-26T12:25:39Z</time>
      </trkpt>
      <trkpt lat="47.8576" lon="6.7552">
        <ele>735.0271</ele>
        <time>2018-05-26T12:25:40Z</time>
      </trkpt>
      <trkpt lat="47.8576" lon="6.75523">
        <ele>735.224548</ele>
        <time>2018-05-26T12:25:41Z</time>
      </trkpt>
      <trkpt lat="47.8576" lon="6.75526">
        <ele>735.423645</ele>
        <time>2018-05-26T12:25:42Z</time>
      </trkpt>
      <trkpt lat="47.85759" lon="6.7553">
        <ele>735.616699</ele>
        <time>2018-05-26T12:25:43Z</time>
      </trkpt>
      <trkpt lat="47.85759" lon="6.75533">
        <ele>735.802307</ele>
        <time>2018-05-26T12:25:44Z</time>
      </trkpt>
      <trkpt lat="47.85759" lon="6.75536">
        <ele>735.985535</ele>
        <time>2018-05-26T12:25:45Z</time>
      </trkpt>
      <trkpt lat="47.85759" lon="6.75539">
        <ele>736.171082</ele>
        <time>2018-05-26T12:25:46Z</time>
      </trkpt>
      <trkpt lat="47.85759" lon="6.75543">
        <ele>736.355774</ele>
        <time>2018-05-26T12:25:47Z</time>
      </trkpt>
      <trkpt lat="47.85759" lon="6.75547">
        <ele>736.532288</ele>
        <time>2018-05-26T12:25:48Z</time>
      </trkpt>
      <trkpt lat="47.85759" lon="6.7555">
        <ele>736.696838</ele>
        <time>2018-05-26T12:25:49Z</time>
      </trkpt>
      <trkpt lat="47.85759" lon="6.75553">
        <ele>736.850037</ele>
        <time>2018-05-26T12:25:50Z</time>
      </trkpt>
      <trkpt lat="47.85759" lon="6.75557">
        <ele>736.988464</ele>
        <time>2018-05-26T12:25:51Z</time>
      </trkpt>
      <trkpt lat="47.85758" lon="6.7556">
        <ele>737.175598</ele>
        <time>2018-05-26T12:25:52Z</time>
      </trkpt>
      <trkpt lat="47.85758" lon="6.75564">
        <ele>737.293152</ele>
        <time>2018-05-26T12:25:53Z</time>
      </trkpt>
      <trkpt lat="47.85758" lon="6.75567">
        <ele>737.410645</ele>
        <time>2018-05-26T12:25:54Z</time>
      </trkpt>
      <trkpt lat="47.85758" lon="6.7557">
        <ele>737.534729</ele>
        <time>2018-05-26T12:25:55Z</time>
      </trkpt>
      <trkpt lat="47.85757" lon="6.75574">
        <ele>737.668884</ele>
        <time>2018-05-26T12:25:56Z</time>
      </trkpt>
      <trkpt lat="47.85757" lon="6.75578">
        <ele>737.81366</ele>
        <time>2018-05-26T12:25:57Z</time>
      </trkpt>
      <trkpt lat="47.85757" lon="6.75581">
        <ele>737.967102</ele>
        <time>2018-05-26T12:25:58Z</time>
      </trkpt>
      <trkpt lat="47.85757" lon="6.75585">
        <ele>738.125244</ele>
        <time>2018-05-26T12:25:59Z</time>
      </trkpt>
      <trkpt lat="47.85756" lon="6.75589">
        <ele>738.281189</ele>
        <time>2018-05-26T12:26:00Z</time>
      </trkpt>
      <trkpt lat="47.85756" lon="6.75593">
        <ele>738.490967</ele>
        <time>2018-05-26T12:26:01Z</time>
      </trkpt>
      <trkpt lat="47.85755" lon="6.75596">
        <ele>738.611267</ele>
        <time>2018-05-26T12:26:02Z</time>
      </trkpt>
      <trkpt lat="47.85754" lon="6.756">
        <ele>738.724121</ele>
        <time>2018-05-26T12:26:03Z</time>
      </trkpt>
      <trkpt lat="47.85754" lon="6.75604">
        <ele>738.83197</ele>
        <time>2018-05-26T12:26:04Z</time>
      </trkpt>
      <trkpt lat="47.85753" lon="6.75609">
        <ele>738.977722</ele>
        <time>2018-05-26T12:26:05Z</time>
      </trkpt>
      <trkpt lat="47.85753" lon="6.75613">
        <ele>739.061279</ele>
        <time>2018-05-26T12:26:06Z</time>
      </trkpt>
      <trkpt lat="47.85753" lon="6.75617">
        <ele>739.136414</ele>
        <time>2018-05-26T12:26:07Z</time>
      </trkpt>
      <trkpt lat="47.85752" lon="6.75621">
        <ele>739.244568</ele>
        <time>2018-05-26T12:26:08Z</time>
      </trkpt>
      <trkpt lat="47.85753" lon="6.75625">
        <ele>739.321472</ele>
        <time>2018-05-26T12:26:09Z</time>
      </trkpt>
      <trkpt lat="47.85752" lon="6.75629">
        <ele>739.404602</ele>
        <time>2018-05-26T12:26:10Z</time>
      </trkpt>
      <trkpt lat="47.85752" lon="6.75633">
        <ele>739.49054</ele>
        <time>2018-05-26T12:26:11Z</time>
      </trkpt>
      <trkpt lat="47.85753" lon="6.75637">
        <ele>739.582764</ele>
        <time>2018-05-26T12:26:12Z</time>
      </trkpt>
      <trkpt lat="47.85752" lon="6.7564">
        <ele>739.691406</ele>
        <time>2018-05-26T12:26:13Z</time>
      </trkpt>
      <trkpt lat="47.85752" lon="6.75644">
        <ele>739.889099</ele>
        <time>2018-05-26T12:26:14Z</time>
      </trkpt>
      <trkpt lat="47.85753" lon="6.75648">
        <ele>740.039612</ele>
        <time>2018-05-26T12:26:15Z</time>
      </trkpt>
      <trkpt lat="47.85753" lon="6.75652">
        <ele>740.19751</ele>
        <time>2018-05-26T12:26:16Z</time>
      </trkpt>
      <trkpt lat="47.85754" lon="6.75655">
        <ele>740.363708</ele>
        <time>2018-05-26T12:26:17Z</time>
      </trkpt>
      <trkpt lat="47.85756" lon="6.75658">
        <ele>740.615784</ele>
        <time>2018-05-26T12:26:18Z</time>
      </trkpt>
      <trkpt lat="47.85756" lon="6.75661">
        <ele>740.781982</ele>
        <time>2018-05-26T12:26:19Z</time>
      </trkpt>
      <trkpt lat="47.85757" lon="6.75664">
        <ele>740.941162</ele>
        <time>2018-05-26T12:26:20Z</time>
      </trkpt>
      <trkpt lat="47.85758" lon="6.75668">
        <ele>741.096252</ele>
        <time>2018-05-26T12:26:21Z</time>
      </trkpt>
      <trkpt lat="47.85759" lon="6.75671">
        <ele>741.244446</ele>
        <time>2018-05-26T12:26:22Z</time>
      </trkpt>
      <trkpt lat="47.85759" lon="6.75674">
        <ele>741.461609</ele>
        <time>2018-05-26T12:26:23Z</time>
      </trkpt>
      <trkpt lat="47.8576" lon="6.75677">
        <ele>741.614014</ele>
        <time>2018-05-26T12:26:24Z</time>
      </trkpt>
      <trkpt lat="47.85761" lon="6.7568">
        <ele>741.778137</ele>
        <time>2018-05-26T12:26:25Z</time>
      </trkpt>
      <trkpt lat="47.85761" lon="6.75683">
        <ele>741.948669</ele>
        <time>2018-05-26T12:26:26Z</time>
      </trkpt>
      <trkpt lat="47.85762" lon="6.75686">
        <ele>742.115417</ele>
        <time>2018-05-26T12:26:27Z</time>
      </trkpt>
      <trkpt lat="47.85762" lon="6.75689">
        <ele>742.276611</ele>
        <time>2018-05-26T12:26:28Z</time>
      </trkpt>
      <trkpt lat="47.85762" lon="6.75692">
        <ele>742.431885</ele>
        <time>2018-05-26T12:26:29Z</time>
      </trkpt>
      <trkpt lat="47.85762" lon="6.75695">
        <ele>742.5849</ele>
        <time>2018-05-26T12:26:30Z</time>
      </trkpt>
      <trkpt lat="47.85762" lon="6.75698">
        <ele>742.733704</ele>
        <time>2018-05-26T12:26:31Z</time>
      </trkpt>
      <trkpt lat="47.85762" lon="6.757">
        <ele>742.882568</ele>
        <time>2018-05-26T12:26:32Z</time>
      </trkpt>
      <trkpt lat="47.85761" lon="6.75703">
        <ele>742.957275</ele>
        <time>2018-05-26T12:26:33Z</time>
      </trkpt>
      <trkpt lat="47.85761" lon="6.75705">
        <ele>743.034241</ele>
        <time>2018-05-26T12:26:34Z</time>
      </trkpt>
      <trkpt lat="47.8576" lon="6.75708">
        <ele>743.197083</ele>
        <time>2018-05-26T12:26:35Z</time>
      </trkpt>
      <trkpt lat="47.85759" lon="6.75711">
        <ele>743.470032</ele>
        <time>2018-05-26T12:26:36Z</time>
      </trkpt>
      <trkpt lat="47.85758" lon="6.75714">
        <ele>743.676941</ele>
        <time>2018-05-26T12:26:37Z</time>
      </trkpt>
      <trkpt lat="47.85757" lon="6.75716">
        <ele>743.905579</ele>
        <time>2018-05-26T12:26:38Z</time>
      </trkpt>
      <trkpt lat="47.85756" lon="6.75718">
        <ele>744.149353</ele>
        <time>2018-05-26T12:26:39Z</time>
      </trkpt>
      <trkpt lat="47.85756" lon="6.75721">
        <ele>744.399963</ele>
        <time>2018-05-26T12:26:40Z</time>
      </trkpt>
      <trkpt lat="47.85756" lon="6.75723">
        <ele>744.77002</ele>
        <time>2018-05-26T12:26:41Z</time>
      </trkpt>
      <trkpt lat="47.85755" lon="6.75725">
        <ele>745.005554</ele>
        <time>2018-05-26T12:26:42Z</time>
      </trkpt>
      <trkpt lat="47.85754" lon="6.75728">
        <ele>745.229919</ele>
        <time>2018-05-26T12:26:43Z</time>
      </trkpt>
      <trkpt lat="47.85754" lon="6.7573">
        <ele>745.443909</ele>
        <time>2018-05-26T12:26:44Z</time>
      </trkpt>
      <trkpt lat="47.85753" lon="6.75733">
        <ele>745.751282</ele>
        <time>2018-05-26T12:26:45Z</time>
      </trkpt>
      <trkpt lat="47.85752" lon="6.75735">
        <ele>745.950134</ele>
        <time>2018-05-26T12:26:46Z</time>
      </trkpt>
      <trkpt lat="47.85751" lon="6.75738">
        <ele>746.148438</ele>
        <time>2018-05-26T12:26:47Z</time>
      </trkpt>
      <trkpt lat="47.8575" lon="6.75741">
        <ele>746.347595</ele>
        <time>2018-05-26T12:26:48Z</time>
      </trkpt>
      <trkpt lat="47.85749" lon="6.75744">
        <ele>746.546448</ele>
        <time>2018-05-26T12:26:49Z</time>
      </trkpt>
      <trkpt lat="47.85749" lon="6.75746">
        <ele>746.832581</ele>
        <time>2018-05-26T12:26:50Z</time>
      </trkpt>
      <trkpt lat="47.85748" lon="6.75749">
        <ele>747.004944</ele>
        <time>2018-05-26T12:26:51Z</time>
      </trkpt>
      <trkpt lat="47.85747" lon="6.75752">
        <ele>747.160156</ele>
        <time>2018-05-26T12:26:52Z</time>
      </trkpt>
      <trkpt lat="47.85746" lon="6.75755">
        <ele>747.300049</ele>
        <time>2018-05-26T12:26:53Z</time>
      </trkpt>
      <trkpt lat="47.85746" lon="6.75758">
        <ele>747.432312</ele>
        <time>2018-05-26T12:26:54Z</time>
      </trkpt>
      <trkpt lat="47.85745" lon="6.75761">
        <ele>747.623596</ele>
        <time>2018-05-26T12:26:55Z</time>
      </trkpt>
      <trkpt lat="47.85744" lon="6.75764">
        <ele>747.74707</ele>
        <time>2018-05-26T12:26:56Z</time>
      </trkpt>
      <trkpt lat="47.85743" lon="6.75767">
        <ele>747.87085</ele>
        <time>2018-05-26T12:26:57Z</time>
      </trkpt>
      <trkpt lat="47.85743" lon="6.7577">
        <ele>747.999817</ele>
        <time>2018-05-26T12:26:58Z</time>
      </trkpt>
      <trkpt lat="47.85742" lon="6.75773">
        <ele>748.134033</ele>
        <time>2018-05-26T12:26:59Z</time>
      </trkpt>
      <trkpt lat="47.85742" lon="6.75776">
        <ele>748.271484</ele>
        <time>2018-05-26T12:27:00Z</time>
      </trkpt>
      <trkpt lat="47.85741" lon="6.75779">
        <ele>748.415222</ele>
        <time>2018-05-26T12:27:01Z</time>
      </trkpt>
      <trkpt lat="47.85741" lon="6.75783">
        <ele>748.565735</ele>
        <time>2018-05-26T12:27:02Z</time>
      </trkpt>
      <trkpt lat="47.85741" lon="6.75786">
        <ele>748.722839</ele>
        <time>2018-05-26T12:27:03Z</time>
      </trkpt>
      <trkpt lat="47.85741" lon="6.75789">
        <ele>748.959717</ele>
        <time>2018-05-26T12:27:04Z</time>
      </trkpt>
      <trkpt lat="47.85741" lon="6.75792">
        <ele>749.112244</ele>
        <time>2018-05-26T12:27:05Z</time>
      </trkpt>
      <trkpt lat="47.8574" lon="6.75796">
        <ele>749.255188</ele>
        <time>2018-05-26T12:27:06Z</time>
      </trkpt>
      <trkpt lat="47.8574" lon="6.75799">
        <ele>749.388855</ele>
        <time>2018-05-26T12:27:07Z</time>
      </trkpt>
      <trkpt lat="47.8574" lon="6.75802">
        <ele>749.511719</ele>
        <time>2018-05-26T12:27:08Z</time>
      </trkpt>
      <trkpt lat="47.8574" lon="6.75805">
        <ele>749.627136</ele>
        <time>2018-05-26T12:27:09Z</time>
      </trkpt>
      <trkpt lat="47.8574" lon="6.75808">
        <ele>749.737854</ele>
        <time>2018-05-26T12:27:10Z</time>
      </trkpt>
      <trkpt lat="47.8574" lon="6.75812">
        <ele>749.899231</ele>
        <time>2018-05-26T12:27:11Z</time>
      </trkpt>
      <trkpt lat="47.8574" lon="6.75815">
        <ele>750.003723</ele>
        <time>2018-05-26T12:27:12Z</time>
      </trkpt>
      <trkpt lat="47.8574" lon="6.75818">
        <ele>750.110535</ele>
        <time>2018-05-26T12:27:13Z</time>
      </trkpt>
      <trkpt lat="47.8574" lon="6.75822">
        <ele>750.223083</ele>
        <time>2018-05-26T12:27:14Z</time>
      </trkpt>
      <trkpt lat="47.8574" lon="6.75825">
        <ele>750.406006</ele>
        <time>2018-05-26T12:27:15Z</time>
      </trkpt>
      <trkpt lat="47.8574" lon="6.75828">
        <ele>750.535156</ele>
        <time>2018-05-26T12:27:16Z</time>
      </trkpt>
      <trkpt lat="47.8574" lon="6.75831">
        <ele>750.668152</ele>
        <time>2018-05-26T12:27:17Z</time>
      </trkpt>
      <trkpt lat="47.8574" lon="6.75835">
        <ele>750.806152</ele>
        <time>2018-05-26T12:27:18Z</time>
      </trkpt>
      <trkpt lat="47.85739" lon="6.75838">
        <ele>750.950623</ele>
        <time>2018-05-26T12:27:19Z</time>
      </trkpt>
      <trkpt lat="47.85739" lon="6.75841">
        <ele>751.0979</ele>
        <time>2018-05-26T12:27:20Z</time>
      </trkpt>
      <trkpt lat="47.8574" lon="6.75845">
        <ele>751.244568</ele>
        <time>2018-05-26T12:27:21Z</time>
      </trkpt>
      <trkpt lat="47.8574" lon="6.75848">
        <ele>751.389099</ele>
        <time>2018-05-26T12:27:22Z</time>
      </trkpt>
      <trkpt lat="47.8574" lon="6.75852">
        <ele>751.536316</ele>
        <time>2018-05-26T12:27:23Z</time>
      </trkpt>
      <trkpt lat="47.8574" lon="6.75855">
        <ele>751.684998</ele>
        <time>2018-05-26T12:27:24Z</time>
      </trkpt>
      <trkpt lat="47.85739" lon="6.75858">
        <ele>751.904541</ele>
        <time>2018-05-26T12:27:25Z</time>
      </trkpt>
      <trkpt lat="47.85739" lon="6.75862">
        <ele>752.043945</ele>
        <time>2018-05-26T12:27:26Z</time>
      </trkpt>
      <trkpt lat="47.85738" lon="6.75865">
        <ele>752.183044</ele>
        <time>2018-05-26T12:27:27Z</time>
      </trkpt>
      <trkpt lat="47.85738" lon="6.75868">
        <ele>752.322693</ele>
        <time>2018-05-26T12:27:28Z</time>
      </trkpt>
      <trkpt lat="47.85737" lon="6.75871">
        <ele>752.466125</ele>
        <time>2018-05-26T12:27:29Z</time>
      </trkpt>
      <trkpt lat="47.85737" lon="6.75874">
        <ele>752.615234</ele>
        <time>2018-05-26T12:27:30Z</time>
      </trkpt>
      <trkpt lat="47.85737" lon="6.75877">
        <ele>752.77002</ele>
        <time>2018-05-26T12:27:31Z</time>
      </trkpt>
      <trkpt lat="47.85736" lon="6.7588">
        <ele>752.929382</ele>
        <time>2018-05-26T12:27:32Z</time>
      </trkpt>
      <trkpt lat="47.85735" lon="6.75884">
        <ele>753.009094</ele>
        <time>2018-05-26T12:27:33Z</time>
      </trkpt>
      <trkpt lat="47.85733" lon="6.75887">
        <ele>753.167786</ele>
        <time>2018-05-26T12:27:34Z</time>
      </trkpt>
      <trkpt lat="47.85733" lon="6.7589">
        <ele>753.398926</ele>
        <time>2018-05-26T12:27:35Z</time>
      </trkpt>
      <trkpt lat="47.85732" lon="6.75892">
        <ele>753.548767</ele>
        <time>2018-05-26T12:27:36Z</time>
      </trkpt>
      <trkpt lat="47.85731" lon="6.75895">
        <ele>753.699036</ele>
        <time>2018-05-26T12:27:37Z</time>
      </trkpt>
      <trkpt lat="47.8573" lon="6.75898">
        <ele>753.929688</ele>
        <time>2018-05-26T12:27:38Z</time>
      </trkpt>
      <trkpt lat="47.85728" lon="6.75901">
        <ele>754.090271</ele>
        <time>2018-05-26T12:27:39Z</time>
      </trkpt>
      <trkpt lat="47.85727" lon="6.75903">
        <ele>754.256042</ele>
        <time>2018-05-26T12:27:40Z</time>
      </trkpt>
      <trkpt lat="47.85725" lon="6.75906">
        <ele>754.513184</ele>
        <time>2018-05-26T12:27:41Z</time>
      </trkpt>
      <trkpt lat="47.85724" lon="6.75908">
        <ele>754.683594</ele>
        <time>2018-05-26T12:27:42Z</time>
      </trkpt>
      <trkpt lat="47.85722" lon="6.75911">
        <ele>754.849609</ele>
        <time>2018-05-26T12:27:43Z</time>
      </trkpt>
      <trkpt lat="47.8572" lon="6.75913">
        <ele>755.076965</ele>
        <time>2018-05-26T12:27:44Z</time>
      </trkpt>
      <trkpt lat="47.85719" lon="6.75915">
        <ele>755.219177</ele>
        <time>2018-05-26T12:27:45Z</time>
      </trkpt>
      <trkpt lat="47.85717" lon="6.75917">
        <ele>755.35675</ele>
        <time>2018-05-26T12:27:46Z</time>
      </trkpt>
      <trkpt lat="47.85715" lon="6.75918">
        <ele>755.551697</ele>
        <time>2018-05-26T12:27:47Z</time>
      </trkpt>
      <trkpt lat="47.85713" lon="6.7592">
        <ele>755.675049</ele>
        <time>2018-05-26T12:27:48Z</time>
      </trkpt>
      <trkpt lat="47.85711" lon="6.75921">
        <ele>755.799622</ele>
        <time>2018-05-26T12:27:49Z</time>
      </trkpt>
      <trkpt lat="47.85709" lon="6.75922">
        <ele>755.987</ele>
        <time>2018-05-26T12:27:50Z</time>
      </trkpt>
      <trkpt lat="47.85706" lon="6.75923">
        <ele>756.11377</ele>
        <time>2018-05-26T12:27:51Z</time>
      </trkpt>
      <trkpt lat="47.85703" lon="6.75924">
        <ele>756.240906</ele>
        <time>2018-05-26T12:27:52Z</time>
      </trkpt>
      <trkpt lat="47.85701" lon="6.75924">
        <ele>756.429443</ele>
        <time>2018-05-26T12:27:53Z</time>
      </trkpt>
      <trkpt lat="47.85698" lon="6.75925">
        <ele>756.548279</ele>
        <time>2018-05-26T12:27:54Z</time>
      </trkpt>
      <trkpt lat="47.85695" lon="6.75925">
        <ele>756.721863</ele>
        <time>2018-05-26T12:27:55Z</time>
      </trkpt>
      <trkpt lat="47.85693" lon="6.75925">
        <ele>756.851135</ele>
        <time>2018-05-26T12:27:56Z</time>
      </trkpt>
      <trkpt lat="47.8569" lon="6.75926">
        <ele>756.992126</ele>
        <time>2018-05-26T12:27:57Z</time>
      </trkpt>
      <trkpt lat="47.85688" lon="6.75926">
        <ele>757.20752</ele>
        <time>2018-05-26T12:27:58Z</time>
      </trkpt>
      <trkpt lat="47.85685" lon="6.75927">
        <ele>757.344727</ele>
        <time>2018-05-26T12:27:59Z</time>
      </trkpt>
      <trkpt lat="47.85683" lon="6.75927">
        <ele>757.536072</ele>
        <time>2018-05-26T12:28:00Z</time>
      </trkpt>
      <trkpt lat="47.8568" lon="6.75928">
        <ele>757.64325</ele>
        <time>2018-05-26T12:28:01Z</time>
      </trkpt>
      <trkpt lat="47.85677" lon="6.75928">
        <ele>757.725586</ele>
        <time>2018-05-26T12:28:02Z</time>
      </trkpt>
      <trkpt lat="47.85674" lon="6.75929">
        <ele>757.806946</ele>
        <time>2018-05-26T12:28:03Z</time>
      </trkpt>
      <trkpt lat="47.85671" lon="6.7593">
        <ele>757.843262</ele>
        <time>2018-05-26T12:28:04Z</time>
      </trkpt>
      <trkpt lat="47.85668" lon="6.7593">
        <ele>757.884216</ele>
        <time>2018-05-26T12:28:05Z</time>
      </trkpt>
      <trkpt lat="47.85666" lon="6.75931">
        <ele>757.906738</ele>
        <time>2018-05-26T12:28:06Z</time>
      </trkpt>
      <trkpt lat="47.85663" lon="6.75931">
        <ele>757.933777</ele>
        <time>2018-05-26T12:28:07Z</time>
      </trkpt>
      <trkpt lat="47.8566" lon="6.75932">
        <ele>757.988098</ele>
        <time>2018-05-26T12:28:08Z</time>
      </trkpt>
      <trkpt lat="47.85657" lon="6.75932">
        <ele>758.033264</ele>
        <time>2018-05-26T12:28:09Z</time>
      </trkpt>
      <trkpt lat="47.85654" lon="6.75932">
        <ele>758.119568</ele>
        <time>2018-05-26T12:28:10Z</time>
      </trkpt>
      <trkpt lat="47.85652" lon="6.75933">
        <ele>758.193115</ele>
        <time>2018-05-26T12:28:11Z</time>
      </trkpt>
      <trkpt lat="47.8565" lon="6.75934">
        <ele>758.275879</ele>
        <time>2018-05-26T12:28:12Z</time>
      </trkpt>
      <trkpt lat="47.85648" lon="6.75934">
        <ele>758.406921</ele>
        <time>2018-05-26T12:28:13Z</time>
      </trkpt>
      <trkpt lat="47.85645" lon="6.75935">
        <ele>758.492493</ele>
        <time>2018-05-26T12:28:14Z</time>
      </trkpt>
      <trkpt lat="47.85642" lon="6.75935">
        <ele>758.579651</ele>
        <time>2018-05-26T12:28:15Z</time>
      </trkpt>
      <trkpt lat="47.8564" lon="6.75936">
        <ele>758.71344</ele>
        <time>2018-05-26T12:28:16Z</time>
      </trkpt>
      <trkpt lat="47.85638" lon="6.75936">
        <ele>758.804688</ele>
        <time>2018-05-26T12:28:17Z</time>
      </trkpt>
      <trkpt lat="47.85635" lon="6.75936">
        <ele>758.952332</ele>
        <time>2018-05-26T12:28:18Z</time>
      </trkpt>
      <trkpt lat="47.85634" lon="6.75937">
        <ele>759.064758</ele>
        <time>2018-05-26T12:28:19Z</time>
      </trkpt>
      <trkpt lat="47.85632" lon="6.75938">
        <ele>759.188965</ele>
        <time>2018-05-26T12:28:20Z</time>
      </trkpt>
      <trkpt lat="47.85629" lon="6.75938">
        <ele>759.377197</ele>
        <time>2018-05-26T12:28:21Z</time>
      </trkpt>
      <trkpt lat="47.85626" lon="6.75939">
        <ele>759.497314</ele>
        <time>2018-05-26T12:28:22Z</time>
      </trkpt>
      <trkpt lat="47.85624" lon="6.75939">
        <ele>759.678711</ele>
        <time>2018-05-26T12:28:23Z</time>
      </trkpt>
      <trkpt lat="47.85622" lon="6.7594">
        <ele>759.810852</ele>
        <time>2018-05-26T12:28:24Z</time>
      </trkpt>
      <trkpt lat="47.85619" lon="6.75941">
        <ele>759.955627</ele>
        <time>2018-05-26T12:28:25Z</time>
      </trkpt>
      <trkpt lat="47.85617" lon="6.75942">
        <ele>760.188904</ele>
        <time>2018-05-26T12:28:26Z</time>
      </trkpt>
      <trkpt lat="47.85615" lon="6.75942">
        <ele>760.351074</ele>
        <time>2018-05-26T12:28:27Z</time>
      </trkpt>
      <trkpt lat="47.85613" lon="6.75943">
        <ele>760.603027</ele>
        <time>2018-05-26T12:28:28Z</time>
      </trkpt>
      <trkpt lat="47.85611" lon="6.75944">
        <ele>760.777649</ele>
        <time>2018-05-26T12:28:29Z</time>
      </trkpt>
      <trkpt lat="47.85609" lon="6.75944">
        <ele>760.957336</ele>
        <time>2018-05-26T12:28:30Z</time>
      </trkpt>
      <trkpt lat="47.85607" lon="6.75945">
        <ele>761.223877</ele>
        <time>2018-05-26T12:28:31Z</time>
      </trkpt>
      <trkpt lat="47.85605" lon="6.75946">
        <ele>761.39447</ele>
        <time>2018-05-26T12:28:32Z</time>
      </trkpt>
      <trkpt lat="47.85603" lon="6.75947">
        <ele>761.626465</ele>
        <time>2018-05-26T12:28:33Z</time>
      </trkpt>
      <trkpt lat="47.85601" lon="6.75948">
        <ele>761.696228</ele>
        <time>2018-05-26T12:28:34Z</time>
      </trkpt>
      <trkpt lat="47.856" lon="6.75948">
        <ele>761.761719</ele>
        <time>2018-05-26T12:28:35Z</time>
      </trkpt>
      <trkpt lat="47.85597" lon="6.75949">
        <ele>761.94696</ele>
        <time>2018-05-26T12:28:36Z</time>
      </trkpt>
      <trkpt lat="47.85595" lon="6.7595">
        <ele>762.074524</ele>
        <time>2018-05-26T12:28:37Z</time>
      </trkpt>
      <trkpt lat="47.85593" lon="6.75951">
        <ele>762.208801</ele>
        <time>2018-05-26T12:28:38Z</time>
      </trkpt>
      <trkpt lat="47.8559" lon="6.75952">
        <ele>762.411438</ele>
        <time>2018-05-26T12:28:39Z</time>
      </trkpt>
      <trkpt lat="47.85588" lon="6.75953">
        <ele>762.542908</ele>
        <time>2018-05-26T12:28:40Z</time>
      </trkpt>
      <trkpt lat="47.85585" lon="6.75954">
        <ele>762.734558</ele>
        <time>2018-05-26T12:28:41Z</time>
      </trkpt>
      <trkpt lat="47.85584" lon="6.75956">
        <ele>762.855957</ele>
        <time>2018-05-26T12:28:42Z</time>
      </trkpt>
      <trkpt lat="47.85581" lon="6.75957">
        <ele>762.97052</ele>
        <time>2018-05-26T12:28:43Z</time>
      </trkpt>
      <trkpt lat="47.85579" lon="6.75959">
        <ele>763.139587</ele>
        <time>2018-05-26T12:28:44Z</time>
      </trkpt>
      <trkpt lat="47.85577" lon="6.75961">
        <ele>763.256348</ele>
        <time>2018-05-26T12:28:45Z</time>
      </trkpt>
      <trkpt lat="47.85576" lon="6.75963">
        <ele>763.380798</ele>
        <time>2018-05-26T12:28:46Z</time>
      </trkpt>
      <trkpt lat="47.85574" lon="6.75965">
        <ele>763.587708</ele>
        <time>2018-05-26T12:28:47Z</time>
      </trkpt>
      <trkpt lat="47.85572" lon="6.75968">
        <ele>763.73584</ele>
        <time>2018-05-26T12:28:48Z</time>
      </trkpt>
      <trkpt lat="47.85571" lon="6.7597">
        <ele>763.883362</ele>
        <time>2018-05-26T12:28:49Z</time>
      </trkpt>
      <trkpt lat="47.85569" lon="6.75973">
        <ele>764.095642</ele>
        <time>2018-05-26T12:28:50Z</time>
      </trkpt>
      <trkpt lat="47.85568" lon="6.75976">
        <ele>764.22998</ele>
        <time>2018-05-26T12:28:51Z</time>
      </trkpt>
      <trkpt lat="47.85566" lon="6.75979">
        <ele>764.358093</ele>
        <time>2018-05-26T12:28:52Z</time>
      </trkpt>
      <trkpt lat="47.85564" lon="6.75982">
        <ele>764.474915</ele>
        <time>2018-05-26T12:28:53Z</time>
      </trkpt>
      <trkpt lat="47.85563" lon="6.75985">
        <ele>764.626709</ele>
        <time>2018-05-26T12:28:54Z</time>
      </trkpt>
      <trkpt lat="47.85561" lon="6.75988">
        <ele>764.716492</ele>
        <time>2018-05-26T12:28:55Z</time>
      </trkpt>
      <trkpt lat="47.85559" lon="6.75991">
        <ele>764.799072</ele>
        <time>2018-05-26T12:28:56Z</time>
      </trkpt>
      <trkpt lat="47.85557" lon="6.75994">
        <ele>764.897949</ele>
        <time>2018-05-26T12:28:57Z</time>
      </trkpt>
      <trkpt lat="47.85555" lon="6.75997">
        <ele>764.947266</ele>
        <time>2018-05-26T12:28:58Z</time>
      </trkpt>
      <trkpt lat="47.85553" lon="6.75999">
        <ele>764.990784</ele>
        <time>2018-05-26T12:28:59Z</time>
      </trkpt>
      <trkpt lat="47.8555" lon="6.76002">
        <ele>765.063782</ele>
        <time>2018-05-26T12:29:00Z</time>
      </trkpt>
      <trkpt lat="47.85548" lon="6.76004">
        <ele>765.113098</ele>
        <time>2018-05-26T12:29:01Z</time>
      </trkpt>
      <trkpt lat="47.85545" lon="6.76006">
        <ele>765.156067</ele>
        <time>2018-05-26T12:29:02Z</time>
      </trkpt>
      <trkpt lat="47.85543" lon="6.76008">
        <ele>765.224792</ele>
        <time>2018-05-26T12:29:03Z</time>
      </trkpt>
      <trkpt lat="47.8554" lon="6.7601">
        <ele>765.295837</ele>
        <time>2018-05-26T12:29:04Z</time>
      </trkpt>
      <trkpt lat="47.85537" lon="6.76011">
        <ele>765.385925</ele>
        <time>2018-05-26T12:29:05Z</time>
      </trkpt>
      <trkpt lat="47.85535" lon="6.76012">
        <ele>765.528992</ele>
        <time>2018-05-26T12:29:06Z</time>
      </trkpt>
      <trkpt lat="47.85532" lon="6.76013">
        <ele>765.617371</ele>
        <time>2018-05-26T12:29:07Z</time>
      </trkpt>
      <trkpt lat="47.85529" lon="6.76013">
        <ele>765.742493</ele>
        <time>2018-05-26T12:29:08Z</time>
      </trkpt>
      <trkpt lat="47.85527" lon="6.76013">
        <ele>765.817871</ele>
        <time>2018-05-26T12:29:09Z</time>
      </trkpt>
      <trkpt lat="47.85524" lon="6.76013">
        <ele>765.875732</ele>
        <time>2018-05-26T12:29:10Z</time>
      </trkpt>
      <trkpt lat="47.85521" lon="6.76012">
        <ele>765.920166</ele>
        <time>2018-05-26T12:29:11Z</time>
      </trkpt>
      <trkpt lat="47.85518" lon="6.76012">
        <ele>765.927734</ele>
        <time>2018-05-26T12:29:12Z</time>
      </trkpt>
      <trkpt lat="47.85515" lon="6.76011">
        <ele>765.926575</ele>
        <time>2018-05-26T12:29:13Z</time>
      </trkpt>
      <trkpt lat="47.85512" lon="6.7601">
        <ele>765.921326</ele>
        <time>2018-05-26T12:29:14Z</time>
      </trkpt>
      <trkpt lat="47.85508" lon="6.76009">
        <ele>765.920349</ele>
        <time>2018-05-26T12:29:15Z</time>
      </trkpt>
      <trkpt lat="47.85505" lon="6.7601">
        <ele>765.925598</ele>
        <time>2018-05-26T12:29:16Z</time>
      </trkpt>
      <trkpt lat="47.85501" lon="6.7601">
        <ele>765.93573</ele>
        <time>2018-05-26T12:29:17Z</time>
      </trkpt>
      <trkpt lat="47.85497" lon="6.76011">
        <ele>765.956543</ele>
        <time>2018-05-26T12:29:18Z</time>
      </trkpt>
      <trkpt lat="47.85494" lon="6.76012">
        <ele>765.971741</ele>
        <time>2018-05-26T12:29:19Z</time>
      </trkpt>
      <trkpt lat="47.85489" lon="6.76013">
        <ele>766.00824</ele>
        <time>2018-05-26T12:29:20Z</time>
      </trkpt>
      <trkpt lat="47.85486" lon="6.76015">
        <ele>766.032898</ele>
        <time>2018-05-26T12:29:21Z</time>
      </trkpt>
      <trkpt lat="47.85482" lon="6.76016">
        <ele>766.055481</ele>
        <time>2018-05-26T12:29:22Z</time>
      </trkpt>
      <trkpt lat="47.85478" lon="6.76018">
        <ele>766.0849</ele>
        <time>2018-05-26T12:29:23Z</time>
      </trkpt>
      <trkpt lat="47.85474" lon="6.7602">
        <ele>766.102356</ele>
        <time>2018-05-26T12:29:24Z</time>
      </trkpt>
      <trkpt lat="47.8547" lon="6.76021">
        <ele>766.115417</ele>
        <time>2018-05-26T12:29:25Z</time>
      </trkpt>
      <trkpt lat="47.85466" lon="6.76021">
        <ele>766.11908</ele>
        <time>2018-05-26T12:29:26Z</time>
      </trkpt>
      <trkpt lat="47.85463" lon="6.76022">
        <ele>766.123718</ele>
        <time>2018-05-26T12:29:27Z</time>
      </trkpt>
      <trkpt lat="47.8546" lon="6.76023">
        <ele>766.138977</ele>
        <time>2018-05-26T12:29:28Z</time>
      </trkpt>
      <trkpt lat="47.85456" lon="6.76023">
        <ele>766.1651</ele>
        <time>2018-05-26T12:29:29Z</time>
      </trkpt>
      <trkpt lat="47.85453" lon="6.76023">
        <ele>766.21875</ele>
        <time>2018-05-26T12:29:30Z</time>
      </trkpt>
      <trkpt lat="47.85449" lon="6.76023">
        <ele>766.254211</ele>
        <time>2018-05-26T12:29:31Z</time>
      </trkpt>
      <trkpt lat="47.85446" lon="6.76023">
        <ele>766.287415</ele>
        <time>2018-05-26T12:29:32Z</time>
      </trkpt>
      <trkpt lat="47.85443" lon="6.76022">
        <ele>766.325012</ele>
        <time>2018-05-26T12:29:33Z</time>
      </trkpt>
      <trkpt lat="47.8544" lon="6.76022">
        <ele>766.333496</ele>
        <time>2018-05-26T12:29:34Z</time>
      </trkpt>
      <trkpt lat="47.85436" lon="6.76022">
        <ele>766.333496</ele>
        <time>2018-05-26T12:29:35Z</time>
      </trkpt>
      <trkpt lat="47.85433" lon="6.76021">
        <ele>766.333496</ele>
        <time>2018-05-26T12:29:36Z</time>
      </trkpt>
      <trkpt lat="47.8543" lon="6.7602">
        <ele>766.321838</ele>
        <time>2018-05-26T12:29:37Z</time>
      </trkpt>
      <trkpt lat="47.85426" lon="6.76019">
        <ele>766.320984</ele>
        <time>2018-05-26T12:29:38Z</time>
      </trkpt>
      <trkpt lat="47.85423" lon="6.76018">
        <ele>766.335876</ele>
        <time>2018-05-26T12:29:39Z</time>
      </trkpt>
      <trkpt lat="47.8542" lon="6.76016">
        <ele>766.376953</ele>
        <time>2018-05-26T12:29:40Z</time>
      </trkpt>
      <trkpt lat="47.85416" lon="6.76015">
        <ele>766.469482</ele>
        <time>2018-05-26T12:29:41Z</time>
      </trkpt>
      <trkpt lat="47.85413" lon="6.76014">
        <ele>766.543457</ele>
        <time>2018-05-26T12:29:42Z</time>
      </trkpt>
      <trkpt lat="47.85409" lon="6.76013">
        <ele>766.624939</ele>
        <time>2018-05-26T12:29:43Z</time>
      </trkpt>
      <trkpt lat="47.85406" lon="6.76012">
        <ele>766.768066</ele>
        <time>2018-05-26T12:29:44Z</time>
      </trkpt>
      <trkpt lat="47.85403" lon="6.7601">
        <ele>766.875183</ele>
        <time>2018-05-26T12:29:45Z</time>
      </trkpt>
      <trkpt lat="47.854" lon="6.76009">
        <ele>767.040833</ele>
        <time>2018-05-26T12:29:46Z</time>
      </trkpt>
      <trkpt lat="47.85397" lon="6.76008">
        <ele>767.151306</ele>
        <time>2018-05-26T12:29:47Z</time>
      </trkpt>
      <trkpt lat="47.85394" lon="6.76006">
        <ele>767.263855</ele>
        <time>2018-05-26T12:29:48Z</time>
      </trkpt>
      <trkpt lat="47.85391" lon="6.76005">
        <ele>767.436829</ele>
        <time>2018-05-26T12:29:49Z</time>
      </trkpt>
      <trkpt lat="47.85388" lon="6.76004">
        <ele>767.549316</ele>
        <time>2018-05-26T12:29:50Z</time>
      </trkpt>
      <trkpt lat="47.85384" lon="6.76002">
        <ele>767.697083</ele>
        <time>2018-05-26T12:29:51Z</time>
      </trkpt>
      <trkpt lat="47.85381" lon="6.76001">
        <ele>767.782776</ele>
        <time>2018-05-26T12:29:52Z</time>
      </trkpt>
      <trkpt lat="47.85378" lon="6.75999">
        <ele>767.862244</ele>
        <time>2018-05-26T12:29:53Z</time>
      </trkpt>
      <trkpt lat="47.85375" lon="6.75998">
        <ele>767.971619</ele>
        <time>2018-05-26T12:29:54Z</time>
      </trkpt>
      <trkpt lat="47.85371" lon="6.75998">
        <ele>768.04425</ele>
        <time>2018-05-26T12:29:55Z</time>
      </trkpt>
      <trkpt lat="47.85367" lon="6.75997">
        <ele>768.168274</ele>
        <time>2018-05-26T12:29:56Z</time>
      </trkpt>
      <trkpt lat="47.85363" lon="6.75996">
        <ele>768.262146</ele>
        <time>2018-05-26T12:29:57Z</time>
      </trkpt>
      <trkpt lat="47.8536" lon="6.75995">
        <ele>768.366394</ele>
        <time>2018-05-26T12:29:58Z</time>
      </trkpt>
      <trkpt lat="47.85356" lon="6.75994">
        <ele>768.539734</ele>
        <time>2018-05-26T12:29:59Z</time>
      </trkpt>
      <trkpt lat="47.85353" lon="6.75993">
        <ele>768.659241</ele>
        <time>2018-05-26T12:30:00Z</time>
      </trkpt>
      <trkpt lat="47.85349" lon="6.75992">
        <ele>768.830627</ele>
        <time>2018-05-26T12:30:01Z</time>
      </trkpt>
      <trkpt lat="47.85346" lon="6.75992">
        <ele>768.9375</ele>
        <time>2018-05-26T12:30:02Z</time>
      </trkpt>
      <trkpt lat="47.85342" lon="6.75991">
        <ele>769.037537</ele>
        <time>2018-05-26T12:30:03Z</time>
      </trkpt>
      <trkpt lat="47.85339" lon="6.75991">
        <ele>769.180115</ele>
        <time>2018-05-26T12:30:04Z</time>
      </trkpt>
      <trkpt lat="47.85336" lon="6.7599">
        <ele>769.269348</ele>
        <time>2018-05-26T12:30:05Z</time>
      </trkpt>
      <trkpt lat="47.85333" lon="6.75989">
        <ele>769.401917</ele>
        <time>2018-05-26T12:30:06Z</time>
      </trkpt>
      <trkpt lat="47.8533" lon="6.75989">
        <ele>769.500244</ele>
        <time>2018-05-26T12:30:07Z</time>
      </trkpt>
      <trkpt lat="47.85327" lon="6.75988">
        <ele>769.616638</ele>
        <time>2018-05-26T12:30:08Z</time>
      </trkpt>
      <trkpt lat="47.85325" lon="6.75988">
        <ele>769.833496</ele>
        <time>2018-05-26T12:30:09Z</time>
      </trkpt>
      <trkpt lat="47.85322" lon="6.75987">
        <ele>770.007568</ele>
        <time>2018-05-26T12:30:10Z</time>
      </trkpt>
      <trkpt lat="47.85319" lon="6.75986">
        <ele>770.30719</ele>
        <time>2018-05-26T12:30:11Z</time>
      </trkpt>
      <trkpt lat="47.85317" lon="6.75985">
        <ele>770.514465</ele>
        <time>2018-05-26T12:30:12Z</time>
      </trkpt>
      <trkpt lat="47.85315" lon="6.75984">
        <ele>770.715271</ele>
        <time>2018-05-26T12:30:13Z</time>
      </trkpt>
      <trkpt lat="47.85313" lon="6.75984">
        <ele>770.98291</ele>
        <time>2018-05-26T12:30:14Z</time>
      </trkpt>
      <trkpt lat="47.85311" lon="6.75983">
        <ele>771.148926</ele>
        <time>2018-05-26T12:30:15Z</time>
      </trkpt>
      <trkpt lat="47.85309" lon="6.75983">
        <ele>771.382507</ele>
        <time>2018-05-26T12:30:16Z</time>
      </trkpt>
      <trkpt lat="47.85306" lon="6.75982">
        <ele>771.527893</ele>
        <time>2018-05-26T12:30:17Z</time>
      </trkpt>
      <trkpt lat="47.85304" lon="6.75981">
        <ele>771.661865</ele>
        <time>2018-05-26T12:30:18Z</time>
      </trkpt>
      <trkpt lat="47.85302" lon="6.7598">
        <ele>771.85968</ele>
        <time>2018-05-26T12:30:19Z</time>
      </trkpt>
      <trkpt lat="47.85299" lon="6.7598">
        <ele>771.995117</ele>
        <time>2018-05-26T12:30:20Z</time>
      </trkpt>
      <trkpt lat="47.85297" lon="6.75979">
        <ele>772.134094</ele>
        <time>2018-05-26T12:30:21Z</time>
      </trkpt>
      <trkpt lat="47.85294" lon="6.75978">
        <ele>772.331848</ele>
        <time>2018-05-26T12:30:22Z</time>
      </trkpt>
      <trkpt lat="47.85292" lon="6.75978">
        <ele>772.461243</ele>
        <time>2018-05-26T12:30:23Z</time>
      </trkpt>
      <trkpt lat="47.85289" lon="6.75977">
        <ele>772.666931</ele>
        <time>2018-05-26T12:30:24Z</time>
      </trkpt>
      <trkpt lat="47.85287" lon="6.75976">
        <ele>772.81366</ele>
        <time>2018-05-26T12:30:25Z</time>
      </trkpt>
      <trkpt lat="47.85285" lon="6.75975">
        <ele>772.960876</ele>
        <time>2018-05-26T12:30:26Z</time>
      </trkpt>
      <trkpt lat="47.85283" lon="6.75975">
        <ele>773.17865</ele>
        <time>2018-05-26T12:30:27Z</time>
      </trkpt>
      <trkpt lat="47.8528" lon="6.75974">
        <ele>773.321533</ele>
        <time>2018-05-26T12:30:28Z</time>
      </trkpt>
      <trkpt lat="47.85278" lon="6.75973">
        <ele>773.549316</ele>
        <time>2018-05-26T12:30:29Z</time>
      </trkpt>
      <trkpt lat="47.85276" lon="6.75972">
        <ele>773.711975</ele>
        <time>2018-05-26T12:30:30Z</time>
      </trkpt>
      <trkpt lat="47.85273" lon="6.75972">
        <ele>773.879883</ele>
        <time>2018-05-26T12:30:31Z</time>
      </trkpt>
      <trkpt lat="47.85271" lon="6.75971">
        <ele>774.136414</ele>
        <time>2018-05-26T12:30:32Z</time>
      </trkpt>
      <trkpt lat="47.85269" lon="6.75971">
        <ele>774.315735</ele>
        <time>2018-05-26T12:30:33Z</time>
      </trkpt>
      <trkpt lat="47.85267" lon="6.7597">
        <ele>774.601379</ele>
        <time>2018-05-26T12:30:34Z</time>
      </trkpt>
      <trkpt lat="47.85264" lon="6.75969">
        <ele>774.699219</ele>
        <time>2018-05-26T12:30:35Z</time>
      </trkpt>
      <trkpt lat="47.85262" lon="6.75968">
        <ele>774.796692</ele>
        <time>2018-05-26T12:30:36Z</time>
      </trkpt>
      <trkpt lat="47.85259" lon="6.75968">
        <ele>775.086609</ele>
        <time>2018-05-26T12:30:37Z</time>
      </trkpt>
      <trkpt lat="47.85257" lon="6.75967">
        <ele>775.2771</ele>
        <time>2018-05-26T12:30:38Z</time>
      </trkpt>
      <trkpt lat="47.85255" lon="6.75967">
        <ele>775.463379</ele>
        <time>2018-05-26T12:30:39Z</time>
      </trkpt>
      <trkpt lat="47.85252" lon="6.75966">
        <ele>775.722168</ele>
        <time>2018-05-26T12:30:40Z</time>
      </trkpt>
      <trkpt lat="47.8525" lon="6.75965">
        <ele>775.878418</ele>
        <time>2018-05-26T12:30:41Z</time>
      </trkpt>
      <trkpt lat="47.85248" lon="6.75964">
        <ele>776.093323</ele>
        <time>2018-05-26T12:30:42Z</time>
      </trkpt>
      <trkpt lat="47.85246" lon="6.75964">
        <ele>776.22821</ele>
        <time>2018-05-26T12:30:43Z</time>
      </trkpt>
      <trkpt lat="47.85244" lon="6.75963">
        <ele>776.358887</ele>
        <time>2018-05-26T12:30:44Z</time>
      </trkpt>
      <trkpt lat="47.85241" lon="6.75963">
        <ele>776.552734</ele>
        <time>2018-05-26T12:30:45Z</time>
      </trkpt>
      <trkpt lat="47.85239" lon="6.75962">
        <ele>776.684875</ele>
        <time>2018-05-26T12:30:46Z</time>
      </trkpt>
      <trkpt lat="47.85237" lon="6.75961">
        <ele>776.890808</ele>
        <time>2018-05-26T12:30:47Z</time>
      </trkpt>
      <trkpt lat="47.85235" lon="6.7596">
        <ele>777.027649</ele>
        <time>2018-05-26T12:30:48Z</time>
      </trkpt>
      <trkpt lat="47.85232" lon="6.7596">
        <ele>777.159241</ele>
        <time>2018-05-26T12:30:49Z</time>
      </trkpt>
      <trkpt lat="47.8523" lon="6.75958">
        <ele>777.347168</ele>
        <time>2018-05-26T12:30:50Z</time>
      </trkpt>
      <trkpt lat="47.85228" lon="6.75957">
        <ele>777.467041</ele>
        <time>2018-05-26T12:30:51Z</time>
      </trkpt>
      <trkpt lat="47.85225" lon="6.75955">
        <ele>777.586487</ele>
        <time>2018-05-26T12:30:52Z</time>
      </trkpt>
      <trkpt lat="47.85223" lon="6.75954">
        <ele>777.770203</ele>
        <time>2018-05-26T12:30:53Z</time>
      </trkpt>
      <trkpt lat="47.85222" lon="6.75953">
        <ele>777.900208</ele>
        <time>2018-05-26T12:30:54Z</time>
      </trkpt>
      <trkpt lat="47.85219" lon="6.75952">
        <ele>778.0401</ele>
        <time>2018-05-26T12:30:55Z</time>
      </trkpt>
      <trkpt lat="47.85217" lon="6.7595">
        <ele>778.267822</ele>
        <time>2018-05-26T12:30:56Z</time>
      </trkpt>
      <trkpt lat="47.85215" lon="6.75948">
        <ele>778.414063</ele>
        <time>2018-05-26T12:30:57Z</time>
      </trkpt>
      <trkpt lat="47.85213" lon="6.75946">
        <ele>778.548157</ele>
        <time>2018-05-26T12:30:58Z</time>
      </trkpt>
      <trkpt lat="47.8521" lon="6.75943">
        <ele>778.735352</ele>
        <time>2018-05-26T12:30:59Z</time>
      </trkpt>
      <trkpt lat="47.85209" lon="6.75941">
        <ele>778.864746</ele>
        <time>2018-05-26T12:31:00Z</time>
      </trkpt>
      <trkpt lat="47.85207" lon="6.75938">
        <ele>779.003601</ele>
        <time>2018-05-26T12:31:01Z</time>
      </trkpt>
      <trkpt lat="47.85205" lon="6.75935">
        <ele>779.159668</ele>
        <time>2018-05-26T12:31:02Z</time>
      </trkpt>
      <trkpt lat="47.85204" lon="6.75932">
        <ele>779.427429</ele>
        <time>2018-05-26T12:31:03Z</time>
      </trkpt>
      <trkpt lat="47.85202" lon="6.75929">
        <ele>779.629578</ele>
        <time>2018-05-26T12:31:04Z</time>
      </trkpt>
      <trkpt lat="47.85201" lon="6.75926">
        <ele>779.842957</ele>
        <time>2018-05-26T12:31:05Z</time>
      </trkpt>
      <trkpt lat="47.85199" lon="6.75924">
        <ele>780.175232</ele>
        <time>2018-05-26T12:31:06Z</time>
      </trkpt>
      <trkpt lat="47.85198" lon="6.75921">
        <ele>780.397766</ele>
        <time>2018-05-26T12:31:07Z</time>
      </trkpt>
      <trkpt lat="47.85197" lon="6.75918">
        <ele>780.615784</ele>
        <time>2018-05-26T12:31:08Z</time>
      </trkpt>
      <trkpt lat="47.85196" lon="6.75915">
        <ele>780.90625</ele>
        <time>2018-05-26T12:31:09Z</time>
      </trkpt>
      <trkpt lat="47.85195" lon="6.75912">
        <ele>781.071106</ele>
        <time>2018-05-26T12:31:10Z</time>
      </trkpt>
      <trkpt lat="47.85194" lon="6.75908">
        <ele>781.216797</ele>
        <time>2018-05-26T12:31:11Z</time>
      </trkpt>
      <trkpt lat="47.85192" lon="6.75905">
        <ele>781.411316</ele>
        <time>2018-05-26T12:31:12Z</time>
      </trkpt>
      <trkpt lat="47.85191" lon="6.75902">
        <ele>781.528564</ele>
        <time>2018-05-26T12:31:13Z</time>
      </trkpt>
      <trkpt lat="47.8519" lon="6.75898">
        <ele>781.635925</ele>
        <time>2018-05-26T12:31:14Z</time>
      </trkpt>
      <trkpt lat="47.85189" lon="6.75894">
        <ele>781.782776</ele>
        <time>2018-05-26T12:31:15Z</time>
      </trkpt>
      <trkpt lat="47.85188" lon="6.75891">
        <ele>781.880371</ele>
        <time>2018-05-26T12:31:16Z</time>
      </trkpt>
      <trkpt lat="47.85186" lon="6.75887">
        <ele>781.983398</ele>
        <time>2018-05-26T12:31:17Z</time>
      </trkpt>
      <trkpt lat="47.85185" lon="6.75883">
        <ele>782.148254</ele>
        <time>2018-05-26T12:31:18Z</time>
      </trkpt>
      <trkpt lat="47.85183" lon="6.7588">
        <ele>782.268494</ele>
        <time>2018-05-26T12:31:19Z</time>
      </trkpt>
      <trkpt lat="47.85181" lon="6.75876">
        <ele>782.404602</ele>
        <time>2018-05-26T12:31:20Z</time>
      </trkpt>
      <trkpt lat="47.8518" lon="6.75873">
        <ele>782.634338</ele>
        <time>2018-05-26T12:31:21Z</time>
      </trkpt>
      <trkpt lat="47.85178" lon="6.7587">
        <ele>782.7901</ele>
        <time>2018-05-26T12:31:22Z</time>
      </trkpt>
      <trkpt lat="47.85176" lon="6.75866">
        <ele>782.935059</ele>
        <time>2018-05-26T12:31:23Z</time>
      </trkpt>
      <trkpt lat="47.85175" lon="6.75863">
        <ele>783.125793</ele>
        <time>2018-05-26T12:31:24Z</time>
      </trkpt>
      <trkpt lat="47.85173" lon="6.75859">
        <ele>783.244629</ele>
        <time>2018-05-26T12:31:25Z</time>
      </trkpt>
      <trkpt lat="47.85173" lon="6.75856">
        <ele>783.356262</ele>
        <time>2018-05-26T12:31:26Z</time>
      </trkpt>
      <trkpt lat="47.85172" lon="6.75852">
        <ele>783.503906</ele>
        <time>2018-05-26T12:31:27Z</time>
      </trkpt>
      <trkpt lat="47.8517" lon="6.75849">
        <ele>783.599426</ele>
        <time>2018-05-26T12:31:28Z</time>
      </trkpt>
      <trkpt lat="47.85169" lon="6.75846">
        <ele>783.702454</ele>
        <time>2018-05-26T12:31:29Z</time>
      </trkpt>
      <trkpt lat="47.85167" lon="6.75843">
        <ele>783.815002</ele>
        <time>2018-05-26T12:31:30Z</time>
      </trkpt>
      <trkpt lat="47.85165" lon="6.7584">
        <ele>783.985046</ele>
        <time>2018-05-26T12:31:31Z</time>
      </trkpt>
      <trkpt lat="47.85164" lon="6.75837">
        <ele>784.0896</ele>
        <time>2018-05-26T12:31:32Z</time>
      </trkpt>
      <trkpt lat="47.85164" lon="6.75834">
        <ele>784.18512</ele>
        <time>2018-05-26T12:31:33Z</time>
      </trkpt>
      <trkpt lat="47.85162" lon="6.75831">
        <ele>784.271973</ele>
        <time>2018-05-26T12:31:34Z</time>
      </trkpt>
      <trkpt lat="47.85161" lon="6.75828">
        <ele>784.379089</ele>
        <time>2018-05-26T12:31:35Z</time>
      </trkpt>
      <trkpt lat="47.8516" lon="6.75825">
        <ele>784.40741</ele>
        <time>2018-05-26T12:31:36Z</time>
      </trkpt>
      <trkpt lat="47.85159" lon="6.75822">
        <ele>784.460632</ele>
        <time>2018-05-26T12:31:37Z</time>
      </trkpt>
      <trkpt lat="47.85157" lon="6.75819">
        <ele>784.554688</ele>
        <time>2018-05-26T12:31:38Z</time>
      </trkpt>
      <trkpt lat="47.85156" lon="6.75817">
        <ele>784.644348</ele>
        <time>2018-05-26T12:31:39Z</time>
      </trkpt>
      <trkpt lat="47.85155" lon="6.75814">
        <ele>784.758484</ele>
        <time>2018-05-26T12:31:40Z</time>
      </trkpt>
      <trkpt lat="47.85154" lon="6.75811">
        <ele>784.894714</ele>
        <time>2018-05-26T12:31:41Z</time>
      </trkpt>
      <trkpt lat="47.85153" lon="6.75808">
        <ele>785.138123</ele>
        <time>2018-05-26T12:31:42Z</time>
      </trkpt>
      <trkpt lat="47.85152" lon="6.75805">
        <ele>785.323181</ele>
        <time>2018-05-26T12:31:43Z</time>
      </trkpt>
      <trkpt lat="47.8515" lon="6.75802">
        <ele>785.519043</ele>
        <time>2018-05-26T12:31:44Z</time>
      </trkpt>
      <trkpt lat="47.85149" lon="6.75799">
        <ele>785.820313</ele>
        <time>2018-05-26T12:31:45Z</time>
      </trkpt>
      <trkpt lat="47.85148" lon="6.75796">
        <ele>786.023743</ele>
        <time>2018-05-26T12:31:46Z</time>
      </trkpt>
      <trkpt lat="47.85146" lon="6.75793">
        <ele>786.230042</ele>
        <time>2018-05-26T12:31:47Z</time>
      </trkpt>
      <trkpt lat="47.85146" lon="6.7579">
        <ele>786.441223</ele>
        <time>2018-05-26T12:31:48Z</time>
      </trkpt>
      <trkpt lat="47.85145" lon="6.75788">
        <ele>786.766357</ele>
        <time>2018-05-26T12:31:49Z</time>
      </trkpt>
      <trkpt lat="47.85144" lon="6.75785">
        <ele>786.985046</ele>
        <time>2018-05-26T12:31:50Z</time>
      </trkpt>
      <trkpt lat="47.85143" lon="6.75782">
        <ele>787.195496</ele>
        <time>2018-05-26T12:31:51Z</time>
      </trkpt>
      <trkpt lat="47.85142" lon="6.7578">
        <ele>787.491516</ele>
        <time>2018-05-26T12:31:52Z</time>
      </trkpt>
      <trkpt lat="47.85141" lon="6.75777">
        <ele>787.676941</ele>
        <time>2018-05-26T12:31:53Z</time>
      </trkpt>
      <trkpt lat="47.8514" lon="6.75774">
        <ele>787.854248</ele>
        <time>2018-05-26T12:31:54Z</time>
      </trkpt>
      <trkpt lat="47.85139" lon="6.75771">
        <ele>788.017273</ele>
        <time>2018-05-26T12:31:55Z</time>
      </trkpt>
      <trkpt lat="47.85138" lon="6.75769">
        <ele>788.229309</ele>
        <time>2018-05-26T12:31:56Z</time>
      </trkpt>
      <trkpt lat="47.85137" lon="6.75766">
        <ele>788.352783</ele>
        <time>2018-05-26T12:31:57Z</time>
      </trkpt>
      <trkpt lat="47.85136" lon="6.75763">
        <ele>788.471741</ele>
        <time>2018-05-26T12:31:58Z</time>
      </trkpt>
      <trkpt lat="47.85135" lon="6.75761">
        <ele>788.653564</ele>
        <time>2018-05-26T12:31:59Z</time>
      </trkpt>
      <trkpt lat="47.85135" lon="6.75758">
        <ele>788.782471</ele>
        <time>2018-05-26T12:32:00Z</time>
      </trkpt>
      <trkpt lat="47.85134" lon="6.75756">
        <ele>788.918945</ele>
        <time>2018-05-26T12:32:01Z</time>
      </trkpt>
      <trkpt lat="47.85133" lon="6.75753">
        <ele>789.065002</ele>
        <time>2018-05-26T12:32:02Z</time>
      </trkpt>
      <trkpt lat="47.85132" lon="6.7575">
        <ele>789.223389</ele>
        <time>2018-05-26T12:32:03Z</time>
      </trkpt>
      <trkpt lat="47.85132" lon="6.75748">
        <ele>789.487854</ele>
        <time>2018-05-26T12:32:04Z</time>
      </trkpt>
      <trkpt lat="47.85131" lon="6.75745">
        <ele>789.674866</ele>
        <time>2018-05-26T12:32:05Z</time>
      </trkpt>
      <trkpt lat="47.8513" lon="6.75743">
        <ele>789.867981</ele>
        <time>2018-05-26T12:32:06Z</time>
      </trkpt>
      <trkpt lat="47.8513" lon="6.75741">
        <ele>790.068176</ele>
        <time>2018-05-26T12:32:07Z</time>
      </trkpt>
      <trkpt lat="47.85128" lon="6.75738">
        <ele>790.370117</ele>
        <time>2018-05-26T12:32:08Z</time>
      </trkpt>
      <trkpt lat="47.85127" lon="6.75736">
        <ele>790.560364</ele>
        <time>2018-05-26T12:32:09Z</time>
      </trkpt>
      <trkpt lat="47.85126" lon="6.75734">
        <ele>790.735779</ele>
        <time>2018-05-26T12:32:10Z</time>
      </trkpt>
      <trkpt lat="47.85125" lon="6.75731">
        <ele>790.897766</ele>
        <time>2018-05-26T12:32:11Z</time>
      </trkpt>
      <trkpt lat="47.85125" lon="6.75729">
        <ele>791.118164</ele>
        <time>2018-05-26T12:32:12Z</time>
      </trkpt>
      <trkpt lat="47.85124" lon="6.75726">
        <ele>791.254089</ele>
        <time>2018-05-26T12:32:13Z</time>
      </trkpt>
      <trkpt lat="47.85123" lon="6.75723">
        <ele>791.389893</ele>
        <time>2018-05-26T12:32:14Z</time>
      </trkpt>
      <trkpt lat="47.85122" lon="6.7572">
        <ele>791.600647</ele>
        <time>2018-05-26T12:32:15Z</time>
      </trkpt>
      <trkpt lat="47.8512" lon="6.75717">
        <ele>791.741699</ele>
        <time>2018-05-26T12:32:16Z</time>
      </trkpt>
      <trkpt lat="47.8512" lon="6.75714">
        <ele>791.880188</ele>
        <time>2018-05-26T12:32:17Z</time>
      </trkpt>
      <trkpt lat="47.85119" lon="6.75711">
        <ele>792.09082</ele>
        <time>2018-05-26T12:32:18Z</time>
      </trkpt>
      <trkpt lat="47.85118" lon="6.75708">
        <ele>792.230652</ele>
        <time>2018-05-26T12:32:19Z</time>
      </trkpt>
      <trkpt lat="47.85117" lon="6.75704">
        <ele>792.361023</ele>
        <time>2018-05-26T12:32:20Z</time>
      </trkpt>
      <trkpt lat="47.85117" lon="6.75701">
        <ele>792.520081</ele>
        <time>2018-05-26T12:32:21Z</time>
      </trkpt>
      <trkpt lat="47.85117" lon="6.75698">
        <ele>792.606995</ele>
        <time>2018-05-26T12:32:22Z</time>
      </trkpt>
      <trkpt lat="47.85116" lon="6.75695">
        <ele>792.694641</ele>
        <time>2018-05-26T12:32:23Z</time>
      </trkpt>
      <trkpt lat="47.85115" lon="6.75691">
        <ele>792.842102</ele>
        <time>2018-05-26T12:32:24Z</time>
      </trkpt>
      <trkpt lat="47.85114" lon="6.75688">
        <ele>792.937988</ele>
        <time>2018-05-26T12:32:25Z</time>
      </trkpt>
      <trkpt lat="47.85114" lon="6.75684">
        <ele>793.019836</ele>
        <time>2018-05-26T12:32:26Z</time>
      </trkpt>
      <trkpt lat="47.85113" lon="6.7568">
        <ele>793.133301</ele>
        <time>2018-05-26T12:32:27Z</time>
      </trkpt>
      <trkpt lat="47.85112" lon="6.75676">
        <ele>793.214417</ele>
        <time>2018-05-26T12:32:28Z</time>
      </trkpt>
      <trkpt lat="47.85111" lon="6.75673">
        <ele>793.301025</ele>
        <time>2018-05-26T12:32:29Z</time>
      </trkpt>
      <trkpt lat="47.85111" lon="6.75669">
        <ele>793.421204</ele>
        <time>2018-05-26T12:32:30Z</time>
      </trkpt>
      <trkpt lat="47.85109" lon="6.75665">
        <ele>793.493591</ele>
        <time>2018-05-26T12:32:31Z</time>
      </trkpt>
      <trkpt lat="47.85109" lon="6.75662">
        <ele>793.565491</ele>
        <time>2018-05-26T12:32:32Z</time>
      </trkpt>
      <trkpt lat="47.85107" lon="6.75658">
        <ele>793.643005</ele>
        <time>2018-05-26T12:32:33Z</time>
      </trkpt>
      <trkpt lat="47.85106" lon="6.75654">
        <ele>793.767761</ele>
        <time>2018-05-26T12:32:34Z</time>
      </trkpt>
      <trkpt lat="47.85105" lon="6.75651">
        <ele>793.857361</ele>
        <time>2018-05-26T12:32:35Z</time>
      </trkpt>
      <trkpt lat="47.85104" lon="6.75647">
        <ele>793.952942</ele>
        <time>2018-05-26T12:32:36Z</time>
      </trkpt>
      <trkpt lat="47.85103" lon="6.75643">
        <ele>794.001465</ele>
        <time>2018-05-26T12:32:37Z</time>
      </trkpt>
      <trkpt lat="47.85102" lon="6.75639">
        <ele>794.139832</ele>
        <time>2018-05-26T12:32:38Z</time>
      </trkpt>
      <trkpt lat="47.85101" lon="6.75634">
        <ele>794.222351</ele>
        <time>2018-05-26T12:32:39Z</time>
      </trkpt>
      <trkpt lat="47.851" lon="6.7563">
        <ele>794.295898</ele>
        <time>2018-05-26T12:32:40Z</time>
      </trkpt>
      <trkpt lat="47.85099" lon="6.75626">
        <ele>794.383301</ele>
        <time>2018-05-26T12:32:41Z</time>
      </trkpt>
      <trkpt lat="47.85098" lon="6.75621">
        <ele>794.42218</ele>
        <time>2018-05-26T12:32:42Z</time>
      </trkpt>
      <trkpt lat="47.85097" lon="6.75617">
        <ele>794.449158</ele>
        <time>2018-05-26T12:32:43Z</time>
      </trkpt>
      <trkpt lat="47.85096" lon="6.75612">
        <ele>794.485596</ele>
        <time>2018-05-26T12:32:44Z</time>
      </trkpt>
      <trkpt lat="47.85095" lon="6.75608">
        <ele>794.509705</ele>
        <time>2018-05-26T12:32:45Z</time>
      </trkpt>
      <trkpt lat="47.85094" lon="6.75603">
        <ele>794.531982</ele>
        <time>2018-05-26T12:32:46Z</time>
      </trkpt>
      <trkpt lat="47.85094" lon="6.75598">
        <ele>794.577087</ele>
        <time>2018-05-26T12:32:47Z</time>
      </trkpt>
      <trkpt lat="47.85094" lon="6.75593">
        <ele>794.625427</ele>
        <time>2018-05-26T12:32:48Z</time>
      </trkpt>
      <trkpt lat="47.85094" lon="6.75587">
        <ele>794.680969</ele>
        <time>2018-05-26T12:32:49Z</time>
      </trkpt>
      <trkpt lat="47.85094" lon="6.75582">
        <ele>794.754089</ele>
        <time>2018-05-26T12:32:50Z</time>
      </trkpt>
      <trkpt lat="47.85094" lon="6.75577">
        <ele>794.788147</ele>
        <time>2018-05-26T12:32:51Z</time>
      </trkpt>
      <trkpt lat="47.85094" lon="6.75571">
        <ele>794.820557</ele>
        <time>2018-05-26T12:32:52Z</time>
      </trkpt>
      <trkpt lat="47.85095" lon="6.75566">
        <ele>794.873718</ele>
        <time>2018-05-26T12:32:53Z</time>
      </trkpt>
      <trkpt lat="47.85095" lon="6.7556">
        <ele>794.911804</ele>
        <time>2018-05-26T12:32:54Z</time>
      </trkpt>
      <trkpt lat="47.85095" lon="6.75555">
        <ele>794.950928</ele>
        <time>2018-05-26T12:32:55Z</time>
      </trkpt>
      <trkpt lat="47.85095" lon="6.7555">
        <ele>795.030457</ele>
        <time>2018-05-26T12:32:56Z</time>
      </trkpt>
      <trkpt lat="47.85096" lon="6.75545">
        <ele>795.096497</ele>
        <time>2018-05-26T12:32:57Z</time>
      </trkpt>
      <trkpt lat="47.85096" lon="6.7554">
        <ele>795.16748</ele>
        <time>2018-05-26T12:32:58Z</time>
      </trkpt>
      <trkpt lat="47.85097" lon="6.75535">
        <ele>795.270081</ele>
        <time>2018-05-26T12:32:59Z</time>
      </trkpt>
      <trkpt lat="47.85097" lon="6.75529">
        <ele>795.337952</ele>
        <time>2018-05-26T12:33:00Z</time>
      </trkpt>
      <trkpt lat="47.85097" lon="6.75524">
        <ele>795.408508</ele>
        <time>2018-05-26T12:33:01Z</time>
      </trkpt>
      <trkpt lat="47.85098" lon="6.75519">
        <ele>795.515625</ele>
        <time>2018-05-26T12:33:02Z</time>
      </trkpt>
      <trkpt lat="47.85098" lon="6.75515">
        <ele>795.579834</ele>
        <time>2018-05-26T12:33:03Z</time>
      </trkpt>
      <trkpt lat="47.85099" lon="6.7551">
        <ele>795.643066</ele>
        <time>2018-05-26T12:33:04Z</time>
      </trkpt>
      <trkpt lat="47.85099" lon="6.75505">
        <ele>795.752197</ele>
        <time>2018-05-26T12:33:05Z</time>
      </trkpt>
      <trkpt lat="47.851" lon="6.755">
        <ele>795.837341</ele>
        <time>2018-05-26T12:33:06Z</time>
      </trkpt>
      <trkpt lat="47.85101" lon="6.75495">
        <ele>795.924377</ele>
        <time>2018-05-26T12:33:07Z</time>
      </trkpt>
      <trkpt lat="47.85101" lon="6.7549">
        <ele>796.007507</ele>
        <time>2018-05-26T12:33:08Z</time>
      </trkpt>
      <trkpt lat="47.85101" lon="6.75486">
        <ele>796.120789</ele>
        <time>2018-05-26T12:33:09Z</time>
      </trkpt>
      <trkpt lat="47.85101" lon="6.7548">
        <ele>796.190002</ele>
        <time>2018-05-26T12:33:10Z</time>
      </trkpt>
      <trkpt lat="47.851" lon="6.75475">
        <ele>796.252869</ele>
        <time>2018-05-26T12:33:11Z</time>
      </trkpt>
      <trkpt lat="47.85099" lon="6.7547">
        <ele>796.334229</ele>
        <time>2018-05-26T12:33:12Z</time>
      </trkpt>
      <trkpt lat="47.85099" lon="6.75465">
        <ele>796.379883</ele>
        <time>2018-05-26T12:33:13Z</time>
      </trkpt>
      <trkpt lat="47.851" lon="6.7546">
        <ele>796.425781</ele>
        <time>2018-05-26T12:33:14Z</time>
      </trkpt>
      <trkpt lat="47.851" lon="6.75455">
        <ele>796.478271</ele>
        <time>2018-05-26T12:33:15Z</time>
      </trkpt>
      <trkpt lat="47.851" lon="6.75451">
        <ele>796.577637</ele>
        <time>2018-05-26T12:33:16Z</time>
      </trkpt>
      <trkpt lat="47.851" lon="6.75446">
        <ele>796.658447</ele>
        <time>2018-05-26T12:33:17Z</time>
      </trkpt>
      <trkpt lat="47.851" lon="6.75441">
        <ele>796.754944</ele>
        <time>2018-05-26T12:33:18Z</time>
      </trkpt>
      <trkpt lat="47.851" lon="6.75436">
        <ele>796.921692</ele>
        <time>2018-05-26T12:33:19Z</time>
      </trkpt>
      <trkpt lat="47.85099" lon="6.75431">
        <ele>797.03717</ele>
        <time>2018-05-26T12:33:20Z</time>
      </trkpt>
      <trkpt lat="47.85099" lon="6.75426">
        <ele>797.15033</ele>
        <time>2018-05-26T12:33:21Z</time>
      </trkpt>
      <trkpt lat="47.85098" lon="6.75421">
        <ele>797.314148</ele>
        <time>2018-05-26T12:33:22Z</time>
      </trkpt>
      <trkpt lat="47.85097" lon="6.75417">
        <ele>797.423157</ele>
        <time>2018-05-26T12:33:23Z</time>
      </trkpt>
      <trkpt lat="47.85096" lon="6.75412">
        <ele>797.53656</ele>
        <time>2018-05-26T12:33:24Z</time>
      </trkpt>
      <trkpt lat="47.85095" lon="6.75408">
        <ele>797.65387</ele>
        <time>2018-05-26T12:33:25Z</time>
      </trkpt>
      <trkpt lat="47.85095" lon="6.75404">
        <ele>797.83429</ele>
        <time>2018-05-26T12:33:26Z</time>
      </trkpt>
      <trkpt lat="47.85093" lon="6.75399">
        <ele>797.953613</ele>
        <time>2018-05-26T12:33:27Z</time>
      </trkpt>
      <trkpt lat="47.85092" lon="6.75395">
        <ele>798.070618</ele>
        <time>2018-05-26T12:33:28Z</time>
      </trkpt>
      <trkpt lat="47.85091" lon="6.75391">
        <ele>798.191711</ele>
        <time>2018-05-26T12:33:29Z</time>
      </trkpt>
      <trkpt lat="47.8509" lon="6.75387">
        <ele>798.392151</ele>
        <time>2018-05-26T12:33:30Z</time>
      </trkpt>
      <trkpt lat="47.85088" lon="6.75383">
        <ele>798.544922</ele>
        <time>2018-05-26T12:33:31Z</time>
      </trkpt>
      <trkpt lat="47.85087" lon="6.75379">
        <ele>798.710876</ele>
        <time>2018-05-26T12:33:32Z</time>
      </trkpt>
      <trkpt lat="47.85086" lon="6.75375">
        <ele>798.984192</ele>
        <time>2018-05-26T12:33:33Z</time>
      </trkpt>
      <trkpt lat="47.85085" lon="6.75371">
        <ele>799.175049</ele>
        <time>2018-05-26T12:33:34Z</time>
      </trkpt>
      <trkpt lat="47.85084" lon="6.75367">
        <ele>799.36377</ele>
        <time>2018-05-26T12:33:35Z</time>
      </trkpt>
      <trkpt lat="47.85082" lon="6.75363">
        <ele>799.545593</ele>
        <time>2018-05-26T12:33:36Z</time>
      </trkpt>
      <trkpt lat="47.85082" lon="6.75359">
        <ele>799.808838</ele>
        <time>2018-05-26T12:33:37Z</time>
      </trkpt>
      <trkpt lat="47.8508" lon="6.75356">
        <ele>799.894348</ele>
        <time>2018-05-26T12:33:38Z</time>
      </trkpt>
      <trkpt lat="47.85079" lon="6.75352">
        <ele>799.894348</ele>
        <time>2018-05-26T12:33:39Z</time>
      </trkpt>
      <trkpt lat="47.85078" lon="6.75349">
        <ele>800.064941</ele>
        <time>2018-05-26T12:33:40Z</time>
      </trkpt>
      <trkpt lat="47.85077" lon="6.75346">
        <ele>800.239746</ele>
        <time>2018-05-26T12:33:41Z</time>
      </trkpt>
      <trkpt lat="47.85075" lon="6.75342">
        <ele>800.420166</ele>
        <time>2018-05-26T12:33:42Z</time>
      </trkpt>
      <trkpt lat="47.85074" lon="6.75339">
        <ele>800.689941</ele>
        <time>2018-05-26T12:33:43Z</time>
      </trkpt>
      <trkpt lat="47.85073" lon="6.75336">
        <ele>800.870789</ele>
        <time>2018-05-26T12:33:44Z</time>
      </trkpt>
      <trkpt lat="47.85072" lon="6.75333">
        <ele>801.061218</ele>
        <time>2018-05-26T12:33:45Z</time>
      </trkpt>
      <trkpt lat="47.8507" lon="6.75329">
        <ele>801.266541</ele>
        <time>2018-05-26T12:33:46Z</time>
      </trkpt>
      <trkpt lat="47.85069" lon="6.75326">
        <ele>801.586914</ele>
        <time>2018-05-26T12:33:47Z</time>
      </trkpt>
      <trkpt lat="47.85068" lon="6.75323">
        <ele>801.794678</ele>
        <time>2018-05-26T12:33:48Z</time>
      </trkpt>
      <trkpt lat="47.85066" lon="6.7532">
        <ele>801.992615</ele>
        <time>2018-05-26T12:33:49Z</time>
      </trkpt>
      <trkpt lat="47.85064" lon="6.75317">
        <ele>802.281433</ele>
        <time>2018-05-26T12:33:50Z</time>
      </trkpt>
      <trkpt lat="47.85063" lon="6.75314">
        <ele>802.470459</ele>
        <time>2018-05-26T12:33:51Z</time>
      </trkpt>
      <trkpt lat="47.85062" lon="6.75311">
        <ele>802.652283</ele>
        <time>2018-05-26T12:33:52Z</time>
      </trkpt>
      <trkpt lat="47.8506" lon="6.75308">
        <ele>802.909485</ele>
        <time>2018-05-26T12:33:53Z</time>
      </trkpt>
      <trkpt lat="47.85059" lon="6.75305">
        <ele>803.07428</ele>
        <time>2018-05-26T12:33:54Z</time>
      </trkpt>
      <trkpt lat="47.85057" lon="6.75303">
        <ele>803.237122</ele>
        <time>2018-05-26T12:33:55Z</time>
      </trkpt>
      <trkpt lat="47.85056" lon="6.753">
        <ele>803.39447</ele>
        <time>2018-05-26T12:33:56Z</time>
      </trkpt>
      <trkpt lat="47.85055" lon="6.75298">
        <ele>803.616943</ele>
        <time>2018-05-26T12:33:57Z</time>
      </trkpt>
      <trkpt lat="47.85053" lon="6.75295">
        <ele>803.756409</ele>
        <time>2018-05-26T12:33:58Z</time>
      </trkpt>
      <trkpt lat="47.85052" lon="6.75292">
        <ele>803.894287</ele>
        <time>2018-05-26T12:33:59Z</time>
      </trkpt>
      <trkpt lat="47.85049" lon="6.7529">
        <ele>804.098816</ele>
        <time>2018-05-26T12:34:00Z</time>
      </trkpt>
      <trkpt lat="47.85048" lon="6.75287">
        <ele>804.23761</ele>
        <time>2018-05-26T12:34:01Z</time>
      </trkpt>
      <trkpt lat="47.85046" lon="6.75285">
        <ele>804.383728</ele>
        <time>2018-05-26T12:34:02Z</time>
      </trkpt>
      <trkpt lat="47.85045" lon="6.75282">
        <ele>804.627014</ele>
        <time>2018-05-26T12:34:03Z</time>
      </trkpt>
      <trkpt lat="47.85042" lon="6.7528">
        <ele>804.802246</ele>
        <time>2018-05-26T12:34:04Z</time>
      </trkpt>
      <trkpt lat="47.8504" lon="6.75278">
        <ele>804.978821</ele>
        <time>2018-05-26T12:34:05Z</time>
      </trkpt>
      <trkpt lat="47.85038" lon="6.75277">
        <ele>805.250244</ele>
        <time>2018-05-26T12:34:06Z</time>
      </trkpt>
      <trkpt lat="47.85037" lon="6.75276">
        <ele>805.435974</ele>
        <time>2018-05-26T12:34:07Z</time>
      </trkpt>
      <trkpt lat="47.85035" lon="6.75274">
        <ele>805.619568</ele>
        <time>2018-05-26T12:34:08Z</time>
      </trkpt>
      <trkpt lat="47.85032" lon="6.75273">
        <ele>805.877625</ele>
        <time>2018-05-26T12:34:09Z</time>
      </trkpt>
      <trkpt lat="47.8503" lon="6.75272">
        <ele>806.03302</ele>
        <time>2018-05-26T12:34:10Z</time>
      </trkpt>
      <trkpt lat="47.85028" lon="6.75271">
        <ele>806.180847</ele>
        <time>2018-05-26T12:34:11Z</time>
      </trkpt>
      <trkpt lat="47.85026" lon="6.75269">
        <ele>806.411133</ele>
        <time>2018-05-26T12:34:12Z</time>
      </trkpt>
      <trkpt lat="47.85024" lon="6.75268">
        <ele>806.574158</ele>
        <time>2018-05-26T12:34:13Z</time>
      </trkpt>
      <trkpt lat="47.85022" lon="6.75267">
        <ele>806.743591</ele>
        <time>2018-05-26T12:34:14Z</time>
      </trkpt>
      <trkpt lat="47.8502" lon="6.75266">
        <ele>807.006897</ele>
        <time>2018-05-26T12:34:15Z</time>
      </trkpt>
      <trkpt lat="47.85017" lon="6.75265">
        <ele>807.18457</ele>
        <time>2018-05-26T12:34:16Z</time>
      </trkpt>
      <trkpt lat="47.85016" lon="6.75264">
        <ele>807.353577</ele>
        <time>2018-05-26T12:34:17Z</time>
      </trkpt>
      <trkpt lat="47.85013" lon="6.75263">
        <ele>807.587891</ele>
        <time>2018-05-26T12:34:18Z</time>
      </trkpt>
      <trkpt lat="47.85012" lon="6.75262">
        <ele>807.736633</ele>
        <time>2018-05-26T12:34:19Z</time>
      </trkpt>
      <trkpt lat="47.8501" lon="6.75262">
        <ele>807.881531</ele>
        <time>2018-05-26T12:34:20Z</time>
      </trkpt>
      <trkpt lat="47.85007" lon="6.75261">
        <ele>808.083984</ele>
        <time>2018-05-26T12:34:21Z</time>
      </trkpt>
      <trkpt lat="47.85005" lon="6.7526">
        <ele>808.211487</ele>
        <time>2018-05-26T12:34:22Z</time>
      </trkpt>
      <trkpt lat="47.85003" lon="6.7526">
        <ele>808.402344</ele>
        <time>2018-05-26T12:34:23Z</time>
      </trkpt>
      <trkpt lat="47.85002" lon="6.7526">
        <ele>808.534729</ele>
        <time>2018-05-26T12:34:24Z</time>
      </trkpt>
      <trkpt lat="47.85" lon="6.7526">
        <ele>808.667419</ele>
        <time>2018-05-26T12:34:25Z</time>
      </trkpt>
      <trkpt lat="47.84998" lon="6.7526">
        <ele>808.865051</ele>
        <time>2018-05-26T12:34:26Z</time>
      </trkpt>
      <trkpt lat="47.84996" lon="6.7526">
        <ele>808.996155</ele>
        <time>2018-05-26T12:34:27Z</time>
      </trkpt>
      <trkpt lat="47.84995" lon="6.75259">
        <ele>809.200684</ele>
        <time>2018-05-26T12:34:28Z</time>
      </trkpt>
      <trkpt lat="47.84993" lon="6.75259">
        <ele>809.34552</ele>
        <time>2018-05-26T12:34:29Z</time>
      </trkpt>
      <trkpt lat="47.84991" lon="6.75259">
        <ele>809.497375</ele>
        <time>2018-05-26T12:34:30Z</time>
      </trkpt>
      <trkpt lat="47.84988" lon="6.75259">
        <ele>809.737793</ele>
        <time>2018-05-26T12:34:31Z</time>
      </trkpt>
      <trkpt lat="47.84987" lon="6.7526">
        <ele>809.900879</ele>
        <time>2018-05-26T12:34:32Z</time>
      </trkpt>
      <trkpt lat="47.84984" lon="6.7526">
        <ele>810.131653</ele>
        <time>2018-05-26T12:34:33Z</time>
      </trkpt>
      <trkpt lat="47.84982" lon="6.7526">
        <ele>810.277832</ele>
        <time>2018-05-26T12:34:34Z</time>
      </trkpt>
      <trkpt lat="47.8498" lon="6.7526">
        <ele>810.425476</ele>
        <time>2018-05-26T12:34:35Z</time>
      </trkpt>
      <trkpt lat="47.84978" lon="6.75261">
        <ele>810.649109</ele>
        <time>2018-05-26T12:34:36Z</time>
      </trkpt>
      <trkpt lat="47.84976" lon="6.75261">
        <ele>810.792175</ele>
        <time>2018-05-26T12:34:37Z</time>
      </trkpt>
      <trkpt lat="47.84974" lon="6.75261">
        <ele>810.989563</ele>
        <time>2018-05-26T12:34:38Z</time>
      </trkpt>
      <trkpt lat="47.84972" lon="6.75261">
        <ele>811.052734</ele>
        <time>2018-05-26T12:34:39Z</time>
      </trkpt>
      <trkpt lat="47.8497" lon="6.75261">
        <ele>811.238525</ele>
        <time>2018-05-26T12:34:40Z</time>
      </trkpt>
      <trkpt lat="47.84968" lon="6.75261">
        <ele>811.363708</ele>
        <time>2018-05-26T12:34:41Z</time>
      </trkpt>
      <trkpt lat="47.84966" lon="6.75261">
        <ele>811.492004</ele>
        <time>2018-05-26T12:34:42Z</time>
      </trkpt>
      <trkpt lat="47.84964" lon="6.75261">
        <ele>811.698486</ele>
        <time>2018-05-26T12:34:43Z</time>
      </trkpt>
      <trkpt lat="47.84961" lon="6.75261">
        <ele>811.843018</ele>
        <time>2018-05-26T12:34:44Z</time>
      </trkpt>
      <trkpt lat="47.84959" lon="6.75261">
        <ele>812.054749</ele>
        <time>2018-05-26T12:34:45Z</time>
      </trkpt>
      <trkpt lat="47.84957" lon="6.75261">
        <ele>812.185791</ele>
        <time>2018-05-26T12:34:46Z</time>
      </trkpt>
      <trkpt lat="47.84954" lon="6.75261">
        <ele>812.311584</ele>
        <time>2018-05-26T12:34:47Z</time>
      </trkpt>
      <trkpt lat="47.84952" lon="6.75261">
        <ele>812.49884</ele>
        <time>2018-05-26T12:34:48Z</time>
      </trkpt>
      <trkpt lat="47.8495" lon="6.75261">
        <ele>812.620667</ele>
        <time>2018-05-26T12:34:49Z</time>
      </trkpt>
      <trkpt lat="47.84948" lon="6.75262">
        <ele>812.795654</ele>
        <time>2018-05-26T12:34:50Z</time>
      </trkpt>
      <trkpt lat="47.84946" lon="6.75262">
        <ele>812.915344</ele>
        <time>2018-05-26T12:34:51Z</time>
      </trkpt>
      <trkpt lat="47.84944" lon="6.75262">
        <ele>813.04364</ele>
        <time>2018-05-26T12:34:52Z</time>
      </trkpt>
      <trkpt lat="47.84942" lon="6.75262">
        <ele>813.250427</ele>
        <time>2018-05-26T12:34:53Z</time>
      </trkpt>
      <trkpt lat="47.8494" lon="6.75262">
        <ele>813.391602</ele>
        <time>2018-05-26T12:34:54Z</time>
      </trkpt>
      <trkpt lat="47.84937" lon="6.75263">
        <ele>813.609558</ele>
        <time>2018-05-26T12:34:55Z</time>
      </trkpt>
      <trkpt lat="47.84935" lon="6.75262">
        <ele>813.759094</ele>
        <time>2018-05-26T12:34:56Z</time>
      </trkpt>
      <trkpt lat="47.84932" lon="6.75262">
        <ele>813.908752</ele>
        <time>2018-05-26T12:34:57Z</time>
      </trkpt>
      <trkpt lat="47.8493" lon="6.75262">
        <ele>814.136536</ele>
        <time>2018-05-26T12:34:58Z</time>
      </trkpt>
      <trkpt lat="47.84928" lon="6.75262">
        <ele>814.291809</ele>
        <time>2018-05-26T12:34:59Z</time>
      </trkpt>
      <trkpt lat="47.84925" lon="6.75262">
        <ele>814.517639</ele>
        <time>2018-05-26T12:35:00Z</time>
      </trkpt>
      <trkpt lat="47.84923" lon="6.75262">
        <ele>814.660339</ele>
        <time>2018-05-26T12:35:01Z</time>
      </trkpt>
      <trkpt lat="47.84921" lon="6.75262">
        <ele>814.805359</ele>
        <time>2018-05-26T12:35:02Z</time>
      </trkpt>
      <trkpt lat="47.84918" lon="6.75262">
        <ele>815.032532</ele>
        <time>2018-05-26T12:35:03Z</time>
      </trkpt>
      <trkpt lat="47.84916" lon="6.75262">
        <ele>815.191406</ele>
        <time>2018-05-26T12:35:04Z</time>
      </trkpt>
      <trkpt lat="47.84913" lon="6.75262">
        <ele>815.436584</ele>
        <time>2018-05-26T12:35:05Z</time>
      </trkpt>
      <trkpt lat="47.84911" lon="6.75262">
        <ele>815.598877</ele>
        <time>2018-05-26T12:35:06Z</time>
      </trkpt>
      <trkpt lat="47.84908" lon="6.75262">
        <ele>815.759094</ele>
        <time>2018-05-26T12:35:07Z</time>
      </trkpt>
      <trkpt lat="47.84905" lon="6.75263">
        <ele>815.993713</ele>
        <time>2018-05-26T12:35:08Z</time>
      </trkpt>
      <trkpt lat="47.84903" lon="6.75264">
        <ele>816.148743</ele>
        <time>2018-05-26T12:35:09Z</time>
      </trkpt>
      <trkpt lat="47.84901" lon="6.75264">
        <ele>816.389954</ele>
        <time>2018-05-26T12:35:10Z</time>
      </trkpt>
      <trkpt lat="47.84899" lon="6.75264">
        <ele>816.557617</ele>
        <time>2018-05-26T12:35:11Z</time>
      </trkpt>
      <trkpt lat="47.84896" lon="6.75264">
        <ele>816.731873</ele>
        <time>2018-05-26T12:35:12Z</time>
      </trkpt>
      <trkpt lat="47.84894" lon="6.75265">
        <ele>817.006531</ele>
        <time>2018-05-26T12:35:13Z</time>
      </trkpt>
      <trkpt lat="47.84892" lon="6.75265">
        <ele>817.197754</ele>
        <time>2018-05-26T12:35:14Z</time>
      </trkpt>
      <trkpt lat="47.84889" lon="6.75266">
        <ele>817.482849</ele>
        <time>2018-05-26T12:35:15Z</time>
      </trkpt>
      <trkpt lat="47.84887" lon="6.75267">
        <ele>817.662903</ele>
        <time>2018-05-26T12:35:16Z</time>
      </trkpt>
      <trkpt lat="47.84885" lon="6.75267">
        <ele>817.828613</ele>
        <time>2018-05-26T12:35:17Z</time>
      </trkpt>
      <trkpt lat="47.84883" lon="6.75268">
        <ele>818.061462</ele>
        <time>2018-05-26T12:35:18Z</time>
      </trkpt>
      <trkpt lat="47.84881" lon="6.75269">
        <ele>818.212891</ele>
        <time>2018-05-26T12:35:19Z</time>
      </trkpt>
      <trkpt lat="47.84879" lon="6.7527">
        <ele>818.36676</ele>
        <time>2018-05-26T12:35:20Z</time>
      </trkpt>
      <trkpt lat="47.84877" lon="6.75271">
        <ele>818.598633</ele>
        <time>2018-05-26T12:35:21Z</time>
      </trkpt>
      <trkpt lat="47.84876" lon="6.75273">
        <ele>818.755676</ele>
        <time>2018-05-26T12:35:22Z</time>
      </trkpt>
      <trkpt lat="47.84874" lon="6.75274">
        <ele>818.913147</ele>
        <time>2018-05-26T12:35:23Z</time>
      </trkpt>
      <trkpt lat="47.84873" lon="6.75275">
        <ele>819.139465</ele>
        <time>2018-05-26T12:35:24Z</time>
      </trkpt>
      <trkpt lat="47.84871" lon="6.75277">
        <ele>819.273254</ele>
        <time>2018-05-26T12:35:25Z</time>
      </trkpt>
      <trkpt lat="47.84869" lon="6.75278">
        <ele>819.397705</ele>
        <time>2018-05-26T12:35:26Z</time>
      </trkpt>
      <trkpt lat="47.84867" lon="6.75279">
        <ele>819.577454</ele>
        <time>2018-05-26T12:35:27Z</time>
      </trkpt>
      <trkpt lat="47.84864" lon="6.7528">
        <ele>819.694885</ele>
        <time>2018-05-26T12:35:28Z</time>
      </trkpt>
      <trkpt lat="47.84861" lon="6.75282">
        <ele>819.806946</ele>
        <time>2018-05-26T12:35:29Z</time>
      </trkpt>
      <trkpt lat="47.84859" lon="6.75284">
        <ele>819.966125</ele>
        <time>2018-05-26T12:35:30Z</time>
      </trkpt>
      <trkpt lat="47.84856" lon="6.75286">
        <ele>820.07196</ele>
        <time>2018-05-26T12:35:31Z</time>
      </trkpt>
      <trkpt lat="47.84853" lon="6.75288">
        <ele>820.182678</ele>
        <time>2018-05-26T12:35:32Z</time>
      </trkpt>
      <trkpt lat="47.84851" lon="6.7529">
        <ele>820.360413</ele>
        <time>2018-05-26T12:35:33Z</time>
      </trkpt>
      <trkpt lat="47.84849" lon="6.75292">
        <ele>820.485657</ele>
        <time>2018-05-26T12:35:34Z</time>
      </trkpt>
      <trkpt lat="47.84846" lon="6.75293">
        <ele>820.611633</ele>
        <time>2018-05-26T12:35:35Z</time>
      </trkpt>
      <trkpt lat="47.84843" lon="6.75295">
        <ele>820.79657</ele>
        <time>2018-05-26T12:35:36Z</time>
      </trkpt>
      <trkpt lat="47.8484" lon="6.75296">
        <ele>820.915588</ele>
        <time>2018-05-26T12:35:37Z</time>
      </trkpt>
      <trkpt lat="47.84839" lon="6.75298">
        <ele>821.023438</ele>
        <time>2018-05-26T12:35:38Z</time>
      </trkpt>
      <trkpt lat="47.84836" lon="6.75299">
        <ele>821.159973</ele>
        <time>2018-05-26T12:35:39Z</time>
      </trkpt>
      <trkpt lat="47.84834" lon="6.75301">
        <ele>821.196472</ele>
        <time>2018-05-26T12:35:40Z</time>
      </trkpt>
      <trkpt lat="47.84831" lon="6.75302">
        <ele>821.281494</ele>
        <time>2018-05-26T12:35:41Z</time>
      </trkpt>
      <trkpt lat="47.84828" lon="6.75304">
        <ele>821.323669</ele>
        <time>2018-05-26T12:35:42Z</time>
      </trkpt>
      <trkpt lat="47.84825" lon="6.75306">
        <ele>821.364075</ele>
        <time>2018-05-26T12:35:43Z</time>
      </trkpt>
      <trkpt lat="47.84821" lon="6.75308">
        <ele>821.418152</ele>
        <time>2018-05-26T12:35:44Z</time>
      </trkpt>
      <trkpt lat="47.84818" lon="6.7531">
        <ele>821.447449</ele>
        <time>2018-05-26T12:35:45Z</time>
      </trkpt>
      <trkpt lat="47.84814" lon="6.75312">
        <ele>821.466309</ele>
        <time>2018-05-26T12:35:46Z</time>
      </trkpt>
      <trkpt lat="47.8481" lon="6.75313">
        <ele>821.477722</ele>
        <time>2018-05-26T12:35:47Z</time>
      </trkpt>
      <trkpt lat="47.84806" lon="6.75314">
        <ele>821.477722</ele>
        <time>2018-05-26T12:35:48Z</time>
      </trkpt>
      <trkpt lat="47.84802" lon="6.75316">
        <ele>821.469055</ele>
        <time>2018-05-26T12:35:49Z</time>
      </trkpt>
      <trkpt lat="47.84798" lon="6.75316">
        <ele>821.440918</ele>
        <time>2018-05-26T12:35:50Z</time>
      </trkpt>
      <trkpt lat="47.84795" lon="6.75316">
        <ele>821.4245</ele>
        <time>2018-05-26T12:35:51Z</time>
      </trkpt>
      <trkpt lat="47.84791" lon="6.75316">
        <ele>821.423035</ele>
        <time>2018-05-26T12:35:52Z</time>
      </trkpt>
      <trkpt lat="47.84788" lon="6.75315">
        <ele>821.439758</ele>
        <time>2018-05-26T12:35:53Z</time>
      </trkpt>
      <trkpt lat="47.84784" lon="6.75315">
        <ele>821.480225</ele>
        <time>2018-05-26T12:35:54Z</time>
      </trkpt>
      <trkpt lat="47.84781" lon="6.75314">
        <ele>821.572754</ele>
        <time>2018-05-26T12:35:55Z</time>
      </trkpt>
      <trkpt lat="47.84777" lon="6.75313">
        <ele>821.641296</ele>
        <time>2018-05-26T12:35:56Z</time>
      </trkpt>
      <trkpt lat="47.84774" lon="6.75312">
        <ele>821.73999</ele>
        <time>2018-05-26T12:35:57Z</time>
      </trkpt>
      <trkpt lat="47.8477" lon="6.7531">
        <ele>821.79657</ele>
        <time>2018-05-26T12:35:58Z</time>
      </trkpt>
      <trkpt lat="47.84766" lon="6.75309">
        <ele>821.843567</ele>
        <time>2018-05-26T12:35:59Z</time>
      </trkpt>
      <trkpt lat="47.84762" lon="6.75307">
        <ele>821.887878</ele>
        <time>2018-05-26T12:36:00Z</time>
      </trkpt>
      <trkpt lat="47.84758" lon="6.75306">
        <ele>821.892822</ele>
        <time>2018-05-26T12:36:01Z</time>
      </trkpt>
      <trkpt lat="47.84755" lon="6.75305">
        <ele>821.888184</ele>
        <time>2018-05-26T12:36:02Z</time>
      </trkpt>
      <trkpt lat="47.8475" lon="6.75303">
        <ele>821.866028</ele>
        <time>2018-05-26T12:36:03Z</time>
      </trkpt>
      <trkpt lat="47.84747" lon="6.75301">
        <ele>821.834167</ele>
        <time>2018-05-26T12:36:04Z</time>
      </trkpt>
      <trkpt lat="47.84743" lon="6.753">
        <ele>821.781433</ele>
        <time>2018-05-26T12:36:05Z</time>
      </trkpt>
      <trkpt lat="47.84739" lon="6.75298">
        <ele>821.7453</ele>
        <time>2018-05-26T12:36:06Z</time>
      </trkpt>
      <trkpt lat="47.84735" lon="6.75297">
        <ele>821.685852</ele>
        <time>2018-05-26T12:36:07Z</time>
      </trkpt>
      <trkpt lat="47.84731" lon="6.75296">
        <ele>821.648376</ele>
        <time>2018-05-26T12:36:08Z</time>
      </trkpt>
      <trkpt lat="47.84726" lon="6.75295">
        <ele>821.622375</ele>
        <time>2018-05-26T12:36:09Z</time>
      </trkpt>
      <trkpt lat="47.84722" lon="6.75295">
        <ele>821.614929</ele>
        <time>2018-05-26T12:36:10Z</time>
      </trkpt>
      <trkpt lat="47.84718" lon="6.75294">
        <ele>821.618164</ele>
        <time>2018-05-26T12:36:11Z</time>
      </trkpt>
      <trkpt lat="47.84713" lon="6.75294">
        <ele>821.647156</ele>
        <time>2018-05-26T12:36:12Z</time>
      </trkpt>
      <trkpt lat="47.8471" lon="6.75294">
        <ele>821.672058</ele>
        <time>2018-05-26T12:36:13Z</time>
      </trkpt>
      <trkpt lat="47.84705" lon="6.75295">
        <ele>821.694885</ele>
        <time>2018-05-26T12:36:14Z</time>
      </trkpt>
      <trkpt lat="47.84702" lon="6.75296">
        <ele>821.723572</ele>
        <time>2018-05-26T12:36:15Z</time>
      </trkpt>
      <trkpt lat="47.84698" lon="6.75297">
        <ele>821.740173</ele>
        <time>2018-05-26T12:36:16Z</time>
      </trkpt>
      <trkpt lat="47.84694" lon="6.75299">
        <ele>821.75</ele>
        <time>2018-05-26T12:36:17Z</time>
      </trkpt>
      <trkpt lat="47.8469" lon="6.75301">
        <ele>821.754944</ele>
        <time>2018-05-26T12:36:18Z</time>
      </trkpt>
      <trkpt lat="47.84687" lon="6.75303">
        <ele>821.758606</ele>
        <time>2018-05-26T12:36:19Z</time>
      </trkpt>
      <trkpt lat="47.84683" lon="6.75305">
        <ele>821.764465</ele>
        <time>2018-05-26T12:36:20Z</time>
      </trkpt>
      <trkpt lat="47.84678" lon="6.75307">
        <ele>821.783203</ele>
        <time>2018-05-26T12:36:21Z</time>
      </trkpt>
      <trkpt lat="47.84674" lon="6.75309">
        <ele>821.798828</ele>
        <time>2018-05-26T12:36:22Z</time>
      </trkpt>
      <trkpt lat="47.84671" lon="6.75311">
        <ele>821.815918</ele>
        <time>2018-05-26T12:36:23Z</time>
      </trkpt>
      <trkpt lat="47.84667" lon="6.75313">
        <ele>821.84137</ele>
        <time>2018-05-26T12:36:24Z</time>
      </trkpt>
      <trkpt lat="47.84663" lon="6.75315">
        <ele>821.855164</ele>
        <time>2018-05-26T12:36:25Z</time>
      </trkpt>
      <trkpt lat="47.84659" lon="6.75317">
        <ele>821.870422</ele>
        <time>2018-05-26T12:36:26Z</time>
      </trkpt>
      <trkpt lat="47.84655" lon="6.75319">
        <ele>821.898743</ele>
        <time>2018-05-26T12:36:27Z</time>
      </trkpt>
      <trkpt lat="47.84652" lon="6.7532">
        <ele>821.933594</ele>
        <time>2018-05-26T12:36:28Z</time>
      </trkpt>
      <trkpt lat="47.84649" lon="6.75322">
        <ele>821.984619</ele>
        <time>2018-05-26T12:36:29Z</time>
      </trkpt>
      <trkpt lat="47.84646" lon="6.75324">
        <ele>822.086914</ele>
        <time>2018-05-26T12:36:30Z</time>
      </trkpt>
      <trkpt lat="47.84643" lon="6.75326">
        <ele>822.17627</ele>
        <time>2018-05-26T12:36:31Z</time>
      </trkpt>
      <trkpt lat="47.84641" lon="6.75327">
        <ele>822.294128</ele>
        <time>2018-05-26T12:36:32Z</time>
      </trkpt>
      <trkpt lat="47.84638" lon="6.75328">
        <ele>822.518555</ele>
        <time>2018-05-26T12:36:33Z</time>
      </trkpt>
      <trkpt lat="47.84636" lon="6.7533">
        <ele>822.69873</ele>
        <time>2018-05-26T12:36:34Z</time>
      </trkpt>
      <trkpt lat="47.84634" lon="6.75331">
        <ele>823.004333</ele>
        <time>2018-05-26T12:36:35Z</time>
      </trkpt>
      <trkpt lat="47.84631" lon="6.75333">
        <ele>823.222351</ele>
        <time>2018-05-26T12:36:36Z</time>
      </trkpt>
      <trkpt lat="47.84629" lon="6.75335">
        <ele>823.439026</ele>
        <time>2018-05-26T12:36:37Z</time>
      </trkpt>
      <trkpt lat="47.84627" lon="6.75337">
        <ele>823.754639</ele>
        <time>2018-05-26T12:36:38Z</time>
      </trkpt>
      <trkpt lat="47.84625" lon="6.75339">
        <ele>823.954529</ele>
        <time>2018-05-26T12:36:39Z</time>
      </trkpt>
      <trkpt lat="47.84623" lon="6.75342">
        <ele>824.051086</ele>
        <time>2018-05-26T12:36:40Z</time>
      </trkpt>
      <trkpt lat="47.84621" lon="6.75344">
        <ele>824.051086</ele>
        <time>2018-05-26T12:36:41Z</time>
      </trkpt>
      <trkpt lat="47.84619" lon="6.75347">
        <ele>824.233398</ele>
        <time>2018-05-26T12:36:42Z</time>
      </trkpt>
      <trkpt lat="47.84617" lon="6.7535">
        <ele>824.409729</ele>
        <time>2018-05-26T12:36:43Z</time>
      </trkpt>
      <trkpt lat="47.84616" lon="6.75353">
        <ele>824.593506</ele>
        <time>2018-05-26T12:36:44Z</time>
      </trkpt>
      <trkpt lat="47.84614" lon="6.75357">
        <ele>824.898621</ele>
        <time>2018-05-26T12:36:45Z</time>
      </trkpt>
      <trkpt lat="47.84613" lon="6.7536">
        <ele>825.112732</ele>
        <time>2018-05-26T12:36:46Z</time>
      </trkpt>
      <trkpt lat="47.84612" lon="6.75364">
        <ele>825.325256</ele>
        <time>2018-05-26T12:36:47Z</time>
      </trkpt>
      <trkpt lat="47.8461" lon="6.75367">
        <ele>825.631348</ele>
        <time>2018-05-26T12:36:48Z</time>
      </trkpt>
      <trkpt lat="47.84609" lon="6.75371">
        <ele>825.823975</ele>
        <time>2018-05-26T12:36:49Z</time>
      </trkpt>
      <trkpt lat="47.84607" lon="6.75375">
        <ele>826.00177</ele>
        <time>2018-05-26T12:36:50Z</time>
      </trkpt>
      <trkpt lat="47.84606" lon="6.75379">
        <ele>826.238525</ele>
        <time>2018-05-26T12:36:51Z</time>
      </trkpt>
      <trkpt lat="47.84605" lon="6.75383">
        <ele>826.38623</ele>
        <time>2018-05-26T12:36:52Z</time>
      </trkpt>
      <trkpt lat="47.84604" lon="6.75387">
        <ele>826.534668</ele>
        <time>2018-05-26T12:36:53Z</time>
      </trkpt>
      <trkpt lat="47.84603" lon="6.75391">
        <ele>826.754822</ele>
        <time>2018-05-26T12:36:54Z</time>
      </trkpt>
      <trkpt lat="47.84602" lon="6.75395">
        <ele>826.894592</ele>
        <time>2018-05-26T12:36:55Z</time>
      </trkpt>
      <trkpt lat="47.84601" lon="6.75399">
        <ele>827.026306</ele>
        <time>2018-05-26T12:36:56Z</time>
      </trkpt>
      <trkpt lat="47.846" lon="6.75403">
        <ele>827.153015</ele>
        <time>2018-05-26T12:36:57Z</time>
      </trkpt>
      <trkpt lat="47.84599" lon="6.75407">
        <ele>827.334045</ele>
        <time>2018-05-26T12:36:58Z</time>
      </trkpt>
      <trkpt lat="47.84599" lon="6.75411">
        <ele>827.444092</ele>
        <time>2018-05-26T12:36:59Z</time>
      </trkpt>
      <trkpt lat="47.84599" lon="6.75415">
        <ele>827.543274</ele>
        <time>2018-05-26T12:37:00Z</time>
      </trkpt>
      <trkpt lat="47.84599" lon="6.7542">
        <ele>827.629333</ele>
        <time>2018-05-26T12:37:01Z</time>
      </trkpt>
      <trkpt lat="47.84599" lon="6.75424">
        <ele>827.702454</ele>
        <time>2018-05-26T12:37:02Z</time>
      </trkpt>
      <trkpt lat="47.84599" lon="6.75428">
        <ele>827.782959</ele>
        <time>2018-05-26T12:37:03Z</time>
      </trkpt>
      <trkpt lat="47.84599" lon="6.75433">
        <ele>827.818848</ele>
        <time>2018-05-26T12:37:04Z</time>
      </trkpt>
      <trkpt lat="47.84599" lon="6.75438">
        <ele>827.840759</ele>
        <time>2018-05-26T12:37:05Z</time>
      </trkpt>
      <trkpt lat="47.84599" lon="6.75443">
        <ele>827.851013</ele>
        <time>2018-05-26T12:37:06Z</time>
      </trkpt>
      <trkpt lat="47.84599" lon="6.75448">
        <ele>827.853943</ele>
        <time>2018-05-26T12:37:07Z</time>
      </trkpt>
      <trkpt lat="47.846" lon="6.75453">
        <ele>827.856445</ele>
        <time>2018-05-26T12:37:08Z</time>
      </trkpt>
      <trkpt lat="47.846" lon="6.75459">
        <ele>827.860107</ele>
        <time>2018-05-26T12:37:09Z</time>
      </trkpt>
      <trkpt lat="47.846" lon="6.75464">
        <ele>827.866028</ele>
        <time>2018-05-26T12:37:10Z</time>
      </trkpt>
      <trkpt lat="47.84601" lon="6.7547">
        <ele>827.873352</ele>
        <time>2018-05-26T12:37:11Z</time>
      </trkpt>
      <trkpt lat="47.84602" lon="6.75476">
        <ele>827.885254</ele>
        <time>2018-05-26T12:37:12Z</time>
      </trkpt>
      <trkpt lat="47.84602" lon="6.75481">
        <ele>827.902832</ele>
        <time>2018-05-26T12:37:13Z</time>
      </trkpt>
      <trkpt lat="47.84602" lon="6.75487">
        <ele>827.919678</ele>
        <time>2018-05-26T12:37:14Z</time>
      </trkpt>
      <trkpt lat="47.84604" lon="6.75493">
        <ele>827.921143</ele>
        <time>2018-05-26T12:37:15Z</time>
      </trkpt>
      <trkpt lat="47.84605" lon="6.75499">
        <ele>827.920898</ele>
        <time>2018-05-26T12:37:16Z</time>
      </trkpt>
      <trkpt lat="47.84605" lon="6.75505">
        <ele>827.916687</ele>
        <time>2018-05-26T12:37:17Z</time>
      </trkpt>
      <trkpt lat="47.84606" lon="6.7551">
        <ele>827.904114</ele>
        <time>2018-05-26T12:37:18Z</time>
      </trkpt>
      <trkpt lat="47.84607" lon="6.75516">
        <ele>827.882751</ele>
        <time>2018-05-26T12:37:19Z</time>
      </trkpt>
      <trkpt lat="47.84609" lon="6.75522">
        <ele>827.850342</ele>
        <time>2018-05-26T12:37:20Z</time>
      </trkpt>
      <trkpt lat="47.8461" lon="6.75528">
        <ele>827.821228</ele>
        <time>2018-05-26T12:37:21Z</time>
      </trkpt>
      <trkpt lat="47.84611" lon="6.75534">
        <ele>827.793457</ele>
        <time>2018-05-26T12:37:22Z</time>
      </trkpt>
      <trkpt lat="47.84612" lon="6.7554">
        <ele>827.783447</ele>
        <time>2018-05-26T12:37:23Z</time>
      </trkpt>
      <trkpt lat="47.84613" lon="6.75546">
        <ele>827.774902</ele>
        <time>2018-05-26T12:37:24Z</time>
      </trkpt>
      <trkpt lat="47.84614" lon="6.75553">
        <ele>827.77002</ele>
        <time>2018-05-26T12:37:25Z</time>
      </trkpt>
      <trkpt lat="47.84615" lon="6.75559">
        <ele>827.769348</ele>
        <time>2018-05-26T12:37:26Z</time>
      </trkpt>
      <trkpt lat="47.84615" lon="6.75565">
        <ele>827.770935</ele>
        <time>2018-05-26T12:37:27Z</time>
      </trkpt>
      <trkpt lat="47.84615" lon="6.75571">
        <ele>827.77301</ele>
        <time>2018-05-26T12:37:28Z</time>
      </trkpt>
      <trkpt lat="47.84615" lon="6.75578">
        <ele>827.775146</ele>
        <time>2018-05-26T12:37:29Z</time>
      </trkpt>
      <trkpt lat="47.84615" lon="6.75584">
        <ele>827.778076</ele>
        <time>2018-05-26T12:37:30Z</time>
      </trkpt>
      <trkpt lat="47.84615" lon="6.7559">
        <ele>827.793884</ele>
        <time>2018-05-26T12:37:31Z</time>
      </trkpt>
      <trkpt lat="47.84616" lon="6.75596">
        <ele>827.814941</ele>
        <time>2018-05-26T12:37:32Z</time>
      </trkpt>
      <trkpt lat="47.84616" lon="6.75602">
        <ele>827.83905</ele>
        <time>2018-05-26T12:37:33Z</time>
      </trkpt>
      <trkpt lat="47.84617" lon="6.75608">
        <ele>827.868591</ele>
        <time>2018-05-26T12:37:34Z</time>
      </trkpt>
      <trkpt lat="47.84617" lon="6.75614">
        <ele>827.901917</ele>
        <time>2018-05-26T12:37:35Z</time>
      </trkpt>
      <trkpt lat="47.84617" lon="6.7562">
        <ele>827.942139</ele>
        <time>2018-05-26T12:37:36Z</time>
      </trkpt>
      <trkpt lat="47.84617" lon="6.75625">
        <ele>828.014343</ele>
        <time>2018-05-26T12:37:37Z</time>
      </trkpt>
      <trkpt lat="47.84617" lon="6.7563">
        <ele>828.074219</ele>
        <time>2018-05-26T12:37:38Z</time>
      </trkpt>
      <trkpt lat="47.84617" lon="6.75634">
        <ele>828.180908</ele>
        <time>2018-05-26T12:37:39Z</time>
      </trkpt>
      <trkpt lat="47.84618" lon="6.75638">
        <ele>828.220886</ele>
        <time>2018-05-26T12:37:40Z</time>
      </trkpt>
      <trkpt lat="47.84618" lon="6.75641">
        <ele>828.308044</ele>
        <time>2018-05-26T12:37:41Z</time>
      </trkpt>
      <trkpt lat="47.84618" lon="6.75643">
        <ele>828.405029</ele>
        <time>2018-05-26T12:37:42Z</time>
      </trkpt>
      <trkpt lat="47.84618" lon="6.75646">
        <ele>828.556702</ele>
        <time>2018-05-26T12:37:43Z</time>
      </trkpt>
      <trkpt lat="47.84619" lon="6.75649">
        <ele>828.653503</ele>
        <time>2018-05-26T12:37:44Z</time>
      </trkpt>
      <trkpt lat="47.84619" lon="6.75651">
        <ele>828.745422</ele>
        <time>2018-05-26T12:37:45Z</time>
      </trkpt>
      <trkpt lat="47.8462" lon="6.75653">
        <ele>828.830505</ele>
        <time>2018-05-26T12:37:46Z</time>
      </trkpt>
      <trkpt lat="47.84621" lon="6.75657">
        <ele>828.906006</ele>
        <time>2018-05-26T12:37:47Z</time>
      </trkpt>
      <trkpt lat="47.84621" lon="6.7566">
        <ele>828.972473</ele>
        <time>2018-05-26T12:37:48Z</time>
      </trkpt>
      <trkpt lat="47.84622" lon="6.75664">
        <ele>829.028137</ele>
        <time>2018-05-26T12:37:49Z</time>
      </trkpt>
      <trkpt lat="47.84623" lon="6.75668">
        <ele>829.070129</ele>
        <time>2018-05-26T12:37:50Z</time>
      </trkpt>
      <trkpt lat="47.84624" lon="6.75672">
        <ele>829.097717</ele>
        <time>2018-05-26T12:37:51Z</time>
      </trkpt>
      <trkpt lat="47.84624" lon="6.75677">
        <ele>829.116699</ele>
        <time>2018-05-26T12:37:52Z</time>
      </trkpt>
      <trkpt lat="47.84625" lon="6.75682">
        <ele>829.132141</ele>
        <time>2018-05-26T12:37:53Z</time>
      </trkpt>
      <trkpt lat="47.84625" lon="6.75686">
        <ele>829.143066</ele>
        <time>2018-05-26T12:37:54Z</time>
      </trkpt>
      <trkpt lat="47.84626" lon="6.75692">
        <ele>829.145569</ele>
        <time>2018-05-26T12:37:55Z</time>
      </trkpt>
      <trkpt lat="47.84625" lon="6.75697">
        <ele>829.144592</ele>
        <time>2018-05-26T12:37:56Z</time>
      </trkpt>
      <trkpt lat="47.84625" lon="6.75702">
        <ele>829.133362</ele>
        <time>2018-05-26T12:37:57Z</time>
      </trkpt>
      <trkpt lat="47.84625" lon="6.75708">
        <ele>829.109863</ele>
        <time>2018-05-26T12:37:58Z</time>
      </trkpt>
      <trkpt lat="47.84624" lon="6.75713">
        <ele>829.077454</ele>
        <time>2018-05-26T12:37:59Z</time>
      </trkpt>
      <trkpt lat="47.84623" lon="6.75719">
        <ele>829.039551</ele>
        <time>2018-05-26T12:38:00Z</time>
      </trkpt>
      <trkpt lat="47.84622" lon="6.75724">
        <ele>828.973206</ele>
        <time>2018-05-26T12:38:01Z</time>
      </trkpt>
      <trkpt lat="47.8462" lon="6.75729">
        <ele>828.93335</ele>
        <time>2018-05-26T12:38:02Z</time>
      </trkpt>
      <trkpt lat="47.84618" lon="6.75734">
        <ele>828.900818</ele>
        <time>2018-05-26T12:38:03Z</time>
      </trkpt>
      <trkpt lat="47.84617" lon="6.75738">
        <ele>828.867859</ele>
        <time>2018-05-26T12:38:04Z</time>
      </trkpt>
      <trkpt lat="47.84615" lon="6.75743">
        <ele>828.862</ele>
        <time>2018-05-26T12:38:05Z</time>
      </trkpt>
      <trkpt lat="47.84612" lon="6.75748">
        <ele>828.862</ele>
        <time>2018-05-26T12:38:06Z</time>
      </trkpt>
      <trkpt lat="47.8461" lon="6.75752">
        <ele>828.891541</ele>
        <time>2018-05-26T12:38:07Z</time>
      </trkpt>
      <trkpt lat="47.84608" lon="6.75757">
        <ele>828.930847</ele>
        <time>2018-05-26T12:38:08Z</time>
      </trkpt>
      <trkpt lat="47.84605" lon="6.75762">
        <ele>828.977539</ele>
        <time>2018-05-26T12:38:09Z</time>
      </trkpt>
      <trkpt lat="47.84603" lon="6.75766">
        <ele>829.056396</ele>
        <time>2018-05-26T12:38:10Z</time>
      </trkpt>
      <trkpt lat="47.84601" lon="6.75771">
        <ele>829.111145</ele>
        <time>2018-05-26T12:38:11Z</time>
      </trkpt>
      <trkpt lat="47.84598" lon="6.75775">
        <ele>829.163269</ele>
        <time>2018-05-26T12:38:12Z</time>
      </trkpt>
      <trkpt lat="47.84597" lon="6.7578">
        <ele>829.218445</ele>
        <time>2018-05-26T12:38:13Z</time>
      </trkpt>
      <trkpt lat="47.84595" lon="6.75785">
        <ele>829.237244</ele>
        <time>2018-05-26T12:38:14Z</time>
      </trkpt>
      <trkpt lat="47.84592" lon="6.75789">
        <ele>829.247131</ele>
        <time>2018-05-26T12:38:15Z</time>
      </trkpt>
      <trkpt lat="47.84591" lon="6.75793">
        <ele>829.253174</ele>
        <time>2018-05-26T12:38:16Z</time>
      </trkpt>
      <trkpt lat="47.84589" lon="6.75797">
        <ele>829.273499</ele>
        <time>2018-05-26T12:38:17Z</time>
      </trkpt>
      <trkpt lat="47.84588" lon="6.75801">
        <ele>829.30304</ele>
        <time>2018-05-26T12:38:18Z</time>
      </trkpt>
      <trkpt lat="47.84585" lon="6.75804">
        <ele>829.348572</ele>
        <time>2018-05-26T12:38:19Z</time>
      </trkpt>
      <trkpt lat="47.84584" lon="6.75808">
        <ele>829.408142</ele>
        <time>2018-05-26T12:38:20Z</time>
      </trkpt>
      <trkpt lat="47.84583" lon="6.75812">
        <ele>829.485901</ele>
        <time>2018-05-26T12:38:21Z</time>
      </trkpt>
      <trkpt lat="47.84581" lon="6.75816">
        <ele>829.631104</ele>
        <time>2018-05-26T12:38:22Z</time>
      </trkpt>
      <trkpt lat="47.84579" lon="6.7582">
        <ele>829.745911</ele>
        <time>2018-05-26T12:38:23Z</time>
      </trkpt>
      <trkpt lat="47.84578" lon="6.75823">
        <ele>829.871643</ele>
        <time>2018-05-26T12:38:24Z</time>
      </trkpt>
      <trkpt lat="47.84576" lon="6.75827">
        <ele>830.012451</ele>
        <time>2018-05-26T12:38:25Z</time>
      </trkpt>
      <trkpt lat="47.84573" lon="6.75831">
        <ele>830.233093</ele>
        <time>2018-05-26T12:38:26Z</time>
      </trkpt>
      <trkpt lat="47.84572" lon="6.75835">
        <ele>830.378418</ele>
        <time>2018-05-26T12:38:27Z</time>
      </trkpt>
      <trkpt lat="47.8457" lon="6.75839">
        <ele>830.51593</ele>
        <time>2018-05-26T12:38:28Z</time>
      </trkpt>
      <trkpt lat="47.84568" lon="6.75843">
        <ele>830.646545</ele>
        <time>2018-05-26T12:38:29Z</time>
      </trkpt>
      <trkpt lat="47.84567" lon="6.75848">
        <ele>830.824036</ele>
        <time>2018-05-26T12:38:30Z</time>
      </trkpt>
      <trkpt lat="47.84565" lon="6.75853">
        <ele>830.923889</ele>
        <time>2018-05-26T12:38:31Z</time>
      </trkpt>
      <trkpt lat="47.84563" lon="6.75858">
        <ele>831.001465</ele>
        <time>2018-05-26T12:38:32Z</time>
      </trkpt>
      <trkpt lat="47.84563" lon="6.75863">
        <ele>831.055725</ele>
        <time>2018-05-26T12:38:33Z</time>
      </trkpt>
      <trkpt lat="47.84564" lon="6.75869">
        <ele>831.099182</ele>
        <time>2018-05-26T12:38:34Z</time>
      </trkpt>
      <trkpt lat="47.84564" lon="6.75874">
        <ele>831.107117</ele>
        <time>2018-05-26T12:38:35Z</time>
      </trkpt>
      <trkpt lat="47.84563" lon="6.75879">
        <ele>831.107117</ele>
        <time>2018-05-26T12:38:36Z</time>
      </trkpt>
      <trkpt lat="47.84562" lon="6.75885">
        <ele>831.099854</ele>
        <time>2018-05-26T12:38:37Z</time>
      </trkpt>
      <trkpt lat="47.8456" lon="6.75891">
        <ele>831.072327</ele>
        <time>2018-05-26T12:38:38Z</time>
      </trkpt>
      <trkpt lat="47.84559" lon="6.75897">
        <ele>831.051025</ele>
        <time>2018-05-26T12:38:39Z</time>
      </trkpt>
      <trkpt lat="47.84557" lon="6.75903">
        <ele>831.035217</ele>
        <time>2018-05-26T12:38:40Z</time>
      </trkpt>
      <trkpt lat="47.84556" lon="6.75909">
        <ele>831.027832</ele>
        <time>2018-05-26T12:38:41Z</time>
      </trkpt>
      <trkpt lat="47.84555" lon="6.75915">
        <ele>831.020325</ele>
        <time>2018-05-26T12:38:42Z</time>
      </trkpt>
      <trkpt lat="47.84555" lon="6.75922">
        <ele>831.004883</ele>
        <time>2018-05-26T12:38:43Z</time>
      </trkpt>
      <trkpt lat="47.84553" lon="6.75928">
        <ele>830.982666</ele>
        <time>2018-05-26T12:38:44Z</time>
      </trkpt>
      <trkpt lat="47.84552" lon="6.75934">
        <ele>830.952698</ele>
        <time>2018-05-26T12:38:45Z</time>
      </trkpt>
      <trkpt lat="47.84552" lon="6.75939">
        <ele>830.919434</ele>
        <time>2018-05-26T12:38:46Z</time>
      </trkpt>
      <trkpt lat="47.84551" lon="6.75945">
        <ele>830.884583</ele>
        <time>2018-05-26T12:38:47Z</time>
      </trkpt>
      <trkpt lat="47.84551" lon="6.75951">
        <ele>830.848145</ele>
        <time>2018-05-26T12:38:48Z</time>
      </trkpt>
      <trkpt lat="47.8455" lon="6.75957">
        <ele>830.844666</ele>
        <time>2018-05-26T12:38:49Z</time>
      </trkpt>
      <trkpt lat="47.8455" lon="6.75962">
        <ele>830.848694</ele>
        <time>2018-05-26T12:38:50Z</time>
      </trkpt>
      <trkpt lat="47.84552" lon="6.75969">
        <ele>830.877686</ele>
        <time>2018-05-26T12:38:51Z</time>
      </trkpt>
      <trkpt lat="47.84553" lon="6.75974">
        <ele>830.970276</ele>
        <time>2018-05-26T12:38:52Z</time>
      </trkpt>
      <trkpt lat="47.84553" lon="6.75979">
        <ele>831.051208</ele>
        <time>2018-05-26T12:38:53Z</time>
      </trkpt>
      <trkpt lat="47.84553" lon="6.75985">
        <ele>831.141174</ele>
        <time>2018-05-26T12:38:54Z</time>
      </trkpt>
      <trkpt lat="47.84554" lon="6.7599">
        <ele>831.241638</ele>
        <time>2018-05-26T12:38:55Z</time>
      </trkpt>
      <trkpt lat="47.84555" lon="6.75995">
        <ele>831.41626</ele>
        <time>2018-05-26T12:38:56Z</time>
      </trkpt>
      <trkpt lat="47.84555" lon="6.76001">
        <ele>831.542664</ele>
        <time>2018-05-26T12:38:57Z</time>
      </trkpt>
      <trkpt lat="47.84556" lon="6.76007">
        <ele>831.666748</ele>
        <time>2018-05-26T12:38:58Z</time>
      </trkpt>
      <trkpt lat="47.84557" lon="6.76012">
        <ele>831.782959</ele>
        <time>2018-05-26T12:38:59Z</time>
      </trkpt>
      <trkpt lat="47.84558" lon="6.76017">
        <ele>831.935242</ele>
        <time>2018-05-26T12:39:00Z</time>
      </trkpt>
      <trkpt lat="47.84559" lon="6.76023">
        <ele>832.015564</ele>
        <time>2018-05-26T12:39:01Z</time>
      </trkpt>
      <trkpt lat="47.84561" lon="6.76028">
        <ele>832.072693</ele>
        <time>2018-05-26T12:39:02Z</time>
      </trkpt>
      <trkpt lat="47.84563" lon="6.76034">
        <ele>832.107666</ele>
        <time>2018-05-26T12:39:03Z</time>
      </trkpt>
      <trkpt lat="47.84565" lon="6.76039">
        <ele>832.12262</ele>
        <time>2018-05-26T12:39:04Z</time>
      </trkpt>
      <trkpt lat="47.84566" lon="6.76044">
        <ele>832.12262</ele>
        <time>2018-05-26T12:39:05Z</time>
      </trkpt>
      <trkpt lat="47.84566" lon="6.76049">
        <ele>832.113281</ele>
        <time>2018-05-26T12:39:06Z</time>
      </trkpt>
      <trkpt lat="47.84567" lon="6.76054">
        <ele>832.093689</ele>
        <time>2018-05-26T12:39:07Z</time>
      </trkpt>
      <trkpt lat="47.84568" lon="6.76059">
        <ele>832.059265</ele>
        <time>2018-05-26T12:39:08Z</time>
      </trkpt>
      <trkpt lat="47.84568" lon="6.76064">
        <ele>832.043152</ele>
        <time>2018-05-26T12:39:09Z</time>
      </trkpt>
      <trkpt lat="47.8457" lon="6.76069">
        <ele>832.028564</ele>
        <time>2018-05-26T12:39:10Z</time>
      </trkpt>
      <trkpt lat="47.84571" lon="6.76075">
        <ele>832.01178</ele>
        <time>2018-05-26T12:39:11Z</time>
      </trkpt>
      <trkpt lat="47.84572" lon="6.76081">
        <ele>831.986267</ele>
        <time>2018-05-26T12:39:12Z</time>
      </trkpt>
      <trkpt lat="47.84573" lon="6.76087">
        <ele>831.943909</ele>
        <time>2018-05-26T12:39:13Z</time>
      </trkpt>
      <trkpt lat="47.84573" lon="6.76093">
        <ele>831.928284</ele>
        <time>2018-05-26T12:39:14Z</time>
      </trkpt>
      <trkpt lat="47.84576" lon="6.76099">
        <ele>831.925842</ele>
        <time>2018-05-26T12:39:15Z</time>
      </trkpt>
      <trkpt lat="47.84578" lon="6.76105">
        <ele>831.932556</ele>
        <time>2018-05-26T12:39:16Z</time>
      </trkpt>
      <trkpt lat="47.84582" lon="6.7611">
        <ele>831.951172</ele>
        <time>2018-05-26T12:39:17Z</time>
      </trkpt>
      <trkpt lat="47.84585" lon="6.76115">
        <ele>831.974426</ele>
        <time>2018-05-26T12:39:18Z</time>
      </trkpt>
      <trkpt lat="47.84588" lon="6.76119">
        <ele>832.009705</ele>
        <time>2018-05-26T12:39:19Z</time>
      </trkpt>
      <trkpt lat="47.84591" lon="6.76124">
        <ele>832.027405</ele>
        <time>2018-05-26T12:39:20Z</time>
      </trkpt>
      <trkpt lat="47.84594" lon="6.76129">
        <ele>832.037292</ele>
        <time>2018-05-26T12:39:21Z</time>
      </trkpt>
      <trkpt lat="47.84598" lon="6.76134">
        <ele>832.037659</ele>
        <time>2018-05-26T12:39:22Z</time>
      </trkpt>
      <trkpt lat="47.846" lon="6.76138">
        <ele>832.024597</ele>
        <time>2018-05-26T12:39:23Z</time>
      </trkpt>
      <trkpt lat="47.84606" lon="6.76148">
        <ele>831.941345</ele>
        <time>2018-05-26T12:39:25Z</time>
      </trkpt>
      <trkpt lat="47.84609" lon="6.76153">
        <ele>831.915222</ele>
        <time>2018-05-26T12:39:26Z</time>
      </trkpt>
      <trkpt lat="47.8461" lon="6.7616">
        <ele>831.899841</ele>
        <time>2018-05-26T12:39:27Z</time>
      </trkpt>
      <trkpt lat="47.84612" lon="6.76166">
        <ele>831.889221</ele>
        <time>2018-05-26T12:39:28Z</time>
      </trkpt>
      <trkpt lat="47.84613" lon="6.76171">
        <ele>831.889221</ele>
        <time>2018-05-26T12:39:29Z</time>
      </trkpt>
      <trkpt lat="47.84613" lon="6.76175">
        <ele>831.900635</ele>
        <time>2018-05-26T12:39:30Z</time>
      </trkpt>
      <trkpt lat="47.84613" lon="6.7618">
        <ele>831.935974</ele>
        <time>2018-05-26T12:39:31Z</time>
      </trkpt>
      <trkpt lat="47.84612" lon="6.76185">
        <ele>831.988037</ele>
        <time>2018-05-26T12:39:32Z</time>
      </trkpt>
      <trkpt lat="47.84611" lon="6.76191">
        <ele>832.084045</ele>
        <time>2018-05-26T12:39:33Z</time>
      </trkpt>
      <trkpt lat="47.84609" lon="6.76197">
        <ele>832.162598</ele>
        <time>2018-05-26T12:39:34Z</time>
      </trkpt>
      <trkpt lat="47.84609" lon="6.76202">
        <ele>832.255127</ele>
        <time>2018-05-26T12:39:35Z</time>
      </trkpt>
      <trkpt lat="47.84609" lon="6.76208">
        <ele>832.355957</ele>
        <time>2018-05-26T12:39:36Z</time>
      </trkpt>
      <trkpt lat="47.84609" lon="6.76214">
        <ele>832.494446</ele>
        <time>2018-05-26T12:39:37Z</time>
      </trkpt>
      <trkpt lat="47.8461" lon="6.76221">
        <ele>832.569763</ele>
        <time>2018-05-26T12:39:38Z</time>
      </trkpt>
      <trkpt lat="47.8461" lon="6.76227">
        <ele>832.636658</ele>
        <time>2018-05-26T12:39:39Z</time>
      </trkpt>
      <trkpt lat="47.84608" lon="6.76233">
        <ele>832.702332</ele>
        <time>2018-05-26T12:39:40Z</time>
      </trkpt>
      <trkpt lat="47.84606" lon="6.7624">
        <ele>832.786438</ele>
        <time>2018-05-26T12:39:41Z</time>
      </trkpt>
      <trkpt lat="47.84606" lon="6.76247">
        <ele>832.8078</ele>
        <time>2018-05-26T12:39:42Z</time>
      </trkpt>
      <trkpt lat="47.84605" lon="6.76253">
        <ele>832.826355</ele>
        <time>2018-05-26T12:39:43Z</time>
      </trkpt>
      <trkpt lat="47.84605" lon="6.7626">
        <ele>832.856628</ele>
        <time>2018-05-26T12:39:44Z</time>
      </trkpt>
      <trkpt lat="47.84605" lon="6.76266">
        <ele>832.879578</ele>
        <time>2018-05-26T12:39:45Z</time>
      </trkpt>
      <trkpt lat="47.84605" lon="6.76273">
        <ele>832.904541</ele>
        <time>2018-05-26T12:39:46Z</time>
      </trkpt>
      <trkpt lat="47.84604" lon="6.76279">
        <ele>832.933594</ele>
        <time>2018-05-26T12:39:47Z</time>
      </trkpt>
      <trkpt lat="47.84603" lon="6.76285">
        <ele>832.971924</ele>
        <time>2018-05-26T12:39:48Z</time>
      </trkpt>
      <trkpt lat="47.84602" lon="6.76292">
        <ele>832.992737</ele>
        <time>2018-05-26T12:39:49Z</time>
      </trkpt>
      <trkpt lat="47.84602" lon="6.76298">
        <ele>833.01886</ele>
        <time>2018-05-26T12:39:50Z</time>
      </trkpt>
      <trkpt lat="47.846" lon="6.76304">
        <ele>833.054749</ele>
        <time>2018-05-26T12:39:51Z</time>
      </trkpt>
      <trkpt lat="47.846" lon="6.76309">
        <ele>833.124573</ele>
        <time>2018-05-26T12:39:52Z</time>
      </trkpt>
      <trkpt lat="47.84601" lon="6.76315">
        <ele>833.170166</ele>
        <time>2018-05-26T12:39:53Z</time>
      </trkpt>
      <trkpt lat="47.846" lon="6.76321">
        <ele>833.211121</ele>
        <time>2018-05-26T12:39:54Z</time>
      </trkpt>
      <trkpt lat="47.84599" lon="6.76326">
        <ele>833.253967</ele>
        <time>2018-05-26T12:39:55Z</time>
      </trkpt>
      <trkpt lat="47.84598" lon="6.76332">
        <ele>833.302307</ele>
        <time>2018-05-26T12:39:56Z</time>
      </trkpt>
      <trkpt lat="47.84598" lon="6.76339">
        <ele>833.368469</ele>
        <time>2018-05-26T12:39:57Z</time>
      </trkpt>
      <trkpt lat="47.84596" lon="6.76344">
        <ele>833.398438</ele>
        <time>2018-05-26T12:39:58Z</time>
      </trkpt>
      <trkpt lat="47.84596" lon="6.76349">
        <ele>833.420898</ele>
        <time>2018-05-26T12:39:59Z</time>
      </trkpt>
      <trkpt lat="47.84595" lon="6.76355">
        <ele>833.444336</ele>
        <time>2018-05-26T12:40:00Z</time>
      </trkpt>
      <trkpt lat="47.84593" lon="6.7636">
        <ele>833.485046</ele>
        <time>2018-05-26T12:40:01Z</time>
      </trkpt>
      <trkpt lat="47.84591" lon="6.76366">
        <ele>833.50824</ele>
        <time>2018-05-26T12:40:02Z</time>
      </trkpt>
      <trkpt lat="47.84589" lon="6.76372">
        <ele>833.525208</ele>
        <time>2018-05-26T12:40:03Z</time>
      </trkpt>
      <trkpt lat="47.84589" lon="6.76378">
        <ele>833.565613</ele>
        <time>2018-05-26T12:40:04Z</time>
      </trkpt>
      <trkpt lat="47.84586" lon="6.76383">
        <ele>833.606445</ele>
        <time>2018-05-26T12:40:05Z</time>
      </trkpt>
      <trkpt lat="47.84584" lon="6.76388">
        <ele>833.650574</ele>
        <time>2018-05-26T12:40:06Z</time>
      </trkpt>
      <trkpt lat="47.84582" lon="6.76393">
        <ele>833.692444</ele>
        <time>2018-05-26T12:40:07Z</time>
      </trkpt>
      <trkpt lat="47.84581" lon="6.76397">
        <ele>833.75</ele>
        <time>2018-05-26T12:40:08Z</time>
      </trkpt>
      <trkpt lat="47.84581" lon="6.76401">
        <ele>833.784485</ele>
        <time>2018-05-26T12:40:09Z</time>
      </trkpt>
      <trkpt lat="47.84579" lon="6.76405">
        <ele>833.816345</ele>
        <time>2018-05-26T12:40:10Z</time>
      </trkpt>
      <trkpt lat="47.84576" lon="6.76409">
        <ele>833.839844</ele>
        <time>2018-05-26T12:40:11Z</time>
      </trkpt>
      <trkpt lat="47.84573" lon="6.76413">
        <ele>833.85376</ele>
        <time>2018-05-26T12:40:12Z</time>
      </trkpt>
      <trkpt lat="47.84571" lon="6.76416">
        <ele>833.859863</ele>
        <time>2018-05-26T12:40:13Z</time>
      </trkpt>
      <trkpt lat="47.84569" lon="6.7642">
        <ele>833.86377</ele>
        <time>2018-05-26T12:40:14Z</time>
      </trkpt>
      <trkpt lat="47.84565" lon="6.76425">
        <ele>833.867493</ele>
        <time>2018-05-26T12:40:15Z</time>
      </trkpt>
      <trkpt lat="47.84562" lon="6.76429">
        <ele>833.871643</ele>
        <time>2018-05-26T12:40:16Z</time>
      </trkpt>
      <trkpt lat="47.84559" lon="6.76434">
        <ele>833.885681</ele>
        <time>2018-05-26T12:40:17Z</time>
      </trkpt>
      <trkpt lat="47.84557" lon="6.76439">
        <ele>833.900635</ele>
        <time>2018-05-26T12:40:18Z</time>
      </trkpt>
      <trkpt lat="47.84553" lon="6.76444">
        <ele>833.917664</ele>
        <time>2018-05-26T12:40:19Z</time>
      </trkpt>
      <trkpt lat="47.84551" lon="6.76449">
        <ele>833.943909</ele>
        <time>2018-05-26T12:40:20Z</time>
      </trkpt>
      <trkpt lat="47.84549" lon="6.76455">
        <ele>833.963623</ele>
        <time>2018-05-26T12:40:21Z</time>
      </trkpt>
      <trkpt lat="47.84547" lon="6.7646">
        <ele>833.987244</ele>
        <time>2018-05-26T12:40:22Z</time>
      </trkpt>
      <trkpt lat="47.84545" lon="6.76466">
        <ele>834.017151</ele>
        <time>2018-05-26T12:40:23Z</time>
      </trkpt>
      <trkpt lat="47.84543" lon="6.76472">
        <ele>834.070557</ele>
        <time>2018-05-26T12:40:24Z</time>
      </trkpt>
      <trkpt lat="47.84541" lon="6.76477">
        <ele>834.114075</ele>
        <time>2018-05-26T12:40:25Z</time>
      </trkpt>
      <trkpt lat="47.8454" lon="6.76483">
        <ele>834.171448</ele>
        <time>2018-05-26T12:40:26Z</time>
      </trkpt>
      <trkpt lat="47.84539" lon="6.76489">
        <ele>834.243713</ele>
        <time>2018-05-26T12:40:27Z</time>
      </trkpt>
      <trkpt lat="47.84537" lon="6.76494">
        <ele>834.364197</ele>
        <time>2018-05-26T12:40:28Z</time>
      </trkpt>
      <trkpt lat="47.84536" lon="6.765">
        <ele>834.445068</ele>
        <time>2018-05-26T12:40:29Z</time>
      </trkpt>
      <trkpt lat="47.84534" lon="6.76505">
        <ele>834.522461</ele>
        <time>2018-05-26T12:40:30Z</time>
      </trkpt>
      <trkpt lat="47.84533" lon="6.7651">
        <ele>834.598572</ele>
        <time>2018-05-26T12:40:31Z</time>
      </trkpt>
      <trkpt lat="47.84532" lon="6.76515">
        <ele>834.712891</ele>
        <time>2018-05-26T12:40:32Z</time>
      </trkpt>
      <trkpt lat="47.8453" lon="6.76521">
        <ele>834.799072</ele>
        <time>2018-05-26T12:40:33Z</time>
      </trkpt>
      <trkpt lat="47.84529" lon="6.76526">
        <ele>834.89679</ele>
        <time>2018-05-26T12:40:34Z</time>
      </trkpt>
      <trkpt lat="47.84528" lon="6.76531">
        <ele>835.002747</ele>
        <time>2018-05-26T12:40:35Z</time>
      </trkpt>
      <trkpt lat="47.84528" lon="6.76536">
        <ele>835.16925</ele>
        <time>2018-05-26T12:40:36Z</time>
      </trkpt>
      <trkpt lat="47.84526" lon="6.76541">
        <ele>835.286072</ele>
        <time>2018-05-26T12:40:37Z</time>
      </trkpt>
      <trkpt lat="47.84525" lon="6.76545">
        <ele>835.406006</ele>
        <time>2018-05-26T12:40:38Z</time>
      </trkpt>
      <trkpt lat="47.84524" lon="6.7655">
        <ele>835.523926</ele>
        <time>2018-05-26T12:40:39Z</time>
      </trkpt>
      <trkpt lat="47.84523" lon="6.76554">
        <ele>835.697815</ele>
        <time>2018-05-26T12:40:40Z</time>
      </trkpt>
      <trkpt lat="47.84522" lon="6.76559">
        <ele>835.811951</ele>
        <time>2018-05-26T12:40:41Z</time>
      </trkpt>
      <trkpt lat="47.84522" lon="6.76563">
        <ele>835.928528</ele>
        <time>2018-05-26T12:40:42Z</time>
      </trkpt>
      <trkpt lat="47.84521" lon="6.76567">
        <ele>835.988586</ele>
        <time>2018-05-26T12:40:43Z</time>
      </trkpt>
      <trkpt lat="47.8452" lon="6.7657">
        <ele>836.05011</ele>
        <time>2018-05-26T12:40:44Z</time>
      </trkpt>
      <trkpt lat="47.84519" lon="6.76574">
        <ele>836.179199</ele>
        <time>2018-05-26T12:40:45Z</time>
      </trkpt>
      <trkpt lat="47.84518" lon="6.76577">
        <ele>836.382507</ele>
        <time>2018-05-26T12:40:46Z</time>
      </trkpt>
      <trkpt lat="47.84517" lon="6.76581">
        <ele>836.528564</ele>
        <time>2018-05-26T12:40:47Z</time>
      </trkpt>
      <trkpt lat="47.84516" lon="6.76584">
        <ele>836.68573</ele>
        <time>2018-05-26T12:40:48Z</time>
      </trkpt>
      <trkpt lat="47.84514" lon="6.76588">
        <ele>836.932434</ele>
        <time>2018-05-26T12:40:49Z</time>
      </trkpt>
      <trkpt lat="47.84512" lon="6.76591">
        <ele>837.093079</ele>
        <time>2018-05-26T12:40:50Z</time>
      </trkpt>
      <trkpt lat="47.84511" lon="6.76593">
        <ele>837.250183</ele>
        <time>2018-05-26T12:40:51Z</time>
      </trkpt>
      <trkpt lat="47.8451" lon="6.76596">
        <ele>837.486145</ele>
        <time>2018-05-26T12:40:52Z</time>
      </trkpt>
      <trkpt lat="47.84508" lon="6.76599">
        <ele>837.653137</ele>
        <time>2018-05-26T12:40:53Z</time>
      </trkpt>
      <trkpt lat="47.84506" lon="6.76601">
        <ele>837.828369</ele>
        <time>2018-05-26T12:40:54Z</time>
      </trkpt>
      <trkpt lat="47.84504" lon="6.76603">
        <ele>838.006409</ele>
        <time>2018-05-26T12:40:55Z</time>
      </trkpt>
      <trkpt lat="47.84503" lon="6.76605">
        <ele>838.272278</ele>
        <time>2018-05-26T12:40:56Z</time>
      </trkpt>
      <trkpt lat="47.845" lon="6.76606">
        <ele>838.448303</ele>
        <time>2018-05-26T12:40:57Z</time>
      </trkpt>
      <trkpt lat="47.84498" lon="6.76609">
        <ele>838.623474</ele>
        <time>2018-05-26T12:40:58Z</time>
      </trkpt>
      <trkpt lat="47.84496" lon="6.76611">
        <ele>838.88208</ele>
        <time>2018-05-26T12:40:59Z</time>
      </trkpt>
      <trkpt lat="47.84494" lon="6.76613">
        <ele>839.048096</ele>
        <time>2018-05-26T12:41:00Z</time>
      </trkpt>
      <trkpt lat="47.84492" lon="6.76614">
        <ele>839.204773</ele>
        <time>2018-05-26T12:41:01Z</time>
      </trkpt>
      <trkpt lat="47.84489" lon="6.76615">
        <ele>839.419983</ele>
        <time>2018-05-26T12:41:02Z</time>
      </trkpt>
      <trkpt lat="47.84488" lon="6.76617">
        <ele>839.546082</ele>
        <time>2018-05-26T12:41:03Z</time>
      </trkpt>
      <trkpt lat="47.84486" lon="6.76618">
        <ele>839.658386</ele>
        <time>2018-05-26T12:41:04Z</time>
      </trkpt>
      <trkpt lat="47.84484" lon="6.7662">
        <ele>839.804443</ele>
        <time>2018-05-26T12:41:05Z</time>
      </trkpt>
      <trkpt lat="47.84481" lon="6.76621">
        <ele>839.88208</ele>
        <time>2018-05-26T12:41:06Z</time>
      </trkpt>
      <trkpt lat="47.84479" lon="6.76622">
        <ele>839.941406</ele>
        <time>2018-05-26T12:41:07Z</time>
      </trkpt>
      <trkpt lat="47.84477" lon="6.76623">
        <ele>840.004822</ele>
        <time>2018-05-26T12:41:08Z</time>
      </trkpt>
      <trkpt lat="47.84474" lon="6.76623">
        <ele>840.044495</ele>
        <time>2018-05-26T12:41:09Z</time>
      </trkpt>
      <trkpt lat="47.8447" lon="6.76624">
        <ele>840.12677</ele>
        <time>2018-05-26T12:41:10Z</time>
      </trkpt>
      <trkpt lat="47.84468" lon="6.76625">
        <ele>840.198669</ele>
        <time>2018-05-26T12:41:11Z</time>
      </trkpt>
      <trkpt lat="47.84465" lon="6.76626">
        <ele>840.277405</ele>
        <time>2018-05-26T12:41:12Z</time>
      </trkpt>
      <trkpt lat="47.84462" lon="6.76628">
        <ele>840.357483</ele>
        <time>2018-05-26T12:41:13Z</time>
      </trkpt>
      <trkpt lat="47.84459" lon="6.7663">
        <ele>840.462158</ele>
        <time>2018-05-26T12:41:14Z</time>
      </trkpt>
      <trkpt lat="47.84456" lon="6.76632">
        <ele>840.519714</ele>
        <time>2018-05-26T12:41:15Z</time>
      </trkpt>
      <trkpt lat="47.84453" lon="6.76634">
        <ele>840.574951</ele>
        <time>2018-05-26T12:41:16Z</time>
      </trkpt>
      <trkpt lat="47.8445" lon="6.76636">
        <ele>840.663513</ele>
        <time>2018-05-26T12:41:17Z</time>
      </trkpt>
      <trkpt lat="47.84448" lon="6.76638">
        <ele>840.726257</ele>
        <time>2018-05-26T12:41:18Z</time>
      </trkpt>
      <trkpt lat="47.84445" lon="6.7664">
        <ele>840.79425</ele>
        <time>2018-05-26T12:41:19Z</time>
      </trkpt>
      <trkpt lat="47.84442" lon="6.76643">
        <ele>840.918762</ele>
        <time>2018-05-26T12:41:20Z</time>
      </trkpt>
      <trkpt lat="47.8444" lon="6.76645">
        <ele>841.023682</ele>
        <time>2018-05-26T12:41:21Z</time>
      </trkpt>
      <trkpt lat="47.84439" lon="6.76647">
        <ele>841.144104</ele>
        <time>2018-05-26T12:41:22Z</time>
      </trkpt>
      <trkpt lat="47.84439" lon="6.7665">
        <ele>841.276917</ele>
        <time>2018-05-26T12:41:23Z</time>
      </trkpt>
      <trkpt lat="47.84438" lon="6.76652">
        <ele>841.489075</ele>
        <time>2018-05-26T12:41:24Z</time>
      </trkpt>
      <trkpt lat="47.84436" lon="6.76654">
        <ele>841.630371</ele>
        <time>2018-05-26T12:41:25Z</time>
      </trkpt>
      <trkpt lat="47.84433" lon="6.76656">
        <ele>841.765137</ele>
        <time>2018-05-26T12:41:26Z</time>
      </trkpt>
      <trkpt lat="47.8443" lon="6.76658">
        <ele>841.950745</ele>
        <time>2018-05-26T12:41:27Z</time>
      </trkpt>
      <trkpt lat="47.84428" lon="6.7666">
        <ele>842.070068</ele>
        <time>2018-05-26T12:41:28Z</time>
      </trkpt>
      <trkpt lat="47.84424" lon="6.76662">
        <ele>842.192688</ele>
        <time>2018-05-26T12:41:29Z</time>
      </trkpt>
      <trkpt lat="47.84422" lon="6.76663">
        <ele>842.318115</ele>
        <time>2018-05-26T12:41:30Z</time>
      </trkpt>
      <trkpt lat="47.84419" lon="6.76665">
        <ele>842.502686</ele>
        <time>2018-05-26T12:41:31Z</time>
      </trkpt>
      <trkpt lat="47.84417" lon="6.76666">
        <ele>842.622986</ele>
        <time>2018-05-26T12:41:32Z</time>
      </trkpt>
      <trkpt lat="47.84414" lon="6.76667">
        <ele>842.749939</ele>
        <time>2018-05-26T12:41:33Z</time>
      </trkpt>
      <trkpt lat="47.84412" lon="6.76669">
        <ele>842.960266</ele>
        <time>2018-05-26T12:41:34Z</time>
      </trkpt>
      <trkpt lat="47.8441" lon="6.76671">
        <ele>843.109619</ele>
        <time>2018-05-26T12:41:35Z</time>
      </trkpt>
      <trkpt lat="47.84408" lon="6.76673">
        <ele>843.25946</ele>
        <time>2018-05-26T12:41:36Z</time>
      </trkpt>
      <trkpt lat="47.84406" lon="6.76676">
        <ele>843.48468</ele>
        <time>2018-05-26T12:41:37Z</time>
      </trkpt>
      <trkpt lat="47.84404" lon="6.76678">
        <ele>843.642273</ele>
        <time>2018-05-26T12:41:38Z</time>
      </trkpt>
      <trkpt lat="47.84403" lon="6.76681">
        <ele>843.810059</ele>
        <time>2018-05-26T12:41:39Z</time>
      </trkpt>
      <trkpt lat="47.84401" lon="6.76684">
        <ele>844.078308</ele>
        <time>2018-05-26T12:41:40Z</time>
      </trkpt>
      <trkpt lat="47.844" lon="6.76687">
        <ele>844.265625</ele>
        <time>2018-05-26T12:41:41Z</time>
      </trkpt>
      <trkpt lat="47.84399" lon="6.76689">
        <ele>844.463074</ele>
        <time>2018-05-26T12:41:42Z</time>
      </trkpt>
      <trkpt lat="47.84397" lon="6.76691">
        <ele>844.781067</ele>
        <time>2018-05-26T12:41:43Z</time>
      </trkpt>
      <trkpt lat="47.84396" lon="6.76694">
        <ele>844.892578</ele>
        <time>2018-05-26T12:41:44Z</time>
      </trkpt>
      <trkpt lat="47.84395" lon="6.76697">
        <ele>845.004333</ele>
        <time>2018-05-26T12:41:45Z</time>
      </trkpt>
      <trkpt lat="47.84394" lon="6.76699">
        <ele>845.226563</ele>
        <time>2018-05-26T12:41:46Z</time>
      </trkpt>
      <trkpt lat="47.84393" lon="6.76702">
        <ele>845.554016</ele>
        <time>2018-05-26T12:41:47Z</time>
      </trkpt>
      <trkpt lat="47.84391" lon="6.76704">
        <ele>845.776062</ele>
        <time>2018-05-26T12:41:48Z</time>
      </trkpt>
      <trkpt lat="47.8439" lon="6.76707">
        <ele>846.001892</ele>
        <time>2018-05-26T12:41:49Z</time>
      </trkpt>
      <trkpt lat="47.84388" lon="6.7671">
        <ele>846.221436</ele>
        <time>2018-05-26T12:41:50Z</time>
      </trkpt>
      <trkpt lat="47.84387" lon="6.76713">
        <ele>846.511902</ele>
        <time>2018-05-26T12:41:51Z</time>
      </trkpt>
      <trkpt lat="47.84385" lon="6.76716">
        <ele>846.681702</ele>
        <time>2018-05-26T12:41:52Z</time>
      </trkpt>
      <trkpt lat="47.84383" lon="6.76719">
        <ele>846.845398</ele>
        <time>2018-05-26T12:41:53Z</time>
      </trkpt>
      <trkpt lat="47.84382" lon="6.76721">
        <ele>847.092468</ele>
        <time>2018-05-26T12:41:54Z</time>
      </trkpt>
      <trkpt lat="47.8438" lon="6.76724">
        <ele>847.25116</ele>
        <time>2018-05-26T12:41:55Z</time>
      </trkpt>
      <trkpt lat="47.84379" lon="6.76726">
        <ele>847.402649</ele>
        <time>2018-05-26T12:41:56Z</time>
      </trkpt>
      <trkpt lat="47.84377" lon="6.76729">
        <ele>847.555969</ele>
        <time>2018-05-26T12:41:57Z</time>
      </trkpt>
      <trkpt lat="47.84377" lon="6.76731">
        <ele>847.811584</ele>
        <time>2018-05-26T12:41:58Z</time>
      </trkpt>
      <trkpt lat="47.84375" lon="6.76734">
        <ele>847.998291</ele>
        <time>2018-05-26T12:41:59Z</time>
      </trkpt>
      <trkpt lat="47.84374" lon="6.76736">
        <ele>848.19043</ele>
        <time>2018-05-26T12:42:00Z</time>
      </trkpt>
      <trkpt lat="47.84373" lon="6.76738">
        <ele>848.483337</ele>
        <time>2018-05-26T12:42:01Z</time>
      </trkpt>
      <trkpt lat="47.8437" lon="6.76739">
        <ele>848.684082</ele>
        <time>2018-05-26T12:42:02Z</time>
      </trkpt>
      <trkpt lat="47.84369" lon="6.76741">
        <ele>848.890625</ele>
        <time>2018-05-26T12:42:03Z</time>
      </trkpt>
      <trkpt lat="47.84367" lon="6.76743">
        <ele>849.194763</ele>
        <time>2018-05-26T12:42:04Z</time>
      </trkpt>
      <trkpt lat="47.84366" lon="6.76744">
        <ele>849.38739</ele>
        <time>2018-05-26T12:42:05Z</time>
      </trkpt>
      <trkpt lat="47.84364" lon="6.76746">
        <ele>849.574219</ele>
        <time>2018-05-26T12:42:06Z</time>
      </trkpt>
      <trkpt lat="47.84364" lon="6.76747">
        <ele>849.851746</ele>
        <time>2018-05-26T12:42:07Z</time>
      </trkpt>
      <trkpt lat="47.84362" lon="6.76748">
        <ele>850.039795</ele>
        <time>2018-05-26T12:42:08Z</time>
      </trkpt>
      <trkpt lat="47.8436" lon="6.76749">
        <ele>850.234802</ele>
        <time>2018-05-26T12:42:09Z</time>
      </trkpt>
      <trkpt lat="47.84358" lon="6.76751">
        <ele>850.553772</ele>
        <time>2018-05-26T12:42:10Z</time>
      </trkpt>
      <trkpt lat="47.84355" lon="6.76752">
        <ele>850.782043</ele>
        <time>2018-05-26T12:42:11Z</time>
      </trkpt>
      <trkpt lat="47.84353" lon="6.76754">
        <ele>851.014465</ele>
        <time>2018-05-26T12:42:12Z</time>
      </trkpt>
      <trkpt lat="47.84351" lon="6.76755">
        <ele>851.352356</ele>
        <time>2018-05-26T12:42:13Z</time>
      </trkpt>
      <trkpt lat="47.84348" lon="6.76756">
        <ele>851.570557</ele>
        <time>2018-05-26T12:42:14Z</time>
      </trkpt>
      <trkpt lat="47.84346" lon="6.76757">
        <ele>851.785706</ele>
        <time>2018-05-26T12:42:15Z</time>
      </trkpt>
      <trkpt lat="47.84344" lon="6.76758">
        <ele>852.097839</ele>
        <time>2018-05-26T12:42:16Z</time>
      </trkpt>
      <trkpt lat="47.84341" lon="6.76758">
        <ele>852.291809</ele>
        <time>2018-05-26T12:42:17Z</time>
      </trkpt>
      <trkpt lat="47.84339" lon="6.76759">
        <ele>852.474792</ele>
        <time>2018-05-26T12:42:18Z</time>
      </trkpt>
      <trkpt lat="47.84337" lon="6.7676">
        <ele>852.721436</ele>
        <time>2018-05-26T12:42:19Z</time>
      </trkpt>
      <trkpt lat="47.84334" lon="6.76761">
        <ele>852.861572</ele>
        <time>2018-05-26T12:42:20Z</time>
      </trkpt>
      <trkpt lat="47.84332" lon="6.76762">
        <ele>853.037598</ele>
        <time>2018-05-26T12:42:21Z</time>
      </trkpt>
      <trkpt lat="47.8433" lon="6.76763">
        <ele>853.145752</ele>
        <time>2018-05-26T12:42:22Z</time>
      </trkpt>
      <trkpt lat="47.84328" lon="6.76764">
        <ele>853.250732</ele>
        <time>2018-05-26T12:42:23Z</time>
      </trkpt>
      <trkpt lat="47.84327" lon="6.76765">
        <ele>853.35498</ele>
        <time>2018-05-26T12:42:24Z</time>
      </trkpt>
      <trkpt lat="47.84325" lon="6.76766">
        <ele>853.519836</ele>
        <time>2018-05-26T12:42:25Z</time>
      </trkpt>
      <trkpt lat="47.84323" lon="6.76767">
        <ele>853.643555</ele>
        <time>2018-05-26T12:42:26Z</time>
      </trkpt>
      <trkpt lat="47.84321" lon="6.76768">
        <ele>853.777832</ele>
        <time>2018-05-26T12:42:27Z</time>
      </trkpt>
      <trkpt lat="47.84319" lon="6.76769">
        <ele>853.987122</ele>
        <time>2018-05-26T12:42:28Z</time>
      </trkpt>
      <trkpt lat="47.84317" lon="6.7677">
        <ele>854.126953</ele>
        <time>2018-05-26T12:42:29Z</time>
      </trkpt>
      <trkpt lat="47.84316" lon="6.76772">
        <ele>854.263184</ele>
        <time>2018-05-26T12:42:30Z</time>
      </trkpt>
      <trkpt lat="47.84314" lon="6.76774">
        <ele>854.465576</ele>
        <time>2018-05-26T12:42:31Z</time>
      </trkpt>
      <trkpt lat="47.84312" lon="6.76776">
        <ele>854.601563</ele>
        <time>2018-05-26T12:42:32Z</time>
      </trkpt>
      <trkpt lat="47.8431" lon="6.76778">
        <ele>854.740723</ele>
        <time>2018-05-26T12:42:33Z</time>
      </trkpt>
      <trkpt lat="47.84309" lon="6.7678">
        <ele>854.946777</ele>
        <time>2018-05-26T12:42:34Z</time>
      </trkpt>
      <trkpt lat="47.84306" lon="6.76783">
        <ele>855.080994</ele>
        <time>2018-05-26T12:42:35Z</time>
      </trkpt>
      <trkpt lat="47.84305" lon="6.76785">
        <ele>855.214783</ele>
        <time>2018-05-26T12:42:36Z</time>
      </trkpt>
      <trkpt lat="47.84304" lon="6.76788">
        <ele>855.424988</ele>
        <time>2018-05-26T12:42:37Z</time>
      </trkpt>
      <trkpt lat="47.84304" lon="6.76791">
        <ele>855.573975</ele>
        <time>2018-05-26T12:42:38Z</time>
      </trkpt>
      <trkpt lat="47.84303" lon="6.76794">
        <ele>855.728333</ele>
        <time>2018-05-26T12:42:39Z</time>
      </trkpt>
      <trkpt lat="47.84301" lon="6.76796">
        <ele>855.889954</ele>
        <time>2018-05-26T12:42:40Z</time>
      </trkpt>
      <trkpt lat="47.843" lon="6.76799">
        <ele>856.14325</ele>
        <time>2018-05-26T12:42:41Z</time>
      </trkpt>
      <trkpt lat="47.84299" lon="6.76802">
        <ele>856.319885</ele>
        <time>2018-05-26T12:42:42Z</time>
      </trkpt>
      <trkpt lat="47.84299" lon="6.76806">
        <ele>856.496582</ele>
        <time>2018-05-26T12:42:43Z</time>
      </trkpt>
      <trkpt lat="47.84299" lon="6.76809">
        <ele>856.663391</ele>
        <time>2018-05-26T12:42:44Z</time>
      </trkpt>
      <trkpt lat="47.84299" lon="6.76813">
        <ele>856.740967</ele>
        <time>2018-05-26T12:42:45Z</time>
      </trkpt>
      <trkpt lat="47.84299" lon="6.76816">
        <ele>856.885559</ele>
        <time>2018-05-26T12:42:46Z</time>
      </trkpt>
      <trkpt lat="47.84299" lon="6.76819">
        <ele>857.089539</ele>
        <time>2018-05-26T12:42:47Z</time>
      </trkpt>
      <trkpt lat="47.84299" lon="6.76823">
        <ele>857.229187</ele>
        <time>2018-05-26T12:42:48Z</time>
      </trkpt>
      <trkpt lat="47.84299" lon="6.76826">
        <ele>857.376526</ele>
        <time>2018-05-26T12:42:49Z</time>
      </trkpt>
      <trkpt lat="47.84299" lon="6.7683">
        <ele>857.530334</ele>
        <time>2018-05-26T12:42:50Z</time>
      </trkpt>
      <trkpt lat="47.84298" lon="6.76833">
        <ele>857.686035</ele>
        <time>2018-05-26T12:42:51Z</time>
      </trkpt>
      <trkpt lat="47.84298" lon="6.76836">
        <ele>857.842712</ele>
        <time>2018-05-26T12:42:52Z</time>
      </trkpt>
      <trkpt lat="47.84298" lon="6.7684">
        <ele>857.99884</ele>
        <time>2018-05-26T12:42:53Z</time>
      </trkpt>
      <trkpt lat="47.84298" lon="6.76844">
        <ele>858.215332</ele>
        <time>2018-05-26T12:42:54Z</time>
      </trkpt>
      <trkpt lat="47.84299" lon="6.76847">
        <ele>858.339539</ele>
        <time>2018-05-26T12:42:55Z</time>
      </trkpt>
      <trkpt lat="47.84299" lon="6.76851">
        <ele>858.449707</ele>
        <time>2018-05-26T12:42:56Z</time>
      </trkpt>
      <trkpt lat="47.843" lon="6.76854">
        <ele>858.558655</ele>
        <time>2018-05-26T12:42:57Z</time>
      </trkpt>
      <trkpt lat="47.843" lon="6.76857">
        <ele>858.671143</ele>
        <time>2018-05-26T12:42:58Z</time>
      </trkpt>
      <trkpt lat="47.843" lon="6.7686">
        <ele>858.790466</ele>
        <time>2018-05-26T12:42:59Z</time>
      </trkpt>
      <trkpt lat="47.84301" lon="6.76864">
        <ele>858.989258</ele>
        <time>2018-05-26T12:43:00Z</time>
      </trkpt>
      <trkpt lat="47.84302" lon="6.76867">
        <ele>859.135925</ele>
        <time>2018-05-26T12:43:01Z</time>
      </trkpt>
      <trkpt lat="47.84303" lon="6.7687">
        <ele>859.287598</ele>
        <time>2018-05-26T12:43:02Z</time>
      </trkpt>
      <trkpt lat="47.84304" lon="6.76873">
        <ele>859.439758</ele>
        <time>2018-05-26T12:43:03Z</time>
      </trkpt>
      <trkpt lat="47.84304" lon="6.76876">
        <ele>859.593567</ele>
        <time>2018-05-26T12:43:04Z</time>
      </trkpt>
      <trkpt lat="47.84304" lon="6.76878">
        <ele>859.830078</ele>
        <time>2018-05-26T12:43:05Z</time>
      </trkpt>
      <trkpt lat="47.84305" lon="6.76881">
        <ele>859.991211</ele>
        <time>2018-05-26T12:43:06Z</time>
      </trkpt>
      <trkpt lat="47.84306" lon="6.76884">
        <ele>860.158264</ele>
        <time>2018-05-26T12:43:07Z</time>
      </trkpt>
      <trkpt lat="47.84308" lon="6.76886">
        <ele>860.331604</ele>
        <time>2018-05-26T12:43:08Z</time>
      </trkpt>
      <trkpt lat="47.8431" lon="6.76889">
        <ele>860.614685</ele>
        <time>2018-05-26T12:43:09Z</time>
      </trkpt>
      <trkpt lat="47.84311" lon="6.76891">
        <ele>860.813293</ele>
        <time>2018-05-26T12:43:10Z</time>
      </trkpt>
      <trkpt lat="47.84312" lon="6.76894">
        <ele>861.008301</ele>
        <time>2018-05-26T12:43:11Z</time>
      </trkpt>
      <trkpt lat="47.84314" lon="6.76896">
        <ele>861.287598</ele>
        <time>2018-05-26T12:43:12Z</time>
      </trkpt>
      <trkpt lat="47.84316" lon="6.76899">
        <ele>861.472473</ele>
        <time>2018-05-26T12:43:13Z</time>
      </trkpt>
      <trkpt lat="47.84317" lon="6.76901">
        <ele>861.653625</ele>
        <time>2018-05-26T12:43:14Z</time>
      </trkpt>
      <trkpt lat="47.84317" lon="6.76904">
        <ele>861.90625</ele>
        <time>2018-05-26T12:43:15Z</time>
      </trkpt>
      <trkpt lat="47.84319" lon="6.76906">
        <ele>862.064758</ele>
        <time>2018-05-26T12:43:16Z</time>
      </trkpt>
      <trkpt lat="47.84321" lon="6.76908">
        <ele>862.223816</ele>
        <time>2018-05-26T12:43:17Z</time>
      </trkpt>
      <trkpt lat="47.84322" lon="6.7691">
        <ele>862.466797</ele>
        <time>2018-05-26T12:43:18Z</time>
      </trkpt>
      <trkpt lat="47.84324" lon="6.76913">
        <ele>862.627747</ele>
        <time>2018-05-26T12:43:19Z</time>
      </trkpt>
      <trkpt lat="47.84325" lon="6.76915">
        <ele>862.784668</ele>
        <time>2018-05-26T12:43:20Z</time>
      </trkpt>
      <trkpt lat="47.84327" lon="6.76918">
        <ele>863.01416</ele>
        <time>2018-05-26T12:43:21Z</time>
      </trkpt>
      <trkpt lat="47.84329" lon="6.76921">
        <ele>863.166992</ele>
        <time>2018-05-26T12:43:22Z</time>
      </trkpt>
      <trkpt lat="47.84332" lon="6.76924">
        <ele>863.31427</ele>
        <time>2018-05-26T12:43:23Z</time>
      </trkpt>
      <trkpt lat="47.84333" lon="6.76927">
        <ele>863.523254</ele>
        <time>2018-05-26T12:43:24Z</time>
      </trkpt>
      <trkpt lat="47.84335" lon="6.7693">
        <ele>863.650879</ele>
        <time>2018-05-26T12:43:25Z</time>
      </trkpt>
      <trkpt lat="47.84337" lon="6.76932">
        <ele>863.770447</ele>
        <time>2018-05-26T12:43:26Z</time>
      </trkpt>
      <trkpt lat="47.84338" lon="6.76935">
        <ele>863.933899</ele>
        <time>2018-05-26T12:43:27Z</time>
      </trkpt>
      <trkpt lat="47.8434" lon="6.76938">
        <ele>864.034363</ele>
        <time>2018-05-26T12:43:28Z</time>
      </trkpt>
      <trkpt lat="47.84342" lon="6.76941">
        <ele>864.127136</ele>
        <time>2018-05-26T12:43:29Z</time>
      </trkpt>
      <trkpt lat="47.84344" lon="6.76944">
        <ele>864.258057</ele>
        <time>2018-05-26T12:43:30Z</time>
      </trkpt>
      <trkpt lat="47.84345" lon="6.76947">
        <ele>864.33667</ele>
        <time>2018-05-26T12:43:31Z</time>
      </trkpt>
      <trkpt lat="47.84348" lon="6.76951">
        <ele>864.401794</ele>
        <time>2018-05-26T12:43:32Z</time>
      </trkpt>
      <trkpt lat="47.8435" lon="6.76955">
        <ele>864.455383</ele>
        <time>2018-05-26T12:43:33Z</time>
      </trkpt>
      <trkpt lat="47.84352" lon="6.76959">
        <ele>864.504822</ele>
        <time>2018-05-26T12:43:34Z</time>
      </trkpt>
      <trkpt lat="47.84354" lon="6.76962">
        <ele>864.571838</ele>
        <time>2018-05-26T12:43:35Z</time>
      </trkpt>
      <trkpt lat="47.84356" lon="6.76965">
        <ele>864.609863</ele>
        <time>2018-05-26T12:43:36Z</time>
      </trkpt>
      <trkpt lat="47.84359" lon="6.76969">
        <ele>864.643066</ele>
        <time>2018-05-26T12:43:37Z</time>
      </trkpt>
      <trkpt lat="47.84361" lon="6.76972">
        <ele>864.7005</ele>
        <time>2018-05-26T12:43:38Z</time>
      </trkpt>
      <trkpt lat="47.84363" lon="6.76975">
        <ele>864.752625</ele>
        <time>2018-05-26T12:43:39Z</time>
      </trkpt>
      <trkpt lat="47.84366" lon="6.76978">
        <ele>864.812317</ele>
        <time>2018-05-26T12:43:40Z</time>
      </trkpt>
      <trkpt lat="47.84369" lon="6.76982">
        <ele>864.87262</ele>
        <time>2018-05-26T12:43:41Z</time>
      </trkpt>
      <trkpt lat="47.84371" lon="6.76985">
        <ele>864.951721</ele>
        <time>2018-05-26T12:43:42Z</time>
      </trkpt>
      <trkpt lat="47.84373" lon="6.76988">
        <ele>864.997314</ele>
        <time>2018-05-26T12:43:43Z</time>
      </trkpt>
      <trkpt lat="47.84374" lon="6.76991">
        <ele>865.041809</ele>
        <time>2018-05-26T12:43:44Z</time>
      </trkpt>
      <trkpt lat="47.84376" lon="6.76994">
        <ele>865.118896</ele>
        <time>2018-05-26T12:43:45Z</time>
      </trkpt>
      <trkpt lat="47.84378" lon="6.76997">
        <ele>865.148132</ele>
        <time>2018-05-26T12:43:46Z</time>
      </trkpt>
      <trkpt lat="47.8438" lon="6.77">
        <ele>865.178467</ele>
        <time>2018-05-26T12:43:47Z</time>
      </trkpt>
      <trkpt lat="47.84383" lon="6.77004">
        <ele>865.242981</ele>
        <time>2018-05-26T12:43:48Z</time>
      </trkpt>
      <trkpt lat="47.84385" lon="6.77007">
        <ele>865.345215</ele>
        <time>2018-05-26T12:43:49Z</time>
      </trkpt>
      <trkpt lat="47.84388" lon="6.77009">
        <ele>865.414307</ele>
        <time>2018-05-26T12:43:50Z</time>
      </trkpt>
      <trkpt lat="47.8439" lon="6.77013">
        <ele>865.474548</ele>
        <time>2018-05-26T12:43:51Z</time>
      </trkpt>
      <trkpt lat="47.84393" lon="6.77017">
        <ele>865.543396</ele>
        <time>2018-05-26T12:43:52Z</time>
      </trkpt>
      <trkpt lat="47.84396" lon="6.77021">
        <ele>865.573242</ele>
        <time>2018-05-26T12:43:53Z</time>
      </trkpt>
      <trkpt lat="47.84398" lon="6.77026">
        <ele>865.594421</ele>
        <time>2018-05-26T12:43:54Z</time>
      </trkpt>
      <trkpt lat="47.84401" lon="6.77031">
        <ele>865.608093</ele>
        <time>2018-05-26T12:43:55Z</time>
      </trkpt>
      <trkpt lat="47.84403" lon="6.77035">
        <ele>865.612976</ele>
        <time>2018-05-26T12:43:56Z</time>
      </trkpt>
      <trkpt lat="47.84406" lon="6.77039">
        <ele>865.617432</ele>
        <time>2018-05-26T12:43:57Z</time>
      </trkpt>
      <trkpt lat="47.84409" lon="6.77043">
        <ele>865.627625</ele>
        <time>2018-05-26T12:43:58Z</time>
      </trkpt>
      <trkpt lat="47.84412" lon="6.77047">
        <ele>865.641296</ele>
        <time>2018-05-26T12:43:59Z</time>
      </trkpt>
      <trkpt lat="47.84414" lon="6.77052">
        <ele>865.656677</ele>
        <time>2018-05-26T12:44:00Z</time>
      </trkpt>
      <trkpt lat="47.84417" lon="6.77056">
        <ele>865.675537</ele>
        <time>2018-05-26T12:44:01Z</time>
      </trkpt>
      <trkpt lat="47.8442" lon="6.77061">
        <ele>865.689453</ele>
        <time>2018-05-26T12:44:02Z</time>
      </trkpt>
      <trkpt lat="47.84423" lon="6.77065">
        <ele>865.702148</ele>
        <time>2018-05-26T12:44:03Z</time>
      </trkpt>
      <trkpt lat="47.84425" lon="6.77069">
        <ele>865.713562</ele>
        <time>2018-05-26T12:44:04Z</time>
      </trkpt>
      <trkpt lat="47.84428" lon="6.77073">
        <ele>865.713928</ele>
        <time>2018-05-26T12:44:05Z</time>
      </trkpt>
      <trkpt lat="47.84431" lon="6.77078">
        <ele>865.713562</ele>
        <time>2018-05-26T12:44:06Z</time>
      </trkpt>
      <trkpt lat="47.84435" lon="6.77081">
        <ele>865.714661</ele>
        <time>2018-05-26T12:44:07Z</time>
      </trkpt>
      <trkpt lat="47.84437" lon="6.77085">
        <ele>865.720276</ele>
        <time>2018-05-26T12:44:08Z</time>
      </trkpt>
      <trkpt lat="47.84439" lon="6.77089">
        <ele>865.729919</ele>
        <time>2018-05-26T12:44:09Z</time>
      </trkpt>
      <trkpt lat="47.84442" lon="6.77093">
        <ele>865.764343</ele>
        <time>2018-05-26T12:44:10Z</time>
      </trkpt>
      <trkpt lat="47.84445" lon="6.77097">
        <ele>865.803955</ele>
        <time>2018-05-26T12:44:11Z</time>
      </trkpt>
      <trkpt lat="47.84448" lon="6.77101">
        <ele>865.856201</ele>
        <time>2018-05-26T12:44:12Z</time>
      </trkpt>
      <trkpt lat="47.84451" lon="6.77104">
        <ele>865.94281</ele>
        <time>2018-05-26T12:44:13Z</time>
      </trkpt>
      <trkpt lat="47.84454" lon="6.77108">
        <ele>865.996643</ele>
        <time>2018-05-26T12:44:14Z</time>
      </trkpt>
      <trkpt lat="47.84458" lon="6.77112">
        <ele>866.047546</ele>
        <time>2018-05-26T12:44:15Z</time>
      </trkpt>
      <trkpt lat="47.84461" lon="6.77115">
        <ele>866.124268</ele>
        <time>2018-05-26T12:44:16Z</time>
      </trkpt>
      <trkpt lat="47.84464" lon="6.77119">
        <ele>866.174744</ele>
        <time>2018-05-26T12:44:17Z</time>
      </trkpt>
      <trkpt lat="47.84466" lon="6.77122">
        <ele>866.22168</ele>
        <time>2018-05-26T12:44:18Z</time>
      </trkpt>
      <trkpt lat="47.84469" lon="6.77126">
        <ele>866.291504</ele>
        <time>2018-05-26T12:44:19Z</time>
      </trkpt>
      <trkpt lat="47.84473" lon="6.7713">
        <ele>866.338074</ele>
        <time>2018-05-26T12:44:20Z</time>
      </trkpt>
      <trkpt lat="47.84477" lon="6.77133">
        <ele>866.384216</ele>
        <time>2018-05-26T12:44:21Z</time>
      </trkpt>
      <trkpt lat="47.8448" lon="6.77136">
        <ele>866.459229</ele>
        <time>2018-05-26T12:44:22Z</time>
      </trkpt>
      <trkpt lat="47.84483" lon="6.77139">
        <ele>866.518066</ele>
        <time>2018-05-26T12:44:23Z</time>
      </trkpt>
      <trkpt lat="47.84486" lon="6.77142">
        <ele>866.582825</ele>
        <time>2018-05-26T12:44:24Z</time>
      </trkpt>
      <trkpt lat="47.84489" lon="6.77146">
        <ele>866.687012</ele>
        <time>2018-05-26T12:44:25Z</time>
      </trkpt>
      <trkpt lat="47.84491" lon="6.77149">
        <ele>866.763</ele>
        <time>2018-05-26T12:44:26Z</time>
      </trkpt>
      <trkpt lat="47.84493" lon="6.77151">
        <ele>866.850037</ele>
        <time>2018-05-26T12:44:27Z</time>
      </trkpt>
      <trkpt lat="47.84494" lon="6.77153">
        <ele>866.985168</ele>
        <time>2018-05-26T12:44:28Z</time>
      </trkpt>
      <trkpt lat="47.84496" lon="6.77156">
        <ele>867.064514</ele>
        <time>2018-05-26T12:44:29Z</time>
      </trkpt>
      <trkpt lat="47.845" lon="6.7716">
        <ele>867.129639</ele>
        <time>2018-05-26T12:44:30Z</time>
      </trkpt>
      <trkpt lat="47.84504" lon="6.77164">
        <ele>867.232483</ele>
        <time>2018-05-26T12:44:31Z</time>
      </trkpt>
      <trkpt lat="47.84507" lon="6.77167">
        <ele>867.316101</ele>
        <time>2018-05-26T12:44:32Z</time>
      </trkpt>
      <trkpt lat="47.84511" lon="6.7717">
        <ele>867.405212</ele>
        <time>2018-05-26T12:44:33Z</time>
      </trkpt>
      <trkpt lat="47.84514" lon="6.77174">
        <ele>867.52832</ele>
        <time>2018-05-26T12:44:34Z</time>
      </trkpt>
      <trkpt lat="47.84518" lon="6.77177">
        <ele>867.601013</ele>
        <time>2018-05-26T12:44:35Z</time>
      </trkpt>
      <trkpt lat="47.84522" lon="6.77181">
        <ele>867.673584</ele>
        <time>2018-05-26T12:44:36Z</time>
      </trkpt>
      <trkpt lat="47.84525" lon="6.77185">
        <ele>867.780823</ele>
        <time>2018-05-26T12:44:37Z</time>
      </trkpt>
      <trkpt lat="47.84529" lon="6.77188">
        <ele>867.83783</ele>
        <time>2018-05-26T12:44:38Z</time>
      </trkpt>
      <trkpt lat="47.84532" lon="6.77192">
        <ele>867.87384</ele>
        <time>2018-05-26T12:44:39Z</time>
      </trkpt>
      <trkpt lat="47.84536" lon="6.77196">
        <ele>867.902405</ele>
        <time>2018-05-26T12:44:40Z</time>
      </trkpt>
      <trkpt lat="47.84539" lon="6.772">
        <ele>867.914307</ele>
        <time>2018-05-26T12:44:41Z</time>
      </trkpt>
      <trkpt lat="47.84543" lon="6.77204">
        <ele>867.921204</ele>
        <time>2018-05-26T12:44:42Z</time>
      </trkpt>
      <trkpt lat="47.84546" lon="6.77208">
        <ele>867.923645</ele>
        <time>2018-05-26T12:44:43Z</time>
      </trkpt>
      <trkpt lat="47.84549" lon="6.77214">
        <ele>867.924988</ele>
        <time>2018-05-26T12:44:44Z</time>
      </trkpt>
      <trkpt lat="47.84552" lon="6.77219">
        <ele>867.930115</ele>
        <time>2018-05-26T12:44:45Z</time>
      </trkpt>
      <trkpt lat="47.84556" lon="6.77224">
        <ele>867.942932</ele>
        <time>2018-05-26T12:44:46Z</time>
      </trkpt>
      <trkpt lat="47.84559" lon="6.77228">
        <ele>867.947327</ele>
        <time>2018-05-26T12:44:47Z</time>
      </trkpt>
      <trkpt lat="47.84562" lon="6.77234">
        <ele>867.950684</ele>
        <time>2018-05-26T12:44:48Z</time>
      </trkpt>
      <trkpt lat="47.84565" lon="6.7724">
        <ele>867.954163</ele>
        <time>2018-05-26T12:44:49Z</time>
      </trkpt>
      <trkpt lat="47.84568" lon="6.77245">
        <ele>867.958069</ele>
        <time>2018-05-26T12:44:50Z</time>
      </trkpt>
      <trkpt lat="47.84571" lon="6.77251">
        <ele>867.972229</ele>
        <time>2018-05-26T12:44:51Z</time>
      </trkpt>
      <trkpt lat="47.84573" lon="6.77257">
        <ele>867.98877</ele>
        <time>2018-05-26T12:44:52Z</time>
      </trkpt>
      <trkpt lat="47.84575" lon="6.77263">
        <ele>868.005432</ele>
        <time>2018-05-26T12:44:53Z</time>
      </trkpt>
      <trkpt lat="47.84576" lon="6.77269">
        <ele>868.020447</ele>
        <time>2018-05-26T12:44:54Z</time>
      </trkpt>
      <trkpt lat="47.84578" lon="6.77276">
        <ele>868.045898</ele>
        <time>2018-05-26T12:44:55Z</time>
      </trkpt>
      <trkpt lat="47.8458" lon="6.77282">
        <ele>868.069153</ele>
        <time>2018-05-26T12:44:56Z</time>
      </trkpt>
      <trkpt lat="47.84582" lon="6.77288">
        <ele>868.091614</ele>
        <time>2018-05-26T12:44:57Z</time>
      </trkpt>
      <trkpt lat="47.84584" lon="6.77293">
        <ele>868.105957</ele>
        <time>2018-05-26T12:44:58Z</time>
      </trkpt>
      <trkpt lat="47.84586" lon="6.77299">
        <ele>868.125</ele>
        <time>2018-05-26T12:44:59Z</time>
      </trkpt>
      <trkpt lat="47.84588" lon="6.77306">
        <ele>868.156555</ele>
        <time>2018-05-26T12:45:00Z</time>
      </trkpt>
      <trkpt lat="47.8459" lon="6.77312">
        <ele>868.213196</ele>
        <time>2018-05-26T12:45:01Z</time>
      </trkpt>
      <trkpt lat="47.84592" lon="6.77318">
        <ele>868.286133</ele>
        <time>2018-05-26T12:45:02Z</time>
      </trkpt>
      <trkpt lat="47.84595" lon="6.77323">
        <ele>868.40863</ele>
        <time>2018-05-26T12:45:03Z</time>
      </trkpt>
      <trkpt lat="47.84596" lon="6.77329">
        <ele>868.499268</ele>
        <time>2018-05-26T12:45:04Z</time>
      </trkpt>
      <trkpt lat="47.84599" lon="6.77335">
        <ele>868.599426</ele>
        <time>2018-05-26T12:45:05Z</time>
      </trkpt>
      <trkpt lat="47.846" lon="6.77341">
        <ele>868.755859</ele>
        <time>2018-05-26T12:45:06Z</time>
      </trkpt>
      <trkpt lat="47.84602" lon="6.77347">
        <ele>868.858704</ele>
        <time>2018-05-26T12:45:07Z</time>
      </trkpt>
      <trkpt lat="47.84605" lon="6.77352">
        <ele>868.96167</ele>
        <time>2018-05-26T12:45:08Z</time>
      </trkpt>
      <trkpt lat="47.84607" lon="6.77357">
        <ele>869.12915</ele>
        <time>2018-05-26T12:45:09Z</time>
      </trkpt>
      <trkpt lat="47.84609" lon="6.77362">
        <ele>869.24884</ele>
        <time>2018-05-26T12:45:10Z</time>
      </trkpt>
      <trkpt lat="47.8461" lon="6.77368">
        <ele>869.366516</ele>
        <time>2018-05-26T12:45:11Z</time>
      </trkpt>
      <trkpt lat="47.84612" lon="6.77374">
        <ele>869.515625</ele>
        <time>2018-05-26T12:45:12Z</time>
      </trkpt>
      <trkpt lat="47.84613" lon="6.77381">
        <ele>869.589905</ele>
        <time>2018-05-26T12:45:13Z</time>
      </trkpt>
      <trkpt lat="47.84615" lon="6.77387">
        <ele>869.644226</ele>
        <time>2018-05-26T12:45:14Z</time>
      </trkpt>
      <trkpt lat="47.84616" lon="6.77393">
        <ele>869.685852</ele>
        <time>2018-05-26T12:45:15Z</time>
      </trkpt>
      <trkpt lat="47.84618" lon="6.77399">
        <ele>869.691162</ele>
        <time>2018-05-26T12:45:16Z</time>
      </trkpt>
      <trkpt lat="47.84621" lon="6.77405">
        <ele>869.691162</ele>
        <time>2018-05-26T12:45:17Z</time>
      </trkpt>
      <trkpt lat="47.84624" lon="6.7741">
        <ele>869.682129</ele>
        <time>2018-05-26T12:45:18Z</time>
      </trkpt>
      <trkpt lat="47.84626" lon="6.77416">
        <ele>869.679993</ele>
        <time>2018-05-26T12:45:19Z</time>
      </trkpt>
      <trkpt lat="47.84628" lon="6.77421">
        <ele>869.679993</ele>
        <time>2018-05-26T12:45:20Z</time>
      </trkpt>
      <trkpt lat="47.8463" lon="6.77426">
        <ele>869.687988</ele>
        <time>2018-05-26T12:45:21Z</time>
      </trkpt>
      <trkpt lat="47.84632" lon="6.77431">
        <ele>869.728516</ele>
        <time>2018-05-26T12:45:22Z</time>
      </trkpt>
      <trkpt lat="47.84635" lon="6.77437">
        <ele>869.767395</ele>
        <time>2018-05-26T12:45:23Z</time>
      </trkpt>
      <trkpt lat="47.84636" lon="6.77443">
        <ele>869.809265</ele>
        <time>2018-05-26T12:45:24Z</time>
      </trkpt>
      <trkpt lat="47.84638" lon="6.77448">
        <ele>869.878967</ele>
        <time>2018-05-26T12:45:25Z</time>
      </trkpt>
      <trkpt lat="47.84639" lon="6.77453">
        <ele>869.932556</ele>
        <time>2018-05-26T12:45:26Z</time>
      </trkpt>
      <trkpt lat="47.84642" lon="6.77459">
        <ele>869.997803</ele>
        <time>2018-05-26T12:45:27Z</time>
      </trkpt>
      <trkpt lat="47.84644" lon="6.77463">
        <ele>870.07666</ele>
        <time>2018-05-26T12:45:28Z</time>
      </trkpt>
      <trkpt lat="47.84646" lon="6.77467">
        <ele>870.226257</ele>
        <time>2018-05-26T12:45:29Z</time>
      </trkpt>
      <trkpt lat="47.84648" lon="6.77472">
        <ele>870.345947</ele>
        <time>2018-05-26T12:45:30Z</time>
      </trkpt>
      <trkpt lat="47.84649" lon="6.77477">
        <ele>870.480713</ele>
        <time>2018-05-26T12:45:31Z</time>
      </trkpt>
      <trkpt lat="47.84649" lon="6.77482">
        <ele>870.695129</ele>
        <time>2018-05-26T12:45:32Z</time>
      </trkpt>
      <trkpt lat="47.84651" lon="6.77488">
        <ele>870.840027</ele>
        <time>2018-05-26T12:45:33Z</time>
      </trkpt>
      <trkpt lat="47.84651" lon="6.77492">
        <ele>870.978699</ele>
        <time>2018-05-26T12:45:34Z</time>
      </trkpt>
      <trkpt lat="47.84652" lon="6.77498">
        <ele>871.106262</ele>
        <time>2018-05-26T12:45:35Z</time>
      </trkpt>
      <trkpt lat="47.84653" lon="6.77504">
        <ele>871.27301</ele>
        <time>2018-05-26T12:45:36Z</time>
      </trkpt>
      <trkpt lat="47.84653" lon="6.7751">
        <ele>871.371887</ele>
        <time>2018-05-26T12:45:37Z</time>
      </trkpt>
      <trkpt lat="47.84653" lon="6.77516">
        <ele>871.464539</ele>
        <time>2018-05-26T12:45:38Z</time>
      </trkpt>
      <trkpt lat="47.84654" lon="6.77521">
        <ele>871.55011</ele>
        <time>2018-05-26T12:45:39Z</time>
      </trkpt>
      <trkpt lat="47.84656" lon="6.77527">
        <ele>871.657166</ele>
        <time>2018-05-26T12:45:40Z</time>
      </trkpt>
      <trkpt lat="47.84657" lon="6.77533">
        <ele>871.708801</ele>
        <time>2018-05-26T12:45:41Z</time>
      </trkpt>
      <trkpt lat="47.84658" lon="6.77538">
        <ele>871.747009</ele>
        <time>2018-05-26T12:45:42Z</time>
      </trkpt>
      <trkpt lat="47.8466" lon="6.77543">
        <ele>871.789063</ele>
        <time>2018-05-26T12:45:43Z</time>
      </trkpt>
      <trkpt lat="47.84661" lon="6.77548">
        <ele>871.802063</ele>
        <time>2018-05-26T12:45:44Z</time>
      </trkpt>
      <trkpt lat="47.84662" lon="6.77553">
        <ele>871.80304</ele>
        <time>2018-05-26T12:45:45Z</time>
      </trkpt>
      <trkpt lat="47.84665" lon="6.77559">
        <ele>871.799622</ele>
        <time>2018-05-26T12:45:46Z</time>
      </trkpt>
      <trkpt lat="47.84667" lon="6.77565">
        <ele>871.771484</ele>
        <time>2018-05-26T12:45:47Z</time>
      </trkpt>
      <trkpt lat="47.8467" lon="6.77571">
        <ele>871.75946</ele>
        <time>2018-05-26T12:45:48Z</time>
      </trkpt>
      <trkpt lat="47.84672" lon="6.77577">
        <ele>871.71637</ele>
        <time>2018-05-26T12:45:49Z</time>
      </trkpt>
      <trkpt lat="47.84675" lon="6.77582">
        <ele>871.675598</ele>
        <time>2018-05-26T12:45:50Z</time>
      </trkpt>
      <trkpt lat="47.84678" lon="6.77588">
        <ele>871.619446</ele>
        <time>2018-05-26T12:45:51Z</time>
      </trkpt>
      <trkpt lat="47.84681" lon="6.77594">
        <ele>871.55072</ele>
        <time>2018-05-26T12:45:52Z</time>
      </trkpt>
      <trkpt lat="47.84683" lon="6.77599">
        <ele>871.443359</ele>
        <time>2018-05-26T12:45:53Z</time>
      </trkpt>
      <trkpt lat="47.84685" lon="6.77604">
        <ele>871.380859</ele>
        <time>2018-05-26T12:45:54Z</time>
      </trkpt>
      <trkpt lat="47.84687" lon="6.77609">
        <ele>871.332214</ele>
        <time>2018-05-26T12:45:55Z</time>
      </trkpt>
      <trkpt lat="47.84691" lon="6.77614">
        <ele>871.297852</ele>
        <time>2018-05-26T12:45:56Z</time>
      </trkpt>
      <trkpt lat="47.84693" lon="6.77619">
        <ele>871.287598</ele>
        <time>2018-05-26T12:45:57Z</time>
      </trkpt>
      <trkpt lat="47.84695" lon="6.77624">
        <ele>871.292236</ele>
        <time>2018-05-26T12:45:58Z</time>
      </trkpt>
      <trkpt lat="47.84697" lon="6.77628">
        <ele>871.319885</ele>
        <time>2018-05-26T12:45:59Z</time>
      </trkpt>
      <trkpt lat="47.84699" lon="6.77633">
        <ele>871.396423</ele>
        <time>2018-05-26T12:46:00Z</time>
      </trkpt>
      <trkpt lat="47.84702" lon="6.77638">
        <ele>871.457336</ele>
        <time>2018-05-26T12:46:01Z</time>
      </trkpt>
      <trkpt lat="47.84704" lon="6.77643">
        <ele>871.521545</ele>
        <time>2018-05-26T12:46:02Z</time>
      </trkpt>
      <trkpt lat="47.84706" lon="6.77648">
        <ele>871.621826</ele>
        <time>2018-05-26T12:46:03Z</time>
      </trkpt>
      <trkpt lat="47.84708" lon="6.77652">
        <ele>871.695007</ele>
        <time>2018-05-26T12:46:04Z</time>
      </trkpt>
      <trkpt lat="47.8471" lon="6.77657">
        <ele>871.771729</ele>
        <time>2018-05-26T12:46:05Z</time>
      </trkpt>
      <trkpt lat="47.84712" lon="6.77661">
        <ele>871.88739</ele>
        <time>2018-05-26T12:46:06Z</time>
      </trkpt>
      <trkpt lat="47.84716" lon="6.77666">
        <ele>871.962463</ele>
        <time>2018-05-26T12:46:07Z</time>
      </trkpt>
      <trkpt lat="47.84719" lon="6.77671">
        <ele>872.044495</ele>
        <time>2018-05-26T12:46:08Z</time>
      </trkpt>
      <trkpt lat="47.84721" lon="6.77676">
        <ele>872.139343</ele>
        <time>2018-05-26T12:46:09Z</time>
      </trkpt>
      <trkpt lat="47.84723" lon="6.7768">
        <ele>872.317566</ele>
        <time>2018-05-26T12:46:10Z</time>
      </trkpt>
      <trkpt lat="47.84726" lon="6.77685">
        <ele>872.458801</ele>
        <time>2018-05-26T12:46:11Z</time>
      </trkpt>
      <trkpt lat="47.84728" lon="6.7769">
        <ele>872.612732</ele>
        <time>2018-05-26T12:46:12Z</time>
      </trkpt>
      <trkpt lat="47.84731" lon="6.77695">
        <ele>872.842102</ele>
        <time>2018-05-26T12:46:13Z</time>
      </trkpt>
      <trkpt lat="47.84732" lon="6.777">
        <ele>872.978699</ele>
        <time>2018-05-26T12:46:14Z</time>
      </trkpt>
      <trkpt lat="47.84736" lon="6.77705">
        <ele>873.093079</ele>
        <time>2018-05-26T12:46:15Z</time>
      </trkpt>
      <trkpt lat="47.84739" lon="6.77711">
        <ele>873.185974</ele>
        <time>2018-05-26T12:46:16Z</time>
      </trkpt>
      <trkpt lat="47.84742" lon="6.77717">
        <ele>873.271912</ele>
        <time>2018-05-26T12:46:17Z</time>
      </trkpt>
      <trkpt lat="47.84744" lon="6.77724">
        <ele>873.283264</ele>
        <time>2018-05-26T12:46:18Z</time>
      </trkpt>
      <trkpt lat="47.84745" lon="6.7773">
        <ele>873.283264</ele>
        <time>2018-05-26T12:46:19Z</time>
      </trkpt>
      <trkpt lat="47.84747" lon="6.77736">
        <ele>873.26709</ele>
        <time>2018-05-26T12:46:20Z</time>
      </trkpt>
      <trkpt lat="47.84749" lon="6.77743">
        <ele>873.221375</ele>
        <time>2018-05-26T12:46:21Z</time>
      </trkpt>
      <trkpt lat="47.8475" lon="6.77751">
        <ele>873.198792</ele>
        <time>2018-05-26T12:46:22Z</time>
      </trkpt>
      <trkpt lat="47.84752" lon="6.77758">
        <ele>873.185486</ele>
        <time>2018-05-26T12:46:23Z</time>
      </trkpt>
      <trkpt lat="47.84752" lon="6.77766">
        <ele>873.181824</ele>
        <time>2018-05-26T12:46:24Z</time>
      </trkpt>
      <trkpt lat="47.84752" lon="6.77773">
        <ele>873.180176</ele>
        <time>2018-05-26T12:46:25Z</time>
      </trkpt>
      <trkpt lat="47.84752" lon="6.77781">
        <ele>873.173157</ele>
        <time>2018-05-26T12:46:26Z</time>
      </trkpt>
      <trkpt lat="47.84753" lon="6.77788">
        <ele>873.146545</ele>
        <time>2018-05-26T12:46:27Z</time>
      </trkpt>
      <trkpt lat="47.84754" lon="6.77796">
        <ele>873.066467</ele>
        <time>2018-05-26T12:46:28Z</time>
      </trkpt>
      <trkpt lat="47.84755" lon="6.77803">
        <ele>872.987549</ele>
        <time>2018-05-26T12:46:29Z</time>
      </trkpt>
      <trkpt lat="47.84755" lon="6.7781">
        <ele>872.892029</ele>
        <time>2018-05-26T12:46:30Z</time>
      </trkpt>
      <trkpt lat="47.84757" lon="6.77817">
        <ele>872.792053</ele>
        <time>2018-05-26T12:46:31Z</time>
      </trkpt>
      <trkpt lat="47.84758" lon="6.77824">
        <ele>872.6604</ele>
        <time>2018-05-26T12:46:32Z</time>
      </trkpt>
      <trkpt lat="47.84759" lon="6.77831">
        <ele>872.608459</ele>
        <time>2018-05-26T12:46:33Z</time>
      </trkpt>
      <trkpt lat="47.84761" lon="6.77838">
        <ele>872.596008</ele>
        <time>2018-05-26T12:46:34Z</time>
      </trkpt>
      <trkpt lat="47.84763" lon="6.77845">
        <ele>872.605164</ele>
        <time>2018-05-26T12:46:35Z</time>
      </trkpt>
      <trkpt lat="47.84765" lon="6.77851">
        <ele>872.647644</ele>
        <time>2018-05-26T12:46:36Z</time>
      </trkpt>
      <trkpt lat="47.84766" lon="6.77857">
        <ele>872.709473</ele>
        <time>2018-05-26T12:46:37Z</time>
      </trkpt>
      <trkpt lat="47.84768" lon="6.77863">
        <ele>872.832031</ele>
        <time>2018-05-26T12:46:38Z</time>
      </trkpt>
      <trkpt lat="47.84771" lon="6.77869">
        <ele>872.931091</ele>
        <time>2018-05-26T12:46:39Z</time>
      </trkpt>
      <trkpt lat="47.84772" lon="6.77875">
        <ele>873.042664</ele>
        <time>2018-05-26T12:46:40Z</time>
      </trkpt>
      <trkpt lat="47.84773" lon="6.77882">
        <ele>873.164307</ele>
        <time>2018-05-26T12:46:41Z</time>
      </trkpt>
      <trkpt lat="47.84774" lon="6.77888">
        <ele>873.355469</ele>
        <time>2018-05-26T12:46:42Z</time>
      </trkpt>
      <trkpt lat="47.84776" lon="6.77894">
        <ele>873.473816</ele>
        <time>2018-05-26T12:46:43Z</time>
      </trkpt>
      <trkpt lat="47.84779" lon="6.77901">
        <ele>873.575134</ele>
        <time>2018-05-26T12:46:44Z</time>
      </trkpt>
      <trkpt lat="47.84782" lon="6.77908">
        <ele>873.65918</ele>
        <time>2018-05-26T12:46:45Z</time>
      </trkpt>
      <trkpt lat="47.84786" lon="6.77914">
        <ele>873.763428</ele>
        <time>2018-05-26T12:46:46Z</time>
      </trkpt>
      <trkpt lat="47.8479" lon="6.7792">
        <ele>873.80365</ele>
        <time>2018-05-26T12:46:47Z</time>
      </trkpt>
      <trkpt lat="47.84794" lon="6.77926">
        <ele>873.81073</ele>
        <time>2018-05-26T12:46:48Z</time>
      </trkpt>
      <trkpt lat="47.84797" lon="6.77932">
        <ele>873.81073</ele>
        <time>2018-05-26T12:46:49Z</time>
      </trkpt>
      <trkpt lat="47.84801" lon="6.77937">
        <ele>873.81073</ele>
        <time>2018-05-26T12:46:50Z</time>
      </trkpt>
      <trkpt lat="47.84805" lon="6.77944">
        <ele>873.794983</ele>
        <time>2018-05-26T12:46:51Z</time>
      </trkpt>
      <trkpt lat="47.84808" lon="6.7795">
        <ele>873.74707</ele>
        <time>2018-05-26T12:46:52Z</time>
      </trkpt>
      <trkpt lat="47.84812" lon="6.77957">
        <ele>873.63623</ele>
        <time>2018-05-26T12:46:53Z</time>
      </trkpt>
      <trkpt lat="47.84816" lon="6.77963">
        <ele>873.521301</ele>
        <time>2018-05-26T12:46:54Z</time>
      </trkpt>
      <trkpt lat="47.84819" lon="6.7797">
        <ele>873.358887</ele>
        <time>2018-05-26T12:46:55Z</time>
      </trkpt>
      <trkpt lat="47.84822" lon="6.77977">
        <ele>873.034668</ele>
        <time>2018-05-26T12:46:56Z</time>
      </trkpt>
      <trkpt lat="47.84824" lon="6.77984">
        <ele>872.785828</ele>
        <time>2018-05-26T12:46:57Z</time>
      </trkpt>
      <trkpt lat="47.84827" lon="6.7799">
        <ele>872.531738</ele>
        <time>2018-05-26T12:46:58Z</time>
      </trkpt>
      <trkpt lat="47.84829" lon="6.77997">
        <ele>872.185974</ele>
        <time>2018-05-26T12:46:59Z</time>
      </trkpt>
      <trkpt lat="47.8483" lon="6.78004">
        <ele>872.003174</ele>
        <time>2018-05-26T12:47:00Z</time>
      </trkpt>
      <trkpt lat="47.84831" lon="6.78011">
        <ele>871.880371</ele>
        <time>2018-05-26T12:47:01Z</time>
      </trkpt>
      <trkpt lat="47.84832" lon="6.78017">
        <ele>871.823242</ele>
        <time>2018-05-26T12:47:02Z</time>
      </trkpt>
      <trkpt lat="47.84835" lon="6.78024">
        <ele>871.820618</ele>
        <time>2018-05-26T12:47:03Z</time>
      </trkpt>
      <trkpt lat="47.84837" lon="6.78031">
        <ele>871.855713</ele>
        <time>2018-05-26T12:47:04Z</time>
      </trkpt>
      <trkpt lat="47.84838" lon="6.78037">
        <ele>871.933838</ele>
        <time>2018-05-26T12:47:05Z</time>
      </trkpt>
      <trkpt lat="47.84839" lon="6.78043">
        <ele>872.037354</ele>
        <time>2018-05-26T12:47:06Z</time>
      </trkpt>
      <trkpt lat="47.84841" lon="6.78049">
        <ele>872.216248</ele>
        <time>2018-05-26T12:47:07Z</time>
      </trkpt>
      <trkpt lat="47.84842" lon="6.78055">
        <ele>872.336426</ele>
        <time>2018-05-26T12:47:08Z</time>
      </trkpt>
      <trkpt lat="47.84843" lon="6.78061">
        <ele>872.451904</ele>
        <time>2018-05-26T12:47:09Z</time>
      </trkpt>
      <trkpt lat="47.84843" lon="6.78067">
        <ele>872.564758</ele>
        <time>2018-05-26T12:47:10Z</time>
      </trkpt>
      <trkpt lat="47.84845" lon="6.78073">
        <ele>872.682129</ele>
        <time>2018-05-26T12:47:11Z</time>
      </trkpt>
      <trkpt lat="47.84845" lon="6.7808">
        <ele>872.80957</ele>
        <time>2018-05-26T12:47:12Z</time>
      </trkpt>
      <trkpt lat="47.84846" lon="6.78086">
        <ele>872.942871</ele>
        <time>2018-05-26T12:47:13Z</time>
      </trkpt>
      <trkpt lat="47.84847" lon="6.78092">
        <ele>873.077148</ele>
        <time>2018-05-26T12:47:14Z</time>
      </trkpt>
      <trkpt lat="47.84849" lon="6.78099">
        <ele>873.2724</ele>
        <time>2018-05-26T12:47:15Z</time>
      </trkpt>
      <trkpt lat="47.8485" lon="6.78105">
        <ele>873.406555</ele>
        <time>2018-05-26T12:47:16Z</time>
      </trkpt>
      <trkpt lat="47.8485" lon="6.78111">
        <ele>873.539001</ele>
        <time>2018-05-26T12:47:17Z</time>
      </trkpt>
      <trkpt lat="47.84852" lon="6.78117">
        <ele>873.717041</ele>
        <time>2018-05-26T12:47:18Z</time>
      </trkpt>
      <trkpt lat="47.84853" lon="6.78123">
        <ele>873.814026</ele>
        <time>2018-05-26T12:47:19Z</time>
      </trkpt>
      <trkpt lat="47.84855" lon="6.7813">
        <ele>873.897278</ele>
        <time>2018-05-26T12:47:20Z</time>
      </trkpt>
      <trkpt lat="47.84856" lon="6.78136">
        <ele>874.003906</ele>
        <time>2018-05-26T12:47:21Z</time>
      </trkpt>
      <trkpt lat="47.84859" lon="6.78142">
        <ele>874.066162</ele>
        <time>2018-05-26T12:47:22Z</time>
      </trkpt>
      <trkpt lat="47.84861" lon="6.78148">
        <ele>874.120117</ele>
        <time>2018-05-26T12:47:23Z</time>
      </trkpt>
      <trkpt lat="47.84863" lon="6.78154">
        <ele>874.183899</ele>
        <time>2018-05-26T12:47:24Z</time>
      </trkpt>
      <trkpt lat="47.84865" lon="6.7816">
        <ele>874.215332</ele>
        <time>2018-05-26T12:47:25Z</time>
      </trkpt>
      <trkpt lat="47.84866" lon="6.78167">
        <ele>874.239441</ele>
        <time>2018-05-26T12:47:26Z</time>
      </trkpt>
      <trkpt lat="47.84869" lon="6.78174">
        <ele>874.261047</ele>
        <time>2018-05-26T12:47:27Z</time>
      </trkpt>
      <trkpt lat="47.84871" lon="6.7818">
        <ele>874.291992</ele>
        <time>2018-05-26T12:47:28Z</time>
      </trkpt>
      <trkpt lat="47.84873" lon="6.78186">
        <ele>874.309387</ele>
        <time>2018-05-26T12:47:29Z</time>
      </trkpt>
      <trkpt lat="47.84875" lon="6.78192">
        <ele>874.321106</ele>
        <time>2018-05-26T12:47:30Z</time>
      </trkpt>
      <trkpt lat="47.84878" lon="6.78198">
        <ele>874.34668</ele>
        <time>2018-05-26T12:47:31Z</time>
      </trkpt>
      <trkpt lat="47.8488" lon="6.78204">
        <ele>874.383057</ele>
        <time>2018-05-26T12:47:32Z</time>
      </trkpt>
      <trkpt lat="47.84882" lon="6.7821">
        <ele>874.441101</ele>
        <time>2018-05-26T12:47:33Z</time>
      </trkpt>
      <trkpt lat="47.84884" lon="6.78214">
        <ele>874.521973</ele>
        <time>2018-05-26T12:47:34Z</time>
      </trkpt>
      <trkpt lat="47.84885" lon="6.78218">
        <ele>874.634827</ele>
        <time>2018-05-26T12:47:35Z</time>
      </trkpt>
      <trkpt lat="47.84887" lon="6.78222">
        <ele>874.871826</ele>
        <time>2018-05-26T12:47:36Z</time>
      </trkpt>
      <trkpt lat="47.84888" lon="6.78226">
        <ele>875.072693</ele>
        <time>2018-05-26T12:47:37Z</time>
      </trkpt>
      <trkpt lat="47.8489" lon="6.78229">
        <ele>875.299377</ele>
        <time>2018-05-26T12:47:38Z</time>
      </trkpt>
      <trkpt lat="47.84892" lon="6.78232">
        <ele>875.540222</ele>
        <time>2018-05-26T12:47:39Z</time>
      </trkpt>
      <trkpt lat="47.84893" lon="6.78234">
        <ele>875.905212</ele>
        <time>2018-05-26T12:47:40Z</time>
      </trkpt>
      <trkpt lat="47.84894" lon="6.78237">
        <ele>876.142761</ele>
        <time>2018-05-26T12:47:41Z</time>
      </trkpt>
      <trkpt lat="47.84895" lon="6.78239">
        <ele>876.375061</ele>
        <time>2018-05-26T12:47:42Z</time>
      </trkpt>
      <trkpt lat="47.84895" lon="6.78241">
        <ele>876.604248</ele>
        <time>2018-05-26T12:47:43Z</time>
      </trkpt>
      <trkpt lat="47.84894" lon="6.78244">
        <ele>876.950378</ele>
        <time>2018-05-26T12:47:44Z</time>
      </trkpt>
      <trkpt lat="47.84895" lon="6.78247">
        <ele>877.187195</ele>
        <time>2018-05-26T12:47:45Z</time>
      </trkpt>
      <trkpt lat="47.84896" lon="6.7825">
        <ele>877.425964</ele>
        <time>2018-05-26T12:47:46Z</time>
      </trkpt>
      <trkpt lat="47.84897" lon="6.78254">
        <ele>877.663269</ele>
        <time>2018-05-26T12:47:47Z</time>
      </trkpt>
      <trkpt lat="47.84898" lon="6.78257">
        <ele>877.900452</ele>
        <time>2018-05-26T12:47:48Z</time>
      </trkpt>
      <trkpt lat="47.84899" lon="6.78259">
        <ele>878.02124</ele>
        <time>2018-05-26T12:47:49Z</time>
      </trkpt>
      <trkpt lat="47.84902" lon="6.78262">
        <ele>878.388733</ele>
        <time>2018-05-26T12:47:50Z</time>
      </trkpt>
      <trkpt lat="47.84902" lon="6.78266">
        <ele>878.632751</ele>
        <time>2018-05-26T12:47:51Z</time>
      </trkpt>
      <trkpt lat="47.84903" lon="6.78269">
        <ele>878.87085</ele>
        <time>2018-05-26T12:47:52Z</time>
      </trkpt>
      <trkpt lat="47.84902" lon="6.78272">
        <ele>879.105408</ele>
        <time>2018-05-26T12:47:53Z</time>
      </trkpt>
      <trkpt lat="47.84904" lon="6.78275">
        <ele>879.340393</ele>
        <time>2018-05-26T12:47:54Z</time>
      </trkpt>
      <trkpt lat="47.84906" lon="6.78278">
        <ele>879.685059</ele>
        <time>2018-05-26T12:47:55Z</time>
      </trkpt>
      <trkpt lat="47.84909" lon="6.78281">
        <ele>879.902344</ele>
        <time>2018-05-26T12:47:56Z</time>
      </trkpt>
      <trkpt lat="47.8491" lon="6.78284">
        <ele>880.103699</ele>
        <time>2018-05-26T12:47:57Z</time>
      </trkpt>
      <trkpt lat="47.84911" lon="6.78287">
        <ele>880.385437</ele>
        <time>2018-05-26T12:47:58Z</time>
      </trkpt>
      <trkpt lat="47.84912" lon="6.7829">
        <ele>880.563782</ele>
        <time>2018-05-26T12:47:59Z</time>
      </trkpt>
      <trkpt lat="47.84912" lon="6.78293">
        <ele>880.743958</ele>
        <time>2018-05-26T12:48:00Z</time>
      </trkpt>
      <trkpt lat="47.84913" lon="6.78296">
        <ele>881.020325</ele>
        <time>2018-05-26T12:48:01Z</time>
      </trkpt>
      <trkpt lat="47.84914" lon="6.78299">
        <ele>881.213379</ele>
        <time>2018-05-26T12:48:02Z</time>
      </trkpt>
      <trkpt lat="47.84916" lon="6.78302">
        <ele>881.410156</ele>
        <time>2018-05-26T12:48:03Z</time>
      </trkpt>
      <trkpt lat="47.84918" lon="6.78305">
        <ele>881.606934</ele>
        <time>2018-05-26T12:48:04Z</time>
      </trkpt>
      <trkpt lat="47.84919" lon="6.78307">
        <ele>881.890686</ele>
        <time>2018-05-26T12:48:05Z</time>
      </trkpt>
      <trkpt lat="47.84919" lon="6.78309">
        <ele>882.068787</ele>
        <time>2018-05-26T12:48:06Z</time>
      </trkpt>
      <trkpt lat="47.84921" lon="6.78312">
        <ele>882.238464</ele>
        <time>2018-05-26T12:48:07Z</time>
      </trkpt>
      <trkpt lat="47.84922" lon="6.78316">
        <ele>882.475525</ele>
        <time>2018-05-26T12:48:08Z</time>
      </trkpt>
      <trkpt lat="47.84924" lon="6.78318">
        <ele>882.62323</ele>
        <time>2018-05-26T12:48:09Z</time>
      </trkpt>
      <trkpt lat="47.84926" lon="6.78321">
        <ele>882.77124</ele>
        <time>2018-05-26T12:48:10Z</time>
      </trkpt>
      <trkpt lat="47.84927" lon="6.78324">
        <ele>883.003113</ele>
        <time>2018-05-26T12:48:11Z</time>
      </trkpt>
      <trkpt lat="47.84928" lon="6.78326">
        <ele>883.168396</ele>
        <time>2018-05-26T12:48:12Z</time>
      </trkpt>
      <trkpt lat="47.84929" lon="6.78328">
        <ele>883.341492</ele>
        <time>2018-05-26T12:48:13Z</time>
      </trkpt>
      <trkpt lat="47.84931" lon="6.78331">
        <ele>883.522034</ele>
        <time>2018-05-26T12:48:14Z</time>
      </trkpt>
      <trkpt lat="47.84932" lon="6.78335">
        <ele>883.792969</ele>
        <time>2018-05-26T12:48:15Z</time>
      </trkpt>
      <trkpt lat="47.84934" lon="6.78338">
        <ele>883.969727</ele>
        <time>2018-05-26T12:48:16Z</time>
      </trkpt>
      <trkpt lat="47.84935" lon="6.78341">
        <ele>884.138184</ele>
        <time>2018-05-26T12:48:17Z</time>
      </trkpt>
      <trkpt lat="47.84937" lon="6.78344">
        <ele>884.294128</ele>
        <time>2018-05-26T12:48:18Z</time>
      </trkpt>
      <trkpt lat="47.84938" lon="6.78348">
        <ele>884.495117</ele>
        <time>2018-05-26T12:48:19Z</time>
      </trkpt>
      <trkpt lat="47.8494" lon="6.78351">
        <ele>884.618835</ele>
        <time>2018-05-26T12:48:20Z</time>
      </trkpt>
      <trkpt lat="47.84941" lon="6.78354">
        <ele>884.747986</ele>
        <time>2018-05-26T12:48:21Z</time>
      </trkpt>
      <trkpt lat="47.84942" lon="6.78357">
        <ele>884.970642</ele>
        <time>2018-05-26T12:48:22Z</time>
      </trkpt>
      <trkpt lat="47.84945" lon="6.7836">
        <ele>885.131653</ele>
        <time>2018-05-26T12:48:23Z</time>
      </trkpt>
      <trkpt lat="47.84946" lon="6.78362">
        <ele>885.304443</ele>
        <time>2018-05-26T12:48:24Z</time>
      </trkpt>
      <trkpt lat="47.84948" lon="6.78365">
        <ele>885.583191</ele>
        <time>2018-05-26T12:48:25Z</time>
      </trkpt>
      <trkpt lat="47.8495" lon="6.78368">
        <ele>885.779114</ele>
        <time>2018-05-26T12:48:26Z</time>
      </trkpt>
      <trkpt lat="47.84952" lon="6.7837">
        <ele>885.975098</ele>
        <time>2018-05-26T12:48:27Z</time>
      </trkpt>
      <trkpt lat="47.84953" lon="6.78373">
        <ele>886.269836</ele>
        <time>2018-05-26T12:48:28Z</time>
      </trkpt>
      <trkpt lat="47.84954" lon="6.78377">
        <ele>886.458984</ele>
        <time>2018-05-26T12:48:29Z</time>
      </trkpt>
      <trkpt lat="47.84955" lon="6.7838">
        <ele>886.634338</ele>
        <time>2018-05-26T12:48:30Z</time>
      </trkpt>
      <trkpt lat="47.84956" lon="6.78382">
        <ele>886.866943</ele>
        <time>2018-05-26T12:48:31Z</time>
      </trkpt>
      <trkpt lat="47.84957" lon="6.78385">
        <ele>887.012878</ele>
        <time>2018-05-26T12:48:32Z</time>
      </trkpt>
      <trkpt lat="47.84958" lon="6.78388">
        <ele>887.162781</ele>
        <time>2018-05-26T12:48:33Z</time>
      </trkpt>
      <trkpt lat="47.8496" lon="6.78391">
        <ele>887.320313</ele>
        <time>2018-05-26T12:48:34Z</time>
      </trkpt>
      <trkpt lat="47.84961" lon="6.78394">
        <ele>887.56134</ele>
        <time>2018-05-26T12:48:35Z</time>
      </trkpt>
      <trkpt lat="47.84962" lon="6.78397">
        <ele>887.725586</ele>
        <time>2018-05-26T12:48:36Z</time>
      </trkpt>
      <trkpt lat="47.84963" lon="6.784">
        <ele>887.891785</ele>
        <time>2018-05-26T12:48:37Z</time>
      </trkpt>
      <trkpt lat="47.84963" lon="6.78403">
        <ele>888.052246</ele>
        <time>2018-05-26T12:48:38Z</time>
      </trkpt>
      <trkpt lat="47.84964" lon="6.78406">
        <ele>888.266418</ele>
        <time>2018-05-26T12:48:39Z</time>
      </trkpt>
      <trkpt lat="47.84965" lon="6.78409">
        <ele>888.388672</ele>
        <time>2018-05-26T12:48:40Z</time>
      </trkpt>
      <trkpt lat="47.84966" lon="6.78412">
        <ele>888.499329</ele>
        <time>2018-05-26T12:48:41Z</time>
      </trkpt>
      <trkpt lat="47.84966" lon="6.78415">
        <ele>888.649963</ele>
        <time>2018-05-26T12:48:42Z</time>
      </trkpt>
      <trkpt lat="47.84967" lon="6.78419">
        <ele>888.7453</ele>
        <time>2018-05-26T12:48:43Z</time>
      </trkpt>
      <trkpt lat="47.84967" lon="6.78422">
        <ele>888.833496</ele>
        <time>2018-05-26T12:48:44Z</time>
      </trkpt>
      <trkpt lat="47.84967" lon="6.78426">
        <ele>888.915771</ele>
        <time>2018-05-26T12:48:45Z</time>
      </trkpt>
      <trkpt lat="47.84967" lon="6.7843">
        <ele>889.031982</ele>
        <time>2018-05-26T12:48:46Z</time>
      </trkpt>
      <trkpt lat="47.84967" lon="6.78434">
        <ele>889.106445</ele>
        <time>2018-05-26T12:48:47Z</time>
      </trkpt>
      <trkpt lat="47.84967" lon="6.78439">
        <ele>889.172607</ele>
        <time>2018-05-26T12:48:48Z</time>
      </trkpt>
      <trkpt lat="47.84967" lon="6.78444">
        <ele>889.202454</ele>
        <time>2018-05-26T12:48:49Z</time>
      </trkpt>
      <trkpt lat="47.84966" lon="6.78449">
        <ele>889.254944</ele>
        <time>2018-05-26T12:48:50Z</time>
      </trkpt>
      <trkpt lat="47.84965" lon="6.78453">
        <ele>889.300476</ele>
        <time>2018-05-26T12:48:51Z</time>
      </trkpt>
      <trkpt lat="47.84964" lon="6.78457">
        <ele>889.361267</ele>
        <time>2018-05-26T12:48:52Z</time>
      </trkpt>
      <trkpt lat="47.84964" lon="6.78462">
        <ele>889.398865</ele>
        <time>2018-05-26T12:48:53Z</time>
      </trkpt>
      <trkpt lat="47.84963" lon="6.78467">
        <ele>889.428406</ele>
        <time>2018-05-26T12:48:54Z</time>
      </trkpt>
      <trkpt lat="47.84962" lon="6.78471">
        <ele>889.447754</ele>
        <time>2018-05-26T12:48:55Z</time>
      </trkpt>
      <trkpt lat="47.84961" lon="6.78476">
        <ele>889.460876</ele>
        <time>2018-05-26T12:48:56Z</time>
      </trkpt>
      <trkpt lat="47.8496" lon="6.7848">
        <ele>889.473389</ele>
        <time>2018-05-26T12:48:57Z</time>
      </trkpt>
      <trkpt lat="47.84959" lon="6.78485">
        <ele>889.496094</ele>
        <time>2018-05-26T12:48:58Z</time>
      </trkpt>
      <trkpt lat="47.84958" lon="6.78489">
        <ele>889.51825</ele>
        <time>2018-05-26T12:48:59Z</time>
      </trkpt>
      <trkpt lat="47.84957" lon="6.78494">
        <ele>889.550354</ele>
        <time>2018-05-26T12:49:00Z</time>
      </trkpt>
      <trkpt lat="47.84956" lon="6.78498">
        <ele>889.61499</ele>
        <time>2018-05-26T12:49:01Z</time>
      </trkpt>
      <trkpt lat="47.84954" lon="6.78503">
        <ele>889.659851</ele>
        <time>2018-05-26T12:49:02Z</time>
      </trkpt>
      <trkpt lat="47.84953" lon="6.78507">
        <ele>889.703613</ele>
        <time>2018-05-26T12:49:03Z</time>
      </trkpt>
      <trkpt lat="47.84953" lon="6.78511">
        <ele>889.74823</ele>
        <time>2018-05-26T12:49:04Z</time>
      </trkpt>
      <trkpt lat="47.84951" lon="6.78515">
        <ele>889.834717</ele>
        <time>2018-05-26T12:49:05Z</time>
      </trkpt>
      <trkpt lat="47.84951" lon="6.78519">
        <ele>889.912537</ele>
        <time>2018-05-26T12:49:06Z</time>
      </trkpt>
      <trkpt lat="47.8495" lon="6.78523">
        <ele>890.007385</ele>
        <time>2018-05-26T12:49:07Z</time>
      </trkpt>
      <trkpt lat="47.8495" lon="6.78527">
        <ele>890.118469</ele>
        <time>2018-05-26T12:49:08Z</time>
      </trkpt>
      <trkpt lat="47.8495" lon="6.78531">
        <ele>890.340515</ele>
        <time>2018-05-26T12:49:09Z</time>
      </trkpt>
      <trkpt lat="47.84948" lon="6.78536">
        <ele>890.524963</ele>
        <time>2018-05-26T12:49:10Z</time>
      </trkpt>
      <trkpt lat="47.84948" lon="6.7854">
        <ele>890.726318</ele>
        <time>2018-05-26T12:49:11Z</time>
      </trkpt>
      <trkpt lat="47.84946" lon="6.78543">
        <ele>891.032288</ele>
        <time>2018-05-26T12:49:12Z</time>
      </trkpt>
      <trkpt lat="47.84946" lon="6.78547">
        <ele>891.232605</ele>
        <time>2018-05-26T12:49:13Z</time>
      </trkpt>
      <trkpt lat="47.84945" lon="6.78551">
        <ele>891.425293</ele>
        <time>2018-05-26T12:49:14Z</time>
      </trkpt>
      <trkpt lat="47.84944" lon="6.78555">
        <ele>891.606201</ele>
        <time>2018-05-26T12:49:15Z</time>
      </trkpt>
      <trkpt lat="47.84943" lon="6.78559">
        <ele>891.775085</ele>
        <time>2018-05-26T12:49:16Z</time>
      </trkpt>
      <trkpt lat="47.84942" lon="6.78562">
        <ele>892.009094</ele>
        <time>2018-05-26T12:49:17Z</time>
      </trkpt>
      <trkpt lat="47.84941" lon="6.78565">
        <ele>892.159241</ele>
        <time>2018-05-26T12:49:18Z</time>
      </trkpt>
      <trkpt lat="47.84939" lon="6.78568">
        <ele>892.305237</ele>
        <time>2018-05-26T12:49:19Z</time>
      </trkpt>
      <trkpt lat="47.84938" lon="6.78571">
        <ele>892.537903</ele>
        <time>2018-05-26T12:49:20Z</time>
      </trkpt>
      <trkpt lat="47.84937" lon="6.78575">
        <ele>892.712402</ele>
        <time>2018-05-26T12:49:21Z</time>
      </trkpt>
      <trkpt lat="47.84935" lon="6.78578">
        <ele>892.905579</ele>
        <time>2018-05-26T12:49:22Z</time>
      </trkpt>
      <trkpt lat="47.84934" lon="6.7858">
        <ele>893.10498</ele>
        <time>2018-05-26T12:49:23Z</time>
      </trkpt>
      <trkpt lat="47.84932" lon="6.78582">
        <ele>893.404236</ele>
        <time>2018-05-26T12:49:24Z</time>
      </trkpt>
      <trkpt lat="47.84931" lon="6.78585">
        <ele>893.599182</ele>
        <time>2018-05-26T12:49:25Z</time>
      </trkpt>
      <trkpt lat="47.84929" lon="6.78587">
        <ele>893.793396</ele>
        <time>2018-05-26T12:49:26Z</time>
      </trkpt>
      <trkpt lat="47.84927" lon="6.7859">
        <ele>894.077942</ele>
        <time>2018-05-26T12:49:27Z</time>
      </trkpt>
      <trkpt lat="47.84925" lon="6.78592">
        <ele>894.260315</ele>
        <time>2018-05-26T12:49:28Z</time>
      </trkpt>
      <trkpt lat="47.84923" lon="6.78594">
        <ele>894.432129</ele>
        <time>2018-05-26T12:49:29Z</time>
      </trkpt>
      <trkpt lat="47.84922" lon="6.78596">
        <ele>894.688416</ele>
        <time>2018-05-26T12:49:30Z</time>
      </trkpt>
      <trkpt lat="47.84919" lon="6.78597">
        <ele>894.869324</ele>
        <time>2018-05-26T12:49:31Z</time>
      </trkpt>
      <trkpt lat="47.84917" lon="6.78598">
        <ele>895.056152</ele>
        <time>2018-05-26T12:49:32Z</time>
      </trkpt>
      <trkpt lat="47.84915" lon="6.78598">
        <ele>895.328796</ele>
        <time>2018-05-26T12:49:33Z</time>
      </trkpt>
      <trkpt lat="47.84913" lon="6.78599">
        <ele>895.510925</ele>
        <time>2018-05-26T12:49:34Z</time>
      </trkpt>
      <trkpt lat="47.84911" lon="6.786">
        <ele>895.701477</ele>
        <time>2018-05-26T12:49:35Z</time>
      </trkpt>
      <trkpt lat="47.84909" lon="6.786">
        <ele>896.004578</ele>
        <time>2018-05-26T12:49:36Z</time>
      </trkpt>
      <trkpt lat="47.84907" lon="6.786">
        <ele>896.206055</ele>
        <time>2018-05-26T12:49:37Z</time>
      </trkpt>
      <trkpt lat="47.84905" lon="6.78599">
        <ele>896.500916</ele>
        <time>2018-05-26T12:49:38Z</time>
      </trkpt>
      <trkpt lat="47.84903" lon="6.78599">
        <ele>896.698303</ele>
        <time>2018-05-26T12:49:39Z</time>
      </trkpt>
      <trkpt lat="47.84901" lon="6.78598">
        <ele>896.893066</ele>
        <time>2018-05-26T12:49:40Z</time>
      </trkpt>
      <trkpt lat="47.84899" lon="6.78598">
        <ele>897.165771</ele>
        <time>2018-05-26T12:49:41Z</time>
      </trkpt>
      <trkpt lat="47.84897" lon="6.78598">
        <ele>897.335632</ele>
        <time>2018-05-26T12:49:42Z</time>
      </trkpt>
      <trkpt lat="47.84895" lon="6.78597">
        <ele>897.579773</ele>
        <time>2018-05-26T12:49:43Z</time>
      </trkpt>
      <trkpt lat="47.84893" lon="6.78597">
        <ele>897.738525</ele>
        <time>2018-05-26T12:49:44Z</time>
      </trkpt>
      <trkpt lat="47.84892" lon="6.78596">
        <ele>897.904968</ele>
        <time>2018-05-26T12:49:45Z</time>
      </trkpt>
      <trkpt lat="47.8489" lon="6.78595">
        <ele>898.178894</ele>
        <time>2018-05-26T12:49:46Z</time>
      </trkpt>
      <trkpt lat="47.84888" lon="6.78595">
        <ele>898.375244</ele>
        <time>2018-05-26T12:49:47Z</time>
      </trkpt>
      <trkpt lat="47.84885" lon="6.78594">
        <ele>898.68866</ele>
        <time>2018-05-26T12:49:48Z</time>
      </trkpt>
      <trkpt lat="47.84884" lon="6.78594">
        <ele>898.798035</ele>
        <time>2018-05-26T12:49:49Z</time>
      </trkpt>
      <trkpt lat="47.84882" lon="6.78594">
        <ele>898.90918</ele>
        <time>2018-05-26T12:49:50Z</time>
      </trkpt>
      <trkpt lat="47.8488" lon="6.78594">
        <ele>899.243225</ele>
        <time>2018-05-26T12:49:51Z</time>
      </trkpt>
      <trkpt lat="47.84879" lon="6.78594">
        <ele>899.461426</ele>
        <time>2018-05-26T12:49:52Z</time>
      </trkpt>
      <trkpt lat="47.84877" lon="6.78594">
        <ele>899.779297</ele>
        <time>2018-05-26T12:49:53Z</time>
      </trkpt>
      <trkpt lat="47.84875" lon="6.78594">
        <ele>899.981201</ele>
        <time>2018-05-26T12:49:54Z</time>
      </trkpt>
      <trkpt lat="47.84873" lon="6.78595">
        <ele>900.173828</ele>
        <time>2018-05-26T12:49:55Z</time>
      </trkpt>
      <trkpt lat="47.84871" lon="6.78596">
        <ele>900.451172</ele>
        <time>2018-05-26T12:49:56Z</time>
      </trkpt>
      <trkpt lat="47.84869" lon="6.78596">
        <ele>900.632568</ele>
        <time>2018-05-26T12:49:57Z</time>
      </trkpt>
      <trkpt lat="47.84868" lon="6.78597">
        <ele>900.893799</ele>
        <time>2018-05-26T12:49:58Z</time>
      </trkpt>
      <trkpt lat="47.84866" lon="6.78598">
        <ele>901.057312</ele>
        <time>2018-05-26T12:49:59Z</time>
      </trkpt>
      <trkpt lat="47.84864" lon="6.78598">
        <ele>901.211914</ele>
        <time>2018-05-26T12:50:00Z</time>
      </trkpt>
      <trkpt lat="47.84862" lon="6.78598">
        <ele>901.432556</ele>
        <time>2018-05-26T12:50:01Z</time>
      </trkpt>
      <trkpt lat="47.8486" lon="6.78599">
        <ele>901.57666</ele>
        <time>2018-05-26T12:50:02Z</time>
      </trkpt>
      <trkpt lat="47.84857" lon="6.78601">
        <ele>901.719055</ele>
        <time>2018-05-26T12:50:03Z</time>
      </trkpt>
      <trkpt lat="47.84855" lon="6.78602">
        <ele>901.950195</ele>
        <time>2018-05-26T12:50:04Z</time>
      </trkpt>
      <trkpt lat="47.84853" lon="6.78603">
        <ele>902.119568</ele>
        <time>2018-05-26T12:50:05Z</time>
      </trkpt>
      <trkpt lat="47.84852" lon="6.78604">
        <ele>902.294983</ele>
        <time>2018-05-26T12:50:06Z</time>
      </trkpt>
      <trkpt lat="47.8485" lon="6.78605">
        <ele>902.563171</ele>
        <time>2018-05-26T12:50:07Z</time>
      </trkpt>
      <trkpt lat="47.84848" lon="6.78607">
        <ele>902.74884</ele>
        <time>2018-05-26T12:50:08Z</time>
      </trkpt>
      <trkpt lat="47.84845" lon="6.78608">
        <ele>902.937439</ele>
        <time>2018-05-26T12:50:09Z</time>
      </trkpt>
      <trkpt lat="47.84843" lon="6.7861">
        <ele>903.208557</ele>
        <time>2018-05-26T12:50:10Z</time>
      </trkpt>
      <trkpt lat="47.84843" lon="6.78612">
        <ele>903.378479</ele>
        <time>2018-05-26T12:50:11Z</time>
      </trkpt>
      <trkpt lat="47.84842" lon="6.78614">
        <ele>903.538086</ele>
        <time>2018-05-26T12:50:12Z</time>
      </trkpt>
      <trkpt lat="47.84839" lon="6.78616">
        <ele>903.757507</ele>
        <time>2018-05-26T12:50:13Z</time>
      </trkpt>
      <trkpt lat="47.84837" lon="6.78618">
        <ele>903.88916</ele>
        <time>2018-05-26T12:50:14Z</time>
      </trkpt>
      <trkpt lat="47.84834" lon="6.78621">
        <ele>904.011047</ele>
        <time>2018-05-26T12:50:15Z</time>
      </trkpt>
      <trkpt lat="47.84832" lon="6.78624">
        <ele>904.189453</ele>
        <time>2018-05-26T12:50:16Z</time>
      </trkpt>
      <trkpt lat="47.8483" lon="6.78627">
        <ele>904.305481</ele>
        <time>2018-05-26T12:50:17Z</time>
      </trkpt>
      <trkpt lat="47.84827" lon="6.78631">
        <ele>904.418152</ele>
        <time>2018-05-26T12:50:18Z</time>
      </trkpt>
      <trkpt lat="47.84826" lon="6.78634">
        <ele>904.529236</ele>
        <time>2018-05-26T12:50:19Z</time>
      </trkpt>
      <trkpt lat="47.84824" lon="6.78638">
        <ele>904.692627</ele>
        <time>2018-05-26T12:50:20Z</time>
      </trkpt>
      <trkpt lat="47.84821" lon="6.78641">
        <ele>904.796875</ele>
        <time>2018-05-26T12:50:21Z</time>
      </trkpt>
      <trkpt lat="47.84819" lon="6.78644">
        <ele>904.892578</ele>
        <time>2018-05-26T12:50:22Z</time>
      </trkpt>
      <trkpt lat="47.84818" lon="6.78648">
        <ele>905.014465</ele>
        <time>2018-05-26T12:50:23Z</time>
      </trkpt>
      <trkpt lat="47.84815" lon="6.78651">
        <ele>905.083679</ele>
        <time>2018-05-26T12:50:24Z</time>
      </trkpt>
      <trkpt lat="47.84813" lon="6.78656">
        <ele>905.146667</ele>
        <time>2018-05-26T12:50:25Z</time>
      </trkpt>
      <trkpt lat="47.84812" lon="6.78659">
        <ele>905.227051</ele>
        <time>2018-05-26T12:50:26Z</time>
      </trkpt>
      <trkpt lat="47.84811" lon="6.78662">
        <ele>905.27832</ele>
        <time>2018-05-26T12:50:27Z</time>
      </trkpt>
      <trkpt lat="47.84809" lon="6.78666">
        <ele>905.328796</ele>
        <time>2018-05-26T12:50:28Z</time>
      </trkpt>
      <trkpt lat="47.84808" lon="6.7867">
        <ele>905.404968</ele>
        <time>2018-05-26T12:50:29Z</time>
      </trkpt>
      <trkpt lat="47.84806" lon="6.78674">
        <ele>905.45636</ele>
        <time>2018-05-26T12:50:30Z</time>
      </trkpt>
      <trkpt lat="47.84804" lon="6.78679">
        <ele>905.505676</ele>
        <time>2018-05-26T12:50:31Z</time>
      </trkpt>
      <trkpt lat="47.84802" lon="6.78683">
        <ele>905.575684</ele>
        <time>2018-05-26T12:50:32Z</time>
      </trkpt>
      <trkpt lat="47.848" lon="6.78687">
        <ele>905.635071</ele>
        <time>2018-05-26T12:50:33Z</time>
      </trkpt>
      <trkpt lat="47.84798" lon="6.78691">
        <ele>905.712463</ele>
        <time>2018-05-26T12:50:34Z</time>
      </trkpt>
      <trkpt lat="47.84797" lon="6.78695">
        <ele>905.847656</ele>
        <time>2018-05-26T12:50:35Z</time>
      </trkpt>
      <trkpt lat="47.84795" lon="6.78699">
        <ele>905.932861</ele>
        <time>2018-05-26T12:50:36Z</time>
      </trkpt>
      <trkpt lat="47.84794" lon="6.78702">
        <ele>906.015869</ele>
        <time>2018-05-26T12:50:37Z</time>
      </trkpt>
      <trkpt lat="47.84793" lon="6.78706">
        <ele>906.104309</ele>
        <time>2018-05-26T12:50:38Z</time>
      </trkpt>
      <trkpt lat="47.84791" lon="6.78709">
        <ele>906.243835</ele>
        <time>2018-05-26T12:50:39Z</time>
      </trkpt>
      <trkpt lat="47.8479" lon="6.78713">
        <ele>906.327332</ele>
        <time>2018-05-26T12:50:40Z</time>
      </trkpt>
      <trkpt lat="47.84788" lon="6.78718">
        <ele>906.398743</ele>
        <time>2018-05-26T12:50:41Z</time>
      </trkpt>
      <trkpt lat="47.84787" lon="6.78722">
        <ele>906.486084</ele>
        <time>2018-05-26T12:50:42Z</time>
      </trkpt>
      <trkpt lat="47.84785" lon="6.78726">
        <ele>906.53656</ele>
        <time>2018-05-26T12:50:43Z</time>
      </trkpt>
      <trkpt lat="47.84782" lon="6.7873">
        <ele>906.576721</ele>
        <time>2018-05-26T12:50:44Z</time>
      </trkpt>
      <trkpt lat="47.84781" lon="6.78734">
        <ele>906.612732</ele>
        <time>2018-05-26T12:50:45Z</time>
      </trkpt>
      <trkpt lat="47.84778" lon="6.78739">
        <ele>906.623718</ele>
        <time>2018-05-26T12:50:46Z</time>
      </trkpt>
      <trkpt lat="47.84776" lon="6.78743">
        <ele>906.632568</ele>
        <time>2018-05-26T12:50:47Z</time>
      </trkpt>
      <trkpt lat="47.84774" lon="6.78748">
        <ele>906.651917</ele>
        <time>2018-05-26T12:50:48Z</time>
      </trkpt>
      <trkpt lat="47.84772" lon="6.78752">
        <ele>906.673096</ele>
        <time>2018-05-26T12:50:49Z</time>
      </trkpt>
      <trkpt lat="47.84769" lon="6.78755">
        <ele>906.68634</ele>
        <time>2018-05-26T12:50:50Z</time>
      </trkpt>
      <trkpt lat="47.84766" lon="6.78759">
        <ele>906.700378</ele>
        <time>2018-05-26T12:50:51Z</time>
      </trkpt>
      <trkpt lat="47.84763" lon="6.78763">
        <ele>906.730652</ele>
        <time>2018-05-26T12:50:52Z</time>
      </trkpt>
      <trkpt lat="47.8476" lon="6.78767">
        <ele>906.781433</ele>
        <time>2018-05-26T12:50:53Z</time>
      </trkpt>
      <trkpt lat="47.84757" lon="6.78771">
        <ele>906.817627</ele>
        <time>2018-05-26T12:50:54Z</time>
      </trkpt>
      <trkpt lat="47.84753" lon="6.78775">
        <ele>906.847839</ele>
        <time>2018-05-26T12:50:55Z</time>
      </trkpt>
      <trkpt lat="47.84749" lon="6.78779">
        <ele>906.865906</ele>
        <time>2018-05-26T12:50:56Z</time>
      </trkpt>
      <trkpt lat="47.84746" lon="6.78784">
        <ele>906.865906</ele>
        <time>2018-05-26T12:50:57Z</time>
      </trkpt>
      <trkpt lat="47.84743" lon="6.78787">
        <ele>906.858887</ele>
        <time>2018-05-26T12:50:58Z</time>
      </trkpt>
      <trkpt lat="47.84739" lon="6.78792">
        <ele>906.837158</ele>
        <time>2018-05-26T12:50:59Z</time>
      </trkpt>
      <trkpt lat="47.84736" lon="6.78795">
        <ele>906.821289</ele>
        <time>2018-05-26T12:51:00Z</time>
      </trkpt>
      <trkpt lat="47.84733" lon="6.78799">
        <ele>906.800964</ele>
        <time>2018-05-26T12:51:01Z</time>
      </trkpt>
      <trkpt lat="47.8473" lon="6.78802">
        <ele>906.779602</ele>
        <time>2018-05-26T12:51:02Z</time>
      </trkpt>
      <trkpt lat="47.84728" lon="6.78805">
        <ele>906.755066</ele>
        <time>2018-05-26T12:51:03Z</time>
      </trkpt>
      <trkpt lat="47.84725" lon="6.78808">
        <ele>906.752197</ele>
        <time>2018-05-26T12:51:04Z</time>
      </trkpt>
      <trkpt lat="47.84721" lon="6.78811">
        <ele>906.750732</ele>
        <time>2018-05-26T12:51:05Z</time>
      </trkpt>
      <trkpt lat="47.84717" lon="6.78813">
        <ele>906.745117</ele>
        <time>2018-05-26T12:51:06Z</time>
      </trkpt>
      <trkpt lat="47.84714" lon="6.78816">
        <ele>906.744812</ele>
        <time>2018-05-26T12:51:07Z</time>
      </trkpt>
      <trkpt lat="47.8471" lon="6.78819">
        <ele>906.739075</ele>
        <time>2018-05-26T12:51:08Z</time>
      </trkpt>
      <trkpt lat="47.84707" lon="6.78822">
        <ele>906.732422</ele>
        <time>2018-05-26T12:51:09Z</time>
      </trkpt>
      <trkpt lat="47.84703" lon="6.78824">
        <ele>906.72583</ele>
        <time>2018-05-26T12:51:10Z</time>
      </trkpt>
      <trkpt lat="47.84699" lon="6.78827">
        <ele>906.708923</ele>
        <time>2018-05-26T12:51:11Z</time>
      </trkpt>
      <trkpt lat="47.84695" lon="6.78829">
        <ele>906.657471</ele>
        <time>2018-05-26T12:51:12Z</time>
      </trkpt>
      <trkpt lat="47.8469" lon="6.78832">
        <ele>906.614807</ele>
        <time>2018-05-26T12:51:13Z</time>
      </trkpt>
      <trkpt lat="47.84686" lon="6.78834">
        <ele>906.577148</ele>
        <time>2018-05-26T12:51:14Z</time>
      </trkpt>
      <trkpt lat="47.84682" lon="6.78836">
        <ele>906.530762</ele>
        <time>2018-05-26T12:51:15Z</time>
      </trkpt>
      <trkpt lat="47.84678" lon="6.78838">
        <ele>906.509827</ele>
        <time>2018-05-26T12:51:16Z</time>
      </trkpt>
      <trkpt lat="47.84674" lon="6.7884">
        <ele>906.506897</ele>
        <time>2018-05-26T12:51:17Z</time>
      </trkpt>
      <trkpt lat="47.84671" lon="6.78841">
        <ele>906.519226</ele>
        <time>2018-05-26T12:51:18Z</time>
      </trkpt>
      <trkpt lat="47.84666" lon="6.78842">
        <ele>906.553894</ele>
        <time>2018-05-26T12:51:19Z</time>
      </trkpt>
      <trkpt lat="47.84662" lon="6.78842">
        <ele>906.632996</ele>
        <time>2018-05-26T12:51:20Z</time>
      </trkpt>
      <trkpt lat="47.84658" lon="6.78844">
        <ele>906.703674</ele>
        <time>2018-05-26T12:51:21Z</time>
      </trkpt>
      <trkpt lat="47.84653" lon="6.78844">
        <ele>906.79657</ele>
        <time>2018-05-26T12:51:22Z</time>
      </trkpt>
      <trkpt lat="47.84648" lon="6.78845">
        <ele>906.971619</ele>
        <time>2018-05-26T12:51:23Z</time>
      </trkpt>
      <trkpt lat="47.84644" lon="6.78845">
        <ele>907.102112</ele>
        <time>2018-05-26T12:51:24Z</time>
      </trkpt>
      <trkpt lat="47.84639" lon="6.78845">
        <ele>907.315735</ele>
        <time>2018-05-26T12:51:25Z</time>
      </trkpt>
      <trkpt lat="47.84636" lon="6.78845">
        <ele>907.465881</ele>
        <time>2018-05-26T12:51:26Z</time>
      </trkpt>
      <trkpt lat="47.84633" lon="6.78845">
        <ele>907.696594</ele>
        <time>2018-05-26T12:51:27Z</time>
      </trkpt>
      <trkpt lat="47.84629" lon="6.78844">
        <ele>907.853821</ele>
        <time>2018-05-26T12:51:28Z</time>
      </trkpt>
      <trkpt lat="47.84628" lon="6.78845">
        <ele>908.017578</ele>
        <time>2018-05-26T12:51:29Z</time>
      </trkpt>
      <trkpt lat="47.84625" lon="6.78845">
        <ele>908.278625</ele>
        <time>2018-05-26T12:51:30Z</time>
      </trkpt>
      <trkpt lat="47.84622" lon="6.78844">
        <ele>908.465393</ele>
        <time>2018-05-26T12:51:31Z</time>
      </trkpt>
      <trkpt lat="47.84618" lon="6.78843">
        <ele>908.764832</ele>
        <time>2018-05-26T12:51:32Z</time>
      </trkpt>
      <trkpt lat="47.84616" lon="6.78843">
        <ele>908.976379</ele>
        <time>2018-05-26T12:51:33Z</time>
      </trkpt>
      <trkpt lat="47.84612" lon="6.78842">
        <ele>909.191223</ele>
        <time>2018-05-26T12:51:34Z</time>
      </trkpt>
      <trkpt lat="47.84611" lon="6.78841">
        <ele>909.510254</ele>
        <time>2018-05-26T12:51:35Z</time>
      </trkpt>
      <trkpt lat="47.84609" lon="6.7884">
        <ele>909.718323</ele>
        <time>2018-05-26T12:51:36Z</time>
      </trkpt>
      <trkpt lat="47.84605" lon="6.78839">
        <ele>910.024109</ele>
        <time>2018-05-26T12:51:37Z</time>
      </trkpt>
      <trkpt lat="47.84603" lon="6.78839">
        <ele>910.220398</ele>
        <time>2018-05-26T12:51:38Z</time>
      </trkpt>
      <trkpt lat="47.846" lon="6.78838">
        <ele>910.408203</ele>
        <time>2018-05-26T12:51:39Z</time>
      </trkpt>
      <trkpt lat="47.84599" lon="6.78838">
        <ele>910.677063</ele>
        <time>2018-05-26T12:51:40Z</time>
      </trkpt>
      <trkpt lat="47.84597" lon="6.78838">
        <ele>910.855713</ele>
        <time>2018-05-26T12:51:41Z</time>
      </trkpt>
      <trkpt lat="47.84595" lon="6.78836">
        <ele>911.039551</ele>
        <time>2018-05-26T12:51:42Z</time>
      </trkpt>
      <trkpt lat="47.84592" lon="6.78836">
        <ele>911.335205</ele>
        <time>2018-05-26T12:51:43Z</time>
      </trkpt>
      <trkpt lat="47.84591" lon="6.78835">
        <ele>911.547424</ele>
        <time>2018-05-26T12:51:44Z</time>
      </trkpt>
      <trkpt lat="47.84589" lon="6.78834">
        <ele>911.882874</ele>
        <time>2018-05-26T12:51:45Z</time>
      </trkpt>
      <trkpt lat="47.84586" lon="6.78833">
        <ele>912.112244</ele>
        <time>2018-05-26T12:51:46Z</time>
      </trkpt>
      <trkpt lat="47.84583" lon="6.78832">
        <ele>912.338623</ele>
        <time>2018-05-26T12:51:47Z</time>
      </trkpt>
      <trkpt lat="47.84581" lon="6.78832">
        <ele>912.663757</ele>
        <time>2018-05-26T12:51:48Z</time>
      </trkpt>
      <trkpt lat="47.84579" lon="6.78831">
        <ele>912.862549</ele>
        <time>2018-05-26T12:51:49Z</time>
      </trkpt>
      <trkpt lat="47.84577" lon="6.7883">
        <ele>913.044678</ele>
        <time>2018-05-26T12:51:50Z</time>
      </trkpt>
      <trkpt lat="47.84575" lon="6.78828">
        <ele>913.130798</ele>
        <time>2018-05-26T12:51:51Z</time>
      </trkpt>
      <trkpt lat="47.84573" lon="6.78827">
        <ele>913.213318</ele>
        <time>2018-05-26T12:51:52Z</time>
      </trkpt>
      <trkpt lat="47.8457" lon="6.78825">
        <ele>913.444031</ele>
        <time>2018-05-26T12:51:53Z</time>
      </trkpt>
      <trkpt lat="47.84567" lon="6.78824">
        <ele>913.587585</ele>
        <time>2018-05-26T12:51:54Z</time>
      </trkpt>
      <trkpt lat="47.84564" lon="6.78822">
        <ele>913.733093</ele>
        <time>2018-05-26T12:51:55Z</time>
      </trkpt>
      <trkpt lat="47.84561" lon="6.78821">
        <ele>913.970032</ele>
        <time>2018-05-26T12:51:56Z</time>
      </trkpt>
      <trkpt lat="47.84559" lon="6.78819">
        <ele>914.14032</ele>
        <time>2018-05-26T12:51:57Z</time>
      </trkpt>
      <trkpt lat="47.84555" lon="6.78819">
        <ele>914.307922</ele>
        <time>2018-05-26T12:51:58Z</time>
      </trkpt>
      <trkpt lat="47.84553" lon="6.78818">
        <ele>914.531555</ele>
        <time>2018-05-26T12:51:59Z</time>
      </trkpt>
      <trkpt lat="47.8455" lon="6.78817">
        <ele>914.661865</ele>
        <time>2018-05-26T12:52:00Z</time>
      </trkpt>
      <trkpt lat="47.84547" lon="6.78816">
        <ele>914.838867</ele>
        <time>2018-05-26T12:52:01Z</time>
      </trkpt>
      <trkpt lat="47.84545" lon="6.78816">
        <ele>914.937317</ele>
        <time>2018-05-26T12:52:02Z</time>
      </trkpt>
      <trkpt lat="47.84541" lon="6.78818">
        <ele>915.013428</ele>
        <time>2018-05-26T12:52:03Z</time>
      </trkpt>
      <trkpt lat="47.84538" lon="6.7882">
        <ele>915.088196</ele>
        <time>2018-05-26T12:52:04Z</time>
      </trkpt>
      <trkpt lat="47.84534" lon="6.78822">
        <ele>915.12085</ele>
        <time>2018-05-26T12:52:05Z</time>
      </trkpt>
      <trkpt lat="47.8453" lon="6.78824">
        <ele>915.139221</ele>
        <time>2018-05-26T12:52:06Z</time>
      </trkpt>
      <trkpt lat="47.84526" lon="6.78826">
        <ele>915.139404</ele>
        <time>2018-05-26T12:52:07Z</time>
      </trkpt>
      <trkpt lat="47.84522" lon="6.78829">
        <ele>915.119385</ele>
        <time>2018-05-26T12:52:08Z</time>
      </trkpt>
      <trkpt lat="47.84518" lon="6.78832">
        <ele>915.07074</ele>
        <time>2018-05-26T12:52:09Z</time>
      </trkpt>
      <trkpt lat="47.84514" lon="6.78835">
        <ele>914.968445</ele>
        <time>2018-05-26T12:52:10Z</time>
      </trkpt>
      <trkpt lat="47.8451" lon="6.78839">
        <ele>914.887451</ele>
        <time>2018-05-26T12:52:11Z</time>
      </trkpt>
      <trkpt lat="47.84506" lon="6.78842">
        <ele>914.800537</ele>
        <time>2018-05-26T12:52:12Z</time>
      </trkpt>
      <trkpt lat="47.84502" lon="6.78845">
        <ele>914.66626</ele>
        <time>2018-05-26T12:52:13Z</time>
      </trkpt>
      <trkpt lat="47.84498" lon="6.78849">
        <ele>914.584045</ele>
        <time>2018-05-26T12:52:14Z</time>
      </trkpt>
      <trkpt lat="47.84494" lon="6.78853">
        <ele>914.513367</ele>
        <time>2018-05-26T12:52:15Z</time>
      </trkpt>
      <trkpt lat="47.84491" lon="6.78857">
        <ele>914.427551</ele>
        <time>2018-05-26T12:52:16Z</time>
      </trkpt>
      <trkpt lat="47.84487" lon="6.7886">
        <ele>914.381104</ele>
        <time>2018-05-26T12:52:17Z</time>
      </trkpt>
      <trkpt lat="47.84483" lon="6.78863">
        <ele>914.339417</ele>
        <time>2018-05-26T12:52:18Z</time>
      </trkpt>
      <trkpt lat="47.84481" lon="6.78867">
        <ele>914.289246</ele>
        <time>2018-05-26T12:52:19Z</time>
      </trkpt>
      <trkpt lat="47.84477" lon="6.78871">
        <ele>914.258362</ele>
        <time>2018-05-26T12:52:20Z</time>
      </trkpt>
      <trkpt lat="47.84473" lon="6.78875">
        <ele>914.226379</ele>
        <time>2018-05-26T12:52:21Z</time>
      </trkpt>
      <trkpt lat="47.84471" lon="6.7888">
        <ele>914.17511</ele>
        <time>2018-05-26T12:52:22Z</time>
      </trkpt>
      <trkpt lat="47.84468" lon="6.78885">
        <ele>914.14447</ele>
        <time>2018-05-26T12:52:23Z</time>
      </trkpt>
      <trkpt lat="47.84465" lon="6.7889">
        <ele>914.121033</ele>
        <time>2018-05-26T12:52:24Z</time>
      </trkpt>
      <trkpt lat="47.84464" lon="6.78896">
        <ele>914.107117</ele>
        <time>2018-05-26T12:52:25Z</time>
      </trkpt>
      <trkpt lat="47.84461" lon="6.78901">
        <ele>914.106445</ele>
        <time>2018-05-26T12:52:26Z</time>
      </trkpt>
      <trkpt lat="47.84459" lon="6.78907">
        <ele>914.107422</ele>
        <time>2018-05-26T12:52:27Z</time>
      </trkpt>
      <trkpt lat="47.84457" lon="6.78913">
        <ele>914.107422</ele>
        <time>2018-05-26T12:52:28Z</time>
      </trkpt>
      <trkpt lat="47.84456" lon="6.78919">
        <ele>914.099121</ele>
        <time>2018-05-26T12:52:29Z</time>
      </trkpt>
      <trkpt lat="47.84453" lon="6.78924">
        <ele>914.084473</ele>
        <time>2018-05-26T12:52:30Z</time>
      </trkpt>
      <trkpt lat="47.84451" lon="6.78929">
        <ele>914.064026</ele>
        <time>2018-05-26T12:52:31Z</time>
      </trkpt>
      <trkpt lat="47.84447" lon="6.78932">
        <ele>914.032715</ele>
        <time>2018-05-26T12:52:32Z</time>
      </trkpt>
      <trkpt lat="47.84444" lon="6.78934">
        <ele>914.014832</ele>
        <time>2018-05-26T12:52:33Z</time>
      </trkpt>
      <trkpt lat="47.84441" lon="6.78935">
        <ele>914.0047</ele>
        <time>2018-05-26T12:52:34Z</time>
      </trkpt>
      <trkpt lat="47.84436" lon="6.78935">
        <ele>914.004333</ele>
        <time>2018-05-26T12:52:35Z</time>
      </trkpt>
      <trkpt lat="47.84432" lon="6.78934">
        <ele>914.020508</ele>
        <time>2018-05-26T12:52:36Z</time>
      </trkpt>
      <trkpt lat="47.84429" lon="6.78933">
        <ele>914.062988</ele>
        <time>2018-05-26T12:52:37Z</time>
      </trkpt>
      <trkpt lat="47.84426" lon="6.78931">
        <ele>914.164795</ele>
        <time>2018-05-26T12:52:38Z</time>
      </trkpt>
      <trkpt lat="47.84424" lon="6.78929">
        <ele>914.247314</ele>
        <time>2018-05-26T12:52:39Z</time>
      </trkpt>
      <trkpt lat="47.84423" lon="6.78927">
        <ele>914.34137</ele>
        <time>2018-05-26T12:52:40Z</time>
      </trkpt>
      <trkpt lat="47.8442" lon="6.78924">
        <ele>914.507385</ele>
        <time>2018-05-26T12:52:41Z</time>
      </trkpt>
      <trkpt lat="47.84417" lon="6.78921">
        <ele>914.634521</ele>
        <time>2018-05-26T12:52:42Z</time>
      </trkpt>
      <trkpt lat="47.84415" lon="6.78917">
        <ele>914.767029</ele>
        <time>2018-05-26T12:52:43Z</time>
      </trkpt>
      <trkpt lat="47.84412" lon="6.78915">
        <ele>914.976563</ele>
        <time>2018-05-26T12:52:44Z</time>
      </trkpt>
      <trkpt lat="47.84409" lon="6.78912">
        <ele>915.133362</ele>
        <time>2018-05-26T12:52:45Z</time>
      </trkpt>
      <trkpt lat="47.84407" lon="6.78908">
        <ele>915.309998</ele>
        <time>2018-05-26T12:52:46Z</time>
      </trkpt>
      <trkpt lat="47.84405" lon="6.78905">
        <ele>915.596619</ele>
        <time>2018-05-26T12:52:47Z</time>
      </trkpt>
      <trkpt lat="47.84403" lon="6.78902">
        <ele>915.791504</ele>
        <time>2018-05-26T12:52:48Z</time>
      </trkpt>
      <trkpt lat="47.84401" lon="6.789">
        <ele>915.980286</ele>
        <time>2018-05-26T12:52:49Z</time>
      </trkpt>
      <trkpt lat="47.84399" lon="6.78897">
        <ele>916.249695</ele>
        <time>2018-05-26T12:52:50Z</time>
      </trkpt>
      <trkpt lat="47.84398" lon="6.78895">
        <ele>916.333984</ele>
        <time>2018-05-26T12:52:51Z</time>
      </trkpt>
      <trkpt lat="47.84396" lon="6.78892">
        <ele>916.414978</ele>
        <time>2018-05-26T12:52:52Z</time>
      </trkpt>
      <trkpt lat="47.84394" lon="6.7889">
        <ele>916.567566</ele>
        <time>2018-05-26T12:52:53Z</time>
      </trkpt>
      <trkpt lat="47.84393" lon="6.78888">
        <ele>916.7771</ele>
        <time>2018-05-26T12:52:54Z</time>
      </trkpt>
      <trkpt lat="47.84391" lon="6.78886">
        <ele>916.91217</ele>
        <time>2018-05-26T12:52:55Z</time>
      </trkpt>
      <trkpt lat="47.84389" lon="6.78884">
        <ele>917.046204</ele>
        <time>2018-05-26T12:52:56Z</time>
      </trkpt>
      <trkpt lat="47.84387" lon="6.78881">
        <ele>917.254944</ele>
        <time>2018-05-26T12:52:57Z</time>
      </trkpt>
      <trkpt lat="47.84386" lon="6.78879">
        <ele>917.400818</ele>
        <time>2018-05-26T12:52:58Z</time>
      </trkpt>
      <trkpt lat="47.84384" lon="6.78876">
        <ele>917.5495</ele>
        <time>2018-05-26T12:52:59Z</time>
      </trkpt>
      <trkpt lat="47.84383" lon="6.78873">
        <ele>917.776611</ele>
        <time>2018-05-26T12:53:00Z</time>
      </trkpt>
      <trkpt lat="47.84381" lon="6.7887">
        <ele>917.925476</ele>
        <time>2018-05-26T12:53:01Z</time>
      </trkpt>
      <trkpt lat="47.8438" lon="6.78868">
        <ele>918.068054</ele>
        <time>2018-05-26T12:53:02Z</time>
      </trkpt>
      <trkpt lat="47.84378" lon="6.78865">
        <ele>918.270752</ele>
        <time>2018-05-26T12:53:03Z</time>
      </trkpt>
      <trkpt lat="47.84376" lon="6.78862">
        <ele>918.399597</ele>
        <time>2018-05-26T12:53:04Z</time>
      </trkpt>
      <trkpt lat="47.84374" lon="6.78859">
        <ele>918.524475</ele>
        <time>2018-05-26T12:53:05Z</time>
      </trkpt>
      <trkpt lat="47.84373" lon="6.78856">
        <ele>918.704163</ele>
        <time>2018-05-26T12:53:06Z</time>
      </trkpt>
      <trkpt lat="47.84371" lon="6.78852">
        <ele>918.823181</ele>
        <time>2018-05-26T12:53:07Z</time>
      </trkpt>
      <trkpt lat="47.84369" lon="6.7885">
        <ele>918.9422</ele>
        <time>2018-05-26T12:53:08Z</time>
      </trkpt>
      <trkpt lat="47.84366" lon="6.78847">
        <ele>919.125305</ele>
        <time>2018-05-26T12:53:09Z</time>
      </trkpt>
      <trkpt lat="47.84364" lon="6.78844">
        <ele>919.253723</ele>
        <time>2018-05-26T12:53:10Z</time>
      </trkpt>
      <trkpt lat="47.84362" lon="6.78841">
        <ele>919.389465</ele>
        <time>2018-05-26T12:53:11Z</time>
      </trkpt>
      <trkpt lat="47.84361" lon="6.78838">
        <ele>919.534363</ele>
        <time>2018-05-26T12:53:12Z</time>
      </trkpt>
      <trkpt lat="47.84358" lon="6.78835">
        <ele>919.763</ele>
        <time>2018-05-26T12:53:13Z</time>
      </trkpt>
      <trkpt lat="47.84356" lon="6.78833">
        <ele>919.914001</ele>
        <time>2018-05-26T12:53:14Z</time>
      </trkpt>
      <trkpt lat="47.84354" lon="6.78831">
        <ele>920.058594</ele>
        <time>2018-05-26T12:53:15Z</time>
      </trkpt>
      <trkpt lat="47.84351" lon="6.78829">
        <ele>920.259766</ele>
        <time>2018-05-26T12:53:16Z</time>
      </trkpt>
      <trkpt lat="47.84349" lon="6.78826">
        <ele>920.380615</ele>
        <time>2018-05-26T12:53:17Z</time>
      </trkpt>
      <trkpt lat="47.84348" lon="6.78823">
        <ele>920.492004</ele>
        <time>2018-05-26T12:53:18Z</time>
      </trkpt>
      <trkpt lat="47.84346" lon="6.7882">
        <ele>920.652344</ele>
        <time>2018-05-26T12:53:19Z</time>
      </trkpt>
      <trkpt lat="47.84345" lon="6.78818">
        <ele>920.759277</ele>
        <time>2018-05-26T12:53:20Z</time>
      </trkpt>
      <trkpt lat="47.84343" lon="6.78816">
        <ele>920.873718</ele>
        <time>2018-05-26T12:53:21Z</time>
      </trkpt>
      <trkpt lat="47.84341" lon="6.78814">
        <ele>921.066223</ele>
        <time>2018-05-26T12:53:22Z</time>
      </trkpt>
      <trkpt lat="47.8434" lon="6.78812">
        <ele>921.205627</ele>
        <time>2018-05-26T12:53:23Z</time>
      </trkpt>
      <trkpt lat="47.84338" lon="6.7881">
        <ele>921.353516</ele>
        <time>2018-05-26T12:53:24Z</time>
      </trkpt>
      <trkpt lat="47.84336" lon="6.78808">
        <ele>921.592285</ele>
        <time>2018-05-26T12:53:25Z</time>
      </trkpt>
      <trkpt lat="47.84333" lon="6.78806">
        <ele>921.762512</ele>
        <time>2018-05-26T12:53:26Z</time>
      </trkpt>
      <trkpt lat="47.84332" lon="6.78804">
        <ele>921.937805</ele>
        <time>2018-05-26T12:53:27Z</time>
      </trkpt>
      <trkpt lat="47.84329" lon="6.78802">
        <ele>922.205811</ele>
        <time>2018-05-26T12:53:28Z</time>
      </trkpt>
      <trkpt lat="47.84328" lon="6.78799">
        <ele>922.378723</ele>
        <time>2018-05-26T12:53:29Z</time>
      </trkpt>
      <trkpt lat="47.84325" lon="6.78797">
        <ele>922.549072</ele>
        <time>2018-05-26T12:53:30Z</time>
      </trkpt>
      <trkpt lat="47.84324" lon="6.78795">
        <ele>922.718506</ele>
        <time>2018-05-26T12:53:31Z</time>
      </trkpt>
      <trkpt lat="47.84322" lon="6.78793">
        <ele>922.972107</ele>
        <time>2018-05-26T12:53:32Z</time>
      </trkpt>
      <trkpt lat="47.8432" lon="6.7879">
        <ele>923.140869</ele>
        <time>2018-05-26T12:53:33Z</time>
      </trkpt>
      <trkpt lat="47.84319" lon="6.78788">
        <ele>923.308899</ele>
        <time>2018-05-26T12:53:34Z</time>
      </trkpt>
      <trkpt lat="47.84317" lon="6.78785">
        <ele>923.559326</ele>
        <time>2018-05-26T12:53:35Z</time>
      </trkpt>
      <trkpt lat="47.84316" lon="6.78782">
        <ele>923.726135</ele>
        <time>2018-05-26T12:53:36Z</time>
      </trkpt>
      <trkpt lat="47.84315" lon="6.78779">
        <ele>923.889343</ele>
        <time>2018-05-26T12:53:37Z</time>
      </trkpt>
      <trkpt lat="47.84314" lon="6.78776">
        <ele>924.123291</ele>
        <time>2018-05-26T12:53:38Z</time>
      </trkpt>
      <trkpt lat="47.84312" lon="6.78773">
        <ele>924.272705</ele>
        <time>2018-05-26T12:53:39Z</time>
      </trkpt>
      <trkpt lat="47.84311" lon="6.7877">
        <ele>924.424866</ele>
        <time>2018-05-26T12:53:40Z</time>
      </trkpt>
      <trkpt lat="47.8431" lon="6.78767">
        <ele>924.670166</ele>
        <time>2018-05-26T12:53:41Z</time>
      </trkpt>
      <trkpt lat="47.84309" lon="6.78763">
        <ele>924.846252</ele>
        <time>2018-05-26T12:53:42Z</time>
      </trkpt>
      <trkpt lat="47.84308" lon="6.7876">
        <ele>925.02948</ele>
        <time>2018-05-26T12:53:43Z</time>
      </trkpt>
      <trkpt lat="47.84307" lon="6.78757">
        <ele>925.315186</ele>
        <time>2018-05-26T12:53:44Z</time>
      </trkpt>
      <trkpt lat="47.84306" lon="6.78754">
        <ele>925.518616</ele>
        <time>2018-05-26T12:53:45Z</time>
      </trkpt>
      <trkpt lat="47.84305" lon="6.7875">
        <ele>925.732117</ele>
        <time>2018-05-26T12:53:46Z</time>
      </trkpt>
      <trkpt lat="47.84304" lon="6.78747">
        <ele>925.953796</ele>
        <time>2018-05-26T12:53:47Z</time>
      </trkpt>
      <trkpt lat="47.84303" lon="6.78744">
        <ele>926.177795</ele>
        <time>2018-05-26T12:53:48Z</time>
      </trkpt>
      <trkpt lat="47.84303" lon="6.78742">
        <ele>926.516907</ele>
        <time>2018-05-26T12:53:49Z</time>
      </trkpt>
      <trkpt lat="47.84302" lon="6.78739">
        <ele>926.743103</ele>
        <time>2018-05-26T12:53:50Z</time>
      </trkpt>
      <trkpt lat="47.84301" lon="6.78736">
        <ele>926.958191</ele>
        <time>2018-05-26T12:53:51Z</time>
      </trkpt>
      <trkpt lat="47.84299" lon="6.78734">
        <ele>927.059265</ele>
        <time>2018-05-26T12:53:52Z</time>
      </trkpt>
      <trkpt lat="47.84297" lon="6.78731">
        <ele>927.156921</ele>
        <time>2018-05-26T12:53:53Z</time>
      </trkpt>
      <trkpt lat="47.84295" lon="6.78729">
        <ele>927.341797</ele>
        <time>2018-05-26T12:53:54Z</time>
      </trkpt>
      <trkpt lat="47.84293" lon="6.78726">
        <ele>927.518738</ele>
        <time>2018-05-26T12:53:55Z</time>
      </trkpt>
      <trkpt lat="47.84292" lon="6.78724">
        <ele>927.686829</ele>
        <time>2018-05-26T12:53:56Z</time>
      </trkpt>
      <trkpt lat="47.84289" lon="6.78721">
        <ele>927.918518</ele>
        <time>2018-05-26T12:53:57Z</time>
      </trkpt>
      <trkpt lat="47.84288" lon="6.78719">
        <ele>928.068604</ele>
        <time>2018-05-26T12:53:58Z</time>
      </trkpt>
      <trkpt lat="47.84286" lon="6.78718">
        <ele>928.223572</ele>
        <time>2018-05-26T12:53:59Z</time>
      </trkpt>
      <trkpt lat="47.84284" lon="6.78716">
        <ele>928.461914</ele>
        <time>2018-05-26T12:54:00Z</time>
      </trkpt>
      <trkpt lat="47.84283" lon="6.78714">
        <ele>928.618591</ele>
        <time>2018-05-26T12:54:01Z</time>
      </trkpt>
      <trkpt lat="47.84281" lon="6.78712">
        <ele>928.78009</ele>
        <time>2018-05-26T12:54:02Z</time>
      </trkpt>
      <trkpt lat="47.84279" lon="6.7871">
        <ele>929.04126</ele>
        <time>2018-05-26T12:54:03Z</time>
      </trkpt>
      <trkpt lat="47.84278" lon="6.78708">
        <ele>929.21405</ele>
        <time>2018-05-26T12:54:04Z</time>
      </trkpt>
      <trkpt lat="47.84276" lon="6.78706">
        <ele>929.374695</ele>
        <time>2018-05-26T12:54:05Z</time>
      </trkpt>
      <trkpt lat="47.84274" lon="6.78704">
        <ele>929.603088</ele>
        <time>2018-05-26T12:54:06Z</time>
      </trkpt>
      <trkpt lat="47.84272" lon="6.78702">
        <ele>929.754883</ele>
        <time>2018-05-26T12:54:07Z</time>
      </trkpt>
      <trkpt lat="47.84271" lon="6.78701">
        <ele>930.124939</ele>
        <time>2018-05-26T12:54:08Z</time>
      </trkpt>
      <trkpt lat="47.8427" lon="6.787">
        <ele>930.273621</ele>
        <time>2018-05-26T12:54:10Z</time>
      </trkpt>
      <trkpt lat="47.84269" lon="6.78699">
        <ele>930.430603</ele>
        <time>2018-05-26T12:54:11Z</time>
      </trkpt>
      <trkpt lat="47.84267" lon="6.78697">
        <ele>930.687988</ele>
        <time>2018-05-26T12:54:12Z</time>
      </trkpt>
      <trkpt lat="47.84265" lon="6.78695">
        <ele>930.873718</ele>
        <time>2018-05-26T12:54:13Z</time>
      </trkpt>
      <trkpt lat="47.84263" lon="6.78693">
        <ele>931.069885</ele>
        <time>2018-05-26T12:54:14Z</time>
      </trkpt>
      <trkpt lat="47.8426" lon="6.78692">
        <ele>931.370422</ele>
        <time>2018-05-26T12:54:15Z</time>
      </trkpt>
      <trkpt lat="47.84257" lon="6.78691">
        <ele>931.566406</ele>
        <time>2018-05-26T12:54:16Z</time>
      </trkpt>
      <trkpt lat="47.84255" lon="6.78689">
        <ele>931.750305</ele>
        <time>2018-05-26T12:54:17Z</time>
      </trkpt>
      <trkpt lat="47.84252" lon="6.78688">
        <ele>932.003479</ele>
        <time>2018-05-26T12:54:18Z</time>
      </trkpt>
      <trkpt lat="47.8425" lon="6.78686">
        <ele>932.154114</ele>
        <time>2018-05-26T12:54:19Z</time>
      </trkpt>
      <trkpt lat="47.84247" lon="6.78685">
        <ele>932.293457</ele>
        <time>2018-05-26T12:54:20Z</time>
      </trkpt>
      <trkpt lat="47.84244" lon="6.78684">
        <ele>932.484558</ele>
        <time>2018-05-26T12:54:21Z</time>
      </trkpt>
      <trkpt lat="47.84242" lon="6.78683">
        <ele>932.597656</ele>
        <time>2018-05-26T12:54:22Z</time>
      </trkpt>
      <trkpt lat="47.84239" lon="6.78681">
        <ele>932.69458</ele>
        <time>2018-05-26T12:54:23Z</time>
      </trkpt>
      <trkpt lat="47.84236" lon="6.7868">
        <ele>932.821716</ele>
        <time>2018-05-26T12:54:24Z</time>
      </trkpt>
      <trkpt lat="47.84234" lon="6.78679">
        <ele>932.903259</ele>
        <time>2018-05-26T12:54:25Z</time>
      </trkpt>
      <trkpt lat="47.8423" lon="6.78678">
        <ele>932.983398</ele>
        <time>2018-05-26T12:54:26Z</time>
      </trkpt>
      <trkpt lat="47.84228" lon="6.78676">
        <ele>933.094482</ele>
        <time>2018-05-26T12:54:27Z</time>
      </trkpt>
      <trkpt lat="47.84226" lon="6.78674">
        <ele>933.160339</ele>
        <time>2018-05-26T12:54:28Z</time>
      </trkpt>
      <trkpt lat="47.84224" lon="6.78672">
        <ele>933.26239</ele>
        <time>2018-05-26T12:54:29Z</time>
      </trkpt>
      <trkpt lat="47.84222" lon="6.78669">
        <ele>933.337708</ele>
        <time>2018-05-26T12:54:30Z</time>
      </trkpt>
      <trkpt lat="47.84221" lon="6.78667">
        <ele>933.450439</ele>
        <time>2018-05-26T12:54:31Z</time>
      </trkpt>
      <trkpt lat="47.84219" lon="6.78664">
        <ele>933.515137</ele>
        <time>2018-05-26T12:54:32Z</time>
      </trkpt>
      <trkpt lat="47.84217" lon="6.7866">
        <ele>933.570129</ele>
        <time>2018-05-26T12:54:33Z</time>
      </trkpt>
      <trkpt lat="47.84215" lon="6.78657">
        <ele>933.614502</ele>
        <time>2018-05-26T12:54:34Z</time>
      </trkpt>
      <trkpt lat="47.84213" lon="6.78654">
        <ele>933.663757</ele>
        <time>2018-05-26T12:54:35Z</time>
      </trkpt>
      <trkpt lat="47.84212" lon="6.7865">
        <ele>933.688477</ele>
        <time>2018-05-26T12:54:36Z</time>
      </trkpt>
      <trkpt lat="47.84211" lon="6.78647">
        <ele>933.712219</ele>
        <time>2018-05-26T12:54:37Z</time>
      </trkpt>
      <trkpt lat="47.8421" lon="6.78643">
        <ele>933.744873</ele>
        <time>2018-05-26T12:54:38Z</time>
      </trkpt>
      <trkpt lat="47.84208" lon="6.78639">
        <ele>933.766846</ele>
        <time>2018-05-26T12:54:39Z</time>
      </trkpt>
      <trkpt lat="47.84207" lon="6.78634">
        <ele>933.786438</ele>
        <time>2018-05-26T12:54:40Z</time>
      </trkpt>
      <trkpt lat="47.84205" lon="6.7863">
        <ele>933.811951</ele>
        <time>2018-05-26T12:54:41Z</time>
      </trkpt>
      <trkpt lat="47.84203" lon="6.78626">
        <ele>933.862549</ele>
        <time>2018-05-26T12:54:42Z</time>
      </trkpt>
      <trkpt lat="47.842" lon="6.78622">
        <ele>933.90387</ele>
        <time>2018-05-26T12:54:43Z</time>
      </trkpt>
      <trkpt lat="47.84198" lon="6.78618">
        <ele>933.945801</ele>
        <time>2018-05-26T12:54:44Z</time>
      </trkpt>
      <trkpt lat="47.84195" lon="6.78615">
        <ele>934.004211</ele>
        <time>2018-05-26T12:54:45Z</time>
      </trkpt>
      <trkpt lat="47.84193" lon="6.78612">
        <ele>934.039307</ele>
        <time>2018-05-26T12:54:46Z</time>
      </trkpt>
      <trkpt lat="47.8419" lon="6.7861">
        <ele>934.073914</ele>
        <time>2018-05-26T12:54:47Z</time>
      </trkpt>
      <trkpt lat="47.84187" lon="6.78608">
        <ele>934.134521</ele>
        <time>2018-05-26T12:54:48Z</time>
      </trkpt>
      <trkpt lat="47.84185" lon="6.78605">
        <ele>934.182312</ele>
        <time>2018-05-26T12:54:49Z</time>
      </trkpt>
      <trkpt lat="47.84181" lon="6.78603">
        <ele>934.230652</ele>
        <time>2018-05-26T12:54:50Z</time>
      </trkpt>
      <trkpt lat="47.84178" lon="6.78601">
        <ele>934.294189</ele>
        <time>2018-05-26T12:54:51Z</time>
      </trkpt>
      <trkpt lat="47.84175" lon="6.78598">
        <ele>934.315674</ele>
        <time>2018-05-26T12:54:52Z</time>
      </trkpt>
      <trkpt lat="47.84172" lon="6.78596">
        <ele>934.337708</ele>
        <time>2018-05-26T12:54:53Z</time>
      </trkpt>
      <trkpt lat="47.84168" lon="6.78593">
        <ele>934.40802</ele>
        <time>2018-05-26T12:54:54Z</time>
      </trkpt>
      <trkpt lat="47.84165" lon="6.78589">
        <ele>934.447754</ele>
        <time>2018-05-26T12:54:55Z</time>
      </trkpt>
      <trkpt lat="47.84162" lon="6.78585">
        <ele>934.478271</ele>
        <time>2018-05-26T12:54:56Z</time>
      </trkpt>
      <trkpt lat="47.8416" lon="6.78581">
        <ele>934.520691</ele>
        <time>2018-05-26T12:54:57Z</time>
      </trkpt>
      <trkpt lat="47.84157" lon="6.78577">
        <ele>934.558777</ele>
        <time>2018-05-26T12:54:58Z</time>
      </trkpt>
      <trkpt lat="47.84155" lon="6.78573">
        <ele>934.607483</ele>
        <time>2018-05-26T12:54:59Z</time>
      </trkpt>
      <trkpt lat="47.84153" lon="6.78569">
        <ele>934.694824</ele>
        <time>2018-05-26T12:55:00Z</time>
      </trkpt>
      <trkpt lat="47.84152" lon="6.78565">
        <ele>934.770752</ele>
        <time>2018-05-26T12:55:01Z</time>
      </trkpt>
      <trkpt lat="47.8415" lon="6.7856">
        <ele>934.865784</ele>
        <time>2018-05-26T12:55:02Z</time>
      </trkpt>
      <trkpt lat="47.84148" lon="6.78556">
        <ele>934.975281</ele>
        <time>2018-05-26T12:55:03Z</time>
      </trkpt>
      <trkpt lat="47.84147" lon="6.78552">
        <ele>935.148132</ele>
        <time>2018-05-26T12:55:04Z</time>
      </trkpt>
      <trkpt lat="47.84145" lon="6.78547">
        <ele>935.259521</ele>
        <time>2018-05-26T12:55:05Z</time>
      </trkpt>
      <trkpt lat="47.84143" lon="6.78543">
        <ele>935.358093</ele>
        <time>2018-05-26T12:55:06Z</time>
      </trkpt>
      <trkpt lat="47.84142" lon="6.78538">
        <ele>935.475769</ele>
        <time>2018-05-26T12:55:07Z</time>
      </trkpt>
      <trkpt lat="47.84139" lon="6.78533">
        <ele>935.529968</ele>
        <time>2018-05-26T12:55:08Z</time>
      </trkpt>
      <trkpt lat="47.84137" lon="6.78529">
        <ele>935.574768</ele>
        <time>2018-05-26T12:55:09Z</time>
      </trkpt>
      <trkpt lat="47.84135" lon="6.78524">
        <ele>935.635559</ele>
        <time>2018-05-26T12:55:10Z</time>
      </trkpt>
      <trkpt lat="47.84133" lon="6.78518">
        <ele>935.672852</ele>
        <time>2018-05-26T12:55:11Z</time>
      </trkpt>
      <trkpt lat="47.84132" lon="6.78513">
        <ele>935.700928</ele>
        <time>2018-05-26T12:55:12Z</time>
      </trkpt>
      <trkpt lat="47.8413" lon="6.78508">
        <ele>935.721985</ele>
        <time>2018-05-26T12:55:13Z</time>
      </trkpt>
      <trkpt lat="47.84128" lon="6.78503">
        <ele>935.721985</ele>
        <time>2018-05-26T12:55:14Z</time>
      </trkpt>
      <trkpt lat="47.84126" lon="6.78498">
        <ele>935.717102</ele>
        <time>2018-05-26T12:55:15Z</time>
      </trkpt>
      <trkpt lat="47.84123" lon="6.78493">
        <ele>935.698792</ele>
        <time>2018-05-26T12:55:16Z</time>
      </trkpt>
      <trkpt lat="47.84122" lon="6.78487">
        <ele>935.638428</ele>
        <time>2018-05-26T12:55:17Z</time>
      </trkpt>
      <trkpt lat="47.84119" lon="6.78481">
        <ele>935.584229</ele>
        <time>2018-05-26T12:55:18Z</time>
      </trkpt>
      <trkpt lat="47.84117" lon="6.78476">
        <ele>935.524902</ele>
        <time>2018-05-26T12:55:19Z</time>
      </trkpt>
      <trkpt lat="47.84115" lon="6.78471">
        <ele>935.433105</ele>
        <time>2018-05-26T12:55:20Z</time>
      </trkpt>
      <trkpt lat="47.84113" lon="6.78465">
        <ele>935.374939</ele>
        <time>2018-05-26T12:55:21Z</time>
      </trkpt>
      <trkpt lat="47.8411" lon="6.7846">
        <ele>935.324158</ele>
        <time>2018-05-26T12:55:22Z</time>
      </trkpt>
      <trkpt lat="47.84107" lon="6.78455">
        <ele>935.281799</ele>
        <time>2018-05-26T12:55:23Z</time>
      </trkpt>
      <trkpt lat="47.84104" lon="6.78451">
        <ele>935.226746</ele>
        <time>2018-05-26T12:55:24Z</time>
      </trkpt>
      <trkpt lat="47.84101" lon="6.78446">
        <ele>935.192139</ele>
        <time>2018-05-26T12:55:25Z</time>
      </trkpt>
      <trkpt lat="47.84097" lon="6.78442">
        <ele>935.159241</ele>
        <time>2018-05-26T12:55:26Z</time>
      </trkpt>
      <trkpt lat="47.84093" lon="6.78438">
        <ele>935.124207</ele>
        <time>2018-05-26T12:55:27Z</time>
      </trkpt>
      <trkpt lat="47.84088" lon="6.78435">
        <ele>935.108826</ele>
        <time>2018-05-26T12:55:28Z</time>
      </trkpt>
      <trkpt lat="47.84084" lon="6.78433">
        <ele>935.095459</ele>
        <time>2018-05-26T12:55:29Z</time>
      </trkpt>
      <trkpt lat="47.84079" lon="6.78432">
        <ele>935.059814</ele>
        <time>2018-05-26T12:55:30Z</time>
      </trkpt>
      <trkpt lat="47.84074" lon="6.78433">
        <ele>935.028809</ele>
        <time>2018-05-26T12:55:31Z</time>
      </trkpt>
      <trkpt lat="47.84069" lon="6.78434">
        <ele>935.000671</ele>
        <time>2018-05-26T12:55:32Z</time>
      </trkpt>
      <trkpt lat="47.84065" lon="6.78435">
        <ele>934.971741</ele>
        <time>2018-05-26T12:55:33Z</time>
      </trkpt>
      <trkpt lat="47.8406" lon="6.78437">
        <ele>934.958679</ele>
        <time>2018-05-26T12:55:34Z</time>
      </trkpt>
      <trkpt lat="47.84056" lon="6.78438">
        <ele>934.95459</ele>
        <time>2018-05-26T12:55:35Z</time>
      </trkpt>
      <trkpt lat="47.84051" lon="6.78437">
        <ele>934.957275</ele>
        <time>2018-05-26T12:55:36Z</time>
      </trkpt>
      <trkpt lat="47.84046" lon="6.78437">
        <ele>934.981628</ele>
        <time>2018-05-26T12:55:37Z</time>
      </trkpt>
      <trkpt lat="47.84041" lon="6.78434">
        <ele>934.999329</ele>
        <time>2018-05-26T12:55:38Z</time>
      </trkpt>
      <trkpt lat="47.84038" lon="6.78432">
        <ele>935.015137</ele>
        <time>2018-05-26T12:55:39Z</time>
      </trkpt>
      <trkpt lat="47.84034" lon="6.78429">
        <ele>935.032776</ele>
        <time>2018-05-26T12:55:40Z</time>
      </trkpt>
      <trkpt lat="47.84031" lon="6.78426">
        <ele>935.047424</ele>
        <time>2018-05-26T12:55:41Z</time>
      </trkpt>
      <trkpt lat="47.84028" lon="6.78422">
        <ele>935.063171</ele>
        <time>2018-05-26T12:55:42Z</time>
      </trkpt>
      <trkpt lat="47.84026" lon="6.78418">
        <ele>935.089355</ele>
        <time>2018-05-26T12:55:43Z</time>
      </trkpt>
      <trkpt lat="47.84024" lon="6.78413">
        <ele>935.114807</ele>
        <time>2018-05-26T12:55:44Z</time>
      </trkpt>
      <trkpt lat="47.84023" lon="6.78408">
        <ele>935.158386</ele>
        <time>2018-05-26T12:55:45Z</time>
      </trkpt>
      <trkpt lat="47.84022" lon="6.78404">
        <ele>935.261292</ele>
        <time>2018-05-26T12:55:46Z</time>
      </trkpt>
      <trkpt lat="47.84022" lon="6.784">
        <ele>935.355225</ele>
        <time>2018-05-26T12:55:47Z</time>
      </trkpt>
      <trkpt lat="47.84022" lon="6.78396">
        <ele>935.463196</ele>
        <time>2018-05-26T12:55:48Z</time>
      </trkpt>
      <trkpt lat="47.84021" lon="6.78393">
        <ele>935.639954</ele>
        <time>2018-05-26T12:55:49Z</time>
      </trkpt>
      <trkpt lat="47.84021" lon="6.78389">
        <ele>935.766174</ele>
        <time>2018-05-26T12:55:50Z</time>
      </trkpt>
      <trkpt lat="47.8402" lon="6.78385">
        <ele>935.89624</ele>
        <time>2018-05-26T12:55:51Z</time>
      </trkpt>
      <trkpt lat="47.8402" lon="6.78381">
        <ele>936.088806</ele>
        <time>2018-05-26T12:55:52Z</time>
      </trkpt>
      <trkpt lat="47.8402" lon="6.78377">
        <ele>936.150391</ele>
        <time>2018-05-26T12:55:53Z</time>
      </trkpt>
      <trkpt lat="47.8402" lon="6.78374">
        <ele>936.269531</ele>
        <time>2018-05-26T12:55:54Z</time>
      </trkpt>
      <trkpt lat="47.84019" lon="6.78371">
        <ele>936.383118</ele>
        <time>2018-05-26T12:55:55Z</time>
      </trkpt>
      <trkpt lat="47.84019" lon="6.78369">
        <ele>936.533752</ele>
        <time>2018-05-26T12:55:56Z</time>
      </trkpt>
      <trkpt lat="47.84019" lon="6.78367">
        <ele>936.619446</ele>
        <time>2018-05-26T12:55:57Z</time>
      </trkpt>
      <trkpt lat="47.84018" lon="6.78364">
        <ele>936.690918</ele>
        <time>2018-05-26T12:55:58Z</time>
      </trkpt>
      <trkpt lat="47.84018" lon="6.7836">
        <ele>936.755127</ele>
        <time>2018-05-26T12:55:59Z</time>
      </trkpt>
      <trkpt lat="47.84018" lon="6.78354">
        <ele>936.758118</ele>
        <time>2018-05-26T12:56:00Z</time>
      </trkpt>
      <trkpt lat="47.84018" lon="6.78348">
        <ele>936.751526</ele>
        <time>2018-05-26T12:56:01Z</time>
      </trkpt>
      <trkpt lat="47.84017" lon="6.7834">
        <ele>936.709229</ele>
        <time>2018-05-26T12:56:02Z</time>
      </trkpt>
      <trkpt lat="47.84016" lon="6.78333">
        <ele>936.605774</ele>
        <time>2018-05-26T12:56:03Z</time>
      </trkpt>
      <trkpt lat="47.84015" lon="6.78325">
        <ele>936.514648</ele>
        <time>2018-05-26T12:56:04Z</time>
      </trkpt>
      <trkpt lat="47.84015" lon="6.78318">
        <ele>936.393799</ele>
        <time>2018-05-26T12:56:05Z</time>
      </trkpt>
      <trkpt lat="47.84013" lon="6.78311">
        <ele>936.240234</ele>
        <time>2018-05-26T12:56:06Z</time>
      </trkpt>
      <trkpt lat="47.84012" lon="6.78304">
        <ele>935.982422</ele>
        <time>2018-05-26T12:56:07Z</time>
      </trkpt>
      <trkpt lat="47.84011" lon="6.78298">
        <ele>935.813171</ele>
        <time>2018-05-26T12:56:08Z</time>
      </trkpt>
      <trkpt lat="47.84009" lon="6.78292">
        <ele>935.646301</ele>
        <time>2018-05-26T12:56:09Z</time>
      </trkpt>
      <trkpt lat="47.84007" lon="6.78286">
        <ele>935.394226</ele>
        <time>2018-05-26T12:56:10Z</time>
      </trkpt>
      <trkpt lat="47.84005" lon="6.78281">
        <ele>935.234131</ele>
        <time>2018-05-26T12:56:11Z</time>
      </trkpt>
      <trkpt lat="47.84002" lon="6.78276">
        <ele>935.094971</ele>
        <time>2018-05-26T12:56:12Z</time>
      </trkpt>
      <trkpt lat="47.84" lon="6.7827">
        <ele>934.943665</ele>
        <time>2018-05-26T12:56:13Z</time>
      </trkpt>
      <trkpt lat="47.83997" lon="6.78265">
        <ele>934.885437</ele>
        <time>2018-05-26T12:56:14Z</time>
      </trkpt>
      <trkpt lat="47.83995" lon="6.7826">
        <ele>934.871033</ele>
        <time>2018-05-26T12:56:15Z</time>
      </trkpt>
      <trkpt lat="47.83994" lon="6.78256">
        <ele>934.880859</ele>
        <time>2018-05-26T12:56:16Z</time>
      </trkpt>
      <trkpt lat="47.83992" lon="6.78252">
        <ele>934.933533</ele>
        <time>2018-05-26T12:56:17Z</time>
      </trkpt>
      <trkpt lat="47.8399" lon="6.78248">
        <ele>935.010559</ele>
        <time>2018-05-26T12:56:18Z</time>
      </trkpt>
      <trkpt lat="47.83989" lon="6.78243">
        <ele>935.153137</ele>
        <time>2018-05-26T12:56:19Z</time>
      </trkpt>
      <trkpt lat="47.83987" lon="6.78239">
        <ele>935.264648</ele>
        <time>2018-05-26T12:56:20Z</time>
      </trkpt>
      <trkpt lat="47.83986" lon="6.78236">
        <ele>935.387024</ele>
        <time>2018-05-26T12:56:21Z</time>
      </trkpt>
      <trkpt lat="47.83983" lon="6.78232">
        <ele>935.510925</ele>
        <time>2018-05-26T12:56:22Z</time>
      </trkpt>
      <trkpt lat="47.83983" lon="6.78229">
        <ele>935.713074</ele>
        <time>2018-05-26T12:56:23Z</time>
      </trkpt>
      <trkpt lat="47.83981" lon="6.78225">
        <ele>935.873779</ele>
        <time>2018-05-26T12:56:24Z</time>
      </trkpt>
      <trkpt lat="47.8398" lon="6.78221">
        <ele>936.061096</ele>
        <time>2018-05-26T12:56:25Z</time>
      </trkpt>
      <trkpt lat="47.83979" lon="6.78218">
        <ele>936.367249</ele>
        <time>2018-05-26T12:56:26Z</time>
      </trkpt>
      <trkpt lat="47.83978" lon="6.78214">
        <ele>936.580322</ele>
        <time>2018-05-26T12:56:27Z</time>
      </trkpt>
      <trkpt lat="47.83976" lon="6.78211">
        <ele>936.795654</ele>
        <time>2018-05-26T12:56:28Z</time>
      </trkpt>
      <trkpt lat="47.83976" lon="6.78207">
        <ele>937.114929</ele>
        <time>2018-05-26T12:56:29Z</time>
      </trkpt>
      <trkpt lat="47.83975" lon="6.78203">
        <ele>937.318115</ele>
        <time>2018-05-26T12:56:30Z</time>
      </trkpt>
      <trkpt lat="47.83974" lon="6.78199">
        <ele>937.509949</ele>
        <time>2018-05-26T12:56:31Z</time>
      </trkpt>
      <trkpt lat="47.83973" lon="6.78195">
        <ele>937.777344</ele>
        <time>2018-05-26T12:56:32Z</time>
      </trkpt>
      <trkpt lat="47.83972" lon="6.78192">
        <ele>937.940613</ele>
        <time>2018-05-26T12:56:33Z</time>
      </trkpt>
      <trkpt lat="47.8397" lon="6.78188">
        <ele>938.086975</ele>
        <time>2018-05-26T12:56:34Z</time>
      </trkpt>
      <trkpt lat="47.83969" lon="6.78184">
        <ele>938.212097</ele>
        <time>2018-05-26T12:56:35Z</time>
      </trkpt>
      <trkpt lat="47.83968" lon="6.78181">
        <ele>938.362549</ele>
        <time>2018-05-26T12:56:36Z</time>
      </trkpt>
      <trkpt lat="47.83966" lon="6.78177">
        <ele>938.440857</ele>
        <time>2018-05-26T12:56:37Z</time>
      </trkpt>
      <trkpt lat="47.83966" lon="6.78173">
        <ele>938.510986</ele>
        <time>2018-05-26T12:56:38Z</time>
      </trkpt>
      <trkpt lat="47.83965" lon="6.7817">
        <ele>938.608704</ele>
        <time>2018-05-26T12:56:39Z</time>
      </trkpt>
      <trkpt lat="47.83963" lon="6.78166">
        <ele>938.67218</ele>
        <time>2018-05-26T12:56:40Z</time>
      </trkpt>
      <trkpt lat="47.83962" lon="6.78163">
        <ele>938.743591</ele>
        <time>2018-05-26T12:56:41Z</time>
      </trkpt>
      <trkpt lat="47.83961" lon="6.78159">
        <ele>938.875671</ele>
        <time>2018-05-26T12:56:42Z</time>
      </trkpt>
      <trkpt lat="47.8396" lon="6.78156">
        <ele>938.988525</ele>
        <time>2018-05-26T12:56:43Z</time>
      </trkpt>
      <trkpt lat="47.83958" lon="6.78153">
        <ele>939.119324</ele>
        <time>2018-05-26T12:56:44Z</time>
      </trkpt>
      <trkpt lat="47.83957" lon="6.7815">
        <ele>939.33905</ele>
        <time>2018-05-26T12:56:45Z</time>
      </trkpt>
      <trkpt lat="47.83956" lon="6.78147">
        <ele>939.491943</ele>
        <time>2018-05-26T12:56:46Z</time>
      </trkpt>
      <trkpt lat="47.83954" lon="6.78144">
        <ele>939.639587</ele>
        <time>2018-05-26T12:56:47Z</time>
      </trkpt>
      <trkpt lat="47.83952" lon="6.78141">
        <ele>939.840149</ele>
        <time>2018-05-26T12:56:48Z</time>
      </trkpt>
      <trkpt lat="47.83951" lon="6.78138">
        <ele>939.968994</ele>
        <time>2018-05-26T12:56:49Z</time>
      </trkpt>
      <trkpt lat="47.83949" lon="6.78135">
        <ele>940.105713</ele>
        <time>2018-05-26T12:56:50Z</time>
      </trkpt>
      <trkpt lat="47.83948" lon="6.78132">
        <ele>940.321045</ele>
        <time>2018-05-26T12:56:51Z</time>
      </trkpt>
      <trkpt lat="47.83946" lon="6.7813">
        <ele>940.453674</ele>
        <time>2018-05-26T12:56:52Z</time>
      </trkpt>
      <trkpt lat="47.83944" lon="6.78128">
        <ele>940.575989</ele>
        <time>2018-05-26T12:56:53Z</time>
      </trkpt>
      <trkpt lat="47.83942" lon="6.78125">
        <ele>940.637146</ele>
        <time>2018-05-26T12:56:54Z</time>
      </trkpt>
      <trkpt lat="47.83941" lon="6.78123">
        <ele>940.82843</ele>
        <time>2018-05-26T12:56:55Z</time>
      </trkpt>
      <trkpt lat="47.83939" lon="6.78121">
        <ele>940.966248</ele>
        <time>2018-05-26T12:56:56Z</time>
      </trkpt>
      <trkpt lat="47.83937" lon="6.78119">
        <ele>941.105408</ele>
        <time>2018-05-26T12:56:57Z</time>
      </trkpt>
      <trkpt lat="47.83936" lon="6.78117">
        <ele>941.313965</ele>
        <time>2018-05-26T12:56:58Z</time>
      </trkpt>
      <trkpt lat="47.83934" lon="6.78115">
        <ele>941.45752</ele>
        <time>2018-05-26T12:56:59Z</time>
      </trkpt>
      <trkpt lat="47.83931" lon="6.78113">
        <ele>941.60791</ele>
        <time>2018-05-26T12:57:00Z</time>
      </trkpt>
      <trkpt lat="47.83929" lon="6.78113">
        <ele>941.840393</ele>
        <time>2018-05-26T12:57:01Z</time>
      </trkpt>
      <trkpt lat="47.83927" lon="6.78112">
        <ele>941.992004</ele>
        <time>2018-05-26T12:57:02Z</time>
      </trkpt>
      <trkpt lat="47.83924" lon="6.78111">
        <ele>942.139099</ele>
        <time>2018-05-26T12:57:03Z</time>
      </trkpt>
      <trkpt lat="47.83922" lon="6.7811">
        <ele>942.352295</ele>
        <time>2018-05-26T12:57:04Z</time>
      </trkpt>
      <trkpt lat="47.8392" lon="6.78109">
        <ele>942.490051</ele>
        <time>2018-05-26T12:57:05Z</time>
      </trkpt>
      <trkpt lat="47.83918" lon="6.78109">
        <ele>942.69043</ele>
        <time>2018-05-26T12:57:06Z</time>
      </trkpt>
      <trkpt lat="47.83915" lon="6.78109">
        <ele>942.813293</ele>
        <time>2018-05-26T12:57:07Z</time>
      </trkpt>
      <trkpt lat="47.83913" lon="6.78108">
        <ele>942.929871</ele>
        <time>2018-05-26T12:57:08Z</time>
      </trkpt>
      <trkpt lat="47.83911" lon="6.78108">
        <ele>943.117188</ele>
        <time>2018-05-26T12:57:09Z</time>
      </trkpt>
      <trkpt lat="47.83908" lon="6.78108">
        <ele>943.264404</ele>
        <time>2018-05-26T12:57:10Z</time>
      </trkpt>
      <trkpt lat="47.83906" lon="6.78109">
        <ele>943.504395</ele>
        <time>2018-05-26T12:57:11Z</time>
      </trkpt>
      <trkpt lat="47.83904" lon="6.78109">
        <ele>943.672668</ele>
        <time>2018-05-26T12:57:12Z</time>
      </trkpt>
      <trkpt lat="47.83901" lon="6.78109">
        <ele>943.938171</ele>
        <time>2018-05-26T12:57:13Z</time>
      </trkpt>
      <trkpt lat="47.83899" lon="6.78108">
        <ele>944.122131</ele>
        <time>2018-05-26T12:57:14Z</time>
      </trkpt>
      <trkpt lat="47.83897" lon="6.78108">
        <ele>944.306641</ele>
        <time>2018-05-26T12:57:15Z</time>
      </trkpt>
      <trkpt lat="47.83895" lon="6.78107">
        <ele>944.573547</ele>
        <time>2018-05-26T12:57:16Z</time>
      </trkpt>
      <trkpt lat="47.83893" lon="6.78106">
        <ele>944.741455</ele>
        <time>2018-05-26T12:57:17Z</time>
      </trkpt>
      <trkpt lat="47.83891" lon="6.78106">
        <ele>944.895752</ele>
        <time>2018-05-26T12:57:18Z</time>
      </trkpt>
      <trkpt lat="47.83888" lon="6.78105">
        <ele>945.100586</ele>
        <time>2018-05-26T12:57:19Z</time>
      </trkpt>
      <trkpt lat="47.83886" lon="6.78104">
        <ele>945.220703</ele>
        <time>2018-05-26T12:57:20Z</time>
      </trkpt>
      <trkpt lat="47.83884" lon="6.78103">
        <ele>945.371277</ele>
        <time>2018-05-26T12:57:21Z</time>
      </trkpt>
      <trkpt lat="47.83882" lon="6.78102">
        <ele>945.451172</ele>
        <time>2018-05-26T12:57:22Z</time>
      </trkpt>
      <trkpt lat="47.83879" lon="6.78101">
        <ele>945.520203</ele>
        <time>2018-05-26T12:57:23Z</time>
      </trkpt>
      <trkpt lat="47.83877" lon="6.78101">
        <ele>945.619446</ele>
        <time>2018-05-26T12:57:24Z</time>
      </trkpt>
      <trkpt lat="47.83875" lon="6.781">
        <ele>945.6875</ele>
        <time>2018-05-26T12:57:25Z</time>
      </trkpt>
      <trkpt lat="47.83872" lon="6.78099">
        <ele>945.779114</ele>
        <time>2018-05-26T12:57:26Z</time>
      </trkpt>
      <trkpt lat="47.83869" lon="6.78098">
        <ele>945.824036</ele>
        <time>2018-05-26T12:57:27Z</time>
      </trkpt>
      <trkpt lat="47.83866" lon="6.78098">
        <ele>945.851501</ele>
        <time>2018-05-26T12:57:28Z</time>
      </trkpt>
      <trkpt lat="47.83863" lon="6.78098">
        <ele>945.853821</ele>
        <time>2018-05-26T12:57:29Z</time>
      </trkpt>
      <trkpt lat="47.83859" lon="6.78099">
        <ele>945.834045</ele>
        <time>2018-05-26T12:57:30Z</time>
      </trkpt>
      <trkpt lat="47.83855" lon="6.781">
        <ele>945.735352</ele>
        <time>2018-05-26T12:57:31Z</time>
      </trkpt>
      <trkpt lat="47.83852" lon="6.78102">
        <ele>945.638611</ele>
        <time>2018-05-26T12:57:32Z</time>
      </trkpt>
      <trkpt lat="47.8385" lon="6.78105">
        <ele>945.532227</ele>
        <time>2018-05-26T12:57:33Z</time>
      </trkpt>
      <trkpt lat="47.83847" lon="6.78108">
        <ele>945.375305</ele>
        <time>2018-05-26T12:57:34Z</time>
      </trkpt>
      <trkpt lat="47.83843" lon="6.78111">
        <ele>945.281982</ele>
        <time>2018-05-26T12:57:35Z</time>
      </trkpt>
      <trkpt lat="47.83839" lon="6.78114">
        <ele>945.19928</ele>
        <time>2018-05-26T12:57:36Z</time>
      </trkpt>
      <trkpt lat="47.83836" lon="6.78118">
        <ele>945.101501</ele>
        <time>2018-05-26T12:57:37Z</time>
      </trkpt>
      <trkpt lat="47.83831" lon="6.78122">
        <ele>945.049133</ele>
        <time>2018-05-26T12:57:38Z</time>
      </trkpt>
      <trkpt lat="47.83827" lon="6.78126">
        <ele>944.992188</ele>
        <time>2018-05-26T12:57:39Z</time>
      </trkpt>
      <trkpt lat="47.83823" lon="6.7813">
        <ele>944.869446</ele>
        <time>2018-05-26T12:57:40Z</time>
      </trkpt>
      <trkpt lat="47.83819" lon="6.78135">
        <ele>944.746582</ele>
        <time>2018-05-26T12:57:41Z</time>
      </trkpt>
      <trkpt lat="47.83815" lon="6.7814">
        <ele>944.589783</ele>
        <time>2018-05-26T12:57:42Z</time>
      </trkpt>
      <trkpt lat="47.8381" lon="6.78145">
        <ele>944.298035</ele>
        <time>2018-05-26T12:57:43Z</time>
      </trkpt>
      <trkpt lat="47.83807" lon="6.78151">
        <ele>944.072266</ele>
        <time>2018-05-26T12:57:44Z</time>
      </trkpt>
      <trkpt lat="47.83804" lon="6.78157">
        <ele>943.825745</ele>
        <time>2018-05-26T12:57:45Z</time>
      </trkpt>
      <trkpt lat="47.83802" lon="6.78162">
        <ele>943.451599</ele>
        <time>2018-05-26T12:57:46Z</time>
      </trkpt>
      <trkpt lat="47.83798" lon="6.78168">
        <ele>943.231201</ele>
        <time>2018-05-26T12:57:47Z</time>
      </trkpt>
      <trkpt lat="47.83795" lon="6.78172">
        <ele>943.044617</ele>
        <time>2018-05-26T12:57:48Z</time>
      </trkpt>
      <trkpt lat="47.83791" lon="6.78176">
        <ele>942.834717</ele>
        <time>2018-05-26T12:57:49Z</time>
      </trkpt>
      <trkpt lat="47.83787" lon="6.78178">
        <ele>942.73407</ele>
        <time>2018-05-26T12:57:50Z</time>
      </trkpt>
      <trkpt lat="47.83782" lon="6.78181">
        <ele>942.655029</ele>
        <time>2018-05-26T12:57:51Z</time>
      </trkpt>
      <trkpt lat="47.83778" lon="6.78182">
        <ele>942.551514</ele>
        <time>2018-05-26T12:57:52Z</time>
      </trkpt>
      <trkpt lat="47.83774" lon="6.78184">
        <ele>942.488953</ele>
        <time>2018-05-26T12:57:53Z</time>
      </trkpt>
      <trkpt lat="47.83769" lon="6.78187">
        <ele>942.458435</ele>
        <time>2018-05-26T12:57:54Z</time>
      </trkpt>
      <trkpt lat="47.83764" lon="6.7819">
        <ele>942.458435</ele>
        <time>2018-05-26T12:57:55Z</time>
      </trkpt>
      <trkpt lat="47.8376" lon="6.78193">
        <ele>942.400879</ele>
        <time>2018-05-26T12:57:56Z</time>
      </trkpt>
      <trkpt lat="47.83756" lon="6.78196">
        <ele>942.325378</ele>
        <time>2018-05-26T12:57:57Z</time>
      </trkpt>
      <trkpt lat="47.83751" lon="6.78197">
        <ele>942.280334</ele>
        <time>2018-05-26T12:57:58Z</time>
      </trkpt>
      <trkpt lat="47.83747" lon="6.78199">
        <ele>942.228271</ele>
        <time>2018-05-26T12:57:59Z</time>
      </trkpt>
      <trkpt lat="47.83743" lon="6.782">
        <ele>942.225525</ele>
        <time>2018-05-26T12:58:00Z</time>
      </trkpt>
      <trkpt lat="47.8374" lon="6.78201">
        <ele>942.230896</ele>
        <time>2018-05-26T12:58:01Z</time>
      </trkpt>
      <trkpt lat="47.83736" lon="6.78202">
        <ele>942.302063</ele>
        <time>2018-05-26T12:58:02Z</time>
      </trkpt>
      <trkpt lat="47.83733" lon="6.78202">
        <ele>942.382141</ele>
        <time>2018-05-26T12:58:03Z</time>
      </trkpt>
      <trkpt lat="47.83729" lon="6.78202">
        <ele>942.53656</ele>
        <time>2018-05-26T12:58:04Z</time>
      </trkpt>
      <trkpt lat="47.83726" lon="6.78202">
        <ele>942.66864</ele>
        <time>2018-05-26T12:58:05Z</time>
      </trkpt>
      <trkpt lat="47.83723" lon="6.78202">
        <ele>942.822937</ele>
        <time>2018-05-26T12:58:06Z</time>
      </trkpt>
      <trkpt lat="47.8372" lon="6.78201">
        <ele>943.074646</ele>
        <time>2018-05-26T12:58:07Z</time>
      </trkpt>
      <trkpt lat="47.83718" lon="6.78201">
        <ele>943.245422</ele>
        <time>2018-05-26T12:58:08Z</time>
      </trkpt>
      <trkpt lat="47.83715" lon="6.78201">
        <ele>943.491638</ele>
        <time>2018-05-26T12:58:09Z</time>
      </trkpt>
      <trkpt lat="47.83713" lon="6.78201">
        <ele>943.655762</ele>
        <time>2018-05-26T12:58:10Z</time>
      </trkpt>
      <trkpt lat="47.83711" lon="6.78201">
        <ele>943.82782</ele>
        <time>2018-05-26T12:58:11Z</time>
      </trkpt>
      <trkpt lat="47.83709" lon="6.78201">
        <ele>944.096497</ele>
        <time>2018-05-26T12:58:12Z</time>
      </trkpt>
      <trkpt lat="47.83706" lon="6.782">
        <ele>944.28241</ele>
        <time>2018-05-26T12:58:13Z</time>
      </trkpt>
      <trkpt lat="47.83704" lon="6.782">
        <ele>944.47168</ele>
        <time>2018-05-26T12:58:14Z</time>
      </trkpt>
      <trkpt lat="47.83703" lon="6.782">
        <ele>944.749023</ele>
        <time>2018-05-26T12:58:15Z</time>
      </trkpt>
      <trkpt lat="47.83701" lon="6.782">
        <ele>944.924988</ele>
        <time>2018-05-26T12:58:16Z</time>
      </trkpt>
      <trkpt lat="47.83699" lon="6.782">
        <ele>945.193359</ele>
        <time>2018-05-26T12:58:17Z</time>
      </trkpt>
      <trkpt lat="47.83697" lon="6.782">
        <ele>945.374329</ele>
        <time>2018-05-26T12:58:18Z</time>
      </trkpt>
      <trkpt lat="47.83696" lon="6.782">
        <ele>945.553894</ele>
        <time>2018-05-26T12:58:19Z</time>
      </trkpt>
      <trkpt lat="47.83694" lon="6.782">
        <ele>945.821289</ele>
        <time>2018-05-26T12:58:20Z</time>
      </trkpt>
      <trkpt lat="47.83693" lon="6.782">
        <ele>946.006165</ele>
        <time>2018-05-26T12:58:21Z</time>
      </trkpt>
      <trkpt lat="47.83691" lon="6.78199">
        <ele>946.30426</ele>
        <time>2018-05-26T12:58:22Z</time>
      </trkpt>
      <trkpt lat="47.8369" lon="6.78199">
        <ele>946.513977</ele>
        <time>2018-05-26T12:58:23Z</time>
      </trkpt>
      <trkpt lat="47.83688" lon="6.78199">
        <ele>946.724365</ele>
        <time>2018-05-26T12:58:24Z</time>
      </trkpt>
      <trkpt lat="47.83687" lon="6.78198">
        <ele>947.022522</ele>
        <time>2018-05-26T12:58:25Z</time>
      </trkpt>
      <trkpt lat="47.83685" lon="6.78198">
        <ele>947.207764</ele>
        <time>2018-05-26T12:58:26Z</time>
      </trkpt>
      <trkpt lat="47.83683" lon="6.78198">
        <ele>947.474304</ele>
        <time>2018-05-26T12:58:27Z</time>
      </trkpt>
      <trkpt lat="47.83682" lon="6.78197">
        <ele>947.641602</ele>
        <time>2018-05-26T12:58:28Z</time>
      </trkpt>
      <trkpt lat="47.8368" lon="6.78197">
        <ele>947.797791</ele>
        <time>2018-05-26T12:58:29Z</time>
      </trkpt>
      <trkpt lat="47.83679" lon="6.78196">
        <ele>948.028137</ele>
        <time>2018-05-26T12:58:30Z</time>
      </trkpt>
      <trkpt lat="47.83677" lon="6.78195">
        <ele>948.206726</ele>
        <time>2018-05-26T12:58:31Z</time>
      </trkpt>
      <trkpt lat="47.83676" lon="6.78194">
        <ele>948.407043</ele>
        <time>2018-05-26T12:58:32Z</time>
      </trkpt>
      <trkpt lat="47.83674" lon="6.78193">
        <ele>948.734802</ele>
        <time>2018-05-26T12:58:33Z</time>
      </trkpt>
      <trkpt lat="47.83673" lon="6.78193">
        <ele>948.967773</ele>
        <time>2018-05-26T12:58:34Z</time>
      </trkpt>
      <trkpt lat="47.83671" lon="6.78192">
        <ele>949.214111</ele>
        <time>2018-05-26T12:58:35Z</time>
      </trkpt>
      <trkpt lat="47.8367" lon="6.78191">
        <ele>949.595703</ele>
        <time>2018-05-26T12:58:36Z</time>
      </trkpt>
      <trkpt lat="47.83668" lon="6.7819">
        <ele>949.848206</ele>
        <time>2018-05-26T12:58:37Z</time>
      </trkpt>
      <trkpt lat="47.83666" lon="6.78189">
        <ele>950.091309</ele>
        <time>2018-05-26T12:58:38Z</time>
      </trkpt>
      <trkpt lat="47.83664" lon="6.78189">
        <ele>950.439209</ele>
        <time>2018-05-26T12:58:39Z</time>
      </trkpt>
      <trkpt lat="47.83663" lon="6.78188">
        <ele>950.660645</ele>
        <time>2018-05-26T12:58:40Z</time>
      </trkpt>
      <trkpt lat="47.83661" lon="6.78187">
        <ele>950.874268</ele>
        <time>2018-05-26T12:58:41Z</time>
      </trkpt>
      <trkpt lat="47.8366" lon="6.78185">
        <ele>951.164001</ele>
        <time>2018-05-26T12:58:42Z</time>
      </trkpt>
      <trkpt lat="47.83659" lon="6.78183">
        <ele>951.341248</ele>
        <time>2018-05-26T12:58:43Z</time>
      </trkpt>
      <trkpt lat="47.83658" lon="6.78181">
        <ele>951.511414</ele>
        <time>2018-05-26T12:58:44Z</time>
      </trkpt>
      <trkpt lat="47.83656" lon="6.78179">
        <ele>951.764648</ele>
        <time>2018-05-26T12:58:45Z</time>
      </trkpt>
      <trkpt lat="47.83654" lon="6.78176">
        <ele>951.932922</ele>
        <time>2018-05-26T12:58:46Z</time>
      </trkpt>
      <trkpt lat="47.83653" lon="6.78174">
        <ele>952.101013</ele>
        <time>2018-05-26T12:58:47Z</time>
      </trkpt>
      <trkpt lat="47.83651" lon="6.78172">
        <ele>952.343079</ele>
        <time>2018-05-26T12:58:48Z</time>
      </trkpt>
      <trkpt lat="47.8365" lon="6.7817">
        <ele>952.48877</ele>
        <time>2018-05-26T12:58:49Z</time>
      </trkpt>
      <trkpt lat="47.83649" lon="6.78168">
        <ele>952.621399</ele>
        <time>2018-05-26T12:58:50Z</time>
      </trkpt>
      <trkpt lat="47.83647" lon="6.78166">
        <ele>952.800781</ele>
        <time>2018-05-26T12:58:51Z</time>
      </trkpt>
      <trkpt lat="47.83646" lon="6.78164">
        <ele>952.906921</ele>
        <time>2018-05-26T12:58:52Z</time>
      </trkpt>
      <trkpt lat="47.83644" lon="6.78163">
        <ele>952.99823</ele>
        <time>2018-05-26T12:58:53Z</time>
      </trkpt>
      <trkpt lat="47.83642" lon="6.78161">
        <ele>953.110168</ele>
        <time>2018-05-26T12:58:54Z</time>
      </trkpt>
      <trkpt lat="47.8364" lon="6.78159">
        <ele>953.145691</ele>
        <time>2018-05-26T12:58:55Z</time>
      </trkpt>
      <trkpt lat="47.83638" lon="6.78158">
        <ele>953.255615</ele>
        <time>2018-05-26T12:58:56Z</time>
      </trkpt>
      <trkpt lat="47.83637" lon="6.78156">
        <ele>953.340515</ele>
        <time>2018-05-26T12:58:57Z</time>
      </trkpt>
      <trkpt lat="47.83635" lon="6.78154">
        <ele>953.4422</ele>
        <time>2018-05-26T12:58:58Z</time>
      </trkpt>
      <trkpt lat="47.83634" lon="6.78152">
        <ele>953.557312</ele>
        <time>2018-05-26T12:58:59Z</time>
      </trkpt>
      <trkpt lat="47.83632" lon="6.78151">
        <ele>953.682922</ele>
        <time>2018-05-26T12:59:00Z</time>
      </trkpt>
      <trkpt lat="47.8363" lon="6.78149">
        <ele>953.882324</ele>
        <time>2018-05-26T12:59:01Z</time>
      </trkpt>
      <trkpt lat="47.83629" lon="6.78147">
        <ele>954.02179</ele>
        <time>2018-05-26T12:59:02Z</time>
      </trkpt>
      <trkpt lat="47.83627" lon="6.78145">
        <ele>954.16217</ele>
        <time>2018-05-26T12:59:03Z</time>
      </trkpt>
      <trkpt lat="47.83626" lon="6.78143">
        <ele>954.363037</ele>
        <time>2018-05-26T12:59:04Z</time>
      </trkpt>
      <trkpt lat="47.83624" lon="6.78142">
        <ele>954.490479</ele>
        <time>2018-05-26T12:59:05Z</time>
      </trkpt>
      <trkpt lat="47.83623" lon="6.7814">
        <ele>954.615906</ele>
        <time>2018-05-26T12:59:06Z</time>
      </trkpt>
      <trkpt lat="47.83621" lon="6.78138">
        <ele>954.806824</ele>
        <time>2018-05-26T12:59:07Z</time>
      </trkpt>
      <trkpt lat="47.83619" lon="6.78137">
        <ele>954.937744</ele>
        <time>2018-05-26T12:59:08Z</time>
      </trkpt>
      <trkpt lat="47.83617" lon="6.78135">
        <ele>955.06958</ele>
        <time>2018-05-26T12:59:09Z</time>
      </trkpt>
      <trkpt lat="47.83616" lon="6.78133">
        <ele>955.260315</ele>
        <time>2018-05-26T12:59:10Z</time>
      </trkpt>
      <trkpt lat="47.83614" lon="6.78131">
        <ele>955.383057</ele>
        <time>2018-05-26T12:59:11Z</time>
      </trkpt>
      <trkpt lat="47.83613" lon="6.7813">
        <ele>955.506775</ele>
        <time>2018-05-26T12:59:12Z</time>
      </trkpt>
      <trkpt lat="47.83612" lon="6.78128">
        <ele>955.631897</ele>
        <time>2018-05-26T12:59:13Z</time>
      </trkpt>
      <trkpt lat="47.8361" lon="6.78126">
        <ele>955.815247</ele>
        <time>2018-05-26T12:59:14Z</time>
      </trkpt>
      <trkpt lat="47.83608" lon="6.78124">
        <ele>955.932861</ele>
        <time>2018-05-26T12:59:15Z</time>
      </trkpt>
      <trkpt lat="47.83606" lon="6.78122">
        <ele>956.05304</ele>
        <time>2018-05-26T12:59:16Z</time>
      </trkpt>
      <trkpt lat="47.83604" lon="6.7812">
        <ele>956.236755</ele>
        <time>2018-05-26T12:59:17Z</time>
      </trkpt>
      <trkpt lat="47.83602" lon="6.78118">
        <ele>956.35614</ele>
        <time>2018-05-26T12:59:18Z</time>
      </trkpt>
      <trkpt lat="47.836" lon="6.78116">
        <ele>956.471741</ele>
        <time>2018-05-26T12:59:19Z</time>
      </trkpt>
      <trkpt lat="47.83599" lon="6.78114">
        <ele>956.63678</ele>
        <time>2018-05-26T12:59:20Z</time>
      </trkpt>
      <trkpt lat="47.83598" lon="6.78113">
        <ele>956.738953</ele>
        <time>2018-05-26T12:59:21Z</time>
      </trkpt>
      <trkpt lat="47.83596" lon="6.7811">
        <ele>956.836365</ele>
        <time>2018-05-26T12:59:22Z</time>
      </trkpt>
      <trkpt lat="47.83595" lon="6.78108">
        <ele>956.929626</ele>
        <time>2018-05-26T12:59:23Z</time>
      </trkpt>
      <trkpt lat="47.83593" lon="6.78106">
        <ele>957.069153</ele>
        <time>2018-05-26T12:59:24Z</time>
      </trkpt>
      <trkpt lat="47.83591" lon="6.78104">
        <ele>957.163879</ele>
        <time>2018-05-26T12:59:25Z</time>
      </trkpt>
      <trkpt lat="47.83589" lon="6.78102">
        <ele>957.260498</ele>
        <time>2018-05-26T12:59:26Z</time>
      </trkpt>
      <trkpt lat="47.83587" lon="6.78099">
        <ele>957.415222</ele>
        <time>2018-05-26T12:59:27Z</time>
      </trkpt>
      <trkpt lat="47.83585" lon="6.78097">
        <ele>957.533264</ele>
        <time>2018-05-26T12:59:28Z</time>
      </trkpt>
      <trkpt lat="47.83584" lon="6.78094">
        <ele>957.662292</ele>
        <time>2018-05-26T12:59:29Z</time>
      </trkpt>
      <trkpt lat="47.83582" lon="6.78092">
        <ele>957.800842</ele>
        <time>2018-05-26T12:59:30Z</time>
      </trkpt>
      <trkpt lat="47.8358" lon="6.78089">
        <ele>958.0224</ele>
        <time>2018-05-26T12:59:31Z</time>
      </trkpt>
      <trkpt lat="47.83579" lon="6.78087">
        <ele>958.171082</ele>
        <time>2018-05-26T12:59:32Z</time>
      </trkpt>
      <trkpt lat="47.83578" lon="6.78085">
        <ele>958.316345</ele>
        <time>2018-05-26T12:59:33Z</time>
      </trkpt>
      <trkpt lat="47.83576" lon="6.78083">
        <ele>958.537537</ele>
        <time>2018-05-26T12:59:34Z</time>
      </trkpt>
      <trkpt lat="47.83574" lon="6.7808">
        <ele>958.690186</ele>
        <time>2018-05-26T12:59:35Z</time>
      </trkpt>
      <trkpt lat="47.83572" lon="6.78078">
        <ele>958.847412</ele>
        <time>2018-05-26T12:59:36Z</time>
      </trkpt>
      <trkpt lat="47.83571" lon="6.78075">
        <ele>959.005798</ele>
        <time>2018-05-26T12:59:37Z</time>
      </trkpt>
      <trkpt lat="47.83569" lon="6.78073">
        <ele>959.234619</ele>
        <time>2018-05-26T12:59:38Z</time>
      </trkpt>
      <trkpt lat="47.83567" lon="6.78071">
        <ele>959.380188</ele>
        <time>2018-05-26T12:59:39Z</time>
      </trkpt>
      <trkpt lat="47.83566" lon="6.78068">
        <ele>959.520996</ele>
        <time>2018-05-26T12:59:40Z</time>
      </trkpt>
      <trkpt lat="47.83564" lon="6.78066">
        <ele>959.718994</ele>
        <time>2018-05-26T12:59:41Z</time>
      </trkpt>
      <trkpt lat="47.83562" lon="6.78064">
        <ele>959.834412</ele>
        <time>2018-05-26T12:59:42Z</time>
      </trkpt>
      <trkpt lat="47.8356" lon="6.78061">
        <ele>959.941406</ele>
        <time>2018-05-26T12:59:43Z</time>
      </trkpt>
      <trkpt lat="47.83559" lon="6.78058">
        <ele>960.093445</ele>
        <time>2018-05-26T12:59:44Z</time>
      </trkpt>
      <trkpt lat="47.83556" lon="6.78056">
        <ele>960.187744</ele>
        <time>2018-05-26T12:59:45Z</time>
      </trkpt>
      <trkpt lat="47.83555" lon="6.78053">
        <ele>960.271423</ele>
        <time>2018-05-26T12:59:46Z</time>
      </trkpt>
      <trkpt lat="47.83553" lon="6.78051">
        <ele>960.382385</ele>
        <time>2018-05-26T12:59:47Z</time>
      </trkpt>
      <trkpt lat="47.83551" lon="6.78049">
        <ele>960.452148</ele>
        <time>2018-05-26T12:59:48Z</time>
      </trkpt>
      <trkpt lat="47.8355" lon="6.78046">
        <ele>960.51709</ele>
        <time>2018-05-26T12:59:49Z</time>
      </trkpt>
      <trkpt lat="47.83548" lon="6.78044">
        <ele>960.599365</ele>
        <time>2018-05-26T12:59:50Z</time>
      </trkpt>
      <trkpt lat="47.83546" lon="6.78041">
        <ele>960.650146</ele>
        <time>2018-05-26T12:59:51Z</time>
      </trkpt>
      <trkpt lat="47.83545" lon="6.78039">
        <ele>960.706055</ele>
        <time>2018-05-26T12:59:52Z</time>
      </trkpt>
      <trkpt lat="47.83543" lon="6.78036">
        <ele>960.796448</ele>
        <time>2018-05-26T12:59:53Z</time>
      </trkpt>
      <trkpt lat="47.83542" lon="6.78034">
        <ele>960.858582</ele>
        <time>2018-05-26T12:59:54Z</time>
      </trkpt>
      <trkpt lat="47.8354" lon="6.78032">
        <ele>960.924133</ele>
        <time>2018-05-26T12:59:55Z</time>
      </trkpt>
      <trkpt lat="47.83538" lon="6.78029">
        <ele>960.960022</ele>
        <time>2018-05-26T12:59:56Z</time>
      </trkpt>
      <trkpt lat="47.83537" lon="6.78027">
        <ele>961.000244</ele>
        <time>2018-05-26T12:59:57Z</time>
      </trkpt>
      <trkpt lat="47.83536" lon="6.78024">
        <ele>961.085266</ele>
        <time>2018-05-26T12:59:58Z</time>
      </trkpt>
      <trkpt lat="47.83534" lon="6.78021">
        <ele>961.211609</ele>
        <time>2018-05-26T12:59:59Z</time>
      </trkpt>
      <trkpt lat="47.83533" lon="6.78018">
        <ele>961.293762</ele>
        <time>2018-05-26T13:00:00Z</time>
      </trkpt>
      <trkpt lat="47.83532" lon="6.78015">
        <ele>961.382019</ele>
        <time>2018-05-26T13:00:01Z</time>
      </trkpt>
      <trkpt lat="47.8353" lon="6.78012">
        <ele>961.530457</ele>
        <time>2018-05-26T13:00:02Z</time>
      </trkpt>
      <trkpt lat="47.83529" lon="6.78009">
        <ele>961.638245</ele>
        <time>2018-05-26T13:00:03Z</time>
      </trkpt>
      <trkpt lat="47.83528" lon="6.78006">
        <ele>961.747803</ele>
        <time>2018-05-26T13:00:04Z</time>
      </trkpt>
      <trkpt lat="47.83527" lon="6.78003">
        <ele>961.923645</ele>
        <time>2018-05-26T13:00:05Z</time>
      </trkpt>
      <trkpt lat="47.83526" lon="6.78">
        <ele>962.051025</ele>
        <time>2018-05-26T13:00:06Z</time>
      </trkpt>
      <trkpt lat="47.83524" lon="6.77997">
        <ele>962.180237</ele>
        <time>2018-05-26T13:00:07Z</time>
      </trkpt>
      <trkpt lat="47.83523" lon="6.77994">
        <ele>962.368164</ele>
        <time>2018-05-26T13:00:08Z</time>
      </trkpt>
      <trkpt lat="47.83522" lon="6.77992">
        <ele>962.488281</ele>
        <time>2018-05-26T13:00:09Z</time>
      </trkpt>
      <trkpt lat="47.8352" lon="6.77989">
        <ele>962.600525</ele>
        <time>2018-05-26T13:00:10Z</time>
      </trkpt>
      <trkpt lat="47.83519" lon="6.77986">
        <ele>962.709534</ele>
        <time>2018-05-26T13:00:11Z</time>
      </trkpt>
      <trkpt lat="47.83519" lon="6.77983">
        <ele>962.876465</ele>
        <time>2018-05-26T13:00:12Z</time>
      </trkpt>
      <trkpt lat="47.83517" lon="6.77979">
        <ele>962.996582</ele>
        <time>2018-05-26T13:00:13Z</time>
      </trkpt>
      <trkpt lat="47.83516" lon="6.77976">
        <ele>963.126282</ele>
        <time>2018-05-26T13:00:14Z</time>
      </trkpt>
      <trkpt lat="47.83514" lon="6.77972">
        <ele>963.322815</ele>
        <time>2018-05-26T13:00:15Z</time>
      </trkpt>
      <trkpt lat="47.83513" lon="6.77969">
        <ele>963.449036</ele>
        <time>2018-05-26T13:00:16Z</time>
      </trkpt>
      <trkpt lat="47.83513" lon="6.77965">
        <ele>963.565735</ele>
        <time>2018-05-26T13:00:17Z</time>
      </trkpt>
      <trkpt lat="47.83511" lon="6.77962">
        <ele>963.673767</ele>
        <time>2018-05-26T13:00:18Z</time>
      </trkpt>
      <trkpt lat="47.8351" lon="6.77959">
        <ele>963.813416</ele>
        <time>2018-05-26T13:00:19Z</time>
      </trkpt>
      <trkpt lat="47.83509" lon="6.77955">
        <ele>963.894714</ele>
        <time>2018-05-26T13:00:20Z</time>
      </trkpt>
      <trkpt lat="47.83508" lon="6.77951">
        <ele>963.973389</ele>
        <time>2018-05-26T13:00:21Z</time>
      </trkpt>
      <trkpt lat="47.83507" lon="6.77948">
        <ele>964.05719</ele>
        <time>2018-05-26T13:00:22Z</time>
      </trkpt>
      <trkpt lat="47.83506" lon="6.77945">
        <ele>964.205872</ele>
        <time>2018-05-26T13:00:23Z</time>
      </trkpt>
      <trkpt lat="47.83505" lon="6.77942">
        <ele>964.331726</ele>
        <time>2018-05-26T13:00:24Z</time>
      </trkpt>
      <trkpt lat="47.83504" lon="6.77938">
        <ele>964.47345</ele>
        <time>2018-05-26T13:00:25Z</time>
      </trkpt>
      <trkpt lat="47.83503" lon="6.77934">
        <ele>964.692932</ele>
        <time>2018-05-26T13:00:26Z</time>
      </trkpt>
      <trkpt lat="47.83503" lon="6.77931">
        <ele>964.831787</ele>
        <time>2018-05-26T13:00:27Z</time>
      </trkpt>
      <trkpt lat="47.83503" lon="6.77927">
        <ele>964.96759</ele>
        <time>2018-05-26T13:00:28Z</time>
      </trkpt>
      <trkpt lat="47.83502" lon="6.77922">
        <ele>965.107483</ele>
        <time>2018-05-26T13:00:29Z</time>
      </trkpt>
      <trkpt lat="47.83501" lon="6.77918">
        <ele>965.24823</ele>
        <time>2018-05-26T13:00:30Z</time>
      </trkpt>
      <trkpt lat="47.835" lon="6.77914">
        <ele>965.445496</ele>
        <time>2018-05-26T13:00:31Z</time>
      </trkpt>
      <trkpt lat="47.83499" lon="6.7791">
        <ele>965.557922</ele>
        <time>2018-05-26T13:00:32Z</time>
      </trkpt>
      <trkpt lat="47.83498" lon="6.77906">
        <ele>965.66156</ele>
        <time>2018-05-26T13:00:33Z</time>
      </trkpt>
      <trkpt lat="47.83497" lon="6.77902">
        <ele>965.7547</ele>
        <time>2018-05-26T13:00:34Z</time>
      </trkpt>
      <trkpt lat="47.83497" lon="6.77898">
        <ele>965.865417</ele>
        <time>2018-05-26T13:00:35Z</time>
      </trkpt>
      <trkpt lat="47.83497" lon="6.77894">
        <ele>965.913879</ele>
        <time>2018-05-26T13:00:36Z</time>
      </trkpt>
      <trkpt lat="47.83496" lon="6.77889">
        <ele>965.957581</ele>
        <time>2018-05-26T13:00:37Z</time>
      </trkpt>
      <trkpt lat="47.83495" lon="6.77885">
        <ele>966.007751</ele>
        <time>2018-05-26T13:00:38Z</time>
      </trkpt>
      <trkpt lat="47.83494" lon="6.7788">
        <ele>966.096619</ele>
        <time>2018-05-26T13:00:39Z</time>
      </trkpt>
      <trkpt lat="47.83493" lon="6.77876">
        <ele>966.14801</ele>
        <time>2018-05-26T13:00:40Z</time>
      </trkpt>
      <trkpt lat="47.83492" lon="6.77873">
        <ele>966.188782</ele>
        <time>2018-05-26T13:00:41Z</time>
      </trkpt>
      <trkpt lat="47.83491" lon="6.77869">
        <ele>966.243164</ele>
        <time>2018-05-26T13:00:42Z</time>
      </trkpt>
      <trkpt lat="47.8349" lon="6.77866">
        <ele>966.287842</ele>
        <time>2018-05-26T13:00:43Z</time>
      </trkpt>
      <trkpt lat="47.8349" lon="6.77861">
        <ele>966.334229</ele>
        <time>2018-05-26T13:00:44Z</time>
      </trkpt>
      <trkpt lat="47.83489" lon="6.77858">
        <ele>966.406738</ele>
        <time>2018-05-26T13:00:45Z</time>
      </trkpt>
      <trkpt lat="47.83488" lon="6.77854">
        <ele>966.461121</ele>
        <time>2018-05-26T13:00:46Z</time>
      </trkpt>
      <trkpt lat="47.83487" lon="6.7785">
        <ele>966.524597</ele>
        <time>2018-05-26T13:00:47Z</time>
      </trkpt>
      <trkpt lat="47.83487" lon="6.77845">
        <ele>966.593811</ele>
        <time>2018-05-26T13:00:48Z</time>
      </trkpt>
      <trkpt lat="47.83486" lon="6.77842">
        <ele>966.706116</ele>
        <time>2018-05-26T13:00:49Z</time>
      </trkpt>
      <trkpt lat="47.83484" lon="6.77838">
        <ele>966.771179</ele>
        <time>2018-05-26T13:00:50Z</time>
      </trkpt>
      <trkpt lat="47.83483" lon="6.77834">
        <ele>966.819031</ele>
        <time>2018-05-26T13:00:51Z</time>
      </trkpt>
      <trkpt lat="47.83481" lon="6.7783">
        <ele>966.855225</ele>
        <time>2018-05-26T13:00:52Z</time>
      </trkpt>
      <trkpt lat="47.8348" lon="6.77826">
        <ele>966.873047</ele>
        <time>2018-05-26T13:00:53Z</time>
      </trkpt>
      <trkpt lat="47.83478" lon="6.77823">
        <ele>966.893799</ele>
        <time>2018-05-26T13:00:54Z</time>
      </trkpt>
      <trkpt lat="47.83476" lon="6.77819">
        <ele>966.942688</ele>
        <time>2018-05-26T13:00:55Z</time>
      </trkpt>
      <trkpt lat="47.83474" lon="6.77815">
        <ele>966.962708</ele>
        <time>2018-05-26T13:00:56Z</time>
      </trkpt>
      <trkpt lat="47.83473" lon="6.77811">
        <ele>966.984619</ele>
        <time>2018-05-26T13:00:57Z</time>
      </trkpt>
      <trkpt lat="47.83471" lon="6.77807">
        <ele>967.03656</ele>
        <time>2018-05-26T13:00:58Z</time>
      </trkpt>
      <trkpt lat="47.83469" lon="6.77803">
        <ele>967.102478</ele>
        <time>2018-05-26T13:00:59Z</time>
      </trkpt>
      <trkpt lat="47.83468" lon="6.77799">
        <ele>967.21875</ele>
        <time>2018-05-26T13:01:00Z</time>
      </trkpt>
      <trkpt lat="47.83466" lon="6.77796">
        <ele>967.296082</ele>
        <time>2018-05-26T13:01:01Z</time>
      </trkpt>
      <trkpt lat="47.83464" lon="6.77792">
        <ele>967.365662</ele>
        <time>2018-05-26T13:01:02Z</time>
      </trkpt>
      <trkpt lat="47.83462" lon="6.77789">
        <ele>967.451599</ele>
        <time>2018-05-26T13:01:03Z</time>
      </trkpt>
      <trkpt lat="47.8346" lon="6.77786">
        <ele>967.507141</ele>
        <time>2018-05-26T13:01:04Z</time>
      </trkpt>
      <trkpt lat="47.83458" lon="6.77783">
        <ele>967.593262</ele>
        <time>2018-05-26T13:01:05Z</time>
      </trkpt>
      <trkpt lat="47.83456" lon="6.7778">
        <ele>967.6474</ele>
        <time>2018-05-26T13:01:06Z</time>
      </trkpt>
      <trkpt lat="47.83454" lon="6.77777">
        <ele>967.700256</ele>
        <time>2018-05-26T13:01:07Z</time>
      </trkpt>
      <trkpt lat="47.83453" lon="6.77773">
        <ele>967.759338</ele>
        <time>2018-05-26T13:01:08Z</time>
      </trkpt>
      <trkpt lat="47.83451" lon="6.7777">
        <ele>967.862061</ele>
        <time>2018-05-26T13:01:09Z</time>
      </trkpt>
      <trkpt lat="47.83449" lon="6.77767">
        <ele>967.937683</ele>
        <time>2018-05-26T13:01:10Z</time>
      </trkpt>
      <trkpt lat="47.83447" lon="6.77764">
        <ele>968.020813</ele>
        <time>2018-05-26T13:01:11Z</time>
      </trkpt>
      <trkpt lat="47.83445" lon="6.77762">
        <ele>968.16864</ele>
        <time>2018-05-26T13:01:12Z</time>
      </trkpt>
      <trkpt lat="47.83442" lon="6.7776">
        <ele>968.280945</ele>
        <time>2018-05-26T13:01:13Z</time>
      </trkpt>
      <trkpt lat="47.8344" lon="6.77758">
        <ele>968.402649</ele>
        <time>2018-05-26T13:01:14Z</time>
      </trkpt>
      <trkpt lat="47.83438" lon="6.77756">
        <ele>968.601379</ele>
        <time>2018-05-26T13:01:15Z</time>
      </trkpt>
      <trkpt lat="47.83435" lon="6.77754">
        <ele>968.750793</ele>
        <time>2018-05-26T13:01:16Z</time>
      </trkpt>
      <trkpt lat="47.83433" lon="6.77753">
        <ele>968.912842</ele>
        <time>2018-05-26T13:01:17Z</time>
      </trkpt>
      <trkpt lat="47.83431" lon="6.77752">
        <ele>969.175232</ele>
        <time>2018-05-26T13:01:18Z</time>
      </trkpt>
      <trkpt lat="47.83428" lon="6.77751">
        <ele>969.352356</ele>
        <time>2018-05-26T13:01:19Z</time>
      </trkpt>
      <trkpt lat="47.83425" lon="6.77749">
        <ele>969.530029</ele>
        <time>2018-05-26T13:01:20Z</time>
      </trkpt>
      <trkpt lat="47.83423" lon="6.77747">
        <ele>969.7854</ele>
        <time>2018-05-26T13:01:21Z</time>
      </trkpt>
      <trkpt lat="47.8342" lon="6.77746">
        <ele>969.94043</ele>
        <time>2018-05-26T13:01:22Z</time>
      </trkpt>
      <trkpt lat="47.83418" lon="6.77744">
        <ele>970.078796</ele>
        <time>2018-05-26T13:01:23Z</time>
      </trkpt>
      <trkpt lat="47.83416" lon="6.77743">
        <ele>970.255432</ele>
        <time>2018-05-26T13:01:24Z</time>
      </trkpt>
      <trkpt lat="47.83413" lon="6.77742">
        <ele>970.354004</ele>
        <time>2018-05-26T13:01:25Z</time>
      </trkpt>
      <trkpt lat="47.83411" lon="6.7774">
        <ele>970.449707</ele>
        <time>2018-05-26T13:01:26Z</time>
      </trkpt>
      <trkpt lat="47.83408" lon="6.77739">
        <ele>970.604187</ele>
        <time>2018-05-26T13:01:27Z</time>
      </trkpt>
      <trkpt lat="47.83406" lon="6.77738">
        <ele>970.714355</ele>
        <time>2018-05-26T13:01:28Z</time>
      </trkpt>
      <trkpt lat="47.83403" lon="6.77736">
        <ele>970.824524</ele>
        <time>2018-05-26T13:01:29Z</time>
      </trkpt>
      <trkpt lat="47.83401" lon="6.77735">
        <ele>970.987488</ele>
        <time>2018-05-26T13:01:30Z</time>
      </trkpt>
      <trkpt lat="47.83398" lon="6.77734">
        <ele>971.09906</ele>
        <time>2018-05-26T13:01:31Z</time>
      </trkpt>
      <trkpt lat="47.83395" lon="6.77733">
        <ele>971.278259</ele>
        <time>2018-05-26T13:01:32Z</time>
      </trkpt>
      <trkpt lat="47.83392" lon="6.77732">
        <ele>971.401184</ele>
        <time>2018-05-26T13:01:33Z</time>
      </trkpt>
      <trkpt lat="47.83389" lon="6.77732">
        <ele>971.521301</ele>
        <time>2018-05-26T13:01:34Z</time>
      </trkpt>
      <trkpt lat="47.83387" lon="6.77732">
        <ele>971.680725</ele>
        <time>2018-05-26T13:01:35Z</time>
      </trkpt>
      <trkpt lat="47.83384" lon="6.77731">
        <ele>971.767822</ele>
        <time>2018-05-26T13:01:36Z</time>
      </trkpt>
      <trkpt lat="47.83381" lon="6.7773">
        <ele>971.872009</ele>
        <time>2018-05-26T13:01:37Z</time>
      </trkpt>
      <trkpt lat="47.83379" lon="6.77728">
        <ele>971.917175</ele>
        <time>2018-05-26T13:01:38Z</time>
      </trkpt>
      <trkpt lat="47.83376" lon="6.77727">
        <ele>971.940002</ele>
        <time>2018-05-26T13:01:39Z</time>
      </trkpt>
      <trkpt lat="47.83373" lon="6.77726">
        <ele>971.949402</ele>
        <time>2018-05-26T13:01:40Z</time>
      </trkpt>
      <trkpt lat="47.83371" lon="6.77724">
        <ele>971.96051</ele>
        <time>2018-05-26T13:01:41Z</time>
      </trkpt>
      <trkpt lat="47.83368" lon="6.77723">
        <ele>971.986633</ele>
        <time>2018-05-26T13:01:42Z</time>
      </trkpt>
      <trkpt lat="47.83366" lon="6.7772">
        <ele>972.074707</ele>
        <time>2018-05-26T13:01:43Z</time>
      </trkpt>
      <trkpt lat="47.83363" lon="6.77718">
        <ele>972.162781</ele>
        <time>2018-05-26T13:01:44Z</time>
      </trkpt>
      <trkpt lat="47.83362" lon="6.77716">
        <ele>972.281555</ele>
        <time>2018-05-26T13:01:45Z</time>
      </trkpt>
      <trkpt lat="47.8336" lon="6.77714">
        <ele>972.500793</ele>
        <time>2018-05-26T13:01:46Z</time>
      </trkpt>
      <trkpt lat="47.83358" lon="6.77711">
        <ele>972.651184</ele>
        <time>2018-05-26T13:01:47Z</time>
      </trkpt>
      <trkpt lat="47.83356" lon="6.77708">
        <ele>972.797302</ele>
        <time>2018-05-26T13:01:48Z</time>
      </trkpt>
      <trkpt lat="47.83353" lon="6.77705">
        <ele>973.010315</ele>
        <time>2018-05-26T13:01:49Z</time>
      </trkpt>
      <trkpt lat="47.83352" lon="6.77702">
        <ele>973.151367</ele>
        <time>2018-05-26T13:01:50Z</time>
      </trkpt>
      <trkpt lat="47.8335" lon="6.777">
        <ele>973.282043</ele>
        <time>2018-05-26T13:01:51Z</time>
      </trkpt>
      <trkpt lat="47.83347" lon="6.77699">
        <ele>973.437744</ele>
        <time>2018-05-26T13:01:52Z</time>
      </trkpt>
      <trkpt lat="47.83345" lon="6.77697">
        <ele>973.518982</ele>
        <time>2018-05-26T13:01:53Z</time>
      </trkpt>
      <trkpt lat="47.83342" lon="6.77695">
        <ele>973.602234</ele>
        <time>2018-05-26T13:01:54Z</time>
      </trkpt>
      <trkpt lat="47.83341" lon="6.77693">
        <ele>973.726501</ele>
        <time>2018-05-26T13:01:55Z</time>
      </trkpt>
      <trkpt lat="47.83338" lon="6.77691">
        <ele>973.763977</ele>
        <time>2018-05-26T13:01:56Z</time>
      </trkpt>
      <trkpt lat="47.83336" lon="6.7769">
        <ele>973.861877</ele>
        <time>2018-05-26T13:01:57Z</time>
      </trkpt>
      <trkpt lat="47.83333" lon="6.77689">
        <ele>973.929688</ele>
        <time>2018-05-26T13:01:58Z</time>
      </trkpt>
      <trkpt lat="47.83331" lon="6.77687">
        <ele>974.014221</ele>
        <time>2018-05-26T13:01:59Z</time>
      </trkpt>
      <trkpt lat="47.83328" lon="6.77686">
        <ele>974.169373</ele>
        <time>2018-05-26T13:02:00Z</time>
      </trkpt>
      <trkpt lat="47.83326" lon="6.77684">
        <ele>974.279968</ele>
        <time>2018-05-26T13:02:01Z</time>
      </trkpt>
      <trkpt lat="47.83323" lon="6.77683">
        <ele>974.396301</ele>
        <time>2018-05-26T13:02:02Z</time>
      </trkpt>
      <trkpt lat="47.83321" lon="6.77681">
        <ele>974.60376</ele>
        <time>2018-05-26T13:02:03Z</time>
      </trkpt>
      <trkpt lat="47.83319" lon="6.7768">
        <ele>974.764221</ele>
        <time>2018-05-26T13:02:04Z</time>
      </trkpt>
      <trkpt lat="47.83316" lon="6.77678">
        <ele>974.934998</ele>
        <time>2018-05-26T13:02:05Z</time>
      </trkpt>
      <trkpt lat="47.83315" lon="6.77676">
        <ele>975.186035</ele>
        <time>2018-05-26T13:02:06Z</time>
      </trkpt>
      <trkpt lat="47.83313" lon="6.77674">
        <ele>975.348145</ele>
        <time>2018-05-26T13:02:07Z</time>
      </trkpt>
      <trkpt lat="47.83311" lon="6.77672">
        <ele>975.507324</ele>
        <time>2018-05-26T13:02:08Z</time>
      </trkpt>
      <trkpt lat="47.83309" lon="6.7767">
        <ele>975.74823</ele>
        <time>2018-05-26T13:02:09Z</time>
      </trkpt>
      <trkpt lat="47.83307" lon="6.77668">
        <ele>975.900818</ele>
        <time>2018-05-26T13:02:10Z</time>
      </trkpt>
      <trkpt lat="47.83305" lon="6.77666">
        <ele>976.040527</ele>
        <time>2018-05-26T13:02:11Z</time>
      </trkpt>
      <trkpt lat="47.83303" lon="6.77665">
        <ele>976.22583</ele>
        <time>2018-05-26T13:02:12Z</time>
      </trkpt>
      <trkpt lat="47.83302" lon="6.77664">
        <ele>976.342957</ele>
        <time>2018-05-26T13:02:13Z</time>
      </trkpt>
      <trkpt lat="47.83301" lon="6.77662">
        <ele>976.465637</ele>
        <time>2018-05-26T13:02:14Z</time>
      </trkpt>
      <trkpt lat="47.833" lon="6.7766">
        <ele>976.669495</ele>
        <time>2018-05-26T13:02:15Z</time>
      </trkpt>
      <trkpt lat="47.83298" lon="6.77659">
        <ele>976.823547</ele>
        <time>2018-05-26T13:02:16Z</time>
      </trkpt>
      <trkpt lat="47.83296" lon="6.77657">
        <ele>976.989746</ele>
        <time>2018-05-26T13:02:17Z</time>
      </trkpt>
      <trkpt lat="47.83294" lon="6.77655">
        <ele>977.266846</ele>
        <time>2018-05-26T13:02:18Z</time>
      </trkpt>
      <trkpt lat="47.83292" lon="6.77654">
        <ele>977.459473</ele>
        <time>2018-05-26T13:02:19Z</time>
      </trkpt>
      <trkpt lat="47.8329" lon="6.77652">
        <ele>977.655945</ele>
        <time>2018-05-26T13:02:20Z</time>
      </trkpt>
      <trkpt lat="47.83288" lon="6.7765">
        <ele>977.942078</ele>
        <time>2018-05-26T13:02:21Z</time>
      </trkpt>
      <trkpt lat="47.83286" lon="6.77648">
        <ele>978.123474</ele>
        <time>2018-05-26T13:02:22Z</time>
      </trkpt>
      <trkpt lat="47.83284" lon="6.77647">
        <ele>978.291809</ele>
        <time>2018-05-26T13:02:23Z</time>
      </trkpt>
      <trkpt lat="47.83282" lon="6.77646">
        <ele>978.522278</ele>
        <time>2018-05-26T13:02:24Z</time>
      </trkpt>
      <trkpt lat="47.83279" lon="6.77644">
        <ele>978.655457</ele>
        <time>2018-05-26T13:02:25Z</time>
      </trkpt>
      <trkpt lat="47.83277" lon="6.77643">
        <ele>978.7771</ele>
        <time>2018-05-26T13:02:26Z</time>
      </trkpt>
      <trkpt lat="47.83274" lon="6.77641">
        <ele>978.942932</ele>
        <time>2018-05-26T13:02:27Z</time>
      </trkpt>
      <trkpt lat="47.83272" lon="6.77641">
        <ele>979.040771</ele>
        <time>2018-05-26T13:02:28Z</time>
      </trkpt>
      <trkpt lat="47.8327" lon="6.77641">
        <ele>979.133728</ele>
        <time>2018-05-26T13:02:29Z</time>
      </trkpt>
      <trkpt lat="47.83268" lon="6.7764">
        <ele>979.27948</ele>
        <time>2018-05-26T13:02:30Z</time>
      </trkpt>
      <trkpt lat="47.83265" lon="6.7764">
        <ele>979.375427</ele>
        <time>2018-05-26T13:02:31Z</time>
      </trkpt>
      <trkpt lat="47.83262" lon="6.7764">
        <ele>979.517761</ele>
        <time>2018-05-26T13:02:32Z</time>
      </trkpt>
      <trkpt lat="47.8326" lon="6.7764">
        <ele>979.613708</ele>
        <time>2018-05-26T13:02:33Z</time>
      </trkpt>
      <trkpt lat="47.83258" lon="6.77639">
        <ele>979.709412</ele>
        <time>2018-05-26T13:02:34Z</time>
      </trkpt>
      <trkpt lat="47.83255" lon="6.77639">
        <ele>979.85498</ele>
        <time>2018-05-26T13:02:35Z</time>
      </trkpt>
      <trkpt lat="47.83252" lon="6.7764">
        <ele>979.958008</ele>
        <time>2018-05-26T13:02:36Z</time>
      </trkpt>
      <trkpt lat="47.8325" lon="6.7764">
        <ele>980.125793</ele>
        <time>2018-05-26T13:02:37Z</time>
      </trkpt>
      <trkpt lat="47.83249" lon="6.77641">
        <ele>980.239197</ele>
        <time>2018-05-26T13:02:38Z</time>
      </trkpt>
      <trkpt lat="47.83246" lon="6.77641">
        <ele>980.346436</ele>
        <time>2018-05-26T13:02:39Z</time>
      </trkpt>
      <trkpt lat="47.83243" lon="6.77641">
        <ele>980.498047</ele>
        <time>2018-05-26T13:02:40Z</time>
      </trkpt>
      <trkpt lat="47.8324" lon="6.77641">
        <ele>980.588379</ele>
        <time>2018-05-26T13:02:41Z</time>
      </trkpt>
      <trkpt lat="47.83237" lon="6.7764">
        <ele>980.680237</ele>
        <time>2018-05-26T13:02:42Z</time>
      </trkpt>
      <trkpt lat="47.83234" lon="6.7764">
        <ele>980.699768</ele>
        <time>2018-05-26T13:02:43Z</time>
      </trkpt>
      <trkpt lat="47.83231" lon="6.7764">
        <ele>980.697571</ele>
        <time>2018-05-26T13:02:44Z</time>
      </trkpt>
      <trkpt lat="47.83227" lon="6.7764">
        <ele>980.673828</ele>
        <time>2018-05-26T13:02:45Z</time>
      </trkpt>
      <trkpt lat="47.83223" lon="6.7764">
        <ele>980.627869</ele>
        <time>2018-05-26T13:02:46Z</time>
      </trkpt>
      <trkpt lat="47.8322" lon="6.77641">
        <ele>980.519714</ele>
        <time>2018-05-26T13:02:47Z</time>
      </trkpt>
      <trkpt lat="47.83217" lon="6.77641">
        <ele>980.435608</ele>
        <time>2018-05-26T13:02:48Z</time>
      </trkpt>
      <trkpt lat="47.83213" lon="6.77642">
        <ele>980.325378</ele>
        <time>2018-05-26T13:02:49Z</time>
      </trkpt>
      <trkpt lat="47.8321" lon="6.77643">
        <ele>980.272522</ele>
        <time>2018-05-26T13:02:50Z</time>
      </trkpt>
      <trkpt lat="47.83207" lon="6.77644">
        <ele>980.253723</ele>
        <time>2018-05-26T13:02:51Z</time>
      </trkpt>
      <trkpt lat="47.83204" lon="6.77646">
        <ele>980.258484</ele>
        <time>2018-05-26T13:02:52Z</time>
      </trkpt>
      <trkpt lat="47.832" lon="6.77647">
        <ele>980.298035</ele>
        <time>2018-05-26T13:02:53Z</time>
      </trkpt>
      <trkpt lat="47.83198" lon="6.7765">
        <ele>980.374695</ele>
        <time>2018-05-26T13:02:54Z</time>
      </trkpt>
      <trkpt lat="47.83196" lon="6.77652">
        <ele>980.534119</ele>
        <time>2018-05-26T13:02:55Z</time>
      </trkpt>
      <trkpt lat="47.83194" lon="6.77655">
        <ele>980.662903</ele>
        <time>2018-05-26T13:02:56Z</time>
      </trkpt>
      <trkpt lat="47.83191" lon="6.77658">
        <ele>980.73175</ele>
        <time>2018-05-26T13:02:57Z</time>
      </trkpt>
      <trkpt lat="47.8319" lon="6.77662">
        <ele>980.802246</ele>
        <time>2018-05-26T13:02:58Z</time>
      </trkpt>
      <trkpt lat="47.83188" lon="6.77667">
        <ele>980.943542</ele>
        <time>2018-05-26T13:02:59Z</time>
      </trkpt>
      <trkpt lat="47.83187" lon="6.77672">
        <ele>981.073547</ele>
        <time>2018-05-26T13:03:00Z</time>
      </trkpt>
      <trkpt lat="47.83187" lon="6.77678">
        <ele>981.184875</ele>
        <time>2018-05-26T13:03:01Z</time>
      </trkpt>
      <trkpt lat="47.83186" lon="6.77684">
        <ele>981.275818</ele>
        <time>2018-05-26T13:03:02Z</time>
      </trkpt>
      <trkpt lat="47.83187" lon="6.77689">
        <ele>981.343445</ele>
        <time>2018-05-26T13:03:03Z</time>
      </trkpt>
      <trkpt lat="47.83187" lon="6.77695">
        <ele>981.371643</ele>
        <time>2018-05-26T13:03:04Z</time>
      </trkpt>
      <trkpt lat="47.83188" lon="6.777">
        <ele>981.368835</ele>
        <time>2018-05-26T13:03:05Z</time>
      </trkpt>
      <trkpt lat="47.83188" lon="6.77706">
        <ele>981.329834</ele>
        <time>2018-05-26T13:03:06Z</time>
      </trkpt>
      <trkpt lat="47.83189" lon="6.77711">
        <ele>981.262207</ele>
        <time>2018-05-26T13:03:07Z</time>
      </trkpt>
      <trkpt lat="47.8319" lon="6.77717">
        <ele>981.185852</ele>
        <time>2018-05-26T13:03:08Z</time>
      </trkpt>
      <trkpt lat="47.83191" lon="6.77723">
        <ele>981.076965</ele>
        <time>2018-05-26T13:03:09Z</time>
      </trkpt>
      <trkpt lat="47.83191" lon="6.77728">
        <ele>981.022156</ele>
        <time>2018-05-26T13:03:10Z</time>
      </trkpt>
      <trkpt lat="47.83192" lon="6.77733">
        <ele>980.981262</ele>
        <time>2018-05-26T13:03:11Z</time>
      </trkpt>
      <trkpt lat="47.83194" lon="6.77739">
        <ele>980.948792</ele>
        <time>2018-05-26T13:03:12Z</time>
      </trkpt>
      <trkpt lat="47.83195" lon="6.77744">
        <ele>980.913025</ele>
        <time>2018-05-26T13:03:13Z</time>
      </trkpt>
      <trkpt lat="47.83196" lon="6.77749">
        <ele>980.869934</ele>
        <time>2018-05-26T13:03:14Z</time>
      </trkpt>
      <trkpt lat="47.83197" lon="6.77755">
        <ele>980.825928</ele>
        <time>2018-05-26T13:03:15Z</time>
      </trkpt>
      <trkpt lat="47.83198" lon="6.7776">
        <ele>980.784119</ele>
        <time>2018-05-26T13:03:16Z</time>
      </trkpt>
      <trkpt lat="47.832" lon="6.77765">
        <ele>980.752869</ele>
        <time>2018-05-26T13:03:17Z</time>
      </trkpt>
      <trkpt lat="47.83202" lon="6.77771">
        <ele>980.721008</ele>
        <time>2018-05-26T13:03:18Z</time>
      </trkpt>
      <trkpt lat="47.83204" lon="6.77778">
        <ele>980.642761</ele>
        <time>2018-05-26T13:03:19Z</time>
      </trkpt>
      <trkpt lat="47.83205" lon="6.77785">
        <ele>980.550598</ele>
        <time>2018-05-26T13:03:20Z</time>
      </trkpt>
      <trkpt lat="47.83207" lon="6.77793">
        <ele>980.433289</ele>
        <time>2018-05-26T13:03:21Z</time>
      </trkpt>
      <trkpt lat="47.83209" lon="6.77801">
        <ele>980.28595</ele>
        <time>2018-05-26T13:03:22Z</time>
      </trkpt>
      <trkpt lat="47.8321" lon="6.7781">
        <ele>980.103027</ele>
        <time>2018-05-26T13:03:23Z</time>
      </trkpt>
      <trkpt lat="47.83212" lon="6.77819">
        <ele>979.865784</ele>
        <time>2018-05-26T13:03:24Z</time>
      </trkpt>
      <trkpt lat="47.83214" lon="6.77829">
        <ele>979.565918</ele>
        <time>2018-05-26T13:03:25Z</time>
      </trkpt>
      <trkpt lat="47.83216" lon="6.77838">
        <ele>979.219055</ele>
        <time>2018-05-26T13:03:26Z</time>
      </trkpt>
      <trkpt lat="47.83218" lon="6.77848">
        <ele>978.844788</ele>
        <time>2018-05-26T13:03:27Z</time>
      </trkpt>
      <trkpt lat="47.8322" lon="6.77857">
        <ele>978.469238</ele>
        <time>2018-05-26T13:03:28Z</time>
      </trkpt>
      <trkpt lat="47.83222" lon="6.77867">
        <ele>977.894104</ele>
        <time>2018-05-26T13:03:29Z</time>
      </trkpt>
      <trkpt lat="47.83224" lon="6.77877">
        <ele>977.50293</ele>
        <time>2018-05-26T13:03:30Z</time>
      </trkpt>
      <trkpt lat="47.83226" lon="6.77886">
        <ele>977.114746</ele>
        <time>2018-05-26T13:03:31Z</time>
      </trkpt>
      <trkpt lat="47.83228" lon="6.77896">
        <ele>976.738708</ele>
        <time>2018-05-26T13:03:32Z</time>
      </trkpt>
      <trkpt lat="47.83229" lon="6.77905">
        <ele>976.37384</ele>
        <time>2018-05-26T13:03:33Z</time>
      </trkpt>
      <trkpt lat="47.83231" lon="6.77913">
        <ele>976.019287</ele>
        <time>2018-05-26T13:03:34Z</time>
      </trkpt>
      <trkpt lat="47.83233" lon="6.77922">
        <ele>975.518066</ele>
        <time>2018-05-26T13:03:35Z</time>
      </trkpt>
      <trkpt lat="47.83234" lon="6.77929">
        <ele>975.213562</ele>
        <time>2018-05-26T13:03:36Z</time>
      </trkpt>
      <trkpt lat="47.83236" lon="6.77937">
        <ele>974.942139</ele>
        <time>2018-05-26T13:03:37Z</time>
      </trkpt>
      <trkpt lat="47.83236" lon="6.77944">
        <ele>974.724609</ele>
        <time>2018-05-26T13:03:38Z</time>
      </trkpt>
      <trkpt lat="47.83237" lon="6.77951">
        <ele>974.570313</ele>
        <time>2018-05-26T13:03:39Z</time>
      </trkpt>
      <trkpt lat="47.83239" lon="6.77959">
        <ele>974.46582</ele>
        <time>2018-05-26T13:03:40Z</time>
      </trkpt>
      <trkpt lat="47.83239" lon="6.77968">
        <ele>974.372375</ele>
        <time>2018-05-26T13:03:41Z</time>
      </trkpt>
      <trkpt lat="47.8324" lon="6.77978">
        <ele>974.212463</ele>
        <time>2018-05-26T13:03:42Z</time>
      </trkpt>
      <trkpt lat="47.83241" lon="6.77989">
        <ele>974.080872</ele>
        <time>2018-05-26T13:03:43Z</time>
      </trkpt>
      <trkpt lat="47.83243" lon="6.78">
        <ele>973.898682</ele>
        <time>2018-05-26T13:03:44Z</time>
      </trkpt>
      <trkpt lat="47.83247" lon="6.78008">
        <ele>973.622131</ele>
        <time>2018-05-26T13:03:45Z</time>
      </trkpt>
      <trkpt lat="47.8325" lon="6.78017">
        <ele>973.231018</ele>
        <time>2018-05-26T13:03:46Z</time>
      </trkpt>
      <trkpt lat="47.83254" lon="6.78025">
        <ele>972.502502</ele>
        <time>2018-05-26T13:03:47Z</time>
      </trkpt>
      <trkpt lat="47.83257" lon="6.78033">
        <ele>972.001953</ele>
        <time>2018-05-26T13:03:48Z</time>
      </trkpt>
      <trkpt lat="47.83259" lon="6.7804">
        <ele>971.552063</ele>
        <time>2018-05-26T13:03:49Z</time>
      </trkpt>
      <trkpt lat="47.83262" lon="6.78046">
        <ele>971.183105</ele>
        <time>2018-05-26T13:03:50Z</time>
      </trkpt>
      <trkpt lat="47.83263" lon="6.78052">
        <ele>970.801025</ele>
        <time>2018-05-26T13:03:51Z</time>
      </trkpt>
      <trkpt lat="47.83265" lon="6.78057">
        <ele>970.688049</ele>
        <time>2018-05-26T13:03:52Z</time>
      </trkpt>
      <trkpt lat="47.83268" lon="6.78063">
        <ele>970.676453</ele>
        <time>2018-05-26T13:03:53Z</time>
      </trkpt>
      <trkpt lat="47.8327" lon="6.78067">
        <ele>970.694031</ele>
        <time>2018-05-26T13:03:54Z</time>
      </trkpt>
      <trkpt lat="47.83272" lon="6.78072">
        <ele>970.80249</ele>
        <time>2018-05-26T13:03:55Z</time>
      </trkpt>
      <trkpt lat="47.83273" lon="6.78077">
        <ele>970.962585</ele>
        <time>2018-05-26T13:03:56Z</time>
      </trkpt>
      <trkpt lat="47.83274" lon="6.78082">
        <ele>971.285706</ele>
        <time>2018-05-26T13:03:57Z</time>
      </trkpt>
      <trkpt lat="47.83275" lon="6.78087">
        <ele>971.410156</ele>
        <time>2018-05-26T13:03:58Z</time>
      </trkpt>
      <trkpt lat="47.83277" lon="6.78092">
        <ele>971.673035</ele>
        <time>2018-05-26T13:03:59Z</time>
      </trkpt>
      <trkpt lat="47.83278" lon="6.78097">
        <ele>971.932434</ele>
        <time>2018-05-26T13:04:00Z</time>
      </trkpt>
      <trkpt lat="47.83279" lon="6.78101">
        <ele>972.175476</ele>
        <time>2018-05-26T13:04:01Z</time>
      </trkpt>
      <trkpt lat="47.83279" lon="6.78106">
        <ele>972.39917</ele>
        <time>2018-05-26T13:04:02Z</time>
      </trkpt>
      <trkpt lat="47.83279" lon="6.78112">
        <ele>972.601746</ele>
        <time>2018-05-26T13:04:03Z</time>
      </trkpt>
      <trkpt lat="47.83279" lon="6.78117">
        <ele>972.782532</ele>
        <time>2018-05-26T13:04:04Z</time>
      </trkpt>
      <trkpt lat="47.83278" lon="6.78121">
        <ele>972.929382</ele>
        <time>2018-05-26T13:04:05Z</time>
      </trkpt>
      <trkpt lat="47.83275" lon="6.78124">
        <ele>973.083801</ele>
        <time>2018-05-26T13:04:06Z</time>
      </trkpt>
      <trkpt lat="47.83272" lon="6.78125">
        <ele>973.152527</ele>
        <time>2018-05-26T13:04:07Z</time>
      </trkpt>
      <trkpt lat="47.83268" lon="6.78126">
        <ele>973.209534</ele>
        <time>2018-05-26T13:04:08Z</time>
      </trkpt>
      <trkpt lat="47.83264" lon="6.78126">
        <ele>973.282166</ele>
        <time>2018-05-26T13:04:09Z</time>
      </trkpt>
      <trkpt lat="47.83261" lon="6.78125">
        <ele>973.32666</ele>
        <time>2018-05-26T13:04:10Z</time>
      </trkpt>
      <trkpt lat="47.83258" lon="6.78123">
        <ele>973.370544</ele>
        <time>2018-05-26T13:04:11Z</time>
      </trkpt>
      <trkpt lat="47.83255" lon="6.7812">
        <ele>973.439209</ele>
        <time>2018-05-26T13:04:12Z</time>
      </trkpt>
      <trkpt lat="47.83252" lon="6.78117">
        <ele>973.482849</ele>
        <time>2018-05-26T13:04:13Z</time>
      </trkpt>
      <trkpt lat="47.83249" lon="6.78114">
        <ele>973.519531</ele>
        <time>2018-05-26T13:04:14Z</time>
      </trkpt>
      <trkpt lat="47.83245" lon="6.78112">
        <ele>973.539001</ele>
        <time>2018-05-26T13:04:15Z</time>
      </trkpt>
      <trkpt lat="47.83241" lon="6.7811">
        <ele>973.538574</ele>
        <time>2018-05-26T13:04:16Z</time>
      </trkpt>
      <trkpt lat="47.83236" lon="6.78108">
        <ele>973.507813</ele>
        <time>2018-05-26T13:04:17Z</time>
      </trkpt>
      <trkpt lat="47.83229" lon="6.78106">
        <ele>973.374512</ele>
        <time>2018-05-26T13:04:18Z</time>
      </trkpt>
      <trkpt lat="47.83223" lon="6.78105">
        <ele>973.217957</ele>
        <time>2018-05-26T13:04:19Z</time>
      </trkpt>
      <trkpt lat="47.83217" lon="6.78105">
        <ele>972.858398</ele>
        <time>2018-05-26T13:04:20Z</time>
      </trkpt>
      <trkpt lat="47.8321" lon="6.78105">
        <ele>972.537354</ele>
        <time>2018-05-26T13:04:21Z</time>
      </trkpt>
      <trkpt lat="47.83203" lon="6.78107">
        <ele>972.164124</ele>
        <time>2018-05-26T13:04:22Z</time>
      </trkpt>
      <trkpt lat="47.83196" lon="6.7811">
        <ele>971.751953</ele>
        <time>2018-05-26T13:04:23Z</time>
      </trkpt>
      <trkpt lat="47.83188" lon="6.78114">
        <ele>971.08429</ele>
        <time>2018-05-26T13:04:24Z</time>
      </trkpt>
      <trkpt lat="47.83181" lon="6.78118">
        <ele>970.634277</ele>
        <time>2018-05-26T13:04:25Z</time>
      </trkpt>
      <trkpt lat="47.83174" lon="6.78123">
        <ele>969.970947</ele>
        <time>2018-05-26T13:04:26Z</time>
      </trkpt>
      <trkpt lat="47.83167" lon="6.78127">
        <ele>969.517639</ele>
        <time>2018-05-26T13:04:27Z</time>
      </trkpt>
      <trkpt lat="47.8316" lon="6.7813">
        <ele>969.036926</ele>
        <time>2018-05-26T13:04:28Z</time>
      </trkpt>
      <trkpt lat="47.83154" lon="6.78133">
        <ele>968.265442</ele>
        <time>2018-05-26T13:04:29Z</time>
      </trkpt>
      <trkpt lat="47.83147" lon="6.78135">
        <ele>967.761719</ele>
        <time>2018-05-26T13:04:30Z</time>
      </trkpt>
      <trkpt lat="47.83142" lon="6.78136">
        <ele>967.117676</ele>
        <time>2018-05-26T13:04:31Z</time>
      </trkpt>
      <trkpt lat="47.83137" lon="6.78138">
        <ele>966.796692</ele>
        <time>2018-05-26T13:04:32Z</time>
      </trkpt>
      <trkpt lat="47.83132" lon="6.78138">
        <ele>966.554688</ele>
        <time>2018-05-26T13:04:33Z</time>
      </trkpt>
      <trkpt lat="47.83128" lon="6.78139">
        <ele>966.333923</ele>
        <time>2018-05-26T13:04:34Z</time>
      </trkpt>
      <trkpt lat="47.83125" lon="6.7814">
        <ele>966.29834</ele>
        <time>2018-05-26T13:04:35Z</time>
      </trkpt>
      <trkpt lat="47.83121" lon="6.78141">
        <ele>966.311096</ele>
        <time>2018-05-26T13:04:36Z</time>
      </trkpt>
      <trkpt lat="47.83118" lon="6.78142">
        <ele>966.39386</ele>
        <time>2018-05-26T13:04:37Z</time>
      </trkpt>
      <trkpt lat="47.83115" lon="6.78142">
        <ele>966.528137</ele>
        <time>2018-05-26T13:04:38Z</time>
      </trkpt>
      <trkpt lat="47.83112" lon="6.78144">
        <ele>966.807068</ele>
        <time>2018-05-26T13:04:39Z</time>
      </trkpt>
      <trkpt lat="47.83108" lon="6.78145">
        <ele>967.028625</ele>
        <time>2018-05-26T13:04:40Z</time>
      </trkpt>
      <trkpt lat="47.83105" lon="6.78147">
        <ele>967.263733</ele>
        <time>2018-05-26T13:04:41Z</time>
      </trkpt>
      <trkpt lat="47.83101" lon="6.78149">
        <ele>967.598145</ele>
        <time>2018-05-26T13:04:42Z</time>
      </trkpt>
      <trkpt lat="47.83097" lon="6.7815">
        <ele>967.797058</ele>
        <time>2018-05-26T13:04:43Z</time>
      </trkpt>
      <trkpt lat="47.83093" lon="6.78151">
        <ele>967.979309</ele>
        <time>2018-05-26T13:04:44Z</time>
      </trkpt>
      <trkpt lat="47.8309" lon="6.78153">
        <ele>968.223328</ele>
        <time>2018-05-26T13:04:45Z</time>
      </trkpt>
      <trkpt lat="47.83087" lon="6.78155">
        <ele>968.368835</ele>
        <time>2018-05-26T13:04:46Z</time>
      </trkpt>
      <trkpt lat="47.83083" lon="6.78156">
        <ele>968.50177</ele>
        <time>2018-05-26T13:04:47Z</time>
      </trkpt>
      <trkpt lat="47.8308" lon="6.78158">
        <ele>968.681396</ele>
        <time>2018-05-26T13:04:48Z</time>
      </trkpt>
      <trkpt lat="47.83077" lon="6.7816">
        <ele>968.790527</ele>
        <time>2018-05-26T13:04:49Z</time>
      </trkpt>
      <trkpt lat="47.83073" lon="6.78161">
        <ele>968.939453</ele>
        <time>2018-05-26T13:04:50Z</time>
      </trkpt>
      <trkpt lat="47.83069" lon="6.78163">
        <ele>969.026794</ele>
        <time>2018-05-26T13:04:51Z</time>
      </trkpt>
      <trkpt lat="47.83064" lon="6.78164">
        <ele>969.101563</ele>
        <time>2018-05-26T13:04:52Z</time>
      </trkpt>
      <trkpt lat="47.8306" lon="6.78166">
        <ele>969.183838</ele>
        <time>2018-05-26T13:04:53Z</time>
      </trkpt>
      <trkpt lat="47.83056" lon="6.78167">
        <ele>969.212463</ele>
        <time>2018-05-26T13:04:54Z</time>
      </trkpt>
      <trkpt lat="47.83052" lon="6.78167">
        <ele>969.228516</ele>
        <time>2018-05-26T13:04:55Z</time>
      </trkpt>
      <trkpt lat="47.83048" lon="6.78168">
        <ele>969.237366</ele>
        <time>2018-05-26T13:04:56Z</time>
      </trkpt>
      <trkpt lat="47.83044" lon="6.7817">
        <ele>969.252014</ele>
        <time>2018-05-26T13:04:57Z</time>
      </trkpt>
      <trkpt lat="47.83041" lon="6.78171">
        <ele>969.284363</ele>
        <time>2018-05-26T13:04:58Z</time>
      </trkpt>
      <trkpt lat="47.83038" lon="6.78172">
        <ele>969.300049</ele>
        <time>2018-05-26T13:04:59Z</time>
      </trkpt>
      <trkpt lat="47.83035" lon="6.78174">
        <ele>969.320374</ele>
        <time>2018-05-26T13:05:00Z</time>
      </trkpt>
      <trkpt lat="47.83032" lon="6.78175">
        <ele>969.4151</ele>
        <time>2018-05-26T13:05:01Z</time>
      </trkpt>
      <trkpt lat="47.83029" lon="6.78176">
        <ele>969.504089</ele>
        <time>2018-05-26T13:05:02Z</time>
      </trkpt>
      <trkpt lat="47.83027" lon="6.78178">
        <ele>969.605774</ele>
        <time>2018-05-26T13:05:03Z</time>
      </trkpt>
      <trkpt lat="47.83025" lon="6.7818">
        <ele>969.776184</ele>
        <time>2018-05-26T13:05:04Z</time>
      </trkpt>
      <trkpt lat="47.83022" lon="6.78182">
        <ele>969.9021</ele>
        <time>2018-05-26T13:05:05Z</time>
      </trkpt>
      <trkpt lat="47.8302" lon="6.78184">
        <ele>970.043457</ele>
        <time>2018-05-26T13:05:06Z</time>
      </trkpt>
      <trkpt lat="47.83019" lon="6.78186">
        <ele>970.28833</ele>
        <time>2018-05-26T13:05:07Z</time>
      </trkpt>
      <trkpt lat="47.83017" lon="6.78188">
        <ele>970.469299</ele>
        <time>2018-05-26T13:05:08Z</time>
      </trkpt>
      <trkpt lat="47.83015" lon="6.7819">
        <ele>970.659668</ele>
        <time>2018-05-26T13:05:09Z</time>
      </trkpt>
      <trkpt lat="47.83013" lon="6.78192">
        <ele>970.970398</ele>
        <time>2018-05-26T13:05:10Z</time>
      </trkpt>
      <trkpt lat="47.83011" lon="6.78193">
        <ele>971.199036</ele>
        <time>2018-05-26T13:05:11Z</time>
      </trkpt>
      <trkpt lat="47.8301" lon="6.78194">
        <ele>971.442566</ele>
        <time>2018-05-26T13:05:12Z</time>
      </trkpt>
      <trkpt lat="47.83008" lon="6.78195">
        <ele>971.803467</ele>
        <time>2018-05-26T13:05:13Z</time>
      </trkpt>
      <trkpt lat="47.83007" lon="6.78196">
        <ele>972.036194</ele>
        <time>2018-05-26T13:05:14Z</time>
      </trkpt>
      <trkpt lat="47.83005" lon="6.78197">
        <ele>972.263672</ele>
        <time>2018-05-26T13:05:15Z</time>
      </trkpt>
      <trkpt lat="47.83003" lon="6.78198">
        <ele>972.592102</ele>
        <time>2018-05-26T13:05:16Z</time>
      </trkpt>
      <trkpt lat="47.83002" lon="6.78199">
        <ele>972.800049</ele>
        <time>2018-05-26T13:05:17Z</time>
      </trkpt>
      <trkpt lat="47.83" lon="6.78201">
        <ele>973.000244</ele>
        <time>2018-05-26T13:05:18Z</time>
      </trkpt>
      <trkpt lat="47.82999" lon="6.78202">
        <ele>973.475037</ele>
        <time>2018-05-26T13:05:19Z</time>
      </trkpt>
      <trkpt lat="47.82998" lon="6.78203">
        <ele>973.663391</ele>
        <time>2018-05-26T13:05:21Z</time>
      </trkpt>
      <trkpt lat="47.82996" lon="6.78205">
        <ele>973.857239</ele>
        <time>2018-05-26T13:05:22Z</time>
      </trkpt>
      <trkpt lat="47.82995" lon="6.78206">
        <ele>974.163269</ele>
        <time>2018-05-26T13:05:23Z</time>
      </trkpt>
      <trkpt lat="47.82993" lon="6.78207">
        <ele>974.379578</ele>
        <time>2018-05-26T13:05:24Z</time>
      </trkpt>
      <trkpt lat="47.82991" lon="6.78209">
        <ele>974.607849</ele>
        <time>2018-05-26T13:05:25Z</time>
      </trkpt>
      <trkpt lat="47.8299" lon="6.78211">
        <ele>974.962708</ele>
        <time>2018-05-26T13:05:26Z</time>
      </trkpt>
      <trkpt lat="47.82988" lon="6.78212">
        <ele>975.192688</ele>
        <time>2018-05-26T13:05:27Z</time>
      </trkpt>
      <trkpt lat="47.82988" lon="6.78213">
        <ele>975.690735</ele>
        <time>2018-05-26T13:05:28Z</time>
      </trkpt>
      <trkpt lat="47.82986" lon="6.78215">
        <ele>975.864075</ele>
        <time>2018-05-26T13:05:30Z</time>
      </trkpt>
      <trkpt lat="47.82985" lon="6.78216">
        <ele>976.024902</ele>
        <time>2018-05-26T13:05:31Z</time>
      </trkpt>
      <trkpt lat="47.82983" lon="6.78218">
        <ele>976.242981</ele>
        <time>2018-05-26T13:05:32Z</time>
      </trkpt>
      <trkpt lat="47.82982" lon="6.78219">
        <ele>976.378174</ele>
        <time>2018-05-26T13:05:33Z</time>
      </trkpt>
      <trkpt lat="47.8298" lon="6.7822">
        <ele>976.514343</ele>
        <time>2018-05-26T13:05:34Z</time>
      </trkpt>
      <trkpt lat="47.82979" lon="6.78221">
        <ele>976.735535</ele>
        <time>2018-05-26T13:05:35Z</time>
      </trkpt>
      <trkpt lat="47.82978" lon="6.78222">
        <ele>976.888977</ele>
        <time>2018-05-26T13:05:36Z</time>
      </trkpt>
      <trkpt lat="47.82976" lon="6.78223">
        <ele>977.041016</ele>
        <time>2018-05-26T13:05:37Z</time>
      </trkpt>
      <trkpt lat="47.82975" lon="6.78225">
        <ele>977.257996</ele>
        <time>2018-05-26T13:05:38Z</time>
      </trkpt>
      <trkpt lat="47.82973" lon="6.78227">
        <ele>977.397217</ele>
        <time>2018-05-26T13:05:39Z</time>
      </trkpt>
      <trkpt lat="47.82971" lon="6.78228">
        <ele>977.531921</ele>
        <time>2018-05-26T13:05:40Z</time>
      </trkpt>
      <trkpt lat="47.82969" lon="6.78229">
        <ele>977.722473</ele>
        <time>2018-05-26T13:05:41Z</time>
      </trkpt>
      <trkpt lat="47.82967" lon="6.78231">
        <ele>977.838562</ele>
        <time>2018-05-26T13:05:42Z</time>
      </trkpt>
      <trkpt lat="47.82965" lon="6.78232">
        <ele>977.945862</ele>
        <time>2018-05-26T13:05:43Z</time>
      </trkpt>
      <trkpt lat="47.82962" lon="6.78234">
        <ele>978.098572</ele>
        <time>2018-05-26T13:05:44Z</time>
      </trkpt>
      <trkpt lat="47.82961" lon="6.78235">
        <ele>978.199402</ele>
        <time>2018-05-26T13:05:45Z</time>
      </trkpt>
      <trkpt lat="47.82959" lon="6.78236">
        <ele>978.30011</ele>
        <time>2018-05-26T13:05:46Z</time>
      </trkpt>
      <trkpt lat="47.82956" lon="6.78237">
        <ele>978.433105</ele>
        <time>2018-05-26T13:05:47Z</time>
      </trkpt>
      <trkpt lat="47.82954" lon="6.78238">
        <ele>978.509094</ele>
        <time>2018-05-26T13:05:48Z</time>
      </trkpt>
      <trkpt lat="47.82953" lon="6.78239">
        <ele>978.572937</ele>
        <time>2018-05-26T13:05:49Z</time>
      </trkpt>
      <trkpt lat="47.8295" lon="6.7824">
        <ele>978.648438</ele>
        <time>2018-05-26T13:05:50Z</time>
      </trkpt>
      <trkpt lat="47.82948" lon="6.78241">
        <ele>978.683411</ele>
        <time>2018-05-26T13:05:51Z</time>
      </trkpt>
      <trkpt lat="47.82946" lon="6.78241">
        <ele>978.729187</ele>
        <time>2018-05-26T13:05:52Z</time>
      </trkpt>
      <trkpt lat="47.82943" lon="6.78241">
        <ele>978.756775</ele>
        <time>2018-05-26T13:05:53Z</time>
      </trkpt>
      <trkpt lat="47.82941" lon="6.78241">
        <ele>978.78009</ele>
        <time>2018-05-26T13:05:54Z</time>
      </trkpt>
      <trkpt lat="47.82939" lon="6.7824">
        <ele>978.796448</ele>
        <time>2018-05-26T13:05:55Z</time>
      </trkpt>
      <trkpt lat="47.82937" lon="6.78239">
        <ele>978.808044</ele>
        <time>2018-05-26T13:05:56Z</time>
      </trkpt>
      <trkpt lat="47.82934" lon="6.78238">
        <ele>978.823486</ele>
        <time>2018-05-26T13:05:57Z</time>
      </trkpt>
      <trkpt lat="47.82931" lon="6.78235">
        <ele>978.82843</ele>
        <time>2018-05-26T13:05:58Z</time>
      </trkpt>
      <trkpt lat="47.82927" lon="6.78233">
        <ele>978.828064</ele>
        <time>2018-05-26T13:05:59Z</time>
      </trkpt>
      <trkpt lat="47.82923" lon="6.7823">
        <ele>978.821472</ele>
        <time>2018-05-26T13:06:00Z</time>
      </trkpt>
      <trkpt lat="47.8292" lon="6.78228">
        <ele>978.786621</ele>
        <time>2018-05-26T13:06:01Z</time>
      </trkpt>
      <trkpt lat="47.82916" lon="6.78224">
        <ele>978.685852</ele>
        <time>2018-05-26T13:06:02Z</time>
      </trkpt>
      <trkpt lat="47.82913" lon="6.7822">
        <ele>978.585999</ele>
        <time>2018-05-26T13:06:03Z</time>
      </trkpt>
      <trkpt lat="47.82909" lon="6.78217">
        <ele>978.452148</ele>
        <time>2018-05-26T13:06:04Z</time>
      </trkpt>
      <trkpt lat="47.82905" lon="6.78213">
        <ele>978.199219</ele>
        <time>2018-05-26T13:06:05Z</time>
      </trkpt>
      <trkpt lat="47.82902" lon="6.78209">
        <ele>978.013123</ele>
        <time>2018-05-26T13:06:06Z</time>
      </trkpt>
      <trkpt lat="47.82899" lon="6.78204">
        <ele>977.830322</ele>
        <time>2018-05-26T13:06:07Z</time>
      </trkpt>
      <trkpt lat="47.82896" lon="6.78199">
        <ele>977.57782</ele>
        <time>2018-05-26T13:06:08Z</time>
      </trkpt>
      <trkpt lat="47.82893" lon="6.78194">
        <ele>977.425964</ele>
        <time>2018-05-26T13:06:09Z</time>
      </trkpt>
      <trkpt lat="47.8289" lon="6.78188">
        <ele>977.277527</ele>
        <time>2018-05-26T13:06:10Z</time>
      </trkpt>
      <trkpt lat="47.82887" lon="6.78182">
        <ele>977.132507</ele>
        <time>2018-05-26T13:06:11Z</time>
      </trkpt>
      <trkpt lat="47.82884" lon="6.78175">
        <ele>976.910889</ele>
        <time>2018-05-26T13:06:12Z</time>
      </trkpt>
      <trkpt lat="47.82882" lon="6.78168">
        <ele>976.749512</ele>
        <time>2018-05-26T13:06:13Z</time>
      </trkpt>
      <trkpt lat="47.82879" lon="6.78161">
        <ele>976.575928</ele>
        <time>2018-05-26T13:06:14Z</time>
      </trkpt>
      <trkpt lat="47.82876" lon="6.78155">
        <ele>976.316223</ele>
        <time>2018-05-26T13:06:15Z</time>
      </trkpt>
      <trkpt lat="47.82872" lon="6.7815">
        <ele>976.153992</ele>
        <time>2018-05-26T13:06:16Z</time>
      </trkpt>
      <trkpt lat="47.82869" lon="6.78145">
        <ele>976.006287</ele>
        <time>2018-05-26T13:06:17Z</time>
      </trkpt>
      <trkpt lat="47.82866" lon="6.78141">
        <ele>975.82074</ele>
        <time>2018-05-26T13:06:18Z</time>
      </trkpt>
      <trkpt lat="47.82863" lon="6.78138">
        <ele>975.723328</ele>
        <time>2018-05-26T13:06:19Z</time>
      </trkpt>
      <trkpt lat="47.82858" lon="6.78135">
        <ele>975.646973</ele>
        <time>2018-05-26T13:06:20Z</time>
      </trkpt>
      <trkpt lat="47.82855" lon="6.78131">
        <ele>975.594543</ele>
        <time>2018-05-26T13:06:21Z</time>
      </trkpt>
      <trkpt lat="47.82851" lon="6.78128">
        <ele>975.543274</ele>
        <time>2018-05-26T13:06:22Z</time>
      </trkpt>
      <trkpt lat="47.82847" lon="6.78124">
        <ele>975.518005</ele>
        <time>2018-05-26T13:06:23Z</time>
      </trkpt>
      <trkpt lat="47.82842" lon="6.7812">
        <ele>975.490784</ele>
        <time>2018-05-26T13:06:24Z</time>
      </trkpt>
      <trkpt lat="47.82838" lon="6.78117">
        <ele>975.446716</ele>
        <time>2018-05-26T13:06:25Z</time>
      </trkpt>
      <trkpt lat="47.82834" lon="6.78112">
        <ele>975.40625</ele>
        <time>2018-05-26T13:06:26Z</time>
      </trkpt>
      <trkpt lat="47.82829" lon="6.78108">
        <ele>975.352478</ele>
        <time>2018-05-26T13:06:27Z</time>
      </trkpt>
      <trkpt lat="47.82825" lon="6.78105">
        <ele>975.245422</ele>
        <time>2018-05-26T13:06:28Z</time>
      </trkpt>
      <trkpt lat="47.82821" lon="6.78101">
        <ele>975.165466</ele>
        <time>2018-05-26T13:06:29Z</time>
      </trkpt>
      <trkpt lat="47.82816" lon="6.78097">
        <ele>975.080994</ele>
        <time>2018-05-26T13:06:30Z</time>
      </trkpt>
      <trkpt lat="47.82812" lon="6.78094">
        <ele>974.918701</ele>
        <time>2018-05-26T13:06:31Z</time>
      </trkpt>
      <trkpt lat="47.82806" lon="6.78089">
        <ele>974.77179</ele>
        <time>2018-05-26T13:06:32Z</time>
      </trkpt>
      <trkpt lat="47.828" lon="6.78085">
        <ele>974.592529</ele>
        <time>2018-05-26T13:06:33Z</time>
      </trkpt>
      <trkpt lat="47.82795" lon="6.7808">
        <ele>974.253601</ele>
        <time>2018-05-26T13:06:34Z</time>
      </trkpt>
      <trkpt lat="47.82789" lon="6.78075">
        <ele>973.958435</ele>
        <time>2018-05-26T13:06:35Z</time>
      </trkpt>
      <trkpt lat="47.82783" lon="6.78071">
        <ele>973.608948</ele>
        <time>2018-05-26T13:06:36Z</time>
      </trkpt>
      <trkpt lat="47.82777" lon="6.78066">
        <ele>973.02655</ele>
        <time>2018-05-26T13:06:37Z</time>
      </trkpt>
      <trkpt lat="47.82772" lon="6.78061">
        <ele>972.625793</ele>
        <time>2018-05-26T13:06:38Z</time>
      </trkpt>
      <trkpt lat="47.82766" lon="6.78056">
        <ele>972.229065</ele>
        <time>2018-05-26T13:06:39Z</time>
      </trkpt>
      <trkpt lat="47.82761" lon="6.78051">
        <ele>971.700195</ele>
        <time>2018-05-26T13:06:40Z</time>
      </trkpt>
      <trkpt lat="47.82756" lon="6.78047">
        <ele>971.415833</ele>
        <time>2018-05-26T13:06:41Z</time>
      </trkpt>
      <trkpt lat="47.82752" lon="6.78043">
        <ele>971.1875</ele>
        <time>2018-05-26T13:06:42Z</time>
      </trkpt>
      <trkpt lat="47.82747" lon="6.78039">
        <ele>970.920227</ele>
        <time>2018-05-26T13:06:43Z</time>
      </trkpt>
      <trkpt lat="47.82743" lon="6.78035">
        <ele>970.778137</ele>
        <time>2018-05-26T13:06:44Z</time>
      </trkpt>
      <trkpt lat="47.82739" lon="6.78031">
        <ele>970.666992</ele>
        <time>2018-05-26T13:06:45Z</time>
      </trkpt>
      <trkpt lat="47.82734" lon="6.78028">
        <ele>970.542053</ele>
        <time>2018-05-26T13:06:46Z</time>
      </trkpt>
      <trkpt lat="47.8273" lon="6.78026">
        <ele>970.474426</ele>
        <time>2018-05-26T13:06:47Z</time>
      </trkpt>
      <trkpt lat="47.82726" lon="6.78023">
        <ele>970.413818</ele>
        <time>2018-05-26T13:06:48Z</time>
      </trkpt>
      <trkpt lat="47.82721" lon="6.7802">
        <ele>970.338806</ele>
        <time>2018-05-26T13:06:49Z</time>
      </trkpt>
      <trkpt lat="47.82717" lon="6.78018">
        <ele>970.303406</ele>
        <time>2018-05-26T13:06:50Z</time>
      </trkpt>
      <trkpt lat="47.82712" lon="6.78016">
        <ele>970.281738</ele>
        <time>2018-05-26T13:06:51Z</time>
      </trkpt>
      <trkpt lat="47.82708" lon="6.78014">
        <ele>970.276794</ele>
        <time>2018-05-26T13:06:52Z</time>
      </trkpt>
      <trkpt lat="47.82704" lon="6.78012">
        <ele>970.283386</ele>
        <time>2018-05-26T13:06:53Z</time>
      </trkpt>
      <trkpt lat="47.82699" lon="6.7801">
        <ele>970.315002</ele>
        <time>2018-05-26T13:06:54Z</time>
      </trkpt>
      <trkpt lat="47.82695" lon="6.78009">
        <ele>970.396973</ele>
        <time>2018-05-26T13:06:55Z</time>
      </trkpt>
      <trkpt lat="47.82689" lon="6.78008">
        <ele>970.457092</ele>
        <time>2018-05-26T13:06:56Z</time>
      </trkpt>
      <trkpt lat="47.82685" lon="6.78007">
        <ele>970.509338</ele>
        <time>2018-05-26T13:06:57Z</time>
      </trkpt>
      <trkpt lat="47.82679" lon="6.78006">
        <ele>970.565247</ele>
        <time>2018-05-26T13:06:58Z</time>
      </trkpt>
      <trkpt lat="47.82674" lon="6.78005">
        <ele>970.574524</ele>
        <time>2018-05-26T13:06:59Z</time>
      </trkpt>
      <trkpt lat="47.82669" lon="6.78005">
        <ele>970.574524</ele>
        <time>2018-05-26T13:07:00Z</time>
      </trkpt>
      <trkpt lat="47.82664" lon="6.78004">
        <ele>970.547607</ele>
        <time>2018-05-26T13:07:01Z</time>
      </trkpt>
      <trkpt lat="47.82659" lon="6.78003">
        <ele>970.483215</ele>
        <time>2018-05-26T13:07:02Z</time>
      </trkpt>
      <trkpt lat="47.82655" lon="6.78001">
        <ele>970.358582</ele>
        <time>2018-05-26T13:07:03Z</time>
      </trkpt>
      <trkpt lat="47.8265" lon="6.78001">
        <ele>970.27887</ele>
        <time>2018-05-26T13:07:04Z</time>
      </trkpt>
      <trkpt lat="47.82646" lon="6.78">
        <ele>970.171875</ele>
        <time>2018-05-26T13:07:05Z</time>
      </trkpt>
      <trkpt lat="47.82641" lon="6.77999">
        <ele>970.107666</ele>
        <time>2018-05-26T13:07:06Z</time>
      </trkpt>
      <trkpt lat="47.82636" lon="6.77998">
        <ele>970.055908</ele>
        <time>2018-05-26T13:07:07Z</time>
      </trkpt>
      <trkpt lat="47.82632" lon="6.77997">
        <ele>970.018005</ele>
        <time>2018-05-26T13:07:08Z</time>
      </trkpt>
      <trkpt lat="47.82627" lon="6.77996">
        <ele>970.018005</ele>
        <time>2018-05-26T13:07:09Z</time>
      </trkpt>
      <trkpt lat="47.82623" lon="6.77995">
        <ele>970.044373</ele>
        <time>2018-05-26T13:07:10Z</time>
      </trkpt>
      <trkpt lat="47.82619" lon="6.77994">
        <ele>970.110291</ele>
        <time>2018-05-26T13:07:11Z</time>
      </trkpt>
      <trkpt lat="47.82616" lon="6.77994">
        <ele>970.209778</ele>
        <time>2018-05-26T13:07:12Z</time>
      </trkpt>
      <trkpt lat="47.82612" lon="6.77993">
        <ele>970.411926</ele>
        <time>2018-05-26T13:07:13Z</time>
      </trkpt>
      <trkpt lat="47.82609" lon="6.77993">
        <ele>970.574219</ele>
        <time>2018-05-26T13:07:14Z</time>
      </trkpt>
      <trkpt lat="47.82605" lon="6.77992">
        <ele>970.852722</ele>
        <time>2018-05-26T13:07:15Z</time>
      </trkpt>
      <trkpt lat="47.82602" lon="6.77992">
        <ele>971.044678</ele>
        <time>2018-05-26T13:07:16Z</time>
      </trkpt>
      <trkpt lat="47.82599" lon="6.77992">
        <ele>971.233704</ele>
        <time>2018-05-26T13:07:17Z</time>
      </trkpt>
      <trkpt lat="47.82595" lon="6.77992">
        <ele>971.50592</ele>
        <time>2018-05-26T13:07:18Z</time>
      </trkpt>
      <trkpt lat="47.82591" lon="6.77992">
        <ele>971.686523</ele>
        <time>2018-05-26T13:07:19Z</time>
      </trkpt>
      <trkpt lat="47.82588" lon="6.77992">
        <ele>971.952881</ele>
        <time>2018-05-26T13:07:20Z</time>
      </trkpt>
      <trkpt lat="47.82585" lon="6.77993">
        <ele>972.118103</ele>
        <time>2018-05-26T13:07:21Z</time>
      </trkpt>
      <trkpt lat="47.82582" lon="6.77993">
        <ele>972.270264</ele>
        <time>2018-05-26T13:07:22Z</time>
      </trkpt>
      <trkpt lat="47.82579" lon="6.77993">
        <ele>972.485779</ele>
        <time>2018-05-26T13:07:23Z</time>
      </trkpt>
      <trkpt lat="47.82576" lon="6.77994">
        <ele>972.619934</ele>
        <time>2018-05-26T13:07:24Z</time>
      </trkpt>
      <trkpt lat="47.82572" lon="6.77994">
        <ele>972.816833</ele>
        <time>2018-05-26T13:07:25Z</time>
      </trkpt>
      <trkpt lat="47.82569" lon="6.77995">
        <ele>972.949036</ele>
        <time>2018-05-26T13:07:26Z</time>
      </trkpt>
      <trkpt lat="47.82565" lon="6.77996">
        <ele>973.077637</ele>
        <time>2018-05-26T13:07:27Z</time>
      </trkpt>
      <trkpt lat="47.82562" lon="6.77996">
        <ele>973.262207</ele>
        <time>2018-05-26T13:07:28Z</time>
      </trkpt>
      <trkpt lat="47.82558" lon="6.77997">
        <ele>973.380066</ele>
        <time>2018-05-26T13:07:29Z</time>
      </trkpt>
      <trkpt lat="47.82555" lon="6.77999">
        <ele>973.54071</ele>
        <time>2018-05-26T13:07:30Z</time>
      </trkpt>
      <trkpt lat="47.82552" lon="6.78001">
        <ele>973.631287</ele>
        <time>2018-05-26T13:07:31Z</time>
      </trkpt>
      <trkpt lat="47.82549" lon="6.78003">
        <ele>973.707764</ele>
        <time>2018-05-26T13:07:32Z</time>
      </trkpt>
      <trkpt lat="47.82547" lon="6.78005">
        <ele>973.740662</ele>
        <time>2018-05-26T13:07:33Z</time>
      </trkpt>
      <trkpt lat="47.82544" lon="6.78008">
        <ele>973.825439</ele>
        <time>2018-05-26T13:07:34Z</time>
      </trkpt>
      <trkpt lat="47.82541" lon="6.7801">
        <ele>973.876282</ele>
        <time>2018-05-26T13:07:35Z</time>
      </trkpt>
      <trkpt lat="47.82538" lon="6.78013">
        <ele>973.923523</ele>
        <time>2018-05-26T13:07:36Z</time>
      </trkpt>
      <trkpt lat="47.82535" lon="6.78016">
        <ele>973.983582</ele>
        <time>2018-05-26T13:07:37Z</time>
      </trkpt>
      <trkpt lat="47.82532" lon="6.78019">
        <ele>974.016602</ele>
        <time>2018-05-26T13:07:38Z</time>
      </trkpt>
      <trkpt lat="47.82529" lon="6.78023">
        <ele>974.04126</ele>
        <time>2018-05-26T13:07:39Z</time>
      </trkpt>
      <trkpt lat="47.82526" lon="6.78027">
        <ele>974.060608</ele>
        <time>2018-05-26T13:07:40Z</time>
      </trkpt>
      <trkpt lat="47.82523" lon="6.78031">
        <ele>974.064758</ele>
        <time>2018-05-26T13:07:41Z</time>
      </trkpt>
      <trkpt lat="47.8252" lon="6.78035">
        <ele>974.064758</ele>
        <time>2018-05-26T13:07:42Z</time>
      </trkpt>
      <trkpt lat="47.82517" lon="6.78039">
        <ele>974.058777</ele>
        <time>2018-05-26T13:07:43Z</time>
      </trkpt>
      <trkpt lat="47.82515" lon="6.78043">
        <ele>974.046326</ele>
        <time>2018-05-26T13:07:44Z</time>
      </trkpt>
      <trkpt lat="47.82512" lon="6.78047">
        <ele>974.038513</ele>
        <time>2018-05-26T13:07:45Z</time>
      </trkpt>
      <trkpt lat="47.8251" lon="6.78052">
        <ele>974.038513</ele>
        <time>2018-05-26T13:07:46Z</time>
      </trkpt>
      <trkpt lat="47.82508" lon="6.78056">
        <ele>974.048889</ele>
        <time>2018-05-26T13:07:47Z</time>
      </trkpt>
      <trkpt lat="47.82506" lon="6.78061">
        <ele>974.07373</ele>
        <time>2018-05-26T13:07:48Z</time>
      </trkpt>
      <trkpt lat="47.82504" lon="6.78066">
        <ele>974.108704</ele>
        <time>2018-05-26T13:07:49Z</time>
      </trkpt>
      <trkpt lat="47.82502" lon="6.7807">
        <ele>974.181152</ele>
        <time>2018-05-26T13:07:50Z</time>
      </trkpt>
      <trkpt lat="47.825" lon="6.78075">
        <ele>974.243469</ele>
        <time>2018-05-26T13:07:51Z</time>
      </trkpt>
      <trkpt lat="47.82499" lon="6.78079">
        <ele>974.316589</ele>
        <time>2018-05-26T13:07:52Z</time>
      </trkpt>
      <trkpt lat="47.82497" lon="6.78083">
        <ele>974.431885</ele>
        <time>2018-05-26T13:07:53Z</time>
      </trkpt>
      <trkpt lat="47.82496" lon="6.78086">
        <ele>974.52124</ele>
        <time>2018-05-26T13:07:54Z</time>
      </trkpt>
      <trkpt lat="47.82494" lon="6.7809">
        <ele>974.625061</ele>
        <time>2018-05-26T13:07:55Z</time>
      </trkpt>
      <trkpt lat="47.82493" lon="6.78094">
        <ele>974.804504</ele>
        <time>2018-05-26T13:07:56Z</time>
      </trkpt>
      <trkpt lat="47.82492" lon="6.78097">
        <ele>974.93335</ele>
        <time>2018-05-26T13:07:57Z</time>
      </trkpt>
      <trkpt lat="47.82491" lon="6.78101">
        <ele>975.079102</ele>
        <time>2018-05-26T13:07:58Z</time>
      </trkpt>
      <trkpt lat="47.82489" lon="6.78105">
        <ele>975.241882</ele>
        <time>2018-05-26T13:07:59Z</time>
      </trkpt>
      <trkpt lat="47.82488" lon="6.78109">
        <ele>975.504456</ele>
        <time>2018-05-26T13:08:00Z</time>
      </trkpt>
      <trkpt lat="47.82486" lon="6.78113">
        <ele>975.592041</ele>
        <time>2018-05-26T13:08:01Z</time>
      </trkpt>
      <trkpt lat="47.82485" lon="6.78117">
        <ele>975.678467</ele>
        <time>2018-05-26T13:08:02Z</time>
      </trkpt>
      <trkpt lat="47.82484" lon="6.7812">
        <ele>975.764404</ele>
        <time>2018-05-26T13:08:03Z</time>
      </trkpt>
      <trkpt lat="47.82483" lon="6.78124">
        <ele>975.931702</ele>
        <time>2018-05-26T13:08:04Z</time>
      </trkpt>
      <trkpt lat="47.82482" lon="6.78128">
        <ele>976.095764</ele>
        <time>2018-05-26T13:08:05Z</time>
      </trkpt>
      <trkpt lat="47.82482" lon="6.78132">
        <ele>976.339355</ele>
        <time>2018-05-26T13:08:06Z</time>
      </trkpt>
      <trkpt lat="47.82481" lon="6.78135">
        <ele>976.498108</ele>
        <time>2018-05-26T13:08:07Z</time>
      </trkpt>
      <trkpt lat="47.8248" lon="6.7814">
        <ele>976.655579</ele>
        <time>2018-05-26T13:08:08Z</time>
      </trkpt>
      <trkpt lat="47.8248" lon="6.78143">
        <ele>976.808289</ele>
        <time>2018-05-26T13:08:09Z</time>
      </trkpt>
      <trkpt lat="47.82479" lon="6.78148">
        <ele>976.950012</ele>
        <time>2018-05-26T13:08:10Z</time>
      </trkpt>
      <trkpt lat="47.82478" lon="6.78152">
        <ele>977.13739</ele>
        <time>2018-05-26T13:08:11Z</time>
      </trkpt>
      <trkpt lat="47.82476" lon="6.78156">
        <ele>977.243835</ele>
        <time>2018-05-26T13:08:12Z</time>
      </trkpt>
      <trkpt lat="47.82474" lon="6.78161">
        <ele>977.336731</ele>
        <time>2018-05-26T13:08:13Z</time>
      </trkpt>
      <trkpt lat="47.82471" lon="6.78164">
        <ele>977.410645</ele>
        <time>2018-05-26T13:08:14Z</time>
      </trkpt>
      <trkpt lat="47.82466" lon="6.78167">
        <ele>977.44342</ele>
        <time>2018-05-26T13:08:15Z</time>
      </trkpt>
      <trkpt lat="47.8246" lon="6.78166">
        <ele>977.438721</ele>
        <time>2018-05-26T13:08:16Z</time>
      </trkpt>
      <trkpt lat="47.82455" lon="6.78163">
        <ele>977.311218</ele>
        <time>2018-05-26T13:08:17Z</time>
      </trkpt>
      <trkpt lat="47.82451" lon="6.78158">
        <ele>977.135681</ele>
        <time>2018-05-26T13:08:18Z</time>
      </trkpt>
      <trkpt lat="47.82446" lon="6.78152">
        <ele>976.893738</ele>
        <time>2018-05-26T13:08:19Z</time>
      </trkpt>
      <trkpt lat="47.82443" lon="6.78146">
        <ele>976.419434</ele>
        <time>2018-05-26T13:08:20Z</time>
      </trkpt>
      <trkpt lat="47.82438" lon="6.78139">
        <ele>976.059875</ele>
        <time>2018-05-26T13:08:21Z</time>
      </trkpt>
      <trkpt lat="47.82435" lon="6.78133">
        <ele>975.691406</ele>
        <time>2018-05-26T13:08:22Z</time>
      </trkpt>
      <trkpt lat="47.82431" lon="6.78126">
        <ele>975.336975</ele>
        <time>2018-05-26T13:08:23Z</time>
      </trkpt>
      <trkpt lat="47.82427" lon="6.7812">
        <ele>974.850586</ele>
        <time>2018-05-26T13:08:24Z</time>
      </trkpt>
      <trkpt lat="47.82423" lon="6.78114">
        <ele>974.569763</ele>
        <time>2018-05-26T13:08:25Z</time>
      </trkpt>
      <trkpt lat="47.82419" lon="6.78107">
        <ele>974.22052</ele>
        <time>2018-05-26T13:08:26Z</time>
      </trkpt>
      <trkpt lat="47.82415" lon="6.781">
        <ele>974.018982</ele>
        <time>2018-05-26T13:08:27Z</time>
      </trkpt>
      <trkpt lat="47.82412" lon="6.78093">
        <ele>973.820007</ele>
        <time>2018-05-26T13:08:28Z</time>
      </trkpt>
      <trkpt lat="47.8241" lon="6.78085">
        <ele>973.525818</ele>
        <time>2018-05-26T13:08:29Z</time>
      </trkpt>
      <trkpt lat="47.82406" lon="6.78078">
        <ele>973.325439</ele>
        <time>2018-05-26T13:08:30Z</time>
      </trkpt>
      <trkpt lat="47.82403" lon="6.7807">
        <ele>973.119324</ele>
        <time>2018-05-26T13:08:31Z</time>
      </trkpt>
      <trkpt lat="47.824" lon="6.78063">
        <ele>972.768738</ele>
        <time>2018-05-26T13:08:32Z</time>
      </trkpt>
      <trkpt lat="47.82396" lon="6.78056">
        <ele>972.513123</ele>
        <time>2018-05-26T13:08:33Z</time>
      </trkpt>
      <trkpt lat="47.82393" lon="6.78049">
        <ele>972.242737</ele>
        <time>2018-05-26T13:08:34Z</time>
      </trkpt>
      <trkpt lat="47.8239" lon="6.78042">
        <ele>971.818115</ele>
        <time>2018-05-26T13:08:35Z</time>
      </trkpt>
      <trkpt lat="47.82387" lon="6.78035">
        <ele>971.516052</ele>
        <time>2018-05-26T13:08:36Z</time>
      </trkpt>
      <trkpt lat="47.82385" lon="6.78028">
        <ele>971.201599</ele>
        <time>2018-05-26T13:08:37Z</time>
      </trkpt>
      <trkpt lat="47.82382" lon="6.7802">
        <ele>970.887878</ele>
        <time>2018-05-26T13:08:38Z</time>
      </trkpt>
      <trkpt lat="47.82379" lon="6.78013">
        <ele>970.590759</ele>
        <time>2018-05-26T13:08:39Z</time>
      </trkpt>
      <trkpt lat="47.82377" lon="6.78006">
        <ele>970.167908</ele>
        <time>2018-05-26T13:08:40Z</time>
      </trkpt>
      <trkpt lat="47.82374" lon="6.77999">
        <ele>969.8797</ele>
        <time>2018-05-26T13:08:41Z</time>
      </trkpt>
      <trkpt lat="47.82371" lon="6.77991">
        <ele>969.591309</ele>
        <time>2018-05-26T13:08:42Z</time>
      </trkpt>
      <trkpt lat="47.82368" lon="6.77983">
        <ele>969.313538</ele>
        <time>2018-05-26T13:08:43Z</time>
      </trkpt>
      <trkpt lat="47.82364" lon="6.77975">
        <ele>968.886963</ele>
        <time>2018-05-26T13:08:44Z</time>
      </trkpt>
      <trkpt lat="47.82361" lon="6.77965">
        <ele>968.571716</ele>
        <time>2018-05-26T13:08:45Z</time>
      </trkpt>
      <trkpt lat="47.82358" lon="6.77956">
        <ele>968.230774</ele>
        <time>2018-05-26T13:08:46Z</time>
      </trkpt>
      <trkpt lat="47.82356" lon="6.77945">
        <ele>967.677917</ele>
        <time>2018-05-26T13:08:47Z</time>
      </trkpt>
      <trkpt lat="47.82352" lon="6.77935">
        <ele>967.294617</ele>
        <time>2018-05-26T13:08:48Z</time>
      </trkpt>
      <trkpt lat="47.82349" lon="6.77924">
        <ele>966.897766</ele>
        <time>2018-05-26T13:08:49Z</time>
      </trkpt>
      <trkpt lat="47.82345" lon="6.77912">
        <ele>966.262512</ele>
        <time>2018-05-26T13:08:50Z</time>
      </trkpt>
      <trkpt lat="47.82342" lon="6.77901">
        <ele>965.8125</ele>
        <time>2018-05-26T13:08:51Z</time>
      </trkpt>
      <trkpt lat="47.8234" lon="6.77889">
        <ele>965.346191</ele>
        <time>2018-05-26T13:08:52Z</time>
      </trkpt>
      <trkpt lat="47.82336" lon="6.77878">
        <ele>964.856262</ele>
        <time>2018-05-26T13:08:53Z</time>
      </trkpt>
      <trkpt lat="47.82334" lon="6.77865">
        <ele>964.099548</ele>
        <time>2018-05-26T13:08:54Z</time>
      </trkpt>
      <trkpt lat="47.82332" lon="6.77852">
        <ele>963.560303</ele>
        <time>2018-05-26T13:08:55Z</time>
      </trkpt>
      <trkpt lat="47.8233" lon="6.77839">
        <ele>962.967041</ele>
        <time>2018-05-26T13:08:56Z</time>
      </trkpt>
      <trkpt lat="47.82327" lon="6.77826">
        <ele>961.916504</ele>
        <time>2018-05-26T13:08:57Z</time>
      </trkpt>
      <trkpt lat="47.82324" lon="6.77813">
        <ele>961.16925</ele>
        <time>2018-05-26T13:08:58Z</time>
      </trkpt>
      <trkpt lat="47.82321" lon="6.778">
        <ele>960.440613</ele>
        <time>2018-05-26T13:08:59Z</time>
      </trkpt>
      <trkpt lat="47.82319" lon="6.77788">
        <ele>959.445374</ele>
        <time>2018-05-26T13:09:00Z</time>
      </trkpt>
      <trkpt lat="47.82317" lon="6.77777">
        <ele>959.134827</ele>
        <time>2018-05-26T13:09:01Z</time>
      </trkpt>
      <trkpt lat="47.82315" lon="6.77765">
        <ele>958.557129</ele>
        <time>2018-05-26T13:09:02Z</time>
      </trkpt>
      <trkpt lat="47.82314" lon="6.77754">
        <ele>957.83197</ele>
        <time>2018-05-26T13:09:03Z</time>
      </trkpt>
      <trkpt lat="47.82312" lon="6.77744">
        <ele>957.466553</ele>
        <time>2018-05-26T13:09:04Z</time>
      </trkpt>
      <trkpt lat="47.82312" lon="6.77735">
        <ele>957.196533</ele>
        <time>2018-05-26T13:09:05Z</time>
      </trkpt>
      <trkpt lat="47.8231" lon="6.77725">
        <ele>956.935608</ele>
        <time>2018-05-26T13:09:06Z</time>
      </trkpt>
      <trkpt lat="47.8231" lon="6.77716">
        <ele>956.830261</ele>
        <time>2018-05-26T13:09:07Z</time>
      </trkpt>
      <trkpt lat="47.82309" lon="6.77708">
        <ele>956.750061</ele>
        <time>2018-05-26T13:09:08Z</time>
      </trkpt>
      <trkpt lat="47.82308" lon="6.777">
        <ele>956.679382</ele>
        <time>2018-05-26T13:09:09Z</time>
      </trkpt>
      <trkpt lat="47.82307" lon="6.77692">
        <ele>956.563171</ele>
        <time>2018-05-26T13:09:10Z</time>
      </trkpt>
      <trkpt lat="47.82306" lon="6.77683">
        <ele>956.475891</ele>
        <time>2018-05-26T13:09:11Z</time>
      </trkpt>
      <trkpt lat="47.82306" lon="6.77674">
        <ele>956.383972</ele>
        <time>2018-05-26T13:09:12Z</time>
      </trkpt>
      <trkpt lat="47.82304" lon="6.77665">
        <ele>956.259277</ele>
        <time>2018-05-26T13:09:13Z</time>
      </trkpt>
      <trkpt lat="47.82304" lon="6.77656">
        <ele>956.179993</ele>
        <time>2018-05-26T13:09:14Z</time>
      </trkpt>
      <trkpt lat="47.82303" lon="6.77646">
        <ele>956.093567</ele>
        <time>2018-05-26T13:09:15Z</time>
      </trkpt>
      <trkpt lat="47.82302" lon="6.77636">
        <ele>955.902405</ele>
        <time>2018-05-26T13:09:16Z</time>
      </trkpt>
      <trkpt lat="47.82301" lon="6.77625">
        <ele>955.725891</ele>
        <time>2018-05-26T13:09:17Z</time>
      </trkpt>
      <trkpt lat="47.823" lon="6.77614">
        <ele>955.503906</ele>
        <time>2018-05-26T13:09:18Z</time>
      </trkpt>
      <trkpt lat="47.82299" lon="6.77602">
        <ele>955.241028</ele>
        <time>2018-05-26T13:09:19Z</time>
      </trkpt>
      <trkpt lat="47.82298" lon="6.7759">
        <ele>954.940125</ele>
        <time>2018-05-26T13:09:20Z</time>
      </trkpt>
      <trkpt lat="47.82297" lon="6.77578">
        <ele>954.403625</ele>
        <time>2018-05-26T13:09:21Z</time>
      </trkpt>
      <trkpt lat="47.82296" lon="6.77565">
        <ele>953.959961</ele>
        <time>2018-05-26T13:09:22Z</time>
      </trkpt>
      <trkpt lat="47.82294" lon="6.77551">
        <ele>953.448425</ele>
        <time>2018-05-26T13:09:23Z</time>
      </trkpt>
      <trkpt lat="47.82292" lon="6.77538">
        <ele>952.546692</ele>
        <time>2018-05-26T13:09:24Z</time>
      </trkpt>
      <trkpt lat="47.8229" lon="6.77526">
        <ele>951.866394</ele>
        <time>2018-05-26T13:09:25Z</time>
      </trkpt>
      <trkpt lat="47.82287" lon="6.77513">
        <ele>951.130371</ele>
        <time>2018-05-26T13:09:26Z</time>
      </trkpt>
      <trkpt lat="47.82284" lon="6.77501">
        <ele>949.991516</ele>
        <time>2018-05-26T13:09:27Z</time>
      </trkpt>
      <trkpt lat="47.82282" lon="6.77488">
        <ele>949.239807</ele>
        <time>2018-05-26T13:09:28Z</time>
      </trkpt>
      <trkpt lat="47.82281" lon="6.77476">
        <ele>948.535828</ele>
        <time>2018-05-26T13:09:29Z</time>
      </trkpt>
      <trkpt lat="47.82278" lon="6.77464">
        <ele>947.876404</ele>
        <time>2018-05-26T13:09:30Z</time>
      </trkpt>
      <trkpt lat="47.82277" lon="6.77452">
        <ele>947.004883</ele>
        <time>2018-05-26T13:09:31Z</time>
      </trkpt>
      <trkpt lat="47.82275" lon="6.7744">
        <ele>946.474121</ele>
        <time>2018-05-26T13:09:32Z</time>
      </trkpt>
      <trkpt lat="47.82274" lon="6.77428">
        <ele>946.000305</ele>
        <time>2018-05-26T13:09:33Z</time>
      </trkpt>
      <trkpt lat="47.82273" lon="6.77417">
        <ele>945.434875</ele>
        <time>2018-05-26T13:09:34Z</time>
      </trkpt>
      <trkpt lat="47.82272" lon="6.77406">
        <ele>945.151428</ele>
        <time>2018-05-26T13:09:35Z</time>
      </trkpt>
      <trkpt lat="47.82274" lon="6.77396">
        <ele>944.912659</ele>
        <time>2018-05-26T13:09:36Z</time>
      </trkpt>
      <trkpt lat="47.82275" lon="6.77387">
        <ele>944.636414</ele>
        <time>2018-05-26T13:09:37Z</time>
      </trkpt>
      <trkpt lat="47.82278" lon="6.77379">
        <ele>944.518738</ele>
        <time>2018-05-26T13:09:38Z</time>
      </trkpt>
      <trkpt lat="47.8228" lon="6.77371">
        <ele>944.455872</ele>
        <time>2018-05-26T13:09:39Z</time>
      </trkpt>
      <trkpt lat="47.82283" lon="6.77364">
        <ele>944.440735</ele>
        <time>2018-05-26T13:09:40Z</time>
      </trkpt>
      <trkpt lat="47.82285" lon="6.77357">
        <ele>944.450012</ele>
        <time>2018-05-26T13:09:41Z</time>
      </trkpt>
      <trkpt lat="47.82288" lon="6.77351">
        <ele>944.487244</ele>
        <time>2018-05-26T13:09:42Z</time>
      </trkpt>
      <trkpt lat="47.82291" lon="6.77344">
        <ele>944.558777</ele>
        <time>2018-05-26T13:09:43Z</time>
      </trkpt>
      <trkpt lat="47.82293" lon="6.77339">
        <ele>944.610107</ele>
        <time>2018-05-26T13:09:44Z</time>
      </trkpt>
      <trkpt lat="47.82295" lon="6.77333">
        <ele>944.667786</ele>
        <time>2018-05-26T13:09:45Z</time>
      </trkpt>
      <trkpt lat="47.82297" lon="6.77327">
        <ele>944.780762</ele>
        <time>2018-05-26T13:09:46Z</time>
      </trkpt>
      <trkpt lat="47.82299" lon="6.77321">
        <ele>944.875488</ele>
        <time>2018-05-26T13:09:47Z</time>
      </trkpt>
      <trkpt lat="47.82301" lon="6.77316">
        <ele>944.980713</ele>
        <time>2018-05-26T13:09:48Z</time>
      </trkpt>
      <trkpt lat="47.82304" lon="6.7731">
        <ele>945.148438</ele>
        <time>2018-05-26T13:09:49Z</time>
      </trkpt>
      <trkpt lat="47.82306" lon="6.77305">
        <ele>945.259827</ele>
        <time>2018-05-26T13:09:50Z</time>
      </trkpt>
      <trkpt lat="47.82307" lon="6.77299">
        <ele>945.364441</ele>
        <time>2018-05-26T13:09:51Z</time>
      </trkpt>
      <trkpt lat="47.82309" lon="6.77293">
        <ele>945.50592</ele>
        <time>2018-05-26T13:09:52Z</time>
      </trkpt>
      <trkpt lat="47.8231" lon="6.77286">
        <ele>945.594177</ele>
        <time>2018-05-26T13:09:53Z</time>
      </trkpt>
      <trkpt lat="47.82311" lon="6.7728">
        <ele>945.668274</ele>
        <time>2018-05-26T13:09:54Z</time>
      </trkpt>
      <trkpt lat="47.82313" lon="6.77275">
        <ele>945.747253</ele>
        <time>2018-05-26T13:09:55Z</time>
      </trkpt>
      <trkpt lat="47.82315" lon="6.7727">
        <ele>945.787842</ele>
        <time>2018-05-26T13:09:56Z</time>
      </trkpt>
      <trkpt lat="47.82318" lon="6.77266">
        <ele>945.832581</ele>
        <time>2018-05-26T13:09:57Z</time>
      </trkpt>
      <trkpt lat="47.82321" lon="6.77261">
        <ele>945.898682</ele>
        <time>2018-05-26T13:09:58Z</time>
      </trkpt>
      <trkpt lat="47.82325" lon="6.77256">
        <ele>945.93866</ele>
        <time>2018-05-26T13:09:59Z</time>
      </trkpt>
      <trkpt lat="47.82328" lon="6.77253">
        <ele>945.98407</ele>
        <time>2018-05-26T13:10:00Z</time>
      </trkpt>
      <trkpt lat="47.82331" lon="6.77251">
        <ele>946.092224</ele>
        <time>2018-05-26T13:10:01Z</time>
      </trkpt>
      <trkpt lat="47.82334" lon="6.77249">
        <ele>946.141663</ele>
        <time>2018-05-26T13:10:02Z</time>
      </trkpt>
      <trkpt lat="47.82337" lon="6.77246">
        <ele>946.31134</ele>
        <time>2018-05-26T13:10:03Z</time>
      </trkpt>
      <trkpt lat="47.8234" lon="6.77244">
        <ele>946.433105</ele>
        <time>2018-05-26T13:10:04Z</time>
      </trkpt>
      <trkpt lat="47.82342" lon="6.77242">
        <ele>946.560303</ele>
        <time>2018-05-26T13:10:05Z</time>
      </trkpt>
      <trkpt lat="47.82344" lon="6.7724">
        <ele>946.763123</ele>
        <time>2018-05-26T13:10:06Z</time>
      </trkpt>
      <trkpt lat="47.82346" lon="6.77237">
        <ele>946.905823</ele>
        <time>2018-05-26T13:10:07Z</time>
      </trkpt>
      <trkpt lat="47.82348" lon="6.77234">
        <ele>947.055725</ele>
        <time>2018-05-26T13:10:08Z</time>
      </trkpt>
      <trkpt lat="47.8235" lon="6.77231">
        <ele>947.292297</ele>
        <time>2018-05-26T13:10:09Z</time>
      </trkpt>
      <trkpt lat="47.82352" lon="6.77229">
        <ele>947.463379</ele>
        <time>2018-05-26T13:10:10Z</time>
      </trkpt>
      <trkpt lat="47.82354" lon="6.77226">
        <ele>947.641907</ele>
        <time>2018-05-26T13:10:11Z</time>
      </trkpt>
      <trkpt lat="47.82356" lon="6.77223">
        <ele>947.922607</ele>
        <time>2018-05-26T13:10:12Z</time>
      </trkpt>
      <trkpt lat="47.82359" lon="6.7722">
        <ele>948.115662</ele>
        <time>2018-05-26T13:10:13Z</time>
      </trkpt>
      <trkpt lat="47.82361" lon="6.77218">
        <ele>948.308167</ele>
        <time>2018-05-26T13:10:14Z</time>
      </trkpt>
      <trkpt lat="47.82362" lon="6.77215">
        <ele>948.567932</ele>
        <time>2018-05-26T13:10:15Z</time>
      </trkpt>
      <trkpt lat="47.82364" lon="6.77212">
        <ele>948.722656</ele>
        <time>2018-05-26T13:10:16Z</time>
      </trkpt>
      <trkpt lat="47.82366" lon="6.77209">
        <ele>948.87262</ele>
        <time>2018-05-26T13:10:17Z</time>
      </trkpt>
      <trkpt lat="47.82368" lon="6.77206">
        <ele>949.030334</ele>
        <time>2018-05-26T13:10:18Z</time>
      </trkpt>
      <trkpt lat="47.82369" lon="6.77204">
        <ele>949.26593</ele>
        <time>2018-05-26T13:10:19Z</time>
      </trkpt>
      <trkpt lat="47.82371" lon="6.77201">
        <ele>949.41571</ele>
        <time>2018-05-26T13:10:20Z</time>
      </trkpt>
      <trkpt lat="47.82373" lon="6.77199">
        <ele>949.559631</ele>
        <time>2018-05-26T13:10:21Z</time>
      </trkpt>
      <trkpt lat="47.82374" lon="6.77197">
        <ele>949.785828</ele>
        <time>2018-05-26T13:10:22Z</time>
      </trkpt>
      <trkpt lat="47.82376" lon="6.77194">
        <ele>949.946289</ele>
        <time>2018-05-26T13:10:23Z</time>
      </trkpt>
      <trkpt lat="47.82378" lon="6.77192">
        <ele>950.113953</ele>
        <time>2018-05-26T13:10:24Z</time>
      </trkpt>
      <trkpt lat="47.82379" lon="6.77189">
        <ele>950.28717</ele>
        <time>2018-05-26T13:10:25Z</time>
      </trkpt>
      <trkpt lat="47.8238" lon="6.77187">
        <ele>950.564758</ele>
        <time>2018-05-26T13:10:26Z</time>
      </trkpt>
      <trkpt lat="47.82381" lon="6.77185">
        <ele>950.758728</ele>
        <time>2018-05-26T13:10:27Z</time>
      </trkpt>
      <trkpt lat="47.82382" lon="6.77183">
        <ele>950.952454</ele>
        <time>2018-05-26T13:10:28Z</time>
      </trkpt>
      <trkpt lat="47.82383" lon="6.7718">
        <ele>951.224854</ele>
        <time>2018-05-26T13:10:29Z</time>
      </trkpt>
      <trkpt lat="47.82385" lon="6.77177">
        <ele>951.391907</ele>
        <time>2018-05-26T13:10:30Z</time>
      </trkpt>
      <trkpt lat="47.82385" lon="6.77174">
        <ele>951.553467</ele>
        <time>2018-05-26T13:10:31Z</time>
      </trkpt>
      <trkpt lat="47.82386" lon="6.77171">
        <ele>951.79425</ele>
        <time>2018-05-26T13:10:32Z</time>
      </trkpt>
      <trkpt lat="47.82387" lon="6.77168">
        <ele>951.947205</ele>
        <time>2018-05-26T13:10:33Z</time>
      </trkpt>
      <trkpt lat="47.82388" lon="6.77165">
        <ele>952.088928</ele>
        <time>2018-05-26T13:10:34Z</time>
      </trkpt>
      <trkpt lat="47.82389" lon="6.77163">
        <ele>952.225891</ele>
        <time>2018-05-26T13:10:35Z</time>
      </trkpt>
      <trkpt lat="47.8239" lon="6.77159">
        <ele>952.429749</ele>
        <time>2018-05-26T13:10:36Z</time>
      </trkpt>
      <trkpt lat="47.8239" lon="6.77155">
        <ele>952.554199</ele>
        <time>2018-05-26T13:10:37Z</time>
      </trkpt>
      <trkpt lat="47.8239" lon="6.77149">
        <ele>952.652344</ele>
        <time>2018-05-26T13:10:38Z</time>
      </trkpt>
      <trkpt lat="47.8239" lon="6.77144">
        <ele>952.713806</ele>
        <time>2018-05-26T13:10:39Z</time>
      </trkpt>
      <trkpt lat="47.82388" lon="6.77137">
        <ele>952.726501</ele>
        <time>2018-05-26T13:10:40Z</time>
      </trkpt>
      <trkpt lat="47.82386" lon="6.77131">
        <ele>952.711182</ele>
        <time>2018-05-26T13:10:41Z</time>
      </trkpt>
      <trkpt lat="47.82384" lon="6.77124">
        <ele>952.628662</ele>
        <time>2018-05-26T13:10:42Z</time>
      </trkpt>
      <trkpt lat="47.82381" lon="6.77118">
        <ele>952.473938</ele>
        <time>2018-05-26T13:10:43Z</time>
      </trkpt>
      <trkpt lat="47.82379" lon="6.77112">
        <ele>952.130371</ele>
        <time>2018-05-26T13:10:44Z</time>
      </trkpt>
      <trkpt lat="47.82376" lon="6.77106">
        <ele>951.855774</ele>
        <time>2018-05-26T13:10:45Z</time>
      </trkpt>
      <trkpt lat="47.82373" lon="6.77101">
        <ele>951.564514</ele>
        <time>2018-05-26T13:10:46Z</time>
      </trkpt>
      <trkpt lat="47.82372" lon="6.77096">
        <ele>951.281311</ele>
        <time>2018-05-26T13:10:47Z</time>
      </trkpt>
      <trkpt lat="47.8237" lon="6.77091">
        <ele>950.911133</ele>
        <time>2018-05-26T13:10:48Z</time>
      </trkpt>
      <trkpt lat="47.82369" lon="6.77087">
        <ele>950.728577</ele>
        <time>2018-05-26T13:10:49Z</time>
      </trkpt>
      <trkpt lat="47.82368" lon="6.77082">
        <ele>950.600037</ele>
        <time>2018-05-26T13:10:50Z</time>
      </trkpt>
      <trkpt lat="47.82366" lon="6.77078">
        <ele>950.485107</ele>
        <time>2018-05-26T13:10:51Z</time>
      </trkpt>
      <trkpt lat="47.82365" lon="6.77073">
        <ele>950.454895</ele>
        <time>2018-05-26T13:10:52Z</time>
      </trkpt>
      <trkpt lat="47.82364" lon="6.77068">
        <ele>950.454834</ele>
        <time>2018-05-26T13:10:53Z</time>
      </trkpt>
      <trkpt lat="47.82362" lon="6.77064">
        <ele>950.463318</ele>
        <time>2018-05-26T13:10:54Z</time>
      </trkpt>
      <trkpt lat="47.82362" lon="6.77059">
        <ele>950.53125</ele>
        <time>2018-05-26T13:10:55Z</time>
      </trkpt>
      <trkpt lat="47.82361" lon="6.77055">
        <ele>950.602722</ele>
        <time>2018-05-26T13:10:56Z</time>
      </trkpt>
      <trkpt lat="47.82359" lon="6.77051">
        <ele>950.700012</ele>
        <time>2018-05-26T13:10:57Z</time>
      </trkpt>
      <trkpt lat="47.82357" lon="6.77047">
        <ele>950.894104</ele>
        <time>2018-05-26T13:10:58Z</time>
      </trkpt>
      <trkpt lat="47.82356" lon="6.77043">
        <ele>951.038513</ele>
        <time>2018-05-26T13:10:59Z</time>
      </trkpt>
      <trkpt lat="47.82354" lon="6.7704">
        <ele>951.183533</ele>
        <time>2018-05-26T13:11:00Z</time>
      </trkpt>
      <trkpt lat="47.82353" lon="6.77037">
        <ele>951.399963</ele>
        <time>2018-05-26T13:11:01Z</time>
      </trkpt>
      <trkpt lat="47.82352" lon="6.77035">
        <ele>951.472656</ele>
        <time>2018-05-26T13:11:02Z</time>
      </trkpt>
      <trkpt lat="47.82351" lon="6.77032">
        <ele>951.545105</ele>
        <time>2018-05-26T13:11:03Z</time>
      </trkpt>
      <trkpt lat="47.82351" lon="6.77029">
        <ele>951.689758</ele>
        <time>2018-05-26T13:11:04Z</time>
      </trkpt>
      <trkpt lat="47.8235" lon="6.77027">
        <ele>951.840332</ele>
        <time>2018-05-26T13:11:05Z</time>
      </trkpt>
      <trkpt lat="47.82349" lon="6.77023">
        <ele>952.086487</ele>
        <time>2018-05-26T13:11:06Z</time>
      </trkpt>
      <trkpt lat="47.82348" lon="6.7702">
        <ele>952.273743</ele>
        <time>2018-05-26T13:11:07Z</time>
      </trkpt>
      <trkpt lat="47.82346" lon="6.77017">
        <ele>952.476135</ele>
        <time>2018-05-26T13:11:08Z</time>
      </trkpt>
      <trkpt lat="47.82345" lon="6.77013">
        <ele>952.68634</ele>
        <time>2018-05-26T13:11:09Z</time>
      </trkpt>
      <trkpt lat="47.82344" lon="6.7701">
        <ele>953.006653</ele>
        <time>2018-05-26T13:11:10Z</time>
      </trkpt>
      <trkpt lat="47.82343" lon="6.77006">
        <ele>953.214905</ele>
        <time>2018-05-26T13:11:11Z</time>
      </trkpt>
      <trkpt lat="47.82342" lon="6.77003">
        <ele>953.409607</ele>
        <time>2018-05-26T13:11:12Z</time>
      </trkpt>
      <trkpt lat="47.82341" lon="6.77">
        <ele>953.654846</ele>
        <time>2018-05-26T13:11:13Z</time>
      </trkpt>
      <trkpt lat="47.82341" lon="6.76996">
        <ele>953.787842</ele>
        <time>2018-05-26T13:11:14Z</time>
      </trkpt>
      <trkpt lat="47.8234" lon="6.76992">
        <ele>953.903564</ele>
        <time>2018-05-26T13:11:15Z</time>
      </trkpt>
      <trkpt lat="47.82338" lon="6.76987">
        <ele>954.06134</ele>
        <time>2018-05-26T13:11:16Z</time>
      </trkpt>
      <trkpt lat="47.82337" lon="6.76984">
        <ele>954.161133</ele>
        <time>2018-05-26T13:11:17Z</time>
      </trkpt>
      <trkpt lat="47.82336" lon="6.7698">
        <ele>954.259277</ele>
        <time>2018-05-26T13:11:18Z</time>
      </trkpt>
      <trkpt lat="47.82334" lon="6.76977">
        <ele>954.359558</ele>
        <time>2018-05-26T13:11:19Z</time>
      </trkpt>
      <trkpt lat="47.82332" lon="6.76973">
        <ele>954.516846</ele>
        <time>2018-05-26T13:11:20Z</time>
      </trkpt>
      <trkpt lat="47.8233" lon="6.7697">
        <ele>954.621643</ele>
        <time>2018-05-26T13:11:21Z</time>
      </trkpt>
      <trkpt lat="47.82328" lon="6.76967">
        <ele>954.720947</ele>
        <time>2018-05-26T13:11:22Z</time>
      </trkpt>
      <trkpt lat="47.82326" lon="6.76964">
        <ele>954.858826</ele>
        <time>2018-05-26T13:11:23Z</time>
      </trkpt>
      <trkpt lat="47.82323" lon="6.76961">
        <ele>954.938171</ele>
        <time>2018-05-26T13:11:24Z</time>
      </trkpt>
      <trkpt lat="47.82321" lon="6.76958">
        <ele>955.008728</ele>
        <time>2018-05-26T13:11:25Z</time>
      </trkpt>
      <trkpt lat="47.82319" lon="6.76955">
        <ele>955.09967</ele>
        <time>2018-05-26T13:11:26Z</time>
      </trkpt>
      <trkpt lat="47.82317" lon="6.76953">
        <ele>955.152771</ele>
        <time>2018-05-26T13:11:27Z</time>
      </trkpt>
      <trkpt lat="47.82315" lon="6.7695">
        <ele>955.197327</ele>
        <time>2018-05-26T13:11:28Z</time>
      </trkpt>
      <trkpt lat="47.82312" lon="6.76948">
        <ele>955.270691</ele>
        <time>2018-05-26T13:11:29Z</time>
      </trkpt>
      <trkpt lat="47.8231" lon="6.76945">
        <ele>955.326599</ele>
        <time>2018-05-26T13:11:30Z</time>
      </trkpt>
      <trkpt lat="47.82308" lon="6.76942">
        <ele>955.38678</ele>
        <time>2018-05-26T13:11:31Z</time>
      </trkpt>
      <trkpt lat="47.82306" lon="6.76938">
        <ele>955.472351</ele>
        <time>2018-05-26T13:11:32Z</time>
      </trkpt>
      <trkpt lat="47.82304" lon="6.76935">
        <ele>955.530823</ele>
        <time>2018-05-26T13:11:33Z</time>
      </trkpt>
      <trkpt lat="47.82303" lon="6.76932">
        <ele>955.587646</ele>
        <time>2018-05-26T13:11:34Z</time>
      </trkpt>
      <trkpt lat="47.82301" lon="6.76929">
        <ele>955.673645</ele>
        <time>2018-05-26T13:11:35Z</time>
      </trkpt>
      <trkpt lat="47.82299" lon="6.76925">
        <ele>955.727356</ele>
        <time>2018-05-26T13:11:36Z</time>
      </trkpt>
      <trkpt lat="47.82298" lon="6.76921">
        <ele>955.777771</ele>
        <time>2018-05-26T13:11:37Z</time>
      </trkpt>
      <trkpt lat="47.82296" lon="6.76917">
        <ele>955.821106</ele>
        <time>2018-05-26T13:11:38Z</time>
      </trkpt>
      <trkpt lat="47.82294" lon="6.76913">
        <ele>955.859436</ele>
        <time>2018-05-26T13:11:39Z</time>
      </trkpt>
      <trkpt lat="47.82293" lon="6.76908">
        <ele>955.860168</ele>
        <time>2018-05-26T13:11:40Z</time>
      </trkpt>
      <trkpt lat="47.82291" lon="6.76902">
        <ele>955.854248</ele>
        <time>2018-05-26T13:11:41Z</time>
      </trkpt>
      <trkpt lat="47.82288" lon="6.76895">
        <ele>955.822266</ele>
        <time>2018-05-26T13:11:42Z</time>
      </trkpt>
      <trkpt lat="47.82286" lon="6.76888">
        <ele>955.759277</ele>
        <time>2018-05-26T13:11:43Z</time>
      </trkpt>
      <trkpt lat="47.82283" lon="6.7688">
        <ele>955.588074</ele>
        <time>2018-05-26T13:11:44Z</time>
      </trkpt>
      <trkpt lat="47.8228" lon="6.76872">
        <ele>955.418457</ele>
        <time>2018-05-26T13:11:45Z</time>
      </trkpt>
      <trkpt lat="47.82277" lon="6.76863">
        <ele>955.205627</ele>
        <time>2018-05-26T13:11:46Z</time>
      </trkpt>
      <trkpt lat="47.82274" lon="6.76855">
        <ele>954.797363</ele>
        <time>2018-05-26T13:11:47Z</time>
      </trkpt>
      <trkpt lat="47.82271" lon="6.76847">
        <ele>954.461426</ele>
        <time>2018-05-26T13:11:48Z</time>
      </trkpt>
      <trkpt lat="47.82267" lon="6.7684">
        <ele>954.085693</ele>
        <time>2018-05-26T13:11:49Z</time>
      </trkpt>
      <trkpt lat="47.82264" lon="6.76832">
        <ele>953.454102</ele>
        <time>2018-05-26T13:11:50Z</time>
      </trkpt>
      <trkpt lat="47.8226" lon="6.76825">
        <ele>953.010254</ele>
        <time>2018-05-26T13:11:51Z</time>
      </trkpt>
      <trkpt lat="47.82256" lon="6.76818">
        <ele>952.577637</ele>
        <time>2018-05-26T13:11:52Z</time>
      </trkpt>
      <trkpt lat="47.82252" lon="6.76811">
        <ele>951.976074</ele>
        <time>2018-05-26T13:11:53Z</time>
      </trkpt>
      <trkpt lat="47.82248" lon="6.76805">
        <ele>951.60498</ele>
        <time>2018-05-26T13:11:54Z</time>
      </trkpt>
      <trkpt lat="47.82245" lon="6.76797">
        <ele>951.257263</ele>
        <time>2018-05-26T13:11:55Z</time>
      </trkpt>
      <trkpt lat="47.82241" lon="6.7679">
        <ele>950.791199</ele>
        <time>2018-05-26T13:11:56Z</time>
      </trkpt>
      <trkpt lat="47.82238" lon="6.76783">
        <ele>950.523499</ele>
        <time>2018-05-26T13:11:57Z</time>
      </trkpt>
      <trkpt lat="47.82235" lon="6.76776">
        <ele>950.290833</ele>
        <time>2018-05-26T13:11:58Z</time>
      </trkpt>
      <trkpt lat="47.82232" lon="6.76768">
        <ele>950.082581</ele>
        <time>2018-05-26T13:11:59Z</time>
      </trkpt>
      <trkpt lat="47.82229" lon="6.76759">
        <ele>949.791321</ele>
        <time>2018-05-26T13:12:00Z</time>
      </trkpt>
      <trkpt lat="47.82227" lon="6.76751">
        <ele>949.604187</ele>
        <time>2018-05-26T13:12:01Z</time>
      </trkpt>
      <trkpt lat="47.82225" lon="6.76742">
        <ele>949.42157</ele>
        <time>2018-05-26T13:12:02Z</time>
      </trkpt>
      <trkpt lat="47.82222" lon="6.76733">
        <ele>949.330139</ele>
        <time>2018-05-26T13:12:03Z</time>
      </trkpt>
      <trkpt lat="47.8222" lon="6.76723">
        <ele>949.23175</ele>
        <time>2018-05-26T13:12:04Z</time>
      </trkpt>
      <trkpt lat="47.82217" lon="6.76712">
        <ele>949.020996</ele>
        <time>2018-05-26T13:12:05Z</time>
      </trkpt>
      <trkpt lat="47.82215" lon="6.76701">
        <ele>948.62384</ele>
        <time>2018-05-26T13:12:06Z</time>
      </trkpt>
      <trkpt lat="47.82212" lon="6.7669">
        <ele>948.270813</ele>
        <time>2018-05-26T13:12:07Z</time>
      </trkpt>
      <trkpt lat="47.82209" lon="6.7668">
        <ele>947.844666</ele>
        <time>2018-05-26T13:12:08Z</time>
      </trkpt>
      <trkpt lat="47.82206" lon="6.76669">
        <ele>947.090515</ele>
        <time>2018-05-26T13:12:09Z</time>
      </trkpt>
      <trkpt lat="47.82204" lon="6.76657">
        <ele>946.535645</ele>
        <time>2018-05-26T13:12:10Z</time>
      </trkpt>
      <trkpt lat="47.82201" lon="6.76645">
        <ele>945.923828</ele>
        <time>2018-05-26T13:12:11Z</time>
      </trkpt>
      <trkpt lat="47.82199" lon="6.76633">
        <ele>944.872498</ele>
        <time>2018-05-26T13:12:12Z</time>
      </trkpt>
      <trkpt lat="47.82196" lon="6.7662">
        <ele>944.079285</ele>
        <time>2018-05-26T13:12:13Z</time>
      </trkpt>
      <trkpt lat="47.82194" lon="6.76608">
        <ele>943.260986</ele>
        <time>2018-05-26T13:12:14Z</time>
      </trkpt>
      <trkpt lat="47.82191" lon="6.76595">
        <ele>942.080078</ele>
        <time>2018-05-26T13:12:15Z</time>
      </trkpt>
      <trkpt lat="47.82188" lon="6.76582">
        <ele>941.35614</ele>
        <time>2018-05-26T13:12:16Z</time>
      </trkpt>
      <trkpt lat="47.82185" lon="6.76569">
        <ele>940.693054</ele>
        <time>2018-05-26T13:12:17Z</time>
      </trkpt>
      <trkpt lat="47.82182" lon="6.76556">
        <ele>939.764343</ele>
        <time>2018-05-26T13:12:18Z</time>
      </trkpt>
      <trkpt lat="47.82179" lon="6.76543">
        <ele>939.177795</ele>
        <time>2018-05-26T13:12:19Z</time>
      </trkpt>
      <trkpt lat="47.82176" lon="6.76531">
        <ele>938.605713</ele>
        <time>2018-05-26T13:12:20Z</time>
      </trkpt>
      <trkpt lat="47.82172" lon="6.76521">
        <ele>937.755676</ele>
        <time>2018-05-26T13:12:21Z</time>
      </trkpt>
      <trkpt lat="47.82167" lon="6.76513">
        <ele>937.194336</ele>
        <time>2018-05-26T13:12:22Z</time>
      </trkpt>
      <trkpt lat="47.82164" lon="6.76507">
        <ele>936.640381</ele>
        <time>2018-05-26T13:12:23Z</time>
      </trkpt>
      <trkpt lat="47.82159" lon="6.76503">
        <ele>935.830994</ele>
        <time>2018-05-26T13:12:24Z</time>
      </trkpt>
      <trkpt lat="47.82153" lon="6.765">
        <ele>935.339111</ele>
        <time>2018-05-26T13:12:25Z</time>
      </trkpt>
      <trkpt lat="47.82147" lon="6.76499">
        <ele>934.90741</ele>
        <time>2018-05-26T13:12:26Z</time>
      </trkpt>
      <trkpt lat="47.82142" lon="6.76502">
        <ele>934.348938</ele>
        <time>2018-05-26T13:12:27Z</time>
      </trkpt>
      <trkpt lat="47.82137" lon="6.76505">
        <ele>934.013977</ele>
        <time>2018-05-26T13:12:28Z</time>
      </trkpt>
      <trkpt lat="47.82132" lon="6.7651">
        <ele>933.685242</ele>
        <time>2018-05-26T13:12:29Z</time>
      </trkpt>
      <trkpt lat="47.82127" lon="6.76515">
        <ele>933.216736</ele>
        <time>2018-05-26T13:12:30Z</time>
      </trkpt>
      <trkpt lat="47.82121" lon="6.76519">
        <ele>932.914795</ele>
        <time>2018-05-26T13:12:31Z</time>
      </trkpt>
      <trkpt lat="47.82116" lon="6.76523">
        <ele>932.625305</ele>
        <time>2018-05-26T13:12:32Z</time>
      </trkpt>
      <trkpt lat="47.8211" lon="6.76527">
        <ele>932.228943</ele>
        <time>2018-05-26T13:12:33Z</time>
      </trkpt>
      <trkpt lat="47.82105" lon="6.76532">
        <ele>932.003113</ele>
        <time>2018-05-26T13:12:34Z</time>
      </trkpt>
      <trkpt lat="47.821" lon="6.76536">
        <ele>931.809265</ele>
        <time>2018-05-26T13:12:35Z</time>
      </trkpt>
      <trkpt lat="47.82095" lon="6.7654">
        <ele>931.580994</ele>
        <time>2018-05-26T13:12:36Z</time>
      </trkpt>
      <trkpt lat="47.82089" lon="6.76544">
        <ele>931.458923</ele>
        <time>2018-05-26T13:12:37Z</time>
      </trkpt>
      <trkpt lat="47.82084" lon="6.76548">
        <ele>931.3526</ele>
        <time>2018-05-26T13:12:38Z</time>
      </trkpt>
      <trkpt lat="47.82079" lon="6.76552">
        <ele>931.225037</ele>
        <time>2018-05-26T13:12:39Z</time>
      </trkpt>
      <trkpt lat="47.82075" lon="6.76556">
        <ele>931.167725</ele>
        <time>2018-05-26T13:12:40Z</time>
      </trkpt>
      <trkpt lat="47.8207" lon="6.7656">
        <ele>931.134216</ele>
        <time>2018-05-26T13:12:41Z</time>
      </trkpt>
      <trkpt lat="47.82065" lon="6.76564">
        <ele>931.120056</ele>
        <time>2018-05-26T13:12:42Z</time>
      </trkpt>
      <trkpt lat="47.8206" lon="6.76568">
        <ele>931.120422</ele>
        <time>2018-05-26T13:12:43Z</time>
      </trkpt>
      <trkpt lat="47.82055" lon="6.76571">
        <ele>931.13092</ele>
        <time>2018-05-26T13:12:44Z</time>
      </trkpt>
      <trkpt lat="47.8205" lon="6.76574">
        <ele>931.1521</ele>
        <time>2018-05-26T13:12:45Z</time>
      </trkpt>
      <trkpt lat="47.82045" lon="6.76577">
        <ele>931.159973</ele>
        <time>2018-05-26T13:12:46Z</time>
      </trkpt>
      <trkpt lat="47.82041" lon="6.7658">
        <ele>931.165466</ele>
        <time>2018-05-26T13:12:47Z</time>
      </trkpt>
      <trkpt lat="47.82037" lon="6.76582">
        <ele>931.18866</ele>
        <time>2018-05-26T13:12:48Z</time>
      </trkpt>
      <trkpt lat="47.82033" lon="6.76584">
        <ele>931.235535</ele>
        <time>2018-05-26T13:12:49Z</time>
      </trkpt>
      <trkpt lat="47.82029" lon="6.76585">
        <ele>931.320496</ele>
        <time>2018-05-26T13:12:50Z</time>
      </trkpt>
      <trkpt lat="47.82026" lon="6.76587">
        <ele>931.54364</ele>
        <time>2018-05-26T13:12:51Z</time>
      </trkpt>
      <trkpt lat="47.82022" lon="6.76588">
        <ele>931.751953</ele>
        <time>2018-05-26T13:12:52Z</time>
      </trkpt>
      <trkpt lat="47.82019" lon="6.7659">
        <ele>931.997742</ele>
        <time>2018-05-26T13:12:53Z</time>
      </trkpt>
      <trkpt lat="47.82016" lon="6.76591">
        <ele>932.40741</ele>
        <time>2018-05-26T13:12:54Z</time>
      </trkpt>
      <trkpt lat="47.82012" lon="6.76592">
        <ele>932.692871</ele>
        <time>2018-05-26T13:12:55Z</time>
      </trkpt>
      <trkpt lat="47.82009" lon="6.76593">
        <ele>933.118164</ele>
        <time>2018-05-26T13:12:56Z</time>
      </trkpt>
      <trkpt lat="47.82006" lon="6.76594">
        <ele>933.389832</ele>
        <time>2018-05-26T13:12:57Z</time>
      </trkpt>
      <trkpt lat="47.82003" lon="6.76595">
        <ele>933.645813</ele>
        <time>2018-05-26T13:12:58Z</time>
      </trkpt>
      <trkpt lat="47.82" lon="6.76596">
        <ele>933.9953</ele>
        <time>2018-05-26T13:12:59Z</time>
      </trkpt>
      <trkpt lat="47.81998" lon="6.76598">
        <ele>934.204651</ele>
        <time>2018-05-26T13:13:00Z</time>
      </trkpt>
      <trkpt lat="47.81996" lon="6.76599">
        <ele>934.394958</ele>
        <time>2018-05-26T13:13:01Z</time>
      </trkpt>
      <trkpt lat="47.81994" lon="6.766">
        <ele>934.653137</ele>
        <time>2018-05-26T13:13:02Z</time>
      </trkpt>
      <trkpt lat="47.81991" lon="6.76601">
        <ele>934.732483</ele>
        <time>2018-05-26T13:13:03Z</time>
      </trkpt>
      <trkpt lat="47.81989" lon="6.76602">
        <ele>934.81012</ele>
        <time>2018-05-26T13:13:04Z</time>
      </trkpt>
      <trkpt lat="47.81986" lon="6.76604">
        <ele>935.04834</ele>
        <time>2018-05-26T13:13:05Z</time>
      </trkpt>
      <trkpt lat="47.81984" lon="6.76605">
        <ele>935.223633</ele>
        <time>2018-05-26T13:13:06Z</time>
      </trkpt>
      <trkpt lat="47.81982" lon="6.76607">
        <ele>935.411438</ele>
        <time>2018-05-26T13:13:07Z</time>
      </trkpt>
      <trkpt lat="47.8198" lon="6.76609">
        <ele>935.706543</ele>
        <time>2018-05-26T13:13:08Z</time>
      </trkpt>
      <trkpt lat="47.81978" lon="6.76611">
        <ele>935.909424</ele>
        <time>2018-05-26T13:13:09Z</time>
      </trkpt>
      <trkpt lat="47.81976" lon="6.76612">
        <ele>936.114563</ele>
        <time>2018-05-26T13:13:10Z</time>
      </trkpt>
      <trkpt lat="47.81974" lon="6.76613">
        <ele>936.416504</ele>
        <time>2018-05-26T13:13:11Z</time>
      </trkpt>
      <trkpt lat="47.81971" lon="6.76615">
        <ele>936.607727</ele>
        <time>2018-05-26T13:13:12Z</time>
      </trkpt>
      <trkpt lat="47.81969" lon="6.76617">
        <ele>936.789124</ele>
        <time>2018-05-26T13:13:13Z</time>
      </trkpt>
      <trkpt lat="47.81966" lon="6.76619">
        <ele>937.056702</ele>
        <time>2018-05-26T13:13:14Z</time>
      </trkpt>
      <trkpt lat="47.81965" lon="6.7662">
        <ele>937.230408</ele>
        <time>2018-05-26T13:13:15Z</time>
      </trkpt>
      <trkpt lat="47.81962" lon="6.76622">
        <ele>937.39801</ele>
        <time>2018-05-26T13:13:16Z</time>
      </trkpt>
      <trkpt lat="47.8196" lon="6.76624">
        <ele>937.62915</ele>
        <time>2018-05-26T13:13:17Z</time>
      </trkpt>
      <trkpt lat="47.81958" lon="6.76625">
        <ele>937.773376</ele>
        <time>2018-05-26T13:13:18Z</time>
      </trkpt>
      <trkpt lat="47.81955" lon="6.76626">
        <ele>937.907532</ele>
        <time>2018-05-26T13:13:19Z</time>
      </trkpt>
      <trkpt lat="47.81953" lon="6.76627">
        <ele>938.09491</ele>
        <time>2018-05-26T13:13:20Z</time>
      </trkpt>
      <trkpt lat="47.8195" lon="6.76629">
        <ele>938.210266</ele>
        <time>2018-05-26T13:13:21Z</time>
      </trkpt>
      <trkpt lat="47.81949" lon="6.7663">
        <ele>938.321045</ele>
        <time>2018-05-26T13:13:22Z</time>
      </trkpt>
      <trkpt lat="47.81946" lon="6.76631">
        <ele>938.480469</ele>
        <time>2018-05-26T13:13:23Z</time>
      </trkpt>
      <trkpt lat="47.81944" lon="6.76633">
        <ele>938.582581</ele>
        <time>2018-05-26T13:13:24Z</time>
      </trkpt>
      <trkpt lat="47.81942" lon="6.76634">
        <ele>938.679871</ele>
        <time>2018-05-26T13:13:25Z</time>
      </trkpt>
      <trkpt lat="47.81939" lon="6.76636">
        <ele>938.823303</ele>
        <time>2018-05-26T13:13:26Z</time>
      </trkpt>
      <trkpt lat="47.81937" lon="6.76637">
        <ele>938.925232</ele>
        <time>2018-05-26T13:13:27Z</time>
      </trkpt>
      <trkpt lat="47.81935" lon="6.76638">
        <ele>939.034729</ele>
        <time>2018-05-26T13:13:28Z</time>
      </trkpt>
      <trkpt lat="47.81932" lon="6.7664">
        <ele>939.214417</ele>
        <time>2018-05-26T13:13:29Z</time>
      </trkpt>
      <trkpt lat="47.81931" lon="6.76642">
        <ele>939.344543</ele>
        <time>2018-05-26T13:13:30Z</time>
      </trkpt>
      <trkpt lat="47.81929" lon="6.76643">
        <ele>939.474792</ele>
        <time>2018-05-26T13:13:31Z</time>
      </trkpt>
      <trkpt lat="47.81926" lon="6.76644">
        <ele>939.655273</ele>
        <time>2018-05-26T13:13:32Z</time>
      </trkpt>
      <trkpt lat="47.81924" lon="6.76646">
        <ele>939.76239</ele>
        <time>2018-05-26T13:13:33Z</time>
      </trkpt>
      <trkpt lat="47.81922" lon="6.76647">
        <ele>939.860657</ele>
        <time>2018-05-26T13:13:34Z</time>
      </trkpt>
      <trkpt lat="47.8192" lon="6.76648">
        <ele>940.007385</ele>
        <time>2018-05-26T13:13:35Z</time>
      </trkpt>
      <trkpt lat="47.81918" lon="6.76649">
        <ele>940.116211</ele>
        <time>2018-05-26T13:13:36Z</time>
      </trkpt>
      <trkpt lat="47.81916" lon="6.7665">
        <ele>940.233093</ele>
        <time>2018-05-26T13:13:37Z</time>
      </trkpt>
      <trkpt lat="47.81914" lon="6.76652">
        <ele>940.423401</ele>
        <time>2018-05-26T13:13:38Z</time>
      </trkpt>
      <trkpt lat="47.81911" lon="6.76654">
        <ele>940.56073</ele>
        <time>2018-05-26T13:13:39Z</time>
      </trkpt>
      <trkpt lat="47.81909" lon="6.76655">
        <ele>940.709534</ele>
        <time>2018-05-26T13:13:40Z</time>
      </trkpt>
      <trkpt lat="47.81907" lon="6.76656">
        <ele>940.950012</ele>
        <time>2018-05-26T13:13:41Z</time>
      </trkpt>
      <trkpt lat="47.81905" lon="6.76657">
        <ele>941.115906</ele>
        <time>2018-05-26T13:13:42Z</time>
      </trkpt>
      <trkpt lat="47.81904" lon="6.76659">
        <ele>941.289063</ele>
        <time>2018-05-26T13:13:43Z</time>
      </trkpt>
      <trkpt lat="47.81902" lon="6.76661">
        <ele>941.559814</ele>
        <time>2018-05-26T13:13:44Z</time>
      </trkpt>
      <trkpt lat="47.819" lon="6.76662">
        <ele>941.748108</ele>
        <time>2018-05-26T13:13:45Z</time>
      </trkpt>
      <trkpt lat="47.81898" lon="6.76663">
        <ele>941.934387</ele>
        <time>2018-05-26T13:13:46Z</time>
      </trkpt>
      <trkpt lat="47.81896" lon="6.76665">
        <ele>942.22345</ele>
        <time>2018-05-26T13:13:47Z</time>
      </trkpt>
      <trkpt lat="47.81894" lon="6.76667">
        <ele>942.4245</ele>
        <time>2018-05-26T13:13:48Z</time>
      </trkpt>
      <trkpt lat="47.81892" lon="6.76668">
        <ele>942.633484</ele>
        <time>2018-05-26T13:13:49Z</time>
      </trkpt>
      <trkpt lat="47.81891" lon="6.76669">
        <ele>942.944641</ele>
        <time>2018-05-26T13:13:50Z</time>
      </trkpt>
      <trkpt lat="47.81889" lon="6.7667">
        <ele>943.147156</ele>
        <time>2018-05-26T13:13:51Z</time>
      </trkpt>
      <trkpt lat="47.81887" lon="6.76672">
        <ele>943.34967</ele>
        <time>2018-05-26T13:13:52Z</time>
      </trkpt>
      <trkpt lat="47.81886" lon="6.76673">
        <ele>943.656494</ele>
        <time>2018-05-26T13:13:53Z</time>
      </trkpt>
      <trkpt lat="47.81884" lon="6.76675">
        <ele>943.856995</ele>
        <time>2018-05-26T13:13:54Z</time>
      </trkpt>
      <trkpt lat="47.81882" lon="6.76676">
        <ele>944.050537</ele>
        <time>2018-05-26T13:13:55Z</time>
      </trkpt>
      <trkpt lat="47.81881" lon="6.76678">
        <ele>944.330872</ele>
        <time>2018-05-26T13:13:56Z</time>
      </trkpt>
      <trkpt lat="47.81879" lon="6.76679">
        <ele>944.515808</ele>
        <time>2018-05-26T13:13:57Z</time>
      </trkpt>
      <trkpt lat="47.81877" lon="6.76681">
        <ele>944.701721</ele>
        <time>2018-05-26T13:13:58Z</time>
      </trkpt>
      <trkpt lat="47.81875" lon="6.76682">
        <ele>944.980164</ele>
        <time>2018-05-26T13:13:59Z</time>
      </trkpt>
      <trkpt lat="47.81873" lon="6.76684">
        <ele>945.166931</ele>
        <time>2018-05-26T13:14:00Z</time>
      </trkpt>
      <trkpt lat="47.81871" lon="6.76686">
        <ele>945.361145</ele>
        <time>2018-05-26T13:14:01Z</time>
      </trkpt>
      <trkpt lat="47.8187" lon="6.76688">
        <ele>945.670715</ele>
        <time>2018-05-26T13:14:02Z</time>
      </trkpt>
      <trkpt lat="47.81868" lon="6.7669">
        <ele>945.776306</ele>
        <time>2018-05-26T13:14:03Z</time>
      </trkpt>
      <trkpt lat="47.81867" lon="6.76693">
        <ele>945.881165</ele>
        <time>2018-05-26T13:14:04Z</time>
      </trkpt>
      <trkpt lat="47.81865" lon="6.76696">
        <ele>946.085999</ele>
        <time>2018-05-26T13:14:05Z</time>
      </trkpt>
      <trkpt lat="47.81863" lon="6.76699">
        <ele>946.379883</ele>
        <time>2018-05-26T13:14:06Z</time>
      </trkpt>
      <trkpt lat="47.81863" lon="6.76702">
        <ele>946.566895</ele>
        <time>2018-05-26T13:14:07Z</time>
      </trkpt>
      <trkpt lat="47.81862" lon="6.76704">
        <ele>946.741394</ele>
        <time>2018-05-26T13:14:08Z</time>
      </trkpt>
      <trkpt lat="47.81861" lon="6.76707">
        <ele>946.899902</ele>
        <time>2018-05-26T13:14:09Z</time>
      </trkpt>
      <trkpt lat="47.8186" lon="6.7671">
        <ele>947.045349</ele>
        <time>2018-05-26T13:14:10Z</time>
      </trkpt>
      <trkpt lat="47.8186" lon="6.76712">
        <ele>947.18457</ele>
        <time>2018-05-26T13:14:11Z</time>
      </trkpt>
      <trkpt lat="47.81859" lon="6.76715">
        <ele>947.385315</ele>
        <time>2018-05-26T13:14:12Z</time>
      </trkpt>
      <trkpt lat="47.81858" lon="6.76718">
        <ele>947.507568</ele>
        <time>2018-05-26T13:14:13Z</time>
      </trkpt>
      <trkpt lat="47.81857" lon="6.76722">
        <ele>947.614014</ele>
        <time>2018-05-26T13:14:14Z</time>
      </trkpt>
      <trkpt lat="47.81857" lon="6.76726">
        <ele>947.702881</ele>
        <time>2018-05-26T13:14:15Z</time>
      </trkpt>
      <trkpt lat="47.81856" lon="6.7673">
        <ele>947.781189</ele>
        <time>2018-05-26T13:14:16Z</time>
      </trkpt>
      <trkpt lat="47.81855" lon="6.76733">
        <ele>947.849365</ele>
        <time>2018-05-26T13:14:17Z</time>
      </trkpt>
      <trkpt lat="47.81855" lon="6.76737">
        <ele>947.911438</ele>
        <time>2018-05-26T13:14:18Z</time>
      </trkpt>
      <trkpt lat="47.81854" lon="6.7674">
        <ele>947.966797</ele>
        <time>2018-05-26T13:14:19Z</time>
      </trkpt>
      <trkpt lat="47.81853" lon="6.76744">
        <ele>948.01593</ele>
        <time>2018-05-26T13:14:20Z</time>
      </trkpt>
      <trkpt lat="47.81852" lon="6.76747">
        <ele>948.05304</ele>
        <time>2018-05-26T13:14:21Z</time>
      </trkpt>
      <trkpt lat="47.81852" lon="6.76751">
        <ele>948.073792</ele>
        <time>2018-05-26T13:14:22Z</time>
      </trkpt>
      <trkpt lat="47.8185" lon="6.76755">
        <ele>948.077576</ele>
        <time>2018-05-26T13:14:23Z</time>
      </trkpt>
      <trkpt lat="47.8185" lon="6.76759">
        <ele>948.077576</ele>
        <time>2018-05-26T13:14:24Z</time>
      </trkpt>
      <trkpt lat="47.81849" lon="6.76763">
        <ele>948.063049</ele>
        <time>2018-05-26T13:14:25Z</time>
      </trkpt>
      <trkpt lat="47.81847" lon="6.76768">
        <ele>948.027527</ele>
        <time>2018-05-26T13:14:26Z</time>
      </trkpt>
      <trkpt lat="47.81847" lon="6.76773">
        <ele>947.966614</ele>
        <time>2018-05-26T13:14:27Z</time>
      </trkpt>
      <trkpt lat="47.81846" lon="6.76778">
        <ele>947.882813</ele>
        <time>2018-05-26T13:14:28Z</time>
      </trkpt>
      <trkpt lat="47.81844" lon="6.76783">
        <ele>947.788391</ele>
        <time>2018-05-26T13:14:29Z</time>
      </trkpt>
      <trkpt lat="47.81843" lon="6.76788">
        <ele>947.696289</ele>
        <time>2018-05-26T13:14:30Z</time>
      </trkpt>
      <trkpt lat="47.81842" lon="6.76794">
        <ele>947.561279</ele>
        <time>2018-05-26T13:14:31Z</time>
      </trkpt>
      <trkpt lat="47.81842" lon="6.76801">
        <ele>947.463318</ele>
        <time>2018-05-26T13:14:32Z</time>
      </trkpt>
      <trkpt lat="47.81841" lon="6.76808">
        <ele>947.356384</ele>
        <time>2018-05-26T13:14:33Z</time>
      </trkpt>
      <trkpt lat="47.81841" lon="6.76816">
        <ele>947.247742</ele>
        <time>2018-05-26T13:14:34Z</time>
      </trkpt>
      <trkpt lat="47.81839" lon="6.76824">
        <ele>947.07196</ele>
        <time>2018-05-26T13:14:35Z</time>
      </trkpt>
      <trkpt lat="47.81838" lon="6.76832">
        <ele>946.92804</ele>
        <time>2018-05-26T13:14:36Z</time>
      </trkpt>
      <trkpt lat="47.81838" lon="6.76842">
        <ele>946.747742</ele>
        <time>2018-05-26T13:14:37Z</time>
      </trkpt>
      <trkpt lat="47.81838" lon="6.76851">
        <ele>946.529541</ele>
        <time>2018-05-26T13:14:38Z</time>
      </trkpt>
      <trkpt lat="47.81838" lon="6.76861">
        <ele>946.265869</ele>
        <time>2018-05-26T13:14:39Z</time>
      </trkpt>
      <trkpt lat="47.81839" lon="6.76871">
        <ele>945.951965</ele>
        <time>2018-05-26T13:14:40Z</time>
      </trkpt>
      <trkpt lat="47.8184" lon="6.76882">
        <ele>945.583984</ele>
        <time>2018-05-26T13:14:41Z</time>
      </trkpt>
      <trkpt lat="47.81841" lon="6.76894">
        <ele>945.160645</ele>
        <time>2018-05-26T13:14:42Z</time>
      </trkpt>
      <trkpt lat="47.81839" lon="6.76906">
        <ele>944.416748</ele>
        <time>2018-05-26T13:14:43Z</time>
      </trkpt>
      <trkpt lat="47.81838" lon="6.76918">
        <ele>943.828857</ele>
        <time>2018-05-26T13:14:44Z</time>
      </trkpt>
      <trkpt lat="47.81834" lon="6.76931">
        <ele>943.168762</ele>
        <time>2018-05-26T13:14:45Z</time>
      </trkpt>
      <trkpt lat="47.8183" lon="6.76943">
        <ele>942.449768</ele>
        <time>2018-05-26T13:14:46Z</time>
      </trkpt>
      <trkpt lat="47.81825" lon="6.76957">
        <ele>941.699402</ele>
        <time>2018-05-26T13:14:47Z</time>
      </trkpt>
      <trkpt lat="47.81823" lon="6.76972">
        <ele>940.925476</ele>
        <time>2018-05-26T13:14:48Z</time>
      </trkpt>
      <trkpt lat="47.81821" lon="6.76987">
        <ele>939.721252</ele>
        <time>2018-05-26T13:14:49Z</time>
      </trkpt>
      <trkpt lat="47.8182" lon="6.77002">
        <ele>938.879639</ele>
        <time>2018-05-26T13:14:50Z</time>
      </trkpt>
      <trkpt lat="47.8182" lon="6.77017">
        <ele>938.01709</ele>
        <time>2018-05-26T13:14:51Z</time>
      </trkpt>
      <trkpt lat="47.81819" lon="6.77032">
        <ele>937.143005</ele>
        <time>2018-05-26T13:14:52Z</time>
      </trkpt>
      <trkpt lat="47.81818" lon="6.77046">
        <ele>936.272644</ele>
        <time>2018-05-26T13:14:53Z</time>
      </trkpt>
      <trkpt lat="47.81817" lon="6.7706">
        <ele>935.409851</ele>
        <time>2018-05-26T13:14:54Z</time>
      </trkpt>
      <trkpt lat="47.81817" lon="6.77075">
        <ele>934.576355</ele>
        <time>2018-05-26T13:14:55Z</time>
      </trkpt>
      <trkpt lat="47.81816" lon="6.7709">
        <ele>933.799255</ele>
        <time>2018-05-26T13:14:56Z</time>
      </trkpt>
      <trkpt lat="47.81817" lon="6.77105">
        <ele>933.091797</ele>
        <time>2018-05-26T13:14:57Z</time>
      </trkpt>
      <trkpt lat="47.81816" lon="6.77118">
        <ele>932.462097</ele>
        <time>2018-05-26T13:14:58Z</time>
      </trkpt>
      <trkpt lat="47.81816" lon="6.77132">
        <ele>931.897461</ele>
        <time>2018-05-26T13:14:59Z</time>
      </trkpt>
      <trkpt lat="47.81815" lon="6.77146">
        <ele>931.380676</ele>
        <time>2018-05-26T13:15:00Z</time>
      </trkpt>
      <trkpt lat="47.81815" lon="6.77158">
        <ele>930.893982</ele>
        <time>2018-05-26T13:15:01Z</time>
      </trkpt>
      <trkpt lat="47.81814" lon="6.77171">
        <ele>930.437012</ele>
        <time>2018-05-26T13:15:02Z</time>
      </trkpt>
      <trkpt lat="47.81814" lon="6.77183">
        <ele>930.021301</ele>
        <time>2018-05-26T13:15:03Z</time>
      </trkpt>
      <trkpt lat="47.81814" lon="6.77194">
        <ele>929.837402</ele>
        <time>2018-05-26T13:15:04Z</time>
      </trkpt>
      <trkpt lat="47.81813" lon="6.77205">
        <ele>929.673096</ele>
        <time>2018-05-26T13:15:05Z</time>
      </trkpt>
      <trkpt lat="47.81813" lon="6.77216">
        <ele>929.413635</ele>
        <time>2018-05-26T13:15:06Z</time>
      </trkpt>
      <trkpt lat="47.81812" lon="6.77225">
        <ele>929.173157</ele>
        <time>2018-05-26T13:15:07Z</time>
      </trkpt>
      <trkpt lat="47.81812" lon="6.77235">
        <ele>929.102966</ele>
        <time>2018-05-26T13:15:08Z</time>
      </trkpt>
      <trkpt lat="47.81812" lon="6.77244">
        <ele>929.094482</ele>
        <time>2018-05-26T13:15:09Z</time>
      </trkpt>
      <trkpt lat="47.81812" lon="6.77253">
        <ele>929.104309</ele>
        <time>2018-05-26T13:15:10Z</time>
      </trkpt>
      <trkpt lat="47.81811" lon="6.77262">
        <ele>929.177795</ele>
        <time>2018-05-26T13:15:11Z</time>
      </trkpt>
      <trkpt lat="47.81811" lon="6.77271">
        <ele>929.281311</ele>
        <time>2018-05-26T13:15:12Z</time>
      </trkpt>
      <trkpt lat="47.8181" lon="6.7728">
        <ele>929.38208</ele>
        <time>2018-05-26T13:15:13Z</time>
      </trkpt>
      <trkpt lat="47.81809" lon="6.77288">
        <ele>929.468079</ele>
        <time>2018-05-26T13:15:14Z</time>
      </trkpt>
      <trkpt lat="47.81808" lon="6.77296">
        <ele>929.543396</ele>
        <time>2018-05-26T13:15:15Z</time>
      </trkpt>
      <trkpt lat="47.81807" lon="6.77305">
        <ele>929.609375</ele>
        <time>2018-05-26T13:15:16Z</time>
      </trkpt>
      <trkpt lat="47.81807" lon="6.77314">
        <ele>929.663635</ele>
        <time>2018-05-26T13:15:17Z</time>
      </trkpt>
      <trkpt lat="47.81805" lon="6.77322">
        <ele>929.70636</ele>
        <time>2018-05-26T13:15:18Z</time>
      </trkpt>
      <trkpt lat="47.81805" lon="6.77331">
        <ele>929.75238</ele>
        <time>2018-05-26T13:15:19Z</time>
      </trkpt>
      <trkpt lat="47.81804" lon="6.77339">
        <ele>929.801514</ele>
        <time>2018-05-26T13:15:20Z</time>
      </trkpt>
      <trkpt lat="47.81803" lon="6.77348">
        <ele>929.850281</ele>
        <time>2018-05-26T13:15:21Z</time>
      </trkpt>
      <trkpt lat="47.81802" lon="6.77357">
        <ele>929.892151</ele>
        <time>2018-05-26T13:15:22Z</time>
      </trkpt>
      <trkpt lat="47.81802" lon="6.77366">
        <ele>929.928528</ele>
        <time>2018-05-26T13:15:23Z</time>
      </trkpt>
      <trkpt lat="47.81802" lon="6.77374">
        <ele>929.95874</ele>
        <time>2018-05-26T13:15:24Z</time>
      </trkpt>
      <trkpt lat="47.81801" lon="6.77382">
        <ele>929.983826</ele>
        <time>2018-05-26T13:15:25Z</time>
      </trkpt>
      <trkpt lat="47.81801" lon="6.77391">
        <ele>929.99884</ele>
        <time>2018-05-26T13:15:26Z</time>
      </trkpt>
      <trkpt lat="47.81799" lon="6.77399">
        <ele>930.008301</ele>
        <time>2018-05-26T13:15:27Z</time>
      </trkpt>
      <trkpt lat="47.81797" lon="6.77407">
        <ele>930.014893</ele>
        <time>2018-05-26T13:15:28Z</time>
      </trkpt>
      <trkpt lat="47.81796" lon="6.77415">
        <ele>930.021057</ele>
        <time>2018-05-26T13:15:29Z</time>
      </trkpt>
      <trkpt lat="47.81793" lon="6.77423">
        <ele>930.031738</ele>
        <time>2018-05-26T13:15:30Z</time>
      </trkpt>
      <trkpt lat="47.81792" lon="6.77431">
        <ele>930.075134</ele>
        <time>2018-05-26T13:15:31Z</time>
      </trkpt>
      <trkpt lat="47.81791" lon="6.77439">
        <ele>930.114746</ele>
        <time>2018-05-26T13:15:32Z</time>
      </trkpt>
      <trkpt lat="47.8179" lon="6.77447">
        <ele>930.154846</ele>
        <time>2018-05-26T13:15:33Z</time>
      </trkpt>
      <trkpt lat="47.81788" lon="6.77455">
        <ele>930.190979</ele>
        <time>2018-05-26T13:15:34Z</time>
      </trkpt>
      <trkpt lat="47.81787" lon="6.77463">
        <ele>930.219666</ele>
        <time>2018-05-26T13:15:35Z</time>
      </trkpt>
      <trkpt lat="47.81785" lon="6.77471">
        <ele>930.232483</ele>
        <time>2018-05-26T13:15:36Z</time>
      </trkpt>
      <trkpt lat="47.81784" lon="6.77479">
        <ele>930.232483</ele>
        <time>2018-05-26T13:15:37Z</time>
      </trkpt>
      <trkpt lat="47.81783" lon="6.77487">
        <ele>930.222412</ele>
        <time>2018-05-26T13:15:38Z</time>
      </trkpt>
      <trkpt lat="47.81783" lon="6.77495">
        <ele>930.1651</ele>
        <time>2018-05-26T13:15:39Z</time>
      </trkpt>
      <trkpt lat="47.81782" lon="6.77504">
        <ele>930.118408</ele>
        <time>2018-05-26T13:15:40Z</time>
      </trkpt>
      <trkpt lat="47.81782" lon="6.77512">
        <ele>930.075378</ele>
        <time>2018-05-26T13:15:41Z</time>
      </trkpt>
      <trkpt lat="47.81781" lon="6.7752">
        <ele>930.039307</ele>
        <time>2018-05-26T13:15:42Z</time>
      </trkpt>
      <trkpt lat="47.81781" lon="6.77528">
        <ele>929.99707</ele>
        <time>2018-05-26T13:15:43Z</time>
      </trkpt>
      <trkpt lat="47.81781" lon="6.77536">
        <ele>929.988098</ele>
        <time>2018-05-26T13:15:44Z</time>
      </trkpt>
      <trkpt lat="47.81781" lon="6.77543">
        <ele>929.987488</ele>
        <time>2018-05-26T13:15:45Z</time>
      </trkpt>
      <trkpt lat="47.81781" lon="6.77551">
        <ele>929.986511</ele>
        <time>2018-05-26T13:15:46Z</time>
      </trkpt>
      <trkpt lat="47.8178" lon="6.77559">
        <ele>929.990417</ele>
        <time>2018-05-26T13:15:47Z</time>
      </trkpt>
      <trkpt lat="47.8178" lon="6.77566">
        <ele>929.992004</ele>
        <time>2018-05-26T13:15:48Z</time>
      </trkpt>
      <trkpt lat="47.8178" lon="6.77573">
        <ele>929.993347</ele>
        <time>2018-05-26T13:15:49Z</time>
      </trkpt>
      <trkpt lat="47.8178" lon="6.7758">
        <ele>929.994873</ele>
        <time>2018-05-26T13:15:50Z</time>
      </trkpt>
      <trkpt lat="47.81779" lon="6.77588">
        <ele>930.006897</ele>
        <time>2018-05-26T13:15:51Z</time>
      </trkpt>
      <trkpt lat="47.81779" lon="6.77595">
        <ele>930.034607</ele>
        <time>2018-05-26T13:15:52Z</time>
      </trkpt>
      <trkpt lat="47.81779" lon="6.77601">
        <ele>930.078308</ele>
        <time>2018-05-26T13:15:53Z</time>
      </trkpt>
      <trkpt lat="47.81778" lon="6.77608">
        <ele>930.138428</ele>
        <time>2018-05-26T13:15:54Z</time>
      </trkpt>
      <trkpt lat="47.81778" lon="6.77615">
        <ele>930.206604</ele>
        <time>2018-05-26T13:15:55Z</time>
      </trkpt>
      <trkpt lat="47.81778" lon="6.77622">
        <ele>930.287903</ele>
        <time>2018-05-26T13:15:56Z</time>
      </trkpt>
      <trkpt lat="47.81777" lon="6.77629">
        <ele>930.378845</ele>
        <time>2018-05-26T13:15:57Z</time>
      </trkpt>
      <trkpt lat="47.81777" lon="6.77636">
        <ele>930.481445</ele>
        <time>2018-05-26T13:15:58Z</time>
      </trkpt>
      <trkpt lat="47.81776" lon="6.77642">
        <ele>930.586243</ele>
        <time>2018-05-26T13:15:59Z</time>
      </trkpt>
      <trkpt lat="47.81776" lon="6.7765">
        <ele>930.678223</ele>
        <time>2018-05-26T13:16:00Z</time>
      </trkpt>
      <trkpt lat="47.81776" lon="6.77657">
        <ele>930.750977</ele>
        <time>2018-05-26T13:16:01Z</time>
      </trkpt>
      <trkpt lat="47.81776" lon="6.77664">
        <ele>930.794617</ele>
        <time>2018-05-26T13:16:02Z</time>
      </trkpt>
      <trkpt lat="47.81776" lon="6.77672">
        <ele>930.803528</ele>
        <time>2018-05-26T13:16:03Z</time>
      </trkpt>
      <trkpt lat="47.81776" lon="6.77681">
        <ele>930.803406</ele>
        <time>2018-05-26T13:16:04Z</time>
      </trkpt>
      <trkpt lat="47.81775" lon="6.77689">
        <ele>930.791809</ele>
        <time>2018-05-26T13:16:05Z</time>
      </trkpt>
      <trkpt lat="47.81775" lon="6.77698">
        <ele>930.767273</ele>
        <time>2018-05-26T13:16:06Z</time>
      </trkpt>
      <trkpt lat="47.81775" lon="6.77707">
        <ele>930.682068</ele>
        <time>2018-05-26T13:16:07Z</time>
      </trkpt>
      <trkpt lat="47.81776" lon="6.77715">
        <ele>930.486389</ele>
        <time>2018-05-26T13:16:08Z</time>
      </trkpt>
      <trkpt lat="47.81776" lon="6.77724">
        <ele>930.332336</ele>
        <time>2018-05-26T13:16:09Z</time>
      </trkpt>
      <trkpt lat="47.81778" lon="6.77733">
        <ele>930.170715</ele>
        <time>2018-05-26T13:16:10Z</time>
      </trkpt>
      <trkpt lat="47.81778" lon="6.77742">
        <ele>930.003906</ele>
        <time>2018-05-26T13:16:11Z</time>
      </trkpt>
      <trkpt lat="47.81778" lon="6.77751">
        <ele>929.835938</ele>
        <time>2018-05-26T13:16:12Z</time>
      </trkpt>
      <trkpt lat="47.81776" lon="6.7776">
        <ele>929.678223</ele>
        <time>2018-05-26T13:16:13Z</time>
      </trkpt>
      <trkpt lat="47.81776" lon="6.77768">
        <ele>929.537537</ele>
        <time>2018-05-26T13:16:14Z</time>
      </trkpt>
      <trkpt lat="47.81775" lon="6.77776">
        <ele>929.423645</ele>
        <time>2018-05-26T13:16:15Z</time>
      </trkpt>
      <trkpt lat="47.81775" lon="6.77784">
        <ele>929.337891</ele>
        <time>2018-05-26T13:16:16Z</time>
      </trkpt>
      <trkpt lat="47.81775" lon="6.77792">
        <ele>929.264404</ele>
        <time>2018-05-26T13:16:17Z</time>
      </trkpt>
      <trkpt lat="47.81774" lon="6.778">
        <ele>929.260681</ele>
        <time>2018-05-26T13:16:18Z</time>
      </trkpt>
      <trkpt lat="47.81774" lon="6.77807">
        <ele>929.268311</ele>
        <time>2018-05-26T13:16:19Z</time>
      </trkpt>
      <trkpt lat="47.81774" lon="6.77814">
        <ele>929.314392</ele>
        <time>2018-05-26T13:16:20Z</time>
      </trkpt>
      <trkpt lat="47.81773" lon="6.77822">
        <ele>929.385742</ele>
        <time>2018-05-26T13:16:21Z</time>
      </trkpt>
      <trkpt lat="47.81773" lon="6.7783">
        <ele>929.46405</ele>
        <time>2018-05-26T13:16:22Z</time>
      </trkpt>
      <trkpt lat="47.81772" lon="6.77838">
        <ele>929.548584</ele>
        <time>2018-05-26T13:16:23Z</time>
      </trkpt>
      <trkpt lat="47.8177" lon="6.77846">
        <ele>929.643494</ele>
        <time>2018-05-26T13:16:24Z</time>
      </trkpt>
      <trkpt lat="47.81769" lon="6.77854">
        <ele>929.74292</ele>
        <time>2018-05-26T13:16:25Z</time>
      </trkpt>
      <trkpt lat="47.81769" lon="6.77862">
        <ele>929.839111</ele>
        <time>2018-05-26T13:16:26Z</time>
      </trkpt>
      <trkpt lat="47.81768" lon="6.7787">
        <ele>929.920593</ele>
        <time>2018-05-26T13:16:27Z</time>
      </trkpt>
      <trkpt lat="47.81768" lon="6.77878">
        <ele>929.989441</ele>
        <time>2018-05-26T13:16:28Z</time>
      </trkpt>
      <trkpt lat="47.81767" lon="6.77886">
        <ele>930.044128</ele>
        <time>2018-05-26T13:16:29Z</time>
      </trkpt>
      <trkpt lat="47.81766" lon="6.77894">
        <ele>930.085632</ele>
        <time>2018-05-26T13:16:30Z</time>
      </trkpt>
      <trkpt lat="47.81764" lon="6.77901">
        <ele>930.103577</ele>
        <time>2018-05-26T13:16:31Z</time>
      </trkpt>
      <trkpt lat="47.81763" lon="6.77908">
        <ele>930.104309</ele>
        <time>2018-05-26T13:16:32Z</time>
      </trkpt>
      <trkpt lat="47.81762" lon="6.77915">
        <ele>930.097168</ele>
        <time>2018-05-26T13:16:33Z</time>
      </trkpt>
      <trkpt lat="47.8176" lon="6.77922">
        <ele>930.085449</ele>
        <time>2018-05-26T13:16:34Z</time>
      </trkpt>
      <trkpt lat="47.81758" lon="6.77929">
        <ele>930.080261</ele>
        <time>2018-05-26T13:16:35Z</time>
      </trkpt>
      <trkpt lat="47.81756" lon="6.77936">
        <ele>930.079529</ele>
        <time>2018-05-26T13:16:36Z</time>
      </trkpt>
      <trkpt lat="47.81755" lon="6.77944">
        <ele>930.081482</ele>
        <time>2018-05-26T13:16:37Z</time>
      </trkpt>
      <trkpt lat="47.81755" lon="6.77952">
        <ele>930.093018</ele>
        <time>2018-05-26T13:16:38Z</time>
      </trkpt>
      <trkpt lat="47.81753" lon="6.7796">
        <ele>930.110901</ele>
        <time>2018-05-26T13:16:39Z</time>
      </trkpt>
      <trkpt lat="47.81752" lon="6.77968">
        <ele>930.134827</ele>
        <time>2018-05-26T13:16:40Z</time>
      </trkpt>
      <trkpt lat="47.81751" lon="6.77975">
        <ele>930.160645</ele>
        <time>2018-05-26T13:16:41Z</time>
      </trkpt>
      <trkpt lat="47.81749" lon="6.77982">
        <ele>930.185364</ele>
        <time>2018-05-26T13:16:42Z</time>
      </trkpt>
      <trkpt lat="47.81748" lon="6.7799">
        <ele>930.233337</ele>
        <time>2018-05-26T13:16:43Z</time>
      </trkpt>
      <trkpt lat="47.81747" lon="6.77997">
        <ele>930.281921</ele>
        <time>2018-05-26T13:16:44Z</time>
      </trkpt>
      <trkpt lat="47.81747" lon="6.78004">
        <ele>930.340759</ele>
        <time>2018-05-26T13:16:45Z</time>
      </trkpt>
      <trkpt lat="47.81746" lon="6.78011">
        <ele>930.400146</ele>
        <time>2018-05-26T13:16:46Z</time>
      </trkpt>
      <trkpt lat="47.81745" lon="6.78018">
        <ele>930.483887</ele>
        <time>2018-05-26T13:16:47Z</time>
      </trkpt>
      <trkpt lat="47.81744" lon="6.78027">
        <ele>930.532776</ele>
        <time>2018-05-26T13:16:48Z</time>
      </trkpt>
      <trkpt lat="47.81743" lon="6.78035">
        <ele>930.572693</ele>
        <time>2018-05-26T13:16:49Z</time>
      </trkpt>
      <trkpt lat="47.81742" lon="6.78043">
        <ele>930.595764</ele>
        <time>2018-05-26T13:16:50Z</time>
      </trkpt>
      <trkpt lat="47.81741" lon="6.78051">
        <ele>930.601135</ele>
        <time>2018-05-26T13:16:51Z</time>
      </trkpt>
      <trkpt lat="47.8174" lon="6.78059">
        <ele>930.601135</ele>
        <time>2018-05-26T13:16:52Z</time>
      </trkpt>
      <trkpt lat="47.8174" lon="6.78067">
        <ele>930.591492</ele>
        <time>2018-05-26T13:16:53Z</time>
      </trkpt>
      <trkpt lat="47.8174" lon="6.78075">
        <ele>930.572327</ele>
        <time>2018-05-26T13:16:54Z</time>
      </trkpt>
      <trkpt lat="47.81739" lon="6.78083">
        <ele>930.518372</ele>
        <time>2018-05-26T13:16:55Z</time>
      </trkpt>
      <trkpt lat="47.8174" lon="6.78091">
        <ele>930.463379</ele>
        <time>2018-05-26T13:16:56Z</time>
      </trkpt>
      <trkpt lat="47.8174" lon="6.781">
        <ele>930.396973</ele>
        <time>2018-05-26T13:16:57Z</time>
      </trkpt>
      <trkpt lat="47.8174" lon="6.78108">
        <ele>930.328125</ele>
        <time>2018-05-26T13:16:58Z</time>
      </trkpt>
      <trkpt lat="47.8174" lon="6.78116">
        <ele>930.258545</ele>
        <time>2018-05-26T13:16:59Z</time>
      </trkpt>
      <trkpt lat="47.81739" lon="6.78124">
        <ele>930.186951</ele>
        <time>2018-05-26T13:17:00Z</time>
      </trkpt>
      <trkpt lat="47.81739" lon="6.78132">
        <ele>930.114929</ele>
        <time>2018-05-26T13:17:01Z</time>
      </trkpt>
      <trkpt lat="47.8174" lon="6.7814">
        <ele>930.06012</ele>
        <time>2018-05-26T13:17:02Z</time>
      </trkpt>
      <trkpt lat="47.8174" lon="6.78146">
        <ele>930.047546</ele>
        <time>2018-05-26T13:17:03Z</time>
      </trkpt>
      <trkpt lat="47.8174" lon="6.78153">
        <ele>930.047546</ele>
        <time>2018-05-26T13:17:04Z</time>
      </trkpt>
      <trkpt lat="47.81741" lon="6.7816">
        <ele>930.059082</ele>
        <time>2018-05-26T13:17:05Z</time>
      </trkpt>
      <trkpt lat="47.81741" lon="6.78166">
        <ele>930.083069</ele>
        <time>2018-05-26T13:17:06Z</time>
      </trkpt>
      <trkpt lat="47.81741" lon="6.78173">
        <ele>930.194519</ele>
        <time>2018-05-26T13:17:07Z</time>
      </trkpt>
      <trkpt lat="47.81742" lon="6.78179">
        <ele>930.286316</ele>
        <time>2018-05-26T13:17:08Z</time>
      </trkpt>
      <trkpt lat="47.81743" lon="6.78186">
        <ele>930.381653</ele>
        <time>2018-05-26T13:17:09Z</time>
      </trkpt>
      <trkpt lat="47.81743" lon="6.78192">
        <ele>930.474609</ele>
        <time>2018-05-26T13:17:10Z</time>
      </trkpt>
      <trkpt lat="47.81744" lon="6.78199">
        <ele>930.556335</ele>
        <time>2018-05-26T13:17:11Z</time>
      </trkpt>
      <trkpt lat="47.81743" lon="6.78205">
        <ele>930.629089</ele>
        <time>2018-05-26T13:17:12Z</time>
      </trkpt>
      <trkpt lat="47.81743" lon="6.78212">
        <ele>930.694641</ele>
        <time>2018-05-26T13:17:13Z</time>
      </trkpt>
      <trkpt lat="47.8174" lon="6.78218">
        <ele>930.751465</ele>
        <time>2018-05-26T13:17:14Z</time>
      </trkpt>
      <trkpt lat="47.81737" lon="6.78223">
        <ele>930.815491</ele>
        <time>2018-05-26T13:17:15Z</time>
      </trkpt>
      <trkpt lat="47.81734" lon="6.78226">
        <ele>930.847717</ele>
        <time>2018-05-26T13:17:16Z</time>
      </trkpt>
      <trkpt lat="47.8173" lon="6.78228">
        <ele>930.877625</ele>
        <time>2018-05-26T13:17:17Z</time>
      </trkpt>
      <trkpt lat="47.81725" lon="6.78229">
        <ele>930.921692</ele>
        <time>2018-05-26T13:17:18Z</time>
      </trkpt>
      <trkpt lat="47.8172" lon="6.78231">
        <ele>930.948975</ele>
        <time>2018-05-26T13:17:19Z</time>
      </trkpt>
      <trkpt lat="47.81716" lon="6.78232">
        <ele>930.981995</ele>
        <time>2018-05-26T13:17:20Z</time>
      </trkpt>
      <trkpt lat="47.81711" lon="6.78234">
        <ele>931.054749</ele>
        <time>2018-05-26T13:17:21Z</time>
      </trkpt>
      <trkpt lat="47.81706" lon="6.78235">
        <ele>931.110107</ele>
        <time>2018-05-26T13:17:22Z</time>
      </trkpt>
      <trkpt lat="47.81701" lon="6.78236">
        <ele>931.159485</ele>
        <time>2018-05-26T13:17:23Z</time>
      </trkpt>
      <trkpt lat="47.81697" lon="6.78236">
        <ele>931.210144</ele>
        <time>2018-05-26T13:17:24Z</time>
      </trkpt>
      <trkpt lat="47.81692" lon="6.78235">
        <ele>931.238098</ele>
        <time>2018-05-26T13:17:25Z</time>
      </trkpt>
      <trkpt lat="47.81688" lon="6.78233">
        <ele>931.28418</ele>
        <time>2018-05-26T13:17:26Z</time>
      </trkpt>
      <trkpt lat="47.81684" lon="6.78231">
        <ele>931.310059</ele>
        <time>2018-05-26T13:17:27Z</time>
      </trkpt>
      <trkpt lat="47.8168" lon="6.78229">
        <ele>931.32489</ele>
        <time>2018-05-26T13:17:28Z</time>
      </trkpt>
      <trkpt lat="47.81676" lon="6.78227">
        <ele>931.355225</ele>
        <time>2018-05-26T13:17:29Z</time>
      </trkpt>
      <trkpt lat="47.81672" lon="6.78223">
        <ele>931.392822</ele>
        <time>2018-05-26T13:17:30Z</time>
      </trkpt>
      <trkpt lat="47.81667" lon="6.7822">
        <ele>931.442871</ele>
        <time>2018-05-26T13:17:31Z</time>
      </trkpt>
      <trkpt lat="47.81663" lon="6.78216">
        <ele>931.519043</ele>
        <time>2018-05-26T13:17:32Z</time>
      </trkpt>
      <trkpt lat="47.81659" lon="6.78212">
        <ele>931.55304</ele>
        <time>2018-05-26T13:17:33Z</time>
      </trkpt>
      <trkpt lat="47.81655" lon="6.78208">
        <ele>931.566589</ele>
        <time>2018-05-26T13:17:34Z</time>
      </trkpt>
      <trkpt lat="47.81651" lon="6.78205">
        <ele>931.566101</ele>
        <time>2018-05-26T13:17:35Z</time>
      </trkpt>
      <trkpt lat="47.81646" lon="6.78201">
        <ele>931.558411</ele>
        <time>2018-05-26T13:17:36Z</time>
      </trkpt>
      <trkpt lat="47.81642" lon="6.78197">
        <ele>931.553406</ele>
        <time>2018-05-26T13:17:37Z</time>
      </trkpt>
      <trkpt lat="47.81638" lon="6.78193">
        <ele>931.5495</ele>
        <time>2018-05-26T13:17:38Z</time>
      </trkpt>
      <trkpt lat="47.81635" lon="6.78189">
        <ele>931.551025</ele>
        <time>2018-05-26T13:17:39Z</time>
      </trkpt>
      <trkpt lat="47.81631" lon="6.78185">
        <ele>931.558167</ele>
        <time>2018-05-26T13:17:40Z</time>
      </trkpt>
      <trkpt lat="47.81627" lon="6.78181">
        <ele>931.58374</ele>
        <time>2018-05-26T13:17:41Z</time>
      </trkpt>
      <trkpt lat="47.81624" lon="6.78176">
        <ele>931.621338</ele>
        <time>2018-05-26T13:17:42Z</time>
      </trkpt>
      <trkpt lat="47.81622" lon="6.78171">
        <ele>931.674866</ele>
        <time>2018-05-26T13:17:43Z</time>
      </trkpt>
      <trkpt lat="47.81619" lon="6.78166">
        <ele>931.795471</ele>
        <time>2018-05-26T13:17:44Z</time>
      </trkpt>
      <trkpt lat="47.81616" lon="6.7816">
        <ele>931.897278</ele>
        <time>2018-05-26T13:17:45Z</time>
      </trkpt>
      <trkpt lat="47.81615" lon="6.78154">
        <ele>932.072449</ele>
        <time>2018-05-26T13:17:46Z</time>
      </trkpt>
      <trkpt lat="47.81612" lon="6.78148">
        <ele>932.192566</ele>
        <time>2018-05-26T13:17:47Z</time>
      </trkpt>
      <trkpt lat="47.8161" lon="6.78142">
        <ele>932.304993</ele>
        <time>2018-05-26T13:17:48Z</time>
      </trkpt>
      <trkpt lat="47.81608" lon="6.78137">
        <ele>932.399475</ele>
        <time>2018-05-26T13:17:49Z</time>
      </trkpt>
      <trkpt lat="47.81606" lon="6.78131">
        <ele>932.505615</ele>
        <time>2018-05-26T13:17:50Z</time>
      </trkpt>
      <trkpt lat="47.81603" lon="6.78125">
        <ele>932.551208</ele>
        <time>2018-05-26T13:17:51Z</time>
      </trkpt>
      <trkpt lat="47.81601" lon="6.78119">
        <ele>932.575134</ele>
        <time>2018-05-26T13:17:52Z</time>
      </trkpt>
      <trkpt lat="47.81598" lon="6.78113">
        <ele>932.577209</ele>
        <time>2018-05-26T13:17:53Z</time>
      </trkpt>
      <trkpt lat="47.81595" lon="6.78107">
        <ele>932.56366</ele>
        <time>2018-05-26T13:17:54Z</time>
      </trkpt>
      <trkpt lat="47.81593" lon="6.78101">
        <ele>932.527893</ele>
        <time>2018-05-26T13:17:55Z</time>
      </trkpt>
      <trkpt lat="47.8159" lon="6.78096">
        <ele>932.442383</ele>
        <time>2018-05-26T13:17:56Z</time>
      </trkpt>
      <trkpt lat="47.81587" lon="6.7809">
        <ele>932.364502</ele>
        <time>2018-05-26T13:17:57Z</time>
      </trkpt>
      <trkpt lat="47.81583" lon="6.78084">
        <ele>932.267761</ele>
        <time>2018-05-26T13:17:58Z</time>
      </trkpt>
      <trkpt lat="47.8158" lon="6.78078">
        <ele>932.097961</ele>
        <time>2018-05-26T13:17:59Z</time>
      </trkpt>
      <trkpt lat="47.81577" lon="6.78073">
        <ele>931.983215</ele>
        <time>2018-05-26T13:18:00Z</time>
      </trkpt>
      <trkpt lat="47.81574" lon="6.78067">
        <ele>931.874207</ele>
        <time>2018-05-26T13:18:01Z</time>
      </trkpt>
      <trkpt lat="47.81569" lon="6.78061">
        <ele>931.72406</ele>
        <time>2018-05-26T13:18:02Z</time>
      </trkpt>
      <trkpt lat="47.81565" lon="6.78055">
        <ele>931.626709</ele>
        <time>2018-05-26T13:18:03Z</time>
      </trkpt>
      <trkpt lat="47.81561" lon="6.7805">
        <ele>931.525146</ele>
        <time>2018-05-26T13:18:04Z</time>
      </trkpt>
      <trkpt lat="47.81556" lon="6.78046">
        <ele>931.369629</ele>
        <time>2018-05-26T13:18:05Z</time>
      </trkpt>
      <trkpt lat="47.81551" lon="6.78042">
        <ele>931.318054</ele>
        <time>2018-05-26T13:18:06Z</time>
      </trkpt>
      <trkpt lat="47.81545" lon="6.78039">
        <ele>931.167297</ele>
        <time>2018-05-26T13:18:07Z</time>
      </trkpt>
      <trkpt lat="47.8154" lon="6.78036">
        <ele>931.066589</ele>
        <time>2018-05-26T13:18:08Z</time>
      </trkpt>
      <trkpt lat="47.81534" lon="6.78033">
        <ele>930.957031</ele>
        <time>2018-05-26T13:18:09Z</time>
      </trkpt>
      <trkpt lat="47.81528" lon="6.78031">
        <ele>930.773987</ele>
        <time>2018-05-26T13:18:10Z</time>
      </trkpt>
      <trkpt lat="47.81522" lon="6.78029">
        <ele>930.656189</ele>
        <time>2018-05-26T13:18:11Z</time>
      </trkpt>
      <trkpt lat="47.81517" lon="6.78028">
        <ele>930.494873</ele>
        <time>2018-05-26T13:18:12Z</time>
      </trkpt>
      <trkpt lat="47.81511" lon="6.78027">
        <ele>930.387634</ele>
        <time>2018-05-26T13:18:13Z</time>
      </trkpt>
      <trkpt lat="47.81504" lon="6.78027">
        <ele>930.282166</ele>
        <time>2018-05-26T13:18:14Z</time>
      </trkpt>
      <trkpt lat="47.81498" lon="6.78028">
        <ele>930.131592</ele>
        <time>2018-05-26T13:18:15Z</time>
      </trkpt>
      <trkpt lat="47.81492" lon="6.7803">
        <ele>930.030579</ele>
        <time>2018-05-26T13:18:16Z</time>
      </trkpt>
      <trkpt lat="47.81485" lon="6.78032">
        <ele>929.865906</ele>
        <time>2018-05-26T13:18:17Z</time>
      </trkpt>
      <trkpt lat="47.81479" lon="6.78035">
        <ele>929.741882</ele>
        <time>2018-05-26T13:18:18Z</time>
      </trkpt>
      <trkpt lat="47.81473" lon="6.78039">
        <ele>929.602356</ele>
        <time>2018-05-26T13:18:19Z</time>
      </trkpt>
      <trkpt lat="47.81466" lon="6.78042">
        <ele>929.351868</ele>
        <time>2018-05-26T13:18:20Z</time>
      </trkpt>
      <trkpt lat="47.8146" lon="6.78043">
        <ele>929.162903</ele>
        <time>2018-05-26T13:18:21Z</time>
      </trkpt>
      <trkpt lat="47.81454" lon="6.78046">
        <ele>928.870056</ele>
        <time>2018-05-26T13:18:22Z</time>
      </trkpt>
      <trkpt lat="47.81449" lon="6.78049">
        <ele>928.684265</ele>
        <time>2018-05-26T13:18:23Z</time>
      </trkpt>
      <trkpt lat="47.81443" lon="6.78052">
        <ele>928.520447</ele>
        <time>2018-05-26T13:18:24Z</time>
      </trkpt>
      <trkpt lat="47.81438" lon="6.78057">
        <ele>928.38324</ele>
        <time>2018-05-26T13:18:25Z</time>
      </trkpt>
      <trkpt lat="47.81433" lon="6.78061">
        <ele>928.243958</ele>
        <time>2018-05-26T13:18:26Z</time>
      </trkpt>
      <trkpt lat="47.81429" lon="6.78065">
        <ele>928.188416</ele>
        <time>2018-05-26T13:18:27Z</time>
      </trkpt>
      <trkpt lat="47.81424" lon="6.78069">
        <ele>928.15448</ele>
        <time>2018-05-26T13:18:28Z</time>
      </trkpt>
      <trkpt lat="47.81418" lon="6.78074">
        <ele>928.145264</ele>
        <time>2018-05-26T13:18:29Z</time>
      </trkpt>
      <trkpt lat="47.81414" lon="6.78078">
        <ele>928.150085</ele>
        <time>2018-05-26T13:18:30Z</time>
      </trkpt>
      <trkpt lat="47.81409" lon="6.78082">
        <ele>928.176758</ele>
        <time>2018-05-26T13:18:31Z</time>
      </trkpt>
      <trkpt lat="47.81405" lon="6.78086">
        <ele>928.237366</ele>
        <time>2018-05-26T13:18:32Z</time>
      </trkpt>
      <trkpt lat="47.81401" lon="6.78091">
        <ele>928.280945</ele>
        <time>2018-05-26T13:18:33Z</time>
      </trkpt>
      <trkpt lat="47.81396" lon="6.78095">
        <ele>928.328064</ele>
        <time>2018-05-26T13:18:34Z</time>
      </trkpt>
      <trkpt lat="47.81392" lon="6.78099">
        <ele>928.427979</ele>
        <time>2018-05-26T13:18:35Z</time>
      </trkpt>
      <trkpt lat="47.81388" lon="6.78104">
        <ele>928.512512</ele>
        <time>2018-05-26T13:18:36Z</time>
      </trkpt>
      <trkpt lat="47.81384" lon="6.78107">
        <ele>928.598328</ele>
        <time>2018-05-26T13:18:37Z</time>
      </trkpt>
      <trkpt lat="47.8138" lon="6.78111">
        <ele>928.723938</ele>
        <time>2018-05-26T13:18:38Z</time>
      </trkpt>
      <trkpt lat="47.81376" lon="6.78115">
        <ele>928.813477</ele>
        <time>2018-05-26T13:18:39Z</time>
      </trkpt>
      <trkpt lat="47.81372" lon="6.78119">
        <ele>928.908691</ele>
        <time>2018-05-26T13:18:40Z</time>
      </trkpt>
      <trkpt lat="47.81368" lon="6.78123">
        <ele>929.049805</ele>
        <time>2018-05-26T13:18:41Z</time>
      </trkpt>
      <trkpt lat="47.81364" lon="6.78127">
        <ele>929.14386</ele>
        <time>2018-05-26T13:18:42Z</time>
      </trkpt>
      <trkpt lat="47.8136" lon="6.7813">
        <ele>929.240723</ele>
        <time>2018-05-26T13:18:43Z</time>
      </trkpt>
      <trkpt lat="47.81355" lon="6.78134">
        <ele>929.393738</ele>
        <time>2018-05-26T13:18:44Z</time>
      </trkpt>
      <trkpt lat="47.81352" lon="6.78138">
        <ele>929.492249</ele>
        <time>2018-05-26T13:18:45Z</time>
      </trkpt>
      <trkpt lat="47.81347" lon="6.78142">
        <ele>929.577637</ele>
        <time>2018-05-26T13:18:46Z</time>
      </trkpt>
      <trkpt lat="47.81343" lon="6.78145">
        <ele>929.682312</ele>
        <time>2018-05-26T13:18:47Z</time>
      </trkpt>
      <trkpt lat="47.81339" lon="6.78149">
        <ele>929.741272</ele>
        <time>2018-05-26T13:18:48Z</time>
      </trkpt>
      <trkpt lat="47.81335" lon="6.78152">
        <ele>929.79541</ele>
        <time>2018-05-26T13:18:49Z</time>
      </trkpt>
      <trkpt lat="47.81332" lon="6.78155">
        <ele>929.862244</ele>
        <time>2018-05-26T13:18:50Z</time>
      </trkpt>
      <trkpt lat="47.81327" lon="6.78158">
        <ele>929.892151</ele>
        <time>2018-05-26T13:18:51Z</time>
      </trkpt>
      <trkpt lat="47.81323" lon="6.78161">
        <ele>929.906799</ele>
        <time>2018-05-26T13:18:52Z</time>
      </trkpt>
      <trkpt lat="47.81319" lon="6.78163">
        <ele>929.918396</ele>
        <time>2018-05-26T13:18:53Z</time>
      </trkpt>
      <trkpt lat="47.81314" lon="6.78165">
        <ele>929.9328</ele>
        <time>2018-05-26T13:18:54Z</time>
      </trkpt>
      <trkpt lat="47.8131" lon="6.78168">
        <ele>929.96405</ele>
        <time>2018-05-26T13:18:55Z</time>
      </trkpt>
      <trkpt lat="47.81306" lon="6.7817">
        <ele>930.029724</ele>
        <time>2018-05-26T13:18:56Z</time>
      </trkpt>
      <trkpt lat="47.81301" lon="6.78172">
        <ele>930.070251</ele>
        <time>2018-05-26T13:18:57Z</time>
      </trkpt>
      <trkpt lat="47.81296" lon="6.78175">
        <ele>930.104675</ele>
        <time>2018-05-26T13:18:58Z</time>
      </trkpt>
      <trkpt lat="47.81292" lon="6.78177">
        <ele>930.162659</ele>
        <time>2018-05-26T13:18:59Z</time>
      </trkpt>
      <trkpt lat="47.81287" lon="6.78179">
        <ele>930.203369</ele>
        <time>2018-05-26T13:19:00Z</time>
      </trkpt>
      <trkpt lat="47.81282" lon="6.78182">
        <ele>930.228943</ele>
        <time>2018-05-26T13:19:01Z</time>
      </trkpt>
      <trkpt lat="47.81278" lon="6.78185">
        <ele>930.231201</ele>
        <time>2018-05-26T13:19:02Z</time>
      </trkpt>
      <trkpt lat="47.81273" lon="6.78187">
        <ele>930.222595</ele>
        <time>2018-05-26T13:19:03Z</time>
      </trkpt>
      <trkpt lat="47.81268" lon="6.7819">
        <ele>930.211426</ele>
        <time>2018-05-26T13:19:04Z</time>
      </trkpt>
      <trkpt lat="47.81264" lon="6.78192">
        <ele>930.214844</ele>
        <time>2018-05-26T13:19:05Z</time>
      </trkpt>
      <trkpt lat="47.8126" lon="6.78194">
        <ele>930.241272</ele>
        <time>2018-05-26T13:19:06Z</time>
      </trkpt>
      <trkpt lat="47.81255" lon="6.78197">
        <ele>930.262024</ele>
        <time>2018-05-26T13:19:07Z</time>
      </trkpt>
      <trkpt lat="47.81251" lon="6.78199">
        <ele>930.262024</ele>
        <time>2018-05-26T13:19:08Z</time>
      </trkpt>
      <trkpt lat="47.81246" lon="6.78202">
        <ele>930.312256</ele>
        <time>2018-05-26T13:19:09Z</time>
      </trkpt>
      <trkpt lat="47.81241" lon="6.78204">
        <ele>930.419495</ele>
        <time>2018-05-26T13:19:10Z</time>
      </trkpt>
      <trkpt lat="47.81237" lon="6.78206">
        <ele>930.513916</ele>
        <time>2018-05-26T13:19:11Z</time>
      </trkpt>
      <trkpt lat="47.81233" lon="6.78207">
        <ele>930.614075</ele>
        <time>2018-05-26T13:19:12Z</time>
      </trkpt>
      <trkpt lat="47.81229" lon="6.78208">
        <ele>930.739319</ele>
        <time>2018-05-26T13:19:13Z</time>
      </trkpt>
      <trkpt lat="47.81225" lon="6.78209">
        <ele>930.804382</ele>
        <time>2018-05-26T13:19:14Z</time>
      </trkpt>
      <trkpt lat="47.81221" lon="6.7821">
        <ele>930.889832</ele>
        <time>2018-05-26T13:19:15Z</time>
      </trkpt>
      <trkpt lat="47.81216" lon="6.7821">
        <ele>930.943848</ele>
        <time>2018-05-26T13:19:16Z</time>
      </trkpt>
      <trkpt lat="47.81212" lon="6.7821">
        <ele>930.984375</ele>
        <time>2018-05-26T13:19:17Z</time>
      </trkpt>
      <trkpt lat="47.81208" lon="6.78212">
        <ele>931.021973</ele>
        <time>2018-05-26T13:19:18Z</time>
      </trkpt>
      <trkpt lat="47.81204" lon="6.78214">
        <ele>931.051208</ele>
        <time>2018-05-26T13:19:19Z</time>
      </trkpt>
      <trkpt lat="47.81199" lon="6.78213">
        <ele>931.122131</ele>
        <time>2018-05-26T13:19:20Z</time>
      </trkpt>
      <trkpt lat="47.81195" lon="6.78213">
        <ele>931.181458</ele>
        <time>2018-05-26T13:19:21Z</time>
      </trkpt>
      <trkpt lat="47.8119" lon="6.78212">
        <ele>931.243164</ele>
        <time>2018-05-26T13:19:22Z</time>
      </trkpt>
      <trkpt lat="47.81185" lon="6.78211">
        <ele>931.337952</ele>
        <time>2018-05-26T13:19:23Z</time>
      </trkpt>
      <trkpt lat="47.8118" lon="6.7821">
        <ele>931.398743</ele>
        <time>2018-05-26T13:19:24Z</time>
      </trkpt>
      <trkpt lat="47.81176" lon="6.78209">
        <ele>931.484131</ele>
        <time>2018-05-26T13:19:25Z</time>
      </trkpt>
      <trkpt lat="47.81171" lon="6.78207">
        <ele>931.533936</ele>
        <time>2018-05-26T13:19:26Z</time>
      </trkpt>
      <trkpt lat="47.81166" lon="6.78206">
        <ele>931.591797</ele>
        <time>2018-05-26T13:19:27Z</time>
      </trkpt>
      <trkpt lat="47.81161" lon="6.78205">
        <ele>931.61615</ele>
        <time>2018-05-26T13:19:28Z</time>
      </trkpt>
      <trkpt lat="47.81156" lon="6.78203">
        <ele>931.643738</ele>
        <time>2018-05-26T13:19:29Z</time>
      </trkpt>
      <trkpt lat="47.81152" lon="6.78202">
        <ele>931.67041</ele>
        <time>2018-05-26T13:19:30Z</time>
      </trkpt>
      <trkpt lat="47.81147" lon="6.782">
        <ele>931.708679</ele>
        <time>2018-05-26T13:19:31Z</time>
      </trkpt>
      <trkpt lat="47.81143" lon="6.78198">
        <ele>931.769531</ele>
        <time>2018-05-26T13:19:32Z</time>
      </trkpt>
      <trkpt lat="47.81139" lon="6.78196">
        <ele>931.807922</ele>
        <time>2018-05-26T13:19:33Z</time>
      </trkpt>
      <trkpt lat="47.81136" lon="6.78194">
        <ele>931.878967</ele>
        <time>2018-05-26T13:19:34Z</time>
      </trkpt>
      <trkpt lat="47.81132" lon="6.78192">
        <ele>931.943665</ele>
        <time>2018-05-26T13:19:35Z</time>
      </trkpt>
      <trkpt lat="47.81128" lon="6.7819">
        <ele>932.048401</ele>
        <time>2018-05-26T13:19:36Z</time>
      </trkpt>
      <trkpt lat="47.81125" lon="6.78188">
        <ele>932.115173</ele>
        <time>2018-05-26T13:19:37Z</time>
      </trkpt>
      <trkpt lat="47.81121" lon="6.78186">
        <ele>932.176575</ele>
        <time>2018-05-26T13:19:38Z</time>
      </trkpt>
      <trkpt lat="47.81118" lon="6.78184">
        <ele>932.274109</ele>
        <time>2018-05-26T13:19:39Z</time>
      </trkpt>
      <trkpt lat="47.81115" lon="6.78182">
        <ele>932.346497</ele>
        <time>2018-05-26T13:19:40Z</time>
      </trkpt>
      <trkpt lat="47.81111" lon="6.78179">
        <ele>932.429382</ele>
        <time>2018-05-26T13:19:41Z</time>
      </trkpt>
      <trkpt lat="47.81107" lon="6.78177">
        <ele>932.5755</ele>
        <time>2018-05-26T13:19:42Z</time>
      </trkpt>
      <trkpt lat="47.81104" lon="6.78176">
        <ele>932.694824</ele>
        <time>2018-05-26T13:19:43Z</time>
      </trkpt>
      <trkpt lat="47.81101" lon="6.78175">
        <ele>932.911926</ele>
        <time>2018-05-26T13:19:44Z</time>
      </trkpt>
      <trkpt lat="47.81097" lon="6.78174">
        <ele>933.079163</ele>
        <time>2018-05-26T13:19:45Z</time>
      </trkpt>
      <trkpt lat="47.81094" lon="6.78172">
        <ele>933.252197</ele>
        <time>2018-05-26T13:19:46Z</time>
      </trkpt>
      <trkpt lat="47.8109" lon="6.78169">
        <ele>933.505432</ele>
        <time>2018-05-26T13:19:47Z</time>
      </trkpt>
      <trkpt lat="47.81086" lon="6.78167">
        <ele>933.664246</ele>
        <time>2018-05-26T13:19:48Z</time>
      </trkpt>
      <trkpt lat="47.81083" lon="6.78165">
        <ele>933.875427</ele>
        <time>2018-05-26T13:19:49Z</time>
      </trkpt>
      <trkpt lat="47.81079" lon="6.78164">
        <ele>933.993835</ele>
        <time>2018-05-26T13:19:50Z</time>
      </trkpt>
      <trkpt lat="47.81075" lon="6.78162">
        <ele>934.094299</ele>
        <time>2018-05-26T13:19:51Z</time>
      </trkpt>
      <trkpt lat="47.81072" lon="6.78161">
        <ele>934.218079</ele>
        <time>2018-05-26T13:19:52Z</time>
      </trkpt>
      <trkpt lat="47.81068" lon="6.78159">
        <ele>934.286133</ele>
        <time>2018-05-26T13:19:53Z</time>
      </trkpt>
      <trkpt lat="47.81065" lon="6.78156">
        <ele>934.37616</ele>
        <time>2018-05-26T13:19:54Z</time>
      </trkpt>
      <trkpt lat="47.81061" lon="6.78154">
        <ele>934.427002</ele>
        <time>2018-05-26T13:19:55Z</time>
      </trkpt>
      <trkpt lat="47.81057" lon="6.78152">
        <ele>934.466797</ele>
        <time>2018-05-26T13:19:56Z</time>
      </trkpt>
      <trkpt lat="47.81053" lon="6.7815">
        <ele>934.501282</ele>
        <time>2018-05-26T13:19:57Z</time>
      </trkpt>
      <trkpt lat="47.81049" lon="6.78148">
        <ele>934.516541</ele>
        <time>2018-05-26T13:19:58Z</time>
      </trkpt>
      <trkpt lat="47.81046" lon="6.78145">
        <ele>934.543884</ele>
        <time>2018-05-26T13:19:59Z</time>
      </trkpt>
      <trkpt lat="47.81042" lon="6.78143">
        <ele>934.561462</ele>
        <time>2018-05-26T13:20:00Z</time>
      </trkpt>
      <trkpt lat="47.81039" lon="6.78142">
        <ele>934.5672</ele>
        <time>2018-05-26T13:20:01Z</time>
      </trkpt>
      <trkpt lat="47.81035" lon="6.78139">
        <ele>934.563721</ele>
        <time>2018-05-26T13:20:02Z</time>
      </trkpt>
      <trkpt lat="47.81031" lon="6.78137">
        <ele>934.544861</ele>
        <time>2018-05-26T13:20:03Z</time>
      </trkpt>
      <trkpt lat="47.81027" lon="6.78135">
        <ele>934.498474</ele>
        <time>2018-05-26T13:20:04Z</time>
      </trkpt>
      <trkpt lat="47.81022" lon="6.78133">
        <ele>934.447266</ele>
        <time>2018-05-26T13:20:05Z</time>
      </trkpt>
      <trkpt lat="47.81017" lon="6.78131">
        <ele>934.322021</ele>
        <time>2018-05-26T13:20:06Z</time>
      </trkpt>
      <trkpt lat="47.81013" lon="6.78129">
        <ele>934.270447</ele>
        <time>2018-05-26T13:20:07Z</time>
      </trkpt>
      <trkpt lat="47.81009" lon="6.78126">
        <ele>934.102112</ele>
        <time>2018-05-26T13:20:08Z</time>
      </trkpt>
      <trkpt lat="47.81004" lon="6.78124">
        <ele>933.995361</ele>
        <time>2018-05-26T13:20:09Z</time>
      </trkpt>
      <trkpt lat="47.81" lon="6.7812">
        <ele>933.887939</ele>
        <time>2018-05-26T13:20:10Z</time>
      </trkpt>
      <trkpt lat="47.80997" lon="6.78115">
        <ele>933.714417</ele>
        <time>2018-05-26T13:20:11Z</time>
      </trkpt>
      <trkpt lat="47.80994" lon="6.78109">
        <ele>933.590637</ele>
        <time>2018-05-26T13:20:12Z</time>
      </trkpt>
      <trkpt lat="47.8099" lon="6.78105">
        <ele>933.462952</ele>
        <time>2018-05-26T13:20:13Z</time>
      </trkpt>
      <trkpt lat="47.80985" lon="6.78101">
        <ele>933.329407</ele>
        <time>2018-05-26T13:20:14Z</time>
      </trkpt>
      <trkpt lat="47.8098" lon="6.78097">
        <ele>933.115906</ele>
        <time>2018-05-26T13:20:15Z</time>
      </trkpt>
      <trkpt lat="47.80975" lon="6.78094">
        <ele>932.964661</ele>
        <time>2018-05-26T13:20:16Z</time>
      </trkpt>
      <trkpt lat="47.8097" lon="6.7809">
        <ele>932.811096</ele>
        <time>2018-05-26T13:20:17Z</time>
      </trkpt>
      <trkpt lat="47.80965" lon="6.78087">
        <ele>932.568665</ele>
        <time>2018-05-26T13:20:18Z</time>
      </trkpt>
      <trkpt lat="47.80961" lon="6.78083">
        <ele>932.395813</ele>
        <time>2018-05-26T13:20:19Z</time>
      </trkpt>
      <trkpt lat="47.80956" lon="6.78078">
        <ele>932.221619</ele>
        <time>2018-05-26T13:20:20Z</time>
      </trkpt>
      <trkpt lat="47.80951" lon="6.78074">
        <ele>931.983887</ele>
        <time>2018-05-26T13:20:21Z</time>
      </trkpt>
      <trkpt lat="47.80946" lon="6.78071">
        <ele>931.84845</ele>
        <time>2018-05-26T13:20:22Z</time>
      </trkpt>
      <trkpt lat="47.80942" lon="6.78066">
        <ele>931.735596</ele>
        <time>2018-05-26T13:20:23Z</time>
      </trkpt>
      <trkpt lat="47.80938" lon="6.78062">
        <ele>931.627014</ele>
        <time>2018-05-26T13:20:24Z</time>
      </trkpt>
      <trkpt lat="47.80934" lon="6.78059">
        <ele>931.611267</ele>
        <time>2018-05-26T13:20:25Z</time>
      </trkpt>
      <trkpt lat="47.8093" lon="6.78055">
        <ele>931.611267</ele>
        <time>2018-05-26T13:20:26Z</time>
      </trkpt>
      <trkpt lat="47.80927" lon="6.78051">
        <ele>931.666687</ele>
        <time>2018-05-26T13:20:27Z</time>
      </trkpt>
      <trkpt lat="47.80923" lon="6.78047">
        <ele>931.736084</ele>
        <time>2018-05-26T13:20:28Z</time>
      </trkpt>
      <trkpt lat="47.80919" lon="6.78044">
        <ele>931.829773</ele>
        <time>2018-05-26T13:20:29Z</time>
      </trkpt>
      <trkpt lat="47.80916" lon="6.7804">
        <ele>932.009949</ele>
        <time>2018-05-26T13:20:30Z</time>
      </trkpt>
      <trkpt lat="47.80912" lon="6.78038">
        <ele>932.135254</ele>
        <time>2018-05-26T13:20:31Z</time>
      </trkpt>
      <trkpt lat="47.80908" lon="6.78035">
        <ele>932.250183</ele>
        <time>2018-05-26T13:20:32Z</time>
      </trkpt>
      <trkpt lat="47.80905" lon="6.78031">
        <ele>932.385254</ele>
        <time>2018-05-26T13:20:33Z</time>
      </trkpt>
      <trkpt lat="47.80902" lon="6.78026">
        <ele>932.462097</ele>
        <time>2018-05-26T13:20:34Z</time>
      </trkpt>
      <trkpt lat="47.80898" lon="6.78023">
        <ele>932.538879</ele>
        <time>2018-05-26T13:20:35Z</time>
      </trkpt>
      <trkpt lat="47.80894" lon="6.78019">
        <ele>932.654846</ele>
        <time>2018-05-26T13:20:36Z</time>
      </trkpt>
      <trkpt lat="47.80891" lon="6.78015">
        <ele>932.725586</ele>
        <time>2018-05-26T13:20:37Z</time>
      </trkpt>
      <trkpt lat="47.80887" lon="6.78011">
        <ele>932.79425</ele>
        <time>2018-05-26T13:20:38Z</time>
      </trkpt>
      <trkpt lat="47.80884" lon="6.78007">
        <ele>932.903748</ele>
        <time>2018-05-26T13:20:39Z</time>
      </trkpt>
      <trkpt lat="47.8088" lon="6.78003">
        <ele>932.978271</ele>
        <time>2018-05-26T13:20:40Z</time>
      </trkpt>
      <trkpt lat="47.80877" lon="6.77999">
        <ele>933.051575</ele>
        <time>2018-05-26T13:20:41Z</time>
      </trkpt>
      <trkpt lat="47.80874" lon="6.77994">
        <ele>933.156494</ele>
        <time>2018-05-26T13:20:42Z</time>
      </trkpt>
      <trkpt lat="47.80871" lon="6.77989">
        <ele>933.220459</ele>
        <time>2018-05-26T13:20:43Z</time>
      </trkpt>
      <trkpt lat="47.80868" lon="6.77984">
        <ele>933.273682</ele>
        <time>2018-05-26T13:20:44Z</time>
      </trkpt>
      <trkpt lat="47.80865" lon="6.77978">
        <ele>933.328064</ele>
        <time>2018-05-26T13:20:45Z</time>
      </trkpt>
      <trkpt lat="47.80862" lon="6.77972">
        <ele>933.356018</ele>
        <time>2018-05-26T13:20:46Z</time>
      </trkpt>
      <trkpt lat="47.8086" lon="6.77966">
        <ele>933.387634</ele>
        <time>2018-05-26T13:20:47Z</time>
      </trkpt>
      <trkpt lat="47.80858" lon="6.77959">
        <ele>933.421814</ele>
        <time>2018-05-26T13:20:48Z</time>
      </trkpt>
      <trkpt lat="47.80854" lon="6.77954">
        <ele>933.452942</ele>
        <time>2018-05-26T13:20:49Z</time>
      </trkpt>
      <trkpt lat="47.80851" lon="6.77948">
        <ele>933.459656</ele>
        <time>2018-05-26T13:20:50Z</time>
      </trkpt>
      <trkpt lat="47.80849" lon="6.77943">
        <ele>933.472168</ele>
        <time>2018-05-26T13:20:51Z</time>
      </trkpt>
      <trkpt lat="47.80846" lon="6.77937">
        <ele>933.513428</ele>
        <time>2018-05-26T13:20:52Z</time>
      </trkpt>
      <trkpt lat="47.80843" lon="6.77931">
        <ele>933.545593</ele>
        <time>2018-05-26T13:20:53Z</time>
      </trkpt>
      <trkpt lat="47.8084" lon="6.77926">
        <ele>933.568604</ele>
        <time>2018-05-26T13:20:54Z</time>
      </trkpt>
      <trkpt lat="47.80837" lon="6.77919">
        <ele>933.591553</ele>
        <time>2018-05-26T13:20:55Z</time>
      </trkpt>
      <trkpt lat="47.80834" lon="6.77913">
        <ele>933.610046</ele>
        <time>2018-05-26T13:20:56Z</time>
      </trkpt>
      <trkpt lat="47.80831" lon="6.77907">
        <ele>933.629456</ele>
        <time>2018-05-26T13:20:57Z</time>
      </trkpt>
      <trkpt lat="47.80829" lon="6.77901">
        <ele>933.656006</ele>
        <time>2018-05-26T13:20:58Z</time>
      </trkpt>
      <trkpt lat="47.80826" lon="6.77894">
        <ele>933.67157</ele>
        <time>2018-05-26T13:20:59Z</time>
      </trkpt>
      <trkpt lat="47.80824" lon="6.77888">
        <ele>933.691162</ele>
        <time>2018-05-26T13:21:00Z</time>
      </trkpt>
      <trkpt lat="47.80822" lon="6.77882">
        <ele>933.729675</ele>
        <time>2018-05-26T13:21:01Z</time>
      </trkpt>
      <trkpt lat="47.80821" lon="6.77876">
        <ele>933.762695</ele>
        <time>2018-05-26T13:21:02Z</time>
      </trkpt>
      <trkpt lat="47.80819" lon="6.7787">
        <ele>933.805725</ele>
        <time>2018-05-26T13:21:03Z</time>
      </trkpt>
      <trkpt lat="47.80817" lon="6.77864">
        <ele>933.900635</ele>
        <time>2018-05-26T13:21:04Z</time>
      </trkpt>
      <trkpt lat="47.80817" lon="6.77858">
        <ele>933.982605</ele>
        <time>2018-05-26T13:21:05Z</time>
      </trkpt>
      <trkpt lat="47.80817" lon="6.77852">
        <ele>934.074463</ele>
        <time>2018-05-26T13:21:06Z</time>
      </trkpt>
      <trkpt lat="47.80816" lon="6.77846">
        <ele>934.221741</ele>
        <time>2018-05-26T13:21:07Z</time>
      </trkpt>
      <trkpt lat="47.80815" lon="6.7784">
        <ele>934.271729</ele>
        <time>2018-05-26T13:21:08Z</time>
      </trkpt>
      <trkpt lat="47.80814" lon="6.77834">
        <ele>934.320862</ele>
        <time>2018-05-26T13:21:09Z</time>
      </trkpt>
      <trkpt lat="47.80813" lon="6.77829">
        <ele>934.412842</ele>
        <time>2018-05-26T13:21:10Z</time>
      </trkpt>
      <trkpt lat="47.80812" lon="6.77823">
        <ele>934.495605</ele>
        <time>2018-05-26T13:21:11Z</time>
      </trkpt>
      <trkpt lat="47.80811" lon="6.77818">
        <ele>934.607605</ele>
        <time>2018-05-26T13:21:12Z</time>
      </trkpt>
      <trkpt lat="47.8081" lon="6.77811">
        <ele>934.669373</ele>
        <time>2018-05-26T13:21:13Z</time>
      </trkpt>
      <trkpt lat="47.80809" lon="6.77804">
        <ele>934.707703</ele>
        <time>2018-05-26T13:21:14Z</time>
      </trkpt>
      <trkpt lat="47.80809" lon="6.77797">
        <ele>934.720947</ele>
        <time>2018-05-26T13:21:15Z</time>
      </trkpt>
      <trkpt lat="47.80808" lon="6.7779">
        <ele>934.718567</ele>
        <time>2018-05-26T13:21:16Z</time>
      </trkpt>
      <trkpt lat="47.80807" lon="6.77783">
        <ele>934.703125</ele>
        <time>2018-05-26T13:21:17Z</time>
      </trkpt>
      <trkpt lat="47.80808" lon="6.77776">
        <ele>934.679504</ele>
        <time>2018-05-26T13:21:18Z</time>
      </trkpt>
      <trkpt lat="47.80808" lon="6.7777">
        <ele>934.616516</ele>
        <time>2018-05-26T13:21:19Z</time>
      </trkpt>
      <trkpt lat="47.80809" lon="6.77763">
        <ele>934.558777</ele>
        <time>2018-05-26T13:21:20Z</time>
      </trkpt>
      <trkpt lat="47.80809" lon="6.77757">
        <ele>934.506104</ele>
        <time>2018-05-26T13:21:21Z</time>
      </trkpt>
      <trkpt lat="47.80811" lon="6.77751">
        <ele>934.457214</ele>
        <time>2018-05-26T13:21:22Z</time>
      </trkpt>
      <trkpt lat="47.80812" lon="6.77744">
        <ele>934.437805</ele>
        <time>2018-05-26T13:21:23Z</time>
      </trkpt>
      <trkpt lat="47.80814" lon="6.77738">
        <ele>934.414307</ele>
        <time>2018-05-26T13:21:24Z</time>
      </trkpt>
      <trkpt lat="47.80816" lon="6.77731">
        <ele>934.345459</ele>
        <time>2018-05-26T13:21:25Z</time>
      </trkpt>
      <trkpt lat="47.8082" lon="6.77726">
        <ele>934.273254</ele>
        <time>2018-05-26T13:21:26Z</time>
      </trkpt>
      <trkpt lat="47.80823" lon="6.7772">
        <ele>934.192627</ele>
        <time>2018-05-26T13:21:27Z</time>
      </trkpt>
      <trkpt lat="47.80826" lon="6.77715">
        <ele>934.064758</ele>
        <time>2018-05-26T13:21:28Z</time>
      </trkpt>
      <trkpt lat="47.80829" lon="6.77709">
        <ele>933.984802</ele>
        <time>2018-05-26T13:21:29Z</time>
      </trkpt>
      <trkpt lat="47.80833" lon="6.77704">
        <ele>933.911194</ele>
        <time>2018-05-26T13:21:30Z</time>
      </trkpt>
      <trkpt lat="47.80836" lon="6.77699">
        <ele>933.853027</ele>
        <time>2018-05-26T13:21:31Z</time>
      </trkpt>
      <trkpt lat="47.80839" lon="6.77694">
        <ele>933.804871</ele>
        <time>2018-05-26T13:21:32Z</time>
      </trkpt>
      <trkpt lat="47.80842" lon="6.77689">
        <ele>933.794617</ele>
        <time>2018-05-26T13:21:33Z</time>
      </trkpt>
      <trkpt lat="47.80845" lon="6.77684">
        <ele>933.794189</ele>
        <time>2018-05-26T13:21:34Z</time>
      </trkpt>
      <trkpt lat="47.80849" lon="6.77678">
        <ele>933.791443</ele>
        <time>2018-05-26T13:21:35Z</time>
      </trkpt>
      <trkpt lat="47.80852" lon="6.77673">
        <ele>933.7901</ele>
        <time>2018-05-26T13:21:36Z</time>
      </trkpt>
      <trkpt lat="47.80856" lon="6.77668">
        <ele>933.78302</ele>
        <time>2018-05-26T13:21:37Z</time>
      </trkpt>
      <trkpt lat="47.80859" lon="6.77664">
        <ele>933.750977</ele>
        <time>2018-05-26T13:21:38Z</time>
      </trkpt>
      <trkpt lat="47.80863" lon="6.7766">
        <ele>933.73175</ele>
        <time>2018-05-26T13:21:39Z</time>
      </trkpt>
      <trkpt lat="47.80867" lon="6.77656">
        <ele>933.724609</ele>
        <time>2018-05-26T13:21:40Z</time>
      </trkpt>
      <trkpt lat="47.8087" lon="6.77653">
        <ele>933.727051</ele>
        <time>2018-05-26T13:21:41Z</time>
      </trkpt>
      <trkpt lat="47.80874" lon="6.77649">
        <ele>933.743652</ele>
        <time>2018-05-26T13:21:42Z</time>
      </trkpt>
      <trkpt lat="47.80877" lon="6.77646">
        <ele>933.767395</ele>
        <time>2018-05-26T13:21:43Z</time>
      </trkpt>
      <trkpt lat="47.80881" lon="6.77642">
        <ele>933.805237</ele>
        <time>2018-05-26T13:21:44Z</time>
      </trkpt>
      <trkpt lat="47.80885" lon="6.77637">
        <ele>933.826965</ele>
        <time>2018-05-26T13:21:45Z</time>
      </trkpt>
      <trkpt lat="47.80889" lon="6.77634">
        <ele>933.851624</ele>
        <time>2018-05-26T13:21:46Z</time>
      </trkpt>
      <trkpt lat="47.80892" lon="6.7763">
        <ele>933.865784</ele>
        <time>2018-05-26T13:21:47Z</time>
      </trkpt>
      <trkpt lat="47.80896" lon="6.77626">
        <ele>933.881653</ele>
        <time>2018-05-26T13:21:48Z</time>
      </trkpt>
      <trkpt lat="47.80899" lon="6.77622">
        <ele>933.912537</ele>
        <time>2018-05-26T13:21:49Z</time>
      </trkpt>
      <trkpt lat="47.80903" lon="6.77619">
        <ele>933.94751</ele>
        <time>2018-05-26T13:21:50Z</time>
      </trkpt>
      <trkpt lat="47.80907" lon="6.77616">
        <ele>934.01416</ele>
        <time>2018-05-26T13:21:51Z</time>
      </trkpt>
      <trkpt lat="47.80911" lon="6.77613">
        <ele>934.185791</ele>
        <time>2018-05-26T13:21:52Z</time>
      </trkpt>
      <trkpt lat="47.80914" lon="6.77611">
        <ele>934.334961</ele>
        <time>2018-05-26T13:21:53Z</time>
      </trkpt>
      <trkpt lat="47.80917" lon="6.7761">
        <ele>934.494385</ele>
        <time>2018-05-26T13:21:54Z</time>
      </trkpt>
      <trkpt lat="47.8092" lon="6.77609">
        <ele>934.742371</ele>
        <time>2018-05-26T13:21:55Z</time>
      </trkpt>
      <trkpt lat="47.80924" lon="6.77608">
        <ele>934.912354</ele>
        <time>2018-05-26T13:21:56Z</time>
      </trkpt>
      <trkpt lat="47.80928" lon="6.77606">
        <ele>935.082092</ele>
        <time>2018-05-26T13:21:57Z</time>
      </trkpt>
      <trkpt lat="47.80933" lon="6.77604">
        <ele>935.299316</ele>
        <time>2018-05-26T13:21:58Z</time>
      </trkpt>
      <trkpt lat="47.80937" lon="6.77603">
        <ele>935.412842</ele>
        <time>2018-05-26T13:21:59Z</time>
      </trkpt>
      <trkpt lat="47.80941" lon="6.77602">
        <ele>935.497009</ele>
        <time>2018-05-26T13:22:00Z</time>
      </trkpt>
      <trkpt lat="47.80946" lon="6.77602">
        <ele>935.577637</ele>
        <time>2018-05-26T13:22:01Z</time>
      </trkpt>
      <trkpt lat="47.80951" lon="6.776">
        <ele>935.596924</ele>
        <time>2018-05-26T13:22:02Z</time>
      </trkpt>
      <trkpt lat="47.80955" lon="6.77599">
        <ele>935.597412</ele>
        <time>2018-05-26T13:22:03Z</time>
      </trkpt>
      <trkpt lat="47.80959" lon="6.77598">
        <ele>935.588928</ele>
        <time>2018-05-26T13:22:04Z</time>
      </trkpt>
      <trkpt lat="47.80964" lon="6.77596">
        <ele>935.5849</ele>
        <time>2018-05-26T13:22:05Z</time>
      </trkpt>
      <trkpt lat="47.80967" lon="6.77594">
        <ele>935.585693</ele>
        <time>2018-05-26T13:22:06Z</time>
      </trkpt>
      <trkpt lat="47.80971" lon="6.77591">
        <ele>935.626709</ele>
        <time>2018-05-26T13:22:07Z</time>
      </trkpt>
      <trkpt lat="47.80975" lon="6.77586">
        <ele>935.68335</ele>
        <time>2018-05-26T13:22:08Z</time>
      </trkpt>
      <trkpt lat="47.80978" lon="6.77582">
        <ele>935.717712</ele>
        <time>2018-05-26T13:22:09Z</time>
      </trkpt>
      <trkpt lat="47.8098" lon="6.77578">
        <ele>935.75415</ele>
        <time>2018-05-26T13:22:10Z</time>
      </trkpt>
      <trkpt lat="47.80983" lon="6.77574">
        <ele>935.831299</ele>
        <time>2018-05-26T13:22:11Z</time>
      </trkpt>
      <trkpt lat="47.80985" lon="6.77569">
        <ele>935.909424</ele>
        <time>2018-05-26T13:22:12Z</time>
      </trkpt>
      <trkpt lat="47.80988" lon="6.77563">
        <ele>935.978699</ele>
        <time>2018-05-26T13:22:13Z</time>
      </trkpt>
      <trkpt lat="47.8099" lon="6.77558">
        <ele>936.055359</ele>
        <time>2018-05-26T13:22:14Z</time>
      </trkpt>
      <trkpt lat="47.80992" lon="6.77554">
        <ele>936.083313</ele>
        <time>2018-05-26T13:22:15Z</time>
      </trkpt>
      <trkpt lat="47.80994" lon="6.77549">
        <ele>936.101257</ele>
        <time>2018-05-26T13:22:16Z</time>
      </trkpt>
      <trkpt lat="47.80996" lon="6.77544">
        <ele>936.128235</ele>
        <time>2018-05-26T13:22:17Z</time>
      </trkpt>
      <trkpt lat="47.80998" lon="6.77538">
        <ele>936.141113</ele>
        <time>2018-05-26T13:22:18Z</time>
      </trkpt>
      <trkpt lat="47.81001" lon="6.77532">
        <ele>936.141296</ele>
        <time>2018-05-26T13:22:19Z</time>
      </trkpt>
      <trkpt lat="47.81003" lon="6.77526">
        <ele>936.123047</ele>
        <time>2018-05-26T13:22:20Z</time>
      </trkpt>
      <trkpt lat="47.81006" lon="6.77519">
        <ele>936.088135</ele>
        <time>2018-05-26T13:22:21Z</time>
      </trkpt>
      <trkpt lat="47.81007" lon="6.77513">
        <ele>936.048584</ele>
        <time>2018-05-26T13:22:22Z</time>
      </trkpt>
      <trkpt lat="47.8101" lon="6.77507">
        <ele>935.982666</ele>
        <time>2018-05-26T13:22:23Z</time>
      </trkpt>
      <trkpt lat="47.81012" lon="6.77501">
        <ele>935.930908</ele>
        <time>2018-05-26T13:22:24Z</time>
      </trkpt>
      <trkpt lat="47.81014" lon="6.77496">
        <ele>935.877441</ele>
        <time>2018-05-26T13:22:25Z</time>
      </trkpt>
      <trkpt lat="47.81016" lon="6.7749">
        <ele>935.845032</ele>
        <time>2018-05-26T13:22:26Z</time>
      </trkpt>
      <trkpt lat="47.81018" lon="6.77484">
        <ele>935.842102</ele>
        <time>2018-05-26T13:22:27Z</time>
      </trkpt>
      <trkpt lat="47.8102" lon="6.77478">
        <ele>935.867371</ele>
        <time>2018-05-26T13:22:28Z</time>
      </trkpt>
      <trkpt lat="47.81022" lon="6.77472">
        <ele>935.930969</ele>
        <time>2018-05-26T13:22:29Z</time>
      </trkpt>
      <trkpt lat="47.81023" lon="6.77466">
        <ele>936.059875</ele>
        <time>2018-05-26T13:22:30Z</time>
      </trkpt>
      <trkpt lat="47.81024" lon="6.7746">
        <ele>936.155701</ele>
        <time>2018-05-26T13:22:31Z</time>
      </trkpt>
      <trkpt lat="47.81025" lon="6.77454">
        <ele>936.261536</ele>
        <time>2018-05-26T13:22:32Z</time>
      </trkpt>
      <trkpt lat="47.81025" lon="6.77447">
        <ele>936.423645</ele>
        <time>2018-05-26T13:22:33Z</time>
      </trkpt>
      <trkpt lat="47.81026" lon="6.7744">
        <ele>936.511902</ele>
        <time>2018-05-26T13:22:34Z</time>
      </trkpt>
      <trkpt lat="47.81027" lon="6.77433">
        <ele>936.56665</ele>
        <time>2018-05-26T13:22:35Z</time>
      </trkpt>
      <trkpt lat="47.81029" lon="6.77427">
        <ele>936.591736</ele>
        <time>2018-05-26T13:22:36Z</time>
      </trkpt>
      <trkpt lat="47.8103" lon="6.77421">
        <ele>936.602295</ele>
        <time>2018-05-26T13:22:37Z</time>
      </trkpt>
      <trkpt lat="47.81032" lon="6.77415">
        <ele>936.611633</ele>
        <time>2018-05-26T13:22:38Z</time>
      </trkpt>
      <trkpt lat="47.81035" lon="6.7741">
        <ele>936.631775</ele>
        <time>2018-05-26T13:22:39Z</time>
      </trkpt>
      <trkpt lat="47.81037" lon="6.77404">
        <ele>936.69751</ele>
        <time>2018-05-26T13:22:40Z</time>
      </trkpt>
      <trkpt lat="47.81039" lon="6.77398">
        <ele>936.772888</ele>
        <time>2018-05-26T13:22:41Z</time>
      </trkpt>
      <trkpt lat="47.81041" lon="6.77393">
        <ele>936.876282</ele>
        <time>2018-05-26T13:22:42Z</time>
      </trkpt>
      <trkpt lat="47.81044" lon="6.77388">
        <ele>936.994446</ele>
        <time>2018-05-26T13:22:43Z</time>
      </trkpt>
      <trkpt lat="47.81046" lon="6.77383">
        <ele>937.114075</ele>
        <time>2018-05-26T13:22:44Z</time>
      </trkpt>
      <trkpt lat="47.81048" lon="6.77378">
        <ele>937.289551</ele>
        <time>2018-05-26T13:22:45Z</time>
      </trkpt>
      <trkpt lat="47.8105" lon="6.77373">
        <ele>937.408203</ele>
        <time>2018-05-26T13:22:46Z</time>
      </trkpt>
      <trkpt lat="47.81052" lon="6.77369">
        <ele>937.524109</ele>
        <time>2018-05-26T13:22:47Z</time>
      </trkpt>
      <trkpt lat="47.81054" lon="6.77364">
        <ele>937.690735</ele>
        <time>2018-05-26T13:22:48Z</time>
      </trkpt>
      <trkpt lat="47.81056" lon="6.7736">
        <ele>937.804504</ele>
        <time>2018-05-26T13:22:49Z</time>
      </trkpt>
      <trkpt lat="47.81059" lon="6.77355">
        <ele>937.930481</ele>
        <time>2018-05-26T13:22:50Z</time>
      </trkpt>
      <trkpt lat="47.8106" lon="6.77351">
        <ele>938.072449</ele>
        <time>2018-05-26T13:22:51Z</time>
      </trkpt>
      <trkpt lat="47.81062" lon="6.77348">
        <ele>938.319092</ele>
        <time>2018-05-26T13:22:52Z</time>
      </trkpt>
      <trkpt lat="47.81063" lon="6.77344">
        <ele>938.509949</ele>
        <time>2018-05-26T13:22:53Z</time>
      </trkpt>
      <trkpt lat="47.81064" lon="6.77339">
        <ele>938.724304</ele>
        <time>2018-05-26T13:22:54Z</time>
      </trkpt>
      <trkpt lat="47.81065" lon="6.77336">
        <ele>939.072815</ele>
        <time>2018-05-26T13:22:55Z</time>
      </trkpt>
      <trkpt lat="47.81067" lon="6.77332">
        <ele>939.304626</ele>
        <time>2018-05-26T13:22:56Z</time>
      </trkpt>
      <trkpt lat="47.81068" lon="6.77328">
        <ele>939.520325</ele>
        <time>2018-05-26T13:22:57Z</time>
      </trkpt>
      <trkpt lat="47.8107" lon="6.77324">
        <ele>939.808777</ele>
        <time>2018-05-26T13:22:58Z</time>
      </trkpt>
      <trkpt lat="47.81072" lon="6.7732">
        <ele>939.981018</ele>
        <time>2018-05-26T13:22:59Z</time>
      </trkpt>
      <trkpt lat="47.81073" lon="6.77316">
        <ele>940.138123</ele>
        <time>2018-05-26T13:23:00Z</time>
      </trkpt>
      <trkpt lat="47.81075" lon="6.77311">
        <ele>940.343811</ele>
        <time>2018-05-26T13:23:01Z</time>
      </trkpt>
      <trkpt lat="47.81076" lon="6.77307">
        <ele>940.463074</ele>
        <time>2018-05-26T13:23:02Z</time>
      </trkpt>
      <trkpt lat="47.81078" lon="6.77302">
        <ele>940.571716</ele>
        <time>2018-05-26T13:23:03Z</time>
      </trkpt>
      <trkpt lat="47.81081" lon="6.77298">
        <ele>940.670593</ele>
        <time>2018-05-26T13:23:04Z</time>
      </trkpt>
      <trkpt lat="47.81083" lon="6.77293">
        <ele>940.800049</ele>
        <time>2018-05-26T13:23:05Z</time>
      </trkpt>
      <trkpt lat="47.81084" lon="6.77288">
        <ele>940.869324</ele>
        <time>2018-05-26T13:23:06Z</time>
      </trkpt>
      <trkpt lat="47.81086" lon="6.77283">
        <ele>940.924133</ele>
        <time>2018-05-26T13:23:07Z</time>
      </trkpt>
      <trkpt lat="47.81087" lon="6.77278">
        <ele>940.984924</ele>
        <time>2018-05-26T13:23:08Z</time>
      </trkpt>
      <trkpt lat="47.81088" lon="6.77274">
        <ele>941.000427</ele>
        <time>2018-05-26T13:23:09Z</time>
      </trkpt>
      <trkpt lat="47.8109" lon="6.7727">
        <ele>941.037109</ele>
        <time>2018-05-26T13:23:10Z</time>
      </trkpt>
      <trkpt lat="47.81092" lon="6.77265">
        <ele>941.060608</ele>
        <time>2018-05-26T13:23:11Z</time>
      </trkpt>
      <trkpt lat="47.81094" lon="6.77261">
        <ele>941.083557</ele>
        <time>2018-05-26T13:23:12Z</time>
      </trkpt>
      <trkpt lat="47.81096" lon="6.77257">
        <ele>941.114014</ele>
        <time>2018-05-26T13:23:13Z</time>
      </trkpt>
      <trkpt lat="47.81097" lon="6.77252">
        <ele>941.149475</ele>
        <time>2018-05-26T13:23:14Z</time>
      </trkpt>
      <trkpt lat="47.81099" lon="6.77248">
        <ele>941.215637</ele>
        <time>2018-05-26T13:23:15Z</time>
      </trkpt>
      <trkpt lat="47.81101" lon="6.77244">
        <ele>941.276917</ele>
        <time>2018-05-26T13:23:16Z</time>
      </trkpt>
      <trkpt lat="47.81102" lon="6.7724">
        <ele>941.363525</ele>
        <time>2018-05-26T13:23:17Z</time>
      </trkpt>
      <trkpt lat="47.81104" lon="6.77237">
        <ele>941.548157</ele>
        <time>2018-05-26T13:23:18Z</time>
      </trkpt>
      <trkpt lat="47.81105" lon="6.77233">
        <ele>941.70929</ele>
        <time>2018-05-26T13:23:19Z</time>
      </trkpt>
      <trkpt lat="47.81106" lon="6.7723">
        <ele>941.90741</ele>
        <time>2018-05-26T13:23:20Z</time>
      </trkpt>
      <trkpt lat="47.81107" lon="6.77226">
        <ele>942.27002</ele>
        <time>2018-05-26T13:23:21Z</time>
      </trkpt>
      <trkpt lat="47.81109" lon="6.77222">
        <ele>942.53656</ele>
        <time>2018-05-26T13:23:22Z</time>
      </trkpt>
      <trkpt lat="47.8111" lon="6.77219">
        <ele>942.803162</ele>
        <time>2018-05-26T13:23:23Z</time>
      </trkpt>
      <trkpt lat="47.81112" lon="6.77215">
        <ele>943.184631</ele>
        <time>2018-05-26T13:23:24Z</time>
      </trkpt>
      <trkpt lat="47.81113" lon="6.77212">
        <ele>943.420837</ele>
        <time>2018-05-26T13:23:25Z</time>
      </trkpt>
      <trkpt lat="47.81114" lon="6.77208">
        <ele>943.640381</ele>
        <time>2018-05-26T13:23:26Z</time>
      </trkpt>
      <trkpt lat="47.81114" lon="6.77205">
        <ele>943.939514</ele>
        <time>2018-05-26T13:23:27Z</time>
      </trkpt>
      <trkpt lat="47.81115" lon="6.77201">
        <ele>944.121155</ele>
        <time>2018-05-26T13:23:28Z</time>
      </trkpt>
      <trkpt lat="47.81116" lon="6.77197">
        <ele>944.296204</ele>
        <time>2018-05-26T13:23:29Z</time>
      </trkpt>
      <trkpt lat="47.81117" lon="6.77193">
        <ele>944.555908</ele>
        <time>2018-05-26T13:23:30Z</time>
      </trkpt>
      <trkpt lat="47.81118" lon="6.77189">
        <ele>944.724792</ele>
        <time>2018-05-26T13:23:31Z</time>
      </trkpt>
      <trkpt lat="47.81119" lon="6.77185">
        <ele>944.889343</ele>
        <time>2018-05-26T13:23:32Z</time>
      </trkpt>
      <trkpt lat="47.81119" lon="6.77181">
        <ele>945.134949</ele>
        <time>2018-05-26T13:23:33Z</time>
      </trkpt>
      <trkpt lat="47.81119" lon="6.77178">
        <ele>945.301758</ele>
        <time>2018-05-26T13:23:34Z</time>
      </trkpt>
      <trkpt lat="47.81119" lon="6.77174">
        <ele>945.475281</ele>
        <time>2018-05-26T13:23:35Z</time>
      </trkpt>
      <trkpt lat="47.81119" lon="6.77171">
        <ele>945.654968</ele>
        <time>2018-05-26T13:23:36Z</time>
      </trkpt>
      <trkpt lat="47.8112" lon="6.77168">
        <ele>945.924988</ele>
        <time>2018-05-26T13:23:37Z</time>
      </trkpt>
      <trkpt lat="47.8112" lon="6.77164">
        <ele>946.097412</ele>
        <time>2018-05-26T13:23:38Z</time>
      </trkpt>
      <trkpt lat="47.8112" lon="6.77161">
        <ele>946.257507</ele>
        <time>2018-05-26T13:23:39Z</time>
      </trkpt>
      <trkpt lat="47.8112" lon="6.77157">
        <ele>946.471985</ele>
        <time>2018-05-26T13:23:40Z</time>
      </trkpt>
      <trkpt lat="47.81121" lon="6.77153">
        <ele>946.603577</ele>
        <time>2018-05-26T13:23:41Z</time>
      </trkpt>
      <trkpt lat="47.81121" lon="6.77149">
        <ele>946.728943</ele>
        <time>2018-05-26T13:23:42Z</time>
      </trkpt>
      <trkpt lat="47.81121" lon="6.77144">
        <ele>946.89679</ele>
        <time>2018-05-26T13:23:43Z</time>
      </trkpt>
      <trkpt lat="47.8112" lon="6.77139">
        <ele>946.98822</ele>
        <time>2018-05-26T13:23:44Z</time>
      </trkpt>
      <trkpt lat="47.8112" lon="6.77135">
        <ele>947.058533</ele>
        <time>2018-05-26T13:23:45Z</time>
      </trkpt>
      <trkpt lat="47.81118" lon="6.7713">
        <ele>947.092224</ele>
        <time>2018-05-26T13:23:46Z</time>
      </trkpt>
      <trkpt lat="47.81116" lon="6.77126">
        <ele>947.091248</ele>
        <time>2018-05-26T13:23:47Z</time>
      </trkpt>
      <trkpt lat="47.81114" lon="6.77124">
        <ele>947.047913</ele>
        <time>2018-05-26T13:23:48Z</time>
      </trkpt>
      <trkpt lat="47.81112" lon="6.77122">
        <ele>946.897644</ele>
        <time>2018-05-26T13:23:49Z</time>
      </trkpt>
      <trkpt lat="47.8111" lon="6.77119">
        <ele>946.761414</ele>
        <time>2018-05-26T13:23:50Z</time>
      </trkpt>
      <trkpt lat="47.81108" lon="6.77117">
        <ele>946.616272</ele>
        <time>2018-05-26T13:23:51Z</time>
      </trkpt>
      <trkpt lat="47.81105" lon="6.77115">
        <ele>946.421814</ele>
        <time>2018-05-26T13:23:52Z</time>
      </trkpt>
      <trkpt lat="47.81104" lon="6.77113">
        <ele>946.341125</ele>
        <time>2018-05-26T13:23:53Z</time>
      </trkpt>
      <trkpt lat="47.81101" lon="6.77111">
        <ele>946.311951</ele>
        <time>2018-05-26T13:23:54Z</time>
      </trkpt>
      <trkpt lat="47.81099" lon="6.77109">
        <ele>946.311951</ele>
        <time>2018-05-26T13:23:55Z</time>
      </trkpt>
      <trkpt lat="47.81097" lon="6.77107">
        <ele>946.344543</ele>
        <time>2018-05-26T13:23:56Z</time>
      </trkpt>
      <trkpt lat="47.81094" lon="6.77106">
        <ele>946.406738</ele>
        <time>2018-05-26T13:23:57Z</time>
      </trkpt>
      <trkpt lat="47.81093" lon="6.77103">
        <ele>946.566589</ele>
        <time>2018-05-26T13:23:58Z</time>
      </trkpt>
      <trkpt lat="47.81092" lon="6.77101">
        <ele>946.711243</ele>
        <time>2018-05-26T13:23:59Z</time>
      </trkpt>
      <trkpt lat="47.81091" lon="6.77098">
        <ele>946.870605</ele>
        <time>2018-05-26T13:24:00Z</time>
      </trkpt>
      <trkpt lat="47.8109" lon="6.77095">
        <ele>947.12323</ele>
        <time>2018-05-26T13:24:01Z</time>
      </trkpt>
      <trkpt lat="47.81089" lon="6.77093">
        <ele>947.298584</ele>
        <time>2018-05-26T13:24:02Z</time>
      </trkpt>
      <trkpt lat="47.81088" lon="6.7709">
        <ele>947.470276</ele>
        <time>2018-05-26T13:24:03Z</time>
      </trkpt>
      <trkpt lat="47.81088" lon="6.77088">
        <ele>947.69574</ele>
        <time>2018-05-26T13:24:04Z</time>
      </trkpt>
      <trkpt lat="47.81088" lon="6.77085">
        <ele>947.819885</ele>
        <time>2018-05-26T13:24:05Z</time>
      </trkpt>
      <trkpt lat="47.81087" lon="6.77082">
        <ele>947.926514</ele>
        <time>2018-05-26T13:24:06Z</time>
      </trkpt>
      <trkpt lat="47.81086" lon="6.77078">
        <ele>948.021729</ele>
        <time>2018-05-26T13:24:07Z</time>
      </trkpt>
      <trkpt lat="47.81085" lon="6.77075">
        <ele>948.111023</ele>
        <time>2018-05-26T13:24:08Z</time>
      </trkpt>
      <trkpt lat="47.81084" lon="6.77071">
        <ele>948.246094</ele>
        <time>2018-05-26T13:24:09Z</time>
      </trkpt>
      <trkpt lat="47.81084" lon="6.77068">
        <ele>948.291687</ele>
        <time>2018-05-26T13:24:10Z</time>
      </trkpt>
      <trkpt lat="47.81083" lon="6.77064">
        <ele>948.337463</ele>
        <time>2018-05-26T13:24:11Z</time>
      </trkpt>
      <trkpt lat="47.81083" lon="6.77061">
        <ele>948.428284</ele>
        <time>2018-05-26T13:24:12Z</time>
      </trkpt>
      <trkpt lat="47.81081" lon="6.77057">
        <ele>948.513855</ele>
        <time>2018-05-26T13:24:13Z</time>
      </trkpt>
      <trkpt lat="47.81081" lon="6.77054">
        <ele>948.631775</ele>
        <time>2018-05-26T13:24:14Z</time>
      </trkpt>
      <trkpt lat="47.8108" lon="6.7705">
        <ele>948.7005</ele>
        <time>2018-05-26T13:24:15Z</time>
      </trkpt>
      <trkpt lat="47.81078" lon="6.77047">
        <ele>948.758606</ele>
        <time>2018-05-26T13:24:16Z</time>
      </trkpt>
      <trkpt lat="47.81078" lon="6.77043">
        <ele>948.822449</ele>
        <time>2018-05-26T13:24:17Z</time>
      </trkpt>
      <trkpt lat="47.81076" lon="6.77039">
        <ele>948.85376</ele>
        <time>2018-05-26T13:24:18Z</time>
      </trkpt>
      <trkpt lat="47.81075" lon="6.77035">
        <ele>948.876526</ele>
        <time>2018-05-26T13:24:19Z</time>
      </trkpt>
      <trkpt lat="47.81073" lon="6.77032">
        <ele>948.901184</ele>
        <time>2018-05-26T13:24:20Z</time>
      </trkpt>
      <trkpt lat="47.81073" lon="6.77028">
        <ele>948.910828</ele>
        <time>2018-05-26T13:24:21Z</time>
      </trkpt>
      <trkpt lat="47.81072" lon="6.77024">
        <ele>948.919189</ele>
        <time>2018-05-26T13:24:22Z</time>
      </trkpt>
      <trkpt lat="47.81071" lon="6.7702">
        <ele>948.929626</ele>
        <time>2018-05-26T13:24:23Z</time>
      </trkpt>
      <trkpt lat="47.81069" lon="6.77017">
        <ele>948.956787</ele>
        <time>2018-05-26T13:24:24Z</time>
      </trkpt>
      <trkpt lat="47.81068" lon="6.77013">
        <ele>948.98468</ele>
        <time>2018-05-26T13:24:25Z</time>
      </trkpt>
      <trkpt lat="47.81067" lon="6.7701">
        <ele>949.023865</ele>
        <time>2018-05-26T13:24:26Z</time>
      </trkpt>
      <trkpt lat="47.81065" lon="6.77007">
        <ele>949.105469</ele>
        <time>2018-05-26T13:24:27Z</time>
      </trkpt>
      <trkpt lat="47.81064" lon="6.77004">
        <ele>949.175964</ele>
        <time>2018-05-26T13:24:28Z</time>
      </trkpt>
      <trkpt lat="47.81062" lon="6.77002">
        <ele>949.257385</ele>
        <time>2018-05-26T13:24:29Z</time>
      </trkpt>
      <trkpt lat="47.81059" lon="6.76999">
        <ele>949.408997</ele>
        <time>2018-05-26T13:24:30Z</time>
      </trkpt>
      <trkpt lat="47.81058" lon="6.76997">
        <ele>949.53363</ele>
        <time>2018-05-26T13:24:31Z</time>
      </trkpt>
      <trkpt lat="47.81056" lon="6.76994">
        <ele>949.675598</ele>
        <time>2018-05-26T13:24:32Z</time>
      </trkpt>
      <trkpt lat="47.81054" lon="6.76992">
        <ele>949.900635</ele>
        <time>2018-05-26T13:24:33Z</time>
      </trkpt>
      <trkpt lat="47.81052" lon="6.76989">
        <ele>950.048767</ele>
        <time>2018-05-26T13:24:34Z</time>
      </trkpt>
      <trkpt lat="47.81049" lon="6.76987">
        <ele>950.199036</ele>
        <time>2018-05-26T13:24:35Z</time>
      </trkpt>
      <trkpt lat="47.81047" lon="6.76985">
        <ele>950.433411</ele>
        <time>2018-05-26T13:24:36Z</time>
      </trkpt>
      <trkpt lat="47.81045" lon="6.76983">
        <ele>950.591492</ele>
        <time>2018-05-26T13:24:37Z</time>
      </trkpt>
      <trkpt lat="47.81043" lon="6.76981">
        <ele>950.745667</ele>
        <time>2018-05-26T13:24:38Z</time>
      </trkpt>
      <trkpt lat="47.81041" lon="6.7698">
        <ele>950.981934</ele>
        <time>2018-05-26T13:24:39Z</time>
      </trkpt>
      <trkpt lat="47.81038" lon="6.76978">
        <ele>951.14502</ele>
        <time>2018-05-26T13:24:40Z</time>
      </trkpt>
      <trkpt lat="47.81036" lon="6.76976">
        <ele>951.305176</ele>
        <time>2018-05-26T13:24:41Z</time>
      </trkpt>
      <trkpt lat="47.81034" lon="6.76975">
        <ele>951.531555</ele>
        <time>2018-05-26T13:24:42Z</time>
      </trkpt>
      <trkpt lat="47.81032" lon="6.76973">
        <ele>951.677063</ele>
        <time>2018-05-26T13:24:43Z</time>
      </trkpt>
      <trkpt lat="47.8103" lon="6.76972">
        <ele>951.824402</ele>
        <time>2018-05-26T13:24:44Z</time>
      </trkpt>
      <trkpt lat="47.81027" lon="6.76971">
        <ele>952.052917</ele>
        <time>2018-05-26T13:24:45Z</time>
      </trkpt>
      <trkpt lat="47.81025" lon="6.76969">
        <ele>952.198792</ele>
        <time>2018-05-26T13:24:46Z</time>
      </trkpt>
      <trkpt lat="47.81023" lon="6.76968">
        <ele>952.336121</ele>
        <time>2018-05-26T13:24:47Z</time>
      </trkpt>
      <trkpt lat="47.8102" lon="6.76967">
        <ele>952.51709</ele>
        <time>2018-05-26T13:24:48Z</time>
      </trkpt>
      <trkpt lat="47.81017" lon="6.76965">
        <ele>952.616028</ele>
        <time>2018-05-26T13:24:49Z</time>
      </trkpt>
      <trkpt lat="47.81015" lon="6.76963">
        <ele>952.69873</ele>
        <time>2018-05-26T13:24:50Z</time>
      </trkpt>
      <trkpt lat="47.81013" lon="6.76962">
        <ele>952.798584</ele>
        <time>2018-05-26T13:24:51Z</time>
      </trkpt>
      <trkpt lat="47.8101" lon="6.76961">
        <ele>952.859436</ele>
        <time>2018-05-26T13:24:52Z</time>
      </trkpt>
      <trkpt lat="47.81008" lon="6.76959">
        <ele>952.93042</ele>
        <time>2018-05-26T13:24:53Z</time>
      </trkpt>
      <trkpt lat="47.81006" lon="6.76958">
        <ele>953.069397</ele>
        <time>2018-05-26T13:24:54Z</time>
      </trkpt>
      <trkpt lat="47.81004" lon="6.76956">
        <ele>953.180359</ele>
        <time>2018-05-26T13:24:55Z</time>
      </trkpt>
      <trkpt lat="47.81002" lon="6.76954">
        <ele>953.297363</ele>
        <time>2018-05-26T13:24:56Z</time>
      </trkpt>
      <trkpt lat="47.81" lon="6.76953">
        <ele>953.475891</ele>
        <time>2018-05-26T13:24:57Z</time>
      </trkpt>
      <trkpt lat="47.80997" lon="6.76951">
        <ele>953.59259</ele>
        <time>2018-05-26T13:24:58Z</time>
      </trkpt>
      <trkpt lat="47.80995" lon="6.76949">
        <ele>953.710449</ele>
        <time>2018-05-26T13:24:59Z</time>
      </trkpt>
      <trkpt lat="47.80993" lon="6.76948">
        <ele>953.890564</ele>
        <time>2018-05-26T13:25:00Z</time>
      </trkpt>
      <trkpt lat="47.80991" lon="6.76946">
        <ele>954.019348</ele>
        <time>2018-05-26T13:25:01Z</time>
      </trkpt>
      <trkpt lat="47.80989" lon="6.76944">
        <ele>954.151611</ele>
        <time>2018-05-26T13:25:02Z</time>
      </trkpt>
      <trkpt lat="47.80986" lon="6.76942">
        <ele>954.342773</ele>
        <time>2018-05-26T13:25:03Z</time>
      </trkpt>
      <trkpt lat="47.80984" lon="6.7694">
        <ele>954.463074</ele>
        <time>2018-05-26T13:25:04Z</time>
      </trkpt>
      <trkpt lat="47.80982" lon="6.76938">
        <ele>954.583679</ele>
        <time>2018-05-26T13:25:05Z</time>
      </trkpt>
      <trkpt lat="47.8098" lon="6.76936">
        <ele>954.758789</ele>
        <time>2018-05-26T13:25:06Z</time>
      </trkpt>
      <trkpt lat="47.80978" lon="6.76934">
        <ele>954.866211</ele>
        <time>2018-05-26T13:25:07Z</time>
      </trkpt>
      <trkpt lat="47.80977" lon="6.76932">
        <ele>954.966248</ele>
        <time>2018-05-26T13:25:08Z</time>
      </trkpt>
      <trkpt lat="47.80975" lon="6.76929">
        <ele>955.118896</ele>
        <time>2018-05-26T13:25:09Z</time>
      </trkpt>
      <trkpt lat="47.80974" lon="6.76927">
        <ele>955.170837</ele>
        <time>2018-05-26T13:25:10Z</time>
      </trkpt>
      <trkpt lat="47.80973" lon="6.76923">
        <ele>955.223389</ele>
        <time>2018-05-26T13:25:11Z</time>
      </trkpt>
      <trkpt lat="47.80971" lon="6.76921">
        <ele>955.329529</ele>
        <time>2018-05-26T13:25:12Z</time>
      </trkpt>
      <trkpt lat="47.8097" lon="6.76918">
        <ele>955.488953</ele>
        <time>2018-05-26T13:25:13Z</time>
      </trkpt>
      <trkpt lat="47.80969" lon="6.76915">
        <ele>955.604065</ele>
        <time>2018-05-26T13:25:14Z</time>
      </trkpt>
      <trkpt lat="47.80967" lon="6.76912">
        <ele>955.731628</ele>
        <time>2018-05-26T13:25:15Z</time>
      </trkpt>
      <trkpt lat="47.80967" lon="6.76909">
        <ele>955.948486</ele>
        <time>2018-05-26T13:25:16Z</time>
      </trkpt>
      <trkpt lat="47.80965" lon="6.76907">
        <ele>956.106262</ele>
        <time>2018-05-26T13:25:17Z</time>
      </trkpt>
      <trkpt lat="47.80963" lon="6.76904">
        <ele>956.267517</ele>
        <time>2018-05-26T13:25:18Z</time>
      </trkpt>
      <trkpt lat="47.80962" lon="6.76901">
        <ele>956.424377</ele>
        <time>2018-05-26T13:25:19Z</time>
      </trkpt>
      <trkpt lat="47.8096" lon="6.76899">
        <ele>956.635193</ele>
        <time>2018-05-26T13:25:20Z</time>
      </trkpt>
      <trkpt lat="47.80958" lon="6.76896">
        <ele>956.767273</ele>
        <time>2018-05-26T13:25:21Z</time>
      </trkpt>
      <trkpt lat="47.80957" lon="6.76894">
        <ele>956.898499</ele>
        <time>2018-05-26T13:25:22Z</time>
      </trkpt>
      <trkpt lat="47.80955" lon="6.76893">
        <ele>957.032776</ele>
        <time>2018-05-26T13:25:23Z</time>
      </trkpt>
      <trkpt lat="47.80953" lon="6.76891">
        <ele>957.223145</ele>
        <time>2018-05-26T13:25:24Z</time>
      </trkpt>
      <trkpt lat="47.80951" lon="6.76888">
        <ele>957.344543</ele>
        <time>2018-05-26T13:25:25Z</time>
      </trkpt>
      <trkpt lat="47.80949" lon="6.76885">
        <ele>957.466492</ele>
        <time>2018-05-26T13:25:26Z</time>
      </trkpt>
      <trkpt lat="47.80948" lon="6.76882">
        <ele>957.65509</ele>
        <time>2018-05-26T13:25:27Z</time>
      </trkpt>
      <trkpt lat="47.80948" lon="6.76879">
        <ele>957.777832</ele>
        <time>2018-05-26T13:25:28Z</time>
      </trkpt>
      <trkpt lat="47.80946" lon="6.76877">
        <ele>957.899902</ele>
        <time>2018-05-26T13:25:29Z</time>
      </trkpt>
      <trkpt lat="47.80944" lon="6.76873">
        <ele>958.075989</ele>
        <time>2018-05-26T13:25:30Z</time>
      </trkpt>
      <trkpt lat="47.80943" lon="6.76869">
        <ele>958.182861</ele>
        <time>2018-05-26T13:25:31Z</time>
      </trkpt>
      <trkpt lat="47.80943" lon="6.76866">
        <ele>958.277344</ele>
        <time>2018-05-26T13:25:32Z</time>
      </trkpt>
      <trkpt lat="47.80942" lon="6.76862">
        <ele>958.360596</ele>
        <time>2018-05-26T13:25:33Z</time>
      </trkpt>
      <trkpt lat="47.80941" lon="6.76859">
        <ele>958.476746</ele>
        <time>2018-05-26T13:25:34Z</time>
      </trkpt>
      <trkpt lat="47.8094" lon="6.76855">
        <ele>958.554199</ele>
        <time>2018-05-26T13:25:35Z</time>
      </trkpt>
      <trkpt lat="47.8094" lon="6.76852">
        <ele>958.625793</ele>
        <time>2018-05-26T13:25:36Z</time>
      </trkpt>
      <trkpt lat="47.80939" lon="6.76848">
        <ele>958.698059</ele>
        <time>2018-05-26T13:25:37Z</time>
      </trkpt>
      <trkpt lat="47.80939" lon="6.76844">
        <ele>958.826233</ele>
        <time>2018-05-26T13:25:38Z</time>
      </trkpt>
      <trkpt lat="47.80938" lon="6.7684">
        <ele>958.929871</ele>
        <time>2018-05-26T13:25:39Z</time>
      </trkpt>
      <trkpt lat="47.80938" lon="6.76836">
        <ele>959.044739</ele>
        <time>2018-05-26T13:25:40Z</time>
      </trkpt>
      <trkpt lat="47.80938" lon="6.76833">
        <ele>959.230774</ele>
        <time>2018-05-26T13:25:41Z</time>
      </trkpt>
      <trkpt lat="47.80938" lon="6.76829">
        <ele>959.356873</ele>
        <time>2018-05-26T13:25:42Z</time>
      </trkpt>
      <trkpt lat="47.80938" lon="6.76825">
        <ele>959.480957</ele>
        <time>2018-05-26T13:25:43Z</time>
      </trkpt>
      <trkpt lat="47.80937" lon="6.76821">
        <ele>959.671326</ele>
        <time>2018-05-26T13:25:44Z</time>
      </trkpt>
      <trkpt lat="47.80936" lon="6.76818">
        <ele>959.799072</ele>
        <time>2018-05-26T13:25:45Z</time>
      </trkpt>
      <trkpt lat="47.80936" lon="6.76815">
        <ele>959.927307</ele>
        <time>2018-05-26T13:25:46Z</time>
      </trkpt>
      <trkpt lat="47.80936" lon="6.76811">
        <ele>960.061829</ele>
        <time>2018-05-26T13:25:47Z</time>
      </trkpt>
      <trkpt lat="47.80935" lon="6.76807">
        <ele>960.278137</ele>
        <time>2018-05-26T13:25:48Z</time>
      </trkpt>
      <trkpt lat="47.80935" lon="6.76804">
        <ele>960.426819</ele>
        <time>2018-05-26T13:25:49Z</time>
      </trkpt>
      <trkpt lat="47.80936" lon="6.76801">
        <ele>960.587952</ele>
        <time>2018-05-26T13:25:50Z</time>
      </trkpt>
      <trkpt lat="47.80935" lon="6.76797">
        <ele>960.861511</ele>
        <time>2018-05-26T13:25:51Z</time>
      </trkpt>
      <trkpt lat="47.80935" lon="6.76794">
        <ele>961.066895</ele>
        <time>2018-05-26T13:25:52Z</time>
      </trkpt>
      <trkpt lat="47.80936" lon="6.7679">
        <ele>961.281189</ele>
        <time>2018-05-26T13:25:53Z</time>
      </trkpt>
      <trkpt lat="47.80936" lon="6.76787">
        <ele>961.593262</ele>
        <time>2018-05-26T13:25:54Z</time>
      </trkpt>
      <trkpt lat="47.80936" lon="6.76783">
        <ele>961.779114</ele>
        <time>2018-05-26T13:25:55Z</time>
      </trkpt>
      <trkpt lat="47.80936" lon="6.76779">
        <ele>961.94281</ele>
        <time>2018-05-26T13:25:56Z</time>
      </trkpt>
      <trkpt lat="47.80936" lon="6.76775">
        <ele>962.165222</ele>
        <time>2018-05-26T13:25:57Z</time>
      </trkpt>
      <trkpt lat="47.80936" lon="6.76771">
        <ele>962.30365</ele>
        <time>2018-05-26T13:25:58Z</time>
      </trkpt>
      <trkpt lat="47.80936" lon="6.76767">
        <ele>962.433777</ele>
        <time>2018-05-26T13:25:59Z</time>
      </trkpt>
      <trkpt lat="47.80936" lon="6.76764">
        <ele>962.616943</ele>
        <time>2018-05-26T13:26:00Z</time>
      </trkpt>
      <trkpt lat="47.80936" lon="6.7676">
        <ele>962.742615</ele>
        <time>2018-05-26T13:26:01Z</time>
      </trkpt>
      <trkpt lat="47.80936" lon="6.76756">
        <ele>962.868164</ele>
        <time>2018-05-26T13:26:02Z</time>
      </trkpt>
      <trkpt lat="47.80936" lon="6.76753">
        <ele>962.987122</ele>
        <time>2018-05-26T13:26:03Z</time>
      </trkpt>
      <trkpt lat="47.80935" lon="6.76749">
        <ele>963.089172</ele>
        <time>2018-05-26T13:26:04Z</time>
      </trkpt>
      <trkpt lat="47.80935" lon="6.76745">
        <ele>963.20752</ele>
        <time>2018-05-26T13:26:05Z</time>
      </trkpt>
      <trkpt lat="47.80936" lon="6.76741">
        <ele>963.278076</ele>
        <time>2018-05-26T13:26:06Z</time>
      </trkpt>
      <trkpt lat="47.80936" lon="6.76738">
        <ele>963.349304</ele>
        <time>2018-05-26T13:26:07Z</time>
      </trkpt>
      <trkpt lat="47.80936" lon="6.76734">
        <ele>963.455566</ele>
        <time>2018-05-26T13:26:08Z</time>
      </trkpt>
      <trkpt lat="47.80935" lon="6.7673">
        <ele>963.523743</ele>
        <time>2018-05-26T13:26:09Z</time>
      </trkpt>
      <trkpt lat="47.80935" lon="6.76727">
        <ele>963.594666</ele>
        <time>2018-05-26T13:26:10Z</time>
      </trkpt>
      <trkpt lat="47.80935" lon="6.76723">
        <ele>963.634583</ele>
        <time>2018-05-26T13:26:11Z</time>
      </trkpt>
      <trkpt lat="47.80935" lon="6.7672">
        <ele>963.779785</ele>
        <time>2018-05-26T13:26:12Z</time>
      </trkpt>
      <trkpt lat="47.80935" lon="6.76716">
        <ele>963.881653</ele>
        <time>2018-05-26T13:26:13Z</time>
      </trkpt>
      <trkpt lat="47.80935" lon="6.76712">
        <ele>963.977356</ele>
        <time>2018-05-26T13:26:14Z</time>
      </trkpt>
      <trkpt lat="47.80935" lon="6.76708">
        <ele>964.101807</ele>
        <time>2018-05-26T13:26:15Z</time>
      </trkpt>
      <trkpt lat="47.80935" lon="6.76705">
        <ele>964.187439</ele>
        <time>2018-05-26T13:26:16Z</time>
      </trkpt>
      <trkpt lat="47.80935" lon="6.76701">
        <ele>964.284424</ele>
        <time>2018-05-26T13:26:17Z</time>
      </trkpt>
      <trkpt lat="47.80935" lon="6.76698">
        <ele>964.39209</ele>
        <time>2018-05-26T13:26:18Z</time>
      </trkpt>
      <trkpt lat="47.80935" lon="6.76695">
        <ele>964.564636</ele>
        <time>2018-05-26T13:26:19Z</time>
      </trkpt>
      <trkpt lat="47.80935" lon="6.76691">
        <ele>964.690674</ele>
        <time>2018-05-26T13:26:20Z</time>
      </trkpt>
      <trkpt lat="47.80935" lon="6.76688">
        <ele>964.830322</ele>
        <time>2018-05-26T13:26:21Z</time>
      </trkpt>
      <trkpt lat="47.80935" lon="6.76684">
        <ele>964.979553</ele>
        <time>2018-05-26T13:26:22Z</time>
      </trkpt>
      <trkpt lat="47.80935" lon="6.76681">
        <ele>965.13446</ele>
        <time>2018-05-26T13:26:23Z</time>
      </trkpt>
      <trkpt lat="47.80935" lon="6.76678">
        <ele>965.367188</ele>
        <time>2018-05-26T13:26:24Z</time>
      </trkpt>
      <trkpt lat="47.80935" lon="6.76674">
        <ele>965.520996</ele>
        <time>2018-05-26T13:26:25Z</time>
      </trkpt>
      <trkpt lat="47.80935" lon="6.76671">
        <ele>965.670715</ele>
        <time>2018-05-26T13:26:26Z</time>
      </trkpt>
      <trkpt lat="47.80934" lon="6.76668">
        <ele>965.822754</ele>
        <time>2018-05-26T13:26:27Z</time>
      </trkpt>
      <trkpt lat="47.80934" lon="6.76664">
        <ele>966.043518</ele>
        <time>2018-05-26T13:26:28Z</time>
      </trkpt>
      <trkpt lat="47.80934" lon="6.76661">
        <ele>966.187195</ele>
        <time>2018-05-26T13:26:29Z</time>
      </trkpt>
      <trkpt lat="47.80934" lon="6.76658">
        <ele>966.332031</ele>
        <time>2018-05-26T13:26:30Z</time>
      </trkpt>
      <trkpt lat="47.80933" lon="6.76654">
        <ele>966.479797</ele>
        <time>2018-05-26T13:26:31Z</time>
      </trkpt>
      <trkpt lat="47.80933" lon="6.7665">
        <ele>966.628113</ele>
        <time>2018-05-26T13:26:32Z</time>
      </trkpt>
      <trkpt lat="47.80933" lon="6.76647">
        <ele>966.850281</ele>
        <time>2018-05-26T13:26:33Z</time>
      </trkpt>
      <trkpt lat="47.80932" lon="6.76644">
        <ele>966.999084</ele>
        <time>2018-05-26T13:26:34Z</time>
      </trkpt>
      <trkpt lat="47.80932" lon="6.7664">
        <ele>967.156006</ele>
        <time>2018-05-26T13:26:35Z</time>
      </trkpt>
      <trkpt lat="47.80932" lon="6.76637">
        <ele>967.41626</ele>
        <time>2018-05-26T13:26:36Z</time>
      </trkpt>
      <trkpt lat="47.80931" lon="6.76634">
        <ele>967.602356</ele>
        <time>2018-05-26T13:26:37Z</time>
      </trkpt>
      <trkpt lat="47.80931" lon="6.76631">
        <ele>967.790955</ele>
        <time>2018-05-26T13:26:38Z</time>
      </trkpt>
      <trkpt lat="47.8093" lon="6.76627">
        <ele>968.074463</ele>
        <time>2018-05-26T13:26:39Z</time>
      </trkpt>
      <trkpt lat="47.8093" lon="6.76624">
        <ele>968.262756</ele>
        <time>2018-05-26T13:26:40Z</time>
      </trkpt>
      <trkpt lat="47.8093" lon="6.76621">
        <ele>968.447998</ele>
        <time>2018-05-26T13:26:41Z</time>
      </trkpt>
      <trkpt lat="47.80929" lon="6.76617">
        <ele>968.711243</ele>
        <time>2018-05-26T13:26:42Z</time>
      </trkpt>
      <trkpt lat="47.80928" lon="6.76614">
        <ele>968.874329</ele>
        <time>2018-05-26T13:26:43Z</time>
      </trkpt>
      <trkpt lat="47.80928" lon="6.76612">
        <ele>969.024475</ele>
        <time>2018-05-26T13:26:44Z</time>
      </trkpt>
      <trkpt lat="47.80927" lon="6.76608">
        <ele>969.164001</ele>
        <time>2018-05-26T13:26:45Z</time>
      </trkpt>
      <trkpt lat="47.80927" lon="6.76605">
        <ele>969.365967</ele>
        <time>2018-05-26T13:26:46Z</time>
      </trkpt>
      <trkpt lat="47.80925" lon="6.76602">
        <ele>969.503845</ele>
        <time>2018-05-26T13:26:47Z</time>
      </trkpt>
      <trkpt lat="47.80925" lon="6.76599">
        <ele>969.645752</ele>
        <time>2018-05-26T13:26:48Z</time>
      </trkpt>
      <trkpt lat="47.80924" lon="6.76595">
        <ele>969.789978</ele>
        <time>2018-05-26T13:26:49Z</time>
      </trkpt>
      <trkpt lat="47.80923" lon="6.76592">
        <ele>970.013184</ele>
        <time>2018-05-26T13:26:50Z</time>
      </trkpt>
      <trkpt lat="47.80922" lon="6.7659">
        <ele>970.173035</ele>
        <time>2018-05-26T13:26:51Z</time>
      </trkpt>
      <trkpt lat="47.80922" lon="6.76587">
        <ele>970.338867</ele>
        <time>2018-05-26T13:26:52Z</time>
      </trkpt>
      <trkpt lat="47.80921" lon="6.76584">
        <ele>970.591003</ele>
        <time>2018-05-26T13:26:53Z</time>
      </trkpt>
      <trkpt lat="47.8092" lon="6.76581">
        <ele>970.756165</ele>
        <time>2018-05-26T13:26:54Z</time>
      </trkpt>
      <trkpt lat="47.8092" lon="6.76578">
        <ele>970.919434</ele>
        <time>2018-05-26T13:26:55Z</time>
      </trkpt>
      <trkpt lat="47.80919" lon="6.76575">
        <ele>971.153809</ele>
        <time>2018-05-26T13:26:56Z</time>
      </trkpt>
      <trkpt lat="47.80918" lon="6.76573">
        <ele>971.309082</ele>
        <time>2018-05-26T13:26:57Z</time>
      </trkpt>
      <trkpt lat="47.80917" lon="6.7657">
        <ele>971.47113</ele>
        <time>2018-05-26T13:26:58Z</time>
      </trkpt>
      <trkpt lat="47.80916" lon="6.76567">
        <ele>971.735352</ele>
        <time>2018-05-26T13:26:59Z</time>
      </trkpt>
      <trkpt lat="47.80916" lon="6.76564">
        <ele>971.919373</ele>
        <time>2018-05-26T13:27:00Z</time>
      </trkpt>
      <trkpt lat="47.80915" lon="6.76561">
        <ele>972.103455</ele>
        <time>2018-05-26T13:27:01Z</time>
      </trkpt>
      <trkpt lat="47.80914" lon="6.76559">
        <ele>972.367981</ele>
        <time>2018-05-26T13:27:02Z</time>
      </trkpt>
      <trkpt lat="47.80913" lon="6.76556">
        <ele>972.539612</ele>
        <time>2018-05-26T13:27:03Z</time>
      </trkpt>
      <trkpt lat="47.80913" lon="6.76553">
        <ele>972.710144</ele>
        <time>2018-05-26T13:27:04Z</time>
      </trkpt>
      <trkpt lat="47.80912" lon="6.76551">
        <ele>972.958496</ele>
        <time>2018-05-26T13:27:05Z</time>
      </trkpt>
      <trkpt lat="47.80911" lon="6.76548">
        <ele>973.119629</ele>
        <time>2018-05-26T13:27:06Z</time>
      </trkpt>
      <trkpt lat="47.8091" lon="6.76546">
        <ele>973.277832</ele>
        <time>2018-05-26T13:27:07Z</time>
      </trkpt>
      <trkpt lat="47.80909" lon="6.76544">
        <ele>973.507263</ele>
        <time>2018-05-26T13:27:08Z</time>
      </trkpt>
      <trkpt lat="47.80908" lon="6.76541">
        <ele>973.646484</ele>
        <time>2018-05-26T13:27:09Z</time>
      </trkpt>
      <trkpt lat="47.80907" lon="6.76539">
        <ele>973.774414</ele>
        <time>2018-05-26T13:27:10Z</time>
      </trkpt>
      <trkpt lat="47.80907" lon="6.76537">
        <ele>973.890381</ele>
        <time>2018-05-26T13:27:11Z</time>
      </trkpt>
      <trkpt lat="47.80906" lon="6.76535">
        <ele>973.947083</ele>
        <time>2018-05-26T13:27:12Z</time>
      </trkpt>
      <trkpt lat="47.80905" lon="6.76532">
        <ele>974.00293</ele>
        <time>2018-05-26T13:27:13Z</time>
      </trkpt>
      <trkpt lat="47.80904" lon="6.7653">
        <ele>974.113281</ele>
        <time>2018-05-26T13:27:14Z</time>
      </trkpt>
      <trkpt lat="47.80903" lon="6.76527">
        <ele>974.290344</ele>
        <time>2018-05-26T13:27:15Z</time>
      </trkpt>
      <trkpt lat="47.80902" lon="6.76524">
        <ele>974.424622</ele>
        <time>2018-05-26T13:27:16Z</time>
      </trkpt>
      <trkpt lat="47.80902" lon="6.76521">
        <ele>974.574524</ele>
        <time>2018-05-26T13:27:17Z</time>
      </trkpt>
      <trkpt lat="47.80901" lon="6.76518">
        <ele>974.729736</ele>
        <time>2018-05-26T13:27:18Z</time>
      </trkpt>
      <trkpt lat="47.809" lon="6.76515">
        <ele>974.963562</ele>
        <time>2018-05-26T13:27:19Z</time>
      </trkpt>
      <trkpt lat="47.80899" lon="6.76513">
        <ele>975.118958</ele>
        <time>2018-05-26T13:27:20Z</time>
      </trkpt>
      <trkpt lat="47.80898" lon="6.7651">
        <ele>975.275085</ele>
        <time>2018-05-26T13:27:21Z</time>
      </trkpt>
      <trkpt lat="47.80897" lon="6.76507">
        <ele>975.497009</ele>
        <time>2018-05-26T13:27:22Z</time>
      </trkpt>
      <trkpt lat="47.80896" lon="6.76505">
        <ele>975.629578</ele>
        <time>2018-05-26T13:27:23Z</time>
      </trkpt>
      <trkpt lat="47.80895" lon="6.76502">
        <ele>975.75</ele>
        <time>2018-05-26T13:27:24Z</time>
      </trkpt>
      <trkpt lat="47.80894" lon="6.76499">
        <ele>975.919983</ele>
        <time>2018-05-26T13:27:25Z</time>
      </trkpt>
      <trkpt lat="47.80893" lon="6.76496">
        <ele>976.030579</ele>
        <time>2018-05-26T13:27:26Z</time>
      </trkpt>
      <trkpt lat="47.80892" lon="6.76493">
        <ele>976.139954</ele>
        <time>2018-05-26T13:27:27Z</time>
      </trkpt>
      <trkpt lat="47.80891" lon="6.76491">
        <ele>976.288086</ele>
        <time>2018-05-26T13:27:28Z</time>
      </trkpt>
      <trkpt lat="47.80891" lon="6.76488">
        <ele>976.37616</ele>
        <time>2018-05-26T13:27:29Z</time>
      </trkpt>
      <trkpt lat="47.8089" lon="6.76486">
        <ele>976.462402</ele>
        <time>2018-05-26T13:27:30Z</time>
      </trkpt>
      <trkpt lat="47.80889" lon="6.76483">
        <ele>976.612976</ele>
        <time>2018-05-26T13:27:31Z</time>
      </trkpt>
      <trkpt lat="47.80888" lon="6.76481">
        <ele>976.738098</ele>
        <time>2018-05-26T13:27:32Z</time>
      </trkpt>
      <trkpt lat="47.80887" lon="6.76478">
        <ele>976.884949</ele>
        <time>2018-05-26T13:27:33Z</time>
      </trkpt>
      <trkpt lat="47.80886" lon="6.76475">
        <ele>977.131104</ele>
        <time>2018-05-26T13:27:34Z</time>
      </trkpt>
      <trkpt lat="47.80885" lon="6.76472">
        <ele>977.303772</ele>
        <time>2018-05-26T13:27:35Z</time>
      </trkpt>
      <trkpt lat="47.80884" lon="6.7647">
        <ele>977.481384</ele>
        <time>2018-05-26T13:27:36Z</time>
      </trkpt>
      <trkpt lat="47.80883" lon="6.76467">
        <ele>977.754944</ele>
        <time>2018-05-26T13:27:37Z</time>
      </trkpt>
      <trkpt lat="47.80882" lon="6.76465">
        <ele>977.93634</ele>
        <time>2018-05-26T13:27:38Z</time>
      </trkpt>
      <trkpt lat="47.80882" lon="6.76462">
        <ele>978.110046</ele>
        <time>2018-05-26T13:27:39Z</time>
      </trkpt>
      <trkpt lat="47.8088" lon="6.76459">
        <ele>978.351318</ele>
        <time>2018-05-26T13:27:40Z</time>
      </trkpt>
      <trkpt lat="47.80879" lon="6.76457">
        <ele>978.509583</ele>
        <time>2018-05-26T13:27:41Z</time>
      </trkpt>
      <trkpt lat="47.80878" lon="6.76454">
        <ele>978.664368</ele>
        <time>2018-05-26T13:27:42Z</time>
      </trkpt>
      <trkpt lat="47.80878" lon="6.76451">
        <ele>978.88916</ele>
        <time>2018-05-26T13:27:43Z</time>
      </trkpt>
      <trkpt lat="47.80876" lon="6.76449">
        <ele>979.035889</ele>
        <time>2018-05-26T13:27:44Z</time>
      </trkpt>
      <trkpt lat="47.80875" lon="6.76446">
        <ele>979.266418</ele>
        <time>2018-05-26T13:27:45Z</time>
      </trkpt>
      <trkpt lat="47.80874" lon="6.76443">
        <ele>979.433105</ele>
        <time>2018-05-26T13:27:46Z</time>
      </trkpt>
      <trkpt lat="47.80873" lon="6.7644">
        <ele>979.606506</ele>
        <time>2018-05-26T13:27:47Z</time>
      </trkpt>
      <trkpt lat="47.80872" lon="6.76437">
        <ele>979.869141</ele>
        <time>2018-05-26T13:27:48Z</time>
      </trkpt>
      <trkpt lat="47.80871" lon="6.76435">
        <ele>980.038269</ele>
        <time>2018-05-26T13:27:49Z</time>
      </trkpt>
      <trkpt lat="47.80869" lon="6.76432">
        <ele>980.200623</ele>
        <time>2018-05-26T13:27:50Z</time>
      </trkpt>
      <trkpt lat="47.80868" lon="6.7643">
        <ele>980.351746</ele>
        <time>2018-05-26T13:27:51Z</time>
      </trkpt>
      <trkpt lat="47.80867" lon="6.76427">
        <ele>980.559387</ele>
        <time>2018-05-26T13:27:52Z</time>
      </trkpt>
      <trkpt lat="47.80866" lon="6.76423">
        <ele>980.688965</ele>
        <time>2018-05-26T13:27:53Z</time>
      </trkpt>
      <trkpt lat="47.80864" lon="6.7642">
        <ele>980.810242</ele>
        <time>2018-05-26T13:27:54Z</time>
      </trkpt>
      <trkpt lat="47.80863" lon="6.76417">
        <ele>980.916565</ele>
        <time>2018-05-26T13:27:55Z</time>
      </trkpt>
      <trkpt lat="47.80862" lon="6.76414">
        <ele>981.049744</ele>
        <time>2018-05-26T13:27:56Z</time>
      </trkpt>
      <trkpt lat="47.80861" lon="6.76411">
        <ele>981.131165</ele>
        <time>2018-05-26T13:27:57Z</time>
      </trkpt>
      <trkpt lat="47.80859" lon="6.76408">
        <ele>981.214172</ele>
        <time>2018-05-26T13:27:58Z</time>
      </trkpt>
      <trkpt lat="47.80859" lon="6.76405">
        <ele>981.349121</ele>
        <time>2018-05-26T13:27:59Z</time>
      </trkpt>
      <trkpt lat="47.80858" lon="6.76401">
        <ele>981.450256</ele>
        <time>2018-05-26T13:28:00Z</time>
      </trkpt>
      <trkpt lat="47.80857" lon="6.76398">
        <ele>981.558533</ele>
        <time>2018-05-26T13:28:01Z</time>
      </trkpt>
      <trkpt lat="47.80856" lon="6.76395">
        <ele>981.666504</ele>
        <time>2018-05-26T13:28:02Z</time>
      </trkpt>
      <trkpt lat="47.80855" lon="6.76392">
        <ele>981.823547</ele>
        <time>2018-05-26T13:28:03Z</time>
      </trkpt>
      <trkpt lat="47.80854" lon="6.76388">
        <ele>981.926025</ele>
        <time>2018-05-26T13:28:04Z</time>
      </trkpt>
      <trkpt lat="47.80853" lon="6.76385">
        <ele>982.032166</ele>
        <time>2018-05-26T13:28:05Z</time>
      </trkpt>
      <trkpt lat="47.80852" lon="6.76382">
        <ele>982.141907</ele>
        <time>2018-05-26T13:28:06Z</time>
      </trkpt>
      <trkpt lat="47.80851" lon="6.76379">
        <ele>982.309082</ele>
        <time>2018-05-26T13:28:07Z</time>
      </trkpt>
      <trkpt lat="47.8085" lon="6.76376">
        <ele>982.419006</ele>
        <time>2018-05-26T13:28:08Z</time>
      </trkpt>
      <trkpt lat="47.80849" lon="6.76374">
        <ele>982.531311</ele>
        <time>2018-05-26T13:28:09Z</time>
      </trkpt>
      <trkpt lat="47.80848" lon="6.76371">
        <ele>982.708435</ele>
        <time>2018-05-26T13:28:10Z</time>
      </trkpt>
      <trkpt lat="47.80846" lon="6.76368">
        <ele>982.830322</ele>
        <time>2018-05-26T13:28:11Z</time>
      </trkpt>
      <trkpt lat="47.80846" lon="6.76364">
        <ele>982.951599</ele>
        <time>2018-05-26T13:28:12Z</time>
      </trkpt>
      <trkpt lat="47.80845" lon="6.76362">
        <ele>983.012146</ele>
        <time>2018-05-26T13:28:13Z</time>
      </trkpt>
      <trkpt lat="47.80844" lon="6.76358">
        <ele>983.070984</ele>
        <time>2018-05-26T13:28:14Z</time>
      </trkpt>
      <trkpt lat="47.80843" lon="6.76355">
        <ele>983.189148</ele>
        <time>2018-05-26T13:28:15Z</time>
      </trkpt>
      <trkpt lat="47.80843" lon="6.76352">
        <ele>983.369873</ele>
        <time>2018-05-26T13:28:16Z</time>
      </trkpt>
      <trkpt lat="47.80843" lon="6.76349">
        <ele>983.497314</ele>
        <time>2018-05-26T13:28:17Z</time>
      </trkpt>
      <trkpt lat="47.80842" lon="6.76346">
        <ele>983.631653</ele>
        <time>2018-05-26T13:28:18Z</time>
      </trkpt>
      <trkpt lat="47.80841" lon="6.76343">
        <ele>983.762512</ele>
        <time>2018-05-26T13:28:19Z</time>
      </trkpt>
      <trkpt lat="47.8084" lon="6.7634">
        <ele>983.948547</ele>
        <time>2018-05-26T13:28:20Z</time>
      </trkpt>
      <trkpt lat="47.80839" lon="6.76337">
        <ele>984.071716</ele>
        <time>2018-05-26T13:28:21Z</time>
      </trkpt>
      <trkpt lat="47.80837" lon="6.76331">
        <ele>984.336609</ele>
        <time>2018-05-26T13:28:23Z</time>
      </trkpt>
      <trkpt lat="47.80836" lon="6.76327">
        <ele>984.466003</ele>
        <time>2018-05-26T13:28:24Z</time>
      </trkpt>
      <trkpt lat="47.80835" lon="6.76325">
        <ele>984.656006</ele>
        <time>2018-05-26T13:28:25Z</time>
      </trkpt>
      <trkpt lat="47.80833" lon="6.76322">
        <ele>984.788818</ele>
        <time>2018-05-26T13:28:26Z</time>
      </trkpt>
      <trkpt lat="47.80832" lon="6.76318">
        <ele>984.923523</ele>
        <time>2018-05-26T13:28:27Z</time>
      </trkpt>
      <trkpt lat="47.8083" lon="6.76315">
        <ele>985.057068</ele>
        <time>2018-05-26T13:28:28Z</time>
      </trkpt>
      <trkpt lat="47.8083" lon="6.76312">
        <ele>985.241516</ele>
        <time>2018-05-26T13:28:29Z</time>
      </trkpt>
      <trkpt lat="47.80829" lon="6.76308">
        <ele>985.353821</ele>
        <time>2018-05-26T13:28:30Z</time>
      </trkpt>
      <trkpt lat="47.80827" lon="6.76305">
        <ele>985.466064</ele>
        <time>2018-05-26T13:28:31Z</time>
      </trkpt>
      <trkpt lat="47.80827" lon="6.76302">
        <ele>985.644287</ele>
        <time>2018-05-26T13:28:32Z</time>
      </trkpt>
      <trkpt lat="47.80825" lon="6.76299">
        <ele>985.766907</ele>
        <time>2018-05-26T13:28:33Z</time>
      </trkpt>
      <trkpt lat="47.80824" lon="6.76295">
        <ele>985.895569</ele>
        <time>2018-05-26T13:28:34Z</time>
      </trkpt>
      <trkpt lat="47.80824" lon="6.76292">
        <ele>986.031982</ele>
        <time>2018-05-26T13:28:35Z</time>
      </trkpt>
      <trkpt lat="47.80822" lon="6.76289">
        <ele>986.253601</ele>
        <time>2018-05-26T13:28:36Z</time>
      </trkpt>
      <trkpt lat="47.80822" lon="6.76285">
        <ele>986.408142</ele>
        <time>2018-05-26T13:28:37Z</time>
      </trkpt>
      <trkpt lat="47.80821" lon="6.76283">
        <ele>986.564636</ele>
        <time>2018-05-26T13:28:38Z</time>
      </trkpt>
      <trkpt lat="47.80819" lon="6.7628">
        <ele>986.79303</ele>
        <time>2018-05-26T13:28:39Z</time>
      </trkpt>
      <trkpt lat="47.80819" lon="6.76277">
        <ele>986.943298</ele>
        <time>2018-05-26T13:28:40Z</time>
      </trkpt>
      <trkpt lat="47.80817" lon="6.76274">
        <ele>987.092468</ele>
        <time>2018-05-26T13:28:41Z</time>
      </trkpt>
      <trkpt lat="47.80816" lon="6.76271">
        <ele>987.314941</ele>
        <time>2018-05-26T13:28:42Z</time>
      </trkpt>
      <trkpt lat="47.80815" lon="6.76268">
        <ele>987.456848</ele>
        <time>2018-05-26T13:28:43Z</time>
      </trkpt>
      <trkpt lat="47.80814" lon="6.76265">
        <ele>987.591492</ele>
        <time>2018-05-26T13:28:44Z</time>
      </trkpt>
      <trkpt lat="47.80813" lon="6.76262">
        <ele>987.775818</ele>
        <time>2018-05-26T13:28:45Z</time>
      </trkpt>
      <trkpt lat="47.80811" lon="6.76259">
        <ele>987.896484</ele>
        <time>2018-05-26T13:28:46Z</time>
      </trkpt>
      <trkpt lat="47.80811" lon="6.76256">
        <ele>988.020996</ele>
        <time>2018-05-26T13:28:47Z</time>
      </trkpt>
      <trkpt lat="47.80809" lon="6.76253">
        <ele>988.215637</ele>
        <time>2018-05-26T13:28:48Z</time>
      </trkpt>
      <trkpt lat="47.80808" lon="6.7625">
        <ele>988.346497</ele>
        <time>2018-05-26T13:28:49Z</time>
      </trkpt>
      <trkpt lat="47.80807" lon="6.76248">
        <ele>988.485168</ele>
        <time>2018-05-26T13:28:50Z</time>
      </trkpt>
      <trkpt lat="47.80806" lon="6.76245">
        <ele>988.628174</ele>
        <time>2018-05-26T13:28:51Z</time>
      </trkpt>
      <trkpt lat="47.80804" lon="6.76242">
        <ele>988.848633</ele>
        <time>2018-05-26T13:28:52Z</time>
      </trkpt>
      <trkpt lat="47.80804" lon="6.76239">
        <ele>988.988464</ele>
        <time>2018-05-26T13:28:53Z</time>
      </trkpt>
      <trkpt lat="47.80803" lon="6.76236">
        <ele>989.121094</ele>
        <time>2018-05-26T13:28:54Z</time>
      </trkpt>
      <trkpt lat="47.80801" lon="6.76232">
        <ele>989.31488</ele>
        <time>2018-05-26T13:28:55Z</time>
      </trkpt>
      <trkpt lat="47.80801" lon="6.76229">
        <ele>989.441101</ele>
        <time>2018-05-26T13:28:56Z</time>
      </trkpt>
      <trkpt lat="47.80799" lon="6.76226">
        <ele>989.562927</ele>
        <time>2018-05-26T13:28:57Z</time>
      </trkpt>
      <trkpt lat="47.80798" lon="6.76224">
        <ele>989.681641</ele>
        <time>2018-05-26T13:28:58Z</time>
      </trkpt>
      <trkpt lat="47.80797" lon="6.76221">
        <ele>989.861511</ele>
        <time>2018-05-26T13:28:59Z</time>
      </trkpt>
      <trkpt lat="47.80796" lon="6.76218">
        <ele>989.987488</ele>
        <time>2018-05-26T13:29:00Z</time>
      </trkpt>
      <trkpt lat="47.80795" lon="6.76215">
        <ele>990.119141</ele>
        <time>2018-05-26T13:29:01Z</time>
      </trkpt>
      <trkpt lat="47.80794" lon="6.76213">
        <ele>990.325989</ele>
        <time>2018-05-26T13:29:02Z</time>
      </trkpt>
      <trkpt lat="47.80793" lon="6.7621">
        <ele>990.462891</ele>
        <time>2018-05-26T13:29:03Z</time>
      </trkpt>
      <trkpt lat="47.80792" lon="6.76207">
        <ele>990.59967</ele>
        <time>2018-05-26T13:29:04Z</time>
      </trkpt>
      <trkpt lat="47.80791" lon="6.76204">
        <ele>990.809753</ele>
        <time>2018-05-26T13:29:05Z</time>
      </trkpt>
      <trkpt lat="47.8079" lon="6.76201">
        <ele>990.958313</ele>
        <time>2018-05-26T13:29:06Z</time>
      </trkpt>
      <trkpt lat="47.80788" lon="6.76199">
        <ele>991.108948</ele>
        <time>2018-05-26T13:29:07Z</time>
      </trkpt>
      <trkpt lat="47.80787" lon="6.76196">
        <ele>991.313782</ele>
        <time>2018-05-26T13:29:08Z</time>
      </trkpt>
      <trkpt lat="47.80786" lon="6.76193">
        <ele>991.431885</ele>
        <time>2018-05-26T13:29:09Z</time>
      </trkpt>
      <trkpt lat="47.80785" lon="6.7619">
        <ele>991.547058</ele>
        <time>2018-05-26T13:29:10Z</time>
      </trkpt>
      <trkpt lat="47.80784" lon="6.76187">
        <ele>991.66156</ele>
        <time>2018-05-26T13:29:11Z</time>
      </trkpt>
      <trkpt lat="47.80783" lon="6.76185">
        <ele>991.830383</ele>
        <time>2018-05-26T13:29:12Z</time>
      </trkpt>
      <trkpt lat="47.80782" lon="6.76182">
        <ele>991.88623</ele>
        <time>2018-05-26T13:29:13Z</time>
      </trkpt>
      <trkpt lat="47.8078" lon="6.76179">
        <ele>991.88623</ele>
        <time>2018-05-26T13:29:14Z</time>
      </trkpt>
      <trkpt lat="47.80779" lon="6.76177">
        <ele>992.003723</ele>
        <time>2018-05-26T13:29:15Z</time>
      </trkpt>
      <trkpt lat="47.80777" lon="6.76174">
        <ele>992.137451</ele>
        <time>2018-05-26T13:29:16Z</time>
      </trkpt>
      <trkpt lat="47.80775" lon="6.76171">
        <ele>992.384033</ele>
        <time>2018-05-26T13:29:17Z</time>
      </trkpt>
      <trkpt lat="47.80774" lon="6.76169">
        <ele>992.573425</ele>
        <time>2018-05-26T13:29:18Z</time>
      </trkpt>
      <trkpt lat="47.80772" lon="6.76167">
        <ele>992.777405</ele>
        <time>2018-05-26T13:29:19Z</time>
      </trkpt>
      <trkpt lat="47.8077" lon="6.76165">
        <ele>993.100098</ele>
        <time>2018-05-26T13:29:20Z</time>
      </trkpt>
      <trkpt lat="47.80768" lon="6.76163">
        <ele>993.313232</ele>
        <time>2018-05-26T13:29:21Z</time>
      </trkpt>
      <trkpt lat="47.80766" lon="6.76161">
        <ele>993.514099</ele>
        <time>2018-05-26T13:29:22Z</time>
      </trkpt>
      <trkpt lat="47.80764" lon="6.76159">
        <ele>993.791321</ele>
        <time>2018-05-26T13:29:23Z</time>
      </trkpt>
      <trkpt lat="47.80762" lon="6.76157">
        <ele>993.96344</ele>
        <time>2018-05-26T13:29:24Z</time>
      </trkpt>
      <trkpt lat="47.8076" lon="6.76155">
        <ele>994.127258</ele>
        <time>2018-05-26T13:29:25Z</time>
      </trkpt>
      <trkpt lat="47.80758" lon="6.76153">
        <ele>994.345032</ele>
        <time>2018-05-26T13:29:26Z</time>
      </trkpt>
      <trkpt lat="47.80756" lon="6.76152">
        <ele>994.469055</ele>
        <time>2018-05-26T13:29:27Z</time>
      </trkpt>
      <trkpt lat="47.80754" lon="6.7615">
        <ele>994.580139</ele>
        <time>2018-05-26T13:29:28Z</time>
      </trkpt>
      <trkpt lat="47.80752" lon="6.76149">
        <ele>994.738037</ele>
        <time>2018-05-26T13:29:29Z</time>
      </trkpt>
      <trkpt lat="47.8075" lon="6.76147">
        <ele>994.842224</ele>
        <time>2018-05-26T13:29:30Z</time>
      </trkpt>
      <trkpt lat="47.80748" lon="6.76146">
        <ele>994.954895</ele>
        <time>2018-05-26T13:29:31Z</time>
      </trkpt>
      <trkpt lat="47.80746" lon="6.76144">
        <ele>995.136414</ele>
        <time>2018-05-26T13:29:32Z</time>
      </trkpt>
      <trkpt lat="47.80745" lon="6.76142">
        <ele>995.262268</ele>
        <time>2018-05-26T13:29:33Z</time>
      </trkpt>
      <trkpt lat="47.80742" lon="6.76141">
        <ele>995.394592</ele>
        <time>2018-05-26T13:29:34Z</time>
      </trkpt>
      <trkpt lat="47.8074" lon="6.7614">
        <ele>995.619324</ele>
        <time>2018-05-26T13:29:35Z</time>
      </trkpt>
      <trkpt lat="47.80738" lon="6.76138">
        <ele>995.786072</ele>
        <time>2018-05-26T13:29:36Z</time>
      </trkpt>
      <trkpt lat="47.80736" lon="6.76136">
        <ele>995.958679</ele>
        <time>2018-05-26T13:29:37Z</time>
      </trkpt>
      <trkpt lat="47.80734" lon="6.76135">
        <ele>996.219177</ele>
        <time>2018-05-26T13:29:38Z</time>
      </trkpt>
      <trkpt lat="47.80732" lon="6.76133">
        <ele>996.392761</ele>
        <time>2018-05-26T13:29:39Z</time>
      </trkpt>
      <trkpt lat="47.80729" lon="6.76132">
        <ele>996.566101</ele>
        <time>2018-05-26T13:29:40Z</time>
      </trkpt>
      <trkpt lat="47.80727" lon="6.76131">
        <ele>996.807434</ele>
        <time>2018-05-26T13:29:41Z</time>
      </trkpt>
      <trkpt lat="47.80725" lon="6.76129">
        <ele>996.949524</ele>
        <time>2018-05-26T13:29:42Z</time>
      </trkpt>
      <trkpt lat="47.80722" lon="6.76128">
        <ele>997.137146</ele>
        <time>2018-05-26T13:29:43Z</time>
      </trkpt>
      <trkpt lat="47.8072" lon="6.76127">
        <ele>997.246887</ele>
        <time>2018-05-26T13:29:44Z</time>
      </trkpt>
      <trkpt lat="47.80718" lon="6.76126">
        <ele>997.346191</ele>
        <time>2018-05-26T13:29:45Z</time>
      </trkpt>
      <trkpt lat="47.80716" lon="6.76125">
        <ele>997.490906</ele>
        <time>2018-05-26T13:29:46Z</time>
      </trkpt>
      <trkpt lat="47.80714" lon="6.76125">
        <ele>997.593201</ele>
        <time>2018-05-26T13:29:47Z</time>
      </trkpt>
      <trkpt lat="47.80712" lon="6.76124">
        <ele>997.706482</ele>
        <time>2018-05-26T13:29:48Z</time>
      </trkpt>
      <trkpt lat="47.8071" lon="6.76123">
        <ele>997.880798</ele>
        <time>2018-05-26T13:29:49Z</time>
      </trkpt>
      <trkpt lat="47.80708" lon="6.76123">
        <ele>998.000488</ele>
        <time>2018-05-26T13:29:50Z</time>
      </trkpt>
      <trkpt lat="47.80705" lon="6.76122">
        <ele>998.206604</ele>
        <time>2018-05-26T13:29:51Z</time>
      </trkpt>
      <trkpt lat="47.80703" lon="6.76122">
        <ele>998.374084</ele>
        <time>2018-05-26T13:29:52Z</time>
      </trkpt>
      <trkpt lat="47.80701" lon="6.76121">
        <ele>998.553223</ele>
        <time>2018-05-26T13:29:53Z</time>
      </trkpt>
      <trkpt lat="47.80699" lon="6.76121">
        <ele>998.819031</ele>
        <time>2018-05-26T13:29:54Z</time>
      </trkpt>
      <trkpt lat="47.80697" lon="6.76121">
        <ele>998.986267</ele>
        <time>2018-05-26T13:29:55Z</time>
      </trkpt>
      <trkpt lat="47.80695" lon="6.76121">
        <ele>999.214355</ele>
        <time>2018-05-26T13:29:56Z</time>
      </trkpt>
      <trkpt lat="47.80693" lon="6.76121">
        <ele>999.342285</ele>
        <time>2018-05-26T13:29:57Z</time>
      </trkpt>
      <trkpt lat="47.8069" lon="6.76121">
        <ele>999.450867</ele>
        <time>2018-05-26T13:29:58Z</time>
      </trkpt>
      <trkpt lat="47.80689" lon="6.7612">
        <ele>999.603027</ele>
        <time>2018-05-26T13:29:59Z</time>
      </trkpt>
      <trkpt lat="47.80687" lon="6.7612">
        <ele>999.716492</ele>
        <time>2018-05-26T13:30:00Z</time>
      </trkpt>
      <trkpt lat="47.80684" lon="6.7612">
        <ele>999.923035</ele>
        <time>2018-05-26T13:30:01Z</time>
      </trkpt>
      <trkpt lat="47.80683" lon="6.7612">
        <ele>1000.09198</ele>
        <time>2018-05-26T13:30:02Z</time>
      </trkpt>
      <trkpt lat="47.80681" lon="6.7612">
        <ele>1000.290466</ele>
        <time>2018-05-26T13:30:03Z</time>
      </trkpt>
      <trkpt lat="47.80679" lon="6.7612">
        <ele>1000.6203</ele>
        <time>2018-05-26T13:30:04Z</time>
      </trkpt>
      <trkpt lat="47.80677" lon="6.7612">
        <ele>1000.833923</ele>
        <time>2018-05-26T13:30:05Z</time>
      </trkpt>
      <trkpt lat="47.80675" lon="6.76119">
        <ele>1001.118896</ele>
        <time>2018-05-26T13:30:06Z</time>
      </trkpt>
      <trkpt lat="47.80674" lon="6.76119">
        <ele>1001.28717</ele>
        <time>2018-05-26T13:30:07Z</time>
      </trkpt>
      <trkpt lat="47.80671" lon="6.76119">
        <ele>1001.44281</ele>
        <time>2018-05-26T13:30:08Z</time>
      </trkpt>
      <trkpt lat="47.80669" lon="6.76119">
        <ele>1001.649719</ele>
        <time>2018-05-26T13:30:09Z</time>
      </trkpt>
      <trkpt lat="47.80668" lon="6.76118">
        <ele>1001.777344</ele>
        <time>2018-05-26T13:30:10Z</time>
      </trkpt>
      <trkpt lat="47.80666" lon="6.76118">
        <ele>1001.969727</ele>
        <time>2018-05-26T13:30:11Z</time>
      </trkpt>
      <trkpt lat="47.80664" lon="6.76117">
        <ele>1002.097961</ele>
        <time>2018-05-26T13:30:12Z</time>
      </trkpt>
      <trkpt lat="47.80663" lon="6.76117">
        <ele>1002.230408</ele>
        <time>2018-05-26T13:30:13Z</time>
      </trkpt>
      <trkpt lat="47.80661" lon="6.76117">
        <ele>1002.299988</ele>
        <time>2018-05-26T13:30:14Z</time>
      </trkpt>
      <trkpt lat="47.8066" lon="6.76116">
        <ele>1002.621643</ele>
        <time>2018-05-26T13:30:15Z</time>
      </trkpt>
      <trkpt lat="47.80657" lon="6.76116">
        <ele>1002.802551</ele>
        <time>2018-05-26T13:30:17Z</time>
      </trkpt>
      <trkpt lat="47.80656" lon="6.76116">
        <ele>1003.083008</ele>
        <time>2018-05-26T13:30:18Z</time>
      </trkpt>
      <trkpt lat="47.80654" lon="6.76116">
        <ele>1003.276794</ele>
        <time>2018-05-26T13:30:19Z</time>
      </trkpt>
      <trkpt lat="47.80652" lon="6.76115">
        <ele>1003.477783</ele>
        <time>2018-05-26T13:30:20Z</time>
      </trkpt>
      <trkpt lat="47.80651" lon="6.76115">
        <ele>1003.785583</ele>
        <time>2018-05-26T13:30:21Z</time>
      </trkpt>
      <trkpt lat="47.80649" lon="6.76115">
        <ele>1003.989441</ele>
        <time>2018-05-26T13:30:22Z</time>
      </trkpt>
      <trkpt lat="47.80648" lon="6.76114">
        <ele>1004.29541</ele>
        <time>2018-05-26T13:30:23Z</time>
      </trkpt>
      <trkpt lat="47.80646" lon="6.76114">
        <ele>1004.492004</ele>
        <time>2018-05-26T13:30:24Z</time>
      </trkpt>
      <trkpt lat="47.80644" lon="6.76114">
        <ele>1004.675781</ele>
        <time>2018-05-26T13:30:25Z</time>
      </trkpt>
      <trkpt lat="47.80643" lon="6.76113">
        <ele>1004.932373</ele>
        <time>2018-05-26T13:30:26Z</time>
      </trkpt>
      <trkpt lat="47.80641" lon="6.76112">
        <ele>1005.102051</ele>
        <time>2018-05-26T13:30:27Z</time>
      </trkpt>
      <trkpt lat="47.80639" lon="6.76112">
        <ele>1005.356384</ele>
        <time>2018-05-26T13:30:28Z</time>
      </trkpt>
      <trkpt lat="47.80637" lon="6.76112">
        <ele>1005.523865</ele>
        <time>2018-05-26T13:30:29Z</time>
      </trkpt>
      <trkpt lat="47.80636" lon="6.76112">
        <ele>1005.689514</ele>
        <time>2018-05-26T13:30:30Z</time>
      </trkpt>
      <trkpt lat="47.80634" lon="6.76112">
        <ele>1005.940125</ele>
        <time>2018-05-26T13:30:31Z</time>
      </trkpt>
      <trkpt lat="47.80632" lon="6.76112">
        <ele>1006.110352</ele>
        <time>2018-05-26T13:30:32Z</time>
      </trkpt>
      <trkpt lat="47.8063" lon="6.76112">
        <ele>1006.361572</ele>
        <time>2018-05-26T13:30:33Z</time>
      </trkpt>
      <trkpt lat="47.80629" lon="6.76112">
        <ele>1006.532532</ele>
        <time>2018-05-26T13:30:34Z</time>
      </trkpt>
      <trkpt lat="47.80627" lon="6.76112">
        <ele>1006.711365</ele>
        <time>2018-05-26T13:30:35Z</time>
      </trkpt>
      <trkpt lat="47.80626" lon="6.76111">
        <ele>1006.988098</ele>
        <time>2018-05-26T13:30:36Z</time>
      </trkpt>
      <trkpt lat="47.80625" lon="6.76111">
        <ele>1007.17041</ele>
        <time>2018-05-26T13:30:37Z</time>
      </trkpt>
      <trkpt lat="47.80623" lon="6.7611">
        <ele>1007.4375</ele>
        <time>2018-05-26T13:30:38Z</time>
      </trkpt>
      <trkpt lat="47.80621" lon="6.7611">
        <ele>1007.609375</ele>
        <time>2018-05-26T13:30:39Z</time>
      </trkpt>
      <trkpt lat="47.8062" lon="6.7611">
        <ele>1007.779846</ele>
        <time>2018-05-26T13:30:40Z</time>
      </trkpt>
      <trkpt lat="47.80618" lon="6.76109">
        <ele>1008.026855</ele>
        <time>2018-05-26T13:30:41Z</time>
      </trkpt>
      <trkpt lat="47.80617" lon="6.76109">
        <ele>1008.1875</ele>
        <time>2018-05-26T13:30:42Z</time>
      </trkpt>
      <trkpt lat="47.80616" lon="6.76108">
        <ele>1008.346497</ele>
        <time>2018-05-26T13:30:43Z</time>
      </trkpt>
      <trkpt lat="47.80614" lon="6.76108">
        <ele>1008.577209</ele>
        <time>2018-05-26T13:30:44Z</time>
      </trkpt>
      <trkpt lat="47.80612" lon="6.76107">
        <ele>1008.723206</ele>
        <time>2018-05-26T13:30:45Z</time>
      </trkpt>
      <trkpt lat="47.8061" lon="6.76107">
        <ele>1008.860901</ele>
        <time>2018-05-26T13:30:46Z</time>
      </trkpt>
      <trkpt lat="47.80608" lon="6.76106">
        <ele>1009.048584</ele>
        <time>2018-05-26T13:30:47Z</time>
      </trkpt>
      <trkpt lat="47.80607" lon="6.76105">
        <ele>1009.168274</ele>
        <time>2018-05-26T13:30:48Z</time>
      </trkpt>
      <trkpt lat="47.80605" lon="6.76105">
        <ele>1009.353027</ele>
        <time>2018-05-26T13:30:49Z</time>
      </trkpt>
      <trkpt lat="47.80603" lon="6.76104">
        <ele>1009.478516</ele>
        <time>2018-05-26T13:30:50Z</time>
      </trkpt>
      <trkpt lat="47.80601" lon="6.76104">
        <ele>1009.601746</ele>
        <time>2018-05-26T13:30:51Z</time>
      </trkpt>
      <trkpt lat="47.80598" lon="6.76103">
        <ele>1009.790771</ele>
        <time>2018-05-26T13:30:52Z</time>
      </trkpt>
      <trkpt lat="47.80597" lon="6.76103">
        <ele>1009.924072</ele>
        <time>2018-05-26T13:30:53Z</time>
      </trkpt>
      <trkpt lat="47.80595" lon="6.76103">
        <ele>1010.061218</ele>
        <time>2018-05-26T13:30:54Z</time>
      </trkpt>
      <trkpt lat="47.80593" lon="6.76102">
        <ele>1010.262512</ele>
        <time>2018-05-26T13:30:55Z</time>
      </trkpt>
      <trkpt lat="47.80592" lon="6.76102">
        <ele>1010.392273</ele>
        <time>2018-05-26T13:30:56Z</time>
      </trkpt>
      <trkpt lat="47.80589" lon="6.76102">
        <ele>1010.588196</ele>
        <time>2018-05-26T13:30:57Z</time>
      </trkpt>
      <trkpt lat="47.80588" lon="6.76102">
        <ele>1010.719421</ele>
        <time>2018-05-26T13:30:58Z</time>
      </trkpt>
      <trkpt lat="47.80586" lon="6.76101">
        <ele>1010.855286</ele>
        <time>2018-05-26T13:30:59Z</time>
      </trkpt>
      <trkpt lat="47.80584" lon="6.761">
        <ele>1011.068909</ele>
        <time>2018-05-26T13:31:00Z</time>
      </trkpt>
      <trkpt lat="47.80582" lon="6.761">
        <ele>1011.2146</ele>
        <time>2018-05-26T13:31:01Z</time>
      </trkpt>
      <trkpt lat="47.80581" lon="6.761">
        <ele>1011.358398</ele>
        <time>2018-05-26T13:31:02Z</time>
      </trkpt>
      <trkpt lat="47.80579" lon="6.76099">
        <ele>1011.572083</ele>
        <time>2018-05-26T13:31:03Z</time>
      </trkpt>
      <trkpt lat="47.80577" lon="6.76098">
        <ele>1011.713074</ele>
        <time>2018-05-26T13:31:04Z</time>
      </trkpt>
      <trkpt lat="47.80576" lon="6.76097">
        <ele>1011.855469</ele>
        <time>2018-05-26T13:31:05Z</time>
      </trkpt>
      <trkpt lat="47.80574" lon="6.76096">
        <ele>1012.067566</ele>
        <time>2018-05-26T13:31:06Z</time>
      </trkpt>
      <trkpt lat="47.80573" lon="6.76095">
        <ele>1012.215393</ele>
        <time>2018-05-26T13:31:07Z</time>
      </trkpt>
      <trkpt lat="47.80571" lon="6.76095">
        <ele>1012.382507</ele>
        <time>2018-05-26T13:31:08Z</time>
      </trkpt>
      <trkpt lat="47.80569" lon="6.76094">
        <ele>1012.690247</ele>
        <time>2018-05-26T13:31:09Z</time>
      </trkpt>
      <trkpt lat="47.80567" lon="6.76092">
        <ele>1012.927734</ele>
        <time>2018-05-26T13:31:10Z</time>
      </trkpt>
      <trkpt lat="47.80566" lon="6.76091">
        <ele>1013.30719</ele>
        <time>2018-05-26T13:31:11Z</time>
      </trkpt>
      <trkpt lat="47.80564" lon="6.76091">
        <ele>1013.546875</ele>
        <time>2018-05-26T13:31:12Z</time>
      </trkpt>
      <trkpt lat="47.80563" lon="6.7609">
        <ele>1013.765625</ele>
        <time>2018-05-26T13:31:13Z</time>
      </trkpt>
      <trkpt lat="47.80561" lon="6.76089">
        <ele>1014.053467</ele>
        <time>2018-05-26T13:31:14Z</time>
      </trkpt>
      <trkpt lat="47.8056" lon="6.76088">
        <ele>1014.141846</ele>
        <time>2018-05-26T13:31:15Z</time>
      </trkpt>
      <trkpt lat="47.80558" lon="6.76088">
        <ele>1014.388245</ele>
        <time>2018-05-26T13:31:16Z</time>
      </trkpt>
      <trkpt lat="47.80556" lon="6.76087">
        <ele>1014.542542</ele>
        <time>2018-05-26T13:31:17Z</time>
      </trkpt>
      <trkpt lat="47.80555" lon="6.76086">
        <ele>1014.69458</ele>
        <time>2018-05-26T13:31:18Z</time>
      </trkpt>
      <trkpt lat="47.80553" lon="6.76086">
        <ele>1014.937927</ele>
        <time>2018-05-26T13:31:19Z</time>
      </trkpt>
      <trkpt lat="47.80552" lon="6.76085">
        <ele>1015.112366</ele>
        <time>2018-05-26T13:31:20Z</time>
      </trkpt>
      <trkpt lat="47.8055" lon="6.76085">
        <ele>1015.287659</ele>
        <time>2018-05-26T13:31:21Z</time>
      </trkpt>
      <trkpt lat="47.80549" lon="6.76084">
        <ele>1015.550598</ele>
        <time>2018-05-26T13:31:22Z</time>
      </trkpt>
      <trkpt lat="47.80547" lon="6.76083">
        <ele>1015.740906</ele>
        <time>2018-05-26T13:31:23Z</time>
      </trkpt>
      <trkpt lat="47.80546" lon="6.76082">
        <ele>1016.054749</ele>
        <time>2018-05-26T13:31:24Z</time>
      </trkpt>
      <trkpt lat="47.80544" lon="6.76082">
        <ele>1016.272461</ele>
        <time>2018-05-26T13:31:25Z</time>
      </trkpt>
      <trkpt lat="47.80543" lon="6.76081">
        <ele>1016.48761</ele>
        <time>2018-05-26T13:31:26Z</time>
      </trkpt>
      <trkpt lat="47.80541" lon="6.76081">
        <ele>1016.796631</ele>
        <time>2018-05-26T13:31:27Z</time>
      </trkpt>
      <trkpt lat="47.8054" lon="6.7608">
        <ele>1017.260071</ele>
        <time>2018-05-26T13:31:28Z</time>
      </trkpt>
      <trkpt lat="47.80538" lon="6.76079">
        <ele>1017.42334</ele>
        <time>2018-05-26T13:31:30Z</time>
      </trkpt>
      <trkpt lat="47.80537" lon="6.76079">
        <ele>1017.662109</ele>
        <time>2018-05-26T13:31:31Z</time>
      </trkpt>
      <trkpt lat="47.80535" lon="6.76078">
        <ele>1017.830872</ele>
        <time>2018-05-26T13:31:32Z</time>
      </trkpt>
      <trkpt lat="47.80533" lon="6.76077">
        <ele>1018.009705</ele>
        <time>2018-05-26T13:31:33Z</time>
      </trkpt>
      <trkpt lat="47.80532" lon="6.76077">
        <ele>1018.284973</ele>
        <time>2018-05-26T13:31:34Z</time>
      </trkpt>
      <trkpt lat="47.8053" lon="6.76076">
        <ele>1018.467712</ele>
        <time>2018-05-26T13:31:35Z</time>
      </trkpt>
      <trkpt lat="47.80528" lon="6.76076">
        <ele>1018.645813</ele>
        <time>2018-05-26T13:31:36Z</time>
      </trkpt>
      <trkpt lat="47.80526" lon="6.76075">
        <ele>1018.898376</ele>
        <time>2018-05-26T13:31:37Z</time>
      </trkpt>
      <trkpt lat="47.80524" lon="6.76074">
        <ele>1019.051575</ele>
        <time>2018-05-26T13:31:38Z</time>
      </trkpt>
      <trkpt lat="47.80523" lon="6.76074">
        <ele>1019.243347</ele>
        <time>2018-05-26T13:31:39Z</time>
      </trkpt>
      <trkpt lat="47.80522" lon="6.76073">
        <ele>1019.348083</ele>
        <time>2018-05-26T13:31:40Z</time>
      </trkpt>
      <trkpt lat="47.8052" lon="6.76072">
        <ele>1019.447815</ele>
        <time>2018-05-26T13:31:41Z</time>
      </trkpt>
      <trkpt lat="47.80518" lon="6.76072">
        <ele>1019.591797</ele>
        <time>2018-05-26T13:31:42Z</time>
      </trkpt>
      <trkpt lat="47.80517" lon="6.76071">
        <ele>1019.686035</ele>
        <time>2018-05-26T13:31:43Z</time>
      </trkpt>
      <trkpt lat="47.80515" lon="6.76071">
        <ele>1019.7854</ele>
        <time>2018-05-26T13:31:44Z</time>
      </trkpt>
      <trkpt lat="47.80514" lon="6.7607">
        <ele>1019.954407</ele>
        <time>2018-05-26T13:31:45Z</time>
      </trkpt>
      <trkpt lat="47.80513" lon="6.7607">
        <ele>1020.079285</ele>
        <time>2018-05-26T13:31:46Z</time>
      </trkpt>
      <trkpt lat="47.80511" lon="6.7607">
        <ele>1020.275146</ele>
        <time>2018-05-26T13:31:47Z</time>
      </trkpt>
      <trkpt lat="47.80509" lon="6.76069">
        <ele>1020.404541</ele>
        <time>2018-05-26T13:31:48Z</time>
      </trkpt>
      <trkpt lat="47.80507" lon="6.76069">
        <ele>1020.533936</ele>
        <time>2018-05-26T13:31:49Z</time>
      </trkpt>
      <trkpt lat="47.80506" lon="6.76069">
        <ele>1020.740906</ele>
        <time>2018-05-26T13:31:50Z</time>
      </trkpt>
      <trkpt lat="47.80504" lon="6.76069">
        <ele>1020.895325</ele>
        <time>2018-05-26T13:31:51Z</time>
      </trkpt>
      <trkpt lat="47.80502" lon="6.76069">
        <ele>1021.142639</ele>
        <time>2018-05-26T13:31:52Z</time>
      </trkpt>
      <trkpt lat="47.80501" lon="6.76069">
        <ele>1021.309326</ele>
        <time>2018-05-26T13:31:53Z</time>
      </trkpt>
      <trkpt lat="47.80499" lon="6.76068">
        <ele>1021.472168</ele>
        <time>2018-05-26T13:31:54Z</time>
      </trkpt>
      <trkpt lat="47.80497" lon="6.76068">
        <ele>1021.712402</ele>
        <time>2018-05-26T13:31:55Z</time>
      </trkpt>
      <trkpt lat="47.80496" lon="6.76068">
        <ele>1021.864563</ele>
        <time>2018-05-26T13:31:56Z</time>
      </trkpt>
      <trkpt lat="47.80494" lon="6.76068">
        <ele>1022.068665</ele>
        <time>2018-05-26T13:31:57Z</time>
      </trkpt>
      <trkpt lat="47.80492" lon="6.76067">
        <ele>1022.189392</ele>
        <time>2018-05-26T13:31:58Z</time>
      </trkpt>
      <trkpt lat="47.8049" lon="6.76067">
        <ele>1022.308289</ele>
        <time>2018-05-26T13:31:59Z</time>
      </trkpt>
      <trkpt lat="47.80488" lon="6.76067">
        <ele>1022.49585</ele>
        <time>2018-05-26T13:32:00Z</time>
      </trkpt>
      <trkpt lat="47.80487" lon="6.76066">
        <ele>1022.625061</ele>
        <time>2018-05-26T13:32:01Z</time>
      </trkpt>
      <trkpt lat="47.80485" lon="6.76066">
        <ele>1022.752686</ele>
        <time>2018-05-26T13:32:02Z</time>
      </trkpt>
      <trkpt lat="47.80484" lon="6.76066">
        <ele>1022.945007</ele>
        <time>2018-05-26T13:32:03Z</time>
      </trkpt>
      <trkpt lat="47.80481" lon="6.76065">
        <ele>1023.081848</ele>
        <time>2018-05-26T13:32:04Z</time>
      </trkpt>
      <trkpt lat="47.8048" lon="6.76064">
        <ele>1023.307129</ele>
        <time>2018-05-26T13:32:05Z</time>
      </trkpt>
      <trkpt lat="47.80478" lon="6.76064">
        <ele>1023.466125</ele>
        <time>2018-05-26T13:32:06Z</time>
      </trkpt>
      <trkpt lat="47.80476" lon="6.76064">
        <ele>1023.625793</ele>
        <time>2018-05-26T13:32:07Z</time>
      </trkpt>
      <trkpt lat="47.80475" lon="6.76064">
        <ele>1023.862</ele>
        <time>2018-05-26T13:32:08Z</time>
      </trkpt>
      <trkpt lat="47.80473" lon="6.76064">
        <ele>1024.008789</ele>
        <time>2018-05-26T13:32:09Z</time>
      </trkpt>
      <trkpt lat="47.80471" lon="6.76063">
        <ele>1024.207397</ele>
        <time>2018-05-26T13:32:10Z</time>
      </trkpt>
      <trkpt lat="47.8047" lon="6.76063">
        <ele>1024.325928</ele>
        <time>2018-05-26T13:32:11Z</time>
      </trkpt>
      <trkpt lat="47.80468" lon="6.76063">
        <ele>1024.437378</ele>
        <time>2018-05-26T13:32:12Z</time>
      </trkpt>
      <trkpt lat="47.80467" lon="6.76063">
        <ele>1024.59729</ele>
        <time>2018-05-26T13:32:13Z</time>
      </trkpt>
      <trkpt lat="47.80465" lon="6.76062">
        <ele>1024.699829</ele>
        <time>2018-05-26T13:32:14Z</time>
      </trkpt>
      <trkpt lat="47.80462" lon="6.76061">
        <ele>1024.855103</ele>
        <time>2018-05-26T13:32:15Z</time>
      </trkpt>
      <trkpt lat="47.80461" lon="6.76061">
        <ele>1024.910645</ele>
        <time>2018-05-26T13:32:16Z</time>
      </trkpt>
      <trkpt lat="47.80459" lon="6.76061">
        <ele>1024.910645</ele>
        <time>2018-05-26T13:32:17Z</time>
      </trkpt>
      <trkpt lat="47.80457" lon="6.7606">
        <ele>1025.032227</ele>
        <time>2018-05-26T13:32:18Z</time>
      </trkpt>
      <trkpt lat="47.80455" lon="6.7606">
        <ele>1025.254272</ele>
        <time>2018-05-26T13:32:19Z</time>
      </trkpt>
      <trkpt lat="47.80453" lon="6.7606">
        <ele>1025.431396</ele>
        <time>2018-05-26T13:32:20Z</time>
      </trkpt>
      <trkpt lat="47.80452" lon="6.76059">
        <ele>1025.623413</ele>
        <time>2018-05-26T13:32:21Z</time>
      </trkpt>
      <trkpt lat="47.80449" lon="6.76059">
        <ele>1025.929321</ele>
        <time>2018-05-26T13:32:22Z</time>
      </trkpt>
      <trkpt lat="47.80448" lon="6.76059">
        <ele>1026.138916</ele>
        <time>2018-05-26T13:32:23Z</time>
      </trkpt>
      <trkpt lat="47.80446" lon="6.76059">
        <ele>1026.344971</ele>
        <time>2018-05-26T13:32:24Z</time>
      </trkpt>
      <trkpt lat="47.80444" lon="6.76059">
        <ele>1026.617432</ele>
        <time>2018-05-26T13:32:25Z</time>
      </trkpt>
      <trkpt lat="47.80442" lon="6.76059">
        <ele>1026.769287</ele>
        <time>2018-05-26T13:32:26Z</time>
      </trkpt>
      <trkpt lat="47.80441" lon="6.76058">
        <ele>1026.970581</ele>
        <time>2018-05-26T13:32:27Z</time>
      </trkpt>
      <trkpt lat="47.80439" lon="6.76058">
        <ele>1027.097534</ele>
        <time>2018-05-26T13:32:28Z</time>
      </trkpt>
      <trkpt lat="47.80437" lon="6.76057">
        <ele>1027.219604</ele>
        <time>2018-05-26T13:32:29Z</time>
      </trkpt>
      <trkpt lat="47.80436" lon="6.76057">
        <ele>1027.414307</ele>
        <time>2018-05-26T13:32:30Z</time>
      </trkpt>
      <trkpt lat="47.80434" lon="6.76057">
        <ele>1027.557495</ele>
        <time>2018-05-26T13:32:31Z</time>
      </trkpt>
      <trkpt lat="47.80433" lon="6.76057">
        <ele>1027.708618</ele>
        <time>2018-05-26T13:32:32Z</time>
      </trkpt>
      <trkpt lat="47.80431" lon="6.76056">
        <ele>1027.943726</ele>
        <time>2018-05-26T13:32:33Z</time>
      </trkpt>
      <trkpt lat="47.8043" lon="6.76056">
        <ele>1028.107788</ele>
        <time>2018-05-26T13:32:34Z</time>
      </trkpt>
      <trkpt lat="47.80429" lon="6.76055">
        <ele>1028.366089</ele>
        <time>2018-05-26T13:32:35Z</time>
      </trkpt>
      <trkpt lat="47.80427" lon="6.76055">
        <ele>1028.540527</ele>
        <time>2018-05-26T13:32:36Z</time>
      </trkpt>
      <trkpt lat="47.80426" lon="6.76055">
        <ele>1028.711792</ele>
        <time>2018-05-26T13:32:37Z</time>
      </trkpt>
      <trkpt lat="47.80424" lon="6.76055">
        <ele>1028.974609</ele>
        <time>2018-05-26T13:32:38Z</time>
      </trkpt>
      <trkpt lat="47.80423" lon="6.76055">
        <ele>1029.160278</ele>
        <time>2018-05-26T13:32:39Z</time>
      </trkpt>
      <trkpt lat="47.80421" lon="6.76054">
        <ele>1029.456177</ele>
        <time>2018-05-26T13:32:40Z</time>
      </trkpt>
      <trkpt lat="47.8042" lon="6.76053">
        <ele>1029.661255</ele>
        <time>2018-05-26T13:32:41Z</time>
      </trkpt>
      <trkpt lat="47.80418" lon="6.76052">
        <ele>1029.867676</ele>
        <time>2018-05-26T13:32:42Z</time>
      </trkpt>
      <trkpt lat="47.80416" lon="6.76051">
        <ele>1030.18103</ele>
        <time>2018-05-26T13:32:43Z</time>
      </trkpt>
      <trkpt lat="47.80415" lon="6.76051">
        <ele>1030.392456</ele>
        <time>2018-05-26T13:32:44Z</time>
      </trkpt>
      <trkpt lat="47.80413" lon="6.7605">
        <ele>1030.695435</ele>
        <time>2018-05-26T13:32:45Z</time>
      </trkpt>
      <trkpt lat="47.80412" lon="6.7605">
        <ele>1030.887451</ele>
        <time>2018-05-26T13:32:46Z</time>
      </trkpt>
      <trkpt lat="47.8041" lon="6.7605">
        <ele>1031.078613</ele>
        <time>2018-05-26T13:32:47Z</time>
      </trkpt>
      <trkpt lat="47.80409" lon="6.76049">
        <ele>1031.371582</ele>
        <time>2018-05-26T13:32:48Z</time>
      </trkpt>
      <trkpt lat="47.80407" lon="6.76049">
        <ele>1031.565552</ele>
        <time>2018-05-26T13:32:49Z</time>
      </trkpt>
      <trkpt lat="47.80405" lon="6.76049">
        <ele>1031.84729</ele>
        <time>2018-05-26T13:32:50Z</time>
      </trkpt>
      <trkpt lat="47.80403" lon="6.76049">
        <ele>1032.025391</ele>
        <time>2018-05-26T13:32:51Z</time>
      </trkpt>
      <trkpt lat="47.80402" lon="6.76049">
        <ele>1032.193848</ele>
        <time>2018-05-26T13:32:52Z</time>
      </trkpt>
      <trkpt lat="47.804" lon="6.76049">
        <ele>1032.442017</ele>
        <time>2018-05-26T13:32:53Z</time>
      </trkpt>
      <trkpt lat="47.80399" lon="6.76049">
        <ele>1032.613647</ele>
        <time>2018-05-26T13:32:54Z</time>
      </trkpt>
      <trkpt lat="47.80397" lon="6.76049">
        <ele>1032.874146</ele>
        <time>2018-05-26T13:32:55Z</time>
      </trkpt>
      <trkpt lat="47.80395" lon="6.7605">
        <ele>1033.041382</ele>
        <time>2018-05-26T13:32:56Z</time>
      </trkpt>
      <trkpt lat="47.80393" lon="6.7605">
        <ele>1033.199829</ele>
        <time>2018-05-26T13:32:57Z</time>
      </trkpt>
      <trkpt lat="47.80392" lon="6.76049">
        <ele>1033.425903</ele>
        <time>2018-05-26T13:32:58Z</time>
      </trkpt>
      <trkpt lat="47.8039" lon="6.76049">
        <ele>1033.564941</ele>
        <time>2018-05-26T13:32:59Z</time>
      </trkpt>
      <trkpt lat="47.80389" lon="6.76048">
        <ele>1033.755005</ele>
        <time>2018-05-26T13:33:00Z</time>
      </trkpt>
      <trkpt lat="47.80387" lon="6.76048">
        <ele>1033.87439</ele>
        <time>2018-05-26T13:33:01Z</time>
      </trkpt>
      <trkpt lat="47.80385" lon="6.76048">
        <ele>1033.988892</ele>
        <time>2018-05-26T13:33:02Z</time>
      </trkpt>
      <trkpt lat="47.80383" lon="6.76047">
        <ele>1034.162598</ele>
        <time>2018-05-26T13:33:03Z</time>
      </trkpt>
      <trkpt lat="47.80381" lon="6.76046">
        <ele>1034.278442</ele>
        <time>2018-05-26T13:33:04Z</time>
      </trkpt>
      <trkpt lat="47.8038" lon="6.76046">
        <ele>1034.394165</ele>
        <time>2018-05-26T13:33:05Z</time>
      </trkpt>
      <trkpt lat="47.80379" lon="6.76045">
        <ele>1034.568726</ele>
        <time>2018-05-26T13:33:06Z</time>
      </trkpt>
      <trkpt lat="47.80377" lon="6.76044">
        <ele>1034.686035</ele>
        <time>2018-05-26T13:33:07Z</time>
      </trkpt>
      <trkpt lat="47.80375" lon="6.76043">
        <ele>1034.807129</ele>
        <time>2018-05-26T13:33:08Z</time>
      </trkpt>
      <trkpt lat="47.80373" lon="6.76042">
        <ele>1034.998413</ele>
        <time>2018-05-26T13:33:09Z</time>
      </trkpt>
      <trkpt lat="47.80371" lon="6.76041">
        <ele>1035.132446</ele>
        <time>2018-05-26T13:33:10Z</time>
      </trkpt>
      <trkpt lat="47.8037" lon="6.7604">
        <ele>1035.2677</ele>
        <time>2018-05-26T13:33:11Z</time>
      </trkpt>
      <trkpt lat="47.80368" lon="6.76039">
        <ele>1035.460449</ele>
        <time>2018-05-26T13:33:12Z</time>
      </trkpt>
      <trkpt lat="47.80366" lon="6.76038">
        <ele>1035.57605</ele>
        <time>2018-05-26T13:33:13Z</time>
      </trkpt>
      <trkpt lat="47.80364" lon="6.76036">
        <ele>1035.685059</ele>
        <time>2018-05-26T13:33:14Z</time>
      </trkpt>
      <trkpt lat="47.80363" lon="6.76035">
        <ele>1035.850708</ele>
        <time>2018-05-26T13:33:15Z</time>
      </trkpt>
      <trkpt lat="47.80361" lon="6.76033">
        <ele>1035.966431</ele>
        <time>2018-05-26T13:33:16Z</time>
      </trkpt>
      <trkpt lat="47.8036" lon="6.76032">
        <ele>1036.025513</ele>
        <time>2018-05-26T13:33:17Z</time>
      </trkpt>
      <trkpt lat="47.80358" lon="6.7603">
        <ele>1036.21814</ele>
        <time>2018-05-26T13:33:18Z</time>
      </trkpt>
      <trkpt lat="47.80357" lon="6.76028">
        <ele>1036.359253</ele>
        <time>2018-05-26T13:33:19Z</time>
      </trkpt>
      <trkpt lat="47.80356" lon="6.76027">
        <ele>1036.507935</ele>
        <time>2018-05-26T13:33:20Z</time>
      </trkpt>
      <trkpt lat="47.80354" lon="6.76025">
        <ele>1036.657837</ele>
        <time>2018-05-26T13:33:21Z</time>
      </trkpt>
      <trkpt lat="47.80353" lon="6.76024">
        <ele>1036.884399</ele>
        <time>2018-05-26T13:33:22Z</time>
      </trkpt>
      <trkpt lat="47.80352" lon="6.76023">
        <ele>1037.042114</ele>
        <time>2018-05-26T13:33:23Z</time>
      </trkpt>
      <trkpt lat="47.80351" lon="6.76021">
        <ele>1037.204224</ele>
        <time>2018-05-26T13:33:24Z</time>
      </trkpt>
      <trkpt lat="47.8035" lon="6.76019">
        <ele>1037.447632</ele>
        <time>2018-05-26T13:33:25Z</time>
      </trkpt>
      <trkpt lat="47.80349" lon="6.76018">
        <ele>1037.608765</ele>
        <time>2018-05-26T13:33:26Z</time>
      </trkpt>
      <trkpt lat="47.80347" lon="6.76016">
        <ele>1037.769653</ele>
        <time>2018-05-26T13:33:27Z</time>
      </trkpt>
      <trkpt lat="47.80346" lon="6.76014">
        <ele>1037.929199</ele>
        <time>2018-05-26T13:33:28Z</time>
      </trkpt>
      <trkpt lat="47.80344" lon="6.76013">
        <ele>1038.157349</ele>
        <time>2018-05-26T13:33:29Z</time>
      </trkpt>
      <trkpt lat="47.80343" lon="6.76011">
        <ele>1038.297119</ele>
        <time>2018-05-26T13:33:30Z</time>
      </trkpt>
      <trkpt lat="47.80342" lon="6.76009">
        <ele>1038.430176</ele>
        <time>2018-05-26T13:33:31Z</time>
      </trkpt>
      <trkpt lat="47.80341" lon="6.76007">
        <ele>1038.63562</ele>
        <time>2018-05-26T13:33:32Z</time>
      </trkpt>
      <trkpt lat="47.8034" lon="6.76005">
        <ele>1038.788818</ele>
        <time>2018-05-26T13:33:33Z</time>
      </trkpt>
      <trkpt lat="47.80339" lon="6.76002">
        <ele>1038.94812</ele>
        <time>2018-05-26T13:33:34Z</time>
      </trkpt>
      <trkpt lat="47.80338" lon="6.76">
        <ele>1039.176392</ele>
        <time>2018-05-26T13:33:35Z</time>
      </trkpt>
      <trkpt lat="47.80337" lon="6.75998">
        <ele>1039.314697</ele>
        <time>2018-05-26T13:33:36Z</time>
      </trkpt>
      <trkpt lat="47.80335" lon="6.75997">
        <ele>1039.446167</ele>
        <time>2018-05-26T13:33:37Z</time>
      </trkpt>
      <trkpt lat="47.80335" lon="6.75995">
        <ele>1039.571655</ele>
        <time>2018-05-26T13:33:38Z</time>
      </trkpt>
      <trkpt lat="47.80333" lon="6.75993">
        <ele>1039.751587</ele>
        <time>2018-05-26T13:33:39Z</time>
      </trkpt>
      <trkpt lat="47.80332" lon="6.75991">
        <ele>1039.865723</ele>
        <time>2018-05-26T13:33:40Z</time>
      </trkpt>
      <trkpt lat="47.80331" lon="6.75989">
        <ele>1039.981812</ele>
        <time>2018-05-26T13:33:41Z</time>
      </trkpt>
      <trkpt lat="47.8033" lon="6.75987">
        <ele>1040.1073</ele>
        <time>2018-05-26T13:33:42Z</time>
      </trkpt>
      <trkpt lat="47.80328" lon="6.75985">
        <ele>1040.326904</ele>
        <time>2018-05-26T13:33:43Z</time>
      </trkpt>
      <trkpt lat="47.80327" lon="6.75983">
        <ele>1040.492188</ele>
        <time>2018-05-26T13:33:44Z</time>
      </trkpt>
      <trkpt lat="47.80325" lon="6.7598">
        <ele>1040.665894</ele>
        <time>2018-05-26T13:33:45Z</time>
      </trkpt>
      <trkpt lat="47.80324" lon="6.75978">
        <ele>1040.921753</ele>
        <time>2018-05-26T13:33:46Z</time>
      </trkpt>
      <trkpt lat="47.80322" lon="6.75976">
        <ele>1041.078979</ele>
        <time>2018-05-26T13:33:47Z</time>
      </trkpt>
      <trkpt lat="47.80321" lon="6.75973">
        <ele>1041.297974</ele>
        <time>2018-05-26T13:33:48Z</time>
      </trkpt>
      <trkpt lat="47.80319" lon="6.75971">
        <ele>1041.433228</ele>
        <time>2018-05-26T13:33:49Z</time>
      </trkpt>
      <trkpt lat="47.80318" lon="6.75969">
        <ele>1041.561157</ele>
        <time>2018-05-26T13:33:50Z</time>
      </trkpt>
      <trkpt lat="47.80316" lon="6.75967">
        <ele>1041.680664</ele>
        <time>2018-05-26T13:33:51Z</time>
      </trkpt>
      <trkpt lat="47.80315" lon="6.75964">
        <ele>1041.840332</ele>
        <time>2018-05-26T13:33:52Z</time>
      </trkpt>
      <trkpt lat="47.80314" lon="6.75962">
        <ele>1041.934326</ele>
        <time>2018-05-26T13:33:53Z</time>
      </trkpt>
      <trkpt lat="47.80312" lon="6.75959">
        <ele>1042.024536</ele>
        <time>2018-05-26T13:33:54Z</time>
      </trkpt>
      <trkpt lat="47.80311" lon="6.75957">
        <ele>1042.169189</ele>
        <time>2018-05-26T13:33:55Z</time>
      </trkpt>
      <trkpt lat="47.80309" lon="6.75955">
        <ele>1042.282227</ele>
        <time>2018-05-26T13:33:56Z</time>
      </trkpt>
      <trkpt lat="47.80308" lon="6.75952">
        <ele>1042.411133</ele>
        <time>2018-05-26T13:33:57Z</time>
      </trkpt>
      <trkpt lat="47.80306" lon="6.75949">
        <ele>1042.633301</ele>
        <time>2018-05-26T13:33:58Z</time>
      </trkpt>
      <trkpt lat="47.80305" lon="6.75947">
        <ele>1042.788452</ele>
        <time>2018-05-26T13:33:59Z</time>
      </trkpt>
      <trkpt lat="47.80303" lon="6.75944">
        <ele>1042.946655</ele>
        <time>2018-05-26T13:34:00Z</time>
      </trkpt>
      <trkpt lat="47.80302" lon="6.75942">
        <ele>1043.099976</ele>
        <time>2018-05-26T13:34:01Z</time>
      </trkpt>
      <trkpt lat="47.803" lon="6.75939">
        <ele>1043.243286</ele>
        <time>2018-05-26T13:34:02Z</time>
      </trkpt>
      <trkpt lat="47.80299" lon="6.75936">
        <ele>1043.421509</ele>
        <time>2018-05-26T13:34:03Z</time>
      </trkpt>
      <trkpt lat="47.80297" lon="6.75933">
        <ele>1043.518433</ele>
        <time>2018-05-26T13:34:04Z</time>
      </trkpt>
      <trkpt lat="47.80296" lon="6.7593">
        <ele>1043.602295</ele>
        <time>2018-05-26T13:34:05Z</time>
      </trkpt>
      <trkpt lat="47.80295" lon="6.75926">
        <ele>1043.682739</ele>
        <time>2018-05-26T13:34:06Z</time>
      </trkpt>
      <trkpt lat="47.80294" lon="6.75923">
        <ele>1043.793823</ele>
        <time>2018-05-26T13:34:07Z</time>
      </trkpt>
      <trkpt lat="47.80292" lon="6.7592">
        <ele>1043.863525</ele>
        <time>2018-05-26T13:34:08Z</time>
      </trkpt>
      <trkpt lat="47.80291" lon="6.75918">
        <ele>1043.930664</ele>
        <time>2018-05-26T13:34:09Z</time>
      </trkpt>
      <trkpt lat="47.8029" lon="6.75916">
        <ele>1044.047974</ele>
        <time>2018-05-26T13:34:10Z</time>
      </trkpt>
      <trkpt lat="47.80288" lon="6.75914">
        <ele>1044.133301</ele>
        <time>2018-05-26T13:34:11Z</time>
      </trkpt>
      <trkpt lat="47.80286" lon="6.75911">
        <ele>1044.221313</ele>
        <time>2018-05-26T13:34:12Z</time>
      </trkpt>
      <trkpt lat="47.80285" lon="6.75909">
        <ele>1044.35437</ele>
        <time>2018-05-26T13:34:13Z</time>
      </trkpt>
      <trkpt lat="47.80283" lon="6.75906">
        <ele>1044.458984</ele>
        <time>2018-05-26T13:34:14Z</time>
      </trkpt>
      <trkpt lat="47.80281" lon="6.75903">
        <ele>1044.573853</ele>
        <time>2018-05-26T13:34:15Z</time>
      </trkpt>
      <trkpt lat="47.8028" lon="6.75901">
        <ele>1044.765869</ele>
        <time>2018-05-26T13:34:16Z</time>
      </trkpt>
      <trkpt lat="47.80278" lon="6.75899">
        <ele>1044.831665</ele>
        <time>2018-05-26T13:34:17Z</time>
      </trkpt>
      <trkpt lat="47.80276" lon="6.75897">
        <ele>1044.900635</ele>
        <time>2018-05-26T13:34:18Z</time>
      </trkpt>
      <trkpt lat="47.80275" lon="6.75895">
        <ele>1045.043091</ele>
        <time>2018-05-26T13:34:19Z</time>
      </trkpt>
      <trkpt lat="47.80273" lon="6.75893">
        <ele>1045.265503</ele>
        <time>2018-05-26T13:34:20Z</time>
      </trkpt>
      <trkpt lat="47.80272" lon="6.75891">
        <ele>1045.408325</ele>
        <time>2018-05-26T13:34:21Z</time>
      </trkpt>
      <trkpt lat="47.8027" lon="6.75888">
        <ele>1045.533813</ele>
        <time>2018-05-26T13:34:22Z</time>
      </trkpt>
      <trkpt lat="47.80268" lon="6.75886">
        <ele>1045.68811</ele>
        <time>2018-05-26T13:34:23Z</time>
      </trkpt>
      <trkpt lat="47.80266" lon="6.75883">
        <ele>1045.775513</ele>
        <time>2018-05-26T13:34:24Z</time>
      </trkpt>
      <trkpt lat="47.80264" lon="6.7588">
        <ele>1045.85498</ele>
        <time>2018-05-26T13:34:25Z</time>
      </trkpt>
      <trkpt lat="47.80262" lon="6.75878">
        <ele>1045.928101</ele>
        <time>2018-05-26T13:34:26Z</time>
      </trkpt>
      <trkpt lat="47.8026" lon="6.75875">
        <ele>1046.036743</ele>
        <time>2018-05-26T13:34:27Z</time>
      </trkpt>
      <trkpt lat="47.80258" lon="6.75873">
        <ele>1046.118774</ele>
        <time>2018-05-26T13:34:28Z</time>
      </trkpt>
      <trkpt lat="47.80256" lon="6.7587">
        <ele>1046.21228</ele>
        <time>2018-05-26T13:34:29Z</time>
      </trkpt>
      <trkpt lat="47.80255" lon="6.75867">
        <ele>1046.366699</ele>
        <time>2018-05-26T13:34:30Z</time>
      </trkpt>
      <trkpt lat="47.80253" lon="6.75865">
        <ele>1046.472046</ele>
        <time>2018-05-26T13:34:31Z</time>
      </trkpt>
      <trkpt lat="47.80252" lon="6.75863">
        <ele>1046.580444</ele>
        <time>2018-05-26T13:34:32Z</time>
      </trkpt>
      <trkpt lat="47.8025" lon="6.75861">
        <ele>1046.751465</ele>
        <time>2018-05-26T13:34:33Z</time>
      </trkpt>
      <trkpt lat="47.80249" lon="6.75859">
        <ele>1046.869019</ele>
        <time>2018-05-26T13:34:34Z</time>
      </trkpt>
      <trkpt lat="47.80248" lon="6.75857">
        <ele>1046.98938</ele>
        <time>2018-05-26T13:34:35Z</time>
      </trkpt>
      <trkpt lat="47.80246" lon="6.75854">
        <ele>1047.114136</ele>
        <time>2018-05-26T13:34:36Z</time>
      </trkpt>
      <trkpt lat="47.80244" lon="6.75852">
        <ele>1047.242065</ele>
        <time>2018-05-26T13:34:37Z</time>
      </trkpt>
      <trkpt lat="47.80243" lon="6.7585">
        <ele>1047.439697</ele>
        <time>2018-05-26T13:34:38Z</time>
      </trkpt>
      <trkpt lat="47.80241" lon="6.75848">
        <ele>1047.573975</ele>
        <time>2018-05-26T13:34:39Z</time>
      </trkpt>
      <trkpt lat="47.80239" lon="6.75846">
        <ele>1047.708618</ele>
        <time>2018-05-26T13:34:40Z</time>
      </trkpt>
      <trkpt lat="47.80237" lon="6.75844">
        <ele>1047.908813</ele>
        <time>2018-05-26T13:34:41Z</time>
      </trkpt>
      <trkpt lat="47.80235" lon="6.75843">
        <ele>1048.036011</ele>
        <time>2018-05-26T13:34:42Z</time>
      </trkpt>
      <trkpt lat="47.80233" lon="6.75841">
        <ele>1048.161499</ele>
        <time>2018-05-26T13:34:43Z</time>
      </trkpt>
      <trkpt lat="47.80231" lon="6.75839">
        <ele>1048.289917</ele>
        <time>2018-05-26T13:34:44Z</time>
      </trkpt>
      <trkpt lat="47.8023" lon="6.75838">
        <ele>1048.488281</ele>
        <time>2018-05-26T13:34:45Z</time>
      </trkpt>
      <trkpt lat="47.80229" lon="6.75837">
        <ele>1048.620239</ele>
        <time>2018-05-26T13:34:46Z</time>
      </trkpt>
      <trkpt lat="47.80227" lon="6.75835">
        <ele>1048.754883</ele>
        <time>2018-05-26T13:34:47Z</time>
      </trkpt>
      <trkpt lat="47.80225" lon="6.75834">
        <ele>1048.949219</ele>
        <time>2018-05-26T13:34:48Z</time>
      </trkpt>
      <trkpt lat="47.80224" lon="6.75833">
        <ele>1049.06543</ele>
        <time>2018-05-26T13:34:49Z</time>
      </trkpt>
      <trkpt lat="47.80223" lon="6.75832">
        <ele>1049.161987</ele>
        <time>2018-05-26T13:34:50Z</time>
      </trkpt>
      <trkpt lat="47.80221" lon="6.75831">
        <ele>1049.271851</ele>
        <time>2018-05-26T13:34:51Z</time>
      </trkpt>
      <trkpt lat="47.8022" lon="6.75829">
        <ele>1049.326538</ele>
        <time>2018-05-26T13:34:52Z</time>
      </trkpt>
      <trkpt lat="47.80218" lon="6.75828">
        <ele>1049.367432</ele>
        <time>2018-05-26T13:34:53Z</time>
      </trkpt>
      <trkpt lat="47.80217" lon="6.75827">
        <ele>1049.396362</ele>
        <time>2018-05-26T13:34:54Z</time>
      </trkpt>
      <trkpt lat="47.80215" lon="6.75827">
        <ele>1049.396362</ele>
        <time>2018-05-26T13:34:55Z</time>
      </trkpt>
      <trkpt lat="47.80214" lon="6.75827">
        <ele>1049.392822</ele>
        <time>2018-05-26T13:34:56Z</time>
      </trkpt>
      <trkpt lat="47.80212" lon="6.75827">
        <ele>1049.376099</ele>
        <time>2018-05-26T13:34:57Z</time>
      </trkpt>
      <trkpt lat="47.80211" lon="6.75829">
        <ele>1049.358398</ele>
        <time>2018-05-26T13:34:58Z</time>
      </trkpt>
      <trkpt lat="47.8021" lon="6.7583">
        <ele>1049.313965</ele>
        <time>2018-05-26T13:34:59Z</time>
      </trkpt>
      <trkpt lat="47.80207" lon="6.75831">
        <ele>1049.274414</ele>
        <time>2018-05-26T13:35:00Z</time>
      </trkpt>
      <trkpt lat="47.80206" lon="6.7583">
        <ele>1049.220581</ele>
        <time>2018-05-26T13:35:01Z</time>
      </trkpt>
      <trkpt lat="47.80204" lon="6.7583">
        <ele>1049.213013</ele>
        <time>2018-05-26T13:35:02Z</time>
      </trkpt>
      <trkpt lat="47.80203" lon="6.75831">
        <ele>1049.213135</ele>
        <time>2018-05-26T13:35:03Z</time>
      </trkpt>
      <trkpt lat="47.80202" lon="6.75831">
        <ele>1049.26709</ele>
        <time>2018-05-26T13:35:04Z</time>
      </trkpt>
      <trkpt lat="47.80201" lon="6.75831">
        <ele>1049.353149</ele>
        <time>2018-05-26T13:35:05Z</time>
      </trkpt>
      <trkpt lat="47.80194" lon="6.75839">
        <ele>1051.181885</ele>
        <time>2018-05-26T13:35:28Z</time>
      </trkpt>
      <trkpt lat="47.80193" lon="6.7584">
        <ele>1051.338257</ele>
        <time>2018-05-26T13:35:30Z</time>
      </trkpt>
      <trkpt lat="47.80191" lon="6.75841">
        <ele>1051.438843</ele>
        <time>2018-05-26T13:35:31Z</time>
      </trkpt>
      <trkpt lat="47.8019" lon="6.75842">
        <ele>1051.527222</ele>
        <time>2018-05-26T13:35:32Z</time>
      </trkpt>
      <trkpt lat="47.8019" lon="6.75843">
        <ele>1051.641602</ele>
        <time>2018-05-26T13:35:33Z</time>
      </trkpt>
      <trkpt lat="47.80188" lon="6.75844">
        <ele>1051.719116</ele>
        <time>2018-05-26T13:35:34Z</time>
      </trkpt>
      <trkpt lat="47.80188" lon="6.75845">
        <ele>1051.849121</ele>
        <time>2018-05-26T13:35:35Z</time>
      </trkpt>
      <trkpt lat="47.80186" lon="6.75845">
        <ele>1051.945923</ele>
        <time>2018-05-26T13:35:36Z</time>
      </trkpt>
      <trkpt lat="47.80186" lon="6.75845">
        <ele>1052.223389</ele>
        <time>2018-05-26T13:44:46Z</time>
      </trkpt>
      <trkpt lat="47.80179" lon="6.75853">
        <ele>1053.482056</ele>
        <time>2018-05-26T13:44:46Z</time>
      </trkpt>
      <trkpt lat="47.80177" lon="6.75855">
        <ele>1053.498657</ele>
        <time>2018-05-26T13:44:48Z</time>
      </trkpt>
      <trkpt lat="47.80176" lon="6.75857">
        <ele>1053.514282</ele>
        <time>2018-05-26T13:44:49Z</time>
      </trkpt>
      <trkpt lat="47.80175" lon="6.75859">
        <ele>1053.529053</ele>
        <time>2018-05-26T13:44:50Z</time>
      </trkpt>
      <trkpt lat="47.80173" lon="6.75862">
        <ele>1053.530762</ele>
        <time>2018-05-26T13:44:51Z</time>
      </trkpt>
      <trkpt lat="47.80172" lon="6.75864">
        <ele>1053.530762</ele>
        <time>2018-05-26T13:44:52Z</time>
      </trkpt>
      <trkpt lat="47.8017" lon="6.75865">
        <ele>1053.52063</ele>
        <time>2018-05-26T13:44:53Z</time>
      </trkpt>
      <trkpt lat="47.80168" lon="6.75866">
        <ele>1053.509033</ele>
        <time>2018-05-26T13:44:54Z</time>
      </trkpt>
      <trkpt lat="47.80167" lon="6.75867">
        <ele>1053.497192</ele>
        <time>2018-05-26T13:44:55Z</time>
      </trkpt>
      <trkpt lat="47.80165" lon="6.75869">
        <ele>1053.494385</ele>
        <time>2018-05-26T13:44:56Z</time>
      </trkpt>
      <trkpt lat="47.80164" lon="6.7587">
        <ele>1053.529785</ele>
        <time>2018-05-26T13:44:57Z</time>
      </trkpt>
      <trkpt lat="47.80162" lon="6.75872">
        <ele>1053.615112</ele>
        <time>2018-05-26T13:44:59Z</time>
      </trkpt>
      <trkpt lat="47.80161" lon="6.75873">
        <ele>1053.696411</ele>
        <time>2018-05-26T13:45:00Z</time>
      </trkpt>
      <trkpt lat="47.80159" lon="6.75875">
        <ele>1053.793579</ele>
        <time>2018-05-26T13:45:01Z</time>
      </trkpt>
      <trkpt lat="47.80158" lon="6.75878">
        <ele>1053.954712</ele>
        <time>2018-05-26T13:45:02Z</time>
      </trkpt>
      <trkpt lat="47.80156" lon="6.7588">
        <ele>1054.075317</ele>
        <time>2018-05-26T13:45:03Z</time>
      </trkpt>
      <trkpt lat="47.80154" lon="6.75882">
        <ele>1054.211548</ele>
        <time>2018-05-26T13:45:04Z</time>
      </trkpt>
      <trkpt lat="47.80153" lon="6.75883">
        <ele>1054.798828</ele>
        <time>2018-05-26T13:45:06Z</time>
      </trkpt>
      <trkpt lat="47.80152" lon="6.75885">
        <ele>1055.055542</ele>
        <time>2018-05-26T13:45:08Z</time>
      </trkpt>
      <trkpt lat="47.80151" lon="6.75886">
        <ele>1055.232788</ele>
        <time>2018-05-26T13:45:09Z</time>
      </trkpt>
      <trkpt lat="47.8015" lon="6.75888">
        <ele>1055.413696</ele>
        <time>2018-05-26T13:45:10Z</time>
      </trkpt>
      <trkpt lat="47.80149" lon="6.75889">
        <ele>1055.681274</ele>
        <time>2018-05-26T13:45:11Z</time>
      </trkpt>
      <trkpt lat="47.80148" lon="6.75891">
        <ele>1055.857788</ele>
        <time>2018-05-26T13:45:12Z</time>
      </trkpt>
      <trkpt lat="47.80146" lon="6.75892">
        <ele>1056.039429</ele>
        <time>2018-05-26T13:45:13Z</time>
      </trkpt>
      <trkpt lat="47.80145" lon="6.75894">
        <ele>1056.217285</ele>
        <time>2018-05-26T13:45:14Z</time>
      </trkpt>
      <trkpt lat="47.80143" lon="6.75895">
        <ele>1056.465332</ele>
        <time>2018-05-26T13:45:15Z</time>
      </trkpt>
      <trkpt lat="47.80141" lon="6.75896">
        <ele>1056.615723</ele>
        <time>2018-05-26T13:45:16Z</time>
      </trkpt>
      <trkpt lat="47.8014" lon="6.75898">
        <ele>1056.763062</ele>
        <time>2018-05-26T13:45:17Z</time>
      </trkpt>
      <trkpt lat="47.80139" lon="6.75899">
        <ele>1056.990479</ele>
        <time>2018-05-26T13:45:18Z</time>
      </trkpt>
      <trkpt lat="47.80138" lon="6.759">
        <ele>1057.142944</ele>
        <time>2018-05-26T13:45:19Z</time>
      </trkpt>
      <trkpt lat="47.80136" lon="6.75902">
        <ele>1057.361328</ele>
        <time>2018-05-26T13:45:20Z</time>
      </trkpt>
      <trkpt lat="47.80135" lon="6.75903">
        <ele>1057.504028</ele>
        <time>2018-05-26T13:45:21Z</time>
      </trkpt>
      <trkpt lat="47.80133" lon="6.75904">
        <ele>1057.651367</ele>
        <time>2018-05-26T13:45:22Z</time>
      </trkpt>
      <trkpt lat="47.80132" lon="6.75905">
        <ele>1057.727417</ele>
        <time>2018-05-26T13:45:23Z</time>
      </trkpt>
      <trkpt lat="47.80131" lon="6.75906">
        <ele>1057.805054</ele>
        <time>2018-05-26T13:45:24Z</time>
      </trkpt>
      <trkpt lat="47.8013" lon="6.75907">
        <ele>1058.045776</ele>
        <time>2018-05-26T13:45:25Z</time>
      </trkpt>
      <trkpt lat="47.80129" lon="6.75908">
        <ele>1058.203247</ele>
        <time>2018-05-26T13:45:26Z</time>
      </trkpt>
      <trkpt lat="47.80127" lon="6.75909">
        <ele>1058.352539</ele>
        <time>2018-05-26T13:45:27Z</time>
      </trkpt>
      <trkpt lat="47.80126" lon="6.7591">
        <ele>1058.549316</ele>
        <time>2018-05-26T13:45:28Z</time>
      </trkpt>
      <trkpt lat="47.80124" lon="6.75911">
        <ele>1058.65564</ele>
        <time>2018-05-26T13:45:29Z</time>
      </trkpt>
      <trkpt lat="47.80122" lon="6.75912">
        <ele>1058.738892</ele>
        <time>2018-05-26T13:45:30Z</time>
      </trkpt>
      <trkpt lat="47.8012" lon="6.75914">
        <ele>1058.8302</ele>
        <time>2018-05-26T13:45:31Z</time>
      </trkpt>
      <trkpt lat="47.80118" lon="6.75916">
        <ele>1058.875122</ele>
        <time>2018-05-26T13:45:32Z</time>
      </trkpt>
      <trkpt lat="47.80116" lon="6.75916">
        <ele>1058.913696</ele>
        <time>2018-05-26T13:45:33Z</time>
      </trkpt>
      <trkpt lat="47.80114" lon="6.75916">
        <ele>1058.96167</ele>
        <time>2018-05-26T13:45:34Z</time>
      </trkpt>
      <trkpt lat="47.80113" lon="6.75918">
        <ele>1058.994629</ele>
        <time>2018-05-26T13:45:35Z</time>
      </trkpt>
      <trkpt lat="47.8011" lon="6.75919">
        <ele>1059.033691</ele>
        <time>2018-05-26T13:45:36Z</time>
      </trkpt>
      <trkpt lat="47.80106" lon="6.75921">
        <ele>1059.100098</ele>
        <time>2018-05-26T13:45:37Z</time>
      </trkpt>
      <trkpt lat="47.80104" lon="6.75922">
        <ele>1059.140625</ele>
        <time>2018-05-26T13:45:38Z</time>
      </trkpt>
      <trkpt lat="47.80101" lon="6.75922">
        <ele>1059.172852</ele>
        <time>2018-05-26T13:45:39Z</time>
      </trkpt>
      <trkpt lat="47.80099" lon="6.75923">
        <ele>1059.205444</ele>
        <time>2018-05-26T13:45:40Z</time>
      </trkpt>
      <trkpt lat="47.80096" lon="6.75923">
        <ele>1059.225342</ele>
        <time>2018-05-26T13:45:41Z</time>
      </trkpt>
      <trkpt lat="47.80093" lon="6.75923">
        <ele>1059.251953</ele>
        <time>2018-05-26T13:45:42Z</time>
      </trkpt>
      <trkpt lat="47.8009" lon="6.75923">
        <ele>1059.26123</ele>
        <time>2018-05-26T13:45:43Z</time>
      </trkpt>
      <trkpt lat="47.80087" lon="6.75923">
        <ele>1059.261353</ele>
        <time>2018-05-26T13:45:44Z</time>
      </trkpt>
      <trkpt lat="47.80083" lon="6.75924">
        <ele>1059.25647</ele>
        <time>2018-05-26T13:45:45Z</time>
      </trkpt>
      <trkpt lat="47.80079" lon="6.75924">
        <ele>1059.24231</ele>
        <time>2018-05-26T13:45:46Z</time>
      </trkpt>
      <trkpt lat="47.80076" lon="6.75924">
        <ele>1059.200684</ele>
        <time>2018-05-26T13:45:47Z</time>
      </trkpt>
      <trkpt lat="47.80072" lon="6.75924">
        <ele>1059.154297</ele>
        <time>2018-05-26T13:45:48Z</time>
      </trkpt>
      <trkpt lat="47.8007" lon="6.75924">
        <ele>1059.063843</ele>
        <time>2018-05-26T13:45:49Z</time>
      </trkpt>
      <trkpt lat="47.80067" lon="6.75924">
        <ele>1058.993286</ele>
        <time>2018-05-26T13:45:50Z</time>
      </trkpt>
      <trkpt lat="47.80065" lon="6.75924">
        <ele>1058.922852</ele>
        <time>2018-05-26T13:45:51Z</time>
      </trkpt>
      <trkpt lat="47.80063" lon="6.75923">
        <ele>1058.835327</ele>
        <time>2018-05-26T13:45:52Z</time>
      </trkpt>
      <trkpt lat="47.8006" lon="6.75922">
        <ele>1058.793579</ele>
        <time>2018-05-26T13:45:53Z</time>
      </trkpt>
      <trkpt lat="47.80058" lon="6.75921">
        <ele>1058.741699</ele>
        <time>2018-05-26T13:45:54Z</time>
      </trkpt>
      <trkpt lat="47.80055" lon="6.75921">
        <ele>1058.713745</ele>
        <time>2018-05-26T13:45:55Z</time>
      </trkpt>
      <trkpt lat="47.80053" lon="6.7592">
        <ele>1058.698242</ele>
        <time>2018-05-26T13:45:56Z</time>
      </trkpt>
      <trkpt lat="47.8005" lon="6.7592">
        <ele>1058.698242</ele>
        <time>2018-05-26T13:45:57Z</time>
      </trkpt>
      <trkpt lat="47.80048" lon="6.75919">
        <ele>1058.708862</ele>
        <time>2018-05-26T13:45:58Z</time>
      </trkpt>
      <trkpt lat="47.80046" lon="6.75919">
        <ele>1058.744629</ele>
        <time>2018-05-26T13:45:59Z</time>
      </trkpt>
      <trkpt lat="47.80044" lon="6.75918">
        <ele>1058.781494</ele>
        <time>2018-05-26T13:46:00Z</time>
      </trkpt>
      <trkpt lat="47.80042" lon="6.75917">
        <ele>1058.825928</ele>
        <time>2018-05-26T13:46:01Z</time>
      </trkpt>
      <trkpt lat="47.80041" lon="6.75916">
        <ele>1058.906616</ele>
        <time>2018-05-26T13:46:02Z</time>
      </trkpt>
      <trkpt lat="47.80039" lon="6.75915">
        <ele>1058.974976</ele>
        <time>2018-05-26T13:46:03Z</time>
      </trkpt>
      <trkpt lat="47.80037" lon="6.75914">
        <ele>1059.062988</ele>
        <time>2018-05-26T13:46:04Z</time>
      </trkpt>
      <trkpt lat="47.80036" lon="6.75914">
        <ele>1059.170532</ele>
        <time>2018-05-26T13:46:05Z</time>
      </trkpt>
      <trkpt lat="47.80035" lon="6.75914">
        <ele>1059.369019</ele>
        <time>2018-05-26T13:46:06Z</time>
      </trkpt>
      <trkpt lat="47.80034" lon="6.75914">
        <ele>1059.532349</ele>
        <time>2018-05-26T13:46:07Z</time>
      </trkpt>
      <trkpt lat="47.80032" lon="6.75913">
        <ele>1059.717773</ele>
        <time>2018-05-26T13:46:08Z</time>
      </trkpt>
      <trkpt lat="47.80031" lon="6.75913">
        <ele>1060.015015</ele>
        <time>2018-05-26T13:46:09Z</time>
      </trkpt>
      <trkpt lat="47.8003" lon="6.75913">
        <ele>1060.213379</ele>
        <time>2018-05-26T13:46:10Z</time>
      </trkpt>
      <trkpt lat="47.80028" lon="6.75913">
        <ele>1060.512329</ele>
        <time>2018-05-26T13:46:11Z</time>
      </trkpt>
      <trkpt lat="47.80027" lon="6.75913">
        <ele>1060.714966</ele>
        <time>2018-05-26T13:46:12Z</time>
      </trkpt>
      <trkpt lat="47.80026" lon="6.75913">
        <ele>1060.915894</ele>
        <time>2018-05-26T13:46:13Z</time>
      </trkpt>
      <trkpt lat="47.80024" lon="6.75913">
        <ele>1061.211182</ele>
        <time>2018-05-26T13:46:14Z</time>
      </trkpt>
      <trkpt lat="47.80022" lon="6.75913">
        <ele>1061.411255</ele>
        <time>2018-05-26T13:46:15Z</time>
      </trkpt>
      <trkpt lat="47.80021" lon="6.75913">
        <ele>1061.616577</ele>
        <time>2018-05-26T13:46:16Z</time>
      </trkpt>
      <trkpt lat="47.80019" lon="6.75913">
        <ele>1061.921387</ele>
        <time>2018-05-26T13:46:17Z</time>
      </trkpt>
      <trkpt lat="47.80018" lon="6.75913">
        <ele>1062.112793</ele>
        <time>2018-05-26T13:46:18Z</time>
      </trkpt>
      <trkpt lat="47.80018" lon="6.75913">
        <ele>1062.369629</ele>
        <time>2018-05-26T13:46:19Z</time>
      </trkpt>
      <trkpt lat="47.80016" lon="6.75914">
        <ele>1062.520386</ele>
        <time>2018-05-26T13:46:20Z</time>
      </trkpt>
      <trkpt lat="47.80015" lon="6.75914">
        <ele>1062.658691</ele>
        <time>2018-05-26T13:46:21Z</time>
      </trkpt>
      <trkpt lat="47.80013" lon="6.75913">
        <ele>1062.851074</ele>
        <time>2018-05-26T13:46:22Z</time>
      </trkpt>
      <trkpt lat="47.80011" lon="6.75913">
        <ele>1062.911987</ele>
        <time>2018-05-26T13:46:23Z</time>
      </trkpt>
      <trkpt lat="47.80009" lon="6.75912">
        <ele>1062.971313</ele>
        <time>2018-05-26T13:46:24Z</time>
      </trkpt>
      <trkpt lat="47.80008" lon="6.75913">
        <ele>1063.143555</ele>
        <time>2018-05-26T13:46:25Z</time>
      </trkpt>
      <trkpt lat="47.80006" lon="6.75913">
        <ele>1063.251953</ele>
        <time>2018-05-26T13:46:26Z</time>
      </trkpt>
      <trkpt lat="47.80005" lon="6.75912">
        <ele>1063.405396</ele>
        <time>2018-05-26T13:46:27Z</time>
      </trkpt>
      <trkpt lat="47.80003" lon="6.75912">
        <ele>1063.505127</ele>
        <time>2018-05-26T13:46:28Z</time>
      </trkpt>
      <trkpt lat="47.80002" lon="6.75912">
        <ele>1063.614746</ele>
        <time>2018-05-26T13:46:29Z</time>
      </trkpt>
      <trkpt lat="47.8" lon="6.75912">
        <ele>1063.807129</ele>
        <time>2018-05-26T13:46:30Z</time>
      </trkpt>
      <trkpt lat="47.79999" lon="6.75912">
        <ele>1063.953735</ele>
        <time>2018-05-26T13:46:31Z</time>
      </trkpt>
      <trkpt lat="47.79998" lon="6.75912">
        <ele>1064.194702</ele>
        <time>2018-05-26T13:46:32Z</time>
      </trkpt>
      <trkpt lat="47.79997" lon="6.75912">
        <ele>1064.364868</ele>
        <time>2018-05-26T13:46:33Z</time>
      </trkpt>
      <trkpt lat="47.79995" lon="6.75913">
        <ele>1064.537476</ele>
        <time>2018-05-26T13:46:34Z</time>
      </trkpt>
      <trkpt lat="47.79995" lon="6.75912">
        <ele>1064.788208</ele>
        <time>2018-05-26T13:46:35Z</time>
      </trkpt>
      <trkpt lat="47.79993" lon="6.75912">
        <ele>1064.954346</ele>
        <time>2018-05-26T13:46:36Z</time>
      </trkpt>
      <trkpt lat="47.79992" lon="6.75912">
        <ele>1065.205933</ele>
        <time>2018-05-26T13:46:37Z</time>
      </trkpt>
      <trkpt lat="47.7999" lon="6.75912">
        <ele>1065.376831</ele>
        <time>2018-05-26T13:46:38Z</time>
      </trkpt>
      <trkpt lat="47.79989" lon="6.75912">
        <ele>1065.551147</ele>
        <time>2018-05-26T13:46:39Z</time>
      </trkpt>
      <trkpt lat="47.79987" lon="6.75912">
        <ele>1065.825195</ele>
        <time>2018-05-26T13:46:40Z</time>
      </trkpt>
      <trkpt lat="47.79986" lon="6.75912">
        <ele>1066.015991</ele>
        <time>2018-05-26T13:46:41Z</time>
      </trkpt>
      <trkpt lat="47.79985" lon="6.75913">
        <ele>1066.300903</ele>
        <time>2018-05-26T13:46:42Z</time>
      </trkpt>
      <trkpt lat="47.79983" lon="6.75913">
        <ele>1066.489258</ele>
        <time>2018-05-26T13:46:43Z</time>
      </trkpt>
      <trkpt lat="47.79982" lon="6.75912">
        <ele>1066.678833</ele>
        <time>2018-05-26T13:46:44Z</time>
      </trkpt>
      <trkpt lat="47.7998" lon="6.75913">
        <ele>1066.964722</ele>
        <time>2018-05-26T13:46:45Z</time>
      </trkpt>
      <trkpt lat="47.79979" lon="6.75912">
        <ele>1067.151489</ele>
        <time>2018-05-26T13:46:46Z</time>
      </trkpt>
      <trkpt lat="47.79977" lon="6.75912">
        <ele>1067.430908</ele>
        <time>2018-05-26T13:46:47Z</time>
      </trkpt>
      <trkpt lat="47.79976" lon="6.75911">
        <ele>1067.617554</ele>
        <time>2018-05-26T13:46:48Z</time>
      </trkpt>
      <trkpt lat="47.79975" lon="6.75911">
        <ele>1067.800415</ele>
        <time>2018-05-26T13:46:49Z</time>
      </trkpt>
      <trkpt lat="47.79973" lon="6.75911">
        <ele>1068.060791</ele>
        <time>2018-05-26T13:46:50Z</time>
      </trkpt>
      <trkpt lat="47.79971" lon="6.7591">
        <ele>1068.230469</ele>
        <time>2018-05-26T13:46:51Z</time>
      </trkpt>
      <trkpt lat="47.79969" lon="6.75911">
        <ele>1068.494751</ele>
        <time>2018-05-26T13:46:52Z</time>
      </trkpt>
      <trkpt lat="47.79967" lon="6.75911">
        <ele>1068.67688</ele>
        <time>2018-05-26T13:46:53Z</time>
      </trkpt>
      <trkpt lat="47.79966" lon="6.75911">
        <ele>1068.856201</ele>
        <time>2018-05-26T13:46:54Z</time>
      </trkpt>
      <trkpt lat="47.79964" lon="6.75912">
        <ele>1069.108398</ele>
        <time>2018-05-26T13:46:55Z</time>
      </trkpt>
      <trkpt lat="47.79963" lon="6.75912">
        <ele>1069.264893</ele>
        <time>2018-05-26T13:46:56Z</time>
      </trkpt>
      <trkpt lat="47.79961" lon="6.75913">
        <ele>1069.485474</ele>
        <time>2018-05-26T13:46:57Z</time>
      </trkpt>
      <trkpt lat="47.7996" lon="6.75913">
        <ele>1069.622925</ele>
        <time>2018-05-26T13:46:58Z</time>
      </trkpt>
      <trkpt lat="47.79959" lon="6.75913">
        <ele>1069.752441</ele>
        <time>2018-05-26T13:46:59Z</time>
      </trkpt>
      <trkpt lat="47.79957" lon="6.75914">
        <ele>1069.935059</ele>
        <time>2018-05-26T13:47:00Z</time>
      </trkpt>
      <trkpt lat="47.79956" lon="6.75914">
        <ele>1070.054321</ele>
        <time>2018-05-26T13:47:01Z</time>
      </trkpt>
      <trkpt lat="47.79955" lon="6.75914">
        <ele>1070.174316</ele>
        <time>2018-05-26T13:47:02Z</time>
      </trkpt>
      <trkpt lat="47.79953" lon="6.75915">
        <ele>1070.359253</ele>
        <time>2018-05-26T13:47:03Z</time>
      </trkpt>
      <trkpt lat="47.79952" lon="6.75916">
        <ele>1070.484741</ele>
        <time>2018-05-26T13:47:04Z</time>
      </trkpt>
      <trkpt lat="47.79951" lon="6.75916">
        <ele>1070.671753</ele>
        <time>2018-05-26T13:47:05Z</time>
      </trkpt>
      <trkpt lat="47.7995" lon="6.75916">
        <ele>1070.795898</ele>
        <time>2018-05-26T13:47:06Z</time>
      </trkpt>
      <trkpt lat="47.79949" lon="6.75917">
        <ele>1070.925781</ele>
        <time>2018-05-26T13:47:07Z</time>
      </trkpt>
      <trkpt lat="47.79948" lon="6.75917">
        <ele>1071.135864</ele>
        <time>2018-05-26T13:47:08Z</time>
      </trkpt>
      <trkpt lat="47.79947" lon="6.75917">
        <ele>1071.27832</ele>
        <time>2018-05-26T13:47:09Z</time>
      </trkpt>
      <trkpt lat="47.79946" lon="6.75917">
        <ele>1071.484375</ele>
        <time>2018-05-26T13:47:10Z</time>
      </trkpt>
      <trkpt lat="47.79945" lon="6.75917">
        <ele>1071.619751</ele>
        <time>2018-05-26T13:47:11Z</time>
      </trkpt>
      <trkpt lat="47.79944" lon="6.75917">
        <ele>1071.756714</ele>
        <time>2018-05-26T13:47:12Z</time>
      </trkpt>
      <trkpt lat="47.79943" lon="6.75917">
        <ele>1071.959106</ele>
        <time>2018-05-26T13:47:13Z</time>
      </trkpt>
      <trkpt lat="47.79941" lon="6.75917">
        <ele>1072.081177</ele>
        <time>2018-05-26T13:47:14Z</time>
      </trkpt>
      <trkpt lat="47.79939" lon="6.75917">
        <ele>1072.245972</ele>
        <time>2018-05-26T13:47:15Z</time>
      </trkpt>
      <trkpt lat="47.79938" lon="6.75918">
        <ele>1072.357056</ele>
        <time>2018-05-26T13:47:16Z</time>
      </trkpt>
      <trkpt lat="47.79937" lon="6.75919">
        <ele>1072.471191</ele>
        <time>2018-05-26T13:47:17Z</time>
      </trkpt>
      <trkpt lat="47.79935" lon="6.75919">
        <ele>1072.636719</ele>
        <time>2018-05-26T13:47:18Z</time>
      </trkpt>
      <trkpt lat="47.79934" lon="6.75919">
        <ele>1072.746216</ele>
        <time>2018-05-26T13:47:19Z</time>
      </trkpt>
      <trkpt lat="47.79932" lon="6.7592">
        <ele>1072.925415</ele>
        <time>2018-05-26T13:47:20Z</time>
      </trkpt>
      <trkpt lat="47.79931" lon="6.7592">
        <ele>1073.055054</ele>
        <time>2018-05-26T13:47:21Z</time>
      </trkpt>
      <trkpt lat="47.79929" lon="6.7592">
        <ele>1073.190308</ele>
        <time>2018-05-26T13:47:22Z</time>
      </trkpt>
      <trkpt lat="47.79928" lon="6.7592">
        <ele>1073.403931</ele>
        <time>2018-05-26T13:47:23Z</time>
      </trkpt>
      <trkpt lat="47.79927" lon="6.75921">
        <ele>1073.479858</ele>
        <time>2018-05-26T13:47:24Z</time>
      </trkpt>
      <trkpt lat="47.79926" lon="6.75921">
        <ele>1073.7146</ele>
        <time>2018-05-26T13:47:25Z</time>
      </trkpt>
      <trkpt lat="47.79924" lon="6.75922">
        <ele>1073.874634</ele>
        <time>2018-05-26T13:47:26Z</time>
      </trkpt>
      <trkpt lat="47.79923" lon="6.75923">
        <ele>1074.033203</ele>
        <time>2018-05-26T13:47:27Z</time>
      </trkpt>
      <trkpt lat="47.79921" lon="6.75923">
        <ele>1074.265747</ele>
        <time>2018-05-26T13:47:28Z</time>
      </trkpt>
      <trkpt lat="47.79921" lon="6.75923">
        <ele>1074.412109</ele>
        <time>2018-05-26T13:47:29Z</time>
      </trkpt>
      <trkpt lat="47.79919" lon="6.75924">
        <ele>1074.552734</ele>
        <time>2018-05-26T13:47:30Z</time>
      </trkpt>
      <trkpt lat="47.79918" lon="6.75924">
        <ele>1074.757446</ele>
        <time>2018-05-26T13:47:31Z</time>
      </trkpt>
      <trkpt lat="47.79916" lon="6.75924">
        <ele>1074.893188</ele>
        <time>2018-05-26T13:47:32Z</time>
      </trkpt>
      <trkpt lat="47.79916" lon="6.75925">
        <ele>1075.03772</ele>
        <time>2018-05-26T13:47:33Z</time>
      </trkpt>
      <trkpt lat="47.79915" lon="6.75925">
        <ele>1075.273804</ele>
        <time>2018-05-26T13:47:34Z</time>
      </trkpt>
      <trkpt lat="47.79914" lon="6.75925">
        <ele>1075.442627</ele>
        <time>2018-05-26T13:47:35Z</time>
      </trkpt>
      <trkpt lat="47.79912" lon="6.75925">
        <ele>1075.703491</ele>
        <time>2018-05-26T13:47:36Z</time>
      </trkpt>
      <trkpt lat="47.79911" lon="6.75926">
        <ele>1075.874878</ele>
        <time>2018-05-26T13:47:37Z</time>
      </trkpt>
      <trkpt lat="47.7991" lon="6.75926">
        <ele>1076.03772</ele>
        <time>2018-05-26T13:47:38Z</time>
      </trkpt>
      <trkpt lat="47.79909" lon="6.75927">
        <ele>1076.269653</ele>
        <time>2018-05-26T13:47:39Z</time>
      </trkpt>
      <trkpt lat="47.79908" lon="6.75927">
        <ele>1076.416138</ele>
        <time>2018-05-26T13:47:40Z</time>
      </trkpt>
      <trkpt lat="47.79906" lon="6.75926">
        <ele>1076.631836</ele>
        <time>2018-05-26T13:47:41Z</time>
      </trkpt>
      <trkpt lat="47.79905" lon="6.75927">
        <ele>1076.779297</ele>
        <time>2018-05-26T13:47:42Z</time>
      </trkpt>
      <trkpt lat="47.79904" lon="6.75928">
        <ele>1076.930786</ele>
        <time>2018-05-26T13:47:43Z</time>
      </trkpt>
      <trkpt lat="47.79902" lon="6.75929">
        <ele>1077.151489</ele>
        <time>2018-05-26T13:47:44Z</time>
      </trkpt>
      <trkpt lat="47.79901" lon="6.7593">
        <ele>1077.286255</ele>
        <time>2018-05-26T13:47:45Z</time>
      </trkpt>
      <trkpt lat="47.79899" lon="6.7593">
        <ele>1077.41272</ele>
        <time>2018-05-26T13:47:46Z</time>
      </trkpt>
      <trkpt lat="47.79898" lon="6.75931">
        <ele>1077.591797</ele>
        <time>2018-05-26T13:47:47Z</time>
      </trkpt>
      <trkpt lat="47.79896" lon="6.75933">
        <ele>1077.704712</ele>
        <time>2018-05-26T13:47:48Z</time>
      </trkpt>
      <trkpt lat="47.79894" lon="6.75934">
        <ele>1077.810181</ele>
        <time>2018-05-26T13:47:49Z</time>
      </trkpt>
      <trkpt lat="47.79893" lon="6.75935">
        <ele>1077.96875</ele>
        <time>2018-05-26T13:47:50Z</time>
      </trkpt>
      <trkpt lat="47.79891" lon="6.75935">
        <ele>1078.078735</ele>
        <time>2018-05-26T13:47:51Z</time>
      </trkpt>
      <trkpt lat="47.7989" lon="6.75936">
        <ele>1078.189453</ele>
        <time>2018-05-26T13:47:52Z</time>
      </trkpt>
      <trkpt lat="47.79889" lon="6.75937">
        <ele>1078.347168</ele>
        <time>2018-05-26T13:47:53Z</time>
      </trkpt>
      <trkpt lat="47.79888" lon="6.75938">
        <ele>1078.450073</ele>
        <time>2018-05-26T13:47:54Z</time>
      </trkpt>
      <trkpt lat="47.79887" lon="6.75939">
        <ele>1078.553833</ele>
        <time>2018-05-26T13:47:55Z</time>
      </trkpt>
      <trkpt lat="47.79885" lon="6.7594">
        <ele>1078.71582</ele>
        <time>2018-05-26T13:47:56Z</time>
      </trkpt>
      <trkpt lat="47.79884" lon="6.75941">
        <ele>1078.825562</ele>
        <time>2018-05-26T13:47:57Z</time>
      </trkpt>
      <trkpt lat="47.79882" lon="6.75942">
        <ele>1078.935913</ele>
        <time>2018-05-26T13:47:58Z</time>
      </trkpt>
      <trkpt lat="47.79881" lon="6.75944">
        <ele>1079.092407</ele>
        <time>2018-05-26T13:47:59Z</time>
      </trkpt>
      <trkpt lat="47.79879" lon="6.75945">
        <ele>1079.189331</ele>
        <time>2018-05-26T13:48:00Z</time>
      </trkpt>
      <trkpt lat="47.79878" lon="6.75946">
        <ele>1079.275757</ele>
        <time>2018-05-26T13:48:01Z</time>
      </trkpt>
      <trkpt lat="47.79875" lon="6.75947">
        <ele>1079.38501</ele>
        <time>2018-05-26T13:48:02Z</time>
      </trkpt>
      <trkpt lat="47.79874" lon="6.75948">
        <ele>1079.442993</ele>
        <time>2018-05-26T13:48:03Z</time>
      </trkpt>
      <trkpt lat="47.79872" lon="6.75949">
        <ele>1079.491577</ele>
        <time>2018-05-26T13:48:04Z</time>
      </trkpt>
      <trkpt lat="47.79869" lon="6.7595">
        <ele>1079.548828</ele>
        <time>2018-05-26T13:48:05Z</time>
      </trkpt>
      <trkpt lat="47.79867" lon="6.75951">
        <ele>1079.576172</ele>
        <time>2018-05-26T13:48:06Z</time>
      </trkpt>
      <trkpt lat="47.79865" lon="6.75952">
        <ele>1079.59375</ele>
        <time>2018-05-26T13:48:07Z</time>
      </trkpt>
      <trkpt lat="47.79863" lon="6.75953">
        <ele>1079.607422</ele>
        <time>2018-05-26T13:48:08Z</time>
      </trkpt>
      <trkpt lat="47.79862" lon="6.75954">
        <ele>1079.607422</ele>
        <time>2018-05-26T13:48:09Z</time>
      </trkpt>
      <trkpt lat="47.79859" lon="6.75954">
        <ele>1079.602173</ele>
        <time>2018-05-26T13:48:10Z</time>
      </trkpt>
      <trkpt lat="47.79856" lon="6.75954">
        <ele>1079.562134</ele>
        <time>2018-05-26T13:48:11Z</time>
      </trkpt>
      <trkpt lat="47.79853" lon="6.75955">
        <ele>1079.521484</ele>
        <time>2018-05-26T13:48:12Z</time>
      </trkpt>
      <trkpt lat="47.7985" lon="6.75956">
        <ele>1079.472168</ele>
        <time>2018-05-26T13:48:13Z</time>
      </trkpt>
      <trkpt lat="47.79847" lon="6.75955">
        <ele>1079.375854</ele>
        <time>2018-05-26T13:48:14Z</time>
      </trkpt>
      <trkpt lat="47.79843" lon="6.75954">
        <ele>1079.284302</ele>
        <time>2018-05-26T13:48:15Z</time>
      </trkpt>
      <trkpt lat="47.79838" lon="6.75952">
        <ele>1079.099854</ele>
        <time>2018-05-26T13:48:16Z</time>
      </trkpt>
      <trkpt lat="47.79833" lon="6.75951">
        <ele>1078.944214</ele>
        <time>2018-05-26T13:48:17Z</time>
      </trkpt>
      <trkpt lat="47.79828" lon="6.7595">
        <ele>1078.635132</ele>
        <time>2018-05-26T13:48:18Z</time>
      </trkpt>
      <trkpt lat="47.79823" lon="6.75949">
        <ele>1078.365112</ele>
        <time>2018-05-26T13:48:19Z</time>
      </trkpt>
      <trkpt lat="47.79818" lon="6.75948">
        <ele>1078.043945</ele>
        <time>2018-05-26T13:48:20Z</time>
      </trkpt>
      <trkpt lat="47.79813" lon="6.75948">
        <ele>1077.486938</ele>
        <time>2018-05-26T13:48:21Z</time>
      </trkpt>
      <trkpt lat="47.79808" lon="6.75949">
        <ele>1077.080566</ele>
        <time>2018-05-26T13:48:22Z</time>
      </trkpt>
      <trkpt lat="47.79803" lon="6.7595">
        <ele>1076.429565</ele>
        <time>2018-05-26T13:48:23Z</time>
      </trkpt>
      <trkpt lat="47.79797" lon="6.75951">
        <ele>1076.206665</ele>
        <time>2018-05-26T13:48:24Z</time>
      </trkpt>
      <trkpt lat="47.79792" lon="6.75953">
        <ele>1075.983276</ele>
        <time>2018-05-26T13:48:25Z</time>
      </trkpt>
      <trkpt lat="47.79788" lon="6.75956">
        <ele>1075.308838</ele>
        <time>2018-05-26T13:48:26Z</time>
      </trkpt>
      <trkpt lat="47.79784" lon="6.75958">
        <ele>1074.872925</ele>
        <time>2018-05-26T13:48:27Z</time>
      </trkpt>
      <trkpt lat="47.79779" lon="6.75961">
        <ele>1074.450195</ele>
        <time>2018-05-26T13:48:28Z</time>
      </trkpt>
      <trkpt lat="47.79774" lon="6.75962">
        <ele>1073.854858</ele>
        <time>2018-05-26T13:48:29Z</time>
      </trkpt>
      <trkpt lat="47.79768" lon="6.75963">
        <ele>1073.475098</ele>
        <time>2018-05-26T13:48:30Z</time>
      </trkpt>
      <trkpt lat="47.79763" lon="6.75961">
        <ele>1072.923584</ele>
        <time>2018-05-26T13:48:31Z</time>
      </trkpt>
      <trkpt lat="47.79759" lon="6.75959">
        <ele>1072.555054</ele>
        <time>2018-05-26T13:48:32Z</time>
      </trkpt>
      <trkpt lat="47.79754" lon="6.75955">
        <ele>1072.172729</ele>
        <time>2018-05-26T13:48:33Z</time>
      </trkpt>
      <trkpt lat="47.79749" lon="6.75952">
        <ele>1071.544434</ele>
        <time>2018-05-26T13:48:34Z</time>
      </trkpt>
      <trkpt lat="47.79744" lon="6.75948">
        <ele>1071.083862</ele>
        <time>2018-05-26T13:48:35Z</time>
      </trkpt>
      <trkpt lat="47.79738" lon="6.75947">
        <ele>1070.595337</ele>
        <time>2018-05-26T13:48:36Z</time>
      </trkpt>
      <trkpt lat="47.79732" lon="6.75947">
        <ele>1069.824463</ele>
        <time>2018-05-26T13:48:37Z</time>
      </trkpt>
      <trkpt lat="47.79725" lon="6.75947">
        <ele>1069.277466</ele>
        <time>2018-05-26T13:48:38Z</time>
      </trkpt>
      <trkpt lat="47.79718" lon="6.75949">
        <ele>1068.387329</ele>
        <time>2018-05-26T13:48:39Z</time>
      </trkpt>
      <trkpt lat="47.79712" lon="6.7595">
        <ele>1067.750122</ele>
        <time>2018-05-26T13:48:40Z</time>
      </trkpt>
      <trkpt lat="47.79705" lon="6.7595">
        <ele>1067.081177</ele>
        <time>2018-05-26T13:48:41Z</time>
      </trkpt>
      <trkpt lat="47.79697" lon="6.75948">
        <ele>1066.040649</ele>
        <time>2018-05-26T13:48:42Z</time>
      </trkpt>
      <trkpt lat="47.79689" lon="6.75946">
        <ele>1065.325073</ele>
        <time>2018-05-26T13:48:43Z</time>
      </trkpt>
      <trkpt lat="47.79683" lon="6.75943">
        <ele>1064.59314</ele>
        <time>2018-05-26T13:48:44Z</time>
      </trkpt>
      <trkpt lat="47.79676" lon="6.75941">
        <ele>1063.462524</ele>
        <time>2018-05-26T13:48:45Z</time>
      </trkpt>
      <trkpt lat="47.79671" lon="6.75938">
        <ele>1062.68811</ele>
        <time>2018-05-26T13:48:46Z</time>
      </trkpt>
      <trkpt lat="47.79664" lon="6.75936">
        <ele>1061.446533</ele>
        <time>2018-05-26T13:48:47Z</time>
      </trkpt>
      <trkpt lat="47.79657" lon="6.75933">
        <ele>1060.555664</ele>
        <time>2018-05-26T13:48:48Z</time>
      </trkpt>
      <trkpt lat="47.79651" lon="6.75931">
        <ele>1059.607544</ele>
        <time>2018-05-26T13:48:49Z</time>
      </trkpt>
      <trkpt lat="47.79644" lon="6.75931">
        <ele>1058.108398</ele>
        <time>2018-05-26T13:48:50Z</time>
      </trkpt>
      <trkpt lat="47.79638" lon="6.75932">
        <ele>1057.087036</ele>
        <time>2018-05-26T13:48:51Z</time>
      </trkpt>
      <trkpt lat="47.7963" lon="6.75932">
        <ele>1055.585815</ele>
        <time>2018-05-26T13:48:52Z</time>
      </trkpt>
      <trkpt lat="47.79622" lon="6.75932">
        <ele>1054.630005</ele>
        <time>2018-05-26T13:48:53Z</time>
      </trkpt>
      <trkpt lat="47.79615" lon="6.75932">
        <ele>1053.704956</ele>
        <time>2018-05-26T13:48:54Z</time>
      </trkpt>
      <trkpt lat="47.7961" lon="6.75933">
        <ele>1052.337646</ele>
        <time>2018-05-26T13:48:55Z</time>
      </trkpt>
      <trkpt lat="47.79605" lon="6.75935">
        <ele>1051.451538</ele>
        <time>2018-05-26T13:48:56Z</time>
      </trkpt>
      <trkpt lat="47.79601" lon="6.75937">
        <ele>1050.197144</ele>
        <time>2018-05-26T13:48:57Z</time>
      </trkpt>
      <trkpt lat="47.79598" lon="6.7594">
        <ele>1049.437866</ele>
        <time>2018-05-26T13:48:58Z</time>
      </trkpt>
      <trkpt lat="47.79594" lon="6.75941">
        <ele>1048.747925</ele>
        <time>2018-05-26T13:48:59Z</time>
      </trkpt>
      <trkpt lat="47.7959" lon="6.75943">
        <ele>1047.87146</ele>
        <time>2018-05-26T13:49:00Z</time>
      </trkpt>
      <trkpt lat="47.79586" lon="6.75944">
        <ele>1047.415283</ele>
        <time>2018-05-26T13:49:01Z</time>
      </trkpt>
      <trkpt lat="47.79581" lon="6.75946">
        <ele>1046.933838</ele>
        <time>2018-05-26T13:49:02Z</time>
      </trkpt>
      <trkpt lat="47.79576" lon="6.75947">
        <ele>1046.716431</ele>
        <time>2018-05-26T13:49:03Z</time>
      </trkpt>
      <trkpt lat="47.79572" lon="6.75948">
        <ele>1046.55481</ele>
        <time>2018-05-26T13:49:04Z</time>
      </trkpt>
      <trkpt lat="47.79569" lon="6.75947">
        <ele>1046.369263</ele>
        <time>2018-05-26T13:49:05Z</time>
      </trkpt>
      <trkpt lat="47.79564" lon="6.75946">
        <ele>1046.253662</ele>
        <time>2018-05-26T13:49:06Z</time>
      </trkpt>
      <trkpt lat="47.79559" lon="6.75944">
        <ele>1046.036499</ele>
        <time>2018-05-26T13:49:07Z</time>
      </trkpt>
      <trkpt lat="47.79554" lon="6.75941">
        <ele>1045.840698</ele>
        <time>2018-05-26T13:49:08Z</time>
      </trkpt>
      <trkpt lat="47.79551" lon="6.75937">
        <ele>1045.605103</ele>
        <time>2018-05-26T13:49:09Z</time>
      </trkpt>
      <trkpt lat="47.79547" lon="6.75934">
        <ele>1045.231445</ele>
        <time>2018-05-26T13:49:10Z</time>
      </trkpt>
      <trkpt lat="47.79544" lon="6.7593">
        <ele>1045.014648</ele>
        <time>2018-05-26T13:49:11Z</time>
      </trkpt>
      <trkpt lat="47.79541" lon="6.75926">
        <ele>1044.845825</ele>
        <time>2018-05-26T13:49:12Z</time>
      </trkpt>
      <trkpt lat="47.79538" lon="6.75922">
        <ele>1044.683472</ele>
        <time>2018-05-26T13:49:13Z</time>
      </trkpt>
      <trkpt lat="47.79535" lon="6.75919">
        <ele>1044.619873</ele>
        <time>2018-05-26T13:49:14Z</time>
      </trkpt>
      <trkpt lat="47.79532" lon="6.75915">
        <ele>1044.577759</ele>
        <time>2018-05-26T13:49:15Z</time>
      </trkpt>
      <trkpt lat="47.79527" lon="6.75912">
        <ele>1044.524414</ele>
        <time>2018-05-26T13:49:16Z</time>
      </trkpt>
      <trkpt lat="47.79524" lon="6.75908">
        <ele>1044.479126</ele>
        <time>2018-05-26T13:49:17Z</time>
      </trkpt>
      <trkpt lat="47.79521" lon="6.75903">
        <ele>1044.418579</ele>
        <time>2018-05-26T13:49:18Z</time>
      </trkpt>
      <trkpt lat="47.79519" lon="6.75898">
        <ele>1044.309814</ele>
        <time>2018-05-26T13:49:19Z</time>
      </trkpt>
      <trkpt lat="47.79517" lon="6.75893">
        <ele>1044.242065</ele>
        <time>2018-05-26T13:49:20Z</time>
      </trkpt>
      <trkpt lat="47.79515" lon="6.75887">
        <ele>1044.184448</ele>
        <time>2018-05-26T13:49:21Z</time>
      </trkpt>
      <trkpt lat="47.79513" lon="6.75882">
        <ele>1044.13855</ele>
        <time>2018-05-26T13:49:22Z</time>
      </trkpt>
      <trkpt lat="47.7951" lon="6.75878">
        <ele>1044.138184</ele>
        <time>2018-05-26T13:49:23Z</time>
      </trkpt>
      <trkpt lat="47.79507" lon="6.75875">
        <ele>1044.145874</ele>
        <time>2018-05-26T13:49:24Z</time>
      </trkpt>
      <trkpt lat="47.79505" lon="6.75871">
        <ele>1044.160767</ele>
        <time>2018-05-26T13:49:25Z</time>
      </trkpt>
      <trkpt lat="47.79503" lon="6.75866">
        <ele>1044.180176</ele>
        <time>2018-05-26T13:49:26Z</time>
      </trkpt>
      <trkpt lat="47.795" lon="6.75862">
        <ele>1044.23877</ele>
        <time>2018-05-26T13:49:27Z</time>
      </trkpt>
      <trkpt lat="47.79497" lon="6.75859">
        <ele>1044.273071</ele>
        <time>2018-05-26T13:49:28Z</time>
      </trkpt>
      <trkpt lat="47.79494" lon="6.75855">
        <ele>1044.297363</ele>
        <time>2018-05-26T13:49:29Z</time>
      </trkpt>
      <trkpt lat="47.79491" lon="6.75851">
        <ele>1044.301147</ele>
        <time>2018-05-26T13:49:30Z</time>
      </trkpt>
      <trkpt lat="47.79488" lon="6.75847">
        <ele>1044.28772</ele>
        <time>2018-05-26T13:49:31Z</time>
      </trkpt>
      <trkpt lat="47.79485" lon="6.75842">
        <ele>1044.24646</ele>
        <time>2018-05-26T13:49:32Z</time>
      </trkpt>
      <trkpt lat="47.79482" lon="6.75837">
        <ele>1044.141113</ele>
        <time>2018-05-26T13:49:33Z</time>
      </trkpt>
      <trkpt lat="47.79479" lon="6.75832">
        <ele>1044.056152</ele>
        <time>2018-05-26T13:49:34Z</time>
      </trkpt>
      <trkpt lat="47.79474" lon="6.75829">
        <ele>1043.963867</ele>
        <time>2018-05-26T13:49:35Z</time>
      </trkpt>
      <trkpt lat="47.7947" lon="6.75826">
        <ele>1043.810913</ele>
        <time>2018-05-26T13:49:36Z</time>
      </trkpt>
      <trkpt lat="47.79465" lon="6.75822">
        <ele>1043.686523</ele>
        <time>2018-05-26T13:49:37Z</time>
      </trkpt>
      <trkpt lat="47.7946" lon="6.75819">
        <ele>1043.531128</ele>
        <time>2018-05-26T13:49:38Z</time>
      </trkpt>
      <trkpt lat="47.79454" lon="6.75817">
        <ele>1043.216431</ele>
        <time>2018-05-26T13:49:39Z</time>
      </trkpt>
      <trkpt lat="47.79449" lon="6.75815">
        <ele>1042.943848</ele>
        <time>2018-05-26T13:49:40Z</time>
      </trkpt>
      <trkpt lat="47.79443" lon="6.75813">
        <ele>1042.429321</ele>
        <time>2018-05-26T13:49:41Z</time>
      </trkpt>
      <trkpt lat="47.79437" lon="6.75812">
        <ele>1042.021851</ele>
        <time>2018-05-26T13:49:42Z</time>
      </trkpt>
      <trkpt lat="47.7943" lon="6.7581">
        <ele>1041.581055</ele>
        <time>2018-05-26T13:49:43Z</time>
      </trkpt>
      <trkpt lat="47.79424" lon="6.75808">
        <ele>1040.910767</ele>
        <time>2018-05-26T13:49:44Z</time>
      </trkpt>
      <trkpt lat="47.79418" lon="6.75805">
        <ele>1040.47229</ele>
        <time>2018-05-26T13:49:45Z</time>
      </trkpt>
      <trkpt lat="47.79412" lon="6.75802">
        <ele>1040.054077</ele>
        <time>2018-05-26T13:49:46Z</time>
      </trkpt>
      <trkpt lat="47.79406" lon="6.758">
        <ele>1039.483765</ele>
        <time>2018-05-26T13:49:47Z</time>
      </trkpt>
      <trkpt lat="47.794" lon="6.75798">
        <ele>1039.158081</ele>
        <time>2018-05-26T13:49:48Z</time>
      </trkpt>
      <trkpt lat="47.79393" lon="6.75795">
        <ele>1038.87146</ele>
        <time>2018-05-26T13:49:49Z</time>
      </trkpt>
      <trkpt lat="47.79388" lon="6.75794">
        <ele>1038.489868</ele>
        <time>2018-05-26T13:49:50Z</time>
      </trkpt>
      <trkpt lat="47.79382" lon="6.75793">
        <ele>1038.236572</ele>
        <time>2018-05-26T13:49:51Z</time>
      </trkpt>
      <trkpt lat="47.79376" lon="6.75793">
        <ele>1037.834351</ele>
        <time>2018-05-26T13:49:52Z</time>
      </trkpt>
      <trkpt lat="47.79371" lon="6.75793">
        <ele>1037.560791</ele>
        <time>2018-05-26T13:49:53Z</time>
      </trkpt>
      <trkpt lat="47.79366" lon="6.75793">
        <ele>1037.287964</ele>
        <time>2018-05-26T13:49:54Z</time>
      </trkpt>
      <trkpt lat="47.79361" lon="6.75792">
        <ele>1036.887695</ele>
        <time>2018-05-26T13:49:55Z</time>
      </trkpt>
      <trkpt lat="47.79356" lon="6.75792">
        <ele>1036.648193</ele>
        <time>2018-05-26T13:49:56Z</time>
      </trkpt>
      <trkpt lat="47.79351" lon="6.75791">
        <ele>1036.350098</ele>
        <time>2018-05-26T13:49:57Z</time>
      </trkpt>
      <trkpt lat="47.79347" lon="6.75791">
        <ele>1036.175293</ele>
        <time>2018-05-26T13:49:58Z</time>
      </trkpt>
      <trkpt lat="47.7934" lon="6.75791">
        <ele>1035.999878</ele>
        <time>2018-05-26T13:49:59Z</time>
      </trkpt>
      <trkpt lat="47.79334" lon="6.75791">
        <ele>1035.733032</ele>
        <time>2018-05-26T13:50:00Z</time>
      </trkpt>
      <trkpt lat="47.79328" lon="6.7579">
        <ele>1035.562012</ele>
        <time>2018-05-26T13:50:01Z</time>
      </trkpt>
      <trkpt lat="47.79322" lon="6.7579">
        <ele>1035.293335</ele>
        <time>2018-05-26T13:50:02Z</time>
      </trkpt>
      <trkpt lat="47.79317" lon="6.75789">
        <ele>1035.081909</ele>
        <time>2018-05-26T13:50:03Z</time>
      </trkpt>
      <trkpt lat="47.7931" lon="6.75789">
        <ele>1034.839966</ele>
        <time>2018-05-26T13:50:04Z</time>
      </trkpt>
      <trkpt lat="47.79303" lon="6.75787">
        <ele>1034.424438</ele>
        <time>2018-05-26T13:50:05Z</time>
      </trkpt>
      <trkpt lat="47.79295" lon="6.75785">
        <ele>1034.090698</ele>
        <time>2018-05-26T13:50:06Z</time>
      </trkpt>
      <trkpt lat="47.79287" lon="6.75784">
        <ele>1033.474976</ele>
        <time>2018-05-26T13:50:07Z</time>
      </trkpt>
      <trkpt lat="47.7928" lon="6.75782">
        <ele>1032.994507</ele>
        <time>2018-05-26T13:50:08Z</time>
      </trkpt>
      <trkpt lat="47.79272" lon="6.75779">
        <ele>1032.479126</ele>
        <time>2018-05-26T13:50:09Z</time>
      </trkpt>
      <trkpt lat="47.79265" lon="6.75776">
        <ele>1031.632202</ele>
        <time>2018-05-26T13:50:10Z</time>
      </trkpt>
      <trkpt lat="47.79258" lon="6.75774">
        <ele>1031.027344</ele>
        <time>2018-05-26T13:50:11Z</time>
      </trkpt>
      <trkpt lat="47.7925" lon="6.75773">
        <ele>1030.081055</ele>
        <time>2018-05-26T13:50:12Z</time>
      </trkpt>
      <trkpt lat="47.79242" lon="6.75772">
        <ele>1029.45813</ele>
        <time>2018-05-26T13:50:13Z</time>
      </trkpt>
      <trkpt lat="47.79234" lon="6.75772">
        <ele>1028.823364</ele>
        <time>2018-05-26T13:50:14Z</time>
      </trkpt>
      <trkpt lat="47.79226" lon="6.75771">
        <ele>1027.787476</ele>
        <time>2018-05-26T13:50:15Z</time>
      </trkpt>
      <trkpt lat="47.79218" lon="6.7577">
        <ele>1027.009888</ele>
        <time>2018-05-26T13:50:16Z</time>
      </trkpt>
      <trkpt lat="47.79212" lon="6.75768">
        <ele>1025.784912</ele>
        <time>2018-05-26T13:50:17Z</time>
      </trkpt>
      <trkpt lat="47.79207" lon="6.75764">
        <ele>1024.963135</ele>
        <time>2018-05-26T13:50:18Z</time>
      </trkpt>
      <trkpt lat="47.792" lon="6.75756">
        <ele>1024.152222</ele>
        <time>2018-05-26T13:50:19Z</time>
      </trkpt>
      <trkpt lat="47.79196" lon="6.75748">
        <ele>1022.956482</ele>
        <time>2018-05-26T13:50:20Z</time>
      </trkpt>
      <trkpt lat="47.79192" lon="6.75738">
        <ele>1022.207092</ele>
        <time>2018-05-26T13:50:21Z</time>
      </trkpt>
      <trkpt lat="47.79188" lon="6.75728">
        <ele>1021.526367</ele>
        <time>2018-05-26T13:50:22Z</time>
      </trkpt>
      <trkpt lat="47.79186" lon="6.75719">
        <ele>1020.608582</ele>
        <time>2018-05-26T13:50:23Z</time>
      </trkpt>
      <trkpt lat="47.79182" lon="6.75711">
        <ele>1020.007507</ele>
        <time>2018-05-26T13:50:24Z</time>
      </trkpt>
      <trkpt lat="47.79179" lon="6.75703">
        <ele>1019.37262</ele>
        <time>2018-05-26T13:50:25Z</time>
      </trkpt>
      <trkpt lat="47.79174" lon="6.75696">
        <ele>1019.044983</ele>
        <time>2018-05-26T13:50:26Z</time>
      </trkpt>
      <trkpt lat="47.7917" lon="6.75688">
        <ele>1018.711243</ele>
        <time>2018-05-26T13:50:27Z</time>
      </trkpt>
      <trkpt lat="47.79165" lon="6.75682">
        <ele>1018.370544</ele>
        <time>2018-05-26T13:50:28Z</time>
      </trkpt>
      <trkpt lat="47.7916" lon="6.75678">
        <ele>1017.673523</ele>
        <time>2018-05-26T13:50:29Z</time>
      </trkpt>
      <trkpt lat="47.79154" lon="6.75675">
        <ele>1016.615723</ele>
        <time>2018-05-26T13:50:30Z</time>
      </trkpt>
      <trkpt lat="47.79148" lon="6.75674">
        <ele>1015.924805</ele>
        <time>2018-05-26T13:50:31Z</time>
      </trkpt>
      <trkpt lat="47.79142" lon="6.75671">
        <ele>1014.930237</ele>
        <time>2018-05-26T13:50:32Z</time>
      </trkpt>
      <trkpt lat="47.79138" lon="6.75665">
        <ele>1014.288879</ele>
        <time>2018-05-26T13:50:33Z</time>
      </trkpt>
      <trkpt lat="47.79135" lon="6.75658">
        <ele>1013.697021</ele>
        <time>2018-05-26T13:50:34Z</time>
      </trkpt>
      <trkpt lat="47.79134" lon="6.75651">
        <ele>1012.947083</ele>
        <time>2018-05-26T13:50:35Z</time>
      </trkpt>
      <trkpt lat="47.79134" lon="6.75644">
        <ele>1012.543884</ele>
        <time>2018-05-26T13:50:36Z</time>
      </trkpt>
      <trkpt lat="47.79134" lon="6.75638">
        <ele>1012.195374</ele>
        <time>2018-05-26T13:50:37Z</time>
      </trkpt>
      <trkpt lat="47.79134" lon="6.75631">
        <ele>1011.903809</ele>
        <time>2018-05-26T13:50:38Z</time>
      </trkpt>
      <trkpt lat="47.79133" lon="6.75622">
        <ele>1011.542786</ele>
        <time>2018-05-26T13:50:39Z</time>
      </trkpt>
      <trkpt lat="47.79131" lon="6.75614">
        <ele>1011.339294</ele>
        <time>2018-05-26T13:50:40Z</time>
      </trkpt>
      <trkpt lat="47.7913" lon="6.75608">
        <ele>1011.158142</ele>
        <time>2018-05-26T13:50:41Z</time>
      </trkpt>
      <trkpt lat="47.79129" lon="6.75602">
        <ele>1010.930481</ele>
        <time>2018-05-26T13:50:42Z</time>
      </trkpt>
      <trkpt lat="47.79128" lon="6.75597">
        <ele>1010.801331</ele>
        <time>2018-05-26T13:50:43Z</time>
      </trkpt>
      <trkpt lat="47.79127" lon="6.75591">
        <ele>1010.635437</ele>
        <time>2018-05-26T13:50:44Z</time>
      </trkpt>
      <trkpt lat="47.79126" lon="6.75586">
        <ele>1010.539612</ele>
        <time>2018-05-26T13:50:45Z</time>
      </trkpt>
      <trkpt lat="47.79125" lon="6.75581">
        <ele>1010.461365</ele>
        <time>2018-05-26T13:50:46Z</time>
      </trkpt>
      <trkpt lat="47.79125" lon="6.75576">
        <ele>1010.407898</ele>
        <time>2018-05-26T13:50:47Z</time>
      </trkpt>
      <trkpt lat="47.79125" lon="6.75571">
        <ele>1010.385315</ele>
        <time>2018-05-26T13:50:48Z</time>
      </trkpt>
      <trkpt lat="47.79124" lon="6.75566">
        <ele>1010.385315</ele>
        <time>2018-05-26T13:50:49Z</time>
      </trkpt>
      <trkpt lat="47.79124" lon="6.75561">
        <ele>1010.398865</ele>
        <time>2018-05-26T13:50:50Z</time>
      </trkpt>
      <trkpt lat="47.79124" lon="6.75556">
        <ele>1010.433411</ele>
        <time>2018-05-26T13:50:51Z</time>
      </trkpt>
      <trkpt lat="47.79125" lon="6.7555">
        <ele>1010.464905</ele>
        <time>2018-05-26T13:50:52Z</time>
      </trkpt>
      <trkpt lat="47.79125" lon="6.75545">
        <ele>1010.512024</ele>
        <time>2018-05-26T13:50:53Z</time>
      </trkpt>
      <trkpt lat="47.79125" lon="6.75539">
        <ele>1010.577637</ele>
        <time>2018-05-26T13:50:54Z</time>
      </trkpt>
      <trkpt lat="47.79125" lon="6.75534">
        <ele>1010.700867</ele>
        <time>2018-05-26T13:50:55Z</time>
      </trkpt>
      <trkpt lat="47.79125" lon="6.75529">
        <ele>1010.790588</ele>
        <time>2018-05-26T13:50:56Z</time>
      </trkpt>
      <trkpt lat="47.79125" lon="6.75524">
        <ele>1010.877014</ele>
        <time>2018-05-26T13:50:57Z</time>
      </trkpt>
      <trkpt lat="47.79125" lon="6.75519">
        <ele>1010.996521</ele>
        <time>2018-05-26T13:50:58Z</time>
      </trkpt>
      <trkpt lat="47.79125" lon="6.75514">
        <ele>1011.070557</ele>
        <time>2018-05-26T13:50:59Z</time>
      </trkpt>
      <trkpt lat="47.79125" lon="6.75509">
        <ele>1011.145691</ele>
        <time>2018-05-26T13:51:00Z</time>
      </trkpt>
      <trkpt lat="47.79125" lon="6.75505">
        <ele>1011.259216</ele>
        <time>2018-05-26T13:51:01Z</time>
      </trkpt>
      <trkpt lat="47.79125" lon="6.755">
        <ele>1011.340393</ele>
        <time>2018-05-26T13:51:02Z</time>
      </trkpt>
      <trkpt lat="47.79124" lon="6.75496">
        <ele>1011.427246</ele>
        <time>2018-05-26T13:51:03Z</time>
      </trkpt>
      <trkpt lat="47.79124" lon="6.75491">
        <ele>1011.587952</ele>
        <time>2018-05-26T13:51:04Z</time>
      </trkpt>
      <trkpt lat="47.79124" lon="6.75487">
        <ele>1011.715088</ele>
        <time>2018-05-26T13:51:05Z</time>
      </trkpt>
      <trkpt lat="47.79123" lon="6.75483">
        <ele>1011.855713</ele>
        <time>2018-05-26T13:51:06Z</time>
      </trkpt>
      <trkpt lat="47.79123" lon="6.75479">
        <ele>1012.079285</ele>
        <time>2018-05-26T13:51:07Z</time>
      </trkpt>
      <trkpt lat="47.79123" lon="6.75476">
        <ele>1012.224792</ele>
        <time>2018-05-26T13:51:08Z</time>
      </trkpt>
      <trkpt lat="47.79124" lon="6.75472">
        <ele>1012.355225</ele>
        <time>2018-05-26T13:51:09Z</time>
      </trkpt>
      <trkpt lat="47.79124" lon="6.75467">
        <ele>1012.476074</ele>
        <time>2018-05-26T13:51:10Z</time>
      </trkpt>
      <trkpt lat="47.79124" lon="6.75463">
        <ele>1012.65509</ele>
        <time>2018-05-26T13:51:11Z</time>
      </trkpt>
      <trkpt lat="47.79124" lon="6.7546">
        <ele>1012.777588</ele>
        <time>2018-05-26T13:51:12Z</time>
      </trkpt>
      <trkpt lat="47.79125" lon="6.75457">
        <ele>1012.897217</ele>
        <time>2018-05-26T13:51:13Z</time>
      </trkpt>
      <trkpt lat="47.79125" lon="6.75454">
        <ele>1013.067566</ele>
        <time>2018-05-26T13:51:14Z</time>
      </trkpt>
      <trkpt lat="47.79125" lon="6.7545">
        <ele>1013.184265</ele>
        <time>2018-05-26T13:51:15Z</time>
      </trkpt>
      <trkpt lat="47.79125" lon="6.75447">
        <ele>1013.309753</ele>
        <time>2018-05-26T13:51:16Z</time>
      </trkpt>
      <trkpt lat="47.79125" lon="6.75443">
        <ele>1013.43573</ele>
        <time>2018-05-26T13:51:17Z</time>
      </trkpt>
      <trkpt lat="47.79125" lon="6.7544">
        <ele>1013.605286</ele>
        <time>2018-05-26T13:51:18Z</time>
      </trkpt>
      <trkpt lat="47.79125" lon="6.75436">
        <ele>1013.705505</ele>
        <time>2018-05-26T13:51:19Z</time>
      </trkpt>
      <trkpt lat="47.79126" lon="6.75432">
        <ele>1013.804138</ele>
        <time>2018-05-26T13:51:20Z</time>
      </trkpt>
      <trkpt lat="47.79126" lon="6.75429">
        <ele>1013.94635</ele>
        <time>2018-05-26T13:51:21Z</time>
      </trkpt>
      <trkpt lat="47.79126" lon="6.75426">
        <ele>1014.028809</ele>
        <time>2018-05-26T13:51:22Z</time>
      </trkpt>
      <trkpt lat="47.79125" lon="6.75422">
        <ele>1014.098938</ele>
        <time>2018-05-26T13:51:23Z</time>
      </trkpt>
      <trkpt lat="47.79126" lon="6.75418">
        <ele>1014.166687</ele>
        <time>2018-05-26T13:51:24Z</time>
      </trkpt>
      <trkpt lat="47.79126" lon="6.75415">
        <ele>1014.27655</ele>
        <time>2018-05-26T13:51:25Z</time>
      </trkpt>
      <trkpt lat="47.79126" lon="6.75411">
        <ele>1014.315002</ele>
        <time>2018-05-26T13:51:26Z</time>
      </trkpt>
      <trkpt lat="47.79127" lon="6.75408">
        <ele>1014.4328</ele>
        <time>2018-05-26T13:51:27Z</time>
      </trkpt>
      <trkpt lat="47.79127" lon="6.75404">
        <ele>1014.516113</ele>
        <time>2018-05-26T13:51:28Z</time>
      </trkpt>
      <trkpt lat="47.79127" lon="6.754">
        <ele>1014.606201</ele>
        <time>2018-05-26T13:51:29Z</time>
      </trkpt>
      <trkpt lat="47.79127" lon="6.75397">
        <ele>1014.707031</ele>
        <time>2018-05-26T13:51:30Z</time>
      </trkpt>
      <trkpt lat="47.79127" lon="6.75393">
        <ele>1014.869385</ele>
        <time>2018-05-26T13:51:31Z</time>
      </trkpt>
      <trkpt lat="47.79127" lon="6.75389">
        <ele>1014.980164</ele>
        <time>2018-05-26T13:51:32Z</time>
      </trkpt>
      <trkpt lat="47.79127" lon="6.75385">
        <ele>1015.099915</ele>
        <time>2018-05-26T13:51:33Z</time>
      </trkpt>
      <trkpt lat="47.79127" lon="6.75382">
        <ele>1015.234314</ele>
        <time>2018-05-26T13:51:34Z</time>
      </trkpt>
      <trkpt lat="47.79127" lon="6.75379">
        <ele>1015.456726</ele>
        <time>2018-05-26T13:51:35Z</time>
      </trkpt>
      <trkpt lat="47.79128" lon="6.75376">
        <ele>1015.613281</ele>
        <time>2018-05-26T13:51:36Z</time>
      </trkpt>
      <trkpt lat="47.79128" lon="6.75373">
        <ele>1015.767883</ele>
        <time>2018-05-26T13:51:37Z</time>
      </trkpt>
      <trkpt lat="47.79128" lon="6.75369">
        <ele>1015.921143</ele>
        <time>2018-05-26T13:51:38Z</time>
      </trkpt>
      <trkpt lat="47.79128" lon="6.75366">
        <ele>1016.135071</ele>
        <time>2018-05-26T13:51:39Z</time>
      </trkpt>
      <trkpt lat="47.79128" lon="6.75364">
        <ele>1016.270325</ele>
        <time>2018-05-26T13:51:40Z</time>
      </trkpt>
      <trkpt lat="47.79128" lon="6.75361">
        <ele>1016.397644</ele>
        <time>2018-05-26T13:51:41Z</time>
      </trkpt>
      <trkpt lat="47.79128" lon="6.75357">
        <ele>1016.520569</ele>
        <time>2018-05-26T13:51:42Z</time>
      </trkpt>
      <trkpt lat="47.79128" lon="6.75354">
        <ele>1016.696289</ele>
        <time>2018-05-26T13:51:43Z</time>
      </trkpt>
      <trkpt lat="47.79128" lon="6.75351">
        <ele>1016.811523</ele>
        <time>2018-05-26T13:51:44Z</time>
      </trkpt>
      <trkpt lat="47.79128" lon="6.75348">
        <ele>1016.926575</ele>
        <time>2018-05-26T13:51:45Z</time>
      </trkpt>
      <trkpt lat="47.79127" lon="6.75346">
        <ele>1017.038513</ele>
        <time>2018-05-26T13:51:46Z</time>
      </trkpt>
      <trkpt lat="47.79126" lon="6.75343">
        <ele>1017.203308</ele>
        <time>2018-05-26T13:51:47Z</time>
      </trkpt>
      <trkpt lat="47.79126" lon="6.7534">
        <ele>1017.309082</ele>
        <time>2018-05-26T13:51:48Z</time>
      </trkpt>
      <trkpt lat="47.79125" lon="6.75336">
        <ele>1017.413757</ele>
        <time>2018-05-26T13:51:49Z</time>
      </trkpt>
      <trkpt lat="47.79125" lon="6.75333">
        <ele>1017.573914</ele>
        <time>2018-05-26T13:51:50Z</time>
      </trkpt>
      <trkpt lat="47.79124" lon="6.7533">
        <ele>1017.692078</ele>
        <time>2018-05-26T13:51:51Z</time>
      </trkpt>
      <trkpt lat="47.79123" lon="6.75327">
        <ele>1017.822937</ele>
        <time>2018-05-26T13:51:52Z</time>
      </trkpt>
      <trkpt lat="47.79122" lon="6.75324">
        <ele>1018.037842</ele>
        <time>2018-05-26T13:51:53Z</time>
      </trkpt>
      <trkpt lat="47.79121" lon="6.75321">
        <ele>1018.177917</ele>
        <time>2018-05-26T13:51:54Z</time>
      </trkpt>
      <trkpt lat="47.7912" lon="6.75319">
        <ele>1018.307373</ele>
        <time>2018-05-26T13:51:55Z</time>
      </trkpt>
      <trkpt lat="47.79118" lon="6.75316">
        <ele>1018.476807</ele>
        <time>2018-05-26T13:51:56Z</time>
      </trkpt>
      <trkpt lat="47.79117" lon="6.75314">
        <ele>1018.57074</ele>
        <time>2018-05-26T13:51:57Z</time>
      </trkpt>
      <trkpt lat="47.79115" lon="6.75311">
        <ele>1018.651062</ele>
        <time>2018-05-26T13:51:58Z</time>
      </trkpt>
      <trkpt lat="47.79114" lon="6.75309">
        <ele>1018.747253</ele>
        <time>2018-05-26T13:51:59Z</time>
      </trkpt>
      <trkpt lat="47.79112" lon="6.75307">
        <ele>1018.803528</ele>
        <time>2018-05-26T13:52:00Z</time>
      </trkpt>
      <trkpt lat="47.7911" lon="6.75305">
        <ele>1018.860413</ele>
        <time>2018-05-26T13:52:01Z</time>
      </trkpt>
      <trkpt lat="47.79109" lon="6.75304">
        <ele>1018.958191</ele>
        <time>2018-05-26T13:52:02Z</time>
      </trkpt>
      <trkpt lat="47.79108" lon="6.75303">
        <ele>1019.155273</ele>
        <time>2018-05-26T13:52:03Z</time>
      </trkpt>
      <trkpt lat="47.79106" lon="6.75302">
        <ele>1019.22876</ele>
        <time>2018-05-26T13:52:05Z</time>
      </trkpt>
      <trkpt lat="47.79104" lon="6.75301">
        <ele>1019.293762</ele>
        <time>2018-05-26T13:52:06Z</time>
      </trkpt>
      <trkpt lat="47.79102" lon="6.75301">
        <ele>1019.398621</ele>
        <time>2018-05-26T13:52:07Z</time>
      </trkpt>
      <trkpt lat="47.791" lon="6.753">
        <ele>1019.482727</ele>
        <time>2018-05-26T13:52:08Z</time>
      </trkpt>
      <trkpt lat="47.79099" lon="6.75299">
        <ele>1019.574402</ele>
        <time>2018-05-26T13:52:09Z</time>
      </trkpt>
      <trkpt lat="47.79096" lon="6.75297">
        <ele>1019.709412</ele>
        <time>2018-05-26T13:52:10Z</time>
      </trkpt>
      <trkpt lat="47.79096" lon="6.75296">
        <ele>1019.953552</ele>
        <time>2018-05-26T13:52:11Z</time>
      </trkpt>
      <trkpt lat="47.79093" lon="6.75295">
        <ele>1020.055115</ele>
        <time>2018-05-26T13:52:13Z</time>
      </trkpt>
      <trkpt lat="47.79091" lon="6.75294">
        <ele>1020.153992</ele>
        <time>2018-05-26T13:52:14Z</time>
      </trkpt>
      <trkpt lat="47.79089" lon="6.75293">
        <ele>1020.300049</ele>
        <time>2018-05-26T13:52:15Z</time>
      </trkpt>
      <trkpt lat="47.79088" lon="6.75292">
        <ele>1020.397522</ele>
        <time>2018-05-26T13:52:16Z</time>
      </trkpt>
      <trkpt lat="47.79086" lon="6.75291">
        <ele>1020.503418</ele>
        <time>2018-05-26T13:52:17Z</time>
      </trkpt>
      <trkpt lat="47.79084" lon="6.7529">
        <ele>1020.678955</ele>
        <time>2018-05-26T13:52:18Z</time>
      </trkpt>
      <trkpt lat="47.79082" lon="6.75289">
        <ele>1020.808105</ele>
        <time>2018-05-26T13:52:19Z</time>
      </trkpt>
      <trkpt lat="47.7908" lon="6.75288">
        <ele>1020.94989</ele>
        <time>2018-05-26T13:52:20Z</time>
      </trkpt>
      <trkpt lat="47.79079" lon="6.75286">
        <ele>1021.171631</ele>
        <time>2018-05-26T13:52:21Z</time>
      </trkpt>
      <trkpt lat="47.79077" lon="6.75285">
        <ele>1021.315979</ele>
        <time>2018-05-26T13:52:22Z</time>
      </trkpt>
      <trkpt lat="47.79075" lon="6.75283">
        <ele>1021.457703</ele>
        <time>2018-05-26T13:52:23Z</time>
      </trkpt>
      <trkpt lat="47.79073" lon="6.75282">
        <ele>1021.676086</ele>
        <time>2018-05-26T13:52:24Z</time>
      </trkpt>
      <trkpt lat="47.79071" lon="6.75281">
        <ele>1021.824524</ele>
        <time>2018-05-26T13:52:25Z</time>
      </trkpt>
      <trkpt lat="47.7907" lon="6.7528">
        <ele>1022.041748</ele>
        <time>2018-05-26T13:52:26Z</time>
      </trkpt>
      <trkpt lat="47.79068" lon="6.75279">
        <ele>1022.111023</ele>
        <time>2018-05-26T13:52:27Z</time>
      </trkpt>
      <trkpt lat="47.79067" lon="6.75279">
        <ele>1022.317932</ele>
        <time>2018-05-26T13:52:28Z</time>
      </trkpt>
      <trkpt lat="47.79066" lon="6.75279">
        <ele>1022.698547</ele>
        <time>2018-05-26T13:52:29Z</time>
      </trkpt>
      <trkpt lat="47.79064" lon="6.75279">
        <ele>1022.853271</ele>
        <time>2018-05-26T13:52:31Z</time>
      </trkpt>
      <trkpt lat="47.79062" lon="6.75278">
        <ele>1023.005188</ele>
        <time>2018-05-26T13:52:32Z</time>
      </trkpt>
      <trkpt lat="47.7906" lon="6.75277">
        <ele>1023.243469</ele>
        <time>2018-05-26T13:52:33Z</time>
      </trkpt>
      <trkpt lat="47.79059" lon="6.75276">
        <ele>1023.419434</ele>
        <time>2018-05-26T13:52:34Z</time>
      </trkpt>
      <trkpt lat="47.79057" lon="6.75274">
        <ele>1023.597473</ele>
        <time>2018-05-26T13:52:35Z</time>
      </trkpt>
      <trkpt lat="47.79055" lon="6.75273">
        <ele>1023.842468</ele>
        <time>2018-05-26T13:52:36Z</time>
      </trkpt>
      <trkpt lat="47.79054" lon="6.75271">
        <ele>1023.989807</ele>
        <time>2018-05-26T13:52:37Z</time>
      </trkpt>
      <trkpt lat="47.79052" lon="6.7527">
        <ele>1024.13623</ele>
        <time>2018-05-26T13:52:38Z</time>
      </trkpt>
      <trkpt lat="47.79051" lon="6.7527">
        <ele>1024.363159</ele>
        <time>2018-05-26T13:52:39Z</time>
      </trkpt>
      <trkpt lat="47.7905" lon="6.75269">
        <ele>1024.522217</ele>
        <time>2018-05-26T13:52:40Z</time>
      </trkpt>
      <trkpt lat="47.79048" lon="6.75268">
        <ele>1024.690918</ele>
        <time>2018-05-26T13:52:41Z</time>
      </trkpt>
      <trkpt lat="47.79047" lon="6.75267">
        <ele>1024.964233</ele>
        <time>2018-05-26T13:52:42Z</time>
      </trkpt>
      <trkpt lat="47.79046" lon="6.75266">
        <ele>1025.15686</ele>
        <time>2018-05-26T13:52:43Z</time>
      </trkpt>
      <trkpt lat="47.79044" lon="6.75265">
        <ele>1025.349731</ele>
        <time>2018-05-26T13:52:44Z</time>
      </trkpt>
      <trkpt lat="47.79043" lon="6.75263">
        <ele>1025.62561</ele>
        <time>2018-05-26T13:52:45Z</time>
      </trkpt>
      <trkpt lat="47.79042" lon="6.75262">
        <ele>1025.803101</ele>
        <time>2018-05-26T13:52:46Z</time>
      </trkpt>
      <trkpt lat="47.79041" lon="6.75261">
        <ele>1025.984375</ele>
        <time>2018-05-26T13:52:47Z</time>
      </trkpt>
      <trkpt lat="47.7904" lon="6.7526">
        <ele>1026.475952</ele>
        <time>2018-05-26T13:52:48Z</time>
      </trkpt>
      <trkpt lat="47.7904" lon="6.75258">
        <ele>1026.678589</ele>
        <time>2018-05-26T13:52:50Z</time>
      </trkpt>
      <trkpt lat="47.79039" lon="6.75256">
        <ele>1026.969482</ele>
        <time>2018-05-26T13:52:51Z</time>
      </trkpt>
      <trkpt lat="47.79038" lon="6.75255">
        <ele>1027.152466</ele>
        <time>2018-05-26T13:52:52Z</time>
      </trkpt>
      <trkpt lat="47.79037" lon="6.75252">
        <ele>1027.322388</ele>
        <time>2018-05-26T13:52:53Z</time>
      </trkpt>
      <trkpt lat="47.79037" lon="6.75251">
        <ele>1027.555542</ele>
        <time>2018-05-26T13:52:54Z</time>
      </trkpt>
      <trkpt lat="47.79036" lon="6.75249">
        <ele>1027.700806</ele>
        <time>2018-05-26T13:52:55Z</time>
      </trkpt>
      <trkpt lat="47.79035" lon="6.75247">
        <ele>1027.848755</ele>
        <time>2018-05-26T13:52:56Z</time>
      </trkpt>
      <trkpt lat="47.79034" lon="6.75244">
        <ele>1028.082153</ele>
        <time>2018-05-26T13:52:57Z</time>
      </trkpt>
      <trkpt lat="47.79034" lon="6.75242">
        <ele>1028.255737</ele>
        <time>2018-05-26T13:52:58Z</time>
      </trkpt>
      <trkpt lat="47.79033" lon="6.7524">
        <ele>1028.447266</ele>
        <time>2018-05-26T13:52:59Z</time>
      </trkpt>
      <trkpt lat="47.79032" lon="6.75237">
        <ele>1028.752686</ele>
        <time>2018-05-26T13:53:00Z</time>
      </trkpt>
      <trkpt lat="47.79031" lon="6.75235">
        <ele>1028.953247</ele>
        <time>2018-05-26T13:53:01Z</time>
      </trkpt>
      <trkpt lat="47.79025" lon="6.75224">
        <ele>1030.760864</ele>
        <time>2018-05-26T13:53:09Z</time>
      </trkpt>
      <trkpt lat="47.79024" lon="6.75222">
        <ele>1030.883545</ele>
        <time>2018-05-26T13:53:11Z</time>
      </trkpt>
      <trkpt lat="47.79024" lon="6.7522">
        <ele>1030.991089</ele>
        <time>2018-05-26T13:53:12Z</time>
      </trkpt>
      <trkpt lat="47.79023" lon="6.75219">
        <ele>1031.245483</ele>
        <time>2018-05-26T13:53:13Z</time>
      </trkpt>
      <trkpt lat="47.79021" lon="6.75217">
        <ele>1031.344727</ele>
        <time>2018-05-26T13:53:15Z</time>
      </trkpt>
      <trkpt lat="47.7902" lon="6.75214">
        <ele>1031.450562</ele>
        <time>2018-05-26T13:53:16Z</time>
      </trkpt>
      <trkpt lat="47.7902" lon="6.75212">
        <ele>1031.626221</ele>
        <time>2018-05-26T13:53:17Z</time>
      </trkpt>
      <trkpt lat="47.79019" lon="6.7521">
        <ele>1031.752808</ele>
        <time>2018-05-26T13:53:18Z</time>
      </trkpt>
      <trkpt lat="47.79018" lon="6.75208">
        <ele>1031.886108</ele>
        <time>2018-05-26T13:53:19Z</time>
      </trkpt>
      <trkpt lat="47.79017" lon="6.75206">
        <ele>1032.096069</ele>
        <time>2018-05-26T13:53:20Z</time>
      </trkpt>
      <trkpt lat="47.79016" lon="6.75204">
        <ele>1032.237183</ele>
        <time>2018-05-26T13:53:21Z</time>
      </trkpt>
      <trkpt lat="47.79016" lon="6.75203">
        <ele>1032.626831</ele>
        <time>2018-05-26T13:53:22Z</time>
      </trkpt>
      <trkpt lat="47.79015" lon="6.752">
        <ele>1032.807495</ele>
        <time>2018-05-26T13:53:24Z</time>
      </trkpt>
      <trkpt lat="47.79014" lon="6.75197">
        <ele>1032.996704</ele>
        <time>2018-05-26T13:53:25Z</time>
      </trkpt>
      <trkpt lat="47.79014" lon="6.75195">
        <ele>1033.28418</ele>
        <time>2018-05-26T13:53:26Z</time>
      </trkpt>
      <trkpt lat="47.79013" lon="6.75192">
        <ele>1033.376587</ele>
        <time>2018-05-26T13:53:27Z</time>
      </trkpt>
      <trkpt lat="47.79013" lon="6.75191">
        <ele>1033.555664</ele>
        <time>2018-05-26T13:53:28Z</time>
      </trkpt>
      <trkpt lat="47.79013" lon="6.7519">
        <ele>1033.727783</ele>
        <time>2018-05-26T13:53:30Z</time>
      </trkpt>
      <trkpt lat="47.79011" lon="6.75187">
        <ele>1033.977417</ele>
        <time>2018-05-26T13:53:31Z</time>
      </trkpt>
      <trkpt lat="47.7901" lon="6.75185">
        <ele>1034.13562</ele>
        <time>2018-05-26T13:53:32Z</time>
      </trkpt>
      <trkpt lat="47.79009" lon="6.75183">
        <ele>1034.288818</ele>
        <time>2018-05-26T13:53:33Z</time>
      </trkpt>
      <trkpt lat="47.79009" lon="6.75181">
        <ele>1034.505493</ele>
        <time>2018-05-26T13:53:34Z</time>
      </trkpt>
      <trkpt lat="47.79008" lon="6.75178">
        <ele>1034.644775</ele>
        <time>2018-05-26T13:53:35Z</time>
      </trkpt>
      <trkpt lat="47.79007" lon="6.75175">
        <ele>1034.782837</ele>
        <time>2018-05-26T13:53:36Z</time>
      </trkpt>
      <trkpt lat="47.79006" lon="6.75171">
        <ele>1034.922729</ele>
        <time>2018-05-26T13:53:37Z</time>
      </trkpt>
      <trkpt lat="47.79005" lon="6.75168">
        <ele>1035.121582</ele>
        <time>2018-05-26T13:53:38Z</time>
      </trkpt>
      <trkpt lat="47.79004" lon="6.75165">
        <ele>1035.245117</ele>
        <time>2018-05-26T13:53:39Z</time>
      </trkpt>
      <trkpt lat="47.79003" lon="6.75162">
        <ele>1035.364624</ele>
        <time>2018-05-26T13:53:40Z</time>
      </trkpt>
      <trkpt lat="47.79002" lon="6.75159">
        <ele>1035.537964</ele>
        <time>2018-05-26T13:53:41Z</time>
      </trkpt>
      <trkpt lat="47.79002" lon="6.75156">
        <ele>1035.645996</ele>
        <time>2018-05-26T13:53:42Z</time>
      </trkpt>
      <trkpt lat="47.79002" lon="6.75153">
        <ele>1035.747192</ele>
        <time>2018-05-26T13:53:43Z</time>
      </trkpt>
      <trkpt lat="47.79001" lon="6.75151">
        <ele>1035.888062</ele>
        <time>2018-05-26T13:53:44Z</time>
      </trkpt>
      <trkpt lat="47.79001" lon="6.75149">
        <ele>1035.981079</ele>
        <time>2018-05-26T13:53:45Z</time>
      </trkpt>
      <trkpt lat="47.79" lon="6.75146">
        <ele>1036.076782</ele>
        <time>2018-05-26T13:53:46Z</time>
      </trkpt>
      <trkpt lat="47.78999" lon="6.75143">
        <ele>1036.237061</ele>
        <time>2018-05-26T13:53:47Z</time>
      </trkpt>
      <trkpt lat="47.78998" lon="6.75141">
        <ele>1036.352661</ele>
        <time>2018-05-26T13:53:48Z</time>
      </trkpt>
      <trkpt lat="47.78997" lon="6.75139">
        <ele>1036.474976</ele>
        <time>2018-05-26T13:53:49Z</time>
      </trkpt>
      <trkpt lat="47.78996" lon="6.75136">
        <ele>1036.608154</ele>
        <time>2018-05-26T13:53:50Z</time>
      </trkpt>
      <trkpt lat="47.78996" lon="6.75133">
        <ele>1036.8479</ele>
        <time>2018-05-26T13:53:51Z</time>
      </trkpt>
      <trkpt lat="47.78995" lon="6.75129">
        <ele>1037.035034</ele>
        <time>2018-05-26T13:53:52Z</time>
      </trkpt>
      <trkpt lat="47.78994" lon="6.75127">
        <ele>1037.234375</ele>
        <time>2018-05-26T13:53:53Z</time>
      </trkpt>
      <trkpt lat="47.78993" lon="6.75124">
        <ele>1037.544922</ele>
        <time>2018-05-26T13:53:54Z</time>
      </trkpt>
      <trkpt lat="47.78991" lon="6.75121">
        <ele>1037.757446</ele>
        <time>2018-05-26T13:53:55Z</time>
      </trkpt>
      <trkpt lat="47.7899" lon="6.75118">
        <ele>1037.966431</ele>
        <time>2018-05-26T13:53:56Z</time>
      </trkpt>
      <trkpt lat="47.78989" lon="6.75114">
        <ele>1038.247681</ele>
        <time>2018-05-26T13:53:57Z</time>
      </trkpt>
      <trkpt lat="47.78987" lon="6.75111">
        <ele>1038.397095</ele>
        <time>2018-05-26T13:53:58Z</time>
      </trkpt>
      <trkpt lat="47.78986" lon="6.75107">
        <ele>1038.515015</ele>
        <time>2018-05-26T13:53:59Z</time>
      </trkpt>
      <trkpt lat="47.78985" lon="6.75104">
        <ele>1038.650513</ele>
        <time>2018-05-26T13:54:00Z</time>
      </trkpt>
      <trkpt lat="47.78983" lon="6.75101">
        <ele>1038.721069</ele>
        <time>2018-05-26T13:54:01Z</time>
      </trkpt>
      <trkpt lat="47.78981" lon="6.75099">
        <ele>1038.778687</ele>
        <time>2018-05-26T13:54:02Z</time>
      </trkpt>
      <trkpt lat="47.7898" lon="6.75096">
        <ele>1038.837769</ele>
        <time>2018-05-26T13:54:03Z</time>
      </trkpt>
      <trkpt lat="47.78979" lon="6.75093">
        <ele>1038.86853</ele>
        <time>2018-05-26T13:54:04Z</time>
      </trkpt>
      <trkpt lat="47.78978" lon="6.75089">
        <ele>1038.900513</ele>
        <time>2018-05-26T13:54:05Z</time>
      </trkpt>
      <trkpt lat="47.78978" lon="6.75086">
        <ele>1038.943237</ele>
        <time>2018-05-26T13:54:06Z</time>
      </trkpt>
      <trkpt lat="47.78976" lon="6.75083">
        <ele>1039.036499</ele>
        <time>2018-05-26T13:54:07Z</time>
      </trkpt>
      <trkpt lat="47.78975" lon="6.75079">
        <ele>1039.114868</ele>
        <time>2018-05-26T13:54:08Z</time>
      </trkpt>
      <trkpt lat="47.78974" lon="6.75076">
        <ele>1039.195435</ele>
        <time>2018-05-26T13:54:09Z</time>
      </trkpt>
      <trkpt lat="47.78973" lon="6.75073">
        <ele>1039.317993</ele>
        <time>2018-05-26T13:54:10Z</time>
      </trkpt>
      <trkpt lat="47.78972" lon="6.7507">
        <ele>1039.401855</ele>
        <time>2018-05-26T13:54:11Z</time>
      </trkpt>
      <trkpt lat="47.78972" lon="6.75067">
        <ele>1039.489868</ele>
        <time>2018-05-26T13:54:12Z</time>
      </trkpt>
      <trkpt lat="47.78971" lon="6.75064">
        <ele>1039.631348</ele>
        <time>2018-05-26T13:54:13Z</time>
      </trkpt>
      <trkpt lat="47.7897" lon="6.75061">
        <ele>1039.731323</ele>
        <time>2018-05-26T13:54:14Z</time>
      </trkpt>
      <trkpt lat="47.7897" lon="6.75059">
        <ele>1039.83606</ele>
        <time>2018-05-26T13:54:15Z</time>
      </trkpt>
      <trkpt lat="47.7897" lon="6.75056">
        <ele>1040.007202</ele>
        <time>2018-05-26T13:54:16Z</time>
      </trkpt>
      <trkpt lat="47.78969" lon="6.75053">
        <ele>1040.122437</ele>
        <time>2018-05-26T13:54:17Z</time>
      </trkpt>
      <trkpt lat="47.78969" lon="6.7505">
        <ele>1040.226685</ele>
        <time>2018-05-26T13:54:18Z</time>
      </trkpt>
      <trkpt lat="47.78968" lon="6.75047">
        <ele>1040.339844</ele>
        <time>2018-05-26T13:54:19Z</time>
      </trkpt>
      <trkpt lat="47.78968" lon="6.75043">
        <ele>1040.358521</ele>
        <time>2018-05-26T13:54:20Z</time>
      </trkpt>
      <trkpt lat="47.78968" lon="6.75039">
        <ele>1040.358521</ele>
        <time>2018-05-26T13:54:21Z</time>
      </trkpt>
      <trkpt lat="47.78968" lon="6.75035">
        <ele>1040.321411</ele>
        <time>2018-05-26T13:54:22Z</time>
      </trkpt>
      <trkpt lat="47.78967" lon="6.7503">
        <ele>1040.174316</ele>
        <time>2018-05-26T13:54:23Z</time>
      </trkpt>
      <trkpt lat="47.78966" lon="6.75026">
        <ele>1040.03772</ele>
        <time>2018-05-26T13:54:24Z</time>
      </trkpt>
      <trkpt lat="47.78966" lon="6.75022">
        <ele>1039.887817</ele>
        <time>2018-05-26T13:54:25Z</time>
      </trkpt>
      <trkpt lat="47.78966" lon="6.75017">
        <ele>1039.670288</ele>
        <time>2018-05-26T13:54:26Z</time>
      </trkpt>
      <trkpt lat="47.78965" lon="6.75012">
        <ele>1039.541748</ele>
        <time>2018-05-26T13:54:27Z</time>
      </trkpt>
      <trkpt lat="47.78965" lon="6.75007">
        <ele>1039.484741</ele>
        <time>2018-05-26T13:54:28Z</time>
      </trkpt>
      <trkpt lat="47.78965" lon="6.75">
        <ele>1039.430908</ele>
        <time>2018-05-26T13:54:29Z</time>
      </trkpt>
      <trkpt lat="47.78966" lon="6.74993">
        <ele>1039.335205</ele>
        <time>2018-05-26T13:54:30Z</time>
      </trkpt>
      <trkpt lat="47.78967" lon="6.74985">
        <ele>1039.239258</ele>
        <time>2018-05-26T13:54:31Z</time>
      </trkpt>
      <trkpt lat="47.78968" lon="6.74978">
        <ele>1039.124512</ele>
        <time>2018-05-26T13:54:32Z</time>
      </trkpt>
      <trkpt lat="47.78968" lon="6.74972">
        <ele>1038.912231</ele>
        <time>2018-05-26T13:54:33Z</time>
      </trkpt>
      <trkpt lat="47.78969" lon="6.74965">
        <ele>1038.747681</ele>
        <time>2018-05-26T13:54:34Z</time>
      </trkpt>
      <trkpt lat="47.7897" lon="6.74959">
        <ele>1038.582886</ele>
        <time>2018-05-26T13:54:35Z</time>
      </trkpt>
      <trkpt lat="47.7897" lon="6.74952">
        <ele>1038.414551</ele>
        <time>2018-05-26T13:54:36Z</time>
      </trkpt>
      <trkpt lat="47.7897" lon="6.74945">
        <ele>1038.166504</ele>
        <time>2018-05-26T13:54:37Z</time>
      </trkpt>
      <trkpt lat="47.78971" lon="6.74939">
        <ele>1038.00708</ele>
        <time>2018-05-26T13:54:38Z</time>
      </trkpt>
      <trkpt lat="47.78972" lon="6.74931">
        <ele>1037.853638</ele>
        <time>2018-05-26T13:54:39Z</time>
      </trkpt>
      <trkpt lat="47.78973" lon="6.74923">
        <ele>1037.573608</ele>
        <time>2018-05-26T13:54:40Z</time>
      </trkpt>
      <trkpt lat="47.78975" lon="6.74916">
        <ele>1037.328613</ele>
        <time>2018-05-26T13:54:41Z</time>
      </trkpt>
      <trkpt lat="47.78975" lon="6.74909">
        <ele>1037.030273</ele>
        <time>2018-05-26T13:54:42Z</time>
      </trkpt>
      <trkpt lat="47.78978" lon="6.74902">
        <ele>1036.505005</ele>
        <time>2018-05-26T13:54:43Z</time>
      </trkpt>
      <trkpt lat="47.78979" lon="6.74894">
        <ele>1036.114258</ele>
        <time>2018-05-26T13:54:44Z</time>
      </trkpt>
      <trkpt lat="47.78981" lon="6.74886">
        <ele>1035.706909</ele>
        <time>2018-05-26T13:54:45Z</time>
      </trkpt>
      <trkpt lat="47.78982" lon="6.74877">
        <ele>1035.297119</ele>
        <time>2018-05-26T13:54:46Z</time>
      </trkpt>
      <trkpt lat="47.78984" lon="6.74869">
        <ele>1034.699097</ele>
        <time>2018-05-26T13:54:47Z</time>
      </trkpt>
      <trkpt lat="47.78984" lon="6.74862">
        <ele>1034.293701</ele>
        <time>2018-05-26T13:54:48Z</time>
      </trkpt>
      <trkpt lat="47.78984" lon="6.74856">
        <ele>1033.8573</ele>
        <time>2018-05-26T13:54:49Z</time>
      </trkpt>
      <trkpt lat="47.78984" lon="6.74849">
        <ele>1033.387695</ele>
        <time>2018-05-26T13:54:50Z</time>
      </trkpt>
      <trkpt lat="47.78985" lon="6.74841">
        <ele>1032.641235</ele>
        <time>2018-05-26T13:54:51Z</time>
      </trkpt>
      <trkpt lat="47.78985" lon="6.74834">
        <ele>1032.11792</ele>
        <time>2018-05-26T13:54:52Z</time>
      </trkpt>
      <trkpt lat="47.78986" lon="6.74827">
        <ele>1031.573364</ele>
        <time>2018-05-26T13:54:53Z</time>
      </trkpt>
      <trkpt lat="47.78986" lon="6.74819">
        <ele>1030.738403</ele>
        <time>2018-05-26T13:54:54Z</time>
      </trkpt>
      <trkpt lat="47.78987" lon="6.74811">
        <ele>1030.178833</ele>
        <time>2018-05-26T13:54:55Z</time>
      </trkpt>
      <trkpt lat="47.78987" lon="6.74803">
        <ele>1029.615601</ele>
        <time>2018-05-26T13:54:56Z</time>
      </trkpt>
      <trkpt lat="47.78987" lon="6.74795">
        <ele>1029.020874</ele>
        <time>2018-05-26T13:54:57Z</time>
      </trkpt>
      <trkpt lat="47.78986" lon="6.74785">
        <ele>1028.057739</ele>
        <time>2018-05-26T13:54:58Z</time>
      </trkpt>
      <trkpt lat="47.78986" lon="6.74774">
        <ele>1027.366333</ele>
        <time>2018-05-26T13:54:59Z</time>
      </trkpt>
      <trkpt lat="47.78985" lon="6.74764">
        <ele>1026.632446</ele>
        <time>2018-05-26T13:55:00Z</time>
      </trkpt>
      <trkpt lat="47.78985" lon="6.74754">
        <ele>1025.431274</ele>
        <time>2018-05-26T13:55:01Z</time>
      </trkpt>
      <trkpt lat="47.78984" lon="6.74745">
        <ele>1024.547974</ele>
        <time>2018-05-26T13:55:02Z</time>
      </trkpt>
      <trkpt lat="47.78984" lon="6.74736">
        <ele>1023.59137</ele>
        <time>2018-05-26T13:55:03Z</time>
      </trkpt>
      <trkpt lat="47.78985" lon="6.74727">
        <ele>1022.568909</ele>
        <time>2018-05-26T13:55:04Z</time>
      </trkpt>
      <trkpt lat="47.78985" lon="6.7472">
        <ele>1020.929626</ele>
        <time>2018-05-26T13:55:05Z</time>
      </trkpt>
      <trkpt lat="47.78986" lon="6.74713">
        <ele>1019.780518</ele>
        <time>2018-05-26T13:55:06Z</time>
      </trkpt>
      <trkpt lat="47.78987" lon="6.74707">
        <ele>1018.606934</ele>
        <time>2018-05-26T13:55:07Z</time>
      </trkpt>
      <trkpt lat="47.78988" lon="6.74703">
        <ele>1016.874512</ele>
        <time>2018-05-26T13:55:08Z</time>
      </trkpt>
      <trkpt lat="47.78989" lon="6.74698">
        <ele>1015.764221</ele>
        <time>2018-05-26T13:55:09Z</time>
      </trkpt>
      <trkpt lat="47.78991" lon="6.74693">
        <ele>1014.702881</ele>
        <time>2018-05-26T13:55:10Z</time>
      </trkpt>
      <trkpt lat="47.78992" lon="6.74688">
        <ele>1013.200195</ele>
        <time>2018-05-26T13:55:11Z</time>
      </trkpt>
      <trkpt lat="47.78994" lon="6.74683">
        <ele>1012.252014</ele>
        <time>2018-05-26T13:55:12Z</time>
      </trkpt>
      <trkpt lat="47.78997" lon="6.74678">
        <ele>1011.33252</ele>
        <time>2018-05-26T13:55:13Z</time>
      </trkpt>
      <trkpt lat="47.78998" lon="6.74671">
        <ele>1010.436829</ele>
        <time>2018-05-26T13:55:14Z</time>
      </trkpt>
      <trkpt lat="47.78998" lon="6.74664">
        <ele>1009.142151</ele>
        <time>2018-05-26T13:55:15Z</time>
      </trkpt>
      <trkpt lat="47.78999" lon="6.74657">
        <ele>1008.291199</ele>
        <time>2018-05-26T13:55:16Z</time>
      </trkpt>
      <trkpt lat="47.78999" lon="6.74651">
        <ele>1007.433044</ele>
        <time>2018-05-26T13:55:17Z</time>
      </trkpt>
      <trkpt lat="47.78999" lon="6.74645">
        <ele>1006.554626</ele>
        <time>2018-05-26T13:55:18Z</time>
      </trkpt>
      <trkpt lat="47.79" lon="6.74639">
        <ele>1005.217712</ele>
        <time>2018-05-26T13:55:19Z</time>
      </trkpt>
      <trkpt lat="47.79" lon="6.74633">
        <ele>1004.317322</ele>
        <time>2018-05-26T13:55:20Z</time>
      </trkpt>
      <trkpt lat="47.79001" lon="6.74629">
        <ele>1003.408508</ele>
        <time>2018-05-26T13:55:21Z</time>
      </trkpt>
      <trkpt lat="47.79002" lon="6.74625">
        <ele>1002.027039</ele>
        <time>2018-05-26T13:55:22Z</time>
      </trkpt>
      <trkpt lat="47.79004" lon="6.74622">
        <ele>1001.098633</ele>
        <time>2018-05-26T13:55:23Z</time>
      </trkpt>
      <trkpt lat="47.79006" lon="6.74619">
        <ele>1000.169373</ele>
        <time>2018-05-26T13:55:24Z</time>
      </trkpt>
      <trkpt lat="47.79008" lon="6.74617">
        <ele>998.791077</ele>
        <time>2018-05-26T13:55:25Z</time>
      </trkpt>
      <trkpt lat="47.7901" lon="6.74614">
        <ele>997.895691</ele>
        <time>2018-05-26T13:55:26Z</time>
      </trkpt>
      <trkpt lat="47.79011" lon="6.74611">
        <ele>997.038757</ele>
        <time>2018-05-26T13:55:27Z</time>
      </trkpt>
      <trkpt lat="47.79012" lon="6.74606">
        <ele>995.863953</ele>
        <time>2018-05-26T13:55:28Z</time>
      </trkpt>
      <trkpt lat="47.79013" lon="6.74598">
        <ele>995.50116</ele>
        <time>2018-05-26T13:55:29Z</time>
      </trkpt>
      <trkpt lat="47.79014" lon="6.74592">
        <ele>995.146729</ele>
        <time>2018-05-26T13:55:30Z</time>
      </trkpt>
      <trkpt lat="47.79016" lon="6.74587">
        <ele>994.442322</ele>
        <time>2018-05-26T13:55:31Z</time>
      </trkpt>
      <trkpt lat="47.79018" lon="6.74582">
        <ele>993.711365</ele>
        <time>2018-05-26T13:55:32Z</time>
      </trkpt>
      <trkpt lat="47.7902" lon="6.74578">
        <ele>992.930603</ele>
        <time>2018-05-26T13:55:33Z</time>
      </trkpt>
      <trkpt lat="47.79022" lon="6.74574">
        <ele>991.640198</ele>
        <time>2018-05-26T13:55:34Z</time>
      </trkpt>
      <trkpt lat="47.79024" lon="6.74571">
        <ele>990.707031</ele>
        <time>2018-05-26T13:55:35Z</time>
      </trkpt>
      <trkpt lat="47.79028" lon="6.74566">
        <ele>989.744934</ele>
        <time>2018-05-26T13:55:36Z</time>
      </trkpt>
      <trkpt lat="47.79031" lon="6.74561">
        <ele>988.315002</ele>
        <time>2018-05-26T13:55:37Z</time>
      </trkpt>
      <trkpt lat="47.79034" lon="6.74557">
        <ele>987.401672</ele>
        <time>2018-05-26T13:55:38Z</time>
      </trkpt>
      <trkpt lat="47.79037" lon="6.74552">
        <ele>986.541443</ele>
        <time>2018-05-26T13:55:39Z</time>
      </trkpt>
      <trkpt lat="47.79038" lon="6.74546">
        <ele>985.325867</ele>
        <time>2018-05-26T13:55:40Z</time>
      </trkpt>
      <trkpt lat="47.79039" lon="6.74542">
        <ele>984.526611</ele>
        <time>2018-05-26T13:55:41Z</time>
      </trkpt>
      <trkpt lat="47.79041" lon="6.74539">
        <ele>983.703125</ele>
        <time>2018-05-26T13:55:42Z</time>
      </trkpt>
      <trkpt lat="47.79041" lon="6.74532">
        <ele>982.849365</ele>
        <time>2018-05-26T13:55:43Z</time>
      </trkpt>
      <trkpt lat="47.79041" lon="6.74524">
        <ele>981.94751</ele>
        <time>2018-05-26T13:55:44Z</time>
      </trkpt>
      <trkpt lat="47.79043" lon="6.74518">
        <ele>980.508301</ele>
        <time>2018-05-26T13:55:45Z</time>
      </trkpt>
      <trkpt lat="47.79045" lon="6.74512">
        <ele>979.509094</ele>
        <time>2018-05-26T13:55:46Z</time>
      </trkpt>
      <trkpt lat="47.79047" lon="6.74506">
        <ele>978.493225</ele>
        <time>2018-05-26T13:55:47Z</time>
      </trkpt>
      <trkpt lat="47.79048" lon="6.74498">
        <ele>976.94989</ele>
        <time>2018-05-26T13:55:48Z</time>
      </trkpt>
      <trkpt lat="47.79048" lon="6.74491">
        <ele>975.941589</ele>
        <time>2018-05-26T13:55:49Z</time>
      </trkpt>
      <trkpt lat="47.79047" lon="6.74485">
        <ele>974.977844</ele>
        <time>2018-05-26T13:55:50Z</time>
      </trkpt>
      <trkpt lat="47.79047" lon="6.7448">
        <ele>974.070068</ele>
        <time>2018-05-26T13:55:51Z</time>
      </trkpt>
      <trkpt lat="47.79046" lon="6.74474">
        <ele>972.77832</ele>
        <time>2018-05-26T13:55:52Z</time>
      </trkpt>
      <trkpt lat="47.79046" lon="6.74465">
        <ele>971.950012</ele>
        <time>2018-05-26T13:55:53Z</time>
      </trkpt>
      <trkpt lat="47.79047" lon="6.74457">
        <ele>971.142273</ele>
        <time>2018-05-26T13:55:54Z</time>
      </trkpt>
      <trkpt lat="47.79048" lon="6.7445">
        <ele>970.354431</ele>
        <time>2018-05-26T13:55:55Z</time>
      </trkpt>
      <trkpt lat="47.79049" lon="6.74443">
        <ele>969.197693</ele>
        <time>2018-05-26T13:55:56Z</time>
      </trkpt>
      <trkpt lat="47.79049" lon="6.74436">
        <ele>968.441406</ele>
        <time>2018-05-26T13:55:57Z</time>
      </trkpt>
      <trkpt lat="47.7905" lon="6.74428">
        <ele>967.694031</ele>
        <time>2018-05-26T13:55:58Z</time>
      </trkpt>
      <trkpt lat="47.79052" lon="6.74423">
        <ele>966.947754</ele>
        <time>2018-05-26T13:55:59Z</time>
      </trkpt>
      <trkpt lat="47.79053" lon="6.74419">
        <ele>966.194031</ele>
        <time>2018-05-26T13:56:00Z</time>
      </trkpt>
      <trkpt lat="47.79055" lon="6.74414">
        <ele>965.037109</ele>
        <time>2018-05-26T13:56:01Z</time>
      </trkpt>
      <trkpt lat="47.79057" lon="6.74408">
        <ele>964.248596</ele>
        <time>2018-05-26T13:56:02Z</time>
      </trkpt>
      <trkpt lat="47.79059" lon="6.74404">
        <ele>963.442322</ele>
        <time>2018-05-26T13:56:03Z</time>
      </trkpt>
      <trkpt lat="47.79061" lon="6.744">
        <ele>962.61615</ele>
        <time>2018-05-26T13:56:04Z</time>
      </trkpt>
      <trkpt lat="47.79062" lon="6.74397">
        <ele>961.373047</ele>
        <time>2018-05-26T13:56:05Z</time>
      </trkpt>
      <trkpt lat="47.79063" lon="6.74395">
        <ele>960.575378</ele>
        <time>2018-05-26T13:56:06Z</time>
      </trkpt>
      <trkpt lat="47.79064" lon="6.74392">
        <ele>959.813416</ele>
        <time>2018-05-26T13:56:07Z</time>
      </trkpt>
      <trkpt lat="47.79066" lon="6.74388">
        <ele>958.721924</ele>
        <time>2018-05-26T13:56:08Z</time>
      </trkpt>
      <trkpt lat="47.79067" lon="6.74384">
        <ele>958.039551</ele>
        <time>2018-05-26T13:56:09Z</time>
      </trkpt>
      <trkpt lat="47.79068" lon="6.74379">
        <ele>957.403748</ele>
        <time>2018-05-26T13:56:10Z</time>
      </trkpt>
      <trkpt lat="47.79068" lon="6.74374">
        <ele>956.508606</ele>
        <time>2018-05-26T13:56:11Z</time>
      </trkpt>
      <trkpt lat="47.7907" lon="6.74368">
        <ele>955.913147</ele>
        <time>2018-05-26T13:56:12Z</time>
      </trkpt>
      <trkpt lat="47.7907" lon="6.74362">
        <ele>955.297058</ele>
        <time>2018-05-26T13:56:13Z</time>
      </trkpt>
      <trkpt lat="47.79071" lon="6.74354">
        <ele>954.332214</ele>
        <time>2018-05-26T13:56:14Z</time>
      </trkpt>
      <trkpt lat="47.79073" lon="6.74348">
        <ele>953.663879</ele>
        <time>2018-05-26T13:56:15Z</time>
      </trkpt>
      <trkpt lat="47.79074" lon="6.74342">
        <ele>952.965515</ele>
        <time>2018-05-26T13:56:16Z</time>
      </trkpt>
      <trkpt lat="47.79075" lon="6.74336">
        <ele>951.842346</ele>
        <time>2018-05-26T13:56:17Z</time>
      </trkpt>
      <trkpt lat="47.79076" lon="6.7433">
        <ele>951.050537</ele>
        <time>2018-05-26T13:56:18Z</time>
      </trkpt>
      <trkpt lat="47.79077" lon="6.74324">
        <ele>950.256348</ele>
        <time>2018-05-26T13:56:19Z</time>
      </trkpt>
      <trkpt lat="47.79079" lon="6.74317">
        <ele>949.069519</ele>
        <time>2018-05-26T13:56:20Z</time>
      </trkpt>
      <trkpt lat="47.7908" lon="6.74309">
        <ele>948.269836</ele>
        <time>2018-05-26T13:56:21Z</time>
      </trkpt>
      <trkpt lat="47.79081" lon="6.74301">
        <ele>947.46759</ele>
        <time>2018-05-26T13:56:22Z</time>
      </trkpt>
      <trkpt lat="47.79083" lon="6.74293">
        <ele>946.674011</ele>
        <time>2018-05-26T13:56:23Z</time>
      </trkpt>
      <trkpt lat="47.79084" lon="6.74286">
        <ele>945.893005</ele>
        <time>2018-05-26T13:56:24Z</time>
      </trkpt>
      <trkpt lat="47.79085" lon="6.7428">
        <ele>944.714172</ele>
        <time>2018-05-26T13:56:25Z</time>
      </trkpt>
      <trkpt lat="47.79088" lon="6.74277">
        <ele>943.904724</ele>
        <time>2018-05-26T13:56:26Z</time>
      </trkpt>
      <trkpt lat="47.79092" lon="6.74274">
        <ele>943.077698</ele>
        <time>2018-05-26T13:56:27Z</time>
      </trkpt>
      <trkpt lat="47.79096" lon="6.74269">
        <ele>941.833252</ele>
        <time>2018-05-26T13:56:28Z</time>
      </trkpt>
      <trkpt lat="47.791" lon="6.74265">
        <ele>941.422668</ele>
        <time>2018-05-26T13:56:29Z</time>
      </trkpt>
      <trkpt lat="47.79102" lon="6.74263">
        <ele>940.214172</ele>
        <time>2018-05-26T13:56:30Z</time>
      </trkpt>
      <trkpt lat="47.79102" lon="6.74259">
        <ele>939.450745</ele>
        <time>2018-05-26T13:56:31Z</time>
      </trkpt>
      <trkpt lat="47.79102" lon="6.74256">
        <ele>938.732605</ele>
        <time>2018-05-26T13:56:32Z</time>
      </trkpt>
      <trkpt lat="47.791" lon="6.74255">
        <ele>938.072327</ele>
        <time>2018-05-26T13:56:33Z</time>
      </trkpt>
      <trkpt lat="47.79099" lon="6.74254">
        <ele>937.191895</ele>
        <time>2018-05-26T13:56:34Z</time>
      </trkpt>
      <trkpt lat="47.79098" lon="6.74254">
        <ele>936.696289</ele>
        <time>2018-05-26T13:56:35Z</time>
      </trkpt>
      <trkpt lat="47.79089" lon="6.74251">
        <ele>934.551086</ele>
        <time>2018-05-26T13:57:03Z</time>
      </trkpt>
      <trkpt lat="47.79086" lon="6.7425">
        <ele>934.52002</ele>
        <time>2018-05-26T13:57:05Z</time>
      </trkpt>
      <trkpt lat="47.79082" lon="6.74249">
        <ele>934.464905</ele>
        <time>2018-05-26T13:57:06Z</time>
      </trkpt>
      <trkpt lat="47.79078" lon="6.74247">
        <ele>934.303894</ele>
        <time>2018-05-26T13:57:07Z</time>
      </trkpt>
      <trkpt lat="47.79073" lon="6.74246">
        <ele>934.131409</ele>
        <time>2018-05-26T13:57:08Z</time>
      </trkpt>
      <trkpt lat="47.79068" lon="6.74245">
        <ele>933.910583</ele>
        <time>2018-05-26T13:57:09Z</time>
      </trkpt>
      <trkpt lat="47.79063" lon="6.74244">
        <ele>933.491882</ele>
        <time>2018-05-26T13:57:10Z</time>
      </trkpt>
      <trkpt lat="47.79057" lon="6.74242">
        <ele>933.153015</ele>
        <time>2018-05-26T13:57:11Z</time>
      </trkpt>
      <trkpt lat="47.79052" lon="6.74241">
        <ele>932.542297</ele>
        <time>2018-05-26T13:57:12Z</time>
      </trkpt>
      <trkpt lat="47.79047" lon="6.7424">
        <ele>932.077698</ele>
        <time>2018-05-26T13:57:13Z</time>
      </trkpt>
      <trkpt lat="47.79042" lon="6.74239">
        <ele>931.575684</ele>
        <time>2018-05-26T13:57:14Z</time>
      </trkpt>
      <trkpt lat="47.79038" lon="6.74238">
        <ele>930.78418</ele>
        <time>2018-05-26T13:57:15Z</time>
      </trkpt>
      <trkpt lat="47.79032" lon="6.74237">
        <ele>930.237244</ele>
        <time>2018-05-26T13:57:16Z</time>
      </trkpt>
      <trkpt lat="47.79027" lon="6.74234">
        <ele>929.394531</ele>
        <time>2018-05-26T13:57:17Z</time>
      </trkpt>
      <trkpt lat="47.79022" lon="6.74232">
        <ele>928.824402</ele>
        <time>2018-05-26T13:57:18Z</time>
      </trkpt>
      <trkpt lat="47.79017" lon="6.74229">
        <ele>928.250244</ele>
        <time>2018-05-26T13:57:19Z</time>
      </trkpt>
      <trkpt lat="47.79013" lon="6.74226">
        <ele>927.35083</ele>
        <time>2018-05-26T13:57:20Z</time>
      </trkpt>
      <trkpt lat="47.7901" lon="6.74223">
        <ele>926.730652</ele>
        <time>2018-05-26T13:57:21Z</time>
      </trkpt>
      <trkpt lat="47.79007" lon="6.74222">
        <ele>926.112976</ele>
        <time>2018-05-26T13:57:22Z</time>
      </trkpt>
      <trkpt lat="47.79004" lon="6.7422">
        <ele>925.248535</ele>
        <time>2018-05-26T13:57:23Z</time>
      </trkpt>
      <trkpt lat="47.79001" lon="6.74219">
        <ele>924.73584</ele>
        <time>2018-05-26T13:57:24Z</time>
      </trkpt>
      <trkpt lat="47.78997" lon="6.74219">
        <ele>924.088928</ele>
        <time>2018-05-26T13:57:25Z</time>
      </trkpt>
      <trkpt lat="47.78995" lon="6.74218">
        <ele>923.749207</ele>
        <time>2018-05-26T13:57:26Z</time>
      </trkpt>
      <trkpt lat="47.78993" lon="6.74218">
        <ele>923.491882</ele>
        <time>2018-05-26T13:57:27Z</time>
      </trkpt>
      <trkpt lat="47.78991" lon="6.74217">
        <ele>923.254211</ele>
        <time>2018-05-26T13:57:28Z</time>
      </trkpt>
      <trkpt lat="47.78989" lon="6.74215">
        <ele>923.190186</ele>
        <time>2018-05-26T13:57:29Z</time>
      </trkpt>
      <trkpt lat="47.78987" lon="6.74214">
        <ele>923.187073</ele>
        <time>2018-05-26T13:57:30Z</time>
      </trkpt>
      <trkpt lat="47.78985" lon="6.74214">
        <ele>923.187073</ele>
        <time>2018-05-26T13:57:31Z</time>
      </trkpt>
      <trkpt lat="47.78982" lon="6.74215">
        <ele>923.230164</ele>
        <time>2018-05-26T13:57:32Z</time>
      </trkpt>
      <trkpt lat="47.7898" lon="6.74214">
        <ele>923.322571</ele>
        <time>2018-05-26T13:57:33Z</time>
      </trkpt>
      <trkpt lat="47.78978" lon="6.74213">
        <ele>923.447327</ele>
        <time>2018-05-26T13:57:34Z</time>
      </trkpt>
      <trkpt lat="47.78978" lon="6.74212">
        <ele>923.679016</ele>
        <time>2018-05-26T13:57:35Z</time>
      </trkpt>
      <trkpt lat="47.78976" lon="6.74211">
        <ele>923.859314</ele>
        <time>2018-05-26T13:57:36Z</time>
      </trkpt>
      <trkpt lat="47.78975" lon="6.74209">
        <ele>924.143555</ele>
        <time>2018-05-26T13:57:37Z</time>
      </trkpt>
      <trkpt lat="47.78972" lon="6.74208">
        <ele>924.335632</ele>
        <time>2018-05-26T13:57:38Z</time>
      </trkpt>
      <trkpt lat="47.7897" lon="6.74207">
        <ele>924.525391</ele>
        <time>2018-05-26T13:57:39Z</time>
      </trkpt>
      <trkpt lat="47.78968" lon="6.74206">
        <ele>924.811218</ele>
        <time>2018-05-26T13:57:40Z</time>
      </trkpt>
      <trkpt lat="47.78967" lon="6.74204">
        <ele>925.010193</ele>
        <time>2018-05-26T13:57:41Z</time>
      </trkpt>
      <trkpt lat="47.78965" lon="6.74203">
        <ele>925.218811</ele>
        <time>2018-05-26T13:57:42Z</time>
      </trkpt>
      <trkpt lat="47.78963" lon="6.74203">
        <ele>925.53241</ele>
        <time>2018-05-26T13:57:43Z</time>
      </trkpt>
      <trkpt lat="47.78962" lon="6.74202">
        <ele>925.727234</ele>
        <time>2018-05-26T13:57:44Z</time>
      </trkpt>
      <trkpt lat="47.78959" lon="6.74201">
        <ele>925.906921</ele>
        <time>2018-05-26T13:57:45Z</time>
      </trkpt>
      <trkpt lat="47.78958" lon="6.74201">
        <ele>926.145508</ele>
        <time>2018-05-26T13:57:46Z</time>
      </trkpt>
      <trkpt lat="47.78956" lon="6.742">
        <ele>926.285461</ele>
        <time>2018-05-26T13:57:47Z</time>
      </trkpt>
      <trkpt lat="47.78955" lon="6.74199">
        <ele>926.412109</ele>
        <time>2018-05-26T13:57:48Z</time>
      </trkpt>
      <trkpt lat="47.78953" lon="6.74198">
        <ele>926.592041</ele>
        <time>2018-05-26T13:57:49Z</time>
      </trkpt>
      <trkpt lat="47.78951" lon="6.74196">
        <ele>926.707947</ele>
        <time>2018-05-26T13:57:50Z</time>
      </trkpt>
      <trkpt lat="47.78949" lon="6.74195">
        <ele>926.824463</ele>
        <time>2018-05-26T13:57:51Z</time>
      </trkpt>
      <trkpt lat="47.78947" lon="6.74195">
        <ele>927.002441</ele>
        <time>2018-05-26T13:57:52Z</time>
      </trkpt>
      <trkpt lat="47.78945" lon="6.74193">
        <ele>927.12323</ele>
        <time>2018-05-26T13:57:53Z</time>
      </trkpt>
      <trkpt lat="47.78943" lon="6.74192">
        <ele>927.235657</ele>
        <time>2018-05-26T13:57:54Z</time>
      </trkpt>
      <trkpt lat="47.78941" lon="6.74191">
        <ele>927.382629</ele>
        <time>2018-05-26T13:57:55Z</time>
      </trkpt>
      <trkpt lat="47.78939" lon="6.7419">
        <ele>927.464905</ele>
        <time>2018-05-26T13:57:56Z</time>
      </trkpt>
      <trkpt lat="47.78936" lon="6.74188">
        <ele>927.538818</ele>
        <time>2018-05-26T13:57:57Z</time>
      </trkpt>
      <trkpt lat="47.78934" lon="6.74187">
        <ele>927.627441</ele>
        <time>2018-05-26T13:57:58Z</time>
      </trkpt>
      <trkpt lat="47.78932" lon="6.74186">
        <ele>927.666016</ele>
        <time>2018-05-26T13:57:59Z</time>
      </trkpt>
      <trkpt lat="47.7893" lon="6.74184">
        <ele>927.685059</ele>
        <time>2018-05-26T13:58:00Z</time>
      </trkpt>
      <trkpt lat="47.78928" lon="6.74183">
        <ele>927.688477</ele>
        <time>2018-05-26T13:58:01Z</time>
      </trkpt>
      <trkpt lat="47.78926" lon="6.74181">
        <ele>927.685059</ele>
        <time>2018-05-26T13:58:02Z</time>
      </trkpt>
      <trkpt lat="47.78923" lon="6.74179">
        <ele>927.673584</ele>
        <time>2018-05-26T13:58:03Z</time>
      </trkpt>
      <trkpt lat="47.7892" lon="6.74177">
        <ele>927.641541</ele>
        <time>2018-05-26T13:58:04Z</time>
      </trkpt>
      <trkpt lat="47.78917" lon="6.74176">
        <ele>927.617188</ele>
        <time>2018-05-26T13:58:05Z</time>
      </trkpt>
      <trkpt lat="47.78915" lon="6.74175">
        <ele>927.581787</ele>
        <time>2018-05-26T13:58:06Z</time>
      </trkpt>
      <trkpt lat="47.78912" lon="6.74173">
        <ele>927.550293</ele>
        <time>2018-05-26T13:58:07Z</time>
      </trkpt>
      <trkpt lat="47.78909" lon="6.74172">
        <ele>927.503357</ele>
        <time>2018-05-26T13:58:08Z</time>
      </trkpt>
      <trkpt lat="47.78907" lon="6.74172">
        <ele>927.401855</ele>
        <time>2018-05-26T13:58:09Z</time>
      </trkpt>
      <trkpt lat="47.78903" lon="6.74169">
        <ele>927.318787</ele>
        <time>2018-05-26T13:58:10Z</time>
      </trkpt>
      <trkpt lat="47.78901" lon="6.74168">
        <ele>927.186768</ele>
        <time>2018-05-26T13:58:11Z</time>
      </trkpt>
      <trkpt lat="47.78899" lon="6.74166">
        <ele>927.102234</ele>
        <time>2018-05-26T13:58:12Z</time>
      </trkpt>
      <trkpt lat="47.78896" lon="6.74164">
        <ele>927.034363</ele>
        <time>2018-05-26T13:58:13Z</time>
      </trkpt>
      <trkpt lat="47.78894" lon="6.74162">
        <ele>926.963684</ele>
        <time>2018-05-26T13:58:14Z</time>
      </trkpt>
      <trkpt lat="47.78891" lon="6.7416">
        <ele>926.928528</ele>
        <time>2018-05-26T13:58:15Z</time>
      </trkpt>
      <trkpt lat="47.78888" lon="6.74157">
        <ele>926.895325</ele>
        <time>2018-05-26T13:58:16Z</time>
      </trkpt>
      <trkpt lat="47.78886" lon="6.74154">
        <ele>926.853027</ele>
        <time>2018-05-26T13:58:17Z</time>
      </trkpt>
      <trkpt lat="47.78883" lon="6.74151">
        <ele>926.832703</ele>
        <time>2018-05-26T13:58:18Z</time>
      </trkpt>
      <trkpt lat="47.7888" lon="6.74149">
        <ele>926.818176</ele>
        <time>2018-05-26T13:58:19Z</time>
      </trkpt>
      <trkpt lat="47.78877" lon="6.74146">
        <ele>926.811218</ele>
        <time>2018-05-26T13:58:20Z</time>
      </trkpt>
      <trkpt lat="47.78875" lon="6.74143">
        <ele>926.813293</ele>
        <time>2018-05-26T13:58:21Z</time>
      </trkpt>
      <trkpt lat="47.78872" lon="6.7414">
        <ele>926.827148</ele>
        <time>2018-05-26T13:58:22Z</time>
      </trkpt>
      <trkpt lat="47.78869" lon="6.74138">
        <ele>926.86261</ele>
        <time>2018-05-26T13:58:23Z</time>
      </trkpt>
      <trkpt lat="47.78866" lon="6.74135">
        <ele>926.868347</ele>
        <time>2018-05-26T13:58:24Z</time>
      </trkpt>
      <trkpt lat="47.78862" lon="6.74131">
        <ele>926.868347</ele>
        <time>2018-05-26T13:58:25Z</time>
      </trkpt>
      <trkpt lat="47.78858" lon="6.74128">
        <ele>926.847473</ele>
        <time>2018-05-26T13:58:26Z</time>
      </trkpt>
      <trkpt lat="47.78854" lon="6.74124">
        <ele>926.74115</ele>
        <time>2018-05-26T13:58:27Z</time>
      </trkpt>
      <trkpt lat="47.78851" lon="6.74121">
        <ele>926.612854</ele>
        <time>2018-05-26T13:58:28Z</time>
      </trkpt>
      <trkpt lat="47.78848" lon="6.74118">
        <ele>926.455566</ele>
        <time>2018-05-26T13:58:29Z</time>
      </trkpt>
      <trkpt lat="47.78845" lon="6.74115">
        <ele>926.217285</ele>
        <time>2018-05-26T13:58:30Z</time>
      </trkpt>
      <trkpt lat="47.78837" lon="6.74108">
        <ele>926.148865</ele>
        <time>2018-05-26T13:58:32Z</time>
      </trkpt>
      <trkpt lat="47.78833" lon="6.74104">
        <ele>926.031555</ele>
        <time>2018-05-26T13:58:33Z</time>
      </trkpt>
      <trkpt lat="47.78829" lon="6.741">
        <ele>925.951416</ele>
        <time>2018-05-26T13:58:34Z</time>
      </trkpt>
      <trkpt lat="47.78825" lon="6.74097">
        <ele>925.907043</ele>
        <time>2018-05-26T13:58:35Z</time>
      </trkpt>
      <trkpt lat="47.7882" lon="6.74093">
        <ele>925.907043</ele>
        <time>2018-05-26T13:58:36Z</time>
      </trkpt>
      <trkpt lat="47.78816" lon="6.74089">
        <ele>925.903137</ele>
        <time>2018-05-26T13:58:37Z</time>
      </trkpt>
      <trkpt lat="47.7881" lon="6.74084">
        <ele>925.881287</ele>
        <time>2018-05-26T13:58:38Z</time>
      </trkpt>
      <trkpt lat="47.78805" lon="6.74079">
        <ele>925.805908</ele>
        <time>2018-05-26T13:58:39Z</time>
      </trkpt>
      <trkpt lat="47.78803" lon="6.74076">
        <ele>925.657471</ele>
        <time>2018-05-26T13:58:40Z</time>
      </trkpt>
      <trkpt lat="47.788" lon="6.74073">
        <ele>925.371643</ele>
        <time>2018-05-26T13:58:41Z</time>
      </trkpt>
      <trkpt lat="47.78798" lon="6.74069">
        <ele>925.186279</ele>
        <time>2018-05-26T13:58:42Z</time>
      </trkpt>
      <trkpt lat="47.78795" lon="6.74066">
        <ele>925.053284</ele>
        <time>2018-05-26T13:58:43Z</time>
      </trkpt>
      <trkpt lat="47.78793" lon="6.74063">
        <ele>925.011719</ele>
        <time>2018-05-26T13:58:44Z</time>
      </trkpt>
      <trkpt lat="47.7879" lon="6.7406">
        <ele>925.033386</ele>
        <time>2018-05-26T13:58:45Z</time>
      </trkpt>
      <trkpt lat="47.78787" lon="6.74057">
        <ele>925.150696</ele>
        <time>2018-05-26T13:58:46Z</time>
      </trkpt>
      <trkpt lat="47.78785" lon="6.74053">
        <ele>925.411377</ele>
        <time>2018-05-26T13:58:47Z</time>
      </trkpt>
      <trkpt lat="47.78783" lon="6.74049">
        <ele>925.57782</ele>
        <time>2018-05-26T13:58:48Z</time>
      </trkpt>
      <trkpt lat="47.78781" lon="6.74045">
        <ele>925.722351</ele>
        <time>2018-05-26T13:58:49Z</time>
      </trkpt>
      <trkpt lat="47.78779" lon="6.74041">
        <ele>925.904297</ele>
        <time>2018-05-26T13:58:50Z</time>
      </trkpt>
      <trkpt lat="47.78776" lon="6.74038">
        <ele>926.006531</ele>
        <time>2018-05-26T13:58:51Z</time>
      </trkpt>
      <trkpt lat="47.78774" lon="6.74034">
        <ele>926.08905</ele>
        <time>2018-05-26T13:58:52Z</time>
      </trkpt>
      <trkpt lat="47.78771" lon="6.7403">
        <ele>926.174988</ele>
        <time>2018-05-26T13:58:53Z</time>
      </trkpt>
      <trkpt lat="47.78769" lon="6.74026">
        <ele>926.206116</ele>
        <time>2018-05-26T13:58:54Z</time>
      </trkpt>
      <trkpt lat="47.78766" lon="6.74022">
        <ele>926.212341</ele>
        <time>2018-05-26T13:58:55Z</time>
      </trkpt>
      <trkpt lat="47.78763" lon="6.74017">
        <ele>926.19574</ele>
        <time>2018-05-26T13:58:56Z</time>
      </trkpt>
      <trkpt lat="47.7876" lon="6.74013">
        <ele>926.135071</ele>
        <time>2018-05-26T13:58:57Z</time>
      </trkpt>
      <trkpt lat="47.78757" lon="6.74009">
        <ele>926.027527</ele>
        <time>2018-05-26T13:58:58Z</time>
      </trkpt>
      <trkpt lat="47.78754" lon="6.74004">
        <ele>925.801086</ele>
        <time>2018-05-26T13:58:59Z</time>
      </trkpt>
      <trkpt lat="47.78751" lon="6.73998">
        <ele>925.612793</ele>
        <time>2018-05-26T13:59:00Z</time>
      </trkpt>
      <trkpt lat="47.78748" lon="6.73993">
        <ele>925.394287</ele>
        <time>2018-05-26T13:59:01Z</time>
      </trkpt>
      <trkpt lat="47.78745" lon="6.73988">
        <ele>925.011902</ele>
        <time>2018-05-26T13:59:02Z</time>
      </trkpt>
      <trkpt lat="47.78742" lon="6.73983">
        <ele>924.73114</ele>
        <time>2018-05-26T13:59:03Z</time>
      </trkpt>
      <trkpt lat="47.7874" lon="6.73978">
        <ele>924.445801</ele>
        <time>2018-05-26T13:59:04Z</time>
      </trkpt>
      <trkpt lat="47.78737" lon="6.73973">
        <ele>924.027039</ele>
        <time>2018-05-26T13:59:05Z</time>
      </trkpt>
      <trkpt lat="47.78734" lon="6.73968">
        <ele>923.761475</ele>
        <time>2018-05-26T13:59:06Z</time>
      </trkpt>
      <trkpt lat="47.78731" lon="6.73962">
        <ele>923.514404</ele>
        <time>2018-05-26T13:59:07Z</time>
      </trkpt>
      <trkpt lat="47.78728" lon="6.73957">
        <ele>923.188782</ele>
        <time>2018-05-26T13:59:08Z</time>
      </trkpt>
      <trkpt lat="47.78725" lon="6.73951">
        <ele>922.994202</ele>
        <time>2018-05-26T13:59:09Z</time>
      </trkpt>
      <trkpt lat="47.78722" lon="6.73945">
        <ele>922.803711</ele>
        <time>2018-05-26T13:59:10Z</time>
      </trkpt>
      <trkpt lat="47.7872" lon="6.73939">
        <ele>922.514709</ele>
        <time>2018-05-26T13:59:11Z</time>
      </trkpt>
      <trkpt lat="47.78717" lon="6.73934">
        <ele>922.326416</ele>
        <time>2018-05-26T13:59:12Z</time>
      </trkpt>
      <trkpt lat="47.78715" lon="6.73928">
        <ele>922.15448</ele>
        <time>2018-05-26T13:59:13Z</time>
      </trkpt>
      <trkpt lat="47.78713" lon="6.73923">
        <ele>921.946777</ele>
        <time>2018-05-26T13:59:14Z</time>
      </trkpt>
      <trkpt lat="47.78709" lon="6.73917">
        <ele>921.83136</ele>
        <time>2018-05-26T13:59:15Z</time>
      </trkpt>
      <trkpt lat="47.78706" lon="6.73911">
        <ele>921.730286</ele>
        <time>2018-05-26T13:59:16Z</time>
      </trkpt>
      <trkpt lat="47.78703" lon="6.73906">
        <ele>921.586243</ele>
        <time>2018-05-26T13:59:17Z</time>
      </trkpt>
      <trkpt lat="47.787" lon="6.73901">
        <ele>921.499573</ele>
        <time>2018-05-26T13:59:18Z</time>
      </trkpt>
      <trkpt lat="47.78695" lon="6.73896">
        <ele>921.425964</ele>
        <time>2018-05-26T13:59:19Z</time>
      </trkpt>
      <trkpt lat="47.78691" lon="6.73891">
        <ele>921.325928</ele>
        <time>2018-05-26T13:59:20Z</time>
      </trkpt>
      <trkpt lat="47.78687" lon="6.73886">
        <ele>921.232849</ele>
        <time>2018-05-26T13:59:21Z</time>
      </trkpt>
      <trkpt lat="47.78685" lon="6.73882">
        <ele>921.047852</ele>
        <time>2018-05-26T13:59:22Z</time>
      </trkpt>
      <trkpt lat="47.78682" lon="6.73879">
        <ele>920.919983</ele>
        <time>2018-05-26T13:59:23Z</time>
      </trkpt>
      <trkpt lat="47.78679" lon="6.73875">
        <ele>920.822021</ele>
        <time>2018-05-26T13:59:24Z</time>
      </trkpt>
      <trkpt lat="47.78677" lon="6.73871">
        <ele>920.769714</ele>
        <time>2018-05-26T13:59:25Z</time>
      </trkpt>
      <trkpt lat="47.78676" lon="6.73867">
        <ele>920.769714</ele>
        <time>2018-05-26T13:59:26Z</time>
      </trkpt>
      <trkpt lat="47.78675" lon="6.73864">
        <ele>920.817932</ele>
        <time>2018-05-26T13:59:27Z</time>
      </trkpt>
      <trkpt lat="47.78675" lon="6.73861">
        <ele>920.92865</ele>
        <time>2018-05-26T13:59:28Z</time>
      </trkpt>
      <trkpt lat="47.78675" lon="6.73857">
        <ele>921.189392</ele>
        <time>2018-05-26T13:59:29Z</time>
      </trkpt>
      <trkpt lat="47.78675" lon="6.73854">
        <ele>921.38324</ele>
        <time>2018-05-26T13:59:30Z</time>
      </trkpt>
      <trkpt lat="47.78676" lon="6.7385">
        <ele>921.566162</ele>
        <time>2018-05-26T13:59:31Z</time>
      </trkpt>
      <trkpt lat="47.78677" lon="6.73846">
        <ele>921.646912</ele>
        <time>2018-05-26T13:59:32Z</time>
      </trkpt>
      <trkpt lat="47.78678" lon="6.73842">
        <ele>921.849304</ele>
        <time>2018-05-26T13:59:33Z</time>
      </trkpt>
      <trkpt lat="47.78679" lon="6.73837">
        <ele>921.950867</ele>
        <time>2018-05-26T13:59:34Z</time>
      </trkpt>
      <trkpt lat="47.78679" lon="6.73832">
        <ele>922.029358</ele>
        <time>2018-05-26T13:59:35Z</time>
      </trkpt>
      <trkpt lat="47.78679" lon="6.73827">
        <ele>922.085754</ele>
        <time>2018-05-26T13:59:36Z</time>
      </trkpt>
      <trkpt lat="47.78678" lon="6.73822">
        <ele>922.131775</ele>
        <time>2018-05-26T13:59:37Z</time>
      </trkpt>
      <trkpt lat="47.78678" lon="6.73817">
        <ele>922.139099</ele>
        <time>2018-05-26T13:59:38Z</time>
      </trkpt>
      <trkpt lat="47.78678" lon="6.73811">
        <ele>922.139099</ele>
        <time>2018-05-26T13:59:39Z</time>
      </trkpt>
      <trkpt lat="47.78677" lon="6.73806">
        <ele>922.110535</ele>
        <time>2018-05-26T13:59:40Z</time>
      </trkpt>
      <trkpt lat="47.78675" lon="6.73801">
        <ele>922.067383</ele>
        <time>2018-05-26T13:59:41Z</time>
      </trkpt>
      <trkpt lat="47.78672" lon="6.73796">
        <ele>922.005798</ele>
        <time>2018-05-26T13:59:42Z</time>
      </trkpt>
      <trkpt lat="47.7867" lon="6.73791">
        <ele>921.871765</ele>
        <time>2018-05-26T13:59:43Z</time>
      </trkpt>
      <trkpt lat="47.78668" lon="6.73787">
        <ele>921.757324</ele>
        <time>2018-05-26T13:59:44Z</time>
      </trkpt>
      <trkpt lat="47.78666" lon="6.73783">
        <ele>921.633728</ele>
        <time>2018-05-26T13:59:45Z</time>
      </trkpt>
      <trkpt lat="47.78664" lon="6.73779">
        <ele>921.506775</ele>
        <time>2018-05-26T13:59:46Z</time>
      </trkpt>
      <trkpt lat="47.78658" lon="6.73768">
        <ele>920.623535</ele>
        <time>2018-05-26T13:59:53Z</time>
      </trkpt>
      <trkpt lat="47.78657" lon="6.73764">
        <ele>920.585754</ele>
        <time>2018-05-26T13:59:55Z</time>
      </trkpt>
      <trkpt lat="47.78655" lon="6.7376">
        <ele>920.548584</ele>
        <time>2018-05-26T13:59:56Z</time>
      </trkpt>
      <trkpt lat="47.78653" lon="6.73756">
        <ele>920.493347</ele>
        <time>2018-05-26T13:59:57Z</time>
      </trkpt>
      <trkpt lat="47.78651" lon="6.73753">
        <ele>920.466736</ele>
        <time>2018-05-26T13:59:58Z</time>
      </trkpt>
      <trkpt lat="47.78651" lon="6.7375">
        <ele>920.447205</ele>
        <time>2018-05-26T13:59:59Z</time>
      </trkpt>
      <trkpt lat="47.78644" lon="6.73741">
        <ele>920.293274</ele>
        <time>2018-05-26T14:00:38Z</time>
      </trkpt>
      <trkpt lat="47.78643" lon="6.73738">
        <ele>920.241211</ele>
        <time>2018-05-26T14:00:40Z</time>
      </trkpt>
      <trkpt lat="47.78642" lon="6.73734">
        <ele>920.188721</ele>
        <time>2018-05-26T14:00:41Z</time>
      </trkpt>
      <trkpt lat="47.78641" lon="6.7373">
        <ele>920.128235</ele>
        <time>2018-05-26T14:00:42Z</time>
      </trkpt>
      <trkpt lat="47.7864" lon="6.73727">
        <ele>920.043884</ele>
        <time>2018-05-26T14:00:43Z</time>
      </trkpt>
      <trkpt lat="47.78639" lon="6.73724">
        <ele>920.006897</ele>
        <time>2018-05-26T14:00:44Z</time>
      </trkpt>
      <trkpt lat="47.78639" lon="6.73721">
        <ele>919.992737</ele>
        <time>2018-05-26T14:00:45Z</time>
      </trkpt>
      <trkpt lat="47.78638" lon="6.73719">
        <ele>919.995544</ele>
        <time>2018-05-26T14:00:46Z</time>
      </trkpt>
      <trkpt lat="47.78637" lon="6.73717">
        <ele>920.018127</ele>
        <time>2018-05-26T14:00:47Z</time>
      </trkpt>
      <trkpt lat="47.78637" lon="6.73715">
        <ele>920.060303</ele>
        <time>2018-05-26T14:00:48Z</time>
      </trkpt>
      <trkpt lat="47.78636" lon="6.73713">
        <ele>920.13385</ele>
        <time>2018-05-26T14:00:49Z</time>
      </trkpt>
      <trkpt lat="47.78635" lon="6.73712">
        <ele>920.18927</ele>
        <time>2018-05-26T14:00:50Z</time>
      </trkpt>
      <trkpt lat="47.78633" lon="6.7371">
        <ele>920.247498</ele>
        <time>2018-05-26T14:00:51Z</time>
      </trkpt>
      <trkpt lat="47.78631" lon="6.73708">
        <ele>920.330872</ele>
        <time>2018-05-26T14:00:52Z</time>
      </trkpt>
      <trkpt lat="47.7863" lon="6.73706">
        <ele>920.37915</ele>
        <time>2018-05-26T14:00:53Z</time>
      </trkpt>
      <trkpt lat="47.78628" lon="6.73703">
        <ele>920.418762</ele>
        <time>2018-05-26T14:00:54Z</time>
      </trkpt>
      <trkpt lat="47.78626" lon="6.73701">
        <ele>920.467468</ele>
        <time>2018-05-26T14:00:55Z</time>
      </trkpt>
      <trkpt lat="47.78625" lon="6.73699">
        <ele>920.496643</ele>
        <time>2018-05-26T14:00:56Z</time>
      </trkpt>
      <trkpt lat="47.78623" lon="6.73696">
        <ele>920.520996</ele>
        <time>2018-05-26T14:00:57Z</time>
      </trkpt>
      <trkpt lat="47.78621" lon="6.73694">
        <ele>920.539612</ele>
        <time>2018-05-26T14:00:58Z</time>
      </trkpt>
      <trkpt lat="47.7862" lon="6.73692">
        <ele>920.539612</ele>
        <time>2018-05-26T14:00:59Z</time>
      </trkpt>
      <trkpt lat="47.78618" lon="6.73688">
        <ele>920.534729</ele>
        <time>2018-05-26T14:01:00Z</time>
      </trkpt>
      <trkpt lat="47.78616" lon="6.73685">
        <ele>920.50885</ele>
        <time>2018-05-26T14:01:01Z</time>
      </trkpt>
      <trkpt lat="47.78615" lon="6.73682">
        <ele>920.486877</ele>
        <time>2018-05-26T14:01:02Z</time>
      </trkpt>
      <trkpt lat="47.78613" lon="6.7368">
        <ele>920.46698</ele>
        <time>2018-05-26T14:01:03Z</time>
      </trkpt>
      <trkpt lat="47.78611" lon="6.73677">
        <ele>920.45166</ele>
        <time>2018-05-26T14:01:04Z</time>
      </trkpt>
      <trkpt lat="47.78609" lon="6.73675">
        <ele>920.448547</ele>
        <time>2018-05-26T14:01:05Z</time>
      </trkpt>
      <trkpt lat="47.78606" lon="6.73672">
        <ele>920.448547</ele>
        <time>2018-05-26T14:01:06Z</time>
      </trkpt>
      <trkpt lat="47.78603" lon="6.73669">
        <ele>920.450134</ele>
        <time>2018-05-26T14:01:07Z</time>
      </trkpt>
      <trkpt lat="47.78601" lon="6.73665">
        <ele>920.447327</ele>
        <time>2018-05-26T14:01:08Z</time>
      </trkpt>
      <trkpt lat="47.78598" lon="6.73661">
        <ele>920.430725</ele>
        <time>2018-05-26T14:01:09Z</time>
      </trkpt>
      <trkpt lat="47.78596" lon="6.73656">
        <ele>920.360779</ele>
        <time>2018-05-26T14:01:10Z</time>
      </trkpt>
      <trkpt lat="47.78594" lon="6.73651">
        <ele>920.280762</ele>
        <time>2018-05-26T14:01:11Z</time>
      </trkpt>
      <trkpt lat="47.78592" lon="6.73646">
        <ele>920.178894</ele>
        <time>2018-05-26T14:01:12Z</time>
      </trkpt>
      <trkpt lat="47.78589" lon="6.7364">
        <ele>919.994873</ele>
        <time>2018-05-26T14:01:13Z</time>
      </trkpt>
      <trkpt lat="47.78587" lon="6.73634">
        <ele>919.861084</ele>
        <time>2018-05-26T14:01:14Z</time>
      </trkpt>
      <trkpt lat="47.78585" lon="6.73628">
        <ele>919.725037</ele>
        <time>2018-05-26T14:01:15Z</time>
      </trkpt>
      <trkpt lat="47.78583" lon="6.73622">
        <ele>919.587341</ele>
        <time>2018-05-26T14:01:16Z</time>
      </trkpt>
      <trkpt lat="47.78581" lon="6.73616">
        <ele>919.38446</ele>
        <time>2018-05-26T14:01:17Z</time>
      </trkpt>
      <trkpt lat="47.78579" lon="6.7361">
        <ele>919.254395</ele>
        <time>2018-05-26T14:01:18Z</time>
      </trkpt>
      <trkpt lat="47.78577" lon="6.73604">
        <ele>919.129883</ele>
        <time>2018-05-26T14:01:19Z</time>
      </trkpt>
      <trkpt lat="47.78576" lon="6.73597">
        <ele>919.010254</ele>
        <time>2018-05-26T14:01:20Z</time>
      </trkpt>
      <trkpt lat="47.78574" lon="6.73591">
        <ele>918.849915</ele>
        <time>2018-05-26T14:01:21Z</time>
      </trkpt>
      <trkpt lat="47.78573" lon="6.73585">
        <ele>918.7547</ele>
        <time>2018-05-26T14:01:22Z</time>
      </trkpt>
      <trkpt lat="47.78572" lon="6.7358">
        <ele>918.673157</ele>
        <time>2018-05-26T14:01:23Z</time>
      </trkpt>
      <trkpt lat="47.78571" lon="6.73576">
        <ele>918.580261</ele>
        <time>2018-05-26T14:01:24Z</time>
      </trkpt>
      <trkpt lat="47.78569" lon="6.73572">
        <ele>918.533386</ele>
        <time>2018-05-26T14:01:25Z</time>
      </trkpt>
      <trkpt lat="47.78568" lon="6.73568">
        <ele>918.493164</ele>
        <time>2018-05-26T14:01:26Z</time>
      </trkpt>
      <trkpt lat="47.78567" lon="6.73563">
        <ele>918.443176</ele>
        <time>2018-05-26T14:01:27Z</time>
      </trkpt>
      <trkpt lat="47.78566" lon="6.73559">
        <ele>918.420898</ele>
        <time>2018-05-26T14:01:28Z</time>
      </trkpt>
      <trkpt lat="47.78565" lon="6.73556">
        <ele>918.411865</ele>
        <time>2018-05-26T14:01:29Z</time>
      </trkpt>
      <trkpt lat="47.78565" lon="6.73553">
        <ele>918.413879</ele>
        <time>2018-05-26T14:01:30Z</time>
      </trkpt>
      <trkpt lat="47.78564" lon="6.7355">
        <ele>918.431702</ele>
        <time>2018-05-26T14:01:31Z</time>
      </trkpt>
      <trkpt lat="47.78563" lon="6.73547">
        <ele>918.46051</ele>
        <time>2018-05-26T14:01:32Z</time>
      </trkpt>
      <trkpt lat="47.78563" lon="6.73541">
        <ele>918.477112</ele>
        <time>2018-05-26T14:01:34Z</time>
      </trkpt>
      <trkpt lat="47.78562" lon="6.73538">
        <ele>918.493408</ele>
        <time>2018-05-26T14:01:35Z</time>
      </trkpt>
      <trkpt lat="47.78562" lon="6.73535">
        <ele>918.526367</ele>
        <time>2018-05-26T14:01:36Z</time>
      </trkpt>
      <trkpt lat="47.78561" lon="6.73531">
        <ele>918.555847</ele>
        <time>2018-05-26T14:01:37Z</time>
      </trkpt>
      <trkpt lat="47.78561" lon="6.73528">
        <ele>918.577332</ele>
        <time>2018-05-26T14:01:38Z</time>
      </trkpt>
      <trkpt lat="47.7856" lon="6.73523">
        <ele>918.580994</ele>
        <time>2018-05-26T14:01:39Z</time>
      </trkpt>
      <trkpt lat="47.78558" lon="6.7352">
        <ele>918.566833</ele>
        <time>2018-05-26T14:01:40Z</time>
      </trkpt>
      <trkpt lat="47.78556" lon="6.73516">
        <ele>918.515686</ele>
        <time>2018-05-26T14:01:41Z</time>
      </trkpt>
      <trkpt lat="47.78555" lon="6.73513">
        <ele>918.430237</ele>
        <time>2018-05-26T14:01:42Z</time>
      </trkpt>
      <trkpt lat="47.78553" lon="6.73509">
        <ele>918.239441</ele>
        <time>2018-05-26T14:01:43Z</time>
      </trkpt>
      <trkpt lat="47.78552" lon="6.73505">
        <ele>918.068054</ele>
        <time>2018-05-26T14:01:44Z</time>
      </trkpt>
      <trkpt lat="47.78551" lon="6.73502">
        <ele>917.861633</ele>
        <time>2018-05-26T14:01:45Z</time>
      </trkpt>
      <trkpt lat="47.7855" lon="6.73499">
        <ele>917.51709</ele>
        <time>2018-05-26T14:01:46Z</time>
      </trkpt>
      <trkpt lat="47.78549" lon="6.73495">
        <ele>917.285156</ele>
        <time>2018-05-26T14:01:47Z</time>
      </trkpt>
      <trkpt lat="47.78548" lon="6.73493">
        <ele>917.056641</ele>
        <time>2018-05-26T14:01:48Z</time>
      </trkpt>
      <trkpt lat="47.78548" lon="6.7349">
        <ele>916.70459</ele>
        <time>2018-05-26T14:01:49Z</time>
      </trkpt>
      <trkpt lat="47.78548" lon="6.73489">
        <ele>916.461914</ele>
        <time>2018-05-26T14:01:50Z</time>
      </trkpt>
      <trkpt lat="47.78553" lon="6.73501">
        <ele>915.46991</ele>
        <time>2018-05-26T14:02:47Z</time>
      </trkpt>
      <trkpt lat="47.78554" lon="6.73503">
        <ele>915.53656</ele>
        <time>2018-05-26T14:02:49Z</time>
      </trkpt>
      <trkpt lat="47.78555" lon="6.73504">
        <ele>915.617493</ele>
        <time>2018-05-26T14:02:50Z</time>
      </trkpt>
      <trkpt lat="47.78556" lon="6.73504">
        <ele>915.713684</ele>
        <time>2018-05-26T14:02:51Z</time>
      </trkpt>
      <trkpt lat="47.78557" lon="6.73506">
        <ele>915.868347</ele>
        <time>2018-05-26T14:02:52Z</time>
      </trkpt>
      <trkpt lat="47.78556" lon="6.73508">
        <ele>915.96283</ele>
        <time>2018-05-26T14:02:53Z</time>
      </trkpt>
      <trkpt lat="47.78555" lon="6.73509">
        <ele>916.050049</ele>
        <time>2018-05-26T14:02:54Z</time>
      </trkpt>
      <trkpt lat="47.78555" lon="6.73512">
        <ele>916.129944</ele>
        <time>2018-05-26T14:02:55Z</time>
      </trkpt>
      <trkpt lat="47.78555" lon="6.73515">
        <ele>916.20459</ele>
        <time>2018-05-26T14:02:56Z</time>
      </trkpt>
      <trkpt lat="47.78556" lon="6.73517">
        <ele>916.272949</ele>
        <time>2018-05-26T14:02:57Z</time>
      </trkpt>
      <trkpt lat="47.78558" lon="6.73519">
        <ele>916.356506</ele>
        <time>2018-05-26T14:02:58Z</time>
      </trkpt>
      <trkpt lat="47.78559" lon="6.7352">
        <ele>916.407471</ele>
        <time>2018-05-26T14:02:59Z</time>
      </trkpt>
      <trkpt lat="47.7856" lon="6.73523">
        <ele>916.466797</ele>
        <time>2018-05-26T14:03:00Z</time>
      </trkpt>
      <trkpt lat="47.7856" lon="6.73526">
        <ele>916.542542</ele>
        <time>2018-05-26T14:03:01Z</time>
      </trkpt>
      <trkpt lat="47.78561" lon="6.73529">
        <ele>916.635681</ele>
        <time>2018-05-26T14:03:02Z</time>
      </trkpt>
      <trkpt lat="47.78561" lon="6.73532">
        <ele>916.741455</ele>
        <time>2018-05-26T14:03:03Z</time>
      </trkpt>
      <trkpt lat="47.78562" lon="6.73534">
        <ele>916.854187</ele>
        <time>2018-05-26T14:03:04Z</time>
      </trkpt>
      <trkpt lat="47.78562" lon="6.73537">
        <ele>916.972595</ele>
        <time>2018-05-26T14:03:05Z</time>
      </trkpt>
      <trkpt lat="47.78563" lon="6.73541">
        <ele>917.098572</ele>
        <time>2018-05-26T14:03:06Z</time>
      </trkpt>
      <trkpt lat="47.78563" lon="6.73544">
        <ele>917.231995</ele>
        <time>2018-05-26T14:03:07Z</time>
      </trkpt>
      <trkpt lat="47.78564" lon="6.73548">
        <ele>917.367126</ele>
        <time>2018-05-26T14:03:08Z</time>
      </trkpt>
      <trkpt lat="47.78565" lon="6.73551">
        <ele>917.498352</ele>
        <time>2018-05-26T14:03:09Z</time>
      </trkpt>
      <trkpt lat="47.78565" lon="6.73554">
        <ele>917.692688</ele>
        <time>2018-05-26T14:03:10Z</time>
      </trkpt>
      <trkpt lat="47.78566" lon="6.73556">
        <ele>917.82489</ele>
        <time>2018-05-26T14:03:11Z</time>
      </trkpt>
      <trkpt lat="47.78567" lon="6.73559">
        <ele>917.952332</ele>
        <time>2018-05-26T14:03:12Z</time>
      </trkpt>
      <trkpt lat="47.78568" lon="6.73563">
        <ele>918.068909</ele>
        <time>2018-05-26T14:03:13Z</time>
      </trkpt>
      <trkpt lat="47.78568" lon="6.73566">
        <ele>918.175781</ele>
        <time>2018-05-26T14:03:14Z</time>
      </trkpt>
      <trkpt lat="47.78569" lon="6.73569">
        <ele>918.280945</ele>
        <time>2018-05-26T14:03:15Z</time>
      </trkpt>
      <trkpt lat="47.78569" lon="6.73572">
        <ele>918.428223</ele>
        <time>2018-05-26T14:03:16Z</time>
      </trkpt>
      <trkpt lat="47.7857" lon="6.73575">
        <ele>918.506653</ele>
        <time>2018-05-26T14:03:17Z</time>
      </trkpt>
      <trkpt lat="47.7857" lon="6.73578">
        <ele>918.563171</ele>
        <time>2018-05-26T14:03:18Z</time>
      </trkpt>
      <trkpt lat="47.78571" lon="6.73581">
        <ele>918.60553</ele>
        <time>2018-05-26T14:03:19Z</time>
      </trkpt>
      <trkpt lat="47.78572" lon="6.73583">
        <ele>918.645447</ele>
        <time>2018-05-26T14:03:20Z</time>
      </trkpt>
      <trkpt lat="47.78573" lon="6.73586">
        <ele>918.688538</ele>
        <time>2018-05-26T14:03:21Z</time>
      </trkpt>
      <trkpt lat="47.78574" lon="6.73589">
        <ele>918.724915</ele>
        <time>2018-05-26T14:03:22Z</time>
      </trkpt>
      <trkpt lat="47.78575" lon="6.73593">
        <ele>918.748779</ele>
        <time>2018-05-26T14:03:23Z</time>
      </trkpt>
      <trkpt lat="47.78576" lon="6.73597">
        <ele>918.759216</ele>
        <time>2018-05-26T14:03:24Z</time>
      </trkpt>
      <trkpt lat="47.78577" lon="6.73601">
        <ele>918.763611</ele>
        <time>2018-05-26T14:03:25Z</time>
      </trkpt>
      <trkpt lat="47.78578" lon="6.73606">
        <ele>918.764954</ele>
        <time>2018-05-26T14:03:26Z</time>
      </trkpt>
      <trkpt lat="47.78579" lon="6.7361">
        <ele>918.763855</ele>
        <time>2018-05-26T14:03:27Z</time>
      </trkpt>
      <trkpt lat="47.78581" lon="6.73615">
        <ele>918.754883</ele>
        <time>2018-05-26T14:03:28Z</time>
      </trkpt>
      <trkpt lat="47.78582" lon="6.73619">
        <ele>918.730164</ele>
        <time>2018-05-26T14:03:29Z</time>
      </trkpt>
      <trkpt lat="47.78583" lon="6.73623">
        <ele>918.67041</ele>
        <time>2018-05-26T14:03:30Z</time>
      </trkpt>
      <trkpt lat="47.78584" lon="6.73628">
        <ele>918.62915</ele>
        <time>2018-05-26T14:03:31Z</time>
      </trkpt>
      <trkpt lat="47.78585" lon="6.73632">
        <ele>918.611267</ele>
        <time>2018-05-26T14:03:32Z</time>
      </trkpt>
      <trkpt lat="47.78587" lon="6.73636">
        <ele>918.611816</ele>
        <time>2018-05-26T14:03:33Z</time>
      </trkpt>
      <trkpt lat="47.78588" lon="6.7364">
        <ele>918.620789</ele>
        <time>2018-05-26T14:03:34Z</time>
      </trkpt>
      <trkpt lat="47.7859" lon="6.73644">
        <ele>918.638733</ele>
        <time>2018-05-26T14:03:35Z</time>
      </trkpt>
      <trkpt lat="47.78591" lon="6.73648">
        <ele>918.666748</ele>
        <time>2018-05-26T14:03:36Z</time>
      </trkpt>
      <trkpt lat="47.78593" lon="6.73651">
        <ele>918.791016</ele>
        <time>2018-05-26T14:03:37Z</time>
      </trkpt>
      <trkpt lat="47.78595" lon="6.73655">
        <ele>918.903503</ele>
        <time>2018-05-26T14:03:38Z</time>
      </trkpt>
      <trkpt lat="47.78597" lon="6.73658">
        <ele>919.030273</ele>
        <time>2018-05-26T14:03:39Z</time>
      </trkpt>
      <trkpt lat="47.78598" lon="6.73662">
        <ele>919.229492</ele>
        <time>2018-05-26T14:03:40Z</time>
      </trkpt>
      <trkpt lat="47.786" lon="6.73665">
        <ele>919.369568</ele>
        <time>2018-05-26T14:03:41Z</time>
      </trkpt>
      <trkpt lat="47.78602" lon="6.73668">
        <ele>919.515198</ele>
        <time>2018-05-26T14:03:42Z</time>
      </trkpt>
      <trkpt lat="47.78604" lon="6.73671">
        <ele>919.669006</ele>
        <time>2018-05-26T14:03:43Z</time>
      </trkpt>
      <trkpt lat="47.78606" lon="6.73675">
        <ele>919.901611</ele>
        <time>2018-05-26T14:03:44Z</time>
      </trkpt>
      <trkpt lat="47.78608" lon="6.73678">
        <ele>920.054016</ele>
        <time>2018-05-26T14:03:45Z</time>
      </trkpt>
      <trkpt lat="47.78609" lon="6.73681">
        <ele>920.201843</ele>
        <time>2018-05-26T14:03:46Z</time>
      </trkpt>
      <trkpt lat="47.78611" lon="6.73685">
        <ele>920.408691</ele>
        <time>2018-05-26T14:03:47Z</time>
      </trkpt>
      <trkpt lat="47.78613" lon="6.73688">
        <ele>920.529541</ele>
        <time>2018-05-26T14:03:48Z</time>
      </trkpt>
      <trkpt lat="47.78614" lon="6.73691">
        <ele>920.630798</ele>
        <time>2018-05-26T14:03:49Z</time>
      </trkpt>
      <trkpt lat="47.78616" lon="6.73694">
        <ele>920.708252</ele>
        <time>2018-05-26T14:03:50Z</time>
      </trkpt>
      <trkpt lat="47.78618" lon="6.73697">
        <ele>920.788391</ele>
        <time>2018-05-26T14:03:51Z</time>
      </trkpt>
      <trkpt lat="47.7862" lon="6.737">
        <ele>920.821472</ele>
        <time>2018-05-26T14:03:52Z</time>
      </trkpt>
      <trkpt lat="47.78622" lon="6.73703">
        <ele>920.838074</ele>
        <time>2018-05-26T14:03:53Z</time>
      </trkpt>
      <trkpt lat="47.78623" lon="6.73707">
        <ele>920.838074</ele>
        <time>2018-05-26T14:03:54Z</time>
      </trkpt>
      <trkpt lat="47.78626" lon="6.7371">
        <ele>920.816101</ele>
        <time>2018-05-26T14:03:55Z</time>
      </trkpt>
      <trkpt lat="47.78627" lon="6.73714">
        <ele>920.771973</ele>
        <time>2018-05-26T14:03:56Z</time>
      </trkpt>
      <trkpt lat="47.78629" lon="6.73717">
        <ele>920.715271</ele>
        <time>2018-05-26T14:03:57Z</time>
      </trkpt>
      <trkpt lat="47.78631" lon="6.73721">
        <ele>920.654358</ele>
        <time>2018-05-26T14:03:58Z</time>
      </trkpt>
      <trkpt lat="47.78633" lon="6.73724">
        <ele>920.583313</ele>
        <time>2018-05-26T14:03:59Z</time>
      </trkpt>
      <trkpt lat="47.78635" lon="6.73728">
        <ele>920.545349</ele>
        <time>2018-05-26T14:04:00Z</time>
      </trkpt>
      <trkpt lat="47.78637" lon="6.73732">
        <ele>920.500977</ele>
        <time>2018-05-26T14:04:01Z</time>
      </trkpt>
      <trkpt lat="47.7864" lon="6.73736">
        <ele>920.421875</ele>
        <time>2018-05-26T14:04:02Z</time>
      </trkpt>
      <trkpt lat="47.78642" lon="6.7374">
        <ele>920.373352</ele>
        <time>2018-05-26T14:04:03Z</time>
      </trkpt>
      <trkpt lat="47.78644" lon="6.73745">
        <ele>920.321472</ele>
        <time>2018-05-26T14:04:04Z</time>
      </trkpt>
      <trkpt lat="47.78646" lon="6.73749">
        <ele>920.257141</ele>
        <time>2018-05-26T14:04:05Z</time>
      </trkpt>
      <trkpt lat="47.78648" lon="6.73754">
        <ele>920.177734</ele>
        <time>2018-05-26T14:04:06Z</time>
      </trkpt>
      <trkpt lat="47.78649" lon="6.73758">
        <ele>920.061584</ele>
        <time>2018-05-26T14:04:07Z</time>
      </trkpt>
      <trkpt lat="47.78651" lon="6.73762">
        <ele>920.020996</ele>
        <time>2018-05-26T14:04:08Z</time>
      </trkpt>
      <trkpt lat="47.78652" lon="6.73767">
        <ele>920.020447</ele>
        <time>2018-05-26T14:04:09Z</time>
      </trkpt>
      <trkpt lat="47.78653" lon="6.73771">
        <ele>920.032715</ele>
        <time>2018-05-26T14:04:10Z</time>
      </trkpt>
      <trkpt lat="47.78653" lon="6.73776">
        <ele>920.088074</ele>
        <time>2018-05-26T14:04:11Z</time>
      </trkpt>
      <trkpt lat="47.78655" lon="6.7378">
        <ele>920.169189</ele>
        <time>2018-05-26T14:04:12Z</time>
      </trkpt>
      <trkpt lat="47.78656" lon="6.73784">
        <ele>920.314209</ele>
        <time>2018-05-26T14:04:13Z</time>
      </trkpt>
      <trkpt lat="47.78657" lon="6.73788">
        <ele>920.42218</ele>
        <time>2018-05-26T14:04:14Z</time>
      </trkpt>
      <trkpt lat="47.78658" lon="6.73793">
        <ele>920.533691</ele>
        <time>2018-05-26T14:04:15Z</time>
      </trkpt>
      <trkpt lat="47.78658" lon="6.73797">
        <ele>920.650574</ele>
        <time>2018-05-26T14:04:16Z</time>
      </trkpt>
      <trkpt lat="47.78658" lon="6.73801">
        <ele>920.769775</ele>
        <time>2018-05-26T14:04:17Z</time>
      </trkpt>
      <trkpt lat="47.78658" lon="6.73805">
        <ele>920.895325</ele>
        <time>2018-05-26T14:04:18Z</time>
      </trkpt>
      <trkpt lat="47.78658" lon="6.73809">
        <ele>921.02832</ele>
        <time>2018-05-26T14:04:19Z</time>
      </trkpt>
      <trkpt lat="47.78658" lon="6.73814">
        <ele>921.174988</ele>
        <time>2018-05-26T14:04:20Z</time>
      </trkpt>
      <trkpt lat="47.78658" lon="6.73817">
        <ele>921.333191</ele>
        <time>2018-05-26T14:04:21Z</time>
      </trkpt>
      <trkpt lat="47.78658" lon="6.7382">
        <ele>921.495361</ele>
        <time>2018-05-26T14:04:22Z</time>
      </trkpt>
      <trkpt lat="47.78658" lon="6.73824">
        <ele>921.655029</ele>
        <time>2018-05-26T14:04:23Z</time>
      </trkpt>
      <trkpt lat="47.78658" lon="6.73827">
        <ele>921.811768</ele>
        <time>2018-05-26T14:04:24Z</time>
      </trkpt>
      <trkpt lat="47.78658" lon="6.7383">
        <ele>921.971497</ele>
        <time>2018-05-26T14:04:25Z</time>
      </trkpt>
      <trkpt lat="47.78658" lon="6.73833">
        <ele>922.13324</ele>
        <time>2018-05-26T14:04:26Z</time>
      </trkpt>
      <trkpt lat="47.78659" lon="6.73836">
        <ele>922.375732</ele>
        <time>2018-05-26T14:04:27Z</time>
      </trkpt>
      <trkpt lat="47.78659" lon="6.7384">
        <ele>922.534607</ele>
        <time>2018-05-26T14:04:28Z</time>
      </trkpt>
      <trkpt lat="47.78659" lon="6.73843">
        <ele>922.695496</ele>
        <time>2018-05-26T14:04:29Z</time>
      </trkpt>
      <trkpt lat="47.78659" lon="6.73846">
        <ele>922.861145</ele>
        <time>2018-05-26T14:04:30Z</time>
      </trkpt>
      <trkpt lat="47.7866" lon="6.73849">
        <ele>923.032166</ele>
        <time>2018-05-26T14:04:31Z</time>
      </trkpt>
      <trkpt lat="47.78661" lon="6.73853">
        <ele>923.203064</ele>
        <time>2018-05-26T14:04:32Z</time>
      </trkpt>
      <trkpt lat="47.78661" lon="6.73856">
        <ele>923.367188</ele>
        <time>2018-05-26T14:04:33Z</time>
      </trkpt>
      <trkpt lat="47.78661" lon="6.7386">
        <ele>923.601257</ele>
        <time>2018-05-26T14:04:34Z</time>
      </trkpt>
      <trkpt lat="47.78662" lon="6.73863">
        <ele>923.676208</ele>
        <time>2018-05-26T14:04:35Z</time>
      </trkpt>
      <trkpt lat="47.78662" lon="6.73867">
        <ele>923.822998</ele>
        <time>2018-05-26T14:04:36Z</time>
      </trkpt>
      <trkpt lat="47.78662" lon="6.7387">
        <ele>923.965576</ele>
        <time>2018-05-26T14:04:37Z</time>
      </trkpt>
      <trkpt lat="47.78662" lon="6.73874">
        <ele>924.105408</ele>
        <time>2018-05-26T14:04:38Z</time>
      </trkpt>
      <trkpt lat="47.78662" lon="6.73877">
        <ele>924.246826</ele>
        <time>2018-05-26T14:04:39Z</time>
      </trkpt>
      <trkpt lat="47.78662" lon="6.73881">
        <ele>924.390442</ele>
        <time>2018-05-26T14:04:40Z</time>
      </trkpt>
      <trkpt lat="47.78663" lon="6.73883">
        <ele>924.539612</ele>
        <time>2018-05-26T14:04:41Z</time>
      </trkpt>
      <trkpt lat="47.78664" lon="6.73886">
        <ele>924.777344</ele>
        <time>2018-05-26T14:04:42Z</time>
      </trkpt>
      <trkpt lat="47.78665" lon="6.73889">
        <ele>924.945801</ele>
        <time>2018-05-26T14:04:43Z</time>
      </trkpt>
      <trkpt lat="47.78666" lon="6.73891">
        <ele>925.120117</ele>
        <time>2018-05-26T14:04:44Z</time>
      </trkpt>
      <trkpt lat="47.78666" lon="6.73894">
        <ele>925.385254</ele>
        <time>2018-05-26T14:04:45Z</time>
      </trkpt>
      <trkpt lat="47.78667" lon="6.73896">
        <ele>925.557678</ele>
        <time>2018-05-26T14:04:46Z</time>
      </trkpt>
      <trkpt lat="47.78668" lon="6.73899">
        <ele>925.719543</ele>
        <time>2018-05-26T14:04:47Z</time>
      </trkpt>
      <trkpt lat="47.78669" lon="6.73901">
        <ele>925.867371</ele>
        <time>2018-05-26T14:04:48Z</time>
      </trkpt>
      <trkpt lat="47.78669" lon="6.73904">
        <ele>925.999695</ele>
        <time>2018-05-26T14:04:49Z</time>
      </trkpt>
      <trkpt lat="47.7867" lon="6.73906">
        <ele>926.181641</ele>
        <time>2018-05-26T14:04:50Z</time>
      </trkpt>
      <trkpt lat="47.78671" lon="6.73909">
        <ele>926.297302</ele>
        <time>2018-05-26T14:04:51Z</time>
      </trkpt>
      <trkpt lat="47.78672" lon="6.73912">
        <ele>926.413391</ele>
        <time>2018-05-26T14:04:52Z</time>
      </trkpt>
      <trkpt lat="47.78672" lon="6.73914">
        <ele>926.534119</ele>
        <time>2018-05-26T14:04:53Z</time>
      </trkpt>
      <trkpt lat="47.78673" lon="6.73916">
        <ele>926.663879</ele>
        <time>2018-05-26T14:04:54Z</time>
      </trkpt>
      <trkpt lat="47.78674" lon="6.73918">
        <ele>926.875183</ele>
        <time>2018-05-26T14:04:55Z</time>
      </trkpt>
      <trkpt lat="47.78674" lon="6.73921">
        <ele>927.02301</ele>
        <time>2018-05-26T14:04:56Z</time>
      </trkpt>
      <trkpt lat="47.78675" lon="6.73923">
        <ele>927.168884</ele>
        <time>2018-05-26T14:04:57Z</time>
      </trkpt>
      <trkpt lat="47.78676" lon="6.73925">
        <ele>927.305603</ele>
        <time>2018-05-26T14:04:58Z</time>
      </trkpt>
      <trkpt lat="47.78677" lon="6.73928">
        <ele>927.42627</ele>
        <time>2018-05-26T14:04:59Z</time>
      </trkpt>
      <trkpt lat="47.78678" lon="6.7393">
        <ele>927.581116</ele>
        <time>2018-05-26T14:05:00Z</time>
      </trkpt>
      <trkpt lat="47.78679" lon="6.73933">
        <ele>927.676941</ele>
        <time>2018-05-26T14:05:01Z</time>
      </trkpt>
      <trkpt lat="47.78679" lon="6.73935">
        <ele>927.774109</ele>
        <time>2018-05-26T14:05:02Z</time>
      </trkpt>
      <trkpt lat="47.78679" lon="6.73938">
        <ele>927.875916</ele>
        <time>2018-05-26T14:05:03Z</time>
      </trkpt>
      <trkpt lat="47.7868" lon="6.7394">
        <ele>928.041748</ele>
        <time>2018-05-26T14:05:04Z</time>
      </trkpt>
      <trkpt lat="47.78681" lon="6.73943">
        <ele>928.167969</ele>
        <time>2018-05-26T14:05:05Z</time>
      </trkpt>
      <trkpt lat="47.78682" lon="6.73945">
        <ele>928.309143</ele>
        <time>2018-05-26T14:05:06Z</time>
      </trkpt>
      <trkpt lat="47.78682" lon="6.73948">
        <ele>928.466492</ele>
        <time>2018-05-26T14:05:07Z</time>
      </trkpt>
      <trkpt lat="47.78682" lon="6.7395">
        <ele>928.726868</ele>
        <time>2018-05-26T14:05:08Z</time>
      </trkpt>
      <trkpt lat="47.78682" lon="6.73952">
        <ele>928.917786</ele>
        <time>2018-05-26T14:05:09Z</time>
      </trkpt>
      <trkpt lat="47.78683" lon="6.73954">
        <ele>929.117188</ele>
        <time>2018-05-26T14:05:10Z</time>
      </trkpt>
      <trkpt lat="47.78684" lon="6.73955">
        <ele>929.315918</ele>
        <time>2018-05-26T14:05:11Z</time>
      </trkpt>
      <trkpt lat="47.78684" lon="6.73957">
        <ele>929.506348</ele>
        <time>2018-05-26T14:05:12Z</time>
      </trkpt>
      <trkpt lat="47.78684" lon="6.73959">
        <ele>929.691406</ele>
        <time>2018-05-26T14:05:13Z</time>
      </trkpt>
      <trkpt lat="47.78684" lon="6.7396">
        <ele>929.880066</ele>
        <time>2018-05-26T14:05:14Z</time>
      </trkpt>
      <trkpt lat="47.78684" lon="6.73962">
        <ele>930.077393</ele>
        <time>2018-05-26T14:05:15Z</time>
      </trkpt>
      <trkpt lat="47.78684" lon="6.73963">
        <ele>930.278625</ele>
        <time>2018-05-26T14:05:16Z</time>
      </trkpt>
      <trkpt lat="47.78685" lon="6.73965">
        <ele>930.484375</ele>
        <time>2018-05-26T14:05:17Z</time>
      </trkpt>
      <trkpt lat="47.78685" lon="6.73967">
        <ele>930.700439</ele>
        <time>2018-05-26T14:05:18Z</time>
      </trkpt>
      <trkpt lat="47.78685" lon="6.73969">
        <ele>930.933289</ele>
        <time>2018-05-26T14:05:19Z</time>
      </trkpt>
      <trkpt lat="47.78685" lon="6.7397">
        <ele>931.177917</ele>
        <time>2018-05-26T14:05:20Z</time>
      </trkpt>
      <trkpt lat="47.78685" lon="6.73972">
        <ele>931.423645</ele>
        <time>2018-05-26T14:05:21Z</time>
      </trkpt>
      <trkpt lat="47.78685" lon="6.73973">
        <ele>931.672058</ele>
        <time>2018-05-26T14:05:22Z</time>
      </trkpt>
      <trkpt lat="47.78685" lon="6.73975">
        <ele>931.923401</ele>
        <time>2018-05-26T14:05:23Z</time>
      </trkpt>
      <trkpt lat="47.78686" lon="6.73977">
        <ele>932.177795</ele>
        <time>2018-05-26T14:05:24Z</time>
      </trkpt>
      <trkpt lat="47.78686" lon="6.73979">
        <ele>932.429138</ele>
        <time>2018-05-26T14:05:25Z</time>
      </trkpt>
      <trkpt lat="47.78686" lon="6.7398">
        <ele>932.678711</ele>
        <time>2018-05-26T14:05:26Z</time>
      </trkpt>
      <trkpt lat="47.78686" lon="6.73982">
        <ele>932.923523</ele>
        <time>2018-05-26T14:05:27Z</time>
      </trkpt>
      <trkpt lat="47.78687" lon="6.73984">
        <ele>933.161316</ele>
        <time>2018-05-26T14:05:28Z</time>
      </trkpt>
      <trkpt lat="47.78686" lon="6.73985">
        <ele>933.387268</ele>
        <time>2018-05-26T14:05:29Z</time>
      </trkpt>
      <trkpt lat="47.78687" lon="6.73987">
        <ele>933.60199</ele>
        <time>2018-05-26T14:05:30Z</time>
      </trkpt>
      <trkpt lat="47.78687" lon="6.73988">
        <ele>933.808411</ele>
        <time>2018-05-26T14:05:31Z</time>
      </trkpt>
      <trkpt lat="47.78687" lon="6.73989">
        <ele>934.113464</ele>
        <time>2018-05-26T14:05:32Z</time>
      </trkpt>
      <trkpt lat="47.78687" lon="6.73991">
        <ele>934.320007</ele>
        <time>2018-05-26T14:05:33Z</time>
      </trkpt>
      <trkpt lat="47.78687" lon="6.73992">
        <ele>934.528564</ele>
        <time>2018-05-26T14:05:34Z</time>
      </trkpt>
      <trkpt lat="47.78688" lon="6.73993">
        <ele>934.744141</ele>
        <time>2018-05-26T14:05:35Z</time>
      </trkpt>
      <trkpt lat="47.78688" lon="6.73994">
        <ele>935.189758</ele>
        <time>2018-05-26T14:05:36Z</time>
      </trkpt>
      <trkpt lat="47.78688" lon="6.73996">
        <ele>935.414063</ele>
        <time>2018-05-26T14:05:38Z</time>
      </trkpt>
      <trkpt lat="47.78688" lon="6.73998">
        <ele>935.637451</ele>
        <time>2018-05-26T14:05:39Z</time>
      </trkpt>
      <trkpt lat="47.78688" lon="6.74">
        <ele>935.856506</ele>
        <time>2018-05-26T14:05:40Z</time>
      </trkpt>
      <trkpt lat="47.78689" lon="6.74001">
        <ele>936.065369</ele>
        <time>2018-05-26T14:05:41Z</time>
      </trkpt>
      <trkpt lat="47.78689" lon="6.74003">
        <ele>936.25885</ele>
        <time>2018-05-26T14:05:42Z</time>
      </trkpt>
      <trkpt lat="47.78689" lon="6.74005">
        <ele>936.526428</ele>
        <time>2018-05-26T14:05:43Z</time>
      </trkpt>
      <trkpt lat="47.78689" lon="6.74007">
        <ele>936.696228</ele>
        <time>2018-05-26T14:05:44Z</time>
      </trkpt>
      <trkpt lat="47.78689" lon="6.74009">
        <ele>936.858459</ele>
        <time>2018-05-26T14:05:45Z</time>
      </trkpt>
      <trkpt lat="47.7869" lon="6.7401">
        <ele>937.009033</ele>
        <time>2018-05-26T14:05:46Z</time>
      </trkpt>
      <trkpt lat="47.7869" lon="6.74011">
        <ele>937.21344</ele>
        <time>2018-05-26T14:05:47Z</time>
      </trkpt>
      <trkpt lat="47.7869" lon="6.74013">
        <ele>937.342285</ele>
        <time>2018-05-26T14:05:48Z</time>
      </trkpt>
      <trkpt lat="47.7869" lon="6.74014">
        <ele>937.468689</ele>
        <time>2018-05-26T14:05:49Z</time>
      </trkpt>
      <trkpt lat="47.78691" lon="6.74017">
        <ele>937.652649</ele>
        <time>2018-05-26T14:05:50Z</time>
      </trkpt>
      <trkpt lat="47.78692" lon="6.74019">
        <ele>937.769348</ele>
        <time>2018-05-26T14:05:51Z</time>
      </trkpt>
      <trkpt lat="47.78692" lon="6.74022">
        <ele>937.885437</ele>
        <time>2018-05-26T14:05:52Z</time>
      </trkpt>
      <trkpt lat="47.78693" lon="6.74024">
        <ele>938.007019</ele>
        <time>2018-05-26T14:05:53Z</time>
      </trkpt>
      <trkpt lat="47.78693" lon="6.74026">
        <ele>938.199768</ele>
        <time>2018-05-26T14:05:54Z</time>
      </trkpt>
      <trkpt lat="47.78694" lon="6.74028">
        <ele>938.325195</ele>
        <time>2018-05-26T14:05:55Z</time>
      </trkpt>
      <trkpt lat="47.78695" lon="6.74029">
        <ele>938.449402</ele>
        <time>2018-05-26T14:05:56Z</time>
      </trkpt>
      <trkpt lat="47.78695" lon="6.74032">
        <ele>938.569641</ele>
        <time>2018-05-26T14:05:57Z</time>
      </trkpt>
      <trkpt lat="47.78696" lon="6.74034">
        <ele>938.688171</ele>
        <time>2018-05-26T14:05:58Z</time>
      </trkpt>
      <trkpt lat="47.78696" lon="6.74036">
        <ele>938.806641</ele>
        <time>2018-05-26T14:05:59Z</time>
      </trkpt>
      <trkpt lat="47.78697" lon="6.74037">
        <ele>938.932922</ele>
        <time>2018-05-26T14:06:00Z</time>
      </trkpt>
      <trkpt lat="47.78698" lon="6.74039">
        <ele>939.151672</ele>
        <time>2018-05-26T14:06:01Z</time>
      </trkpt>
      <trkpt lat="47.78698" lon="6.74041">
        <ele>939.32196</ele>
        <time>2018-05-26T14:06:02Z</time>
      </trkpt>
      <trkpt lat="47.78699" lon="6.74042">
        <ele>939.505615</ele>
        <time>2018-05-26T14:06:03Z</time>
      </trkpt>
      <trkpt lat="47.787" lon="6.74044">
        <ele>939.694153</ele>
        <time>2018-05-26T14:06:04Z</time>
      </trkpt>
      <trkpt lat="47.787" lon="6.74046">
        <ele>939.883484</ele>
        <time>2018-05-26T14:06:05Z</time>
      </trkpt>
      <trkpt lat="47.78701" lon="6.74048">
        <ele>940.074768</ele>
        <time>2018-05-26T14:06:06Z</time>
      </trkpt>
      <trkpt lat="47.78701" lon="6.74049">
        <ele>940.266541</ele>
        <time>2018-05-26T14:06:07Z</time>
      </trkpt>
      <trkpt lat="47.78701" lon="6.74051">
        <ele>940.453796</ele>
        <time>2018-05-26T14:06:08Z</time>
      </trkpt>
      <trkpt lat="47.78701" lon="6.74053">
        <ele>940.635681</ele>
        <time>2018-05-26T14:06:09Z</time>
      </trkpt>
      <trkpt lat="47.78701" lon="6.74055">
        <ele>940.911438</ele>
        <time>2018-05-26T14:06:10Z</time>
      </trkpt>
      <trkpt lat="47.78702" lon="6.74056">
        <ele>941.1026</ele>
        <time>2018-05-26T14:06:11Z</time>
      </trkpt>
      <trkpt lat="47.78703" lon="6.74057">
        <ele>941.581116</ele>
        <time>2018-05-26T14:06:12Z</time>
      </trkpt>
      <trkpt lat="47.78704" lon="6.74059">
        <ele>941.754883</ele>
        <time>2018-05-26T14:06:14Z</time>
      </trkpt>
      <trkpt lat="47.78705" lon="6.74062">
        <ele>941.916748</ele>
        <time>2018-05-26T14:06:15Z</time>
      </trkpt>
      <trkpt lat="47.78705" lon="6.74064">
        <ele>942.074463</ele>
        <time>2018-05-26T14:06:16Z</time>
      </trkpt>
      <trkpt lat="47.78706" lon="6.74066">
        <ele>942.229309</ele>
        <time>2018-05-26T14:06:17Z</time>
      </trkpt>
      <trkpt lat="47.78706" lon="6.74067">
        <ele>942.38501</ele>
        <time>2018-05-26T14:06:18Z</time>
      </trkpt>
      <trkpt lat="47.78706" lon="6.74069">
        <ele>942.547058</ele>
        <time>2018-05-26T14:06:19Z</time>
      </trkpt>
      <trkpt lat="47.78706" lon="6.7407">
        <ele>942.723572</ele>
        <time>2018-05-26T14:06:20Z</time>
      </trkpt>
      <trkpt lat="47.78707" lon="6.74072">
        <ele>942.918213</ele>
        <time>2018-05-26T14:06:21Z</time>
      </trkpt>
      <trkpt lat="47.78708" lon="6.74074">
        <ele>943.127014</ele>
        <time>2018-05-26T14:06:22Z</time>
      </trkpt>
      <trkpt lat="47.78708" lon="6.74075">
        <ele>943.345154</ele>
        <time>2018-05-26T14:06:23Z</time>
      </trkpt>
      <trkpt lat="47.78709" lon="6.74077">
        <ele>943.565857</ele>
        <time>2018-05-26T14:06:24Z</time>
      </trkpt>
      <trkpt lat="47.78709" lon="6.74079">
        <ele>943.788147</ele>
        <time>2018-05-26T14:06:25Z</time>
      </trkpt>
      <trkpt lat="47.78709" lon="6.7408">
        <ele>944.012695</ele>
        <time>2018-05-26T14:06:26Z</time>
      </trkpt>
      <trkpt lat="47.78708" lon="6.74081">
        <ele>944.579041</ele>
        <time>2018-05-26T14:06:27Z</time>
      </trkpt>
      <trkpt lat="47.78708" lon="6.74082">
        <ele>944.809875</ele>
        <time>2018-05-26T14:06:29Z</time>
      </trkpt>
      <trkpt lat="47.78708" lon="6.74083">
        <ele>945.052551</ele>
        <time>2018-05-26T14:06:30Z</time>
      </trkpt>
      <trkpt lat="47.78708" lon="6.74084">
        <ele>945.425964</ele>
        <time>2018-05-26T14:06:31Z</time>
      </trkpt>
      <trkpt lat="47.78709" lon="6.74086">
        <ele>945.664978</ele>
        <time>2018-05-26T14:06:32Z</time>
      </trkpt>
      <trkpt lat="47.78709" lon="6.74088">
        <ele>945.887878</ele>
        <time>2018-05-26T14:06:33Z</time>
      </trkpt>
      <trkpt lat="47.78709" lon="6.74089">
        <ele>946.097961</ele>
        <time>2018-05-26T14:06:34Z</time>
      </trkpt>
      <trkpt lat="47.78709" lon="6.74092">
        <ele>946.295593</ele>
        <time>2018-05-26T14:06:35Z</time>
      </trkpt>
      <trkpt lat="47.78709" lon="6.74094">
        <ele>946.48175</ele>
        <time>2018-05-26T14:06:36Z</time>
      </trkpt>
      <trkpt lat="47.78709" lon="6.74096">
        <ele>946.570984</ele>
        <time>2018-05-26T14:06:37Z</time>
      </trkpt>
      <trkpt lat="47.78709" lon="6.74097">
        <ele>946.65802</ele>
        <time>2018-05-26T14:06:38Z</time>
      </trkpt>
      <trkpt lat="47.78708" lon="6.74099">
        <ele>946.831787</ele>
        <time>2018-05-26T14:06:39Z</time>
      </trkpt>
      <trkpt lat="47.78708" lon="6.74101">
        <ele>947.013428</ele>
        <time>2018-05-26T14:06:40Z</time>
      </trkpt>
      <trkpt lat="47.78708" lon="6.74102">
        <ele>947.315918</ele>
        <time>2018-05-26T14:06:41Z</time>
      </trkpt>
      <trkpt lat="47.78708" lon="6.74104">
        <ele>947.536438</ele>
        <time>2018-05-26T14:06:42Z</time>
      </trkpt>
      <trkpt lat="47.78708" lon="6.74105">
        <ele>947.76239</ele>
        <time>2018-05-26T14:06:43Z</time>
      </trkpt>
      <trkpt lat="47.78708" lon="6.74107">
        <ele>948.095215</ele>
        <time>2018-05-26T14:06:44Z</time>
      </trkpt>
      <trkpt lat="47.78708" lon="6.74109">
        <ele>948.309143</ele>
        <time>2018-05-26T14:06:45Z</time>
      </trkpt>
      <trkpt lat="47.78708" lon="6.74111">
        <ele>948.513</ele>
        <time>2018-05-26T14:06:46Z</time>
      </trkpt>
      <trkpt lat="47.78708" lon="6.74113">
        <ele>948.706726</ele>
        <time>2018-05-26T14:06:47Z</time>
      </trkpt>
      <trkpt lat="47.78708" lon="6.74115">
        <ele>948.978943</ele>
        <time>2018-05-26T14:06:48Z</time>
      </trkpt>
      <trkpt lat="47.78708" lon="6.74117">
        <ele>949.15741</ele>
        <time>2018-05-26T14:06:49Z</time>
      </trkpt>
      <trkpt lat="47.78708" lon="6.74119">
        <ele>949.338074</ele>
        <time>2018-05-26T14:06:50Z</time>
      </trkpt>
      <trkpt lat="47.78708" lon="6.74121">
        <ele>949.524475</ele>
        <time>2018-05-26T14:06:51Z</time>
      </trkpt>
      <trkpt lat="47.78709" lon="6.74122">
        <ele>949.71582</ele>
        <time>2018-05-26T14:06:52Z</time>
      </trkpt>
      <trkpt lat="47.78709" lon="6.74124">
        <ele>949.909363</ele>
        <time>2018-05-26T14:06:53Z</time>
      </trkpt>
      <trkpt lat="47.7871" lon="6.74125">
        <ele>950.418457</ele>
        <time>2018-05-26T14:06:54Z</time>
      </trkpt>
      <trkpt lat="47.7871" lon="6.74127">
        <ele>950.634277</ele>
        <time>2018-05-26T14:06:56Z</time>
      </trkpt>
      <trkpt lat="47.78711" lon="6.74129">
        <ele>950.853088</ele>
        <time>2018-05-26T14:06:57Z</time>
      </trkpt>
      <trkpt lat="47.78711" lon="6.74131">
        <ele>951.073425</ele>
        <time>2018-05-26T14:06:58Z</time>
      </trkpt>
      <trkpt lat="47.78712" lon="6.74133">
        <ele>951.288391</ele>
        <time>2018-05-26T14:06:59Z</time>
      </trkpt>
      <trkpt lat="47.78713" lon="6.74135">
        <ele>951.493713</ele>
        <time>2018-05-26T14:07:00Z</time>
      </trkpt>
      <trkpt lat="47.78713" lon="6.74137">
        <ele>951.692078</ele>
        <time>2018-05-26T14:07:01Z</time>
      </trkpt>
      <trkpt lat="47.78713" lon="6.74139">
        <ele>951.99884</ele>
        <time>2018-05-26T14:07:02Z</time>
      </trkpt>
      <trkpt lat="47.78714" lon="6.74141">
        <ele>952.217224</ele>
        <time>2018-05-26T14:07:03Z</time>
      </trkpt>
      <trkpt lat="47.78714" lon="6.74142">
        <ele>952.686523</ele>
        <time>2018-05-26T14:07:04Z</time>
      </trkpt>
      <trkpt lat="47.78714" lon="6.74144">
        <ele>952.932617</ele>
        <time>2018-05-26T14:07:06Z</time>
      </trkpt>
      <trkpt lat="47.78714" lon="6.74145">
        <ele>953.172791</ele>
        <time>2018-05-26T14:07:07Z</time>
      </trkpt>
      <trkpt lat="47.78715" lon="6.74147">
        <ele>953.402161</ele>
        <time>2018-05-26T14:07:08Z</time>
      </trkpt>
      <trkpt lat="47.78716" lon="6.74148">
        <ele>953.911316</ele>
        <time>2018-05-26T14:07:09Z</time>
      </trkpt>
      <trkpt lat="47.78717" lon="6.74149">
        <ele>954.088684</ele>
        <time>2018-05-26T14:07:11Z</time>
      </trkpt>
      <trkpt lat="47.78717" lon="6.74151">
        <ele>954.257385</ele>
        <time>2018-05-26T14:07:12Z</time>
      </trkpt>
      <trkpt lat="47.78718" lon="6.74155">
        <ele>954.42749</ele>
        <time>2018-05-26T14:07:13Z</time>
      </trkpt>
      <trkpt lat="47.78718" lon="6.74157">
        <ele>954.697327</ele>
        <time>2018-05-26T14:07:14Z</time>
      </trkpt>
      <trkpt lat="47.78719" lon="6.7416">
        <ele>954.89447</ele>
        <time>2018-05-26T14:07:15Z</time>
      </trkpt>
      <trkpt lat="47.78719" lon="6.74162">
        <ele>955.100769</ele>
        <time>2018-05-26T14:07:16Z</time>
      </trkpt>
      <trkpt lat="47.7872" lon="6.74165">
        <ele>955.310547</ele>
        <time>2018-05-26T14:07:17Z</time>
      </trkpt>
      <trkpt lat="47.78721" lon="6.74168">
        <ele>955.626221</ele>
        <time>2018-05-26T14:07:18Z</time>
      </trkpt>
      <trkpt lat="47.78722" lon="6.74171">
        <ele>955.841248</ele>
        <time>2018-05-26T14:07:19Z</time>
      </trkpt>
      <trkpt lat="47.78722" lon="6.74174">
        <ele>956.055725</ele>
        <time>2018-05-26T14:07:20Z</time>
      </trkpt>
      <trkpt lat="47.78724" lon="6.74176">
        <ele>956.270081</ele>
        <time>2018-05-26T14:07:21Z</time>
      </trkpt>
      <trkpt lat="47.78724" lon="6.74178">
        <ele>956.482605</ele>
        <time>2018-05-26T14:07:22Z</time>
      </trkpt>
      <trkpt lat="47.78725" lon="6.7418">
        <ele>956.697937</ele>
        <time>2018-05-26T14:07:23Z</time>
      </trkpt>
      <trkpt lat="47.78726" lon="6.74182">
        <ele>956.910339</ele>
        <time>2018-05-26T14:07:24Z</time>
      </trkpt>
      <trkpt lat="47.78727" lon="6.74184">
        <ele>957.118347</ele>
        <time>2018-05-26T14:07:25Z</time>
      </trkpt>
      <trkpt lat="47.78727" lon="6.74186">
        <ele>957.318542</ele>
        <time>2018-05-26T14:07:26Z</time>
      </trkpt>
      <trkpt lat="47.78728" lon="6.74188">
        <ele>957.50885</ele>
        <time>2018-05-26T14:07:27Z</time>
      </trkpt>
      <trkpt lat="47.78729" lon="6.7419">
        <ele>957.692871</ele>
        <time>2018-05-26T14:07:28Z</time>
      </trkpt>
      <trkpt lat="47.78729" lon="6.74191">
        <ele>958.138733</ele>
        <time>2018-05-26T14:07:29Z</time>
      </trkpt>
      <trkpt lat="47.7873" lon="6.74193">
        <ele>958.30835</ele>
        <time>2018-05-26T14:07:31Z</time>
      </trkpt>
      <trkpt lat="47.78731" lon="6.74195">
        <ele>958.472656</ele>
        <time>2018-05-26T14:07:32Z</time>
      </trkpt>
      <trkpt lat="47.78732" lon="6.74196">
        <ele>958.635803</ele>
        <time>2018-05-26T14:07:33Z</time>
      </trkpt>
      <trkpt lat="47.78734" lon="6.74198">
        <ele>958.801086</ele>
        <time>2018-05-26T14:07:34Z</time>
      </trkpt>
      <trkpt lat="47.78734" lon="6.742">
        <ele>958.97583</ele>
        <time>2018-05-26T14:07:35Z</time>
      </trkpt>
      <trkpt lat="47.78736" lon="6.74202">
        <ele>959.153992</ele>
        <time>2018-05-26T14:07:36Z</time>
      </trkpt>
      <trkpt lat="47.78737" lon="6.74203">
        <ele>959.424988</ele>
        <time>2018-05-26T14:07:37Z</time>
      </trkpt>
      <trkpt lat="47.78738" lon="6.74205">
        <ele>959.514465</ele>
        <time>2018-05-26T14:07:38Z</time>
      </trkpt>
      <trkpt lat="47.78739" lon="6.74207">
        <ele>959.605164</ele>
        <time>2018-05-26T14:07:39Z</time>
      </trkpt>
      <trkpt lat="47.7874" lon="6.74207">
        <ele>959.786133</ele>
        <time>2018-05-26T14:07:40Z</time>
      </trkpt>
      <trkpt lat="47.7874" lon="6.74208">
        <ele>959.960266</ele>
        <time>2018-05-26T14:07:41Z</time>
      </trkpt>
      <trkpt lat="47.7874" lon="6.7421">
        <ele>960.127625</ele>
        <time>2018-05-26T14:07:42Z</time>
      </trkpt>
      <trkpt lat="47.78742" lon="6.74212">
        <ele>960.371521</ele>
        <time>2018-05-26T14:07:43Z</time>
      </trkpt>
      <trkpt lat="47.78743" lon="6.74214">
        <ele>960.541443</ele>
        <time>2018-05-26T14:07:44Z</time>
      </trkpt>
      <trkpt lat="47.78744" lon="6.74217">
        <ele>960.718933</ele>
        <time>2018-05-26T14:07:45Z</time>
      </trkpt>
      <trkpt lat="47.78745" lon="6.74219">
        <ele>960.901062</ele>
        <time>2018-05-26T14:07:46Z</time>
      </trkpt>
      <trkpt lat="47.78746" lon="6.74222">
        <ele>961.090271</ele>
        <time>2018-05-26T14:07:47Z</time>
      </trkpt>
      <trkpt lat="47.78747" lon="6.74224">
        <ele>961.4021</ele>
        <time>2018-05-26T14:07:48Z</time>
      </trkpt>
      <trkpt lat="47.78748" lon="6.74226">
        <ele>961.63092</ele>
        <time>2018-05-26T14:07:49Z</time>
      </trkpt>
      <trkpt lat="47.78749" lon="6.74228">
        <ele>961.863831</ele>
        <time>2018-05-26T14:07:50Z</time>
      </trkpt>
      <trkpt lat="47.7875" lon="6.74231">
        <ele>962.089783</ele>
        <time>2018-05-26T14:07:51Z</time>
      </trkpt>
      <trkpt lat="47.7875" lon="6.74233">
        <ele>962.302673</ele>
        <time>2018-05-26T14:07:52Z</time>
      </trkpt>
      <trkpt lat="47.78751" lon="6.74235">
        <ele>962.503723</ele>
        <time>2018-05-26T14:07:53Z</time>
      </trkpt>
      <trkpt lat="47.78753" lon="6.74238">
        <ele>962.781433</ele>
        <time>2018-05-26T14:07:54Z</time>
      </trkpt>
      <trkpt lat="47.78753" lon="6.7424">
        <ele>962.950928</ele>
        <time>2018-05-26T14:07:55Z</time>
      </trkpt>
      <trkpt lat="47.78755" lon="6.74242">
        <ele>963.10968</ele>
        <time>2018-05-26T14:07:56Z</time>
      </trkpt>
      <trkpt lat="47.78756" lon="6.74244">
        <ele>963.265076</ele>
        <time>2018-05-26T14:07:57Z</time>
      </trkpt>
      <trkpt lat="47.78758" lon="6.74246">
        <ele>963.507751</ele>
        <time>2018-05-26T14:07:58Z</time>
      </trkpt>
      <trkpt lat="47.78759" lon="6.74248">
        <ele>963.669128</ele>
        <time>2018-05-26T14:07:59Z</time>
      </trkpt>
      <trkpt lat="47.7876" lon="6.7425">
        <ele>963.823242</ele>
        <time>2018-05-26T14:08:00Z</time>
      </trkpt>
      <trkpt lat="47.78761" lon="6.74251">
        <ele>964.172424</ele>
        <time>2018-05-26T14:08:01Z</time>
      </trkpt>
      <trkpt lat="47.78762" lon="6.74253">
        <ele>964.312256</ele>
        <time>2018-05-26T14:08:03Z</time>
      </trkpt>
      <trkpt lat="47.78763" lon="6.74255">
        <ele>964.456238</ele>
        <time>2018-05-26T14:08:04Z</time>
      </trkpt>
      <trkpt lat="47.78765" lon="6.74257">
        <ele>964.664856</ele>
        <time>2018-05-26T14:08:05Z</time>
      </trkpt>
      <trkpt lat="47.78766" lon="6.74259">
        <ele>964.803162</ele>
        <time>2018-05-26T14:08:06Z</time>
      </trkpt>
      <trkpt lat="47.78767" lon="6.7426">
        <ele>964.947021</ele>
        <time>2018-05-26T14:08:07Z</time>
      </trkpt>
      <trkpt lat="47.78768" lon="6.74262">
        <ele>965.103577</ele>
        <time>2018-05-26T14:08:08Z</time>
      </trkpt>
      <trkpt lat="47.78769" lon="6.74264">
        <ele>965.363037</ele>
        <time>2018-05-26T14:08:09Z</time>
      </trkpt>
      <trkpt lat="47.7877" lon="6.74266">
        <ele>965.549622</ele>
        <time>2018-05-26T14:08:10Z</time>
      </trkpt>
      <trkpt lat="47.78771" lon="6.74267">
        <ele>965.747009</ele>
        <time>2018-05-26T14:08:11Z</time>
      </trkpt>
      <trkpt lat="47.78773" lon="6.74268">
        <ele>965.95343</ele>
        <time>2018-05-26T14:08:12Z</time>
      </trkpt>
      <trkpt lat="47.78774" lon="6.7427">
        <ele>966.274902</ele>
        <time>2018-05-26T14:08:13Z</time>
      </trkpt>
      <trkpt lat="47.78775" lon="6.74271">
        <ele>966.489075</ele>
        <time>2018-05-26T14:08:14Z</time>
      </trkpt>
      <trkpt lat="47.78776" lon="6.74273">
        <ele>966.70282</ele>
        <time>2018-05-26T14:08:15Z</time>
      </trkpt>
      <trkpt lat="47.78777" lon="6.74275">
        <ele>966.919922</ele>
        <time>2018-05-26T14:08:16Z</time>
      </trkpt>
      <trkpt lat="47.78778" lon="6.74277">
        <ele>967.139587</ele>
        <time>2018-05-26T14:08:17Z</time>
      </trkpt>
      <trkpt lat="47.78779" lon="6.74279">
        <ele>967.467224</ele>
        <time>2018-05-26T14:08:18Z</time>
      </trkpt>
      <trkpt lat="47.7878" lon="6.7428">
        <ele>967.6828</ele>
        <time>2018-05-26T14:08:19Z</time>
      </trkpt>
      <trkpt lat="47.78782" lon="6.74282">
        <ele>967.89209</ele>
        <time>2018-05-26T14:08:20Z</time>
      </trkpt>
      <trkpt lat="47.78783" lon="6.74283">
        <ele>968.187317</ele>
        <time>2018-05-26T14:08:21Z</time>
      </trkpt>
      <trkpt lat="47.78783" lon="6.74285">
        <ele>968.368164</ele>
        <time>2018-05-26T14:08:22Z</time>
      </trkpt>
      <trkpt lat="47.78784" lon="6.74286">
        <ele>968.536865</ele>
        <time>2018-05-26T14:08:23Z</time>
      </trkpt>
      <trkpt lat="47.78785" lon="6.74288">
        <ele>968.696533</ele>
        <time>2018-05-26T14:08:24Z</time>
      </trkpt>
      <trkpt lat="47.78785" lon="6.74289">
        <ele>968.852356</ele>
        <time>2018-05-26T14:08:25Z</time>
      </trkpt>
      <trkpt lat="47.78787" lon="6.7429">
        <ele>969.007996</ele>
        <time>2018-05-26T14:08:26Z</time>
      </trkpt>
      <trkpt lat="47.78788" lon="6.74291">
        <ele>969.409668</ele>
        <time>2018-05-26T14:08:27Z</time>
      </trkpt>
      <trkpt lat="47.78788" lon="6.74293">
        <ele>969.581848</ele>
        <time>2018-05-26T14:08:29Z</time>
      </trkpt>
      <trkpt lat="47.7879" lon="6.74295">
        <ele>969.762695</ele>
        <time>2018-05-26T14:08:30Z</time>
      </trkpt>
      <trkpt lat="47.78791" lon="6.74297">
        <ele>970.044189</ele>
        <time>2018-05-26T14:08:31Z</time>
      </trkpt>
      <trkpt lat="47.78792" lon="6.74299">
        <ele>970.231934</ele>
        <time>2018-05-26T14:08:32Z</time>
      </trkpt>
      <trkpt lat="47.78792" lon="6.74299">
        <ele>970.711609</ele>
        <time>2018-05-26T14:08:33Z</time>
      </trkpt>
      <trkpt lat="47.78793" lon="6.74301">
        <ele>970.908752</ele>
        <time>2018-05-26T14:08:35Z</time>
      </trkpt>
      <trkpt lat="47.78794" lon="6.74303">
        <ele>971.10376</ele>
        <time>2018-05-26T14:08:36Z</time>
      </trkpt>
      <trkpt lat="47.78796" lon="6.74305">
        <ele>971.397217</ele>
        <time>2018-05-26T14:08:37Z</time>
      </trkpt>
      <trkpt lat="47.78796" lon="6.74307">
        <ele>971.599304</ele>
        <time>2018-05-26T14:08:38Z</time>
      </trkpt>
      <trkpt lat="47.78797" lon="6.74309">
        <ele>971.702454</ele>
        <time>2018-05-26T14:08:39Z</time>
      </trkpt>
      <trkpt lat="47.78798" lon="6.74311">
        <ele>971.806152</ele>
        <time>2018-05-26T14:08:40Z</time>
      </trkpt>
      <trkpt lat="47.78798" lon="6.74312">
        <ele>972.336121</ele>
        <time>2018-05-26T14:08:41Z</time>
      </trkpt>
      <trkpt lat="47.78799" lon="6.74313">
        <ele>972.777649</ele>
        <time>2018-05-26T14:08:43Z</time>
      </trkpt>
      <trkpt lat="47.788" lon="6.74315">
        <ele>973.104675</ele>
        <time>2018-05-26T14:08:45Z</time>
      </trkpt>
      <trkpt lat="47.78802" lon="6.74317">
        <ele>973.321716</ele>
        <time>2018-05-26T14:08:46Z</time>
      </trkpt>
      <trkpt lat="47.78803" lon="6.74319">
        <ele>973.541992</ele>
        <time>2018-05-26T14:08:47Z</time>
      </trkpt>
      <trkpt lat="47.78804" lon="6.7432">
        <ele>973.768066</ele>
        <time>2018-05-26T14:08:48Z</time>
      </trkpt>
      <trkpt lat="47.78804" lon="6.74322">
        <ele>974.115295</ele>
        <time>2018-05-26T14:08:49Z</time>
      </trkpt>
      <trkpt lat="47.78805" lon="6.74325">
        <ele>974.352722</ele>
        <time>2018-05-26T14:08:50Z</time>
      </trkpt>
      <trkpt lat="47.78806" lon="6.74328">
        <ele>974.590271</ele>
        <time>2018-05-26T14:08:51Z</time>
      </trkpt>
      <trkpt lat="47.78807" lon="6.7433">
        <ele>974.826965</ele>
        <time>2018-05-26T14:08:52Z</time>
      </trkpt>
      <trkpt lat="47.78809" lon="6.74333">
        <ele>975.066895</ele>
        <time>2018-05-26T14:08:53Z</time>
      </trkpt>
      <trkpt lat="47.7881" lon="6.74335">
        <ele>975.314392</ele>
        <time>2018-05-26T14:08:54Z</time>
      </trkpt>
      <trkpt lat="47.78811" lon="6.74337">
        <ele>975.569763</ele>
        <time>2018-05-26T14:08:55Z</time>
      </trkpt>
      <trkpt lat="47.78811" lon="6.74339">
        <ele>975.836121</ele>
        <time>2018-05-26T14:08:56Z</time>
      </trkpt>
      <trkpt lat="47.78812" lon="6.74341">
        <ele>976.269226</ele>
        <time>2018-05-26T14:08:57Z</time>
      </trkpt>
      <trkpt lat="47.78812" lon="6.74344">
        <ele>976.575195</ele>
        <time>2018-05-26T14:08:58Z</time>
      </trkpt>
      <trkpt lat="47.78813" lon="6.74346">
        <ele>976.879333</ele>
        <time>2018-05-26T14:08:59Z</time>
      </trkpt>
      <trkpt lat="47.78814" lon="6.74348">
        <ele>977.171326</ele>
        <time>2018-05-26T14:09:00Z</time>
      </trkpt>
      <trkpt lat="47.78815" lon="6.7435">
        <ele>977.447083</ele>
        <time>2018-05-26T14:09:01Z</time>
      </trkpt>
      <trkpt lat="47.78816" lon="6.74352">
        <ele>977.703186</ele>
        <time>2018-05-26T14:09:02Z</time>
      </trkpt>
      <trkpt lat="47.78816" lon="6.74354">
        <ele>977.93988</ele>
        <time>2018-05-26T14:09:03Z</time>
      </trkpt>
      <trkpt lat="47.78816" lon="6.74356">
        <ele>978.162781</ele>
        <time>2018-05-26T14:09:04Z</time>
      </trkpt>
      <trkpt lat="47.78816" lon="6.74357">
        <ele>978.591003</ele>
        <time>2018-05-26T14:09:05Z</time>
      </trkpt>
      <trkpt lat="47.78817" lon="6.74358">
        <ele>979.10199</ele>
        <time>2018-05-26T14:09:07Z</time>
      </trkpt>
      <trkpt lat="47.78817" lon="6.7436">
        <ele>979.298157</ele>
        <time>2018-05-26T14:09:09Z</time>
      </trkpt>
      <trkpt lat="47.78817" lon="6.74362">
        <ele>979.487061</ele>
        <time>2018-05-26T14:09:10Z</time>
      </trkpt>
      <trkpt lat="47.78817" lon="6.74364">
        <ele>979.668396</ele>
        <time>2018-05-26T14:09:11Z</time>
      </trkpt>
      <trkpt lat="47.78818" lon="6.74365">
        <ele>979.846436</ele>
        <time>2018-05-26T14:09:12Z</time>
      </trkpt>
      <trkpt lat="47.78818" lon="6.74367">
        <ele>980.027039</ele>
        <time>2018-05-26T14:09:13Z</time>
      </trkpt>
      <trkpt lat="47.78819" lon="6.74369">
        <ele>980.21167</ele>
        <time>2018-05-26T14:09:14Z</time>
      </trkpt>
      <trkpt lat="47.78819" lon="6.74371">
        <ele>980.400696</ele>
        <time>2018-05-26T14:09:15Z</time>
      </trkpt>
      <trkpt lat="47.78819" lon="6.74373">
        <ele>980.585388</ele>
        <time>2018-05-26T14:09:16Z</time>
      </trkpt>
      <trkpt lat="47.7882" lon="6.74375">
        <ele>980.767517</ele>
        <time>2018-05-26T14:09:17Z</time>
      </trkpt>
      <trkpt lat="47.7882" lon="6.74377">
        <ele>980.946045</ele>
        <time>2018-05-26T14:09:18Z</time>
      </trkpt>
      <trkpt lat="47.7882" lon="6.74379">
        <ele>981.214111</ele>
        <time>2018-05-26T14:09:19Z</time>
      </trkpt>
      <trkpt lat="47.78821" lon="6.7438">
        <ele>981.392151</ele>
        <time>2018-05-26T14:09:20Z</time>
      </trkpt>
      <trkpt lat="47.78821" lon="6.74382">
        <ele>981.572571</ele>
        <time>2018-05-26T14:09:21Z</time>
      </trkpt>
      <trkpt lat="47.78822" lon="6.74384">
        <ele>981.753845</ele>
        <time>2018-05-26T14:09:22Z</time>
      </trkpt>
      <trkpt lat="47.78822" lon="6.74386">
        <ele>981.937439</ele>
        <time>2018-05-26T14:09:23Z</time>
      </trkpt>
      <trkpt lat="47.78822" lon="6.74388">
        <ele>982.12262</ele>
        <time>2018-05-26T14:09:24Z</time>
      </trkpt>
      <trkpt lat="47.78823" lon="6.7439">
        <ele>982.41095</ele>
        <time>2018-05-26T14:09:25Z</time>
      </trkpt>
      <trkpt lat="47.78823" lon="6.74392">
        <ele>982.609375</ele>
        <time>2018-05-26T14:09:26Z</time>
      </trkpt>
      <trkpt lat="47.78824" lon="6.74395">
        <ele>982.815491</ele>
        <time>2018-05-26T14:09:27Z</time>
      </trkpt>
      <trkpt lat="47.78824" lon="6.74397">
        <ele>983.144348</ele>
        <time>2018-05-26T14:09:28Z</time>
      </trkpt>
      <trkpt lat="47.78824" lon="6.74398">
        <ele>983.380859</ele>
        <time>2018-05-26T14:09:29Z</time>
      </trkpt>
      <trkpt lat="47.78824" lon="6.744">
        <ele>983.626282</ele>
        <time>2018-05-26T14:09:30Z</time>
      </trkpt>
      <trkpt lat="47.78825" lon="6.74402">
        <ele>983.873718</ele>
        <time>2018-05-26T14:09:31Z</time>
      </trkpt>
      <trkpt lat="47.78825" lon="6.74402">
        <ele>984.228271</ele>
        <time>2018-05-26T14:09:32Z</time>
      </trkpt>
      <trkpt lat="47.78825" lon="6.74404">
        <ele>984.44342</ele>
        <time>2018-05-26T14:09:33Z</time>
      </trkpt>
      <trkpt lat="47.78826" lon="6.74405">
        <ele>984.639221</ele>
        <time>2018-05-26T14:09:34Z</time>
      </trkpt>
      <trkpt lat="47.78826" lon="6.74407">
        <ele>984.820984</ele>
        <time>2018-05-26T14:09:35Z</time>
      </trkpt>
      <trkpt lat="47.78826" lon="6.74408">
        <ele>984.998718</ele>
        <time>2018-05-26T14:09:36Z</time>
      </trkpt>
      <trkpt lat="47.78826" lon="6.7441">
        <ele>985.178406</ele>
        <time>2018-05-26T14:09:37Z</time>
      </trkpt>
      <trkpt lat="47.78825" lon="6.74424">
        <ele>987.861328</ele>
        <time>2018-05-26T14:10:14Z</time>
      </trkpt>
      <trkpt lat="47.78825" lon="6.74427">
        <ele>987.980469</ele>
        <time>2018-05-26T14:10:16Z</time>
      </trkpt>
      <trkpt lat="47.78825" lon="6.74429">
        <ele>988.172424</ele>
        <time>2018-05-26T14:10:17Z</time>
      </trkpt>
      <trkpt lat="47.78824" lon="6.74431">
        <ele>988.306946</ele>
        <time>2018-05-26T14:10:18Z</time>
      </trkpt>
      <trkpt lat="47.78824" lon="6.74434">
        <ele>988.443542</ele>
        <time>2018-05-26T14:10:19Z</time>
      </trkpt>
      <trkpt lat="47.78825" lon="6.74436">
        <ele>988.644043</ele>
        <time>2018-05-26T14:10:20Z</time>
      </trkpt>
      <trkpt lat="47.78825" lon="6.74439">
        <ele>988.779541</ele>
        <time>2018-05-26T14:10:21Z</time>
      </trkpt>
      <trkpt lat="47.78825" lon="6.74441">
        <ele>988.924377</ele>
        <time>2018-05-26T14:10:22Z</time>
      </trkpt>
      <trkpt lat="47.78825" lon="6.74444">
        <ele>989.087097</ele>
        <time>2018-05-26T14:10:23Z</time>
      </trkpt>
      <trkpt lat="47.78825" lon="6.74446">
        <ele>989.270325</ele>
        <time>2018-05-26T14:10:24Z</time>
      </trkpt>
      <trkpt lat="47.78825" lon="6.74448">
        <ele>989.472595</ele>
        <time>2018-05-26T14:10:25Z</time>
      </trkpt>
      <trkpt lat="47.78825" lon="6.7445">
        <ele>989.687561</ele>
        <time>2018-05-26T14:10:26Z</time>
      </trkpt>
      <trkpt lat="47.78825" lon="6.74453">
        <ele>990.015564</ele>
        <time>2018-05-26T14:10:27Z</time>
      </trkpt>
      <trkpt lat="47.78824" lon="6.74455">
        <ele>990.234436</ele>
        <time>2018-05-26T14:10:28Z</time>
      </trkpt>
      <trkpt lat="47.78824" lon="6.74457">
        <ele>990.455383</ele>
        <time>2018-05-26T14:10:29Z</time>
      </trkpt>
      <trkpt lat="47.78824" lon="6.74459">
        <ele>990.677185</ele>
        <time>2018-05-26T14:10:30Z</time>
      </trkpt>
      <trkpt lat="47.78823" lon="6.74461">
        <ele>990.895081</ele>
        <time>2018-05-26T14:10:31Z</time>
      </trkpt>
      <trkpt lat="47.78822" lon="6.74462">
        <ele>991.10907</ele>
        <time>2018-05-26T14:10:32Z</time>
      </trkpt>
      <trkpt lat="47.78822" lon="6.74464">
        <ele>991.321289</ele>
        <time>2018-05-26T14:10:33Z</time>
      </trkpt>
      <trkpt lat="47.78822" lon="6.74465">
        <ele>991.532166</ele>
        <time>2018-05-26T14:10:34Z</time>
      </trkpt>
      <trkpt lat="47.78822" lon="6.74467">
        <ele>991.738953</ele>
        <time>2018-05-26T14:10:35Z</time>
      </trkpt>
      <trkpt lat="47.78822" lon="6.74468">
        <ele>991.940918</ele>
        <time>2018-05-26T14:10:36Z</time>
      </trkpt>
      <trkpt lat="47.78822" lon="6.74469">
        <ele>992.143372</ele>
        <time>2018-05-26T14:10:37Z</time>
      </trkpt>
      <trkpt lat="47.78823" lon="6.74471">
        <ele>992.355957</ele>
        <time>2018-05-26T14:10:38Z</time>
      </trkpt>
      <trkpt lat="47.78822" lon="6.74486">
        <ele>994.879639</ele>
        <time>2018-05-26T14:10:47Z</time>
      </trkpt>
      <trkpt lat="47.78821" lon="6.74488">
        <ele>995.167053</ele>
        <time>2018-05-26T14:10:49Z</time>
      </trkpt>
      <trkpt lat="47.7882" lon="6.7449">
        <ele>995.440247</ele>
        <time>2018-05-26T14:10:50Z</time>
      </trkpt>
      <trkpt lat="47.78821" lon="6.74491">
        <ele>995.698303</ele>
        <time>2018-05-26T14:10:51Z</time>
      </trkpt>
      <trkpt lat="47.78821" lon="6.74493">
        <ele>995.949036</ele>
        <time>2018-05-26T14:10:52Z</time>
      </trkpt>
      <trkpt lat="47.78821" lon="6.74495">
        <ele>996.204346</ele>
        <time>2018-05-26T14:10:53Z</time>
      </trkpt>
      <trkpt lat="47.78821" lon="6.74496">
        <ele>996.469971</ele>
        <time>2018-05-26T14:10:54Z</time>
      </trkpt>
      <trkpt lat="47.7882" lon="6.74498">
        <ele>996.739502</ele>
        <time>2018-05-26T14:10:55Z</time>
      </trkpt>
      <trkpt lat="47.7882" lon="6.745">
        <ele>997.00824</ele>
        <time>2018-05-26T14:10:56Z</time>
      </trkpt>
      <trkpt lat="47.7882" lon="6.74502">
        <ele>997.277344</ele>
        <time>2018-05-26T14:10:57Z</time>
      </trkpt>
      <trkpt lat="47.7882" lon="6.74503">
        <ele>997.545715</ele>
        <time>2018-05-26T14:10:58Z</time>
      </trkpt>
      <trkpt lat="47.78819" lon="6.74505">
        <ele>997.807556</ele>
        <time>2018-05-26T14:10:59Z</time>
      </trkpt>
      <trkpt lat="47.78819" lon="6.74507">
        <ele>998.052979</ele>
        <time>2018-05-26T14:11:00Z</time>
      </trkpt>
      <trkpt lat="47.78818" lon="6.74509">
        <ele>998.277283</ele>
        <time>2018-05-26T14:11:01Z</time>
      </trkpt>
      <trkpt lat="47.78819" lon="6.7451">
        <ele>998.480408</ele>
        <time>2018-05-26T14:11:02Z</time>
      </trkpt>
      <trkpt lat="47.78818" lon="6.74512">
        <ele>998.67627</ele>
        <time>2018-05-26T14:11:03Z</time>
      </trkpt>
      <trkpt lat="47.78818" lon="6.74514">
        <ele>998.881836</ele>
        <time>2018-05-26T14:11:04Z</time>
      </trkpt>
      <trkpt lat="47.78819" lon="6.74515">
        <ele>999.221924</ele>
        <time>2018-05-26T14:11:05Z</time>
      </trkpt>
      <trkpt lat="47.78818" lon="6.74517">
        <ele>999.463135</ele>
        <time>2018-05-26T14:11:06Z</time>
      </trkpt>
      <trkpt lat="47.78818" lon="6.74518">
        <ele>999.713074</ele>
        <time>2018-05-26T14:11:07Z</time>
      </trkpt>
      <trkpt lat="47.78818" lon="6.74521">
        <ele>999.970764</ele>
        <time>2018-05-26T14:11:08Z</time>
      </trkpt>
      <trkpt lat="47.78818" lon="6.74522">
        <ele>1000.363281</ele>
        <time>2018-05-26T14:11:09Z</time>
      </trkpt>
      <trkpt lat="47.78818" lon="6.74523">
        <ele>1000.605469</ele>
        <time>2018-05-26T14:11:10Z</time>
      </trkpt>
      <trkpt lat="47.78818" lon="6.74525">
        <ele>1000.816711</ele>
        <time>2018-05-26T14:11:11Z</time>
      </trkpt>
      <trkpt lat="47.78819" lon="6.74526">
        <ele>1001.00293</ele>
        <time>2018-05-26T14:11:12Z</time>
      </trkpt>
      <trkpt lat="47.78818" lon="6.74529">
        <ele>1001.179688</ele>
        <time>2018-05-26T14:11:13Z</time>
      </trkpt>
      <trkpt lat="47.78817" lon="6.74531">
        <ele>1001.354065</ele>
        <time>2018-05-26T14:11:14Z</time>
      </trkpt>
      <trkpt lat="47.78817" lon="6.74534">
        <ele>1001.529541</ele>
        <time>2018-05-26T14:11:15Z</time>
      </trkpt>
      <trkpt lat="47.78816" lon="6.74536">
        <ele>1001.713806</ele>
        <time>2018-05-26T14:11:16Z</time>
      </trkpt>
      <trkpt lat="47.78816" lon="6.74538">
        <ele>1002.017334</ele>
        <time>2018-05-26T14:11:17Z</time>
      </trkpt>
      <trkpt lat="47.78816" lon="6.7454">
        <ele>1002.23584</ele>
        <time>2018-05-26T14:11:18Z</time>
      </trkpt>
      <trkpt lat="47.78816" lon="6.74542">
        <ele>1002.467957</ele>
        <time>2018-05-26T14:11:19Z</time>
      </trkpt>
      <trkpt lat="47.78815" lon="6.74544">
        <ele>1002.715149</ele>
        <time>2018-05-26T14:11:20Z</time>
      </trkpt>
      <trkpt lat="47.78815" lon="6.74546">
        <ele>1003.092712</ele>
        <time>2018-05-26T14:11:21Z</time>
      </trkpt>
      <trkpt lat="47.78814" lon="6.74549">
        <ele>1003.33783</ele>
        <time>2018-05-26T14:11:22Z</time>
      </trkpt>
      <trkpt lat="47.78813" lon="6.74551">
        <ele>1003.577637</ele>
        <time>2018-05-26T14:11:23Z</time>
      </trkpt>
      <trkpt lat="47.78812" lon="6.74552">
        <ele>1003.935364</ele>
        <time>2018-05-26T14:11:24Z</time>
      </trkpt>
      <trkpt lat="47.78812" lon="6.74553">
        <ele>1004.165466</ele>
        <time>2018-05-26T14:11:25Z</time>
      </trkpt>
      <trkpt lat="47.78812" lon="6.74555">
        <ele>1004.379211</ele>
        <time>2018-05-26T14:11:26Z</time>
      </trkpt>
      <trkpt lat="47.78811" lon="6.74557">
        <ele>1004.656433</ele>
        <time>2018-05-26T14:11:27Z</time>
      </trkpt>
      <trkpt lat="47.78811" lon="6.74559">
        <ele>1004.818604</ele>
        <time>2018-05-26T14:11:28Z</time>
      </trkpt>
      <trkpt lat="47.78811" lon="6.7456">
        <ele>1004.979187</ele>
        <time>2018-05-26T14:11:29Z</time>
      </trkpt>
      <trkpt lat="47.78812" lon="6.74563">
        <ele>1005.23053</ele>
        <time>2018-05-26T14:11:30Z</time>
      </trkpt>
      <trkpt lat="47.78812" lon="6.74566">
        <ele>1005.412903</ele>
        <time>2018-05-26T14:11:31Z</time>
      </trkpt>
      <trkpt lat="47.78812" lon="6.74567">
        <ele>1005.608215</ele>
        <time>2018-05-26T14:11:32Z</time>
      </trkpt>
      <trkpt lat="47.78812" lon="6.74569">
        <ele>1005.809631</ele>
        <time>2018-05-26T14:11:33Z</time>
      </trkpt>
      <trkpt lat="47.78812" lon="6.7457">
        <ele>1005.998718</ele>
        <time>2018-05-26T14:11:34Z</time>
      </trkpt>
      <trkpt lat="47.78813" lon="6.74572">
        <ele>1006.168518</ele>
        <time>2018-05-26T14:11:35Z</time>
      </trkpt>
      <trkpt lat="47.78814" lon="6.74574">
        <ele>1006.314636</ele>
        <time>2018-05-26T14:11:36Z</time>
      </trkpt>
      <trkpt lat="47.78814" lon="6.74576">
        <ele>1006.437256</ele>
        <time>2018-05-26T14:11:37Z</time>
      </trkpt>
      <trkpt lat="47.78815" lon="6.74578">
        <ele>1006.57843</ele>
        <time>2018-05-26T14:11:38Z</time>
      </trkpt>
      <trkpt lat="47.78815" lon="6.7458">
        <ele>1006.646973</ele>
        <time>2018-05-26T14:11:39Z</time>
      </trkpt>
      <trkpt lat="47.78816" lon="6.74582">
        <ele>1006.700623</ele>
        <time>2018-05-26T14:11:40Z</time>
      </trkpt>
      <trkpt lat="47.78816" lon="6.74583">
        <ele>1006.72467</ele>
        <time>2018-05-26T14:11:41Z</time>
      </trkpt>
      <trkpt lat="47.78817" lon="6.74585">
        <ele>1006.749023</ele>
        <time>2018-05-26T14:11:42Z</time>
      </trkpt>
      <trkpt lat="47.78817" lon="6.74587">
        <ele>1006.802002</ele>
        <time>2018-05-26T14:11:43Z</time>
      </trkpt>
      <trkpt lat="47.78818" lon="6.74588">
        <ele>1006.869873</ele>
        <time>2018-05-26T14:11:44Z</time>
      </trkpt>
      <trkpt lat="47.78825" lon="6.74597">
        <ele>1007.980469</ele>
        <time>2018-05-26T14:14:27Z</time>
      </trkpt>
      <trkpt lat="47.78826" lon="6.74599">
        <ele>1008.031189</ele>
        <time>2018-05-26T14:14:29Z</time>
      </trkpt>
      <trkpt lat="47.78827" lon="6.746">
        <ele>1008.093201</ele>
        <time>2018-05-26T14:14:30Z</time>
      </trkpt>
      <trkpt lat="47.78828" lon="6.74602">
        <ele>1008.204895</ele>
        <time>2018-05-26T14:14:31Z</time>
      </trkpt>
      <trkpt lat="47.78829" lon="6.74603">
        <ele>1008.288635</ele>
        <time>2018-05-26T14:14:32Z</time>
      </trkpt>
      <trkpt lat="47.7883" lon="6.74605">
        <ele>1008.380798</ele>
        <time>2018-05-26T14:14:33Z</time>
      </trkpt>
      <trkpt lat="47.78832" lon="6.74606">
        <ele>1008.538269</ele>
        <time>2018-05-26T14:14:34Z</time>
      </trkpt>
      <trkpt lat="47.78832" lon="6.74608">
        <ele>1008.655273</ele>
        <time>2018-05-26T14:14:35Z</time>
      </trkpt>
      <trkpt lat="47.78834" lon="6.7461">
        <ele>1008.779968</ele>
        <time>2018-05-26T14:14:36Z</time>
      </trkpt>
      <trkpt lat="47.78835" lon="6.74612">
        <ele>1008.909241</ele>
        <time>2018-05-26T14:14:37Z</time>
      </trkpt>
      <trkpt lat="47.78836" lon="6.74614">
        <ele>1009.036438</ele>
        <time>2018-05-26T14:14:38Z</time>
      </trkpt>
      <trkpt lat="47.78837" lon="6.74615">
        <ele>1009.325684</ele>
        <time>2018-05-26T14:14:39Z</time>
      </trkpt>
      <trkpt lat="47.78838" lon="6.74616">
        <ele>1009.427185</ele>
        <time>2018-05-26T14:14:41Z</time>
      </trkpt>
      <trkpt lat="47.78838" lon="6.74617">
        <ele>1009.518555</ele>
        <time>2018-05-26T14:14:42Z</time>
      </trkpt>
      <trkpt lat="47.7884" lon="6.74619">
        <ele>1009.562012</ele>
        <time>2018-05-26T14:14:43Z</time>
      </trkpt>
      <trkpt lat="47.78841" lon="6.7462">
        <ele>1009.647156</ele>
        <time>2018-05-26T14:14:44Z</time>
      </trkpt>
      <trkpt lat="47.78841" lon="6.74623">
        <ele>1009.776306</ele>
        <time>2018-05-26T14:14:45Z</time>
      </trkpt>
      <trkpt lat="47.78843" lon="6.74625">
        <ele>1009.867981</ele>
        <time>2018-05-26T14:14:46Z</time>
      </trkpt>
      <trkpt lat="47.78845" lon="6.74626">
        <ele>1009.969666</ele>
        <time>2018-05-26T14:14:47Z</time>
      </trkpt>
      <trkpt lat="47.78846" lon="6.74628">
        <ele>1010.144592</ele>
        <time>2018-05-26T14:14:48Z</time>
      </trkpt>
      <trkpt lat="47.78848" lon="6.74629">
        <ele>1010.274231</ele>
        <time>2018-05-26T14:14:49Z</time>
      </trkpt>
      <trkpt lat="47.78848" lon="6.74631">
        <ele>1010.409851</ele>
        <time>2018-05-26T14:14:50Z</time>
      </trkpt>
      <trkpt lat="47.78849" lon="6.74633">
        <ele>1010.546692</ele>
        <time>2018-05-26T14:14:51Z</time>
      </trkpt>
      <trkpt lat="47.78851" lon="6.74635">
        <ele>1010.751221</ele>
        <time>2018-05-26T14:14:52Z</time>
      </trkpt>
      <trkpt lat="47.78852" lon="6.74637">
        <ele>1010.887878</ele>
        <time>2018-05-26T14:14:53Z</time>
      </trkpt>
      <trkpt lat="47.78853" lon="6.74639">
        <ele>1011.020996</ele>
        <time>2018-05-26T14:14:54Z</time>
      </trkpt>
      <trkpt lat="47.78854" lon="6.7464">
        <ele>1011.152283</ele>
        <time>2018-05-26T14:14:55Z</time>
      </trkpt>
      <trkpt lat="47.78855" lon="6.74642">
        <ele>1011.347717</ele>
        <time>2018-05-26T14:14:56Z</time>
      </trkpt>
      <trkpt lat="47.78856" lon="6.74644">
        <ele>1011.474609</ele>
        <time>2018-05-26T14:14:57Z</time>
      </trkpt>
      <trkpt lat="47.78858" lon="6.74646">
        <ele>1011.58844</ele>
        <time>2018-05-26T14:14:58Z</time>
      </trkpt>
      <trkpt lat="47.78859" lon="6.74648">
        <ele>1011.741394</ele>
        <time>2018-05-26T14:14:59Z</time>
      </trkpt>
      <trkpt lat="47.7886" lon="6.74651">
        <ele>1011.84137</ele>
        <time>2018-05-26T14:15:00Z</time>
      </trkpt>
      <trkpt lat="47.78861" lon="6.74653">
        <ele>1011.955505</ele>
        <time>2018-05-26T14:15:01Z</time>
      </trkpt>
      <trkpt lat="47.78862" lon="6.74654">
        <ele>1012.084229</ele>
        <time>2018-05-26T14:15:02Z</time>
      </trkpt>
      <trkpt lat="47.78863" lon="6.74656">
        <ele>1012.296448</ele>
        <time>2018-05-26T14:15:03Z</time>
      </trkpt>
      <trkpt lat="47.78864" lon="6.74658">
        <ele>1012.43927</ele>
        <time>2018-05-26T14:15:04Z</time>
      </trkpt>
      <trkpt lat="47.78865" lon="6.74659">
        <ele>1012.658142</ele>
        <time>2018-05-26T14:15:05Z</time>
      </trkpt>
      <trkpt lat="47.78867" lon="6.74662">
        <ele>1012.808105</ele>
        <time>2018-05-26T14:15:06Z</time>
      </trkpt>
      <trkpt lat="47.78867" lon="6.74664">
        <ele>1012.954407</ele>
        <time>2018-05-26T14:15:07Z</time>
      </trkpt>
      <trkpt lat="47.78867" lon="6.74665">
        <ele>1013.149719</ele>
        <time>2018-05-26T14:15:08Z</time>
      </trkpt>
      <trkpt lat="47.78868" lon="6.74667">
        <ele>1013.267578</ele>
        <time>2018-05-26T14:15:09Z</time>
      </trkpt>
      <trkpt lat="47.78869" lon="6.74668">
        <ele>1013.388184</ele>
        <time>2018-05-26T14:15:10Z</time>
      </trkpt>
      <trkpt lat="47.7887" lon="6.7467">
        <ele>1013.511536</ele>
        <time>2018-05-26T14:15:11Z</time>
      </trkpt>
      <trkpt lat="47.78871" lon="6.74672">
        <ele>1013.700012</ele>
        <time>2018-05-26T14:15:12Z</time>
      </trkpt>
      <trkpt lat="47.78871" lon="6.74673">
        <ele>1013.819519</ele>
        <time>2018-05-26T14:15:13Z</time>
      </trkpt>
      <trkpt lat="47.78872" lon="6.74675">
        <ele>1013.937988</ele>
        <time>2018-05-26T14:15:14Z</time>
      </trkpt>
      <trkpt lat="47.78874" lon="6.74677">
        <ele>1014.058289</ele>
        <time>2018-05-26T14:15:15Z</time>
      </trkpt>
      <trkpt lat="47.78875" lon="6.74678">
        <ele>1014.262695</ele>
        <time>2018-05-26T14:15:16Z</time>
      </trkpt>
      <trkpt lat="47.78877" lon="6.7468">
        <ele>1014.410706</ele>
        <time>2018-05-26T14:15:17Z</time>
      </trkpt>
      <trkpt lat="47.78877" lon="6.74681">
        <ele>1014.571045</ele>
        <time>2018-05-26T14:15:18Z</time>
      </trkpt>
      <trkpt lat="47.78878" lon="6.74683">
        <ele>1014.745544</ele>
        <time>2018-05-26T14:15:19Z</time>
      </trkpt>
      <trkpt lat="47.7888" lon="6.74684">
        <ele>1015.035645</ele>
        <time>2018-05-26T14:15:20Z</time>
      </trkpt>
      <trkpt lat="47.7888" lon="6.74686">
        <ele>1015.24176</ele>
        <time>2018-05-26T14:15:21Z</time>
      </trkpt>
      <trkpt lat="47.78881" lon="6.74688">
        <ele>1015.454895</ele>
        <time>2018-05-26T14:15:22Z</time>
      </trkpt>
      <trkpt lat="47.78882" lon="6.74689">
        <ele>1015.770447</ele>
        <time>2018-05-26T14:15:23Z</time>
      </trkpt>
      <trkpt lat="47.78883" lon="6.74691">
        <ele>1015.973633</ele>
        <time>2018-05-26T14:15:24Z</time>
      </trkpt>
      <trkpt lat="47.78884" lon="6.74693">
        <ele>1016.162781</ele>
        <time>2018-05-26T14:15:25Z</time>
      </trkpt>
      <trkpt lat="47.78886" lon="6.74694">
        <ele>1016.415039</ele>
        <time>2018-05-26T14:15:26Z</time>
      </trkpt>
      <trkpt lat="47.78887" lon="6.74696">
        <ele>1016.563416</ele>
        <time>2018-05-26T14:15:27Z</time>
      </trkpt>
      <trkpt lat="47.78888" lon="6.74698">
        <ele>1016.701355</ele>
        <time>2018-05-26T14:15:28Z</time>
      </trkpt>
      <trkpt lat="47.78889" lon="6.74699">
        <ele>1016.89447</ele>
        <time>2018-05-26T14:15:29Z</time>
      </trkpt>
      <trkpt lat="47.7889" lon="6.747">
        <ele>1017.022522</ele>
        <time>2018-05-26T14:15:30Z</time>
      </trkpt>
      <trkpt lat="47.78891" lon="6.74702">
        <ele>1017.156921</ele>
        <time>2018-05-26T14:15:31Z</time>
      </trkpt>
      <trkpt lat="47.78892" lon="6.74704">
        <ele>1017.374329</ele>
        <time>2018-05-26T14:15:32Z</time>
      </trkpt>
      <trkpt lat="47.78893" lon="6.74704">
        <ele>1017.531799</ele>
        <time>2018-05-26T14:15:33Z</time>
      </trkpt>
      <trkpt lat="47.78894" lon="6.74705">
        <ele>1017.697266</ele>
        <time>2018-05-26T14:15:34Z</time>
      </trkpt>
      <trkpt lat="47.78895" lon="6.74706">
        <ele>1018.271667</ele>
        <time>2018-05-26T14:15:36Z</time>
      </trkpt>
      <trkpt lat="47.78903" lon="6.74716">
        <ele>1019.936523</ele>
        <time>2018-05-26T14:15:46Z</time>
      </trkpt>
      <trkpt lat="47.78905" lon="6.74718">
        <ele>1020.100525</ele>
        <time>2018-05-26T14:15:48Z</time>
      </trkpt>
      <trkpt lat="47.78907" lon="6.74719">
        <ele>1020.32843</ele>
        <time>2018-05-26T14:15:49Z</time>
      </trkpt>
      <trkpt lat="47.78909" lon="6.74721">
        <ele>1020.47406</ele>
        <time>2018-05-26T14:15:50Z</time>
      </trkpt>
      <trkpt lat="47.7891" lon="6.74723">
        <ele>1020.613342</ele>
        <time>2018-05-26T14:15:51Z</time>
      </trkpt>
      <trkpt lat="47.78912" lon="6.74724">
        <ele>1020.815857</ele>
        <time>2018-05-26T14:15:52Z</time>
      </trkpt>
      <trkpt lat="47.78914" lon="6.74726">
        <ele>1020.950378</ele>
        <time>2018-05-26T14:15:53Z</time>
      </trkpt>
      <trkpt lat="47.78915" lon="6.74727">
        <ele>1021.090088</ele>
        <time>2018-05-26T14:15:54Z</time>
      </trkpt>
      <trkpt lat="47.78916" lon="6.74729">
        <ele>1021.303284</ele>
        <time>2018-05-26T14:15:55Z</time>
      </trkpt>
      <trkpt lat="47.78918" lon="6.7473">
        <ele>1021.44043</ele>
        <time>2018-05-26T14:15:56Z</time>
      </trkpt>
      <trkpt lat="47.78919" lon="6.74732">
        <ele>1021.567566</ele>
        <time>2018-05-26T14:15:57Z</time>
      </trkpt>
      <trkpt lat="47.78921" lon="6.74733">
        <ele>1021.687744</ele>
        <time>2018-05-26T14:15:58Z</time>
      </trkpt>
      <trkpt lat="47.78922" lon="6.74734">
        <ele>1021.856934</ele>
        <time>2018-05-26T14:15:59Z</time>
      </trkpt>
      <trkpt lat="47.78923" lon="6.74735">
        <ele>1021.961426</ele>
        <time>2018-05-26T14:16:00Z</time>
      </trkpt>
      <trkpt lat="47.78923" lon="6.74737">
        <ele>1022.056152</ele>
        <time>2018-05-26T14:16:01Z</time>
      </trkpt>
      <trkpt lat="47.78925" lon="6.74739">
        <ele>1022.178406</ele>
        <time>2018-05-26T14:16:02Z</time>
      </trkpt>
      <trkpt lat="47.78926" lon="6.74741">
        <ele>1022.248596</ele>
        <time>2018-05-26T14:16:03Z</time>
      </trkpt>
      <trkpt lat="47.78927" lon="6.74743">
        <ele>1022.312256</ele>
        <time>2018-05-26T14:16:04Z</time>
      </trkpt>
      <trkpt lat="47.78928" lon="6.74744">
        <ele>1022.396973</ele>
        <time>2018-05-26T14:16:05Z</time>
      </trkpt>
      <trkpt lat="47.7893" lon="6.74746">
        <ele>1022.447266</ele>
        <time>2018-05-26T14:16:06Z</time>
      </trkpt>
      <trkpt lat="47.7893" lon="6.74747">
        <ele>1022.496582</ele>
        <time>2018-05-26T14:16:07Z</time>
      </trkpt>
      <trkpt lat="47.78931" lon="6.74749">
        <ele>1022.580078</ele>
        <time>2018-05-26T14:16:08Z</time>
      </trkpt>
      <trkpt lat="47.78933" lon="6.7475">
        <ele>1022.648926</ele>
        <time>2018-05-26T14:16:09Z</time>
      </trkpt>
      <trkpt lat="47.78934" lon="6.74752">
        <ele>1022.72998</ele>
        <time>2018-05-26T14:16:10Z</time>
      </trkpt>
      <trkpt lat="47.78935" lon="6.74753">
        <ele>1022.876282</ele>
        <time>2018-05-26T14:16:11Z</time>
      </trkpt>
      <trkpt lat="47.78936" lon="6.74755">
        <ele>1022.993713</ele>
        <time>2018-05-26T14:16:12Z</time>
      </trkpt>
      <trkpt lat="47.78938" lon="6.74757">
        <ele>1023.123779</ele>
        <time>2018-05-26T14:16:13Z</time>
      </trkpt>
      <trkpt lat="47.7894" lon="6.74759">
        <ele>1023.259033</ele>
        <time>2018-05-26T14:16:14Z</time>
      </trkpt>
      <trkpt lat="47.78942" lon="6.7476">
        <ele>1023.444519</ele>
        <time>2018-05-26T14:16:15Z</time>
      </trkpt>
      <trkpt lat="47.78943" lon="6.74762">
        <ele>1023.549011</ele>
        <time>2018-05-26T14:16:16Z</time>
      </trkpt>
      <trkpt lat="47.78944" lon="6.74763">
        <ele>1023.640137</ele>
        <time>2018-05-26T14:16:17Z</time>
      </trkpt>
      <trkpt lat="47.78946" lon="6.74765">
        <ele>1023.762695</ele>
        <time>2018-05-26T14:16:18Z</time>
      </trkpt>
      <trkpt lat="47.78946" lon="6.74766">
        <ele>1023.833557</ele>
        <time>2018-05-26T14:16:19Z</time>
      </trkpt>
      <trkpt lat="47.78947" lon="6.74768">
        <ele>1023.896973</ele>
        <time>2018-05-26T14:16:20Z</time>
      </trkpt>
      <trkpt lat="47.78948" lon="6.7477">
        <ele>1023.991516</ele>
        <time>2018-05-26T14:16:21Z</time>
      </trkpt>
      <trkpt lat="47.78949" lon="6.74772">
        <ele>1024.067627</ele>
        <time>2018-05-26T14:16:22Z</time>
      </trkpt>
      <trkpt lat="47.78951" lon="6.74774">
        <ele>1024.154907</ele>
        <time>2018-05-26T14:16:23Z</time>
      </trkpt>
      <trkpt lat="47.78951" lon="6.74776">
        <ele>1024.251587</ele>
        <time>2018-05-26T14:16:24Z</time>
      </trkpt>
      <trkpt lat="47.78952" lon="6.74778">
        <ele>1024.403442</ele>
        <time>2018-05-26T14:16:25Z</time>
      </trkpt>
      <trkpt lat="47.78954" lon="6.7478">
        <ele>1024.509033</ele>
        <time>2018-05-26T14:16:26Z</time>
      </trkpt>
      <trkpt lat="47.78955" lon="6.74782">
        <ele>1024.613892</ele>
        <time>2018-05-26T14:16:27Z</time>
      </trkpt>
      <trkpt lat="47.78956" lon="6.74784">
        <ele>1024.713501</ele>
        <time>2018-05-26T14:16:28Z</time>
      </trkpt>
      <trkpt lat="47.78957" lon="6.74786">
        <ele>1024.804688</ele>
        <time>2018-05-26T14:16:29Z</time>
      </trkpt>
      <trkpt lat="47.78958" lon="6.74788">
        <ele>1024.932495</ele>
        <time>2018-05-26T14:16:30Z</time>
      </trkpt>
      <trkpt lat="47.78959" lon="6.7479">
        <ele>1025.019165</ele>
        <time>2018-05-26T14:16:31Z</time>
      </trkpt>
      <trkpt lat="47.7896" lon="6.74792">
        <ele>1025.110474</ele>
        <time>2018-05-26T14:16:32Z</time>
      </trkpt>
      <trkpt lat="47.78961" lon="6.74794">
        <ele>1025.258423</ele>
        <time>2018-05-26T14:16:33Z</time>
      </trkpt>
      <trkpt lat="47.78962" lon="6.74795">
        <ele>1025.365845</ele>
        <time>2018-05-26T14:16:34Z</time>
      </trkpt>
      <trkpt lat="47.78963" lon="6.74797">
        <ele>1025.483765</ele>
        <time>2018-05-26T14:16:35Z</time>
      </trkpt>
      <trkpt lat="47.78964" lon="6.74798">
        <ele>1025.618774</ele>
        <time>2018-05-26T14:16:36Z</time>
      </trkpt>
      <trkpt lat="47.78965" lon="6.748">
        <ele>1025.852661</ele>
        <time>2018-05-26T14:16:37Z</time>
      </trkpt>
      <trkpt lat="47.78965" lon="6.74801">
        <ele>1026.019043</ele>
        <time>2018-05-26T14:16:38Z</time>
      </trkpt>
      <trkpt lat="47.78966" lon="6.74803">
        <ele>1026.188354</ele>
        <time>2018-05-26T14:16:39Z</time>
      </trkpt>
      <trkpt lat="47.78967" lon="6.74805">
        <ele>1026.353149</ele>
        <time>2018-05-26T14:16:40Z</time>
      </trkpt>
      <trkpt lat="47.78967" lon="6.74807">
        <ele>1026.589478</ele>
        <time>2018-05-26T14:16:41Z</time>
      </trkpt>
      <trkpt lat="47.78967" lon="6.74809">
        <ele>1026.735474</ele>
        <time>2018-05-26T14:16:42Z</time>
      </trkpt>
      <trkpt lat="47.78968" lon="6.74812">
        <ele>1026.804565</ele>
        <time>2018-05-26T14:16:43Z</time>
      </trkpt>
      <trkpt lat="47.78968" lon="6.74814">
        <ele>1026.871948</ele>
        <time>2018-05-26T14:16:44Z</time>
      </trkpt>
      <trkpt lat="47.78969" lon="6.74815">
        <ele>1027.002808</ele>
        <time>2018-05-26T14:16:45Z</time>
      </trkpt>
      <trkpt lat="47.7897" lon="6.74817">
        <ele>1027.13855</ele>
        <time>2018-05-26T14:16:46Z</time>
      </trkpt>
      <trkpt lat="47.78971" lon="6.74819">
        <ele>1027.372437</ele>
        <time>2018-05-26T14:16:47Z</time>
      </trkpt>
      <trkpt lat="47.78971" lon="6.7482">
        <ele>1027.751343</ele>
        <time>2018-05-26T14:16:48Z</time>
      </trkpt>
      <trkpt lat="47.78971" lon="6.74822">
        <ele>1028.069702</ele>
        <time>2018-05-26T14:16:50Z</time>
      </trkpt>
      <trkpt lat="47.78972" lon="6.74824">
        <ele>1028.285278</ele>
        <time>2018-05-26T14:16:51Z</time>
      </trkpt>
      <trkpt lat="47.78972" lon="6.74826">
        <ele>1028.495605</ele>
        <time>2018-05-26T14:16:52Z</time>
      </trkpt>
      <trkpt lat="47.78973" lon="6.74829">
        <ele>1028.689087</ele>
        <time>2018-05-26T14:16:53Z</time>
      </trkpt>
      <trkpt lat="47.78973" lon="6.74831">
        <ele>1028.855103</ele>
        <time>2018-05-26T14:16:54Z</time>
      </trkpt>
      <trkpt lat="47.78974" lon="6.74833">
        <ele>1028.993896</ele>
        <time>2018-05-26T14:16:55Z</time>
      </trkpt>
      <trkpt lat="47.78975" lon="6.74835">
        <ele>1029.111938</ele>
        <time>2018-05-26T14:16:56Z</time>
      </trkpt>
      <trkpt lat="47.78975" lon="6.74837">
        <ele>1029.223755</ele>
        <time>2018-05-26T14:16:57Z</time>
      </trkpt>
      <trkpt lat="47.78975" lon="6.74838">
        <ele>1029.336304</ele>
        <time>2018-05-26T14:16:58Z</time>
      </trkpt>
      <trkpt lat="47.78975" lon="6.7484">
        <ele>1029.454224</ele>
        <time>2018-05-26T14:16:59Z</time>
      </trkpt>
      <trkpt lat="47.78975" lon="6.74842">
        <ele>1029.578125</ele>
        <time>2018-05-26T14:17:00Z</time>
      </trkpt>
      <trkpt lat="47.78975" lon="6.74844">
        <ele>1029.70874</ele>
        <time>2018-05-26T14:17:01Z</time>
      </trkpt>
      <trkpt lat="47.78975" lon="6.74846">
        <ele>1029.844971</ele>
        <time>2018-05-26T14:17:02Z</time>
      </trkpt>
      <trkpt lat="47.78974" lon="6.74847">
        <ele>1029.982544</ele>
        <time>2018-05-26T14:17:03Z</time>
      </trkpt>
      <trkpt lat="47.78974" lon="6.74849">
        <ele>1030.119019</ele>
        <time>2018-05-26T14:17:04Z</time>
      </trkpt>
      <trkpt lat="47.78973" lon="6.74851">
        <ele>1030.25769</ele>
        <time>2018-05-26T14:17:05Z</time>
      </trkpt>
      <trkpt lat="47.78973" lon="6.74853">
        <ele>1030.395142</ele>
        <time>2018-05-26T14:17:06Z</time>
      </trkpt>
      <trkpt lat="47.78974" lon="6.74855">
        <ele>1030.53125</ele>
        <time>2018-05-26T14:17:07Z</time>
      </trkpt>
      <trkpt lat="47.78973" lon="6.74857">
        <ele>1030.663208</ele>
        <time>2018-05-26T14:17:08Z</time>
      </trkpt>
      <trkpt lat="47.78973" lon="6.74859">
        <ele>1030.793945</ele>
        <time>2018-05-26T14:17:09Z</time>
      </trkpt>
      <trkpt lat="47.78973" lon="6.74861">
        <ele>1030.928101</ele>
        <time>2018-05-26T14:17:10Z</time>
      </trkpt>
      <trkpt lat="47.78973" lon="6.74863">
        <ele>1031.070801</ele>
        <time>2018-05-26T14:17:11Z</time>
      </trkpt>
      <trkpt lat="47.78973" lon="6.74865">
        <ele>1031.224487</ele>
        <time>2018-05-26T14:17:12Z</time>
      </trkpt>
      <trkpt lat="47.78974" lon="6.74866">
        <ele>1031.386597</ele>
        <time>2018-05-26T14:17:13Z</time>
      </trkpt>
      <trkpt lat="47.78974" lon="6.74868">
        <ele>1031.559448</ele>
        <time>2018-05-26T14:17:14Z</time>
      </trkpt>
      <trkpt lat="47.78973" lon="6.74871">
        <ele>1031.743896</ele>
        <time>2018-05-26T14:17:15Z</time>
      </trkpt>
      <trkpt lat="47.78973" lon="6.74873">
        <ele>1031.938599</ele>
        <time>2018-05-26T14:17:16Z</time>
      </trkpt>
      <trkpt lat="47.78973" lon="6.74875">
        <ele>1032.240112</ele>
        <time>2018-05-26T14:17:17Z</time>
      </trkpt>
      <trkpt lat="47.78973" lon="6.74877">
        <ele>1032.444458</ele>
        <time>2018-05-26T14:17:18Z</time>
      </trkpt>
      <trkpt lat="47.78972" lon="6.74879">
        <ele>1032.647339</ele>
        <time>2018-05-26T14:17:19Z</time>
      </trkpt>
      <trkpt lat="47.78972" lon="6.74881">
        <ele>1032.841675</ele>
        <time>2018-05-26T14:17:20Z</time>
      </trkpt>
      <trkpt lat="47.78973" lon="6.74882">
        <ele>1033.029175</ele>
        <time>2018-05-26T14:17:21Z</time>
      </trkpt>
      <trkpt lat="47.78973" lon="6.74885">
        <ele>1033.218384</ele>
        <time>2018-05-26T14:17:22Z</time>
      </trkpt>
      <trkpt lat="47.78972" lon="6.74887">
        <ele>1033.415283</ele>
        <time>2018-05-26T14:17:23Z</time>
      </trkpt>
      <trkpt lat="47.78972" lon="6.7489">
        <ele>1033.72876</ele>
        <time>2018-05-26T14:17:24Z</time>
      </trkpt>
      <trkpt lat="47.78972" lon="6.74892">
        <ele>1033.942139</ele>
        <time>2018-05-26T14:17:25Z</time>
      </trkpt>
      <trkpt lat="47.78971" lon="6.74893">
        <ele>1034.154053</ele>
        <time>2018-05-26T14:17:26Z</time>
      </trkpt>
      <trkpt lat="47.78971" lon="6.74894">
        <ele>1034.36084</ele>
        <time>2018-05-26T14:17:27Z</time>
      </trkpt>
      <trkpt lat="47.78971" lon="6.74895">
        <ele>1034.646362</ele>
        <time>2018-05-26T14:17:28Z</time>
      </trkpt>
      <trkpt lat="47.7897" lon="6.74897">
        <ele>1034.818481</ele>
        <time>2018-05-26T14:17:29Z</time>
      </trkpt>
      <trkpt lat="47.7897" lon="6.749">
        <ele>1034.977905</ele>
        <time>2018-05-26T14:17:30Z</time>
      </trkpt>
      <trkpt lat="47.7897" lon="6.74902">
        <ele>1035.126831</ele>
        <time>2018-05-26T14:17:31Z</time>
      </trkpt>
      <trkpt lat="47.7897" lon="6.74904">
        <ele>1035.269409</ele>
        <time>2018-05-26T14:17:32Z</time>
      </trkpt>
      <trkpt lat="47.78969" lon="6.74905">
        <ele>1035.408081</ele>
        <time>2018-05-26T14:17:33Z</time>
      </trkpt>
      <trkpt lat="47.78968" lon="6.7492">
        <ele>1036.349609</ele>
        <time>2018-05-26T14:17:45Z</time>
      </trkpt>
      <trkpt lat="47.78967" lon="6.74923">
        <ele>1036.472046</ele>
        <time>2018-05-26T14:17:47Z</time>
      </trkpt>
      <trkpt lat="47.78967" lon="6.74925">
        <ele>1036.567261</ele>
        <time>2018-05-26T14:17:48Z</time>
      </trkpt>
      <trkpt lat="47.78967" lon="6.74927">
        <ele>1036.6875</ele>
        <time>2018-05-26T14:17:49Z</time>
      </trkpt>
      <trkpt lat="47.78967" lon="6.74929">
        <ele>1036.833618</ele>
        <time>2018-05-26T14:17:50Z</time>
      </trkpt>
      <trkpt lat="47.78966" lon="6.7493">
        <ele>1037.085083</ele>
        <time>2018-05-26T14:17:51Z</time>
      </trkpt>
      <trkpt lat="47.78966" lon="6.74933">
        <ele>1037.258789</ele>
        <time>2018-05-26T14:17:52Z</time>
      </trkpt>
      <trkpt lat="47.78965" lon="6.74935">
        <ele>1037.432495</ele>
        <time>2018-05-26T14:17:53Z</time>
      </trkpt>
      <trkpt lat="47.78965" lon="6.74938">
        <ele>1037.605957</ele>
        <time>2018-05-26T14:17:54Z</time>
      </trkpt>
      <trkpt lat="47.78965" lon="6.7494">
        <ele>1037.771729</ele>
        <time>2018-05-26T14:17:55Z</time>
      </trkpt>
      <trkpt lat="47.78965" lon="6.74942">
        <ele>1037.983032</ele>
        <time>2018-05-26T14:17:56Z</time>
      </trkpt>
      <trkpt lat="47.78965" lon="6.74944">
        <ele>1038.092773</ele>
        <time>2018-05-26T14:17:57Z</time>
      </trkpt>
      <trkpt lat="47.78964" lon="6.74947">
        <ele>1038.188843</ele>
        <time>2018-05-26T14:17:58Z</time>
      </trkpt>
      <trkpt lat="47.78964" lon="6.74949">
        <ele>1038.281738</ele>
        <time>2018-05-26T14:17:59Z</time>
      </trkpt>
      <trkpt lat="47.78964" lon="6.74951">
        <ele>1038.375122</ele>
        <time>2018-05-26T14:18:00Z</time>
      </trkpt>
      <trkpt lat="47.78964" lon="6.74953">
        <ele>1038.469482</ele>
        <time>2018-05-26T14:18:01Z</time>
      </trkpt>
      <trkpt lat="47.78964" lon="6.74955">
        <ele>1038.568237</ele>
        <time>2018-05-26T14:18:02Z</time>
      </trkpt>
      <trkpt lat="47.78964" lon="6.74958">
        <ele>1038.67627</ele>
        <time>2018-05-26T14:18:03Z</time>
      </trkpt>
      <trkpt lat="47.78964" lon="6.7496">
        <ele>1038.792847</ele>
        <time>2018-05-26T14:18:04Z</time>
      </trkpt>
      <trkpt lat="47.78964" lon="6.74963">
        <ele>1038.915039</ele>
        <time>2018-05-26T14:18:05Z</time>
      </trkpt>
      <trkpt lat="47.78964" lon="6.74966">
        <ele>1039.038818</ele>
        <time>2018-05-26T14:18:06Z</time>
      </trkpt>
      <trkpt lat="47.78964" lon="6.74969">
        <ele>1039.158813</ele>
        <time>2018-05-26T14:18:07Z</time>
      </trkpt>
      <trkpt lat="47.78963" lon="6.7497">
        <ele>1039.271362</ele>
        <time>2018-05-26T14:18:08Z</time>
      </trkpt>
      <trkpt lat="47.78962" lon="6.74972">
        <ele>1039.372437</ele>
        <time>2018-05-26T14:18:09Z</time>
      </trkpt>
      <trkpt lat="47.78962" lon="6.74974">
        <ele>1039.463135</ele>
        <time>2018-05-26T14:18:10Z</time>
      </trkpt>
      <trkpt lat="47.78962" lon="6.74976">
        <ele>1039.538208</ele>
        <time>2018-05-26T14:18:11Z</time>
      </trkpt>
      <trkpt lat="47.78962" lon="6.74979">
        <ele>1039.593262</ele>
        <time>2018-05-26T14:18:12Z</time>
      </trkpt>
      <trkpt lat="47.78961" lon="6.74981">
        <ele>1039.629883</ele>
        <time>2018-05-26T14:18:13Z</time>
      </trkpt>
      <trkpt lat="47.7896" lon="6.74984">
        <ele>1039.650391</ele>
        <time>2018-05-26T14:18:14Z</time>
      </trkpt>
      <trkpt lat="47.7896" lon="6.74986">
        <ele>1039.662109</ele>
        <time>2018-05-26T14:18:15Z</time>
      </trkpt>
      <trkpt lat="47.78959" lon="6.74989">
        <ele>1039.671997</ele>
        <time>2018-05-26T14:18:16Z</time>
      </trkpt>
      <trkpt lat="47.78959" lon="6.74992">
        <ele>1039.691772</ele>
        <time>2018-05-26T14:18:17Z</time>
      </trkpt>
      <trkpt lat="47.78959" lon="6.74995">
        <ele>1039.750732</ele>
        <time>2018-05-26T14:18:18Z</time>
      </trkpt>
      <trkpt lat="47.78959" lon="6.74997">
        <ele>1039.815796</ele>
        <time>2018-05-26T14:18:19Z</time>
      </trkpt>
      <trkpt lat="47.78959" lon="6.75">
        <ele>1039.945923</ele>
        <time>2018-05-26T14:18:20Z</time>
      </trkpt>
      <trkpt lat="47.78959" lon="6.75002">
        <ele>1040.045532</ele>
        <time>2018-05-26T14:18:21Z</time>
      </trkpt>
      <trkpt lat="47.78959" lon="6.75005">
        <ele>1040.151001</ele>
        <time>2018-05-26T14:18:22Z</time>
      </trkpt>
      <trkpt lat="47.78959" lon="6.75007">
        <ele>1040.267212</ele>
        <time>2018-05-26T14:18:23Z</time>
      </trkpt>
      <trkpt lat="47.7896" lon="6.7501">
        <ele>1040.454102</ele>
        <time>2018-05-26T14:18:24Z</time>
      </trkpt>
      <trkpt lat="47.7896" lon="6.75012">
        <ele>1040.576782</ele>
        <time>2018-05-26T14:18:25Z</time>
      </trkpt>
      <trkpt lat="47.7896" lon="6.75015">
        <ele>1040.688721</ele>
        <time>2018-05-26T14:18:26Z</time>
      </trkpt>
      <trkpt lat="47.7896" lon="6.75019">
        <ele>1040.790405</ele>
        <time>2018-05-26T14:18:27Z</time>
      </trkpt>
      <trkpt lat="47.7896" lon="6.75022">
        <ele>1040.892212</ele>
        <time>2018-05-26T14:18:28Z</time>
      </trkpt>
      <trkpt lat="47.7896" lon="6.75025">
        <ele>1040.998535</ele>
        <time>2018-05-26T14:18:29Z</time>
      </trkpt>
      <trkpt lat="47.7896" lon="6.75028">
        <ele>1041.11084</ele>
        <time>2018-05-26T14:18:30Z</time>
      </trkpt>
      <trkpt lat="47.7896" lon="6.75031">
        <ele>1041.213501</ele>
        <time>2018-05-26T14:18:31Z</time>
      </trkpt>
      <trkpt lat="47.78961" lon="6.75034">
        <ele>1041.298462</ele>
        <time>2018-05-26T14:18:32Z</time>
      </trkpt>
      <trkpt lat="47.78962" lon="6.75037">
        <ele>1041.365845</ele>
        <time>2018-05-26T14:18:33Z</time>
      </trkpt>
      <trkpt lat="47.78962" lon="6.7504">
        <ele>1041.429199</ele>
        <time>2018-05-26T14:18:34Z</time>
      </trkpt>
      <trkpt lat="47.78962" lon="6.75042">
        <ele>1041.52832</ele>
        <time>2018-05-26T14:18:35Z</time>
      </trkpt>
      <trkpt lat="47.78961" lon="6.75043">
        <ele>1041.588013</ele>
        <time>2018-05-26T14:18:36Z</time>
      </trkpt>
      <trkpt lat="47.78961" lon="6.75045">
        <ele>1041.634155</ele>
        <time>2018-05-26T14:18:37Z</time>
      </trkpt>
      <trkpt lat="47.78961" lon="6.75048">
        <ele>1041.672485</ele>
        <time>2018-05-26T14:18:38Z</time>
      </trkpt>
      <trkpt lat="47.78961" lon="6.75051">
        <ele>1041.714844</ele>
        <time>2018-05-26T14:18:39Z</time>
      </trkpt>
      <trkpt lat="47.78962" lon="6.75054">
        <ele>1041.770142</ele>
        <time>2018-05-26T14:18:40Z</time>
      </trkpt>
      <trkpt lat="47.78962" lon="6.75059">
        <ele>1041.841675</ele>
        <time>2018-05-26T14:18:41Z</time>
      </trkpt>
      <trkpt lat="47.78962" lon="6.75064">
        <ele>1041.919678</ele>
        <time>2018-05-26T14:18:42Z</time>
      </trkpt>
      <trkpt lat="47.78964" lon="6.75069">
        <ele>1041.99585</ele>
        <time>2018-05-26T14:18:43Z</time>
      </trkpt>
      <trkpt lat="47.78965" lon="6.75074">
        <ele>1042.03064</ele>
        <time>2018-05-26T14:18:44Z</time>
      </trkpt>
      <trkpt lat="47.78966" lon="6.75078">
        <ele>1042.090698</ele>
        <time>2018-05-26T14:18:45Z</time>
      </trkpt>
      <trkpt lat="47.78967" lon="6.75082">
        <ele>1042.136841</ele>
        <time>2018-05-26T14:18:46Z</time>
      </trkpt>
      <trkpt lat="47.78968" lon="6.75085">
        <ele>1042.158081</ele>
        <time>2018-05-26T14:18:47Z</time>
      </trkpt>
      <trkpt lat="47.7897" lon="6.75088">
        <ele>1042.158325</ele>
        <time>2018-05-26T14:18:48Z</time>
      </trkpt>
      <trkpt lat="47.78971" lon="6.75091">
        <ele>1042.15271</ele>
        <time>2018-05-26T14:18:49Z</time>
      </trkpt>
      <trkpt lat="47.78973" lon="6.75094">
        <ele>1042.103882</ele>
        <time>2018-05-26T14:18:50Z</time>
      </trkpt>
      <trkpt lat="47.78974" lon="6.75098">
        <ele>1042.055176</ele>
        <time>2018-05-26T14:18:51Z</time>
      </trkpt>
      <trkpt lat="47.78975" lon="6.75102">
        <ele>1041.997559</ele>
        <time>2018-05-26T14:18:52Z</time>
      </trkpt>
      <trkpt lat="47.78977" lon="6.75105">
        <ele>1041.938965</ele>
        <time>2018-05-26T14:18:53Z</time>
      </trkpt>
      <trkpt lat="47.78978" lon="6.75109">
        <ele>1041.884644</ele>
        <time>2018-05-26T14:18:54Z</time>
      </trkpt>
      <trkpt lat="47.78979" lon="6.75112">
        <ele>1041.813232</ele>
        <time>2018-05-26T14:18:55Z</time>
      </trkpt>
      <trkpt lat="47.78981" lon="6.75115">
        <ele>1041.761597</ele>
        <time>2018-05-26T14:18:56Z</time>
      </trkpt>
      <trkpt lat="47.78983" lon="6.75119">
        <ele>1041.695679</ele>
        <time>2018-05-26T14:18:57Z</time>
      </trkpt>
      <trkpt lat="47.78984" lon="6.75123">
        <ele>1041.615112</ele>
        <time>2018-05-26T14:18:58Z</time>
      </trkpt>
      <trkpt lat="47.78986" lon="6.75126">
        <ele>1041.531616</ele>
        <time>2018-05-26T14:18:59Z</time>
      </trkpt>
      <trkpt lat="47.78988" lon="6.75131">
        <ele>1041.422119</ele>
        <time>2018-05-26T14:19:00Z</time>
      </trkpt>
      <trkpt lat="47.78989" lon="6.75137">
        <ele>1041.353516</ele>
        <time>2018-05-26T14:19:01Z</time>
      </trkpt>
      <trkpt lat="47.78991" lon="6.75143">
        <ele>1041.275269</ele>
        <time>2018-05-26T14:19:02Z</time>
      </trkpt>
      <trkpt lat="47.78993" lon="6.7515">
        <ele>1041.184448</ele>
        <time>2018-05-26T14:19:03Z</time>
      </trkpt>
      <trkpt lat="47.78995" lon="6.75157">
        <ele>1041.075806</ele>
        <time>2018-05-26T14:19:04Z</time>
      </trkpt>
      <trkpt lat="47.78996" lon="6.75162">
        <ele>1040.947754</ele>
        <time>2018-05-26T14:19:05Z</time>
      </trkpt>
      <trkpt lat="47.78997" lon="6.75167">
        <ele>1040.788696</ele>
        <time>2018-05-26T14:19:06Z</time>
      </trkpt>
      <trkpt lat="47.78999" lon="6.75173">
        <ele>1040.586182</ele>
        <time>2018-05-26T14:19:07Z</time>
      </trkpt>
      <trkpt lat="47.79002" lon="6.75178">
        <ele>1040.197754</ele>
        <time>2018-05-26T14:19:08Z</time>
      </trkpt>
      <trkpt lat="47.79004" lon="6.75184">
        <ele>1039.893921</ele>
        <time>2018-05-26T14:19:09Z</time>
      </trkpt>
      <trkpt lat="47.79007" lon="6.75191">
        <ele>1039.569824</ele>
        <time>2018-05-26T14:19:10Z</time>
      </trkpt>
      <trkpt lat="47.7901" lon="6.75197">
        <ele>1039.06897</ele>
        <time>2018-05-26T14:19:11Z</time>
      </trkpt>
      <trkpt lat="47.79013" lon="6.75204">
        <ele>1038.741699</ele>
        <time>2018-05-26T14:19:12Z</time>
      </trkpt>
      <trkpt lat="47.79016" lon="6.75212">
        <ele>1038.428833</ele>
        <time>2018-05-26T14:19:13Z</time>
      </trkpt>
      <trkpt lat="47.79019" lon="6.7522">
        <ele>1038.113403</ele>
        <time>2018-05-26T14:19:14Z</time>
      </trkpt>
      <trkpt lat="47.79023" lon="6.75229">
        <ele>1037.77002</ele>
        <time>2018-05-26T14:19:15Z</time>
      </trkpt>
      <trkpt lat="47.79026" lon="6.75237">
        <ele>1037.17395</ele>
        <time>2018-05-26T14:19:16Z</time>
      </trkpt>
      <trkpt lat="47.79029" lon="6.75245">
        <ele>1036.730469</ele>
        <time>2018-05-26T14:19:17Z</time>
      </trkpt>
      <trkpt lat="47.79034" lon="6.75254">
        <ele>1036.265747</ele>
        <time>2018-05-26T14:19:18Z</time>
      </trkpt>
      <trkpt lat="47.79039" lon="6.75262">
        <ele>1035.785034</ele>
        <time>2018-05-26T14:19:19Z</time>
      </trkpt>
      <trkpt lat="47.79046" lon="6.75267">
        <ele>1035.006958</ele>
        <time>2018-05-26T14:19:20Z</time>
      </trkpt>
      <trkpt lat="47.79053" lon="6.75272">
        <ele>1034.431885</ele>
        <time>2018-05-26T14:19:21Z</time>
      </trkpt>
      <trkpt lat="47.7906" lon="6.75276">
        <ele>1033.807495</ele>
        <time>2018-05-26T14:19:22Z</time>
      </trkpt>
      <trkpt lat="47.79068" lon="6.7528">
        <ele>1032.777222</ele>
        <time>2018-05-26T14:19:23Z</time>
      </trkpt>
      <trkpt lat="47.79077" lon="6.75286">
        <ele>1032.015015</ele>
        <time>2018-05-26T14:19:24Z</time>
      </trkpt>
      <trkpt lat="47.79086" lon="6.7529">
        <ele>1031.197388</ele>
        <time>2018-05-26T14:19:25Z</time>
      </trkpt>
      <trkpt lat="47.79094" lon="6.75294">
        <ele>1029.905151</ele>
        <time>2018-05-26T14:19:26Z</time>
      </trkpt>
      <trkpt lat="47.79102" lon="6.75298">
        <ele>1029.000122</ele>
        <time>2018-05-26T14:19:27Z</time>
      </trkpt>
      <trkpt lat="47.79108" lon="6.75302">
        <ele>1028.082764</ele>
        <time>2018-05-26T14:19:28Z</time>
      </trkpt>
      <trkpt lat="47.79113" lon="6.75307">
        <ele>1026.731079</ele>
        <time>2018-05-26T14:19:29Z</time>
      </trkpt>
      <trkpt lat="47.79117" lon="6.75313">
        <ele>1025.885864</ele>
        <time>2018-05-26T14:19:30Z</time>
      </trkpt>
      <trkpt lat="47.79121" lon="6.7532">
        <ele>1025.090698</ele>
        <time>2018-05-26T14:19:31Z</time>
      </trkpt>
      <trkpt lat="47.79123" lon="6.75327">
        <ele>1024.370972</ele>
        <time>2018-05-26T14:19:32Z</time>
      </trkpt>
      <trkpt lat="47.79125" lon="6.75335">
        <ele>1023.48114</ele>
        <time>2018-05-26T14:19:33Z</time>
      </trkpt>
      <trkpt lat="47.79127" lon="6.75344">
        <ele>1023.02832</ele>
        <time>2018-05-26T14:19:34Z</time>
      </trkpt>
      <trkpt lat="47.79128" lon="6.75353">
        <ele>1022.638489</ele>
        <time>2018-05-26T14:19:35Z</time>
      </trkpt>
      <trkpt lat="47.79128" lon="6.75363">
        <ele>1022.27832</ele>
        <time>2018-05-26T14:19:36Z</time>
      </trkpt>
      <trkpt lat="47.79128" lon="6.75373">
        <ele>1021.756775</ele>
        <time>2018-05-26T14:19:37Z</time>
      </trkpt>
      <trkpt lat="47.79127" lon="6.75383">
        <ele>1021.41449</ele>
        <time>2018-05-26T14:19:38Z</time>
      </trkpt>
      <trkpt lat="47.79127" lon="6.75394">
        <ele>1021.059814</ele>
        <time>2018-05-26T14:19:39Z</time>
      </trkpt>
      <trkpt lat="47.79126" lon="6.75404">
        <ele>1020.686584</ele>
        <time>2018-05-26T14:19:40Z</time>
      </trkpt>
      <trkpt lat="47.79126" lon="6.75415">
        <ele>1020.296143</ele>
        <time>2018-05-26T14:19:41Z</time>
      </trkpt>
      <trkpt lat="47.79126" lon="6.75426">
        <ele>1019.899902</ele>
        <time>2018-05-26T14:19:42Z</time>
      </trkpt>
      <trkpt lat="47.79125" lon="6.75437">
        <ele>1019.504333</ele>
        <time>2018-05-26T14:19:43Z</time>
      </trkpt>
      <trkpt lat="47.79125" lon="6.75448">
        <ele>1019.315735</ele>
        <time>2018-05-26T14:19:44Z</time>
      </trkpt>
      <trkpt lat="47.79124" lon="6.75459">
        <ele>1019.133118</ele>
        <time>2018-05-26T14:19:45Z</time>
      </trkpt>
      <trkpt lat="47.79124" lon="6.7547">
        <ele>1018.790527</ele>
        <time>2018-05-26T14:19:46Z</time>
      </trkpt>
      <trkpt lat="47.79123" lon="6.75481">
        <ele>1018.334167</ele>
        <time>2018-05-26T14:19:47Z</time>
      </trkpt>
      <trkpt lat="47.79123" lon="6.75492">
        <ele>1018.045227</ele>
        <time>2018-05-26T14:19:48Z</time>
      </trkpt>
      <trkpt lat="47.79124" lon="6.75503">
        <ele>1017.754333</ele>
        <time>2018-05-26T14:19:49Z</time>
      </trkpt>
      <trkpt lat="47.79124" lon="6.75514">
        <ele>1017.302551</ele>
        <time>2018-05-26T14:19:50Z</time>
      </trkpt>
      <trkpt lat="47.79125" lon="6.75524">
        <ele>1016.999939</ele>
        <time>2018-05-26T14:19:51Z</time>
      </trkpt>
      <trkpt lat="47.79125" lon="6.75535">
        <ele>1016.687317</ele>
        <time>2018-05-26T14:19:52Z</time>
      </trkpt>
      <trkpt lat="47.79125" lon="6.75547">
        <ele>1016.370056</ele>
        <time>2018-05-26T14:19:53Z</time>
      </trkpt>
      <trkpt lat="47.79125" lon="6.75557">
        <ele>1016.060791</ele>
        <time>2018-05-26T14:19:54Z</time>
      </trkpt>
      <trkpt lat="47.79125" lon="6.75568">
        <ele>1015.78595</ele>
        <time>2018-05-26T14:19:55Z</time>
      </trkpt>
      <trkpt lat="47.79126" lon="6.75579">
        <ele>1015.544739</ele>
        <time>2018-05-26T14:19:56Z</time>
      </trkpt>
      <trkpt lat="47.79128" lon="6.75589">
        <ele>1015.32196</ele>
        <time>2018-05-26T14:19:57Z</time>
      </trkpt>
      <trkpt lat="47.7913" lon="6.75599">
        <ele>1015.09259</ele>
        <time>2018-05-26T14:19:58Z</time>
      </trkpt>
      <trkpt lat="47.79132" lon="6.75608">
        <ele>1014.84082</ele>
        <time>2018-05-26T14:19:59Z</time>
      </trkpt>
      <trkpt lat="47.79134" lon="6.75618">
        <ele>1014.562683</ele>
        <time>2018-05-26T14:20:00Z</time>
      </trkpt>
      <trkpt lat="47.79136" lon="6.75627">
        <ele>1014.260315</ele>
        <time>2018-05-26T14:20:01Z</time>
      </trkpt>
      <trkpt lat="47.79137" lon="6.75636">
        <ele>1013.945496</ele>
        <time>2018-05-26T14:20:02Z</time>
      </trkpt>
      <trkpt lat="47.79138" lon="6.75644">
        <ele>1013.642395</ele>
        <time>2018-05-26T14:20:03Z</time>
      </trkpt>
      <trkpt lat="47.79138" lon="6.75652">
        <ele>1013.380066</ele>
        <time>2018-05-26T14:20:04Z</time>
      </trkpt>
      <trkpt lat="47.79138" lon="6.75659">
        <ele>1013.187683</ele>
        <time>2018-05-26T14:20:05Z</time>
      </trkpt>
      <trkpt lat="47.79139" lon="6.75665">
        <ele>1013.094543</ele>
        <time>2018-05-26T14:20:06Z</time>
      </trkpt>
      <trkpt lat="47.7914" lon="6.75671">
        <ele>1013.090027</ele>
        <time>2018-05-26T14:20:07Z</time>
      </trkpt>
      <trkpt lat="47.7914" lon="6.75676">
        <ele>1013.110168</ele>
        <time>2018-05-26T14:20:08Z</time>
      </trkpt>
      <trkpt lat="47.79139" lon="6.75682">
        <ele>1013.219543</ele>
        <time>2018-05-26T14:20:09Z</time>
      </trkpt>
      <trkpt lat="47.79138" lon="6.75686">
        <ele>1013.384766</ele>
        <time>2018-05-26T14:20:10Z</time>
      </trkpt>
      <trkpt lat="47.79131" lon="6.75697">
        <ele>1014.88916</ele>
        <time>2018-05-26T14:21:20Z</time>
      </trkpt>
      <trkpt lat="47.79129" lon="6.75701">
        <ele>1014.845642</ele>
        <time>2018-05-26T14:21:22Z</time>
      </trkpt>
      <trkpt lat="47.79129" lon="6.75706">
        <ele>1014.809509</ele>
        <time>2018-05-26T14:21:23Z</time>
      </trkpt>
      <trkpt lat="47.79128" lon="6.75712">
        <ele>1014.774841</ele>
        <time>2018-05-26T14:21:24Z</time>
      </trkpt>
      <trkpt lat="47.79129" lon="6.75719">
        <ele>1014.723206</ele>
        <time>2018-05-26T14:21:25Z</time>
      </trkpt>
      <trkpt lat="47.79131" lon="6.75725">
        <ele>1014.68988</ele>
        <time>2018-05-26T14:21:26Z</time>
      </trkpt>
      <trkpt lat="47.79133" lon="6.75731">
        <ele>1014.652039</ele>
        <time>2018-05-26T14:21:27Z</time>
      </trkpt>
      <trkpt lat="47.79136" lon="6.75737">
        <ele>1014.601379</ele>
        <time>2018-05-26T14:21:28Z</time>
      </trkpt>
      <trkpt lat="47.79139" lon="6.75742">
        <ele>1014.487854</ele>
        <time>2018-05-26T14:21:29Z</time>
      </trkpt>
      <trkpt lat="47.79143" lon="6.75747">
        <ele>1014.37207</ele>
        <time>2018-05-26T14:21:30Z</time>
      </trkpt>
      <trkpt lat="47.79148" lon="6.75753">
        <ele>1014.218933</ele>
        <time>2018-05-26T14:21:31Z</time>
      </trkpt>
      <trkpt lat="47.79153" lon="6.75758">
        <ele>1013.911072</ele>
        <time>2018-05-26T14:21:32Z</time>
      </trkpt>
      <trkpt lat="47.79158" lon="6.75764">
        <ele>1013.649109</ele>
        <time>2018-05-26T14:21:33Z</time>
      </trkpt>
      <trkpt lat="47.79163" lon="6.75771">
        <ele>1013.331116</ele>
        <time>2018-05-26T14:21:34Z</time>
      </trkpt>
      <trkpt lat="47.79166" lon="6.7578">
        <ele>1012.955261</ele>
        <time>2018-05-26T14:21:35Z</time>
      </trkpt>
      <trkpt lat="47.79166" lon="6.75789">
        <ele>1012.293457</ele>
        <time>2018-05-26T14:21:36Z</time>
      </trkpt>
      <trkpt lat="47.79164" lon="6.75797">
        <ele>1011.815918</ele>
        <time>2018-05-26T14:21:37Z</time>
      </trkpt>
      <trkpt lat="47.79162" lon="6.75805">
        <ele>1011.328857</ele>
        <time>2018-05-26T14:21:38Z</time>
      </trkpt>
      <trkpt lat="47.7916" lon="6.75813">
        <ele>1010.61377</ele>
        <time>2018-05-26T14:21:39Z</time>
      </trkpt>
      <trkpt lat="47.79158" lon="6.7582">
        <ele>1010.17749</ele>
        <time>2018-05-26T14:21:40Z</time>
      </trkpt>
      <trkpt lat="47.79156" lon="6.75828">
        <ele>1009.803955</ele>
        <time>2018-05-26T14:21:41Z</time>
      </trkpt>
      <trkpt lat="47.79152" lon="6.75837">
        <ele>1009.48822</ele>
        <time>2018-05-26T14:21:42Z</time>
      </trkpt>
      <trkpt lat="47.79149" lon="6.75848">
        <ele>1009.202393</ele>
        <time>2018-05-26T14:21:43Z</time>
      </trkpt>
      <trkpt lat="47.79145" lon="6.7586">
        <ele>1008.917236</ele>
        <time>2018-05-26T14:21:44Z</time>
      </trkpt>
      <trkpt lat="47.7914" lon="6.75872">
        <ele>1008.764404</ele>
        <time>2018-05-26T14:21:45Z</time>
      </trkpt>
      <trkpt lat="47.79136" lon="6.75885">
        <ele>1008.600769</ele>
        <time>2018-05-26T14:21:46Z</time>
      </trkpt>
      <trkpt lat="47.79132" lon="6.75898">
        <ele>1008.424866</ele>
        <time>2018-05-26T14:21:47Z</time>
      </trkpt>
      <trkpt lat="47.79128" lon="6.75912">
        <ele>1008.020935</ele>
        <time>2018-05-26T14:21:48Z</time>
      </trkpt>
      <trkpt lat="47.79124" lon="6.75925">
        <ele>1007.222473</ele>
        <time>2018-05-26T14:21:49Z</time>
      </trkpt>
      <trkpt lat="47.79118" lon="6.75939">
        <ele>1006.534973</ele>
        <time>2018-05-26T14:21:50Z</time>
      </trkpt>
      <trkpt lat="47.79113" lon="6.75952">
        <ele>1005.718445</ele>
        <time>2018-05-26T14:21:51Z</time>
      </trkpt>
      <trkpt lat="47.79108" lon="6.75966">
        <ele>1004.267395</ele>
        <time>2018-05-26T14:21:52Z</time>
      </trkpt>
      <trkpt lat="47.79103" lon="6.7598">
        <ele>1003.147766</ele>
        <time>2018-05-26T14:21:53Z</time>
      </trkpt>
      <trkpt lat="47.79099" lon="6.75995">
        <ele>1001.907715</ele>
        <time>2018-05-26T14:21:54Z</time>
      </trkpt>
      <trkpt lat="47.79098" lon="6.76011">
        <ele>999.938171</ele>
        <time>2018-05-26T14:21:55Z</time>
      </trkpt>
      <trkpt lat="47.79096" lon="6.76026">
        <ele>998.617981</ele>
        <time>2018-05-26T14:21:56Z</time>
      </trkpt>
      <trkpt lat="47.79097" lon="6.7604">
        <ele>997.304749</ele>
        <time>2018-05-26T14:21:57Z</time>
      </trkpt>
      <trkpt lat="47.79101" lon="6.76052">
        <ele>996.012634</ele>
        <time>2018-05-26T14:21:58Z</time>
      </trkpt>
      <trkpt lat="47.79106" lon="6.76064">
        <ele>994.17804</ele>
        <time>2018-05-26T14:21:59Z</time>
      </trkpt>
      <trkpt lat="47.79111" lon="6.76071">
        <ele>993.085144</ele>
        <time>2018-05-26T14:22:00Z</time>
      </trkpt>
      <trkpt lat="47.79119" lon="6.76074">
        <ele>992.104736</ele>
        <time>2018-05-26T14:22:01Z</time>
      </trkpt>
      <trkpt lat="47.79126" lon="6.76075">
        <ele>991.253479</ele>
        <time>2018-05-26T14:22:02Z</time>
      </trkpt>
      <trkpt lat="47.79133" lon="6.76077">
        <ele>990.237061</ele>
        <time>2018-05-26T14:22:03Z</time>
      </trkpt>
      <trkpt lat="47.7914" lon="6.76079">
        <ele>989.731018</ele>
        <time>2018-05-26T14:22:04Z</time>
      </trkpt>
      <trkpt lat="47.79147" lon="6.7608">
        <ele>989.149231</ele>
        <time>2018-05-26T14:22:05Z</time>
      </trkpt>
      <trkpt lat="47.79154" lon="6.76081">
        <ele>988.850586</ele>
        <time>2018-05-26T14:22:06Z</time>
      </trkpt>
      <trkpt lat="47.7916" lon="6.76082">
        <ele>988.613464</ele>
        <time>2018-05-26T14:22:07Z</time>
      </trkpt>
      <trkpt lat="47.79165" lon="6.76082">
        <ele>988.378723</ele>
        <time>2018-05-26T14:22:08Z</time>
      </trkpt>
      <trkpt lat="47.7917" lon="6.76081">
        <ele>988.308594</ele>
        <time>2018-05-26T14:22:09Z</time>
      </trkpt>
      <trkpt lat="47.79174" lon="6.7608">
        <ele>988.303772</ele>
        <time>2018-05-26T14:22:10Z</time>
      </trkpt>
      <trkpt lat="47.79179" lon="6.76079">
        <ele>988.350586</ele>
        <time>2018-05-26T14:22:11Z</time>
      </trkpt>
      <trkpt lat="47.79183" lon="6.76079">
        <ele>988.468811</ele>
        <time>2018-05-26T14:22:12Z</time>
      </trkpt>
      <trkpt lat="47.79187" lon="6.76078">
        <ele>988.739441</ele>
        <time>2018-05-26T14:22:13Z</time>
      </trkpt>
      <trkpt lat="47.7919" lon="6.76078">
        <ele>988.968262</ele>
        <time>2018-05-26T14:22:14Z</time>
      </trkpt>
      <trkpt lat="47.79194" lon="6.76077">
        <ele>989.35791</ele>
        <time>2018-05-26T14:22:15Z</time>
      </trkpt>
      <trkpt lat="47.79197" lon="6.76076">
        <ele>989.625549</ele>
        <time>2018-05-26T14:22:16Z</time>
      </trkpt>
      <trkpt lat="47.792" lon="6.76076">
        <ele>989.877441</ele>
        <time>2018-05-26T14:22:17Z</time>
      </trkpt>
      <trkpt lat="47.79203" lon="6.76075">
        <ele>990.20636</ele>
        <time>2018-05-26T14:22:18Z</time>
      </trkpt>
      <trkpt lat="47.79206" lon="6.76075">
        <ele>990.394714</ele>
        <time>2018-05-26T14:22:19Z</time>
      </trkpt>
      <trkpt lat="47.79208" lon="6.76076">
        <ele>990.568054</ele>
        <time>2018-05-26T14:22:20Z</time>
      </trkpt>
      <trkpt lat="47.79211" lon="6.76076">
        <ele>990.795593</ele>
        <time>2018-05-26T14:22:21Z</time>
      </trkpt>
      <trkpt lat="47.79214" lon="6.76076">
        <ele>990.924988</ele>
        <time>2018-05-26T14:22:22Z</time>
      </trkpt>
      <trkpt lat="47.79217" lon="6.76077">
        <ele>991.107727</ele>
        <time>2018-05-26T14:22:23Z</time>
      </trkpt>
      <trkpt lat="47.79221" lon="6.76078">
        <ele>991.239807</ele>
        <time>2018-05-26T14:22:24Z</time>
      </trkpt>
      <trkpt lat="47.79224" lon="6.76078">
        <ele>991.382507</ele>
        <time>2018-05-26T14:22:25Z</time>
      </trkpt>
      <trkpt lat="47.79226" lon="6.76078">
        <ele>991.608093</ele>
        <time>2018-05-26T14:22:26Z</time>
      </trkpt>
      <trkpt lat="47.79229" lon="6.76078">
        <ele>991.762268</ele>
        <time>2018-05-26T14:22:27Z</time>
      </trkpt>
      <trkpt lat="47.79232" lon="6.76077">
        <ele>991.918701</ele>
        <time>2018-05-26T14:22:28Z</time>
      </trkpt>
      <trkpt lat="47.79235" lon="6.76077">
        <ele>992.156982</ele>
        <time>2018-05-26T14:22:29Z</time>
      </trkpt>
      <trkpt lat="47.79238" lon="6.76077">
        <ele>992.316711</ele>
        <time>2018-05-26T14:22:30Z</time>
      </trkpt>
      <trkpt lat="47.79241" lon="6.76077">
        <ele>992.561768</ele>
        <time>2018-05-26T14:22:31Z</time>
      </trkpt>
      <trkpt lat="47.79244" lon="6.76077">
        <ele>992.73468</ele>
        <time>2018-05-26T14:22:32Z</time>
      </trkpt>
      <trkpt lat="47.79247" lon="6.76076">
        <ele>992.911926</ele>
        <time>2018-05-26T14:22:33Z</time>
      </trkpt>
      <trkpt lat="47.79249" lon="6.76076">
        <ele>993.164246</ele>
        <time>2018-05-26T14:22:34Z</time>
      </trkpt>
      <trkpt lat="47.79251" lon="6.76077">
        <ele>993.317383</ele>
        <time>2018-05-26T14:22:35Z</time>
      </trkpt>
      <trkpt lat="47.79253" lon="6.76078">
        <ele>993.459473</ele>
        <time>2018-05-26T14:22:36Z</time>
      </trkpt>
      <trkpt lat="47.79256" lon="6.76078">
        <ele>993.65387</ele>
        <time>2018-05-26T14:22:37Z</time>
      </trkpt>
      <trkpt lat="47.7926" lon="6.76078">
        <ele>993.764954</ele>
        <time>2018-05-26T14:22:38Z</time>
      </trkpt>
      <trkpt lat="47.79264" lon="6.76079">
        <ele>993.855408</ele>
        <time>2018-05-26T14:22:39Z</time>
      </trkpt>
      <trkpt lat="47.79268" lon="6.7608">
        <ele>993.958496</ele>
        <time>2018-05-26T14:22:40Z</time>
      </trkpt>
      <trkpt lat="47.79271" lon="6.76082">
        <ele>994.015137</ele>
        <time>2018-05-26T14:22:41Z</time>
      </trkpt>
      <trkpt lat="47.79275" lon="6.76084">
        <ele>994.065369</ele>
        <time>2018-05-26T14:22:42Z</time>
      </trkpt>
      <trkpt lat="47.79278" lon="6.76086">
        <ele>994.068359</ele>
        <time>2018-05-26T14:22:43Z</time>
      </trkpt>
      <trkpt lat="47.79282" lon="6.76088">
        <ele>994.063293</ele>
        <time>2018-05-26T14:22:44Z</time>
      </trkpt>
      <trkpt lat="47.79285" lon="6.7609">
        <ele>994.050476</ele>
        <time>2018-05-26T14:22:45Z</time>
      </trkpt>
      <trkpt lat="47.79289" lon="6.76094">
        <ele>994.031677</ele>
        <time>2018-05-26T14:22:46Z</time>
      </trkpt>
      <trkpt lat="47.79293" lon="6.76097">
        <ele>993.954346</ele>
        <time>2018-05-26T14:22:47Z</time>
      </trkpt>
      <trkpt lat="47.79298" lon="6.76101">
        <ele>993.878723</ele>
        <time>2018-05-26T14:22:48Z</time>
      </trkpt>
      <trkpt lat="47.79302" lon="6.76103">
        <ele>993.775879</ele>
        <time>2018-05-26T14:22:49Z</time>
      </trkpt>
      <trkpt lat="47.79307" lon="6.76106">
        <ele>993.556702</ele>
        <time>2018-05-26T14:22:50Z</time>
      </trkpt>
      <trkpt lat="47.79312" lon="6.76109">
        <ele>993.351746</ele>
        <time>2018-05-26T14:22:51Z</time>
      </trkpt>
      <trkpt lat="47.79318" lon="6.76113">
        <ele>993.085999</ele>
        <time>2018-05-26T14:22:52Z</time>
      </trkpt>
      <trkpt lat="47.79322" lon="6.76118">
        <ele>992.571472</ele>
        <time>2018-05-26T14:22:53Z</time>
      </trkpt>
      <trkpt lat="47.79327" lon="6.76125">
        <ele>992.1828</ele>
        <time>2018-05-26T14:22:54Z</time>
      </trkpt>
      <trkpt lat="47.79332" lon="6.76133">
        <ele>991.783508</ele>
        <time>2018-05-26T14:22:55Z</time>
      </trkpt>
      <trkpt lat="47.79336" lon="6.76141">
        <ele>991.376465</ele>
        <time>2018-05-26T14:22:56Z</time>
      </trkpt>
      <trkpt lat="47.7934" lon="6.76148">
        <ele>990.726868</ele>
        <time>2018-05-26T14:22:57Z</time>
      </trkpt>
      <trkpt lat="47.79345" lon="6.76156">
        <ele>990.270264</ele>
        <time>2018-05-26T14:22:58Z</time>
      </trkpt>
      <trkpt lat="47.7935" lon="6.76164">
        <ele>989.813232</ele>
        <time>2018-05-26T14:22:59Z</time>
      </trkpt>
      <trkpt lat="47.79354" lon="6.76172">
        <ele>989.125488</ele>
        <time>2018-05-26T14:23:00Z</time>
      </trkpt>
      <trkpt lat="47.79359" lon="6.7618">
        <ele>988.644714</ele>
        <time>2018-05-26T14:23:01Z</time>
      </trkpt>
      <trkpt lat="47.79363" lon="6.7619">
        <ele>988.136658</ele>
        <time>2018-05-26T14:23:02Z</time>
      </trkpt>
      <trkpt lat="47.79367" lon="6.76199">
        <ele>987.335022</ele>
        <time>2018-05-26T14:23:03Z</time>
      </trkpt>
      <trkpt lat="47.79369" lon="6.76207">
        <ele>986.776367</ele>
        <time>2018-05-26T14:23:04Z</time>
      </trkpt>
      <trkpt lat="47.79369" lon="6.76215">
        <ele>986.204102</ele>
        <time>2018-05-26T14:23:05Z</time>
      </trkpt>
      <trkpt lat="47.79367" lon="6.7622">
        <ele>985.637512</ele>
        <time>2018-05-26T14:23:06Z</time>
      </trkpt>
      <trkpt lat="47.79364" lon="6.76225">
        <ele>985.09906</ele>
        <time>2018-05-26T14:23:07Z</time>
      </trkpt>
      <trkpt lat="47.7936" lon="6.76229">
        <ele>984.357117</ele>
        <time>2018-05-26T14:23:08Z</time>
      </trkpt>
      <trkpt lat="47.79355" lon="6.76231">
        <ele>983.890381</ele>
        <time>2018-05-26T14:23:09Z</time>
      </trkpt>
      <trkpt lat="47.79348" lon="6.76229">
        <ele>983.438477</ele>
        <time>2018-05-26T14:23:10Z</time>
      </trkpt>
      <trkpt lat="47.79341" lon="6.7623">
        <ele>982.802185</ele>
        <time>2018-05-26T14:23:11Z</time>
      </trkpt>
      <trkpt lat="47.79335" lon="6.76229">
        <ele>982.41803</ele>
        <time>2018-05-26T14:23:12Z</time>
      </trkpt>
      <trkpt lat="47.79327" lon="6.76229">
        <ele>981.882813</ele>
        <time>2018-05-26T14:23:13Z</time>
      </trkpt>
      <trkpt lat="47.79321" lon="6.7623">
        <ele>981.515442</ele>
        <time>2018-05-26T14:23:14Z</time>
      </trkpt>
      <trkpt lat="47.79313" lon="6.7623">
        <ele>981.09613</ele>
        <time>2018-05-26T14:23:15Z</time>
      </trkpt>
      <trkpt lat="47.79306" lon="6.76233">
        <ele>980.343811</ele>
        <time>2018-05-26T14:23:16Z</time>
      </trkpt>
      <trkpt lat="47.793" lon="6.76237">
        <ele>979.757996</ele>
        <time>2018-05-26T14:23:17Z</time>
      </trkpt>
      <trkpt lat="47.79295" lon="6.76243">
        <ele>978.755859</ele>
        <time>2018-05-26T14:23:18Z</time>
      </trkpt>
      <trkpt lat="47.7929" lon="6.76252">
        <ele>978.009705</ele>
        <time>2018-05-26T14:23:19Z</time>
      </trkpt>
      <trkpt lat="47.79287" lon="6.76263">
        <ele>977.202148</ele>
        <time>2018-05-26T14:23:20Z</time>
      </trkpt>
      <trkpt lat="47.79285" lon="6.76275">
        <ele>975.898621</ele>
        <time>2018-05-26T14:23:21Z</time>
      </trkpt>
      <trkpt lat="47.79283" lon="6.76287">
        <ele>974.98468</ele>
        <time>2018-05-26T14:23:22Z</time>
      </trkpt>
      <trkpt lat="47.79282" lon="6.76299">
        <ele>974.062195</ele>
        <time>2018-05-26T14:23:23Z</time>
      </trkpt>
      <trkpt lat="47.79281" lon="6.76308">
        <ele>973.176208</ele>
        <time>2018-05-26T14:23:24Z</time>
      </trkpt>
      <trkpt lat="47.79281" lon="6.76316">
        <ele>972.362122</ele>
        <time>2018-05-26T14:23:25Z</time>
      </trkpt>
      <trkpt lat="47.7928" lon="6.76323">
        <ele>971.650208</ele>
        <time>2018-05-26T14:23:26Z</time>
      </trkpt>
      <trkpt lat="47.79279" lon="6.76329">
        <ele>971.051758</ele>
        <time>2018-05-26T14:23:27Z</time>
      </trkpt>
      <trkpt lat="47.79279" lon="6.76335">
        <ele>970.596191</ele>
        <time>2018-05-26T14:23:28Z</time>
      </trkpt>
      <trkpt lat="47.79278" lon="6.76339">
        <ele>970.324036</ele>
        <time>2018-05-26T14:23:29Z</time>
      </trkpt>
      <trkpt lat="47.79277" lon="6.76343">
        <ele>970.259521</ele>
        <time>2018-05-26T14:23:30Z</time>
      </trkpt>
      <trkpt lat="47.79276" lon="6.76346">
        <ele>970.29541</ele>
        <time>2018-05-26T14:23:31Z</time>
      </trkpt>
      <trkpt lat="47.79275" lon="6.76349">
        <ele>970.470886</ele>
        <time>2018-05-26T14:23:32Z</time>
      </trkpt>
      <trkpt lat="47.79274" lon="6.76352">
        <ele>970.714539</ele>
        <time>2018-05-26T14:23:33Z</time>
      </trkpt>
      <trkpt lat="47.79273" lon="6.76356">
        <ele>971.143005</ele>
        <time>2018-05-26T14:23:34Z</time>
      </trkpt>
      <trkpt lat="47.79273" lon="6.76359">
        <ele>971.452454</ele>
        <time>2018-05-26T14:23:35Z</time>
      </trkpt>
      <trkpt lat="47.79272" lon="6.76362">
        <ele>971.77002</ele>
        <time>2018-05-26T14:23:36Z</time>
      </trkpt>
      <trkpt lat="47.79272" lon="6.76365">
        <ele>972.080505</ele>
        <time>2018-05-26T14:23:37Z</time>
      </trkpt>
      <trkpt lat="47.79272" lon="6.76368">
        <ele>972.512512</ele>
        <time>2018-05-26T14:23:38Z</time>
      </trkpt>
      <trkpt lat="47.79271" lon="6.76372">
        <ele>972.778381</ele>
        <time>2018-05-26T14:23:39Z</time>
      </trkpt>
      <trkpt lat="47.7927" lon="6.76375">
        <ele>973.021484</ele>
        <time>2018-05-26T14:23:40Z</time>
      </trkpt>
      <trkpt lat="47.79269" lon="6.76378">
        <ele>973.237549</ele>
        <time>2018-05-26T14:23:41Z</time>
      </trkpt>
      <trkpt lat="47.79268" lon="6.7638">
        <ele>973.429688</ele>
        <time>2018-05-26T14:23:42Z</time>
      </trkpt>
      <trkpt lat="47.79266" lon="6.76383">
        <ele>973.607483</ele>
        <time>2018-05-26T14:23:43Z</time>
      </trkpt>
      <trkpt lat="47.79266" lon="6.76385">
        <ele>973.878601</ele>
        <time>2018-05-26T14:23:44Z</time>
      </trkpt>
      <trkpt lat="47.79265" lon="6.76388">
        <ele>973.974304</ele>
        <time>2018-05-26T14:23:45Z</time>
      </trkpt>
      <trkpt lat="47.79265" lon="6.7639">
        <ele>974.177429</ele>
        <time>2018-05-26T14:23:46Z</time>
      </trkpt>
      <trkpt lat="47.79265" lon="6.76392">
        <ele>974.388916</ele>
        <time>2018-05-26T14:23:47Z</time>
      </trkpt>
      <trkpt lat="47.79264" lon="6.76395">
        <ele>974.607239</ele>
        <time>2018-05-26T14:23:48Z</time>
      </trkpt>
      <trkpt lat="47.79263" lon="6.76398">
        <ele>974.827637</ele>
        <time>2018-05-26T14:23:49Z</time>
      </trkpt>
      <trkpt lat="47.79263" lon="6.76401">
        <ele>975.046204</ele>
        <time>2018-05-26T14:23:50Z</time>
      </trkpt>
      <trkpt lat="47.79263" lon="6.76404">
        <ele>975.255432</ele>
        <time>2018-05-26T14:23:51Z</time>
      </trkpt>
      <trkpt lat="47.79263" lon="6.76407">
        <ele>975.451172</ele>
        <time>2018-05-26T14:23:52Z</time>
      </trkpt>
      <trkpt lat="47.79263" lon="6.7641">
        <ele>975.633057</ele>
        <time>2018-05-26T14:23:53Z</time>
      </trkpt>
      <trkpt lat="47.79263" lon="6.76412">
        <ele>975.800049</ele>
        <time>2018-05-26T14:23:54Z</time>
      </trkpt>
      <trkpt lat="47.79263" lon="6.76414">
        <ele>976.033508</ele>
        <time>2018-05-26T14:23:55Z</time>
      </trkpt>
      <trkpt lat="47.79263" lon="6.76416">
        <ele>976.182678</ele>
        <time>2018-05-26T14:23:56Z</time>
      </trkpt>
      <trkpt lat="47.79263" lon="6.76419">
        <ele>976.330505</ele>
        <time>2018-05-26T14:23:57Z</time>
      </trkpt>
      <trkpt lat="47.79264" lon="6.76421">
        <ele>976.480164</ele>
        <time>2018-05-26T14:23:58Z</time>
      </trkpt>
      <trkpt lat="47.79265" lon="6.76424">
        <ele>976.635498</ele>
        <time>2018-05-26T14:23:59Z</time>
      </trkpt>
      <trkpt lat="47.79265" lon="6.76427">
        <ele>976.79834</ele>
        <time>2018-05-26T14:24:00Z</time>
      </trkpt>
      <trkpt lat="47.79264" lon="6.76429">
        <ele>977.041992</ele>
        <time>2018-05-26T14:24:01Z</time>
      </trkpt>
      <trkpt lat="47.79265" lon="6.76432">
        <ele>977.18927</ele>
        <time>2018-05-26T14:24:02Z</time>
      </trkpt>
      <trkpt lat="47.79265" lon="6.76434">
        <ele>977.322266</ele>
        <time>2018-05-26T14:24:03Z</time>
      </trkpt>
      <trkpt lat="47.79265" lon="6.76437">
        <ele>977.51416</ele>
        <time>2018-05-26T14:24:04Z</time>
      </trkpt>
      <trkpt lat="47.79266" lon="6.76439">
        <ele>977.645264</ele>
        <time>2018-05-26T14:24:05Z</time>
      </trkpt>
      <trkpt lat="47.79266" lon="6.76441">
        <ele>977.787354</ele>
        <time>2018-05-26T14:24:06Z</time>
      </trkpt>
      <trkpt lat="47.79267" lon="6.76443">
        <ele>977.938538</ele>
        <time>2018-05-26T14:24:07Z</time>
      </trkpt>
      <trkpt lat="47.79268" lon="6.76445">
        <ele>978.10791</ele>
        <time>2018-05-26T14:24:08Z</time>
      </trkpt>
      <trkpt lat="47.79268" lon="6.76447">
        <ele>978.293152</ele>
        <time>2018-05-26T14:24:09Z</time>
      </trkpt>
      <trkpt lat="47.79269" lon="6.7645">
        <ele>978.491699</ele>
        <time>2018-05-26T14:24:10Z</time>
      </trkpt>
      <trkpt lat="47.79269" lon="6.76452">
        <ele>978.690186</ele>
        <time>2018-05-26T14:24:11Z</time>
      </trkpt>
      <trkpt lat="47.7927" lon="6.76454">
        <ele>978.880371</ele>
        <time>2018-05-26T14:24:12Z</time>
      </trkpt>
      <trkpt lat="47.79271" lon="6.76456">
        <ele>979.061035</ele>
        <time>2018-05-26T14:24:13Z</time>
      </trkpt>
      <trkpt lat="47.79271" lon="6.76459">
        <ele>979.317688</ele>
        <time>2018-05-26T14:24:14Z</time>
      </trkpt>
      <trkpt lat="47.79272" lon="6.76461">
        <ele>979.475586</ele>
        <time>2018-05-26T14:24:15Z</time>
      </trkpt>
      <trkpt lat="47.79273" lon="6.76463">
        <ele>979.618958</ele>
        <time>2018-05-26T14:24:16Z</time>
      </trkpt>
      <trkpt lat="47.79273" lon="6.76465">
        <ele>979.753113</ele>
        <time>2018-05-26T14:24:17Z</time>
      </trkpt>
      <trkpt lat="47.79274" lon="6.76467">
        <ele>979.883301</ele>
        <time>2018-05-26T14:24:18Z</time>
      </trkpt>
      <trkpt lat="47.79275" lon="6.7647">
        <ele>980.01239</ele>
        <time>2018-05-26T14:24:19Z</time>
      </trkpt>
      <trkpt lat="47.79275" lon="6.76472">
        <ele>980.137878</ele>
        <time>2018-05-26T14:24:20Z</time>
      </trkpt>
      <trkpt lat="47.79276" lon="6.76474">
        <ele>980.264404</ele>
        <time>2018-05-26T14:24:21Z</time>
      </trkpt>
      <trkpt lat="47.79277" lon="6.76477">
        <ele>980.395203</ele>
        <time>2018-05-26T14:24:22Z</time>
      </trkpt>
      <trkpt lat="47.79277" lon="6.76479">
        <ele>980.530212</ele>
        <time>2018-05-26T14:24:23Z</time>
      </trkpt>
      <trkpt lat="47.79277" lon="6.76481">
        <ele>980.666321</ele>
        <time>2018-05-26T14:24:24Z</time>
      </trkpt>
      <trkpt lat="47.79277" lon="6.76484">
        <ele>980.809753</ele>
        <time>2018-05-26T14:24:25Z</time>
      </trkpt>
      <trkpt lat="47.79277" lon="6.76486">
        <ele>980.969055</ele>
        <time>2018-05-26T14:24:26Z</time>
      </trkpt>
      <trkpt lat="47.79277" lon="6.76489">
        <ele>981.140137</ele>
        <time>2018-05-26T14:24:27Z</time>
      </trkpt>
      <trkpt lat="47.79278" lon="6.76491">
        <ele>981.313293</ele>
        <time>2018-05-26T14:24:28Z</time>
      </trkpt>
      <trkpt lat="47.79278" lon="6.76493">
        <ele>981.483093</ele>
        <time>2018-05-26T14:24:29Z</time>
      </trkpt>
      <trkpt lat="47.79278" lon="6.76495">
        <ele>981.661133</ele>
        <time>2018-05-26T14:24:30Z</time>
      </trkpt>
      <trkpt lat="47.79279" lon="6.76498">
        <ele>981.855896</ele>
        <time>2018-05-26T14:24:31Z</time>
      </trkpt>
      <trkpt lat="47.79279" lon="6.765">
        <ele>982.172363</ele>
        <time>2018-05-26T14:24:32Z</time>
      </trkpt>
      <trkpt lat="47.7928" lon="6.76503">
        <ele>982.377258</ele>
        <time>2018-05-26T14:24:33Z</time>
      </trkpt>
      <trkpt lat="47.79281" lon="6.76505">
        <ele>982.568054</ele>
        <time>2018-05-26T14:24:34Z</time>
      </trkpt>
      <trkpt lat="47.79281" lon="6.76508">
        <ele>982.743835</ele>
        <time>2018-05-26T14:24:35Z</time>
      </trkpt>
      <trkpt lat="47.79282" lon="6.7651">
        <ele>982.983337</ele>
        <time>2018-05-26T14:24:36Z</time>
      </trkpt>
      <trkpt lat="47.79282" lon="6.76513">
        <ele>983.132263</ele>
        <time>2018-05-26T14:24:37Z</time>
      </trkpt>
      <trkpt lat="47.79283" lon="6.76515">
        <ele>983.276428</ele>
        <time>2018-05-26T14:24:38Z</time>
      </trkpt>
      <trkpt lat="47.79284" lon="6.76518">
        <ele>983.413879</ele>
        <time>2018-05-26T14:24:39Z</time>
      </trkpt>
      <trkpt lat="47.79285" lon="6.7652">
        <ele>983.538879</ele>
        <time>2018-05-26T14:24:40Z</time>
      </trkpt>
      <trkpt lat="47.79285" lon="6.76521">
        <ele>983.814148</ele>
        <time>2018-05-26T14:24:41Z</time>
      </trkpt>
      <trkpt lat="47.79286" lon="6.76523">
        <ele>983.920715</ele>
        <time>2018-05-26T14:24:43Z</time>
      </trkpt>
      <trkpt lat="47.79287" lon="6.76526">
        <ele>984.022278</ele>
        <time>2018-05-26T14:24:44Z</time>
      </trkpt>
      <trkpt lat="47.79288" lon="6.76528">
        <ele>984.165771</ele>
        <time>2018-05-26T14:24:45Z</time>
      </trkpt>
      <trkpt lat="47.79289" lon="6.7653">
        <ele>984.213074</ele>
        <time>2018-05-26T14:24:46Z</time>
      </trkpt>
      <trkpt lat="47.7929" lon="6.76532">
        <ele>984.213074</ele>
        <time>2018-05-26T14:24:47Z</time>
      </trkpt>
      <trkpt lat="47.7929" lon="6.76535">
        <ele>984.308838</ele>
        <time>2018-05-26T14:24:48Z</time>
      </trkpt>
      <trkpt lat="47.79291" lon="6.76537">
        <ele>984.405823</ele>
        <time>2018-05-26T14:24:49Z</time>
      </trkpt>
      <trkpt lat="47.79292" lon="6.7654">
        <ele>984.498108</ele>
        <time>2018-05-26T14:24:50Z</time>
      </trkpt>
      <trkpt lat="47.79292" lon="6.76542">
        <ele>984.630066</ele>
        <time>2018-05-26T14:24:51Z</time>
      </trkpt>
      <trkpt lat="47.79293" lon="6.76544">
        <ele>984.724548</ele>
        <time>2018-05-26T14:24:52Z</time>
      </trkpt>
      <trkpt lat="47.79294" lon="6.76546">
        <ele>984.827698</ele>
        <time>2018-05-26T14:24:53Z</time>
      </trkpt>
      <trkpt lat="47.79295" lon="6.76549">
        <ele>985.001404</ele>
        <time>2018-05-26T14:24:54Z</time>
      </trkpt>
      <trkpt lat="47.79296" lon="6.76551">
        <ele>985.126404</ele>
        <time>2018-05-26T14:24:55Z</time>
      </trkpt>
      <trkpt lat="47.79297" lon="6.76553">
        <ele>985.255554</ele>
        <time>2018-05-26T14:24:56Z</time>
      </trkpt>
      <trkpt lat="47.79298" lon="6.76556">
        <ele>985.436035</ele>
        <time>2018-05-26T14:24:57Z</time>
      </trkpt>
      <trkpt lat="47.79298" lon="6.76558">
        <ele>985.54364</ele>
        <time>2018-05-26T14:24:58Z</time>
      </trkpt>
      <trkpt lat="47.793" lon="6.7656">
        <ele>985.638855</ele>
        <time>2018-05-26T14:24:59Z</time>
      </trkpt>
      <trkpt lat="47.79301" lon="6.76562">
        <ele>985.728088</ele>
        <time>2018-05-26T14:25:00Z</time>
      </trkpt>
      <trkpt lat="47.79302" lon="6.76563">
        <ele>985.817139</ele>
        <time>2018-05-26T14:25:01Z</time>
      </trkpt>
      <trkpt lat="47.79304" lon="6.76565">
        <ele>985.958008</ele>
        <time>2018-05-26T14:25:02Z</time>
      </trkpt>
      <trkpt lat="47.79305" lon="6.76568">
        <ele>986.059143</ele>
        <time>2018-05-26T14:25:03Z</time>
      </trkpt>
      <trkpt lat="47.79305" lon="6.7657">
        <ele>986.170654</ele>
        <time>2018-05-26T14:25:04Z</time>
      </trkpt>
      <trkpt lat="47.79306" lon="6.76572">
        <ele>986.291992</ele>
        <time>2018-05-26T14:25:05Z</time>
      </trkpt>
      <trkpt lat="47.79307" lon="6.76574">
        <ele>986.490234</ele>
        <time>2018-05-26T14:25:06Z</time>
      </trkpt>
      <trkpt lat="47.79308" lon="6.76576">
        <ele>986.629211</ele>
        <time>2018-05-26T14:25:07Z</time>
      </trkpt>
      <trkpt lat="47.79309" lon="6.76578">
        <ele>986.770935</ele>
        <time>2018-05-26T14:25:08Z</time>
      </trkpt>
      <trkpt lat="47.7931" lon="6.7658">
        <ele>986.911926</ele>
        <time>2018-05-26T14:25:09Z</time>
      </trkpt>
      <trkpt lat="47.79311" lon="6.76581">
        <ele>987.125671</ele>
        <time>2018-05-26T14:25:10Z</time>
      </trkpt>
      <trkpt lat="47.79311" lon="6.76584">
        <ele>987.263611</ele>
        <time>2018-05-26T14:25:11Z</time>
      </trkpt>
      <trkpt lat="47.79312" lon="6.76586">
        <ele>987.403259</ele>
        <time>2018-05-26T14:25:12Z</time>
      </trkpt>
      <trkpt lat="47.79313" lon="6.76588">
        <ele>987.623718</ele>
        <time>2018-05-26T14:25:13Z</time>
      </trkpt>
      <trkpt lat="47.79314" lon="6.76591">
        <ele>987.771423</ele>
        <time>2018-05-26T14:25:14Z</time>
      </trkpt>
      <trkpt lat="47.79315" lon="6.76593">
        <ele>987.916809</ele>
        <time>2018-05-26T14:25:15Z</time>
      </trkpt>
      <trkpt lat="47.79316" lon="6.76595">
        <ele>988.145264</ele>
        <time>2018-05-26T14:25:16Z</time>
      </trkpt>
      <trkpt lat="47.79317" lon="6.76597">
        <ele>988.307922</ele>
        <time>2018-05-26T14:25:17Z</time>
      </trkpt>
      <trkpt lat="47.79318" lon="6.766">
        <ele>988.473145</ele>
        <time>2018-05-26T14:25:18Z</time>
      </trkpt>
      <trkpt lat="47.79319" lon="6.76602">
        <ele>988.713562</ele>
        <time>2018-05-26T14:25:19Z</time>
      </trkpt>
      <trkpt lat="47.79319" lon="6.76604">
        <ele>988.860657</ele>
        <time>2018-05-26T14:25:20Z</time>
      </trkpt>
      <trkpt lat="47.79321" lon="6.76606">
        <ele>988.988525</ele>
        <time>2018-05-26T14:25:21Z</time>
      </trkpt>
      <trkpt lat="47.79322" lon="6.76608">
        <ele>989.15802</ele>
        <time>2018-05-26T14:25:22Z</time>
      </trkpt>
      <trkpt lat="47.79323" lon="6.7661">
        <ele>989.26709</ele>
        <time>2018-05-26T14:25:23Z</time>
      </trkpt>
      <trkpt lat="47.79324" lon="6.76612">
        <ele>989.385681</ele>
        <time>2018-05-26T14:25:24Z</time>
      </trkpt>
      <trkpt lat="47.79324" lon="6.76615">
        <ele>989.588196</ele>
        <time>2018-05-26T14:25:25Z</time>
      </trkpt>
      <trkpt lat="47.79324" lon="6.76617">
        <ele>989.741699</ele>
        <time>2018-05-26T14:25:26Z</time>
      </trkpt>
      <trkpt lat="47.79325" lon="6.7662">
        <ele>989.905334</ele>
        <time>2018-05-26T14:25:27Z</time>
      </trkpt>
      <trkpt lat="47.79326" lon="6.76622">
        <ele>990.16156</ele>
        <time>2018-05-26T14:25:28Z</time>
      </trkpt>
      <trkpt lat="47.79327" lon="6.76624">
        <ele>990.325012</ele>
        <time>2018-05-26T14:25:29Z</time>
      </trkpt>
      <trkpt lat="47.79327" lon="6.76626">
        <ele>990.473877</ele>
        <time>2018-05-26T14:25:30Z</time>
      </trkpt>
      <trkpt lat="47.79329" lon="6.76629">
        <ele>990.607361</ele>
        <time>2018-05-26T14:25:31Z</time>
      </trkpt>
      <trkpt lat="47.7933" lon="6.76631">
        <ele>990.786865</ele>
        <time>2018-05-26T14:25:32Z</time>
      </trkpt>
      <trkpt lat="47.79331" lon="6.76633">
        <ele>990.899353</ele>
        <time>2018-05-26T14:25:33Z</time>
      </trkpt>
      <trkpt lat="47.79332" lon="6.76634">
        <ele>991.007263</ele>
        <time>2018-05-26T14:25:34Z</time>
      </trkpt>
      <trkpt lat="47.79334" lon="6.76636">
        <ele>991.113586</ele>
        <time>2018-05-26T14:25:35Z</time>
      </trkpt>
      <trkpt lat="47.79335" lon="6.76638">
        <ele>991.27124</ele>
        <time>2018-05-26T14:25:36Z</time>
      </trkpt>
      <trkpt lat="47.79337" lon="6.7664">
        <ele>991.377258</ele>
        <time>2018-05-26T14:25:37Z</time>
      </trkpt>
      <trkpt lat="47.79337" lon="6.76641">
        <ele>991.475891</ele>
        <time>2018-05-26T14:25:38Z</time>
      </trkpt>
      <trkpt lat="47.79338" lon="6.76642">
        <ele>991.607727</ele>
        <time>2018-05-26T14:25:39Z</time>
      </trkpt>
      <trkpt lat="47.79348" lon="6.76648">
        <ele>992.459412</ele>
        <time>2018-05-26T14:26:43Z</time>
      </trkpt>
      <trkpt lat="47.7935" lon="6.7665">
        <ele>992.489075</ele>
        <time>2018-05-26T14:26:45Z</time>
      </trkpt>
      <trkpt lat="47.79352" lon="6.76651">
        <ele>992.551514</ele>
        <time>2018-05-26T14:26:46Z</time>
      </trkpt>
      <trkpt lat="47.79353" lon="6.76653">
        <ele>992.577148</ele>
        <time>2018-05-26T14:26:47Z</time>
      </trkpt>
      <trkpt lat="47.79355" lon="6.76654">
        <ele>992.673523</ele>
        <time>2018-05-26T14:26:48Z</time>
      </trkpt>
      <trkpt lat="47.79356" lon="6.76656">
        <ele>992.757629</ele>
        <time>2018-05-26T14:26:49Z</time>
      </trkpt>
      <trkpt lat="47.79358" lon="6.76658">
        <ele>992.862122</ele>
        <time>2018-05-26T14:26:50Z</time>
      </trkpt>
      <trkpt lat="47.7936" lon="6.7666">
        <ele>993.037415</ele>
        <time>2018-05-26T14:26:51Z</time>
      </trkpt>
      <trkpt lat="47.79361" lon="6.76661">
        <ele>993.156067</ele>
        <time>2018-05-26T14:26:52Z</time>
      </trkpt>
      <trkpt lat="47.79363" lon="6.76663">
        <ele>993.271973</ele>
        <time>2018-05-26T14:26:53Z</time>
      </trkpt>
      <trkpt lat="47.79364" lon="6.76665">
        <ele>993.384583</ele>
        <time>2018-05-26T14:26:54Z</time>
      </trkpt>
      <trkpt lat="47.79366" lon="6.76667">
        <ele>993.548584</ele>
        <time>2018-05-26T14:26:55Z</time>
      </trkpt>
      <trkpt lat="47.79366" lon="6.76669">
        <ele>993.656738</ele>
        <time>2018-05-26T14:26:56Z</time>
      </trkpt>
      <trkpt lat="47.79368" lon="6.76672">
        <ele>993.760437</ele>
        <time>2018-05-26T14:26:57Z</time>
      </trkpt>
      <trkpt lat="47.79369" lon="6.76674">
        <ele>993.862488</ele>
        <time>2018-05-26T14:26:58Z</time>
      </trkpt>
      <trkpt lat="47.79371" lon="6.76676">
        <ele>994.029541</ele>
        <time>2018-05-26T14:26:59Z</time>
      </trkpt>
      <trkpt lat="47.79372" lon="6.76678">
        <ele>994.155273</ele>
        <time>2018-05-26T14:27:00Z</time>
      </trkpt>
      <trkpt lat="47.79373" lon="6.7668">
        <ele>994.290466</ele>
        <time>2018-05-26T14:27:01Z</time>
      </trkpt>
      <trkpt lat="47.79375" lon="6.76682">
        <ele>994.497559</ele>
        <time>2018-05-26T14:27:02Z</time>
      </trkpt>
      <trkpt lat="47.79376" lon="6.76684">
        <ele>994.635498</ele>
        <time>2018-05-26T14:27:03Z</time>
      </trkpt>
      <trkpt lat="47.79377" lon="6.76686">
        <ele>994.770752</ele>
        <time>2018-05-26T14:27:04Z</time>
      </trkpt>
      <trkpt lat="47.79379" lon="6.76688">
        <ele>994.955872</ele>
        <time>2018-05-26T14:27:05Z</time>
      </trkpt>
      <trkpt lat="47.7938" lon="6.76689">
        <ele>995.065369</ele>
        <time>2018-05-26T14:27:06Z</time>
      </trkpt>
      <trkpt lat="47.79382" lon="6.76691">
        <ele>995.170715</ele>
        <time>2018-05-26T14:27:07Z</time>
      </trkpt>
      <trkpt lat="47.79383" lon="6.76693">
        <ele>995.312317</ele>
        <time>2018-05-26T14:27:08Z</time>
      </trkpt>
      <trkpt lat="47.79385" lon="6.76695">
        <ele>995.391418</ele>
        <time>2018-05-26T14:27:09Z</time>
      </trkpt>
      <trkpt lat="47.79385" lon="6.76696">
        <ele>995.539063</ele>
        <time>2018-05-26T14:27:10Z</time>
      </trkpt>
      <trkpt lat="47.79387" lon="6.76698">
        <ele>995.596375</ele>
        <time>2018-05-26T14:27:12Z</time>
      </trkpt>
      <trkpt lat="47.79388" lon="6.767">
        <ele>995.655945</ele>
        <time>2018-05-26T14:27:13Z</time>
      </trkpt>
      <trkpt lat="47.79389" lon="6.76702">
        <ele>995.749207</ele>
        <time>2018-05-26T14:27:14Z</time>
      </trkpt>
      <trkpt lat="47.7939" lon="6.76704">
        <ele>995.821594</ele>
        <time>2018-05-26T14:27:15Z</time>
      </trkpt>
      <trkpt lat="47.79392" lon="6.76705">
        <ele>995.90741</ele>
        <time>2018-05-26T14:27:16Z</time>
      </trkpt>
      <trkpt lat="47.79393" lon="6.76707">
        <ele>996.007629</ele>
        <time>2018-05-26T14:27:17Z</time>
      </trkpt>
      <trkpt lat="47.79395" lon="6.76709">
        <ele>996.169434</ele>
        <time>2018-05-26T14:27:18Z</time>
      </trkpt>
      <trkpt lat="47.79396" lon="6.76711">
        <ele>996.281738</ele>
        <time>2018-05-26T14:27:19Z</time>
      </trkpt>
      <trkpt lat="47.79397" lon="6.76713">
        <ele>996.389648</ele>
        <time>2018-05-26T14:27:20Z</time>
      </trkpt>
      <trkpt lat="47.79399" lon="6.76715">
        <ele>996.551941</ele>
        <time>2018-05-26T14:27:21Z</time>
      </trkpt>
      <trkpt lat="47.794" lon="6.76717">
        <ele>996.666077</ele>
        <time>2018-05-26T14:27:22Z</time>
      </trkpt>
      <trkpt lat="47.79402" lon="6.76719">
        <ele>996.786804</ele>
        <time>2018-05-26T14:27:23Z</time>
      </trkpt>
      <trkpt lat="47.79403" lon="6.7672">
        <ele>996.974365</ele>
        <time>2018-05-26T14:27:24Z</time>
      </trkpt>
      <trkpt lat="47.79404" lon="6.76722">
        <ele>997.10968</ele>
        <time>2018-05-26T14:27:25Z</time>
      </trkpt>
      <trkpt lat="47.79405" lon="6.76724">
        <ele>997.256836</ele>
        <time>2018-05-26T14:27:26Z</time>
      </trkpt>
      <trkpt lat="47.79406" lon="6.76726">
        <ele>997.496765</ele>
        <time>2018-05-26T14:27:27Z</time>
      </trkpt>
      <trkpt lat="47.79408" lon="6.76728">
        <ele>997.661926</ele>
        <time>2018-05-26T14:27:28Z</time>
      </trkpt>
      <trkpt lat="47.79409" lon="6.7673">
        <ele>997.82428</ele>
        <time>2018-05-26T14:27:29Z</time>
      </trkpt>
      <trkpt lat="47.7941" lon="6.76731">
        <ele>997.983826</ele>
        <time>2018-05-26T14:27:30Z</time>
      </trkpt>
      <trkpt lat="47.79411" lon="6.76733">
        <ele>998.220947</ele>
        <time>2018-05-26T14:27:31Z</time>
      </trkpt>
      <trkpt lat="47.79413" lon="6.76735">
        <ele>998.375</ele>
        <time>2018-05-26T14:27:32Z</time>
      </trkpt>
      <trkpt lat="47.79414" lon="6.76737">
        <ele>998.520508</ele>
        <time>2018-05-26T14:27:33Z</time>
      </trkpt>
      <trkpt lat="47.79415" lon="6.76739">
        <ele>998.719727</ele>
        <time>2018-05-26T14:27:34Z</time>
      </trkpt>
      <trkpt lat="47.79416" lon="6.76741">
        <ele>998.842712</ele>
        <time>2018-05-26T14:27:35Z</time>
      </trkpt>
      <trkpt lat="47.79418" lon="6.76743">
        <ele>998.966064</ele>
        <time>2018-05-26T14:27:36Z</time>
      </trkpt>
      <trkpt lat="47.79419" lon="6.76744">
        <ele>999.162903</ele>
        <time>2018-05-26T14:27:37Z</time>
      </trkpt>
      <trkpt lat="47.79421" lon="6.76746">
        <ele>999.303162</ele>
        <time>2018-05-26T14:27:38Z</time>
      </trkpt>
      <trkpt lat="47.79422" lon="6.76747">
        <ele>999.449402</ele>
        <time>2018-05-26T14:27:39Z</time>
      </trkpt>
      <trkpt lat="47.79423" lon="6.76748">
        <ele>999.6026</ele>
        <time>2018-05-26T14:27:40Z</time>
      </trkpt>
      <trkpt lat="47.79425" lon="6.76749">
        <ele>999.828613</ele>
        <time>2018-05-26T14:27:41Z</time>
      </trkpt>
      <trkpt lat="47.79426" lon="6.7675">
        <ele>999.977783</ele>
        <time>2018-05-26T14:27:42Z</time>
      </trkpt>
      <trkpt lat="47.79427" lon="6.76752">
        <ele>1000.131653</ele>
        <time>2018-05-26T14:27:43Z</time>
      </trkpt>
      <trkpt lat="47.79428" lon="6.76754">
        <ele>1000.372559</ele>
        <time>2018-05-26T14:27:44Z</time>
      </trkpt>
      <trkpt lat="47.79429" lon="6.76755">
        <ele>1000.543396</ele>
        <time>2018-05-26T14:27:45Z</time>
      </trkpt>
      <trkpt lat="47.79437" lon="6.76765">
        <ele>1002.331055</ele>
        <time>2018-05-26T14:27:58Z</time>
      </trkpt>
      <trkpt lat="47.79438" lon="6.76766">
        <ele>1002.436829</ele>
        <time>2018-05-26T14:28:00Z</time>
      </trkpt>
      <trkpt lat="47.79438" lon="6.76767">
        <ele>1002.750549</ele>
        <time>2018-05-26T14:28:01Z</time>
      </trkpt>
      <trkpt lat="47.7944" lon="6.76768">
        <ele>1002.898254</ele>
        <time>2018-05-26T14:28:03Z</time>
      </trkpt>
      <trkpt lat="47.79441" lon="6.7677">
        <ele>1003.048279</ele>
        <time>2018-05-26T14:28:04Z</time>
      </trkpt>
      <trkpt lat="47.79442" lon="6.76772">
        <ele>1003.263611</ele>
        <time>2018-05-26T14:28:05Z</time>
      </trkpt>
      <trkpt lat="47.79443" lon="6.76774">
        <ele>1003.40155</ele>
        <time>2018-05-26T14:28:06Z</time>
      </trkpt>
      <trkpt lat="47.79445" lon="6.76775">
        <ele>1003.542969</ele>
        <time>2018-05-26T14:28:07Z</time>
      </trkpt>
      <trkpt lat="47.79447" lon="6.76777">
        <ele>1003.76239</ele>
        <time>2018-05-26T14:28:08Z</time>
      </trkpt>
      <trkpt lat="47.79448" lon="6.76778">
        <ele>1004.114929</ele>
        <time>2018-05-26T14:28:09Z</time>
      </trkpt>
      <trkpt lat="47.79449" lon="6.7678">
        <ele>1004.25238</ele>
        <time>2018-05-26T14:28:11Z</time>
      </trkpt>
      <trkpt lat="47.7945" lon="6.76782">
        <ele>1004.386963</ele>
        <time>2018-05-26T14:28:12Z</time>
      </trkpt>
      <trkpt lat="47.79451" lon="6.76783">
        <ele>1004.514709</ele>
        <time>2018-05-26T14:28:13Z</time>
      </trkpt>
      <trkpt lat="47.79452" lon="6.76785">
        <ele>1004.794617</ele>
        <time>2018-05-26T14:28:14Z</time>
      </trkpt>
      <trkpt lat="47.79454" lon="6.76786">
        <ele>1004.894348</ele>
        <time>2018-05-26T14:28:16Z</time>
      </trkpt>
      <trkpt lat="47.79454" lon="6.76787">
        <ele>1005.156311</ele>
        <time>2018-05-26T14:28:17Z</time>
      </trkpt>
      <trkpt lat="47.79456" lon="6.76788">
        <ele>1005.276306</ele>
        <time>2018-05-26T14:28:19Z</time>
      </trkpt>
      <trkpt lat="47.79458" lon="6.7679">
        <ele>1005.473389</ele>
        <time>2018-05-26T14:28:20Z</time>
      </trkpt>
      <trkpt lat="47.79458" lon="6.76791">
        <ele>1005.605774</ele>
        <time>2018-05-26T14:28:21Z</time>
      </trkpt>
      <trkpt lat="47.79459" lon="6.76792">
        <ele>1005.731628</ele>
        <time>2018-05-26T14:28:22Z</time>
      </trkpt>
      <trkpt lat="47.79461" lon="6.76794">
        <ele>1005.901855</ele>
        <time>2018-05-26T14:28:23Z</time>
      </trkpt>
      <trkpt lat="47.79461" lon="6.76795">
        <ele>1006.004822</ele>
        <time>2018-05-26T14:28:24Z</time>
      </trkpt>
      <trkpt lat="47.79462" lon="6.76797">
        <ele>1006.110046</ele>
        <time>2018-05-26T14:28:25Z</time>
      </trkpt>
      <trkpt lat="47.79464" lon="6.76798">
        <ele>1006.222717</ele>
        <time>2018-05-26T14:28:26Z</time>
      </trkpt>
      <trkpt lat="47.79465" lon="6.76798">
        <ele>1006.40387</ele>
        <time>2018-05-26T14:28:27Z</time>
      </trkpt>
      <trkpt lat="47.79467" lon="6.76799">
        <ele>1006.531738</ele>
        <time>2018-05-26T14:28:28Z</time>
      </trkpt>
      <trkpt lat="47.79469" lon="6.76799">
        <ele>1006.736328</ele>
        <time>2018-05-26T14:28:29Z</time>
      </trkpt>
      <trkpt lat="47.79472" lon="6.768">
        <ele>1006.861267</ele>
        <time>2018-05-26T14:28:30Z</time>
      </trkpt>
      <trkpt lat="47.79474" lon="6.76801">
        <ele>1006.972961</ele>
        <time>2018-05-26T14:28:31Z</time>
      </trkpt>
      <trkpt lat="47.79476" lon="6.76802">
        <ele>1007.111023</ele>
        <time>2018-05-26T14:28:32Z</time>
      </trkpt>
      <trkpt lat="47.79478" lon="6.76803">
        <ele>1007.196472</ele>
        <time>2018-05-26T14:28:33Z</time>
      </trkpt>
      <trkpt lat="47.79479" lon="6.76803">
        <ele>1007.279114</ele>
        <time>2018-05-26T14:28:34Z</time>
      </trkpt>
      <trkpt lat="47.79481" lon="6.76804">
        <ele>1007.404541</ele>
        <time>2018-05-26T14:28:35Z</time>
      </trkpt>
      <trkpt lat="47.79483" lon="6.76805">
        <ele>1007.496582</ele>
        <time>2018-05-26T14:28:36Z</time>
      </trkpt>
      <trkpt lat="47.79485" lon="6.76805">
        <ele>1007.659607</ele>
        <time>2018-05-26T14:28:37Z</time>
      </trkpt>
      <trkpt lat="47.79487" lon="6.76805">
        <ele>1007.774841</ele>
        <time>2018-05-26T14:28:38Z</time>
      </trkpt>
      <trkpt lat="47.79489" lon="6.76806">
        <ele>1007.892029</ele>
        <time>2018-05-26T14:28:39Z</time>
      </trkpt>
      <trkpt lat="47.7949" lon="6.76806">
        <ele>1008.071228</ele>
        <time>2018-05-26T14:28:40Z</time>
      </trkpt>
      <trkpt lat="47.79493" lon="6.76806">
        <ele>1008.19635</ele>
        <time>2018-05-26T14:28:41Z</time>
      </trkpt>
      <trkpt lat="47.79495" lon="6.76806">
        <ele>1008.322327</ele>
        <time>2018-05-26T14:28:42Z</time>
      </trkpt>
      <trkpt lat="47.79497" lon="6.76806">
        <ele>1008.511658</ele>
        <time>2018-05-26T14:28:43Z</time>
      </trkpt>
      <trkpt lat="47.79499" lon="6.76806">
        <ele>1008.640564</ele>
        <time>2018-05-26T14:28:44Z</time>
      </trkpt>
      <trkpt lat="47.79501" lon="6.76807">
        <ele>1008.769714</ele>
        <time>2018-05-26T14:28:45Z</time>
      </trkpt>
      <trkpt lat="47.79503" lon="6.76808">
        <ele>1008.942322</ele>
        <time>2018-05-26T14:28:46Z</time>
      </trkpt>
      <trkpt lat="47.79505" lon="6.76808">
        <ele>1009.045105</ele>
        <time>2018-05-26T14:28:47Z</time>
      </trkpt>
      <trkpt lat="47.79506" lon="6.76809">
        <ele>1009.094971</ele>
        <time>2018-05-26T14:28:48Z</time>
      </trkpt>
      <trkpt lat="47.79508" lon="6.76809">
        <ele>1009.246277</ele>
        <time>2018-05-26T14:28:49Z</time>
      </trkpt>
      <trkpt lat="47.79509" lon="6.7681">
        <ele>1009.348083</ele>
        <time>2018-05-26T14:28:50Z</time>
      </trkpt>
      <trkpt lat="47.79511" lon="6.76811">
        <ele>1009.451233</ele>
        <time>2018-05-26T14:28:51Z</time>
      </trkpt>
      <trkpt lat="47.79512" lon="6.76813">
        <ele>1009.61554</ele>
        <time>2018-05-26T14:28:52Z</time>
      </trkpt>
      <trkpt lat="47.79514" lon="6.76816">
        <ele>1009.731262</ele>
        <time>2018-05-26T14:28:53Z</time>
      </trkpt>
      <trkpt lat="47.79515" lon="6.76818">
        <ele>1009.851379</ele>
        <time>2018-05-26T14:28:54Z</time>
      </trkpt>
      <trkpt lat="47.79517" lon="6.7682">
        <ele>1010.032776</ele>
        <time>2018-05-26T14:28:55Z</time>
      </trkpt>
      <trkpt lat="47.79518" lon="6.76822">
        <ele>1010.153748</ele>
        <time>2018-05-26T14:28:56Z</time>
      </trkpt>
      <trkpt lat="47.7952" lon="6.76823">
        <ele>1010.276611</ele>
        <time>2018-05-26T14:28:57Z</time>
      </trkpt>
      <trkpt lat="47.7952" lon="6.76825">
        <ele>1010.607971</ele>
        <time>2018-05-26T14:28:58Z</time>
      </trkpt>
      <trkpt lat="47.79522" lon="6.76827">
        <ele>1010.739441</ele>
        <time>2018-05-26T14:29:00Z</time>
      </trkpt>
      <trkpt lat="47.79523" lon="6.76829">
        <ele>1010.860046</ele>
        <time>2018-05-26T14:29:01Z</time>
      </trkpt>
      <trkpt lat="47.79524" lon="6.76832">
        <ele>1010.972656</ele>
        <time>2018-05-26T14:29:02Z</time>
      </trkpt>
      <trkpt lat="47.79526" lon="6.76834">
        <ele>1011.142761</ele>
        <time>2018-05-26T14:29:03Z</time>
      </trkpt>
      <trkpt lat="47.79527" lon="6.76837">
        <ele>1011.259094</ele>
        <time>2018-05-26T14:29:04Z</time>
      </trkpt>
      <trkpt lat="47.79528" lon="6.76839">
        <ele>1011.380615</ele>
        <time>2018-05-26T14:29:05Z</time>
      </trkpt>
      <trkpt lat="47.79529" lon="6.76841">
        <ele>1011.574463</ele>
        <time>2018-05-26T14:29:06Z</time>
      </trkpt>
      <trkpt lat="47.7953" lon="6.76843">
        <ele>1011.71167</ele>
        <time>2018-05-26T14:29:07Z</time>
      </trkpt>
      <trkpt lat="47.7953" lon="6.76845">
        <ele>1011.847656</ele>
        <time>2018-05-26T14:29:08Z</time>
      </trkpt>
      <trkpt lat="47.7953" lon="6.76847">
        <ele>1011.982483</ele>
        <time>2018-05-26T14:29:09Z</time>
      </trkpt>
      <trkpt lat="47.7953" lon="6.76849">
        <ele>1012.112854</ele>
        <time>2018-05-26T14:29:10Z</time>
      </trkpt>
      <trkpt lat="47.79531" lon="6.76852">
        <ele>1012.235046</ele>
        <time>2018-05-26T14:29:11Z</time>
      </trkpt>
      <trkpt lat="47.79532" lon="6.76853">
        <ele>1012.401672</ele>
        <time>2018-05-26T14:29:12Z</time>
      </trkpt>
      <trkpt lat="47.79532" lon="6.76855">
        <ele>1012.510681</ele>
        <time>2018-05-26T14:29:13Z</time>
      </trkpt>
      <trkpt lat="47.79533" lon="6.76857">
        <ele>1012.633545</ele>
        <time>2018-05-26T14:29:14Z</time>
      </trkpt>
      <trkpt lat="47.79534" lon="6.76859">
        <ele>1012.772156</ele>
        <time>2018-05-26T14:29:15Z</time>
      </trkpt>
      <trkpt lat="47.79535" lon="6.76862">
        <ele>1012.923584</ele>
        <time>2018-05-26T14:29:16Z</time>
      </trkpt>
      <trkpt lat="47.79536" lon="6.76864">
        <ele>1013.080017</ele>
        <time>2018-05-26T14:29:17Z</time>
      </trkpt>
      <trkpt lat="47.79538" lon="6.76866">
        <ele>1013.317566</ele>
        <time>2018-05-26T14:29:18Z</time>
      </trkpt>
      <trkpt lat="47.7954" lon="6.76869">
        <ele>1013.475098</ele>
        <time>2018-05-26T14:29:19Z</time>
      </trkpt>
      <trkpt lat="47.79541" lon="6.76871">
        <ele>1013.62738</ele>
        <time>2018-05-26T14:29:20Z</time>
      </trkpt>
      <trkpt lat="47.79543" lon="6.76873">
        <ele>1013.844177</ele>
        <time>2018-05-26T14:29:21Z</time>
      </trkpt>
      <trkpt lat="47.79544" lon="6.76875">
        <ele>1013.982239</ele>
        <time>2018-05-26T14:29:22Z</time>
      </trkpt>
      <trkpt lat="47.79546" lon="6.76877">
        <ele>1014.118225</ele>
        <time>2018-05-26T14:29:23Z</time>
      </trkpt>
      <trkpt lat="47.79547" lon="6.76878">
        <ele>1014.251282</ele>
        <time>2018-05-26T14:29:24Z</time>
      </trkpt>
      <trkpt lat="47.79548" lon="6.7688">
        <ele>1014.440674</ele>
        <time>2018-05-26T14:29:25Z</time>
      </trkpt>
      <trkpt lat="47.79549" lon="6.76881">
        <ele>1014.666504</ele>
        <time>2018-05-26T14:29:26Z</time>
      </trkpt>
      <trkpt lat="47.79551" lon="6.76882">
        <ele>1014.840332</ele>
        <time>2018-05-26T14:29:28Z</time>
      </trkpt>
      <trkpt lat="47.79553" lon="6.76883">
        <ele>1014.971924</ele>
        <time>2018-05-26T14:29:29Z</time>
      </trkpt>
      <trkpt lat="47.79554" lon="6.76884">
        <ele>1015.113342</ele>
        <time>2018-05-26T14:29:30Z</time>
      </trkpt>
      <trkpt lat="47.79556" lon="6.76885">
        <ele>1015.330811</ele>
        <time>2018-05-26T14:29:31Z</time>
      </trkpt>
      <trkpt lat="47.79558" lon="6.76886">
        <ele>1015.478455</ele>
        <time>2018-05-26T14:29:32Z</time>
      </trkpt>
      <trkpt lat="47.7956" lon="6.76888">
        <ele>1015.630798</ele>
        <time>2018-05-26T14:29:33Z</time>
      </trkpt>
      <trkpt lat="47.79561" lon="6.76888">
        <ele>1015.866882</ele>
        <time>2018-05-26T14:29:34Z</time>
      </trkpt>
      <trkpt lat="47.79562" lon="6.76888">
        <ele>1016.023682</ele>
        <time>2018-05-26T14:29:35Z</time>
      </trkpt>
      <trkpt lat="47.79564" lon="6.76888">
        <ele>1016.174072</ele>
        <time>2018-05-26T14:29:36Z</time>
      </trkpt>
      <trkpt lat="47.79565" lon="6.76888">
        <ele>1016.395264</ele>
        <time>2018-05-26T14:29:37Z</time>
      </trkpt>
      <trkpt lat="47.79567" lon="6.76889">
        <ele>1016.545959</ele>
        <time>2018-05-26T14:29:38Z</time>
      </trkpt>
      <trkpt lat="47.79569" lon="6.76889">
        <ele>1016.700684</ele>
        <time>2018-05-26T14:29:39Z</time>
      </trkpt>
      <trkpt lat="47.7957" lon="6.76891">
        <ele>1016.928223</ele>
        <time>2018-05-26T14:29:40Z</time>
      </trkpt>
      <trkpt lat="47.79572" lon="6.76891">
        <ele>1017.077881</ele>
        <time>2018-05-26T14:29:41Z</time>
      </trkpt>
      <trkpt lat="47.79574" lon="6.76891">
        <ele>1017.299377</ele>
        <time>2018-05-26T14:29:42Z</time>
      </trkpt>
      <trkpt lat="47.79575" lon="6.76891">
        <ele>1017.441895</ele>
        <time>2018-05-26T14:29:43Z</time>
      </trkpt>
      <trkpt lat="47.79578" lon="6.76891">
        <ele>1017.580505</ele>
        <time>2018-05-26T14:29:44Z</time>
      </trkpt>
      <trkpt lat="47.79579" lon="6.76892">
        <ele>1017.778625</ele>
        <time>2018-05-26T14:29:45Z</time>
      </trkpt>
      <trkpt lat="47.79581" lon="6.76892">
        <ele>1017.901611</ele>
        <time>2018-05-26T14:29:46Z</time>
      </trkpt>
      <trkpt lat="47.79582" lon="6.76892">
        <ele>1018.01593</ele>
        <time>2018-05-26T14:29:47Z</time>
      </trkpt>
      <trkpt lat="47.79583" lon="6.76893">
        <ele>1018.184387</ele>
        <time>2018-05-26T14:29:48Z</time>
      </trkpt>
      <trkpt lat="47.79585" lon="6.76893">
        <ele>1018.242676</ele>
        <time>2018-05-26T14:29:49Z</time>
      </trkpt>
      <trkpt lat="47.79586" lon="6.76893">
        <ele>1018.302307</ele>
        <time>2018-05-26T14:29:50Z</time>
      </trkpt>
      <trkpt lat="47.79588" lon="6.76892">
        <ele>1018.487549</ele>
        <time>2018-05-26T14:29:51Z</time>
      </trkpt>
      <trkpt lat="47.7959" lon="6.76892">
        <ele>1018.622986</ele>
        <time>2018-05-26T14:29:52Z</time>
      </trkpt>
      <trkpt lat="47.79591" lon="6.76892">
        <ele>1018.772949</ele>
        <time>2018-05-26T14:29:53Z</time>
      </trkpt>
      <trkpt lat="47.79594" lon="6.76891">
        <ele>1019.021484</ele>
        <time>2018-05-26T14:29:54Z</time>
      </trkpt>
      <trkpt lat="47.79596" lon="6.7689">
        <ele>1019.190002</ele>
        <time>2018-05-26T14:29:55Z</time>
      </trkpt>
      <trkpt lat="47.79598" lon="6.7689">
        <ele>1019.35498</ele>
        <time>2018-05-26T14:29:56Z</time>
      </trkpt>
      <trkpt lat="47.79599" lon="6.76889">
        <ele>1019.592346</ele>
        <time>2018-05-26T14:29:57Z</time>
      </trkpt>
      <trkpt lat="47.79601" lon="6.76888">
        <ele>1019.739258</ele>
        <time>2018-05-26T14:29:58Z</time>
      </trkpt>
      <trkpt lat="47.79602" lon="6.76887">
        <ele>1019.867859</ele>
        <time>2018-05-26T14:29:59Z</time>
      </trkpt>
      <trkpt lat="47.79604" lon="6.76887">
        <ele>1020.031799</ele>
        <time>2018-05-26T14:30:00Z</time>
      </trkpt>
      <trkpt lat="47.79605" lon="6.76886">
        <ele>1020.135742</ele>
        <time>2018-05-26T14:30:01Z</time>
      </trkpt>
      <trkpt lat="47.79606" lon="6.76886">
        <ele>1020.24585</ele>
        <time>2018-05-26T14:30:02Z</time>
      </trkpt>
      <trkpt lat="47.79607" lon="6.76885">
        <ele>1020.41864</ele>
        <time>2018-05-26T14:30:03Z</time>
      </trkpt>
      <trkpt lat="47.79608" lon="6.76885">
        <ele>1020.536072</ele>
        <time>2018-05-26T14:30:04Z</time>
      </trkpt>
      <trkpt lat="47.79609" lon="6.76884">
        <ele>1020.655579</ele>
        <time>2018-05-26T14:30:05Z</time>
      </trkpt>
      <trkpt lat="47.79611" lon="6.76884">
        <ele>1020.847351</ele>
        <time>2018-05-26T14:30:06Z</time>
      </trkpt>
      <trkpt lat="47.79612" lon="6.76883">
        <ele>1020.976013</ele>
        <time>2018-05-26T14:30:07Z</time>
      </trkpt>
      <trkpt lat="47.79614" lon="6.76883">
        <ele>1021.101318</ele>
        <time>2018-05-26T14:30:08Z</time>
      </trkpt>
      <trkpt lat="47.79616" lon="6.76882">
        <ele>1021.286621</ele>
        <time>2018-05-26T14:30:09Z</time>
      </trkpt>
      <trkpt lat="47.79618" lon="6.76881">
        <ele>1021.421875</ele>
        <time>2018-05-26T14:30:10Z</time>
      </trkpt>
      <trkpt lat="47.79619" lon="6.76881">
        <ele>1021.968811</ele>
        <time>2018-05-26T14:30:12Z</time>
      </trkpt>
      <trkpt lat="47.7962" lon="6.7688">
        <ele>1022.198914</ele>
        <time>2018-05-26T14:30:14Z</time>
      </trkpt>
      <trkpt lat="47.79622" lon="6.76879">
        <ele>1022.342773</ele>
        <time>2018-05-26T14:30:15Z</time>
      </trkpt>
      <trkpt lat="47.79623" lon="6.76879">
        <ele>1022.480469</ele>
        <time>2018-05-26T14:30:16Z</time>
      </trkpt>
      <trkpt lat="47.79625" lon="6.76879">
        <ele>1022.679871</ele>
        <time>2018-05-26T14:30:17Z</time>
      </trkpt>
      <trkpt lat="47.79626" lon="6.76877">
        <ele>1022.804382</ele>
        <time>2018-05-26T14:30:18Z</time>
      </trkpt>
      <trkpt lat="47.79627" lon="6.76877">
        <ele>1022.921143</ele>
        <time>2018-05-26T14:30:19Z</time>
      </trkpt>
      <trkpt lat="47.79629" lon="6.76876">
        <ele>1023.091309</ele>
        <time>2018-05-26T14:30:20Z</time>
      </trkpt>
      <trkpt lat="47.79631" lon="6.76874">
        <ele>1023.214661</ele>
        <time>2018-05-26T14:30:21Z</time>
      </trkpt>
      <trkpt lat="47.79632" lon="6.76873">
        <ele>1023.350159</ele>
        <time>2018-05-26T14:30:22Z</time>
      </trkpt>
      <trkpt lat="47.79634" lon="6.76872">
        <ele>1023.572083</ele>
        <time>2018-05-26T14:30:23Z</time>
      </trkpt>
      <trkpt lat="47.79636" lon="6.7687">
        <ele>1023.726379</ele>
        <time>2018-05-26T14:30:24Z</time>
      </trkpt>
      <trkpt lat="47.79637" lon="6.76869">
        <ele>1023.881165</ele>
        <time>2018-05-26T14:30:25Z</time>
      </trkpt>
      <trkpt lat="47.79639" lon="6.76868">
        <ele>1024.110229</ele>
        <time>2018-05-26T14:30:26Z</time>
      </trkpt>
      <trkpt lat="47.7964" lon="6.76867">
        <ele>1024.249878</ele>
        <time>2018-05-26T14:30:27Z</time>
      </trkpt>
      <trkpt lat="47.79643" lon="6.76865">
        <ele>1024.377319</ele>
        <time>2018-05-26T14:30:28Z</time>
      </trkpt>
      <trkpt lat="47.79644" lon="6.76864">
        <ele>1024.557251</ele>
        <time>2018-05-26T14:30:29Z</time>
      </trkpt>
      <trkpt lat="47.79646" lon="6.76863">
        <ele>1024.681152</ele>
        <time>2018-05-26T14:30:30Z</time>
      </trkpt>
      <trkpt lat="47.79647" lon="6.76862">
        <ele>1024.810425</ele>
        <time>2018-05-26T14:30:31Z</time>
      </trkpt>
      <trkpt lat="47.79648" lon="6.76861">
        <ele>1024.951782</ele>
        <time>2018-05-26T14:30:32Z</time>
      </trkpt>
      <trkpt lat="47.79649" lon="6.7686">
        <ele>1025.177612</ele>
        <time>2018-05-26T14:30:33Z</time>
      </trkpt>
      <trkpt lat="47.7965" lon="6.76859">
        <ele>1025.331665</ele>
        <time>2018-05-26T14:30:34Z</time>
      </trkpt>
      <trkpt lat="47.79652" lon="6.76858">
        <ele>1025.479004</ele>
        <time>2018-05-26T14:30:35Z</time>
      </trkpt>
      <trkpt lat="47.79654" lon="6.76857">
        <ele>1025.694946</ele>
        <time>2018-05-26T14:30:36Z</time>
      </trkpt>
      <trkpt lat="47.79656" lon="6.76857">
        <ele>1025.838135</ele>
        <time>2018-05-26T14:30:37Z</time>
      </trkpt>
      <trkpt lat="47.79657" lon="6.76857">
        <ele>1025.981323</ele>
        <time>2018-05-26T14:30:38Z</time>
      </trkpt>
      <trkpt lat="47.79659" lon="6.76856">
        <ele>1026.187622</ele>
        <time>2018-05-26T14:30:39Z</time>
      </trkpt>
      <trkpt lat="47.7966" lon="6.76856">
        <ele>1026.325317</ele>
        <time>2018-05-26T14:30:40Z</time>
      </trkpt>
      <trkpt lat="47.7966" lon="6.76855">
        <ele>1026.694946</ele>
        <time>2018-05-26T14:30:41Z</time>
      </trkpt>
      <trkpt lat="47.79662" lon="6.76854">
        <ele>1026.851196</ele>
        <time>2018-05-26T14:30:43Z</time>
      </trkpt>
      <trkpt lat="47.79664" lon="6.76853">
        <ele>1027.075806</ele>
        <time>2018-05-26T14:30:44Z</time>
      </trkpt>
      <trkpt lat="47.79666" lon="6.76853">
        <ele>1027.212769</ele>
        <time>2018-05-26T14:30:45Z</time>
      </trkpt>
      <trkpt lat="47.79668" lon="6.76853">
        <ele>1027.344482</ele>
        <time>2018-05-26T14:30:46Z</time>
      </trkpt>
      <trkpt lat="47.7967" lon="6.76852">
        <ele>1027.53186</ele>
        <time>2018-05-26T14:30:47Z</time>
      </trkpt>
      <trkpt lat="47.79672" lon="6.76852">
        <ele>1027.652832</ele>
        <time>2018-05-26T14:30:48Z</time>
      </trkpt>
      <trkpt lat="47.79673" lon="6.76852">
        <ele>1027.71228</ele>
        <time>2018-05-26T14:30:49Z</time>
      </trkpt>
      <trkpt lat="47.79675" lon="6.76852">
        <ele>1027.88855</ele>
        <time>2018-05-26T14:30:50Z</time>
      </trkpt>
      <trkpt lat="47.79676" lon="6.76852">
        <ele>1028.009521</ele>
        <time>2018-05-26T14:30:51Z</time>
      </trkpt>
      <trkpt lat="47.79678" lon="6.76852">
        <ele>1028.139282</ele>
        <time>2018-05-26T14:30:52Z</time>
      </trkpt>
      <trkpt lat="47.79679" lon="6.76851">
        <ele>1028.349609</ele>
        <time>2018-05-26T14:30:53Z</time>
      </trkpt>
      <trkpt lat="47.79681" lon="6.7685">
        <ele>1028.49939</ele>
        <time>2018-05-26T14:30:54Z</time>
      </trkpt>
      <trkpt lat="47.79683" lon="6.76849">
        <ele>1028.741821</ele>
        <time>2018-05-26T14:30:55Z</time>
      </trkpt>
      <trkpt lat="47.79684" lon="6.76849">
        <ele>1028.916382</ele>
        <time>2018-05-26T14:30:56Z</time>
      </trkpt>
      <trkpt lat="47.79686" lon="6.76849">
        <ele>1029.087769</ele>
        <time>2018-05-26T14:30:57Z</time>
      </trkpt>
      <trkpt lat="47.79687" lon="6.76848">
        <ele>1029.333862</ele>
        <time>2018-05-26T14:30:58Z</time>
      </trkpt>
      <trkpt lat="47.79689" lon="6.76849">
        <ele>1029.487671</ele>
        <time>2018-05-26T14:30:59Z</time>
      </trkpt>
      <trkpt lat="47.79691" lon="6.76849">
        <ele>1029.70752</ele>
        <time>2018-05-26T14:31:00Z</time>
      </trkpt>
      <trkpt lat="47.79693" lon="6.76849">
        <ele>1029.848267</ele>
        <time>2018-05-26T14:31:01Z</time>
      </trkpt>
      <trkpt lat="47.79695" lon="6.76849">
        <ele>1029.984619</ele>
        <time>2018-05-26T14:31:02Z</time>
      </trkpt>
      <trkpt lat="47.79696" lon="6.76849">
        <ele>1030.18042</ele>
        <time>2018-05-26T14:31:03Z</time>
      </trkpt>
      <trkpt lat="47.79698" lon="6.76849">
        <ele>1030.306396</ele>
        <time>2018-05-26T14:31:04Z</time>
      </trkpt>
      <trkpt lat="47.79699" lon="6.76849">
        <ele>1030.484863</ele>
        <time>2018-05-26T14:31:05Z</time>
      </trkpt>
      <trkpt lat="47.797" lon="6.76848">
        <ele>1030.597534</ele>
        <time>2018-05-26T14:31:06Z</time>
      </trkpt>
      <trkpt lat="47.79701" lon="6.76847">
        <ele>1030.706177</ele>
        <time>2018-05-26T14:31:07Z</time>
      </trkpt>
      <trkpt lat="47.79702" lon="6.76846">
        <ele>1030.869629</ele>
        <time>2018-05-26T14:31:08Z</time>
      </trkpt>
      <trkpt lat="47.79704" lon="6.76846">
        <ele>1030.987671</ele>
        <time>2018-05-26T14:31:09Z</time>
      </trkpt>
      <trkpt lat="47.79705" lon="6.76845">
        <ele>1031.114258</ele>
        <time>2018-05-26T14:31:10Z</time>
      </trkpt>
      <trkpt lat="47.79707" lon="6.76843">
        <ele>1031.317627</ele>
        <time>2018-05-26T14:31:11Z</time>
      </trkpt>
      <trkpt lat="47.79707" lon="6.76842">
        <ele>1031.452881</ele>
        <time>2018-05-26T14:31:12Z</time>
      </trkpt>
      <trkpt lat="47.79707" lon="6.76841">
        <ele>1031.58313</ele>
        <time>2018-05-26T14:31:13Z</time>
      </trkpt>
      <trkpt lat="47.79709" lon="6.7684">
        <ele>1031.768799</ele>
        <time>2018-05-26T14:31:14Z</time>
      </trkpt>
      <trkpt lat="47.79711" lon="6.7684">
        <ele>1031.885864</ele>
        <time>2018-05-26T14:31:15Z</time>
      </trkpt>
      <trkpt lat="47.79713" lon="6.76839">
        <ele>1031.996216</ele>
        <time>2018-05-26T14:31:16Z</time>
      </trkpt>
      <trkpt lat="47.79715" lon="6.76838">
        <ele>1032.14856</ele>
        <time>2018-05-26T14:31:17Z</time>
      </trkpt>
      <trkpt lat="47.79716" lon="6.76837">
        <ele>1032.24353</ele>
        <time>2018-05-26T14:31:18Z</time>
      </trkpt>
      <trkpt lat="47.79718" lon="6.76837">
        <ele>1032.335083</ele>
        <time>2018-05-26T14:31:19Z</time>
      </trkpt>
      <trkpt lat="47.79719" lon="6.76836">
        <ele>1032.470337</ele>
        <time>2018-05-26T14:31:20Z</time>
      </trkpt>
      <trkpt lat="47.79721" lon="6.76835">
        <ele>1032.55957</ele>
        <time>2018-05-26T14:31:21Z</time>
      </trkpt>
      <trkpt lat="47.79723" lon="6.76834">
        <ele>1032.647339</ele>
        <time>2018-05-26T14:31:22Z</time>
      </trkpt>
      <trkpt lat="47.79725" lon="6.76833">
        <ele>1032.77478</ele>
        <time>2018-05-26T14:31:23Z</time>
      </trkpt>
      <trkpt lat="47.79727" lon="6.76833">
        <ele>1032.856323</ele>
        <time>2018-05-26T14:31:24Z</time>
      </trkpt>
      <trkpt lat="47.7973" lon="6.76834">
        <ele>1032.942749</ele>
        <time>2018-05-26T14:31:25Z</time>
      </trkpt>
      <trkpt lat="47.79732" lon="6.76833">
        <ele>1033.076538</ele>
        <time>2018-05-26T14:31:26Z</time>
      </trkpt>
      <trkpt lat="47.79734" lon="6.76832">
        <ele>1033.165649</ele>
        <time>2018-05-26T14:31:27Z</time>
      </trkpt>
      <trkpt lat="47.79737" lon="6.76832">
        <ele>1033.250854</ele>
        <time>2018-05-26T14:31:28Z</time>
      </trkpt>
      <trkpt lat="47.79738" lon="6.76833">
        <ele>1033.382813</ele>
        <time>2018-05-26T14:31:29Z</time>
      </trkpt>
      <trkpt lat="47.7974" lon="6.76833">
        <ele>1033.478516</ele>
        <time>2018-05-26T14:31:30Z</time>
      </trkpt>
      <trkpt lat="47.79741" lon="6.76832">
        <ele>1033.628296</ele>
        <time>2018-05-26T14:31:31Z</time>
      </trkpt>
      <trkpt lat="47.79743" lon="6.76831">
        <ele>1033.727417</ele>
        <time>2018-05-26T14:31:32Z</time>
      </trkpt>
      <trkpt lat="47.79744" lon="6.76832">
        <ele>1033.967896</ele>
        <time>2018-05-26T14:31:33Z</time>
      </trkpt>
      <trkpt lat="47.79745" lon="6.76831">
        <ele>1034.061157</ele>
        <time>2018-05-26T14:31:35Z</time>
      </trkpt>
      <trkpt lat="47.79747" lon="6.76831">
        <ele>1034.204346</ele>
        <time>2018-05-26T14:31:36Z</time>
      </trkpt>
      <trkpt lat="47.7975" lon="6.76832">
        <ele>1034.306885</ele>
        <time>2018-05-26T14:31:37Z</time>
      </trkpt>
      <trkpt lat="47.79752" lon="6.76831">
        <ele>1034.410278</ele>
        <time>2018-05-26T14:31:38Z</time>
      </trkpt>
      <trkpt lat="47.79754" lon="6.76831">
        <ele>1034.561401</ele>
        <time>2018-05-26T14:31:39Z</time>
      </trkpt>
      <trkpt lat="47.79755" lon="6.7683">
        <ele>1034.664063</ele>
        <time>2018-05-26T14:31:40Z</time>
      </trkpt>
      <trkpt lat="47.79757" lon="6.76829">
        <ele>1034.829956</ele>
        <time>2018-05-26T14:31:41Z</time>
      </trkpt>
      <trkpt lat="47.79758" lon="6.76829">
        <ele>1034.953735</ele>
        <time>2018-05-26T14:31:42Z</time>
      </trkpt>
      <trkpt lat="47.7976" lon="6.76828">
        <ele>1035.087036</ele>
        <time>2018-05-26T14:31:43Z</time>
      </trkpt>
      <trkpt lat="47.79762" lon="6.76828">
        <ele>1035.300171</ele>
        <time>2018-05-26T14:31:44Z</time>
      </trkpt>
      <trkpt lat="47.79764" lon="6.76828">
        <ele>1035.445435</ele>
        <time>2018-05-26T14:31:45Z</time>
      </trkpt>
      <trkpt lat="47.79767" lon="6.76827">
        <ele>1035.656372</ele>
        <time>2018-05-26T14:31:46Z</time>
      </trkpt>
      <trkpt lat="47.79769" lon="6.76826">
        <ele>1035.781738</ele>
        <time>2018-05-26T14:31:47Z</time>
      </trkpt>
      <trkpt lat="47.79771" lon="6.76826">
        <ele>1035.891479</ele>
        <time>2018-05-26T14:31:48Z</time>
      </trkpt>
      <trkpt lat="47.79773" lon="6.76825">
        <ele>1036.028198</ele>
        <time>2018-05-26T14:31:49Z</time>
      </trkpt>
      <trkpt lat="47.79775" lon="6.76825">
        <ele>1036.069336</ele>
        <time>2018-05-26T14:31:50Z</time>
      </trkpt>
      <trkpt lat="47.79777" lon="6.76825">
        <ele>1036.109253</ele>
        <time>2018-05-26T14:31:51Z</time>
      </trkpt>
      <trkpt lat="47.79779" lon="6.76824">
        <ele>1036.229492</ele>
        <time>2018-05-26T14:31:52Z</time>
      </trkpt>
      <trkpt lat="47.79781" lon="6.76823">
        <ele>1036.312012</ele>
        <time>2018-05-26T14:31:53Z</time>
      </trkpt>
      <trkpt lat="47.79784" lon="6.76823">
        <ele>1036.398315</ele>
        <time>2018-05-26T14:31:54Z</time>
      </trkpt>
      <trkpt lat="47.79786" lon="6.76822">
        <ele>1036.538208</ele>
        <time>2018-05-26T14:31:55Z</time>
      </trkpt>
      <trkpt lat="47.79789" lon="6.76821">
        <ele>1036.634399</ele>
        <time>2018-05-26T14:31:56Z</time>
      </trkpt>
      <trkpt lat="47.79791" lon="6.7682">
        <ele>1036.729614</ele>
        <time>2018-05-26T14:31:57Z</time>
      </trkpt>
      <trkpt lat="47.79794" lon="6.7682">
        <ele>1036.862671</ele>
        <time>2018-05-26T14:31:58Z</time>
      </trkpt>
      <trkpt lat="47.79796" lon="6.7682">
        <ele>1036.950684</ele>
        <time>2018-05-26T14:31:59Z</time>
      </trkpt>
      <trkpt lat="47.79798" lon="6.76819">
        <ele>1037.04187</ele>
        <time>2018-05-26T14:32:00Z</time>
      </trkpt>
      <trkpt lat="47.798" lon="6.76818">
        <ele>1037.185791</ele>
        <time>2018-05-26T14:32:01Z</time>
      </trkpt>
      <trkpt lat="47.79802" lon="6.76817">
        <ele>1037.285767</ele>
        <time>2018-05-26T14:32:02Z</time>
      </trkpt>
      <trkpt lat="47.79804" lon="6.76817">
        <ele>1037.390991</ele>
        <time>2018-05-26T14:32:03Z</time>
      </trkpt>
      <trkpt lat="47.79806" lon="6.76817">
        <ele>1037.558472</ele>
        <time>2018-05-26T14:32:04Z</time>
      </trkpt>
      <trkpt lat="47.79808" lon="6.76817">
        <ele>1037.670288</ele>
        <time>2018-05-26T14:32:05Z</time>
      </trkpt>
      <trkpt lat="47.7981" lon="6.76816">
        <ele>1037.777954</ele>
        <time>2018-05-26T14:32:06Z</time>
      </trkpt>
      <trkpt lat="47.79812" lon="6.76816">
        <ele>1037.930054</ele>
        <time>2018-05-26T14:32:07Z</time>
      </trkpt>
      <trkpt lat="47.79813" lon="6.76816">
        <ele>1038.03418</ele>
        <time>2018-05-26T14:32:08Z</time>
      </trkpt>
      <trkpt lat="47.79815" lon="6.76815">
        <ele>1038.140015</ele>
        <time>2018-05-26T14:32:09Z</time>
      </trkpt>
      <trkpt lat="47.79816" lon="6.76815">
        <ele>1038.299683</ele>
        <time>2018-05-26T14:32:10Z</time>
      </trkpt>
      <trkpt lat="47.79818" lon="6.76814">
        <ele>1038.405029</ele>
        <time>2018-05-26T14:32:11Z</time>
      </trkpt>
      <trkpt lat="47.7982" lon="6.76813">
        <ele>1038.50708</ele>
        <time>2018-05-26T14:32:12Z</time>
      </trkpt>
      <trkpt lat="47.79821" lon="6.76813">
        <ele>1038.646851</ele>
        <time>2018-05-26T14:32:13Z</time>
      </trkpt>
      <trkpt lat="47.79823" lon="6.76814">
        <ele>1038.726929</ele>
        <time>2018-05-26T14:32:14Z</time>
      </trkpt>
      <trkpt lat="47.79825" lon="6.76815">
        <ele>1038.799316</ele>
        <time>2018-05-26T14:32:15Z</time>
      </trkpt>
      <trkpt lat="47.79827" lon="6.76815">
        <ele>1038.909302</ele>
        <time>2018-05-26T14:32:16Z</time>
      </trkpt>
      <trkpt lat="47.79829" lon="6.76815">
        <ele>1038.984497</ele>
        <time>2018-05-26T14:32:17Z</time>
      </trkpt>
      <trkpt lat="47.7983" lon="6.76815">
        <ele>1039.057373</ele>
        <time>2018-05-26T14:32:18Z</time>
      </trkpt>
      <trkpt lat="47.79833" lon="6.76815">
        <ele>1039.151611</ele>
        <time>2018-05-26T14:32:19Z</time>
      </trkpt>
      <trkpt lat="47.79835" lon="6.76815">
        <ele>1039.214233</ele>
        <time>2018-05-26T14:32:20Z</time>
      </trkpt>
      <trkpt lat="47.79837" lon="6.76815">
        <ele>1039.280762</ele>
        <time>2018-05-26T14:32:21Z</time>
      </trkpt>
      <trkpt lat="47.79839" lon="6.76815">
        <ele>1039.37854</ele>
        <time>2018-05-26T14:32:22Z</time>
      </trkpt>
      <trkpt lat="47.79841" lon="6.76815">
        <ele>1039.433228</ele>
        <time>2018-05-26T14:32:23Z</time>
      </trkpt>
      <trkpt lat="47.79843" lon="6.76816">
        <ele>1039.520386</ele>
        <time>2018-05-26T14:32:24Z</time>
      </trkpt>
      <trkpt lat="47.79845" lon="6.76818">
        <ele>1039.583374</ele>
        <time>2018-05-26T14:32:25Z</time>
      </trkpt>
      <trkpt lat="47.79847" lon="6.7682">
        <ele>1039.648315</ele>
        <time>2018-05-26T14:32:26Z</time>
      </trkpt>
      <trkpt lat="47.79849" lon="6.76822">
        <ele>1039.726196</ele>
        <time>2018-05-26T14:32:27Z</time>
      </trkpt>
      <trkpt lat="47.79851" lon="6.76823">
        <ele>1039.758179</ele>
        <time>2018-05-26T14:32:28Z</time>
      </trkpt>
      <trkpt lat="47.79853" lon="6.76824">
        <ele>1039.773804</ele>
        <time>2018-05-26T14:32:29Z</time>
      </trkpt>
      <trkpt lat="47.79855" lon="6.76826">
        <ele>1039.775635</ele>
        <time>2018-05-26T14:32:30Z</time>
      </trkpt>
      <trkpt lat="47.79857" lon="6.76826">
        <ele>1039.769043</ele>
        <time>2018-05-26T14:32:31Z</time>
      </trkpt>
      <trkpt lat="47.79859" lon="6.76827">
        <ele>1039.753296</ele>
        <time>2018-05-26T14:32:32Z</time>
      </trkpt>
      <trkpt lat="47.79861" lon="6.76829">
        <ele>1039.722534</ele>
        <time>2018-05-26T14:32:33Z</time>
      </trkpt>
      <trkpt lat="47.79863" lon="6.76831">
        <ele>1039.697388</ele>
        <time>2018-05-26T14:32:34Z</time>
      </trkpt>
      <trkpt lat="47.79865" lon="6.76834">
        <ele>1039.677002</ele>
        <time>2018-05-26T14:32:35Z</time>
      </trkpt>
      <trkpt lat="47.79865" lon="6.76835">
        <ele>1039.674927</ele>
        <time>2018-05-26T14:32:36Z</time>
      </trkpt>
      <trkpt lat="47.79867" lon="6.76837">
        <ele>1039.691284</ele>
        <time>2018-05-26T14:32:37Z</time>
      </trkpt>
      <trkpt lat="47.79868" lon="6.76839">
        <ele>1039.732422</ele>
        <time>2018-05-26T14:32:38Z</time>
      </trkpt>
      <trkpt lat="47.79869" lon="6.76841">
        <ele>1039.786743</ele>
        <time>2018-05-26T14:32:39Z</time>
      </trkpt>
      <trkpt lat="47.79871" lon="6.76843">
        <ele>1039.852661</ele>
        <time>2018-05-26T14:32:40Z</time>
      </trkpt>
      <trkpt lat="47.79872" lon="6.76844">
        <ele>1039.995728</ele>
        <time>2018-05-26T14:32:41Z</time>
      </trkpt>
      <trkpt lat="47.79872" lon="6.76845">
        <ele>1040.126831</ele>
        <time>2018-05-26T14:32:42Z</time>
      </trkpt>
      <trkpt lat="47.79873" lon="6.76846">
        <ele>1040.513184</ele>
        <time>2018-05-26T14:32:43Z</time>
      </trkpt>
      <trkpt lat="47.79874" lon="6.76848">
        <ele>1040.682129</ele>
        <time>2018-05-26T14:32:45Z</time>
      </trkpt>
      <trkpt lat="47.79876" lon="6.76849">
        <ele>1040.862183</ele>
        <time>2018-05-26T14:32:46Z</time>
      </trkpt>
      <trkpt lat="47.79877" lon="6.7685">
        <ele>1041.046753</ele>
        <time>2018-05-26T14:32:47Z</time>
      </trkpt>
      <trkpt lat="47.79879" lon="6.7685">
        <ele>1041.327881</ele>
        <time>2018-05-26T14:32:48Z</time>
      </trkpt>
      <trkpt lat="47.7988" lon="6.76851">
        <ele>1041.50769</ele>
        <time>2018-05-26T14:32:49Z</time>
      </trkpt>
      <trkpt lat="47.79881" lon="6.76851">
        <ele>1041.685059</ele>
        <time>2018-05-26T14:32:50Z</time>
      </trkpt>
      <trkpt lat="47.79882" lon="6.76852">
        <ele>1041.777588</ele>
        <time>2018-05-26T14:32:51Z</time>
      </trkpt>
      <trkpt lat="47.79884" lon="6.76853">
        <ele>1041.876343</ele>
        <time>2018-05-26T14:32:52Z</time>
      </trkpt>
      <trkpt lat="47.79886" lon="6.76852">
        <ele>1042.217896</ele>
        <time>2018-05-26T14:32:53Z</time>
      </trkpt>
      <trkpt lat="47.79889" lon="6.76852">
        <ele>1042.48584</ele>
        <time>2018-05-26T14:32:54Z</time>
      </trkpt>
      <trkpt lat="47.7989" lon="6.76852">
        <ele>1042.782593</ele>
        <time>2018-05-26T14:32:55Z</time>
      </trkpt>
      <trkpt lat="47.79892" lon="6.76852">
        <ele>1043.265259</ele>
        <time>2018-05-26T14:32:56Z</time>
      </trkpt>
      <trkpt lat="47.79893" lon="6.76852">
        <ele>1043.60022</ele>
        <time>2018-05-26T14:32:57Z</time>
      </trkpt>
      <trkpt lat="47.79894" lon="6.76852">
        <ele>1044.108887</ele>
        <time>2018-05-26T14:32:58Z</time>
      </trkpt>
      <trkpt lat="47.79897" lon="6.76851">
        <ele>1044.441772</ele>
        <time>2018-05-26T14:32:59Z</time>
      </trkpt>
      <trkpt lat="47.79899" lon="6.7685">
        <ele>1044.760376</ele>
        <time>2018-05-26T14:33:00Z</time>
      </trkpt>
      <trkpt lat="47.79901" lon="6.76849">
        <ele>1045.190308</ele>
        <time>2018-05-26T14:33:01Z</time>
      </trkpt>
      <trkpt lat="47.79903" lon="6.76847">
        <ele>1045.450439</ele>
        <time>2018-05-26T14:33:02Z</time>
      </trkpt>
      <trkpt lat="47.79905" lon="6.76846">
        <ele>1045.812012</ele>
        <time>2018-05-26T14:33:03Z</time>
      </trkpt>
      <trkpt lat="47.79907" lon="6.76845">
        <ele>1046.033813</ele>
        <time>2018-05-26T14:33:04Z</time>
      </trkpt>
      <trkpt lat="47.79909" lon="6.76843">
        <ele>1046.236206</ele>
        <time>2018-05-26T14:33:05Z</time>
      </trkpt>
      <trkpt lat="47.79911" lon="6.76842">
        <ele>1046.515259</ele>
        <time>2018-05-26T14:33:06Z</time>
      </trkpt>
      <trkpt lat="47.79914" lon="6.7684">
        <ele>1046.698853</ele>
        <time>2018-05-26T14:33:07Z</time>
      </trkpt>
      <trkpt lat="47.79916" lon="6.76837">
        <ele>1046.887329</ele>
        <time>2018-05-26T14:33:08Z</time>
      </trkpt>
      <trkpt lat="47.79918" lon="6.76836">
        <ele>1047.085327</ele>
        <time>2018-05-26T14:33:09Z</time>
      </trkpt>
      <trkpt lat="47.7992" lon="6.76835">
        <ele>1047.401855</ele>
        <time>2018-05-26T14:33:10Z</time>
      </trkpt>
      <trkpt lat="47.79922" lon="6.76834">
        <ele>1047.624146</ele>
        <time>2018-05-26T14:33:11Z</time>
      </trkpt>
      <trkpt lat="47.79924" lon="6.76834">
        <ele>1047.849487</ele>
        <time>2018-05-26T14:33:12Z</time>
      </trkpt>
      <trkpt lat="47.79925" lon="6.76834">
        <ele>1048.172485</ele>
        <time>2018-05-26T14:33:13Z</time>
      </trkpt>
      <trkpt lat="47.79927" lon="6.76834">
        <ele>1048.363159</ele>
        <time>2018-05-26T14:33:14Z</time>
      </trkpt>
      <trkpt lat="47.79929" lon="6.76834">
        <ele>1048.618042</ele>
        <time>2018-05-26T14:33:15Z</time>
      </trkpt>
      <trkpt lat="47.79931" lon="6.76835">
        <ele>1048.780396</ele>
        <time>2018-05-26T14:33:16Z</time>
      </trkpt>
      <trkpt lat="47.79932" lon="6.76837">
        <ele>1048.939087</ele>
        <time>2018-05-26T14:33:17Z</time>
      </trkpt>
      <trkpt lat="47.79934" lon="6.76839">
        <ele>1049.096802</ele>
        <time>2018-05-26T14:33:18Z</time>
      </trkpt>
      <trkpt lat="47.79936" lon="6.7684">
        <ele>1049.343628</ele>
        <time>2018-05-26T14:33:19Z</time>
      </trkpt>
      <trkpt lat="47.79938" lon="6.76841">
        <ele>1049.523804</ele>
        <time>2018-05-26T14:33:20Z</time>
      </trkpt>
      <trkpt lat="47.7994" lon="6.76841">
        <ele>1049.71582</ele>
        <time>2018-05-26T14:33:21Z</time>
      </trkpt>
      <trkpt lat="47.79941" lon="6.76842">
        <ele>1050.008911</ele>
        <time>2018-05-26T14:33:22Z</time>
      </trkpt>
      <trkpt lat="47.79943" lon="6.76843">
        <ele>1050.195068</ele>
        <time>2018-05-26T14:33:23Z</time>
      </trkpt>
      <trkpt lat="47.79944" lon="6.76845">
        <ele>1050.364746</ele>
        <time>2018-05-26T14:33:24Z</time>
      </trkpt>
      <trkpt lat="47.79946" lon="6.76846">
        <ele>1050.586304</ele>
        <time>2018-05-26T14:33:25Z</time>
      </trkpt>
      <trkpt lat="47.79947" lon="6.76847">
        <ele>1050.711914</ele>
        <time>2018-05-26T14:33:26Z</time>
      </trkpt>
      <trkpt lat="47.79948" lon="6.76849">
        <ele>1050.820801</ele>
        <time>2018-05-26T14:33:27Z</time>
      </trkpt>
      <trkpt lat="47.7995" lon="6.76851">
        <ele>1050.91394</ele>
        <time>2018-05-26T14:33:28Z</time>
      </trkpt>
      <trkpt lat="47.79952" lon="6.76853">
        <ele>1051.040283</ele>
        <time>2018-05-26T14:33:29Z</time>
      </trkpt>
      <trkpt lat="47.79953" lon="6.76855">
        <ele>1051.125</ele>
        <time>2018-05-26T14:33:30Z</time>
      </trkpt>
      <trkpt lat="47.79955" lon="6.76857">
        <ele>1051.221069</ele>
        <time>2018-05-26T14:33:31Z</time>
      </trkpt>
      <trkpt lat="47.79956" lon="6.76858">
        <ele>1051.389893</ele>
        <time>2018-05-26T14:33:32Z</time>
      </trkpt>
      <trkpt lat="47.79957" lon="6.7686">
        <ele>1051.516479</ele>
        <time>2018-05-26T14:33:33Z</time>
      </trkpt>
      <trkpt lat="47.79958" lon="6.76861">
        <ele>1051.644043</ele>
        <time>2018-05-26T14:33:34Z</time>
      </trkpt>
      <trkpt lat="47.7996" lon="6.76863">
        <ele>1051.772095</ele>
        <time>2018-05-26T14:33:35Z</time>
      </trkpt>
      <trkpt lat="47.7996" lon="6.76865">
        <ele>1051.959229</ele>
        <time>2018-05-26T14:33:36Z</time>
      </trkpt>
      <trkpt lat="47.79961" lon="6.76867">
        <ele>1052.0802</ele>
        <time>2018-05-26T14:33:37Z</time>
      </trkpt>
      <trkpt lat="47.79963" lon="6.76869">
        <ele>1052.199097</ele>
        <time>2018-05-26T14:33:38Z</time>
      </trkpt>
      <trkpt lat="47.79964" lon="6.76871">
        <ele>1052.317383</ele>
        <time>2018-05-26T14:33:39Z</time>
      </trkpt>
      <trkpt lat="47.79966" lon="6.76874">
        <ele>1052.435547</ele>
        <time>2018-05-26T14:33:40Z</time>
      </trkpt>
      <trkpt lat="47.79966" lon="6.76876">
        <ele>1052.553833</ele>
        <time>2018-05-26T14:33:41Z</time>
      </trkpt>
      <trkpt lat="47.79968" lon="6.76877">
        <ele>1052.724487</ele>
        <time>2018-05-26T14:33:42Z</time>
      </trkpt>
      <trkpt lat="47.79968" lon="6.76878">
        <ele>1052.82959</ele>
        <time>2018-05-26T14:33:43Z</time>
      </trkpt>
      <trkpt lat="47.79969" lon="6.76879">
        <ele>1052.932129</ele>
        <time>2018-05-26T14:33:44Z</time>
      </trkpt>
      <trkpt lat="47.79969" lon="6.7688">
        <ele>1053.035767</ele>
        <time>2018-05-26T14:33:45Z</time>
      </trkpt>
      <trkpt lat="47.79971" lon="6.7688">
        <ele>1053.140259</ele>
        <time>2018-05-26T14:33:46Z</time>
      </trkpt>
      <trkpt lat="47.79971" lon="6.76881">
        <ele>1053.291138</ele>
        <time>2018-05-26T14:33:47Z</time>
      </trkpt>
      <trkpt lat="47.79972" lon="6.76882">
        <ele>1053.391968</ele>
        <time>2018-05-26T14:33:48Z</time>
      </trkpt>
      <trkpt lat="47.79972" lon="6.76884">
        <ele>1053.49939</ele>
        <time>2018-05-26T14:33:49Z</time>
      </trkpt>
      <trkpt lat="47.79973" lon="6.76885">
        <ele>1053.611328</ele>
        <time>2018-05-26T14:33:50Z</time>
      </trkpt>
      <trkpt lat="47.79973" lon="6.76886">
        <ele>1053.6698</ele>
        <time>2018-05-26T14:33:51Z</time>
      </trkpt>
      <trkpt lat="47.79974" lon="6.76886">
        <ele>1053.857056</ele>
        <time>2018-05-26T14:33:52Z</time>
      </trkpt>
      <trkpt lat="47.79975" lon="6.76887">
        <ele>1053.999146</ele>
        <time>2018-05-26T14:33:53Z</time>
      </trkpt>
      <trkpt lat="47.79976" lon="6.76887">
        <ele>1054.154663</ele>
        <time>2018-05-26T14:33:54Z</time>
      </trkpt>
      <trkpt lat="47.79978" lon="6.76888">
        <ele>1054.319702</ele>
        <time>2018-05-26T14:33:55Z</time>
      </trkpt>
      <trkpt lat="47.79979" lon="6.76889">
        <ele>1054.489746</ele>
        <time>2018-05-26T14:33:56Z</time>
      </trkpt>
      <trkpt lat="47.79981" lon="6.7689">
        <ele>1054.763794</ele>
        <time>2018-05-26T14:33:57Z</time>
      </trkpt>
      <trkpt lat="47.79983" lon="6.76891">
        <ele>1054.959961</ele>
        <time>2018-05-26T14:33:58Z</time>
      </trkpt>
      <trkpt lat="47.79985" lon="6.76892">
        <ele>1055.157104</ele>
        <time>2018-05-26T14:33:59Z</time>
      </trkpt>
      <trkpt lat="47.79986" lon="6.76893">
        <ele>1055.442261</ele>
        <time>2018-05-26T14:34:00Z</time>
      </trkpt>
      <trkpt lat="47.79987" lon="6.76893">
        <ele>1055.62561</ele>
        <time>2018-05-26T14:34:01Z</time>
      </trkpt>
      <trkpt lat="47.79988" lon="6.76894">
        <ele>1055.810059</ele>
        <time>2018-05-26T14:34:02Z</time>
      </trkpt>
      <trkpt lat="47.79989" lon="6.76895">
        <ele>1056.096436</ele>
        <time>2018-05-26T14:34:03Z</time>
      </trkpt>
      <trkpt lat="47.7999" lon="6.76896">
        <ele>1056.494995</ele>
        <time>2018-05-26T14:34:04Z</time>
      </trkpt>
      <trkpt lat="47.79992" lon="6.76897">
        <ele>1056.800903</ele>
        <time>2018-05-26T14:34:06Z</time>
      </trkpt>
      <trkpt lat="47.79994" lon="6.76898">
        <ele>1057.005737</ele>
        <time>2018-05-26T14:34:07Z</time>
      </trkpt>
      <trkpt lat="47.79995" lon="6.76898">
        <ele>1057.202271</ele>
        <time>2018-05-26T14:34:08Z</time>
      </trkpt>
      <trkpt lat="47.79996" lon="6.76899">
        <ele>1057.459473</ele>
        <time>2018-05-26T14:34:09Z</time>
      </trkpt>
      <trkpt lat="47.79998" lon="6.769">
        <ele>1057.603149</ele>
        <time>2018-05-26T14:34:10Z</time>
      </trkpt>
      <trkpt lat="47.8" lon="6.76901">
        <ele>1057.742065</ele>
        <time>2018-05-26T14:34:11Z</time>
      </trkpt>
      <trkpt lat="47.80001" lon="6.76902">
        <ele>1057.964722</ele>
        <time>2018-05-26T14:34:12Z</time>
      </trkpt>
      <trkpt lat="47.80003" lon="6.76902">
        <ele>1058.127319</ele>
        <time>2018-05-26T14:34:13Z</time>
      </trkpt>
      <trkpt lat="47.80004" lon="6.76903">
        <ele>1058.295532</ele>
        <time>2018-05-26T14:34:14Z</time>
      </trkpt>
      <trkpt lat="47.80005" lon="6.76903">
        <ele>1058.550171</ele>
        <time>2018-05-26T14:34:15Z</time>
      </trkpt>
      <trkpt lat="47.80007" lon="6.76903">
        <ele>1058.719238</ele>
        <time>2018-05-26T14:34:16Z</time>
      </trkpt>
      <trkpt lat="47.80009" lon="6.76903">
        <ele>1058.886841</ele>
        <time>2018-05-26T14:34:17Z</time>
      </trkpt>
      <trkpt lat="47.8001" lon="6.76904">
        <ele>1059.129028</ele>
        <time>2018-05-26T14:34:18Z</time>
      </trkpt>
      <trkpt lat="47.80012" lon="6.76906">
        <ele>1059.286499</ele>
        <time>2018-05-26T14:34:19Z</time>
      </trkpt>
      <trkpt lat="47.80013" lon="6.76907">
        <ele>1059.440796</ele>
        <time>2018-05-26T14:34:20Z</time>
      </trkpt>
      <trkpt lat="47.80015" lon="6.76907">
        <ele>1059.664917</ele>
        <time>2018-05-26T14:34:21Z</time>
      </trkpt>
      <trkpt lat="47.80017" lon="6.76908">
        <ele>1059.805786</ele>
        <time>2018-05-26T14:34:22Z</time>
      </trkpt>
      <trkpt lat="47.80018" lon="6.7691">
        <ele>1059.938965</ele>
        <time>2018-05-26T14:34:23Z</time>
      </trkpt>
      <trkpt lat="47.8002" lon="6.76911">
        <ele>1060.064087</ele>
        <time>2018-05-26T14:34:24Z</time>
      </trkpt>
      <trkpt lat="47.80022" lon="6.76913">
        <ele>1060.233765</ele>
        <time>2018-05-26T14:34:25Z</time>
      </trkpt>
      <trkpt lat="47.80023" lon="6.76915">
        <ele>1060.335693</ele>
        <time>2018-05-26T14:34:26Z</time>
      </trkpt>
      <trkpt lat="47.80024" lon="6.76916">
        <ele>1060.432861</ele>
        <time>2018-05-26T14:34:27Z</time>
      </trkpt>
      <trkpt lat="47.80026" lon="6.76917">
        <ele>1060.582153</ele>
        <time>2018-05-26T14:34:28Z</time>
      </trkpt>
      <trkpt lat="47.80028" lon="6.76918">
        <ele>1060.688843</ele>
        <time>2018-05-26T14:34:29Z</time>
      </trkpt>
      <trkpt lat="47.80029" lon="6.7692">
        <ele>1060.800415</ele>
        <time>2018-05-26T14:34:30Z</time>
      </trkpt>
      <trkpt lat="47.8003" lon="6.76921">
        <ele>1061.117676</ele>
        <time>2018-05-26T14:34:31Z</time>
      </trkpt>
      <trkpt lat="47.80031" lon="6.76921">
        <ele>1061.526855</ele>
        <time>2018-05-26T14:34:33Z</time>
      </trkpt>
      <trkpt lat="47.80032" lon="6.76922">
        <ele>1061.703857</ele>
        <time>2018-05-26T14:34:35Z</time>
      </trkpt>
      <trkpt lat="47.80039" lon="6.76932">
        <ele>1063.43457</ele>
        <time>2018-05-26T14:34:42Z</time>
      </trkpt>
      <trkpt lat="47.8004" lon="6.76933">
        <ele>1063.62085</ele>
        <time>2018-05-26T14:34:44Z</time>
      </trkpt>
      <trkpt lat="47.80042" lon="6.76936">
        <ele>1063.79834</ele>
        <time>2018-05-26T14:34:45Z</time>
      </trkpt>
      <trkpt lat="47.80044" lon="6.76938">
        <ele>1063.968994</ele>
        <time>2018-05-26T14:34:46Z</time>
      </trkpt>
      <trkpt lat="47.80046" lon="6.76939">
        <ele>1064.219971</ele>
        <time>2018-05-26T14:34:47Z</time>
      </trkpt>
      <trkpt lat="47.80048" lon="6.76942">
        <ele>1064.391968</ele>
        <time>2018-05-26T14:34:48Z</time>
      </trkpt>
      <trkpt lat="47.80049" lon="6.76944">
        <ele>1064.570313</ele>
        <time>2018-05-26T14:34:49Z</time>
      </trkpt>
      <trkpt lat="47.80051" lon="6.76946">
        <ele>1064.847534</ele>
        <time>2018-05-26T14:34:50Z</time>
      </trkpt>
      <trkpt lat="47.80052" lon="6.76948">
        <ele>1064.937378</ele>
        <time>2018-05-26T14:34:51Z</time>
      </trkpt>
      <trkpt lat="47.80054" lon="6.7695">
        <ele>1064.937378</ele>
        <time>2018-05-26T14:34:52Z</time>
      </trkpt>
      <trkpt lat="47.80055" lon="6.76952">
        <ele>1065.105103</ele>
        <time>2018-05-26T14:34:53Z</time>
      </trkpt>
      <trkpt lat="47.80056" lon="6.76954">
        <ele>1065.255737</ele>
        <time>2018-05-26T14:34:54Z</time>
      </trkpt>
      <trkpt lat="47.80058" lon="6.76956">
        <ele>1065.395386</ele>
        <time>2018-05-26T14:34:55Z</time>
      </trkpt>
      <trkpt lat="47.80059" lon="6.76958">
        <ele>1065.590332</ele>
        <time>2018-05-26T14:34:56Z</time>
      </trkpt>
      <trkpt lat="47.80061" lon="6.7696">
        <ele>1065.707886</ele>
        <time>2018-05-26T14:34:57Z</time>
      </trkpt>
      <trkpt lat="47.80061" lon="6.76962">
        <ele>1065.813721</ele>
        <time>2018-05-26T14:34:58Z</time>
      </trkpt>
      <trkpt lat="47.80063" lon="6.76964">
        <ele>1065.969849</ele>
        <time>2018-05-26T14:34:59Z</time>
      </trkpt>
      <trkpt lat="47.80064" lon="6.76964">
        <ele>1066.084229</ele>
        <time>2018-05-26T14:35:00Z</time>
      </trkpt>
      <trkpt lat="47.80065" lon="6.76966">
        <ele>1066.214355</ele>
        <time>2018-05-26T14:35:01Z</time>
      </trkpt>
      <trkpt lat="47.80066" lon="6.76967">
        <ele>1066.42395</ele>
        <time>2018-05-26T14:35:02Z</time>
      </trkpt>
      <trkpt lat="47.80067" lon="6.76969">
        <ele>1066.566406</ele>
        <time>2018-05-26T14:35:03Z</time>
      </trkpt>
      <trkpt lat="47.80068" lon="6.76971">
        <ele>1066.713867</ele>
        <time>2018-05-26T14:35:04Z</time>
      </trkpt>
      <trkpt lat="47.80069" lon="6.76973">
        <ele>1066.869141</ele>
        <time>2018-05-26T14:35:05Z</time>
      </trkpt>
      <trkpt lat="47.8007" lon="6.76974">
        <ele>1067.029297</ele>
        <time>2018-05-26T14:35:06Z</time>
      </trkpt>
      <trkpt lat="47.80071" lon="6.76976">
        <ele>1067.18811</ele>
        <time>2018-05-26T14:35:07Z</time>
      </trkpt>
      <trkpt lat="47.80072" lon="6.76978">
        <ele>1067.417847</ele>
        <time>2018-05-26T14:35:08Z</time>
      </trkpt>
      <trkpt lat="47.80072" lon="6.76979">
        <ele>1067.561523</ele>
        <time>2018-05-26T14:35:09Z</time>
      </trkpt>
      <trkpt lat="47.80073" lon="6.7698">
        <ele>1067.832031</ele>
        <time>2018-05-26T14:35:10Z</time>
      </trkpt>
      <trkpt lat="47.80074" lon="6.76982">
        <ele>1068.015991</ele>
        <time>2018-05-26T14:35:12Z</time>
      </trkpt>
      <trkpt lat="47.80076" lon="6.76984">
        <ele>1068.138916</ele>
        <time>2018-05-26T14:35:13Z</time>
      </trkpt>
      <trkpt lat="47.80077" lon="6.76986">
        <ele>1068.267212</ele>
        <time>2018-05-26T14:35:14Z</time>
      </trkpt>
      <trkpt lat="47.80077" lon="6.76988">
        <ele>1068.397583</ele>
        <time>2018-05-26T14:35:15Z</time>
      </trkpt>
      <trkpt lat="47.80078" lon="6.76991">
        <ele>1068.527832</ele>
        <time>2018-05-26T14:35:16Z</time>
      </trkpt>
      <trkpt lat="47.80079" lon="6.76993">
        <ele>1068.659424</ele>
        <time>2018-05-26T14:35:17Z</time>
      </trkpt>
      <trkpt lat="47.80081" lon="6.76995">
        <ele>1068.792847</ele>
        <time>2018-05-26T14:35:18Z</time>
      </trkpt>
      <trkpt lat="47.80082" lon="6.76998">
        <ele>1068.932495</ele>
        <time>2018-05-26T14:35:19Z</time>
      </trkpt>
      <trkpt lat="47.80084" lon="6.77">
        <ele>1069.15271</ele>
        <time>2018-05-26T14:35:20Z</time>
      </trkpt>
      <trkpt lat="47.80085" lon="6.77002">
        <ele>1069.298218</ele>
        <time>2018-05-26T14:35:21Z</time>
      </trkpt>
      <trkpt lat="47.80087" lon="6.77005">
        <ele>1069.439941</ele>
        <time>2018-05-26T14:35:22Z</time>
      </trkpt>
      <trkpt lat="47.80088" lon="6.77008">
        <ele>1069.580444</ele>
        <time>2018-05-26T14:35:23Z</time>
      </trkpt>
      <trkpt lat="47.8009" lon="6.7701">
        <ele>1069.726074</ele>
        <time>2018-05-26T14:35:24Z</time>
      </trkpt>
      <trkpt lat="47.8009" lon="6.77012">
        <ele>1069.869507</ele>
        <time>2018-05-26T14:35:25Z</time>
      </trkpt>
      <trkpt lat="47.80091" lon="6.77014">
        <ele>1070.061523</ele>
        <time>2018-05-26T14:35:26Z</time>
      </trkpt>
      <trkpt lat="47.80091" lon="6.77015">
        <ele>1070.165405</ele>
        <time>2018-05-26T14:35:27Z</time>
      </trkpt>
      <trkpt lat="47.80092" lon="6.77017">
        <ele>1070.254883</ele>
        <time>2018-05-26T14:35:28Z</time>
      </trkpt>
      <trkpt lat="47.80093" lon="6.77019">
        <ele>1070.339111</ele>
        <time>2018-05-26T14:35:29Z</time>
      </trkpt>
      <trkpt lat="47.80093" lon="6.77021">
        <ele>1070.419434</ele>
        <time>2018-05-26T14:35:30Z</time>
      </trkpt>
      <trkpt lat="47.80095" lon="6.77023">
        <ele>1070.490601</ele>
        <time>2018-05-26T14:35:31Z</time>
      </trkpt>
      <trkpt lat="47.80096" lon="6.77026">
        <ele>1070.54895</ele>
        <time>2018-05-26T14:35:32Z</time>
      </trkpt>
      <trkpt lat="47.80096" lon="6.77028">
        <ele>1070.595581</ele>
        <time>2018-05-26T14:35:33Z</time>
      </trkpt>
      <trkpt lat="47.80097" lon="6.7703">
        <ele>1070.660522</ele>
        <time>2018-05-26T14:35:34Z</time>
      </trkpt>
      <trkpt lat="47.80098" lon="6.77032">
        <ele>1070.705444</ele>
        <time>2018-05-26T14:35:35Z</time>
      </trkpt>
      <trkpt lat="47.80099" lon="6.77033">
        <ele>1070.751709</ele>
        <time>2018-05-26T14:35:36Z</time>
      </trkpt>
      <trkpt lat="47.80099" lon="6.77034">
        <ele>1070.793579</ele>
        <time>2018-05-26T14:35:37Z</time>
      </trkpt>
      <trkpt lat="47.801" lon="6.77036">
        <ele>1070.833618</ele>
        <time>2018-05-26T14:35:38Z</time>
      </trkpt>
      <trkpt lat="47.80101" lon="6.77038">
        <ele>1070.887451</ele>
        <time>2018-05-26T14:35:39Z</time>
      </trkpt>
      <trkpt lat="47.80101" lon="6.7704">
        <ele>1070.921021</ele>
        <time>2018-05-26T14:35:40Z</time>
      </trkpt>
      <trkpt lat="47.80102" lon="6.77041">
        <ele>1070.952515</ele>
        <time>2018-05-26T14:35:41Z</time>
      </trkpt>
      <trkpt lat="47.80102" lon="6.77043">
        <ele>1070.978027</ele>
        <time>2018-05-26T14:35:42Z</time>
      </trkpt>
      <trkpt lat="47.80103" lon="6.77045">
        <ele>1070.995117</ele>
        <time>2018-05-26T14:35:43Z</time>
      </trkpt>
      <trkpt lat="47.80103" lon="6.77047">
        <ele>1071.009277</ele>
        <time>2018-05-26T14:35:44Z</time>
      </trkpt>
      <trkpt lat="47.80103" lon="6.7705">
        <ele>1071.025269</ele>
        <time>2018-05-26T14:35:45Z</time>
      </trkpt>
      <trkpt lat="47.80104" lon="6.77051">
        <ele>1071.049316</ele>
        <time>2018-05-26T14:35:46Z</time>
      </trkpt>
      <trkpt lat="47.80102" lon="6.77066">
        <ele>1071.747681</ele>
        <time>2018-05-26T14:37:06Z</time>
      </trkpt>
      <trkpt lat="47.80103" lon="6.77069">
        <ele>1071.768677</ele>
        <time>2018-05-26T14:37:08Z</time>
      </trkpt>
      <trkpt lat="47.80103" lon="6.77072">
        <ele>1071.812622</ele>
        <time>2018-05-26T14:37:09Z</time>
      </trkpt>
      <trkpt lat="47.80103" lon="6.77074">
        <ele>1071.847412</ele>
        <time>2018-05-26T14:37:10Z</time>
      </trkpt>
      <trkpt lat="47.80103" lon="6.77077">
        <ele>1071.905151</ele>
        <time>2018-05-26T14:37:11Z</time>
      </trkpt>
      <trkpt lat="47.80103" lon="6.7708">
        <ele>1071.945923</ele>
        <time>2018-05-26T14:37:12Z</time>
      </trkpt>
      <trkpt lat="47.80103" lon="6.77085">
        <ele>1072.027222</ele>
        <time>2018-05-26T14:37:13Z</time>
      </trkpt>
      <trkpt lat="47.80104" lon="6.77089">
        <ele>1072.09668</ele>
        <time>2018-05-26T14:37:14Z</time>
      </trkpt>
      <trkpt lat="47.80104" lon="6.77093">
        <ele>1072.17334</ele>
        <time>2018-05-26T14:37:15Z</time>
      </trkpt>
      <trkpt lat="47.80104" lon="6.77096">
        <ele>1072.285767</ele>
        <time>2018-05-26T14:37:16Z</time>
      </trkpt>
      <trkpt lat="47.80105" lon="6.77099">
        <ele>1072.360718</ele>
        <time>2018-05-26T14:37:17Z</time>
      </trkpt>
      <trkpt lat="47.80106" lon="6.77103">
        <ele>1072.478271</ele>
        <time>2018-05-26T14:37:18Z</time>
      </trkpt>
      <trkpt lat="47.80107" lon="6.77107">
        <ele>1072.557251</ele>
        <time>2018-05-26T14:37:19Z</time>
      </trkpt>
      <trkpt lat="47.80108" lon="6.7711">
        <ele>1072.630615</ele>
        <time>2018-05-26T14:37:20Z</time>
      </trkpt>
      <trkpt lat="47.80109" lon="6.77112">
        <ele>1072.734985</ele>
        <time>2018-05-26T14:37:21Z</time>
      </trkpt>
      <trkpt lat="47.80109" lon="6.77114">
        <ele>1072.812012</ele>
        <time>2018-05-26T14:37:22Z</time>
      </trkpt>
      <trkpt lat="47.8011" lon="6.77118">
        <ele>1072.942505</ele>
        <time>2018-05-26T14:37:23Z</time>
      </trkpt>
      <trkpt lat="47.80112" lon="6.77121">
        <ele>1073.03186</ele>
        <time>2018-05-26T14:37:24Z</time>
      </trkpt>
      <trkpt lat="47.80113" lon="6.77125">
        <ele>1073.151367</ele>
        <time>2018-05-26T14:37:25Z</time>
      </trkpt>
      <trkpt lat="47.80114" lon="6.77128">
        <ele>1073.219971</ele>
        <time>2018-05-26T14:37:26Z</time>
      </trkpt>
      <trkpt lat="47.80116" lon="6.77131">
        <ele>1073.311279</ele>
        <time>2018-05-26T14:37:27Z</time>
      </trkpt>
      <trkpt lat="47.80117" lon="6.77134">
        <ele>1073.366089</ele>
        <time>2018-05-26T14:37:28Z</time>
      </trkpt>
      <trkpt lat="47.80119" lon="6.77137">
        <ele>1073.432251</ele>
        <time>2018-05-26T14:37:29Z</time>
      </trkpt>
      <trkpt lat="47.80121" lon="6.7714">
        <ele>1073.467773</ele>
        <time>2018-05-26T14:37:30Z</time>
      </trkpt>
      <trkpt lat="47.80123" lon="6.77143">
        <ele>1073.505249</ele>
        <time>2018-05-26T14:37:31Z</time>
      </trkpt>
      <trkpt lat="47.80125" lon="6.77146">
        <ele>1073.573608</ele>
        <time>2018-05-26T14:37:32Z</time>
      </trkpt>
      <trkpt lat="47.80126" lon="6.77148">
        <ele>1073.625122</ele>
        <time>2018-05-26T14:37:33Z</time>
      </trkpt>
      <trkpt lat="47.80127" lon="6.7715">
        <ele>1073.706055</ele>
        <time>2018-05-26T14:37:34Z</time>
      </trkpt>
      <trkpt lat="47.80128" lon="6.77152">
        <ele>1073.766724</ele>
        <time>2018-05-26T14:37:35Z</time>
      </trkpt>
      <trkpt lat="47.8013" lon="6.77153">
        <ele>1073.869751</ele>
        <time>2018-05-26T14:37:36Z</time>
      </trkpt>
      <trkpt lat="47.80131" lon="6.77155">
        <ele>1073.941895</ele>
        <time>2018-05-26T14:37:37Z</time>
      </trkpt>
      <trkpt lat="47.80132" lon="6.77156">
        <ele>1074.016113</ele>
        <time>2018-05-26T14:37:38Z</time>
      </trkpt>
      <trkpt lat="47.80133" lon="6.77157">
        <ele>1074.132446</ele>
        <time>2018-05-26T14:37:39Z</time>
      </trkpt>
      <trkpt lat="47.80135" lon="6.77157">
        <ele>1074.214478</ele>
        <time>2018-05-26T14:37:40Z</time>
      </trkpt>
      <trkpt lat="47.80136" lon="6.77157">
        <ele>1074.333008</ele>
        <time>2018-05-26T14:37:41Z</time>
      </trkpt>
      <trkpt lat="47.80143" lon="6.77168">
        <ele>1075.011597</ele>
        <time>2018-05-26T14:37:58Z</time>
      </trkpt>
      <trkpt lat="47.80145" lon="6.7717">
        <ele>1075.011841</ele>
        <time>2018-05-26T14:38:00Z</time>
      </trkpt>
      <trkpt lat="47.80146" lon="6.77171">
        <ele>1075.009277</ele>
        <time>2018-05-26T14:38:01Z</time>
      </trkpt>
      <trkpt lat="47.80147" lon="6.77173">
        <ele>1075.007935</ele>
        <time>2018-05-26T14:38:02Z</time>
      </trkpt>
      <trkpt lat="47.80149" lon="6.77175">
        <ele>1075.006348</ele>
        <time>2018-05-26T14:38:03Z</time>
      </trkpt>
      <trkpt lat="47.80151" lon="6.77177">
        <ele>1075.000366</ele>
        <time>2018-05-26T14:38:04Z</time>
      </trkpt>
      <trkpt lat="47.80153" lon="6.7718">
        <ele>1075.000366</ele>
        <time>2018-05-26T14:38:05Z</time>
      </trkpt>
      <trkpt lat="47.80155" lon="6.77182">
        <ele>1075.00769</ele>
        <time>2018-05-26T14:38:06Z</time>
      </trkpt>
      <trkpt lat="47.80158" lon="6.77185">
        <ele>1075.050537</ele>
        <time>2018-05-26T14:38:07Z</time>
      </trkpt>
      <trkpt lat="47.80159" lon="6.77186">
        <ele>1075.090454</ele>
        <time>2018-05-26T14:38:08Z</time>
      </trkpt>
      <trkpt lat="47.8016" lon="6.77186">
        <ele>1075.129761</ele>
        <time>2018-05-26T14:38:09Z</time>
      </trkpt>
      <trkpt lat="47.80161" lon="6.77187">
        <ele>1075.197266</ele>
        <time>2018-05-26T14:38:10Z</time>
      </trkpt>
      <trkpt lat="47.80162" lon="6.77188">
        <ele>1075.249634</ele>
        <time>2018-05-26T14:38:11Z</time>
      </trkpt>
      <trkpt lat="47.80164" lon="6.7719">
        <ele>1075.34314</ele>
        <time>2018-05-26T14:38:12Z</time>
      </trkpt>
      <trkpt lat="47.80166" lon="6.77192">
        <ele>1075.414673</ele>
        <time>2018-05-26T14:38:13Z</time>
      </trkpt>
      <trkpt lat="47.80168" lon="6.77194">
        <ele>1075.548096</ele>
        <time>2018-05-26T14:38:14Z</time>
      </trkpt>
      <trkpt lat="47.8017" lon="6.77196">
        <ele>1075.65625</ele>
        <time>2018-05-26T14:38:15Z</time>
      </trkpt>
      <trkpt lat="47.80172" lon="6.77197">
        <ele>1075.77356</ele>
        <time>2018-05-26T14:38:16Z</time>
      </trkpt>
      <trkpt lat="47.80174" lon="6.77199">
        <ele>1075.952759</ele>
        <time>2018-05-26T14:38:17Z</time>
      </trkpt>
      <trkpt lat="47.80176" lon="6.77201">
        <ele>1076.067871</ele>
        <time>2018-05-26T14:38:18Z</time>
      </trkpt>
      <trkpt lat="47.80178" lon="6.77203">
        <ele>1076.218384</ele>
        <time>2018-05-26T14:38:19Z</time>
      </trkpt>
      <trkpt lat="47.8018" lon="6.77205">
        <ele>1076.292358</ele>
        <time>2018-05-26T14:38:20Z</time>
      </trkpt>
      <trkpt lat="47.80182" lon="6.77207">
        <ele>1076.376587</ele>
        <time>2018-05-26T14:38:21Z</time>
      </trkpt>
      <trkpt lat="47.80184" lon="6.77208">
        <ele>1076.432739</ele>
        <time>2018-05-26T14:38:22Z</time>
      </trkpt>
      <trkpt lat="47.80187" lon="6.77209">
        <ele>1076.495239</ele>
        <time>2018-05-26T14:38:23Z</time>
      </trkpt>
      <trkpt lat="47.80189" lon="6.7721">
        <ele>1076.595093</ele>
        <time>2018-05-26T14:38:24Z</time>
      </trkpt>
      <trkpt lat="47.80191" lon="6.77212">
        <ele>1076.660522</ele>
        <time>2018-05-26T14:38:25Z</time>
      </trkpt>
      <trkpt lat="47.80194" lon="6.77213">
        <ele>1076.766968</ele>
        <time>2018-05-26T14:38:26Z</time>
      </trkpt>
      <trkpt lat="47.80196" lon="6.77214">
        <ele>1076.846558</ele>
        <time>2018-05-26T14:38:27Z</time>
      </trkpt>
      <trkpt lat="47.80198" lon="6.77216">
        <ele>1076.969727</ele>
        <time>2018-05-26T14:38:28Z</time>
      </trkpt>
      <trkpt lat="47.802" lon="6.77217">
        <ele>1077.047852</ele>
        <time>2018-05-26T14:38:29Z</time>
      </trkpt>
      <trkpt lat="47.80202" lon="6.77218">
        <ele>1077.164917</ele>
        <time>2018-05-26T14:38:30Z</time>
      </trkpt>
      <trkpt lat="47.80204" lon="6.77219">
        <ele>1077.248657</ele>
        <time>2018-05-26T14:38:31Z</time>
      </trkpt>
      <trkpt lat="47.80206" lon="6.7722">
        <ele>1077.336914</ele>
        <time>2018-05-26T14:38:32Z</time>
      </trkpt>
      <trkpt lat="47.80208" lon="6.77221">
        <ele>1077.470093</ele>
        <time>2018-05-26T14:38:33Z</time>
      </trkpt>
      <trkpt lat="47.8021" lon="6.77222">
        <ele>1077.555908</ele>
        <time>2018-05-26T14:38:34Z</time>
      </trkpt>
      <trkpt lat="47.80212" lon="6.77223">
        <ele>1077.685791</ele>
        <time>2018-05-26T14:38:35Z</time>
      </trkpt>
      <trkpt lat="47.80214" lon="6.77224">
        <ele>1077.776611</ele>
        <time>2018-05-26T14:38:36Z</time>
      </trkpt>
      <trkpt lat="47.80216" lon="6.77225">
        <ele>1077.914185</ele>
        <time>2018-05-26T14:38:37Z</time>
      </trkpt>
      <trkpt lat="47.80218" lon="6.77226">
        <ele>1078.004517</ele>
        <time>2018-05-26T14:38:38Z</time>
      </trkpt>
      <trkpt lat="47.8022" lon="6.77226">
        <ele>1078.093628</ele>
        <time>2018-05-26T14:38:39Z</time>
      </trkpt>
      <trkpt lat="47.80221" lon="6.77225">
        <ele>1078.224243</ele>
        <time>2018-05-26T14:38:40Z</time>
      </trkpt>
      <trkpt lat="47.80222" lon="6.77224">
        <ele>1078.303101</ele>
        <time>2018-05-26T14:38:41Z</time>
      </trkpt>
      <trkpt lat="47.80224" lon="6.77225">
        <ele>1078.415894</ele>
        <time>2018-05-26T14:38:42Z</time>
      </trkpt>
      <trkpt lat="47.80225" lon="6.77225">
        <ele>1078.497925</ele>
        <time>2018-05-26T14:38:43Z</time>
      </trkpt>
      <trkpt lat="47.80227" lon="6.77226">
        <ele>1078.634399</ele>
        <time>2018-05-26T14:38:44Z</time>
      </trkpt>
      <trkpt lat="47.8023" lon="6.77227">
        <ele>1078.721069</ele>
        <time>2018-05-26T14:38:45Z</time>
      </trkpt>
      <trkpt lat="47.80232" lon="6.77227">
        <ele>1078.838745</ele>
        <time>2018-05-26T14:38:46Z</time>
      </trkpt>
      <trkpt lat="47.80233" lon="6.77226">
        <ele>1078.913452</ele>
        <time>2018-05-26T14:38:47Z</time>
      </trkpt>
      <trkpt lat="47.80236" lon="6.77227">
        <ele>1078.989136</ele>
        <time>2018-05-26T14:38:48Z</time>
      </trkpt>
      <trkpt lat="47.80239" lon="6.77227">
        <ele>1079.092285</ele>
        <time>2018-05-26T14:38:49Z</time>
      </trkpt>
      <trkpt lat="47.80241" lon="6.77228">
        <ele>1079.157104</ele>
        <time>2018-05-26T14:38:50Z</time>
      </trkpt>
      <trkpt lat="47.80243" lon="6.77229">
        <ele>1079.248535</ele>
        <time>2018-05-26T14:38:51Z</time>
      </trkpt>
      <trkpt lat="47.80246" lon="6.7723">
        <ele>1079.304688</ele>
        <time>2018-05-26T14:38:52Z</time>
      </trkpt>
      <trkpt lat="47.80248" lon="6.7723">
        <ele>1079.329224</ele>
        <time>2018-05-26T14:38:53Z</time>
      </trkpt>
      <trkpt lat="47.80251" lon="6.77231">
        <ele>1079.379395</ele>
        <time>2018-05-26T14:38:54Z</time>
      </trkpt>
      <trkpt lat="47.80253" lon="6.77232">
        <ele>1079.434204</ele>
        <time>2018-05-26T14:38:55Z</time>
      </trkpt>
      <trkpt lat="47.80256" lon="6.77233">
        <ele>1079.496704</ele>
        <time>2018-05-26T14:38:56Z</time>
      </trkpt>
      <trkpt lat="47.80259" lon="6.77234">
        <ele>1079.593628</ele>
        <time>2018-05-26T14:38:57Z</time>
      </trkpt>
      <trkpt lat="47.80261" lon="6.77234">
        <ele>1079.657349</ele>
        <time>2018-05-26T14:38:58Z</time>
      </trkpt>
      <trkpt lat="47.80263" lon="6.77234">
        <ele>1079.768677</ele>
        <time>2018-05-26T14:38:59Z</time>
      </trkpt>
      <trkpt lat="47.80264" lon="6.77234">
        <ele>1079.854492</ele>
        <time>2018-05-26T14:39:00Z</time>
      </trkpt>
      <trkpt lat="47.80266" lon="6.77234">
        <ele>1079.988892</ele>
        <time>2018-05-26T14:39:01Z</time>
      </trkpt>
      <trkpt lat="47.80268" lon="6.77235">
        <ele>1080.083618</ele>
        <time>2018-05-26T14:39:02Z</time>
      </trkpt>
      <trkpt lat="47.80269" lon="6.77235">
        <ele>1080.39563</ele>
        <time>2018-05-26T14:39:03Z</time>
      </trkpt>
      <trkpt lat="47.80271" lon="6.77236">
        <ele>1080.557007</ele>
        <time>2018-05-26T14:39:05Z</time>
      </trkpt>
      <trkpt lat="47.80273" lon="6.77237">
        <ele>1080.827271</ele>
        <time>2018-05-26T14:39:06Z</time>
      </trkpt>
      <trkpt lat="47.80275" lon="6.77238">
        <ele>1081.016724</ele>
        <time>2018-05-26T14:39:07Z</time>
      </trkpt>
      <trkpt lat="47.80277" lon="6.77239">
        <ele>1081.20813</ele>
        <time>2018-05-26T14:39:08Z</time>
      </trkpt>
      <trkpt lat="47.80279" lon="6.77241">
        <ele>1081.477905</ele>
        <time>2018-05-26T14:39:09Z</time>
      </trkpt>
      <trkpt lat="47.8028" lon="6.77242">
        <ele>1081.633423</ele>
        <time>2018-05-26T14:39:10Z</time>
      </trkpt>
      <trkpt lat="47.80282" lon="6.77243">
        <ele>1081.830933</ele>
        <time>2018-05-26T14:39:11Z</time>
      </trkpt>
      <trkpt lat="47.80286" lon="6.77245">
        <ele>1081.944458</ele>
        <time>2018-05-26T14:39:12Z</time>
      </trkpt>
      <trkpt lat="47.80288" lon="6.77247">
        <ele>1082.091309</ele>
        <time>2018-05-26T14:39:13Z</time>
      </trkpt>
      <trkpt lat="47.8029" lon="6.77248">
        <ele>1082.168823</ele>
        <time>2018-05-26T14:39:14Z</time>
      </trkpt>
      <trkpt lat="47.80292" lon="6.7725">
        <ele>1082.229858</ele>
        <time>2018-05-26T14:39:15Z</time>
      </trkpt>
      <trkpt lat="47.80294" lon="6.77251">
        <ele>1082.307983</ele>
        <time>2018-05-26T14:39:16Z</time>
      </trkpt>
      <trkpt lat="47.80296" lon="6.77252">
        <ele>1082.363647</ele>
        <time>2018-05-26T14:39:17Z</time>
      </trkpt>
      <trkpt lat="47.80298" lon="6.77254">
        <ele>1082.454468</ele>
        <time>2018-05-26T14:39:18Z</time>
      </trkpt>
      <trkpt lat="47.803" lon="6.77255">
        <ele>1082.515991</ele>
        <time>2018-05-26T14:39:19Z</time>
      </trkpt>
      <trkpt lat="47.80302" lon="6.77256">
        <ele>1082.580078</ele>
        <time>2018-05-26T14:39:20Z</time>
      </trkpt>
      <trkpt lat="47.80304" lon="6.77258">
        <ele>1082.699585</ele>
        <time>2018-05-26T14:39:21Z</time>
      </trkpt>
      <trkpt lat="47.80306" lon="6.77259">
        <ele>1082.800415</ele>
        <time>2018-05-26T14:39:22Z</time>
      </trkpt>
      <trkpt lat="47.80308" lon="6.77261">
        <ele>1082.974976</ele>
        <time>2018-05-26T14:39:23Z</time>
      </trkpt>
      <trkpt lat="47.80309" lon="6.77262">
        <ele>1083.095215</ele>
        <time>2018-05-26T14:39:24Z</time>
      </trkpt>
      <trkpt lat="47.80311" lon="6.77263">
        <ele>1083.279663</ele>
        <time>2018-05-26T14:39:25Z</time>
      </trkpt>
      <trkpt lat="47.80313" lon="6.77264">
        <ele>1083.398804</ele>
        <time>2018-05-26T14:39:26Z</time>
      </trkpt>
      <trkpt lat="47.80315" lon="6.77266">
        <ele>1083.507446</ele>
        <time>2018-05-26T14:39:27Z</time>
      </trkpt>
      <trkpt lat="47.80317" lon="6.77267">
        <ele>1083.647827</ele>
        <time>2018-05-26T14:39:28Z</time>
      </trkpt>
      <trkpt lat="47.80319" lon="6.77268">
        <ele>1083.731812</ele>
        <time>2018-05-26T14:39:29Z</time>
      </trkpt>
      <trkpt lat="47.80321" lon="6.7727">
        <ele>1083.853516</ele>
        <time>2018-05-26T14:39:30Z</time>
      </trkpt>
      <trkpt lat="47.80323" lon="6.77272">
        <ele>1083.937378</ele>
        <time>2018-05-26T14:39:31Z</time>
      </trkpt>
      <trkpt lat="47.80325" lon="6.77274">
        <ele>1084.081665</ele>
        <time>2018-05-26T14:39:32Z</time>
      </trkpt>
      <trkpt lat="47.80327" lon="6.77276">
        <ele>1084.193237</ele>
        <time>2018-05-26T14:39:33Z</time>
      </trkpt>
      <trkpt lat="47.80329" lon="6.77278">
        <ele>1084.36853</ele>
        <time>2018-05-26T14:39:34Z</time>
      </trkpt>
      <trkpt lat="47.80331" lon="6.7728">
        <ele>1084.486816</ele>
        <time>2018-05-26T14:39:35Z</time>
      </trkpt>
      <trkpt lat="47.80333" lon="6.77281">
        <ele>1084.6698</ele>
        <time>2018-05-26T14:39:36Z</time>
      </trkpt>
      <trkpt lat="47.80335" lon="6.77282">
        <ele>1084.793579</ele>
        <time>2018-05-26T14:39:37Z</time>
      </trkpt>
      <trkpt lat="47.80336" lon="6.77283">
        <ele>1084.975586</ele>
        <time>2018-05-26T14:39:38Z</time>
      </trkpt>
      <trkpt lat="47.80338" lon="6.77284">
        <ele>1085.094604</ele>
        <time>2018-05-26T14:39:39Z</time>
      </trkpt>
      <trkpt lat="47.80339" lon="6.77286">
        <ele>1085.213501</ele>
        <time>2018-05-26T14:39:40Z</time>
      </trkpt>
      <trkpt lat="47.80341" lon="6.77287">
        <ele>1085.387085</ele>
        <time>2018-05-26T14:39:41Z</time>
      </trkpt>
      <trkpt lat="47.80343" lon="6.77288">
        <ele>1085.505493</ele>
        <time>2018-05-26T14:39:42Z</time>
      </trkpt>
      <trkpt lat="47.80344" lon="6.77289">
        <ele>1085.708008</ele>
        <time>2018-05-26T14:39:43Z</time>
      </trkpt>
      <trkpt lat="47.80346" lon="6.77289">
        <ele>1085.863403</ele>
        <time>2018-05-26T14:39:44Z</time>
      </trkpt>
      <trkpt lat="47.80348" lon="6.7729">
        <ele>1086.111084</ele>
        <time>2018-05-26T14:39:45Z</time>
      </trkpt>
      <trkpt lat="47.8035" lon="6.77293">
        <ele>1086.272217</ele>
        <time>2018-05-26T14:39:46Z</time>
      </trkpt>
      <trkpt lat="47.80352" lon="6.77294">
        <ele>1086.42627</ele>
        <time>2018-05-26T14:39:47Z</time>
      </trkpt>
      <trkpt lat="47.80354" lon="6.77296">
        <ele>1086.642822</ele>
        <time>2018-05-26T14:39:48Z</time>
      </trkpt>
      <trkpt lat="47.80356" lon="6.77297">
        <ele>1086.774658</ele>
        <time>2018-05-26T14:39:49Z</time>
      </trkpt>
      <trkpt lat="47.80358" lon="6.77298">
        <ele>1086.952759</ele>
        <time>2018-05-26T14:39:50Z</time>
      </trkpt>
      <trkpt lat="47.8036" lon="6.773">
        <ele>1087.066284</ele>
        <time>2018-05-26T14:39:51Z</time>
      </trkpt>
      <trkpt lat="47.80362" lon="6.77301">
        <ele>1087.259888</ele>
        <time>2018-05-26T14:39:52Z</time>
      </trkpt>
      <trkpt lat="47.80364" lon="6.77302">
        <ele>1087.411743</ele>
        <time>2018-05-26T14:39:53Z</time>
      </trkpt>
      <trkpt lat="47.80366" lon="6.77303">
        <ele>1087.570068</ele>
        <time>2018-05-26T14:39:54Z</time>
      </trkpt>
      <trkpt lat="47.80367" lon="6.77304">
        <ele>1087.727173</ele>
        <time>2018-05-26T14:39:55Z</time>
      </trkpt>
      <trkpt lat="47.80369" lon="6.77306">
        <ele>1087.875977</ele>
        <time>2018-05-26T14:39:56Z</time>
      </trkpt>
      <trkpt lat="47.80371" lon="6.77307">
        <ele>1088.08728</ele>
        <time>2018-05-26T14:39:57Z</time>
      </trkpt>
      <trkpt lat="47.80373" lon="6.77308">
        <ele>1088.222046</ele>
        <time>2018-05-26T14:39:58Z</time>
      </trkpt>
      <trkpt lat="47.80375" lon="6.77309">
        <ele>1088.556763</ele>
        <time>2018-05-26T14:39:59Z</time>
      </trkpt>
      <trkpt lat="47.80376" lon="6.77311">
        <ele>1088.758545</ele>
        <time>2018-05-26T14:40:01Z</time>
      </trkpt>
      <trkpt lat="47.80377" lon="6.77312">
        <ele>1088.904053</ele>
        <time>2018-05-26T14:40:02Z</time>
      </trkpt>
      <trkpt lat="47.80378" lon="6.77313">
        <ele>1089.060547</ele>
        <time>2018-05-26T14:40:03Z</time>
      </trkpt>
      <trkpt lat="47.8038" lon="6.77313">
        <ele>1089.303345</ele>
        <time>2018-05-26T14:40:04Z</time>
      </trkpt>
      <trkpt lat="47.80382" lon="6.77314">
        <ele>1089.453491</ele>
        <time>2018-05-26T14:40:05Z</time>
      </trkpt>
      <trkpt lat="47.80384" lon="6.77316">
        <ele>1089.649902</ele>
        <time>2018-05-26T14:40:06Z</time>
      </trkpt>
      <trkpt lat="47.80386" lon="6.77317">
        <ele>1089.764282</ele>
        <time>2018-05-26T14:40:07Z</time>
      </trkpt>
      <trkpt lat="47.80388" lon="6.77318">
        <ele>1089.910522</ele>
        <time>2018-05-26T14:40:08Z</time>
      </trkpt>
      <trkpt lat="47.8039" lon="6.77319">
        <ele>1089.99353</ele>
        <time>2018-05-26T14:40:09Z</time>
      </trkpt>
      <trkpt lat="47.80391" lon="6.7732">
        <ele>1090.072388</ele>
        <time>2018-05-26T14:40:10Z</time>
      </trkpt>
      <trkpt lat="47.80393" lon="6.77322">
        <ele>1090.201904</ele>
        <time>2018-05-26T14:40:11Z</time>
      </trkpt>
      <trkpt lat="47.80395" lon="6.77323">
        <ele>1090.299438</ele>
        <time>2018-05-26T14:40:12Z</time>
      </trkpt>
      <trkpt lat="47.80397" lon="6.77324">
        <ele>1090.460327</ele>
        <time>2018-05-26T14:40:13Z</time>
      </trkpt>
      <trkpt lat="47.80399" lon="6.77325">
        <ele>1090.577393</ele>
        <time>2018-05-26T14:40:14Z</time>
      </trkpt>
      <trkpt lat="47.80401" lon="6.77326">
        <ele>1090.760254</ele>
        <time>2018-05-26T14:40:15Z</time>
      </trkpt>
      <trkpt lat="47.80403" lon="6.77327">
        <ele>1090.875</ele>
        <time>2018-05-26T14:40:16Z</time>
      </trkpt>
      <trkpt lat="47.80404" lon="6.77328">
        <ele>1091.099976</ele>
        <time>2018-05-26T14:40:17Z</time>
      </trkpt>
      <trkpt lat="47.80406" lon="6.77329">
        <ele>1091.173706</ele>
        <time>2018-05-26T14:40:19Z</time>
      </trkpt>
      <trkpt lat="47.80409" lon="6.7733">
        <ele>1091.28894</ele>
        <time>2018-05-26T14:40:20Z</time>
      </trkpt>
      <trkpt lat="47.80411" lon="6.77332">
        <ele>1091.374634</ele>
        <time>2018-05-26T14:40:21Z</time>
      </trkpt>
      <trkpt lat="47.80413" lon="6.77332">
        <ele>1091.496582</ele>
        <time>2018-05-26T14:40:22Z</time>
      </trkpt>
      <trkpt lat="47.80416" lon="6.77333">
        <ele>1091.564087</ele>
        <time>2018-05-26T14:40:23Z</time>
      </trkpt>
      <trkpt lat="47.80418" lon="6.77334">
        <ele>1091.660034</ele>
        <time>2018-05-26T14:40:24Z</time>
      </trkpt>
      <trkpt lat="47.80421" lon="6.77335">
        <ele>1091.731445</ele>
        <time>2018-05-26T14:40:25Z</time>
      </trkpt>
      <trkpt lat="47.80423" lon="6.77337">
        <ele>1091.799805</ele>
        <time>2018-05-26T14:40:26Z</time>
      </trkpt>
      <trkpt lat="47.80426" lon="6.77339">
        <ele>1091.877563</ele>
        <time>2018-05-26T14:40:27Z</time>
      </trkpt>
      <trkpt lat="47.80428" lon="6.77341">
        <ele>1091.90979</ele>
        <time>2018-05-26T14:40:28Z</time>
      </trkpt>
      <trkpt lat="47.80431" lon="6.77342">
        <ele>1091.949219</ele>
        <time>2018-05-26T14:40:29Z</time>
      </trkpt>
      <trkpt lat="47.80433" lon="6.77344">
        <ele>1091.977417</ele>
        <time>2018-05-26T14:40:30Z</time>
      </trkpt>
      <trkpt lat="47.80435" lon="6.77347">
        <ele>1092.010376</ele>
        <time>2018-05-26T14:40:31Z</time>
      </trkpt>
      <trkpt lat="47.80437" lon="6.77349">
        <ele>1092.060425</ele>
        <time>2018-05-26T14:40:32Z</time>
      </trkpt>
      <trkpt lat="47.80439" lon="6.77352">
        <ele>1092.101807</ele>
        <time>2018-05-26T14:40:33Z</time>
      </trkpt>
      <trkpt lat="47.80441" lon="6.77354">
        <ele>1092.180176</ele>
        <time>2018-05-26T14:40:34Z</time>
      </trkpt>
      <trkpt lat="47.80442" lon="6.77356">
        <ele>1092.234497</ele>
        <time>2018-05-26T14:40:35Z</time>
      </trkpt>
      <trkpt lat="47.80445" lon="6.77359">
        <ele>1092.302856</ele>
        <time>2018-05-26T14:40:36Z</time>
      </trkpt>
      <trkpt lat="47.80447" lon="6.77362">
        <ele>1092.339478</ele>
        <time>2018-05-26T14:40:37Z</time>
      </trkpt>
      <trkpt lat="47.80449" lon="6.77363">
        <ele>1092.373169</ele>
        <time>2018-05-26T14:40:38Z</time>
      </trkpt>
      <trkpt lat="47.80451" lon="6.77365">
        <ele>1092.419556</ele>
        <time>2018-05-26T14:40:39Z</time>
      </trkpt>
      <trkpt lat="47.80453" lon="6.77367">
        <ele>1092.447144</ele>
        <time>2018-05-26T14:40:40Z</time>
      </trkpt>
      <trkpt lat="47.80454" lon="6.77369">
        <ele>1092.498535</ele>
        <time>2018-05-26T14:40:41Z</time>
      </trkpt>
      <trkpt lat="47.80455" lon="6.77371">
        <ele>1092.555542</ele>
        <time>2018-05-26T14:40:42Z</time>
      </trkpt>
      <trkpt lat="47.80457" lon="6.77373">
        <ele>1092.634155</ele>
        <time>2018-05-26T14:40:43Z</time>
      </trkpt>
      <trkpt lat="47.80459" lon="6.77375">
        <ele>1092.780762</ele>
        <time>2018-05-26T14:40:44Z</time>
      </trkpt>
      <trkpt lat="47.8046" lon="6.77378">
        <ele>1092.897583</ele>
        <time>2018-05-26T14:40:45Z</time>
      </trkpt>
      <trkpt lat="47.80462" lon="6.7738">
        <ele>1093.088989</ele>
        <time>2018-05-26T14:40:46Z</time>
      </trkpt>
      <trkpt lat="47.80463" lon="6.77382">
        <ele>1093.219727</ele>
        <time>2018-05-26T14:40:47Z</time>
      </trkpt>
      <trkpt lat="47.80465" lon="6.77384">
        <ele>1093.417847</ele>
        <time>2018-05-26T14:40:48Z</time>
      </trkpt>
      <trkpt lat="47.80467" lon="6.77386">
        <ele>1093.553345</ele>
        <time>2018-05-26T14:40:49Z</time>
      </trkpt>
      <trkpt lat="47.80469" lon="6.77388">
        <ele>1093.68689</ele>
        <time>2018-05-26T14:40:50Z</time>
      </trkpt>
      <trkpt lat="47.80471" lon="6.77391">
        <ele>1093.882202</ele>
        <time>2018-05-26T14:40:51Z</time>
      </trkpt>
      <trkpt lat="47.80472" lon="6.77393">
        <ele>1094.010864</ele>
        <time>2018-05-26T14:40:52Z</time>
      </trkpt>
      <trkpt lat="47.80474" lon="6.77394">
        <ele>1094.205322</ele>
        <time>2018-05-26T14:40:53Z</time>
      </trkpt>
      <trkpt lat="47.80475" lon="6.77396">
        <ele>1094.270508</ele>
        <time>2018-05-26T14:40:54Z</time>
      </trkpt>
      <trkpt lat="47.80477" lon="6.77397">
        <ele>1094.402222</ele>
        <time>2018-05-26T14:40:55Z</time>
      </trkpt>
      <trkpt lat="47.80479" lon="6.77399">
        <ele>1094.530762</ele>
        <time>2018-05-26T14:40:56Z</time>
      </trkpt>
      <trkpt lat="47.80481" lon="6.774">
        <ele>1094.651367</ele>
        <time>2018-05-26T14:40:57Z</time>
      </trkpt>
      <trkpt lat="47.80483" lon="6.77402">
        <ele>1094.807617</ele>
        <time>2018-05-26T14:40:58Z</time>
      </trkpt>
      <trkpt lat="47.80484" lon="6.77403">
        <ele>1094.900513</ele>
        <time>2018-05-26T14:40:59Z</time>
      </trkpt>
      <trkpt lat="47.80486" lon="6.77405">
        <ele>1095.026245</ele>
        <time>2018-05-26T14:41:00Z</time>
      </trkpt>
      <trkpt lat="47.80488" lon="6.77406">
        <ele>1095.109741</ele>
        <time>2018-05-26T14:41:01Z</time>
      </trkpt>
      <trkpt lat="47.80489" lon="6.77408">
        <ele>1095.231323</ele>
        <time>2018-05-26T14:41:02Z</time>
      </trkpt>
      <trkpt lat="47.80491" lon="6.77409">
        <ele>1095.309204</ele>
        <time>2018-05-26T14:41:03Z</time>
      </trkpt>
      <trkpt lat="47.80492" lon="6.77411">
        <ele>1095.376587</ele>
        <time>2018-05-26T14:41:04Z</time>
      </trkpt>
      <trkpt lat="47.80494" lon="6.77413">
        <ele>1095.447144</ele>
        <time>2018-05-26T14:41:05Z</time>
      </trkpt>
      <trkpt lat="47.80496" lon="6.77416">
        <ele>1095.457153</ele>
        <time>2018-05-26T14:41:06Z</time>
      </trkpt>
      <trkpt lat="47.80498" lon="6.7742">
        <ele>1095.447021</ele>
        <time>2018-05-26T14:41:07Z</time>
      </trkpt>
      <trkpt lat="47.80501" lon="6.77425">
        <ele>1095.394165</ele>
        <time>2018-05-26T14:41:08Z</time>
      </trkpt>
      <trkpt lat="47.80504" lon="6.77431">
        <ele>1095.300171</ele>
        <time>2018-05-26T14:41:09Z</time>
      </trkpt>
      <trkpt lat="47.80507" lon="6.77436">
        <ele>1095.090332</ele>
        <time>2018-05-26T14:41:10Z</time>
      </trkpt>
      <trkpt lat="47.80509" lon="6.7744">
        <ele>1094.911133</ele>
        <time>2018-05-26T14:41:11Z</time>
      </trkpt>
      <trkpt lat="47.80511" lon="6.77444">
        <ele>1094.585449</ele>
        <time>2018-05-26T14:41:12Z</time>
      </trkpt>
      <trkpt lat="47.80513" lon="6.77448">
        <ele>1094.331421</ele>
        <time>2018-05-26T14:41:13Z</time>
      </trkpt>
      <trkpt lat="47.80515" lon="6.77452">
        <ele>1093.881714</ele>
        <time>2018-05-26T14:41:14Z</time>
      </trkpt>
      <trkpt lat="47.80516" lon="6.77456">
        <ele>1093.525879</ele>
        <time>2018-05-26T14:41:15Z</time>
      </trkpt>
      <trkpt lat="47.80518" lon="6.77462">
        <ele>1093.128052</ele>
        <time>2018-05-26T14:41:16Z</time>
      </trkpt>
      <trkpt lat="47.8052" lon="6.77467">
        <ele>1092.465332</ele>
        <time>2018-05-26T14:41:17Z</time>
      </trkpt>
      <trkpt lat="47.80523" lon="6.7747">
        <ele>1091.990112</ele>
        <time>2018-05-26T14:41:18Z</time>
      </trkpt>
      <trkpt lat="47.80527" lon="6.77474">
        <ele>1091.272583</ele>
        <time>2018-05-26T14:41:19Z</time>
      </trkpt>
      <trkpt lat="47.80531" lon="6.77478">
        <ele>1090.817261</ele>
        <time>2018-05-26T14:41:20Z</time>
      </trkpt>
      <trkpt lat="47.80536" lon="6.77482">
        <ele>1090.380981</ele>
        <time>2018-05-26T14:41:21Z</time>
      </trkpt>
      <trkpt lat="47.8054" lon="6.77487">
        <ele>1089.761353</ele>
        <time>2018-05-26T14:41:22Z</time>
      </trkpt>
      <trkpt lat="47.80544" lon="6.77493">
        <ele>1089.358643</ele>
        <time>2018-05-26T14:41:23Z</time>
      </trkpt>
      <trkpt lat="47.80547" lon="6.77498">
        <ele>1088.741089</ele>
        <time>2018-05-26T14:41:24Z</time>
      </trkpt>
      <trkpt lat="47.80549" lon="6.77504">
        <ele>1088.325317</ele>
        <time>2018-05-26T14:41:25Z</time>
      </trkpt>
      <trkpt lat="47.8055" lon="6.7751">
        <ele>1087.732422</ele>
        <time>2018-05-26T14:41:26Z</time>
      </trkpt>
      <trkpt lat="47.8055" lon="6.77515">
        <ele>1087.384888</ele>
        <time>2018-05-26T14:41:27Z</time>
      </trkpt>
      <trkpt lat="47.8055" lon="6.77521">
        <ele>1087.076782</ele>
        <time>2018-05-26T14:41:28Z</time>
      </trkpt>
      <trkpt lat="47.80549" lon="6.77526">
        <ele>1086.665527</ele>
        <time>2018-05-26T14:41:29Z</time>
      </trkpt>
      <trkpt lat="47.80548" lon="6.77532">
        <ele>1086.419556</ele>
        <time>2018-05-26T14:41:30Z</time>
      </trkpt>
      <trkpt lat="47.80548" lon="6.77539">
        <ele>1086.094727</ele>
        <time>2018-05-26T14:41:31Z</time>
      </trkpt>
      <trkpt lat="47.80548" lon="6.77546">
        <ele>1085.87793</ele>
        <time>2018-05-26T14:41:32Z</time>
      </trkpt>
      <trkpt lat="47.80547" lon="6.77555">
        <ele>1085.529175</ele>
        <time>2018-05-26T14:41:33Z</time>
      </trkpt>
      <trkpt lat="47.80545" lon="6.77563">
        <ele>1085.293335</ele>
        <time>2018-05-26T14:41:34Z</time>
      </trkpt>
      <trkpt lat="47.80544" lon="6.77572">
        <ele>1085.053711</ele>
        <time>2018-05-26T14:41:35Z</time>
      </trkpt>
      <trkpt lat="47.80543" lon="6.7758">
        <ele>1084.658447</ele>
        <time>2018-05-26T14:41:36Z</time>
      </trkpt>
      <trkpt lat="47.80542" lon="6.77589">
        <ele>1084.366943</ele>
        <time>2018-05-26T14:41:37Z</time>
      </trkpt>
      <trkpt lat="47.80541" lon="6.77598">
        <ele>1083.922607</ele>
        <time>2018-05-26T14:41:38Z</time>
      </trkpt>
      <trkpt lat="47.80539" lon="6.77606">
        <ele>1083.633423</ele>
        <time>2018-05-26T14:41:39Z</time>
      </trkpt>
      <trkpt lat="47.80538" lon="6.77615">
        <ele>1083.144043</ele>
        <time>2018-05-26T14:41:40Z</time>
      </trkpt>
      <trkpt lat="47.80537" lon="6.77624">
        <ele>1082.747559</ele>
        <time>2018-05-26T14:41:41Z</time>
      </trkpt>
      <trkpt lat="47.80537" lon="6.77633">
        <ele>1082.0177</ele>
        <time>2018-05-26T14:41:42Z</time>
      </trkpt>
      <trkpt lat="47.80536" lon="6.77642">
        <ele>1081.457153</ele>
        <time>2018-05-26T14:41:43Z</time>
      </trkpt>
      <trkpt lat="47.80535" lon="6.77651">
        <ele>1080.519653</ele>
        <time>2018-05-26T14:41:44Z</time>
      </trkpt>
      <trkpt lat="47.80534" lon="6.77661">
        <ele>1079.862915</ele>
        <time>2018-05-26T14:41:45Z</time>
      </trkpt>
      <trkpt lat="47.80532" lon="6.7767">
        <ele>1078.917114</ele>
        <time>2018-05-26T14:41:46Z</time>
      </trkpt>
      <trkpt lat="47.8053" lon="6.77678">
        <ele>1078.348755</ele>
        <time>2018-05-26T14:41:47Z</time>
      </trkpt>
      <trkpt lat="47.80528" lon="6.77685">
        <ele>1077.846802</ele>
        <time>2018-05-26T14:41:48Z</time>
      </trkpt>
      <trkpt lat="47.80526" lon="6.77692">
        <ele>1077.194458</ele>
        <time>2018-05-26T14:41:49Z</time>
      </trkpt>
      <trkpt lat="47.80524" lon="6.777">
        <ele>1076.811646</ele>
        <time>2018-05-26T14:41:50Z</time>
      </trkpt>
      <trkpt lat="47.80523" lon="6.77709">
        <ele>1076.276245</ele>
        <time>2018-05-26T14:41:51Z</time>
      </trkpt>
      <trkpt lat="47.80523" lon="6.77719">
        <ele>1075.910645</ele>
        <time>2018-05-26T14:41:52Z</time>
      </trkpt>
      <trkpt lat="47.80523" lon="6.77728">
        <ele>1075.287964</ele>
        <time>2018-05-26T14:41:53Z</time>
      </trkpt>
      <trkpt lat="47.80522" lon="6.77738">
        <ele>1074.7948</ele>
        <time>2018-05-26T14:41:54Z</time>
      </trkpt>
      <trkpt lat="47.80522" lon="6.77746">
        <ele>1074.528442</ele>
        <time>2018-05-26T14:41:55Z</time>
      </trkpt>
      <trkpt lat="47.80523" lon="6.77754">
        <ele>1073.963745</ele>
        <time>2018-05-26T14:41:56Z</time>
      </trkpt>
      <trkpt lat="47.80524" lon="6.77762">
        <ele>1073.377319</ele>
        <time>2018-05-26T14:41:57Z</time>
      </trkpt>
      <trkpt lat="47.80524" lon="6.77768">
        <ele>1072.808594</ele>
        <time>2018-05-26T14:41:58Z</time>
      </trkpt>
      <trkpt lat="47.80526" lon="6.77774">
        <ele>1072.058228</ele>
        <time>2018-05-26T14:41:59Z</time>
      </trkpt>
      <trkpt lat="47.80526" lon="6.77779">
        <ele>1071.672363</ele>
        <time>2018-05-26T14:42:00Z</time>
      </trkpt>
      <trkpt lat="47.80527" lon="6.77782">
        <ele>1071.293091</ele>
        <time>2018-05-26T14:42:01Z</time>
      </trkpt>
      <trkpt lat="47.80528" lon="6.77786">
        <ele>1071.197144</ele>
        <time>2018-05-26T14:42:02Z</time>
      </trkpt>
      <trkpt lat="47.80529" lon="6.77789">
        <ele>1071.189087</ele>
        <time>2018-05-26T14:42:03Z</time>
      </trkpt>
      <trkpt lat="47.8053" lon="6.77792">
        <ele>1071.202026</ele>
        <time>2018-05-26T14:42:04Z</time>
      </trkpt>
      <trkpt lat="47.80531" lon="6.77795">
        <ele>1071.338501</ele>
        <time>2018-05-26T14:42:05Z</time>
      </trkpt>
      <trkpt lat="47.80533" lon="6.77798">
        <ele>1071.456787</ele>
        <time>2018-05-26T14:42:06Z</time>
      </trkpt>
      <trkpt lat="47.80534" lon="6.778">
        <ele>1071.623047</ele>
        <time>2018-05-26T14:42:07Z</time>
      </trkpt>
      <trkpt lat="47.80535" lon="6.77802">
        <ele>1071.713013</ele>
        <time>2018-05-26T14:42:08Z</time>
      </trkpt>
      <trkpt lat="47.80536" lon="6.77805">
        <ele>1071.810669</ele>
        <time>2018-05-26T14:42:09Z</time>
      </trkpt>
      <trkpt lat="47.80537" lon="6.77807">
        <ele>1071.856567</ele>
        <time>2018-05-26T14:42:10Z</time>
      </trkpt>
      <trkpt lat="47.80537" lon="6.77809">
        <ele>1071.894775</ele>
        <time>2018-05-26T14:42:11Z</time>
      </trkpt>
      <trkpt lat="47.80537" lon="6.77811">
        <ele>1071.90271</ele>
        <time>2018-05-26T14:42:12Z</time>
      </trkpt>
      <trkpt lat="47.80537" lon="6.77812">
        <ele>1071.900024</ele>
        <time>2018-05-26T14:42:13Z</time>
      </trkpt>
      <trkpt lat="47.80537" lon="6.77814">
        <ele>1071.885864</ele>
        <time>2018-05-26T14:42:14Z</time>
      </trkpt>
      <trkpt lat="47.80538" lon="6.77816">
        <ele>1071.864624</ele>
        <time>2018-05-26T14:42:15Z</time>
      </trkpt>
      <trkpt lat="47.80538" lon="6.77817">
        <ele>1071.82605</ele>
        <time>2018-05-26T14:42:16Z</time>
      </trkpt>
      <trkpt lat="47.80538" lon="6.7782">
        <ele>1071.793335</ele>
        <time>2018-05-26T14:42:17Z</time>
      </trkpt>
      <trkpt lat="47.80537" lon="6.77823">
        <ele>1071.755859</ele>
        <time>2018-05-26T14:42:18Z</time>
      </trkpt>
      <trkpt lat="47.80538" lon="6.77826">
        <ele>1071.715942</ele>
        <time>2018-05-26T14:42:19Z</time>
      </trkpt>
      <trkpt lat="47.80538" lon="6.77829">
        <ele>1071.714722</ele>
        <time>2018-05-26T14:42:20Z</time>
      </trkpt>
      <trkpt lat="47.80539" lon="6.77832">
        <ele>1071.734253</ele>
        <time>2018-05-26T14:42:21Z</time>
      </trkpt>
      <trkpt lat="47.80539" lon="6.77834">
        <ele>1071.78479</ele>
        <time>2018-05-26T14:42:22Z</time>
      </trkpt>
      <trkpt lat="47.8054" lon="6.77837">
        <ele>1071.923828</ele>
        <time>2018-05-26T14:42:23Z</time>
      </trkpt>
      <trkpt lat="47.8054" lon="6.77838">
        <ele>1072.062378</ele>
        <time>2018-05-26T14:42:24Z</time>
      </trkpt>
      <trkpt lat="47.80541" lon="6.7784">
        <ele>1072.328735</ele>
        <time>2018-05-26T14:42:25Z</time>
      </trkpt>
      <trkpt lat="47.80541" lon="6.77842">
        <ele>1072.545654</ele>
        <time>2018-05-26T14:42:26Z</time>
      </trkpt>
      <trkpt lat="47.80542" lon="6.77844">
        <ele>1072.796997</ele>
        <time>2018-05-26T14:42:27Z</time>
      </trkpt>
      <trkpt lat="47.80543" lon="6.77845">
        <ele>1073.219727</ele>
        <time>2018-05-26T14:42:28Z</time>
      </trkpt>
      <trkpt lat="47.80543" lon="6.77847">
        <ele>1073.514526</ele>
        <time>2018-05-26T14:42:29Z</time>
      </trkpt>
      <trkpt lat="47.80544" lon="6.7785">
        <ele>1073.962158</ele>
        <time>2018-05-26T14:42:30Z</time>
      </trkpt>
      <trkpt lat="47.80544" lon="6.77852">
        <ele>1074.253052</ele>
        <time>2018-05-26T14:42:31Z</time>
      </trkpt>
      <trkpt lat="47.80545" lon="6.77854">
        <ele>1074.524536</ele>
        <time>2018-05-26T14:42:32Z</time>
      </trkpt>
      <trkpt lat="47.80546" lon="6.77857">
        <ele>1074.864868</ele>
        <time>2018-05-26T14:42:33Z</time>
      </trkpt>
      <trkpt lat="47.80547" lon="6.77859">
        <ele>1075.04541</ele>
        <time>2018-05-26T14:42:34Z</time>
      </trkpt>
      <trkpt lat="47.80547" lon="6.77863">
        <ele>1075.255371</ele>
        <time>2018-05-26T14:42:35Z</time>
      </trkpt>
      <trkpt lat="47.80548" lon="6.77867">
        <ele>1075.357788</ele>
        <time>2018-05-26T14:42:36Z</time>
      </trkpt>
      <trkpt lat="47.80549" lon="6.77871">
        <ele>1075.447144</ele>
        <time>2018-05-26T14:42:37Z</time>
      </trkpt>
      <trkpt lat="47.8055" lon="6.77874">
        <ele>1075.462524</ele>
        <time>2018-05-26T14:42:38Z</time>
      </trkpt>
      <trkpt lat="47.8055" lon="6.77877">
        <ele>1075.460693</ele>
        <time>2018-05-26T14:42:39Z</time>
      </trkpt>
      <trkpt lat="47.80551" lon="6.77879">
        <ele>1075.444702</ele>
        <time>2018-05-26T14:42:40Z</time>
      </trkpt>
      <trkpt lat="47.80552" lon="6.77882">
        <ele>1075.424927</ele>
        <time>2018-05-26T14:42:41Z</time>
      </trkpt>
      <trkpt lat="47.80552" lon="6.77884">
        <ele>1075.41626</ele>
        <time>2018-05-26T14:42:42Z</time>
      </trkpt>
      <trkpt lat="47.80553" lon="6.77886">
        <ele>1075.417847</ele>
        <time>2018-05-26T14:42:43Z</time>
      </trkpt>
      <trkpt lat="47.80553" lon="6.77889">
        <ele>1075.445923</ele>
        <time>2018-05-26T14:42:44Z</time>
      </trkpt>
      <trkpt lat="47.80553" lon="6.77891">
        <ele>1075.475708</ele>
        <time>2018-05-26T14:42:45Z</time>
      </trkpt>
      <trkpt lat="47.80553" lon="6.77893">
        <ele>1075.531616</ele>
        <time>2018-05-26T14:42:46Z</time>
      </trkpt>
      <trkpt lat="47.80553" lon="6.77896">
        <ele>1075.576538</ele>
        <time>2018-05-26T14:42:47Z</time>
      </trkpt>
      <trkpt lat="47.80553" lon="6.77898">
        <ele>1075.626343</ele>
        <time>2018-05-26T14:42:48Z</time>
      </trkpt>
      <trkpt lat="47.80554" lon="6.779">
        <ele>1075.695679</ele>
        <time>2018-05-26T14:42:49Z</time>
      </trkpt>
      <trkpt lat="47.80554" lon="6.77903">
        <ele>1075.73645</ele>
        <time>2018-05-26T14:42:50Z</time>
      </trkpt>
      <trkpt lat="47.80554" lon="6.77905">
        <ele>1075.799194</ele>
        <time>2018-05-26T14:42:51Z</time>
      </trkpt>
      <trkpt lat="47.80554" lon="6.77907">
        <ele>1075.845337</ele>
        <time>2018-05-26T14:42:52Z</time>
      </trkpt>
      <trkpt lat="47.80554" lon="6.77909">
        <ele>1075.893066</ele>
        <time>2018-05-26T14:42:53Z</time>
      </trkpt>
      <trkpt lat="47.80553" lon="6.77912">
        <ele>1075.968872</ele>
        <time>2018-05-26T14:42:54Z</time>
      </trkpt>
      <trkpt lat="47.80553" lon="6.77914">
        <ele>1076.028198</ele>
        <time>2018-05-26T14:42:55Z</time>
      </trkpt>
      <trkpt lat="47.80553" lon="6.77916">
        <ele>1076.061401</ele>
        <time>2018-05-26T14:42:56Z</time>
      </trkpt>
      <trkpt lat="47.80553" lon="6.77918">
        <ele>1076.13208</ele>
        <time>2018-05-26T14:42:57Z</time>
      </trkpt>
      <trkpt lat="47.80553" lon="6.7792">
        <ele>1076.211182</ele>
        <time>2018-05-26T14:42:58Z</time>
      </trkpt>
      <trkpt lat="47.80554" lon="6.77922">
        <ele>1076.298218</ele>
        <time>2018-05-26T14:42:59Z</time>
      </trkpt>
      <trkpt lat="47.80555" lon="6.77924">
        <ele>1076.451782</ele>
        <time>2018-05-26T14:43:00Z</time>
      </trkpt>
      <trkpt lat="47.80556" lon="6.77927">
        <ele>1076.57373</ele>
        <time>2018-05-26T14:43:01Z</time>
      </trkpt>
      <trkpt lat="47.80557" lon="6.77929">
        <ele>1076.796265</ele>
        <time>2018-05-26T14:43:02Z</time>
      </trkpt>
      <trkpt lat="47.80556" lon="6.77932">
        <ele>1076.967163</ele>
        <time>2018-05-26T14:43:03Z</time>
      </trkpt>
      <trkpt lat="47.80556" lon="6.77934">
        <ele>1077.25415</ele>
        <time>2018-05-26T14:43:04Z</time>
      </trkpt>
      <trkpt lat="47.80556" lon="6.77937">
        <ele>1077.471313</ele>
        <time>2018-05-26T14:43:05Z</time>
      </trkpt>
      <trkpt lat="47.80556" lon="6.7794">
        <ele>1077.845581</ele>
        <time>2018-05-26T14:43:06Z</time>
      </trkpt>
      <trkpt lat="47.80556" lon="6.77942">
        <ele>1078.120483</ele>
        <time>2018-05-26T14:43:07Z</time>
      </trkpt>
      <trkpt lat="47.80556" lon="6.77944">
        <ele>1078.405762</ele>
        <time>2018-05-26T14:43:08Z</time>
      </trkpt>
      <trkpt lat="47.80557" lon="6.77947">
        <ele>1078.832642</ele>
        <time>2018-05-26T14:43:09Z</time>
      </trkpt>
      <trkpt lat="47.80557" lon="6.7795">
        <ele>1079.104126</ele>
        <time>2018-05-26T14:43:10Z</time>
      </trkpt>
      <trkpt lat="47.80556" lon="6.77952">
        <ele>1079.477783</ele>
        <time>2018-05-26T14:43:11Z</time>
      </trkpt>
      <trkpt lat="47.80555" lon="6.77954">
        <ele>1079.700684</ele>
        <time>2018-05-26T14:43:12Z</time>
      </trkpt>
      <trkpt lat="47.80555" lon="6.77957">
        <ele>1079.905029</ele>
        <time>2018-05-26T14:43:13Z</time>
      </trkpt>
      <trkpt lat="47.80555" lon="6.7796">
        <ele>1080.177612</ele>
        <time>2018-05-26T14:43:14Z</time>
      </trkpt>
      <trkpt lat="47.80555" lon="6.77962">
        <ele>1080.338501</ele>
        <time>2018-05-26T14:43:15Z</time>
      </trkpt>
      <trkpt lat="47.80554" lon="6.77964">
        <ele>1080.54187</ele>
        <time>2018-05-26T14:43:16Z</time>
      </trkpt>
      <trkpt lat="47.80554" lon="6.77966">
        <ele>1080.655151</ele>
        <time>2018-05-26T14:43:17Z</time>
      </trkpt>
      <trkpt lat="47.80553" lon="6.77968">
        <ele>1080.804443</ele>
        <time>2018-05-26T14:43:18Z</time>
      </trkpt>
      <trkpt lat="47.80553" lon="6.7797">
        <ele>1080.901367</ele>
        <time>2018-05-26T14:43:19Z</time>
      </trkpt>
      <trkpt lat="47.80553" lon="6.77972">
        <ele>1081.000977</ele>
        <time>2018-05-26T14:43:20Z</time>
      </trkpt>
      <trkpt lat="47.80553" lon="6.77973">
        <ele>1081.156616</ele>
        <time>2018-05-26T14:43:21Z</time>
      </trkpt>
      <trkpt lat="47.80553" lon="6.77975">
        <ele>1081.262817</ele>
        <time>2018-05-26T14:43:22Z</time>
      </trkpt>
      <trkpt lat="47.80553" lon="6.77977">
        <ele>1081.418579</ele>
        <time>2018-05-26T14:43:23Z</time>
      </trkpt>
      <trkpt lat="47.80553" lon="6.77979">
        <ele>1081.519653</ele>
        <time>2018-05-26T14:43:24Z</time>
      </trkpt>
      <trkpt lat="47.80553" lon="6.77981">
        <ele>1081.624146</ele>
        <time>2018-05-26T14:43:25Z</time>
      </trkpt>
      <trkpt lat="47.80552" lon="6.77983">
        <ele>1081.791992</ele>
        <time>2018-05-26T14:43:26Z</time>
      </trkpt>
      <trkpt lat="47.80552" lon="6.77984">
        <ele>1081.907715</ele>
        <time>2018-05-26T14:43:27Z</time>
      </trkpt>
      <trkpt lat="47.80552" lon="6.77986">
        <ele>1082.081055</ele>
        <time>2018-05-26T14:43:28Z</time>
      </trkpt>
      <trkpt lat="47.80551" lon="6.77988">
        <ele>1082.197632</ele>
        <time>2018-05-26T14:43:29Z</time>
      </trkpt>
      <trkpt lat="47.80551" lon="6.7799">
        <ele>1082.384644</ele>
        <time>2018-05-26T14:43:30Z</time>
      </trkpt>
      <trkpt lat="47.80551" lon="6.77993">
        <ele>1082.519531</ele>
        <time>2018-05-26T14:43:31Z</time>
      </trkpt>
      <trkpt lat="47.8055" lon="6.77995">
        <ele>1082.659546</ele>
        <time>2018-05-26T14:43:32Z</time>
      </trkpt>
      <trkpt lat="47.8055" lon="6.77997">
        <ele>1082.880371</ele>
        <time>2018-05-26T14:43:33Z</time>
      </trkpt>
      <trkpt lat="47.8055" lon="6.77999">
        <ele>1083.033569</ele>
        <time>2018-05-26T14:43:34Z</time>
      </trkpt>
      <trkpt lat="47.8055" lon="6.78002">
        <ele>1083.25647</ele>
        <time>2018-05-26T14:43:35Z</time>
      </trkpt>
      <trkpt lat="47.8055" lon="6.78004">
        <ele>1083.392456</ele>
        <time>2018-05-26T14:43:36Z</time>
      </trkpt>
      <trkpt lat="47.80551" lon="6.78006">
        <ele>1083.588745</ele>
        <time>2018-05-26T14:43:37Z</time>
      </trkpt>
      <trkpt lat="47.80552" lon="6.78008">
        <ele>1083.716553</ele>
        <time>2018-05-26T14:43:38Z</time>
      </trkpt>
      <trkpt lat="47.80552" lon="6.78011">
        <ele>1083.9021</ele>
        <time>2018-05-26T14:43:39Z</time>
      </trkpt>
      <trkpt lat="47.80552" lon="6.78013">
        <ele>1084.02356</ele>
        <time>2018-05-26T14:43:40Z</time>
      </trkpt>
      <trkpt lat="47.80553" lon="6.78016">
        <ele>1084.145996</ele>
        <time>2018-05-26T14:43:41Z</time>
      </trkpt>
      <trkpt lat="47.80553" lon="6.78019">
        <ele>1084.340332</ele>
        <time>2018-05-26T14:43:42Z</time>
      </trkpt>
      <trkpt lat="47.80553" lon="6.78021">
        <ele>1084.473877</ele>
        <time>2018-05-26T14:43:43Z</time>
      </trkpt>
      <trkpt lat="47.80554" lon="6.78023">
        <ele>1084.672852</ele>
        <time>2018-05-26T14:43:44Z</time>
      </trkpt>
      <trkpt lat="47.80554" lon="6.78026">
        <ele>1084.808105</ele>
        <time>2018-05-26T14:43:45Z</time>
      </trkpt>
      <trkpt lat="47.80554" lon="6.78028">
        <ele>1085.030151</ele>
        <time>2018-05-26T14:43:46Z</time>
      </trkpt>
      <trkpt lat="47.80554" lon="6.7803">
        <ele>1085.190918</ele>
        <time>2018-05-26T14:43:47Z</time>
      </trkpt>
      <trkpt lat="47.80554" lon="6.78032">
        <ele>1085.448364</ele>
        <time>2018-05-26T14:43:48Z</time>
      </trkpt>
      <trkpt lat="47.80554" lon="6.78035">
        <ele>1085.620483</ele>
        <time>2018-05-26T14:43:49Z</time>
      </trkpt>
      <trkpt lat="47.80554" lon="6.78037">
        <ele>1085.858765</ele>
        <time>2018-05-26T14:43:50Z</time>
      </trkpt>
      <trkpt lat="47.80555" lon="6.78039">
        <ele>1086.000732</ele>
        <time>2018-05-26T14:43:51Z</time>
      </trkpt>
      <trkpt lat="47.80555" lon="6.78041">
        <ele>1086.131226</ele>
        <time>2018-05-26T14:43:52Z</time>
      </trkpt>
      <trkpt lat="47.80556" lon="6.78042">
        <ele>1086.319458</ele>
        <time>2018-05-26T14:43:53Z</time>
      </trkpt>
      <trkpt lat="47.80557" lon="6.78044">
        <ele>1086.442261</ele>
        <time>2018-05-26T14:43:54Z</time>
      </trkpt>
      <trkpt lat="47.80557" lon="6.78046">
        <ele>1086.629517</ele>
        <time>2018-05-26T14:43:55Z</time>
      </trkpt>
      <trkpt lat="47.80558" lon="6.78048">
        <ele>1086.696655</ele>
        <time>2018-05-26T14:43:56Z</time>
      </trkpt>
      <trkpt lat="47.80558" lon="6.7805">
        <ele>1086.84729</ele>
        <time>2018-05-26T14:43:57Z</time>
      </trkpt>
      <trkpt lat="47.80559" lon="6.78052">
        <ele>1087.024658</ele>
        <time>2018-05-26T14:43:58Z</time>
      </trkpt>
      <trkpt lat="47.8056" lon="6.78053">
        <ele>1087.226685</ele>
        <time>2018-05-26T14:43:59Z</time>
      </trkpt>
      <trkpt lat="47.8056" lon="6.78055">
        <ele>1087.554077</ele>
        <time>2018-05-26T14:44:00Z</time>
      </trkpt>
      <trkpt lat="47.80561" lon="6.78056">
        <ele>1087.778442</ele>
        <time>2018-05-26T14:44:01Z</time>
      </trkpt>
      <trkpt lat="47.80561" lon="6.78058">
        <ele>1088.105957</ele>
        <time>2018-05-26T14:44:02Z</time>
      </trkpt>
      <trkpt lat="47.80561" lon="6.78059">
        <ele>1088.302734</ele>
        <time>2018-05-26T14:44:03Z</time>
      </trkpt>
      <trkpt lat="47.8056" lon="6.78059">
        <ele>1088.733643</ele>
        <time>2018-05-26T14:44:04Z</time>
      </trkpt>
      <trkpt lat="47.8056" lon="6.78061">
        <ele>1088.976563</ele>
        <time>2018-05-26T14:44:06Z</time>
      </trkpt>
      <trkpt lat="47.8056" lon="6.78062">
        <ele>1089.139526</ele>
        <time>2018-05-26T14:44:07Z</time>
      </trkpt>
      <trkpt lat="47.80561" lon="6.78063">
        <ele>1089.307251</ele>
        <time>2018-05-26T14:44:08Z</time>
      </trkpt>
      <trkpt lat="47.80562" lon="6.78065">
        <ele>1089.56665</ele>
        <time>2018-05-26T14:44:09Z</time>
      </trkpt>
      <trkpt lat="47.80562" lon="6.78066">
        <ele>1089.746948</ele>
        <time>2018-05-26T14:44:10Z</time>
      </trkpt>
      <trkpt lat="47.80563" lon="6.78068">
        <ele>1090.024292</ele>
        <time>2018-05-26T14:44:11Z</time>
      </trkpt>
      <trkpt lat="47.80563" lon="6.7807">
        <ele>1090.210571</ele>
        <time>2018-05-26T14:44:12Z</time>
      </trkpt>
      <trkpt lat="47.80563" lon="6.78071">
        <ele>1090.479126</ele>
        <time>2018-05-26T14:44:13Z</time>
      </trkpt>
      <trkpt lat="47.80564" lon="6.78072">
        <ele>1090.652588</ele>
        <time>2018-05-26T14:44:14Z</time>
      </trkpt>
      <trkpt lat="47.80565" lon="6.78073">
        <ele>1090.820923</ele>
        <time>2018-05-26T14:44:15Z</time>
      </trkpt>
      <trkpt lat="47.80565" lon="6.78075">
        <ele>1091.065918</ele>
        <time>2018-05-26T14:44:16Z</time>
      </trkpt>
      <trkpt lat="47.80566" lon="6.78077">
        <ele>1091.223999</ele>
        <time>2018-05-26T14:44:17Z</time>
      </trkpt>
      <trkpt lat="47.80566" lon="6.78079">
        <ele>1091.460571</ele>
        <time>2018-05-26T14:44:18Z</time>
      </trkpt>
      <trkpt lat="47.80567" lon="6.7808">
        <ele>1091.614868</ele>
        <time>2018-05-26T14:44:19Z</time>
      </trkpt>
      <trkpt lat="47.8057" lon="6.78081">
        <ele>1091.765137</ele>
        <time>2018-05-26T14:44:20Z</time>
      </trkpt>
      <trkpt lat="47.80571" lon="6.78083">
        <ele>1091.99353</ele>
        <time>2018-05-26T14:44:21Z</time>
      </trkpt>
      <trkpt lat="47.80572" lon="6.78085">
        <ele>1092.153198</ele>
        <time>2018-05-26T14:44:22Z</time>
      </trkpt>
      <trkpt lat="47.80573" lon="6.78087">
        <ele>1092.395752</ele>
        <time>2018-05-26T14:44:23Z</time>
      </trkpt>
      <trkpt lat="47.80573" lon="6.78089">
        <ele>1092.560181</ele>
        <time>2018-05-26T14:44:24Z</time>
      </trkpt>
      <trkpt lat="47.80573" lon="6.7809">
        <ele>1092.802368</ele>
        <time>2018-05-26T14:44:25Z</time>
      </trkpt>
      <trkpt lat="47.80574" lon="6.78091">
        <ele>1092.957886</ele>
        <time>2018-05-26T14:44:26Z</time>
      </trkpt>
      <trkpt lat="47.80574" lon="6.78093">
        <ele>1093.106689</ele>
        <time>2018-05-26T14:44:27Z</time>
      </trkpt>
      <trkpt lat="47.80574" lon="6.78095">
        <ele>1093.32019</ele>
        <time>2018-05-26T14:44:28Z</time>
      </trkpt>
      <trkpt lat="47.80575" lon="6.78096">
        <ele>1093.457153</ele>
        <time>2018-05-26T14:44:29Z</time>
      </trkpt>
      <trkpt lat="47.80576" lon="6.78098">
        <ele>1093.665894</ele>
        <time>2018-05-26T14:44:30Z</time>
      </trkpt>
      <trkpt lat="47.80576" lon="6.781">
        <ele>1093.812622</ele>
        <time>2018-05-26T14:44:31Z</time>
      </trkpt>
      <trkpt lat="47.80576" lon="6.78101">
        <ele>1093.967041</ele>
        <time>2018-05-26T14:44:32Z</time>
      </trkpt>
      <trkpt lat="47.80577" lon="6.78103">
        <ele>1094.217163</ele>
        <time>2018-05-26T14:44:33Z</time>
      </trkpt>
      <trkpt lat="47.80578" lon="6.78104">
        <ele>1094.391113</ele>
        <time>2018-05-26T14:44:34Z</time>
      </trkpt>
      <trkpt lat="47.80578" lon="6.78106">
        <ele>1094.645142</ele>
        <time>2018-05-26T14:44:35Z</time>
      </trkpt>
      <trkpt lat="47.80579" lon="6.78107">
        <ele>1094.804565</ele>
        <time>2018-05-26T14:44:36Z</time>
      </trkpt>
      <trkpt lat="47.80579" lon="6.78109">
        <ele>1095.020874</ele>
        <time>2018-05-26T14:44:37Z</time>
      </trkpt>
      <trkpt lat="47.80579" lon="6.78111">
        <ele>1095.155396</ele>
        <time>2018-05-26T14:44:38Z</time>
      </trkpt>
      <trkpt lat="47.8058" lon="6.78112">
        <ele>1095.475464</ele>
        <time>2018-05-26T14:44:39Z</time>
      </trkpt>
      <trkpt lat="47.80581" lon="6.78112">
        <ele>1095.598267</ele>
        <time>2018-05-26T14:44:41Z</time>
      </trkpt>
      <trkpt lat="47.80586" lon="6.78124">
        <ele>1096.89502</ele>
        <time>2018-05-26T14:44:48Z</time>
      </trkpt>
      <trkpt lat="47.80586" lon="6.78127">
        <ele>1097.185913</ele>
        <time>2018-05-26T14:44:50Z</time>
      </trkpt>
      <trkpt lat="47.80587" lon="6.78129">
        <ele>1097.376831</ele>
        <time>2018-05-26T14:44:51Z</time>
      </trkpt>
      <trkpt lat="47.80588" lon="6.78131">
        <ele>1097.819214</ele>
        <time>2018-05-26T14:44:52Z</time>
      </trkpt>
      <trkpt lat="47.80589" lon="6.78133">
        <ele>1097.974487</ele>
        <time>2018-05-26T14:44:54Z</time>
      </trkpt>
      <trkpt lat="47.8059" lon="6.78136">
        <ele>1098.20166</ele>
        <time>2018-05-26T14:44:55Z</time>
      </trkpt>
      <trkpt lat="47.80592" lon="6.78137">
        <ele>1098.366821</ele>
        <time>2018-05-26T14:44:56Z</time>
      </trkpt>
      <trkpt lat="47.80592" lon="6.78139">
        <ele>1098.54541</ele>
        <time>2018-05-26T14:44:57Z</time>
      </trkpt>
      <trkpt lat="47.80593" lon="6.78141">
        <ele>1098.72937</ele>
        <time>2018-05-26T14:44:58Z</time>
      </trkpt>
      <trkpt lat="47.80594" lon="6.78143">
        <ele>1098.912231</ele>
        <time>2018-05-26T14:44:59Z</time>
      </trkpt>
      <trkpt lat="47.80594" lon="6.78145">
        <ele>1099.181763</ele>
        <time>2018-05-26T14:45:00Z</time>
      </trkpt>
      <trkpt lat="47.80595" lon="6.78146">
        <ele>1099.612793</ele>
        <time>2018-05-26T14:45:01Z</time>
      </trkpt>
      <trkpt lat="47.80595" lon="6.78147">
        <ele>1099.765503</ele>
        <time>2018-05-26T14:45:03Z</time>
      </trkpt>
      <trkpt lat="47.80596" lon="6.78149">
        <ele>1099.980957</ele>
        <time>2018-05-26T14:45:04Z</time>
      </trkpt>
      <trkpt lat="47.80597" lon="6.7815">
        <ele>1100.125</ele>
        <time>2018-05-26T14:45:05Z</time>
      </trkpt>
      <trkpt lat="47.80598" lon="6.78152">
        <ele>1100.266968</ele>
        <time>2018-05-26T14:45:06Z</time>
      </trkpt>
      <trkpt lat="47.80598" lon="6.78154">
        <ele>1100.820435</ele>
        <time>2018-05-26T14:45:08Z</time>
      </trkpt>
      <trkpt lat="47.80599" lon="6.78156">
        <ele>1100.969116</ele>
        <time>2018-05-26T14:45:10Z</time>
      </trkpt>
      <trkpt lat="47.806" lon="6.78158">
        <ele>1101.201782</ele>
        <time>2018-05-26T14:45:11Z</time>
      </trkpt>
      <trkpt lat="47.80601" lon="6.7816">
        <ele>1101.35498</ele>
        <time>2018-05-26T14:45:12Z</time>
      </trkpt>
      <trkpt lat="47.80602" lon="6.78162">
        <ele>1101.503784</ele>
        <time>2018-05-26T14:45:13Z</time>
      </trkpt>
      <trkpt lat="47.80602" lon="6.78163">
        <ele>1101.872803</ele>
        <time>2018-05-26T14:45:14Z</time>
      </trkpt>
      <trkpt lat="47.80603" lon="6.78166">
        <ele>1102.092896</ele>
        <time>2018-05-26T14:45:16Z</time>
      </trkpt>
      <trkpt lat="47.80605" lon="6.78168">
        <ele>1102.231934</ele>
        <time>2018-05-26T14:45:17Z</time>
      </trkpt>
      <trkpt lat="47.80606" lon="6.7817">
        <ele>1102.436401</ele>
        <time>2018-05-26T14:45:18Z</time>
      </trkpt>
      <trkpt lat="47.80607" lon="6.78171">
        <ele>1102.717651</ele>
        <time>2018-05-26T14:45:19Z</time>
      </trkpt>
      <trkpt lat="47.80607" lon="6.78172">
        <ele>1102.92981</ele>
        <time>2018-05-26T14:45:21Z</time>
      </trkpt>
      <trkpt lat="47.80615" lon="6.78182">
        <ele>1104.871704</ele>
        <time>2018-05-26T14:45:30Z</time>
      </trkpt>
      <trkpt lat="47.80616" lon="6.78184">
        <ele>1105.124756</ele>
        <time>2018-05-26T14:45:32Z</time>
      </trkpt>
      <trkpt lat="47.80618" lon="6.78185">
        <ele>1105.288574</ele>
        <time>2018-05-26T14:45:33Z</time>
      </trkpt>
      <trkpt lat="47.80618" lon="6.78186">
        <ele>1105.531738</ele>
        <time>2018-05-26T14:45:34Z</time>
      </trkpt>
      <trkpt lat="47.80619" lon="6.78187">
        <ele>1105.695557</ele>
        <time>2018-05-26T14:45:35Z</time>
      </trkpt>
      <trkpt lat="47.80619" lon="6.78187">
        <ele>1105.943604</ele>
        <time>2018-05-26T14:45:36Z</time>
      </trkpt>
      <trkpt lat="47.80629" lon="6.78195">
        <ele>1107.87561</ele>
        <time>2018-05-26T14:45:44Z</time>
      </trkpt>
      <trkpt lat="47.8063" lon="6.78197">
        <ele>1108.047241</ele>
        <time>2018-05-26T14:45:46Z</time>
      </trkpt>
      <trkpt lat="47.80631" lon="6.78198">
        <ele>1108.283325</ele>
        <time>2018-05-26T14:45:47Z</time>
      </trkpt>
      <trkpt lat="47.80633" lon="6.78199">
        <ele>1108.42981</ele>
        <time>2018-05-26T14:45:48Z</time>
      </trkpt>
      <trkpt lat="47.80634" lon="6.782">
        <ele>1108.630127</ele>
        <time>2018-05-26T14:45:49Z</time>
      </trkpt>
      <trkpt lat="47.80636" lon="6.78201">
        <ele>1108.754395</ele>
        <time>2018-05-26T14:45:50Z</time>
      </trkpt>
      <trkpt lat="47.80637" lon="6.78202">
        <ele>1108.923706</ele>
        <time>2018-05-26T14:45:51Z</time>
      </trkpt>
      <trkpt lat="47.80639" lon="6.78203">
        <ele>1109.020386</ele>
        <time>2018-05-26T14:45:52Z</time>
      </trkpt>
      <trkpt lat="47.8064" lon="6.78204">
        <ele>1109.137573</ele>
        <time>2018-05-26T14:45:53Z</time>
      </trkpt>
      <trkpt lat="47.80642" lon="6.78205">
        <ele>1109.209717</ele>
        <time>2018-05-26T14:45:54Z</time>
      </trkpt>
      <trkpt lat="47.80643" lon="6.78206">
        <ele>1109.326782</ele>
        <time>2018-05-26T14:45:55Z</time>
      </trkpt>
      <trkpt lat="47.80645" lon="6.78207">
        <ele>1109.413574</ele>
        <time>2018-05-26T14:45:56Z</time>
      </trkpt>
      <trkpt lat="47.80646" lon="6.78207">
        <ele>1109.458008</ele>
        <time>2018-05-26T14:45:57Z</time>
      </trkpt>
      <trkpt lat="47.80648" lon="6.78207">
        <ele>1109.458008</ele>
        <time>2018-05-26T14:45:58Z</time>
      </trkpt>
      <trkpt lat="47.80648" lon="6.78208">
        <ele>1109.600464</ele>
        <time>2018-05-26T14:45:59Z</time>
      </trkpt>
      <trkpt lat="47.8065" lon="6.78208">
        <ele>1109.700073</ele>
        <time>2018-05-26T14:46:00Z</time>
      </trkpt>
      <trkpt lat="47.80652" lon="6.78209">
        <ele>1109.800049</ele>
        <time>2018-05-26T14:46:01Z</time>
      </trkpt>
      <trkpt lat="47.80653" lon="6.7821">
        <ele>1109.939941</ele>
        <time>2018-05-26T14:46:02Z</time>
      </trkpt>
      <trkpt lat="47.80654" lon="6.78211">
        <ele>1110.23999</ele>
        <time>2018-05-26T14:46:04Z</time>
      </trkpt>
      <trkpt lat="47.80656" lon="6.78212">
        <ele>1110.364014</ele>
        <time>2018-05-26T14:46:06Z</time>
      </trkpt>
      <trkpt lat="47.80657" lon="6.78213">
        <ele>1110.445435</ele>
        <time>2018-05-26T14:46:07Z</time>
      </trkpt>
      <trkpt lat="47.80658" lon="6.78214">
        <ele>1110.533325</ele>
        <time>2018-05-26T14:46:08Z</time>
      </trkpt>
      <trkpt lat="47.8066" lon="6.78216">
        <ele>1110.680786</ele>
        <time>2018-05-26T14:46:09Z</time>
      </trkpt>
      <trkpt lat="47.80661" lon="6.78218">
        <ele>1110.791016</ele>
        <time>2018-05-26T14:46:10Z</time>
      </trkpt>
      <trkpt lat="47.80662" lon="6.78219">
        <ele>1110.967163</ele>
        <time>2018-05-26T14:46:11Z</time>
      </trkpt>
      <trkpt lat="47.80663" lon="6.78221">
        <ele>1111.099976</ele>
        <time>2018-05-26T14:46:12Z</time>
      </trkpt>
      <trkpt lat="47.80664" lon="6.78223">
        <ele>1111.323853</ele>
        <time>2018-05-26T14:46:13Z</time>
      </trkpt>
      <trkpt lat="47.80666" lon="6.78224">
        <ele>1111.482422</ele>
        <time>2018-05-26T14:46:14Z</time>
      </trkpt>
      <trkpt lat="47.80666" lon="6.78226">
        <ele>1111.734497</ele>
        <time>2018-05-26T14:46:15Z</time>
      </trkpt>
      <trkpt lat="47.80667" lon="6.78228">
        <ele>1111.921875</ele>
        <time>2018-05-26T14:46:16Z</time>
      </trkpt>
      <trkpt lat="47.80669" lon="6.7823">
        <ele>1112.121948</ele>
        <time>2018-05-26T14:46:17Z</time>
      </trkpt>
      <trkpt lat="47.8067" lon="6.78232">
        <ele>1112.434814</ele>
        <time>2018-05-26T14:46:18Z</time>
      </trkpt>
      <trkpt lat="47.80672" lon="6.78234">
        <ele>1112.652954</ele>
        <time>2018-05-26T14:46:19Z</time>
      </trkpt>
      <trkpt lat="47.80673" lon="6.78236">
        <ele>1112.990967</ele>
        <time>2018-05-26T14:46:20Z</time>
      </trkpt>
      <trkpt lat="47.80674" lon="6.78238">
        <ele>1113.210327</ele>
        <time>2018-05-26T14:46:21Z</time>
      </trkpt>
      <trkpt lat="47.80676" lon="6.7824">
        <ele>1113.519409</ele>
        <time>2018-05-26T14:46:22Z</time>
      </trkpt>
      <trkpt lat="47.80677" lon="6.78242">
        <ele>1113.723267</ele>
        <time>2018-05-26T14:46:23Z</time>
      </trkpt>
      <trkpt lat="47.80678" lon="6.78244">
        <ele>1114.043091</ele>
        <time>2018-05-26T14:46:24Z</time>
      </trkpt>
      <trkpt lat="47.80679" lon="6.78246">
        <ele>1114.262695</ele>
        <time>2018-05-26T14:46:25Z</time>
      </trkpt>
      <trkpt lat="47.8068" lon="6.78249">
        <ele>1114.482178</ele>
        <time>2018-05-26T14:46:26Z</time>
      </trkpt>
      <trkpt lat="47.8068" lon="6.78251">
        <ele>1114.809692</ele>
        <time>2018-05-26T14:46:27Z</time>
      </trkpt>
      <trkpt lat="47.80681" lon="6.78253">
        <ele>1115.020996</ele>
        <time>2018-05-26T14:46:28Z</time>
      </trkpt>
      <trkpt lat="47.80682" lon="6.78255">
        <ele>1115.300903</ele>
        <time>2018-05-26T14:46:29Z</time>
      </trkpt>
      <trkpt lat="47.80683" lon="6.78257">
        <ele>1115.450806</ele>
        <time>2018-05-26T14:46:30Z</time>
      </trkpt>
      <trkpt lat="47.80684" lon="6.78258">
        <ele>1115.57019</ele>
        <time>2018-05-26T14:46:31Z</time>
      </trkpt>
      <trkpt lat="47.80685" lon="6.7826">
        <ele>1115.70813</ele>
        <time>2018-05-26T14:46:32Z</time>
      </trkpt>
      <trkpt lat="47.80685" lon="6.78263">
        <ele>1115.784302</ele>
        <time>2018-05-26T14:46:33Z</time>
      </trkpt>
      <trkpt lat="47.80685" lon="6.78265">
        <ele>1115.874512</ele>
        <time>2018-05-26T14:46:34Z</time>
      </trkpt>
      <trkpt lat="47.80686" lon="6.78267">
        <ele>1115.914185</ele>
        <time>2018-05-26T14:46:35Z</time>
      </trkpt>
      <trkpt lat="47.80687" lon="6.78269">
        <ele>1115.948853</ele>
        <time>2018-05-26T14:46:36Z</time>
      </trkpt>
      <trkpt lat="47.80687" lon="6.78272">
        <ele>1115.967773</ele>
        <time>2018-05-26T14:46:37Z</time>
      </trkpt>
      <trkpt lat="47.80687" lon="6.78274">
        <ele>1115.990845</ele>
        <time>2018-05-26T14:46:38Z</time>
      </trkpt>
      <trkpt lat="47.80687" lon="6.78276">
        <ele>1116.032349</ele>
        <time>2018-05-26T14:46:39Z</time>
      </trkpt>
      <trkpt lat="47.80688" lon="6.78278">
        <ele>1116.057007</ele>
        <time>2018-05-26T14:46:40Z</time>
      </trkpt>
      <trkpt lat="47.80689" lon="6.7828">
        <ele>1116.100952</ele>
        <time>2018-05-26T14:46:41Z</time>
      </trkpt>
      <trkpt lat="47.80689" lon="6.78283">
        <ele>1116.143555</ele>
        <time>2018-05-26T14:46:42Z</time>
      </trkpt>
      <trkpt lat="47.8069" lon="6.78285">
        <ele>1116.193481</ele>
        <time>2018-05-26T14:46:43Z</time>
      </trkpt>
      <trkpt lat="47.8069" lon="6.78287">
        <ele>1116.277466</ele>
        <time>2018-05-26T14:46:44Z</time>
      </trkpt>
      <trkpt lat="47.80691" lon="6.78289">
        <ele>1116.341431</ele>
        <time>2018-05-26T14:46:45Z</time>
      </trkpt>
      <trkpt lat="47.80692" lon="6.78291">
        <ele>1116.441772</ele>
        <time>2018-05-26T14:46:46Z</time>
      </trkpt>
      <trkpt lat="47.80693" lon="6.78294">
        <ele>1116.508667</ele>
        <time>2018-05-26T14:46:47Z</time>
      </trkpt>
      <trkpt lat="47.80693" lon="6.78295">
        <ele>1116.638794</ele>
        <time>2018-05-26T14:46:48Z</time>
      </trkpt>
      <trkpt lat="47.80695" lon="6.78297">
        <ele>1116.755981</ele>
        <time>2018-05-26T14:46:49Z</time>
      </trkpt>
      <trkpt lat="47.80695" lon="6.78298">
        <ele>1116.895142</ele>
        <time>2018-05-26T14:46:50Z</time>
      </trkpt>
      <trkpt lat="47.80697" lon="6.783">
        <ele>1117.129761</ele>
        <time>2018-05-26T14:46:51Z</time>
      </trkpt>
      <trkpt lat="47.80698" lon="6.78301">
        <ele>1117.29834</ele>
        <time>2018-05-26T14:46:52Z</time>
      </trkpt>
      <trkpt lat="47.80699" lon="6.78302">
        <ele>1117.547485</ele>
        <time>2018-05-26T14:46:53Z</time>
      </trkpt>
      <trkpt lat="47.807" lon="6.78304">
        <ele>1117.692993</ele>
        <time>2018-05-26T14:46:54Z</time>
      </trkpt>
      <trkpt lat="47.80702" lon="6.78306">
        <ele>1117.812012</ele>
        <time>2018-05-26T14:46:55Z</time>
      </trkpt>
      <trkpt lat="47.80703" lon="6.78308">
        <ele>1117.943359</ele>
        <time>2018-05-26T14:46:56Z</time>
      </trkpt>
      <trkpt lat="47.80705" lon="6.78309">
        <ele>1118.01355</ele>
        <time>2018-05-26T14:46:57Z</time>
      </trkpt>
      <trkpt lat="47.80707" lon="6.78311">
        <ele>1118.074463</ele>
        <time>2018-05-26T14:46:58Z</time>
      </trkpt>
      <trkpt lat="47.80709" lon="6.78312">
        <ele>1118.125366</ele>
        <time>2018-05-26T14:46:59Z</time>
      </trkpt>
      <trkpt lat="47.8071" lon="6.78314">
        <ele>1118.180786</ele>
        <time>2018-05-26T14:47:00Z</time>
      </trkpt>
      <trkpt lat="47.80711" lon="6.78316">
        <ele>1118.214478</ele>
        <time>2018-05-26T14:47:01Z</time>
      </trkpt>
      <trkpt lat="47.80713" lon="6.78318">
        <ele>1118.262817</ele>
        <time>2018-05-26T14:47:02Z</time>
      </trkpt>
      <trkpt lat="47.80715" lon="6.78321">
        <ele>1118.294434</ele>
        <time>2018-05-26T14:47:03Z</time>
      </trkpt>
      <trkpt lat="47.80716" lon="6.78323">
        <ele>1118.345703</ele>
        <time>2018-05-26T14:47:04Z</time>
      </trkpt>
      <trkpt lat="47.80718" lon="6.78324">
        <ele>1118.386597</ele>
        <time>2018-05-26T14:47:05Z</time>
      </trkpt>
      <trkpt lat="47.8072" lon="6.78326">
        <ele>1118.475708</ele>
        <time>2018-05-26T14:47:06Z</time>
      </trkpt>
      <trkpt lat="47.80722" lon="6.78327">
        <ele>1118.552368</ele>
        <time>2018-05-26T14:47:07Z</time>
      </trkpt>
      <trkpt lat="47.80723" lon="6.78328">
        <ele>1118.634033</ele>
        <time>2018-05-26T14:47:08Z</time>
      </trkpt>
      <trkpt lat="47.80725" lon="6.7833">
        <ele>1118.758545</ele>
        <time>2018-05-26T14:47:09Z</time>
      </trkpt>
      <trkpt lat="47.80727" lon="6.78332">
        <ele>1118.841187</ele>
        <time>2018-05-26T14:47:10Z</time>
      </trkpt>
      <trkpt lat="47.8073" lon="6.78335">
        <ele>1118.947876</ele>
        <time>2018-05-26T14:47:11Z</time>
      </trkpt>
      <trkpt lat="47.80732" lon="6.78338">
        <ele>1118.988281</ele>
        <time>2018-05-26T14:47:12Z</time>
      </trkpt>
      <trkpt lat="47.80736" lon="6.78341">
        <ele>1118.994995</ele>
        <time>2018-05-26T14:47:13Z</time>
      </trkpt>
      <trkpt lat="47.80739" lon="6.78343">
        <ele>1118.978638</ele>
        <time>2018-05-26T14:47:14Z</time>
      </trkpt>
      <trkpt lat="47.80743" lon="6.78345">
        <ele>1118.92041</ele>
        <time>2018-05-26T14:47:15Z</time>
      </trkpt>
      <trkpt lat="47.80745" lon="6.78345">
        <ele>1118.759399</ele>
        <time>2018-05-26T14:47:16Z</time>
      </trkpt>
      <trkpt lat="47.80747" lon="6.78346">
        <ele>1118.603882</ele>
        <time>2018-05-26T14:47:17Z</time>
      </trkpt>
      <trkpt lat="47.80748" lon="6.78346">
        <ele>1118.323608</ele>
        <time>2018-05-26T14:47:18Z</time>
      </trkpt>
      <trkpt lat="47.80749" lon="6.78347">
        <ele>1118.113647</ele>
        <time>2018-05-26T14:47:19Z</time>
      </trkpt>
      <trkpt lat="47.80751" lon="6.78347">
        <ele>1117.774048</ele>
        <time>2018-05-26T14:47:20Z</time>
      </trkpt>
      <trkpt lat="47.80752" lon="6.78347">
        <ele>1117.53833</ele>
        <time>2018-05-26T14:47:21Z</time>
      </trkpt>
      <trkpt lat="47.80752" lon="6.78347">
        <ele>1117.306152</ele>
        <time>2018-05-26T14:47:22Z</time>
      </trkpt>
      <trkpt lat="47.80753" lon="6.78349">
        <ele>1116.971313</ele>
        <time>2018-05-26T14:47:23Z</time>
      </trkpt>
      <trkpt lat="47.80755" lon="6.78351">
        <ele>1116.770264</ele>
        <time>2018-05-26T14:47:24Z</time>
      </trkpt>
      <trkpt lat="47.80755" lon="6.78351">
        <ele>1116.364624</ele>
        <time>2018-05-26T14:47:25Z</time>
      </trkpt>
      <trkpt lat="47.80756" lon="6.78351">
        <ele>1116.171387</ele>
        <time>2018-05-26T14:47:27Z</time>
      </trkpt>
      <trkpt lat="47.80758" lon="6.7835">
        <ele>1116.069214</ele>
        <time>2018-05-26T14:47:28Z</time>
      </trkpt>
      <trkpt lat="47.80759" lon="6.78348">
        <ele>1115.985962</ele>
        <time>2018-05-26T14:47:29Z</time>
      </trkpt>
      <trkpt lat="47.80761" lon="6.78346">
        <ele>1115.890259</ele>
        <time>2018-05-26T14:47:30Z</time>
      </trkpt>
      <trkpt lat="47.80763" lon="6.78345">
        <ele>1115.846313</ele>
        <time>2018-05-26T14:47:31Z</time>
      </trkpt>
      <trkpt lat="47.80764" lon="6.78344">
        <ele>1115.818237</ele>
        <time>2018-05-26T14:47:32Z</time>
      </trkpt>
      <trkpt lat="47.80765" lon="6.78343">
        <ele>1115.814819</ele>
        <time>2018-05-26T14:47:33Z</time>
      </trkpt>
      <trkpt lat="47.80767" lon="6.78343">
        <ele>1115.812012</ele>
        <time>2018-05-26T14:47:34Z</time>
      </trkpt>
      <trkpt lat="47.80769" lon="6.78344">
        <ele>1115.804077</ele>
        <time>2018-05-26T14:47:35Z</time>
      </trkpt>
      <trkpt lat="47.80771" lon="6.78346">
        <ele>1115.789307</ele>
        <time>2018-05-26T14:47:36Z</time>
      </trkpt>
      <trkpt lat="47.80774" lon="6.78349">
        <ele>1115.741333</ele>
        <time>2018-05-26T14:47:37Z</time>
      </trkpt>
      <trkpt lat="47.80778" lon="6.78352">
        <ele>1115.680054</ele>
        <time>2018-05-26T14:47:38Z</time>
      </trkpt>
      <trkpt lat="47.80781" lon="6.78356">
        <ele>1115.525757</ele>
        <time>2018-05-26T14:47:39Z</time>
      </trkpt>
      <trkpt lat="47.80785" lon="6.78362">
        <ele>1115.372559</ele>
        <time>2018-05-26T14:47:40Z</time>
      </trkpt>
      <trkpt lat="47.80788" lon="6.78367">
        <ele>1115.040527</ele>
        <time>2018-05-26T14:47:41Z</time>
      </trkpt>
      <trkpt lat="47.80792" lon="6.78371">
        <ele>1114.743286</ele>
        <time>2018-05-26T14:47:42Z</time>
      </trkpt>
      <trkpt lat="47.80796" lon="6.78375">
        <ele>1114.396484</ele>
        <time>2018-05-26T14:47:43Z</time>
      </trkpt>
      <trkpt lat="47.80801" lon="6.78379">
        <ele>1113.839355</ele>
        <time>2018-05-26T14:47:44Z</time>
      </trkpt>
      <trkpt lat="47.80805" lon="6.78383">
        <ele>1113.476196</ele>
        <time>2018-05-26T14:47:45Z</time>
      </trkpt>
      <trkpt lat="47.80809" lon="6.78387">
        <ele>1112.981323</ele>
        <time>2018-05-26T14:47:46Z</time>
      </trkpt>
      <trkpt lat="47.80814" lon="6.7839">
        <ele>1112.689453</ele>
        <time>2018-05-26T14:47:47Z</time>
      </trkpt>
      <trkpt lat="47.80818" lon="6.78393">
        <ele>1112.304321</ele>
        <time>2018-05-26T14:47:48Z</time>
      </trkpt>
      <trkpt lat="47.80822" lon="6.78395">
        <ele>1112.076294</ele>
        <time>2018-05-26T14:47:49Z</time>
      </trkpt>
      <trkpt lat="47.80826" lon="6.78398">
        <ele>1111.783081</ele>
        <time>2018-05-26T14:47:50Z</time>
      </trkpt>
      <trkpt lat="47.80829" lon="6.78401">
        <ele>1111.622925</ele>
        <time>2018-05-26T14:47:51Z</time>
      </trkpt>
      <trkpt lat="47.80832" lon="6.78403">
        <ele>1111.43811</ele>
        <time>2018-05-26T14:47:52Z</time>
      </trkpt>
      <trkpt lat="47.80835" lon="6.78405">
        <ele>1111.348145</ele>
        <time>2018-05-26T14:47:53Z</time>
      </trkpt>
      <trkpt lat="47.80838" lon="6.78408">
        <ele>1111.276733</ele>
        <time>2018-05-26T14:47:54Z</time>
      </trkpt>
      <trkpt lat="47.8084" lon="6.78411">
        <ele>1111.206543</ele>
        <time>2018-05-26T14:47:55Z</time>
      </trkpt>
      <trkpt lat="47.80843" lon="6.78413">
        <ele>1111.180908</ele>
        <time>2018-05-26T14:47:56Z</time>
      </trkpt>
      <trkpt lat="47.80846" lon="6.78415">
        <ele>1111.171997</ele>
        <time>2018-05-26T14:47:57Z</time>
      </trkpt>
      <trkpt lat="47.80849" lon="6.78418">
        <ele>1111.138794</ele>
        <time>2018-05-26T14:47:58Z</time>
      </trkpt>
      <trkpt lat="47.80851" lon="6.78421">
        <ele>1111.099976</ele>
        <time>2018-05-26T14:47:59Z</time>
      </trkpt>
      <trkpt lat="47.80854" lon="6.78423">
        <ele>1111.016113</ele>
        <time>2018-05-26T14:48:00Z</time>
      </trkpt>
      <trkpt lat="47.80856" lon="6.78426">
        <ele>1110.960815</ele>
        <time>2018-05-26T14:48:01Z</time>
      </trkpt>
      <trkpt lat="47.80857" lon="6.78427">
        <ele>1110.865112</ele>
        <time>2018-05-26T14:48:02Z</time>
      </trkpt>
      <trkpt lat="47.80859" lon="6.7843">
        <ele>1110.852173</ele>
        <time>2018-05-26T14:48:04Z</time>
      </trkpt>
      <trkpt lat="47.80862" lon="6.78432">
        <ele>1110.85437</ele>
        <time>2018-05-26T14:48:05Z</time>
      </trkpt>
      <trkpt lat="47.80864" lon="6.78434">
        <ele>1110.876343</ele>
        <time>2018-05-26T14:48:06Z</time>
      </trkpt>
      <trkpt lat="47.80866" lon="6.78436">
        <ele>1110.937378</ele>
        <time>2018-05-26T14:48:07Z</time>
      </trkpt>
      <trkpt lat="47.80869" lon="6.78438">
        <ele>1110.970825</ele>
        <time>2018-05-26T14:48:08Z</time>
      </trkpt>
      <trkpt lat="47.80872" lon="6.78441">
        <ele>1110.991943</ele>
        <time>2018-05-26T14:48:09Z</time>
      </trkpt>
      <trkpt lat="47.80874" lon="6.78444">
        <ele>1110.996704</ele>
        <time>2018-05-26T14:48:10Z</time>
      </trkpt>
      <trkpt lat="47.80875" lon="6.78446">
        <ele>1111.008667</ele>
        <time>2018-05-26T14:48:11Z</time>
      </trkpt>
      <trkpt lat="47.80876" lon="6.78448">
        <ele>1111.01709</ele>
        <time>2018-05-26T14:48:12Z</time>
      </trkpt>
      <trkpt lat="47.80877" lon="6.7845">
        <ele>1111.022583</ele>
        <time>2018-05-26T14:48:13Z</time>
      </trkpt>
      <trkpt lat="47.80878" lon="6.78452">
        <ele>1111.035156</ele>
        <time>2018-05-26T14:48:14Z</time>
      </trkpt>
      <trkpt lat="47.8088" lon="6.78455">
        <ele>1111.059204</ele>
        <time>2018-05-26T14:48:15Z</time>
      </trkpt>
      <trkpt lat="47.80882" lon="6.78458">
        <ele>1111.123535</ele>
        <time>2018-05-26T14:48:16Z</time>
      </trkpt>
      <trkpt lat="47.80884" lon="6.78462">
        <ele>1111.186646</ele>
        <time>2018-05-26T14:48:17Z</time>
      </trkpt>
      <trkpt lat="47.80886" lon="6.78464">
        <ele>1111.32019</ele>
        <time>2018-05-26T14:48:18Z</time>
      </trkpt>
      <trkpt lat="47.80888" lon="6.78466">
        <ele>1111.437378</ele>
        <time>2018-05-26T14:48:19Z</time>
      </trkpt>
      <trkpt lat="47.80891" lon="6.78467">
        <ele>1111.574829</ele>
        <time>2018-05-26T14:48:20Z</time>
      </trkpt>
      <trkpt lat="47.80893" lon="6.78468">
        <ele>1111.814209</ele>
        <time>2018-05-26T14:48:21Z</time>
      </trkpt>
      <trkpt lat="47.80895" lon="6.78469">
        <ele>1111.996338</ele>
        <time>2018-05-26T14:48:22Z</time>
      </trkpt>
      <trkpt lat="47.80898" lon="6.7847">
        <ele>1112.28064</ele>
        <time>2018-05-26T14:48:23Z</time>
      </trkpt>
      <trkpt lat="47.809" lon="6.78471">
        <ele>1112.462158</ele>
        <time>2018-05-26T14:48:24Z</time>
      </trkpt>
      <trkpt lat="47.80903" lon="6.78471">
        <ele>1112.710327</ele>
        <time>2018-05-26T14:48:25Z</time>
      </trkpt>
      <trkpt lat="47.80905" lon="6.78472">
        <ele>1112.859985</ele>
        <time>2018-05-26T14:48:26Z</time>
      </trkpt>
      <trkpt lat="47.80908" lon="6.78473">
        <ele>1113.050171</ele>
        <time>2018-05-26T14:48:27Z</time>
      </trkpt>
      <trkpt lat="47.8091" lon="6.78474">
        <ele>1113.146973</ele>
        <time>2018-05-26T14:48:28Z</time>
      </trkpt>
      <trkpt lat="47.80912" lon="6.78476">
        <ele>1113.223267</ele>
        <time>2018-05-26T14:48:29Z</time>
      </trkpt>
      <trkpt lat="47.80915" lon="6.78477">
        <ele>1113.317749</ele>
        <time>2018-05-26T14:48:30Z</time>
      </trkpt>
      <trkpt lat="47.80917" lon="6.78479">
        <ele>1113.37561</ele>
        <time>2018-05-26T14:48:31Z</time>
      </trkpt>
      <trkpt lat="47.80919" lon="6.7848">
        <ele>1113.448975</ele>
        <time>2018-05-26T14:48:32Z</time>
      </trkpt>
      <trkpt lat="47.8092" lon="6.78482">
        <ele>1113.494995</ele>
        <time>2018-05-26T14:48:33Z</time>
      </trkpt>
      <trkpt lat="47.80922" lon="6.78484">
        <ele>1113.548218</ele>
        <time>2018-05-26T14:48:34Z</time>
      </trkpt>
      <trkpt lat="47.80924" lon="6.78486">
        <ele>1113.646729</ele>
        <time>2018-05-26T14:48:35Z</time>
      </trkpt>
      <trkpt lat="47.80925" lon="6.78488">
        <ele>1113.718384</ele>
        <time>2018-05-26T14:48:36Z</time>
      </trkpt>
      <trkpt lat="47.80927" lon="6.7849">
        <ele>1113.827759</ele>
        <time>2018-05-26T14:48:37Z</time>
      </trkpt>
      <trkpt lat="47.80929" lon="6.78492">
        <ele>1113.896973</ele>
        <time>2018-05-26T14:48:38Z</time>
      </trkpt>
      <trkpt lat="47.80931" lon="6.78494">
        <ele>1113.984009</ele>
        <time>2018-05-26T14:48:39Z</time>
      </trkpt>
      <trkpt lat="47.80933" lon="6.78495">
        <ele>1114.026001</ele>
        <time>2018-05-26T14:48:40Z</time>
      </trkpt>
      <trkpt lat="47.80935" lon="6.78498">
        <ele>1114.054688</ele>
        <time>2018-05-26T14:48:41Z</time>
      </trkpt>
      <trkpt lat="47.80937" lon="6.785">
        <ele>1114.087402</ele>
        <time>2018-05-26T14:48:42Z</time>
      </trkpt>
      <trkpt lat="47.80938" lon="6.78503">
        <ele>1114.111938</ele>
        <time>2018-05-26T14:48:43Z</time>
      </trkpt>
      <trkpt lat="47.80939" lon="6.78506">
        <ele>1114.16272</ele>
        <time>2018-05-26T14:48:44Z</time>
      </trkpt>
      <trkpt lat="47.80941" lon="6.78508">
        <ele>1114.215698</ele>
        <time>2018-05-26T14:48:45Z</time>
      </trkpt>
      <trkpt lat="47.80941" lon="6.78511">
        <ele>1114.288574</ele>
        <time>2018-05-26T14:48:46Z</time>
      </trkpt>
      <trkpt lat="47.80943" lon="6.78513">
        <ele>1114.417725</ele>
        <time>2018-05-26T14:48:47Z</time>
      </trkpt>
      <trkpt lat="47.80944" lon="6.78515">
        <ele>1114.498413</ele>
        <time>2018-05-26T14:48:48Z</time>
      </trkpt>
      <trkpt lat="47.80947" lon="6.78517">
        <ele>1114.603638</ele>
        <time>2018-05-26T14:48:49Z</time>
      </trkpt>
      <trkpt lat="47.80948" lon="6.78519">
        <ele>1114.665894</ele>
        <time>2018-05-26T14:48:50Z</time>
      </trkpt>
      <trkpt lat="47.8095" lon="6.78521">
        <ele>1114.756714</ele>
        <time>2018-05-26T14:48:51Z</time>
      </trkpt>
      <trkpt lat="47.80952" lon="6.78523">
        <ele>1114.812866</ele>
        <time>2018-05-26T14:48:52Z</time>
      </trkpt>
      <trkpt lat="47.80954" lon="6.78525">
        <ele>1114.865967</ele>
        <time>2018-05-26T14:48:53Z</time>
      </trkpt>
      <trkpt lat="47.80957" lon="6.78528">
        <ele>1114.932861</ele>
        <time>2018-05-26T14:48:54Z</time>
      </trkpt>
      <trkpt lat="47.80959" lon="6.7853">
        <ele>1114.974243</ele>
        <time>2018-05-26T14:48:55Z</time>
      </trkpt>
      <trkpt lat="47.80961" lon="6.78532">
        <ele>1115.03418</ele>
        <time>2018-05-26T14:48:56Z</time>
      </trkpt>
      <trkpt lat="47.80963" lon="6.78533">
        <ele>1115.068848</ele>
        <time>2018-05-26T14:48:57Z</time>
      </trkpt>
      <trkpt lat="47.80965" lon="6.78535">
        <ele>1115.083252</ele>
        <time>2018-05-26T14:48:58Z</time>
      </trkpt>
      <trkpt lat="47.80967" lon="6.78538">
        <ele>1115.083252</ele>
        <time>2018-05-26T14:48:59Z</time>
      </trkpt>
      <trkpt lat="47.8097" lon="6.7854">
        <ele>1115.100464</ele>
        <time>2018-05-26T14:49:00Z</time>
      </trkpt>
      <trkpt lat="47.80972" lon="6.78542">
        <ele>1115.100464</ele>
        <time>2018-05-26T14:49:01Z</time>
      </trkpt>
      <trkpt lat="47.80975" lon="6.78543">
        <ele>1115.089478</ele>
        <time>2018-05-26T14:49:02Z</time>
      </trkpt>
      <trkpt lat="47.80977" lon="6.78543">
        <ele>1115.042725</ele>
        <time>2018-05-26T14:49:03Z</time>
      </trkpt>
      <trkpt lat="47.8098" lon="6.78544">
        <ele>1114.99231</ele>
        <time>2018-05-26T14:49:04Z</time>
      </trkpt>
      <trkpt lat="47.80983" lon="6.78544">
        <ele>1114.899414</ele>
        <time>2018-05-26T14:49:05Z</time>
      </trkpt>
      <trkpt lat="47.80985" lon="6.78545">
        <ele>1114.837036</ele>
        <time>2018-05-26T14:49:06Z</time>
      </trkpt>
      <trkpt lat="47.80986" lon="6.78546">
        <ele>1114.768066</ele>
        <time>2018-05-26T14:49:07Z</time>
      </trkpt>
      <trkpt lat="47.80988" lon="6.78548">
        <ele>1114.752563</ele>
        <time>2018-05-26T14:49:08Z</time>
      </trkpt>
      <trkpt lat="47.8099" lon="6.7855">
        <ele>1114.752563</ele>
        <time>2018-05-26T14:49:09Z</time>
      </trkpt>
      <trkpt lat="47.80993" lon="6.78551">
        <ele>1114.776733</ele>
        <time>2018-05-26T14:49:10Z</time>
      </trkpt>
      <trkpt lat="47.80994" lon="6.78553">
        <ele>1114.824341</ele>
        <time>2018-05-26T14:49:11Z</time>
      </trkpt>
      <trkpt lat="47.80996" lon="6.78555">
        <ele>1114.927246</ele>
        <time>2018-05-26T14:49:12Z</time>
      </trkpt>
      <trkpt lat="47.80999" lon="6.78558">
        <ele>1115.001465</ele>
        <time>2018-05-26T14:49:13Z</time>
      </trkpt>
      <trkpt lat="47.81001" lon="6.7856">
        <ele>1115.075195</ele>
        <time>2018-05-26T14:49:14Z</time>
      </trkpt>
      <trkpt lat="47.81003" lon="6.78562">
        <ele>1115.19043</ele>
        <time>2018-05-26T14:49:15Z</time>
      </trkpt>
      <trkpt lat="47.81005" lon="6.78565">
        <ele>1115.274292</ele>
        <time>2018-05-26T14:49:16Z</time>
      </trkpt>
      <trkpt lat="47.81006" lon="6.78567">
        <ele>1115.404663</ele>
        <time>2018-05-26T14:49:17Z</time>
      </trkpt>
      <trkpt lat="47.81008" lon="6.7857">
        <ele>1115.479858</ele>
        <time>2018-05-26T14:49:18Z</time>
      </trkpt>
      <trkpt lat="47.81009" lon="6.78572">
        <ele>1115.572632</ele>
        <time>2018-05-26T14:49:19Z</time>
      </trkpt>
      <trkpt lat="47.8101" lon="6.78573">
        <ele>1115.630981</ele>
        <time>2018-05-26T14:49:20Z</time>
      </trkpt>
      <trkpt lat="47.81014" lon="6.78576">
        <ele>1115.709106</ele>
        <time>2018-05-26T14:49:21Z</time>
      </trkpt>
      <trkpt lat="47.81015" lon="6.78578">
        <ele>1115.753052</ele>
        <time>2018-05-26T14:49:22Z</time>
      </trkpt>
      <trkpt lat="47.81017" lon="6.7858">
        <ele>1115.798462</ele>
        <time>2018-05-26T14:49:23Z</time>
      </trkpt>
      <trkpt lat="47.81017" lon="6.7858">
        <ele>1115.894043</ele>
        <time>2018-05-26T14:49:24Z</time>
      </trkpt>
      <trkpt lat="47.81019" lon="6.78582">
        <ele>1115.986206</ele>
        <time>2018-05-26T14:49:25Z</time>
      </trkpt>
      <trkpt lat="47.81021" lon="6.78584">
        <ele>1116.156738</ele>
        <time>2018-05-26T14:49:26Z</time>
      </trkpt>
      <trkpt lat="47.81022" lon="6.78585">
        <ele>1116.47644</ele>
        <time>2018-05-26T14:49:27Z</time>
      </trkpt>
      <trkpt lat="47.81023" lon="6.78587">
        <ele>1116.603638</ele>
        <time>2018-05-26T14:49:29Z</time>
      </trkpt>
      <trkpt lat="47.81024" lon="6.78589">
        <ele>1116.785645</ele>
        <time>2018-05-26T14:49:30Z</time>
      </trkpt>
      <trkpt lat="47.81025" lon="6.78591">
        <ele>1116.911499</ele>
        <time>2018-05-26T14:49:31Z</time>
      </trkpt>
      <trkpt lat="47.81027" lon="6.78593">
        <ele>1117.056274</ele>
        <time>2018-05-26T14:49:32Z</time>
      </trkpt>
      <trkpt lat="47.81029" lon="6.78594">
        <ele>1117.315796</ele>
        <time>2018-05-26T14:49:33Z</time>
      </trkpt>
      <trkpt lat="47.8103" lon="6.78594">
        <ele>1117.510742</ele>
        <time>2018-05-26T14:49:34Z</time>
      </trkpt>
      <trkpt lat="47.81031" lon="6.78595">
        <ele>1117.811646</ele>
        <time>2018-05-26T14:49:35Z</time>
      </trkpt>
      <trkpt lat="47.81032" lon="6.78595">
        <ele>1118.003906</ele>
        <time>2018-05-26T14:49:36Z</time>
      </trkpt>
      <trkpt lat="47.81035" lon="6.78596">
        <ele>1118.256348</ele>
        <time>2018-05-26T14:49:37Z</time>
      </trkpt>
      <trkpt lat="47.81036" lon="6.78597">
        <ele>1118.396484</ele>
        <time>2018-05-26T14:49:38Z</time>
      </trkpt>
      <trkpt lat="47.81038" lon="6.78598">
        <ele>1118.511597</ele>
        <time>2018-05-26T14:49:39Z</time>
      </trkpt>
      <trkpt lat="47.81039" lon="6.786">
        <ele>1118.643555</ele>
        <time>2018-05-26T14:49:40Z</time>
      </trkpt>
      <trkpt lat="47.81041" lon="6.78601">
        <ele>1118.713135</ele>
        <time>2018-05-26T14:49:41Z</time>
      </trkpt>
      <trkpt lat="47.81043" lon="6.78602">
        <ele>1118.797607</ele>
        <time>2018-05-26T14:49:42Z</time>
      </trkpt>
      <trkpt lat="47.81045" lon="6.78602">
        <ele>1118.842407</ele>
        <time>2018-05-26T14:49:43Z</time>
      </trkpt>
      <trkpt lat="47.81047" lon="6.78603">
        <ele>1118.879028</ele>
        <time>2018-05-26T14:49:44Z</time>
      </trkpt>
      <trkpt lat="47.81049" lon="6.78603">
        <ele>1118.923218</ele>
        <time>2018-05-26T14:49:45Z</time>
      </trkpt>
      <trkpt lat="47.8105" lon="6.78604">
        <ele>1118.951294</ele>
        <time>2018-05-26T14:49:46Z</time>
      </trkpt>
      <trkpt lat="47.81052" lon="6.78605">
        <ele>1118.994019</ele>
        <time>2018-05-26T14:49:47Z</time>
      </trkpt>
      <trkpt lat="47.81055" lon="6.78606">
        <ele>1119.018311</ele>
        <time>2018-05-26T14:49:48Z</time>
      </trkpt>
      <trkpt lat="47.81057" lon="6.78607">
        <ele>1119.048218</ele>
        <time>2018-05-26T14:49:49Z</time>
      </trkpt>
      <trkpt lat="47.81058" lon="6.78608">
        <ele>1119.066895</ele>
        <time>2018-05-26T14:49:50Z</time>
      </trkpt>
      <trkpt lat="47.8106" lon="6.78609">
        <ele>1119.086914</ele>
        <time>2018-05-26T14:49:51Z</time>
      </trkpt>
      <trkpt lat="47.81062" lon="6.78611">
        <ele>1119.120239</ele>
        <time>2018-05-26T14:49:52Z</time>
      </trkpt>
      <trkpt lat="47.81064" lon="6.78613">
        <ele>1119.145142</ele>
        <time>2018-05-26T14:49:53Z</time>
      </trkpt>
      <trkpt lat="47.81065" lon="6.78615">
        <ele>1119.18396</ele>
        <time>2018-05-26T14:49:54Z</time>
      </trkpt>
      <trkpt lat="47.81067" lon="6.78617">
        <ele>1119.217285</ele>
        <time>2018-05-26T14:49:55Z</time>
      </trkpt>
      <trkpt lat="47.81069" lon="6.78618">
        <ele>1119.293945</ele>
        <time>2018-05-26T14:49:56Z</time>
      </trkpt>
      <trkpt lat="47.81071" lon="6.7862">
        <ele>1119.367798</ele>
        <time>2018-05-26T14:49:57Z</time>
      </trkpt>
      <trkpt lat="47.81072" lon="6.7862">
        <ele>1119.562378</ele>
        <time>2018-05-26T14:49:58Z</time>
      </trkpt>
      <trkpt lat="47.81072" lon="6.78621">
        <ele>1119.675537</ele>
        <time>2018-05-26T14:50:00Z</time>
      </trkpt>
      <trkpt lat="47.81073" lon="6.78622">
        <ele>1119.792358</ele>
        <time>2018-05-26T14:50:01Z</time>
      </trkpt>
      <trkpt lat="47.81081" lon="6.78626">
        <ele>1120.470947</ele>
        <time>2018-05-26T14:50:07Z</time>
      </trkpt>
      <trkpt lat="47.81083" lon="6.78627">
        <ele>1120.527222</ele>
        <time>2018-05-26T14:50:09Z</time>
      </trkpt>
      <trkpt lat="47.81085" lon="6.78629">
        <ele>1120.607544</ele>
        <time>2018-05-26T14:50:10Z</time>
      </trkpt>
      <trkpt lat="47.81087" lon="6.78631">
        <ele>1120.656128</ele>
        <time>2018-05-26T14:50:11Z</time>
      </trkpt>
      <trkpt lat="47.81089" lon="6.78631">
        <ele>1120.706543</ele>
        <time>2018-05-26T14:50:12Z</time>
      </trkpt>
      <trkpt lat="47.81091" lon="6.78632">
        <ele>1120.789429</ele>
        <time>2018-05-26T14:50:13Z</time>
      </trkpt>
      <trkpt lat="47.81092" lon="6.78632">
        <ele>1120.845825</ele>
        <time>2018-05-26T14:50:14Z</time>
      </trkpt>
      <trkpt lat="47.81094" lon="6.78633">
        <ele>1120.931152</ele>
        <time>2018-05-26T14:50:15Z</time>
      </trkpt>
      <trkpt lat="47.81094" lon="6.78634">
        <ele>1121.001587</ele>
        <time>2018-05-26T14:50:16Z</time>
      </trkpt>
      <trkpt lat="47.81096" lon="6.78635">
        <ele>1121.087769</ele>
        <time>2018-05-26T14:50:17Z</time>
      </trkpt>
      <trkpt lat="47.81097" lon="6.78636">
        <ele>1121.22998</ele>
        <time>2018-05-26T14:50:18Z</time>
      </trkpt>
      <trkpt lat="47.81099" lon="6.78637">
        <ele>1121.323975</ele>
        <time>2018-05-26T14:50:19Z</time>
      </trkpt>
      <trkpt lat="47.811" lon="6.78637">
        <ele>1121.471558</ele>
        <time>2018-05-26T14:50:20Z</time>
      </trkpt>
      <trkpt lat="47.81101" lon="6.78637">
        <ele>1121.582397</ele>
        <time>2018-05-26T14:50:21Z</time>
      </trkpt>
      <trkpt lat="47.81103" lon="6.78638">
        <ele>1121.760132</ele>
        <time>2018-05-26T14:50:22Z</time>
      </trkpt>
      <trkpt lat="47.81105" lon="6.78638">
        <ele>1121.87439</ele>
        <time>2018-05-26T14:50:23Z</time>
      </trkpt>
      <trkpt lat="47.81106" lon="6.78638">
        <ele>1121.978149</ele>
        <time>2018-05-26T14:50:24Z</time>
      </trkpt>
      <trkpt lat="47.81108" lon="6.78639">
        <ele>1122.109985</ele>
        <time>2018-05-26T14:50:25Z</time>
      </trkpt>
      <trkpt lat="47.8111" lon="6.78639">
        <ele>1122.183105</ele>
        <time>2018-05-26T14:50:26Z</time>
      </trkpt>
      <trkpt lat="47.81111" lon="6.78639">
        <ele>1122.268433</ele>
        <time>2018-05-26T14:50:27Z</time>
      </trkpt>
      <trkpt lat="47.81113" lon="6.78639">
        <ele>1122.304199</ele>
        <time>2018-05-26T14:50:28Z</time>
      </trkpt>
      <trkpt lat="47.81114" lon="6.78639">
        <ele>1122.316772</ele>
        <time>2018-05-26T14:50:29Z</time>
      </trkpt>
      <trkpt lat="47.81116" lon="6.78638">
        <ele>1122.317017</ele>
        <time>2018-05-26T14:50:30Z</time>
      </trkpt>
      <trkpt lat="47.81117" lon="6.78638">
        <ele>1122.313599</ele>
        <time>2018-05-26T14:50:31Z</time>
      </trkpt>
      <trkpt lat="47.81118" lon="6.78639">
        <ele>1122.306519</ele>
        <time>2018-05-26T14:50:32Z</time>
      </trkpt>
      <trkpt lat="47.8112" lon="6.78639">
        <ele>1122.304565</ele>
        <time>2018-05-26T14:50:33Z</time>
      </trkpt>
      <trkpt lat="47.81122" lon="6.7864">
        <ele>1122.302856</ele>
        <time>2018-05-26T14:50:34Z</time>
      </trkpt>
      <trkpt lat="47.81123" lon="6.78641">
        <ele>1122.300537</ele>
        <time>2018-05-26T14:50:35Z</time>
      </trkpt>
      <trkpt lat="47.81124" lon="6.78642">
        <ele>1122.291992</ele>
        <time>2018-05-26T14:50:36Z</time>
      </trkpt>
      <trkpt lat="47.81126" lon="6.78643">
        <ele>1122.283569</ele>
        <time>2018-05-26T14:50:37Z</time>
      </trkpt>
      <trkpt lat="47.81127" lon="6.78643">
        <ele>1122.278564</ele>
        <time>2018-05-26T14:50:38Z</time>
      </trkpt>
      <trkpt lat="47.81128" lon="6.78643">
        <ele>1122.26062</ele>
        <time>2018-05-26T14:50:39Z</time>
      </trkpt>
      <trkpt lat="47.81128" lon="6.78643">
        <ele>1122.24353</ele>
        <time>2018-05-26T14:50:40Z</time>
      </trkpt>
      <trkpt lat="47.81131" lon="6.78644">
        <ele>1122.209351</ele>
        <time>2018-05-26T14:50:41Z</time>
      </trkpt>
      <trkpt lat="47.81134" lon="6.78645">
        <ele>1122.181763</ele>
        <time>2018-05-26T14:50:42Z</time>
      </trkpt>
      <trkpt lat="47.81139" lon="6.78646">
        <ele>1122.134155</ele>
        <time>2018-05-26T14:50:43Z</time>
      </trkpt>
      <trkpt lat="47.81143" lon="6.78647">
        <ele>1122.088257</ele>
        <time>2018-05-26T14:50:44Z</time>
      </trkpt>
      <trkpt lat="47.81146" lon="6.78648">
        <ele>1121.982178</ele>
        <time>2018-05-26T14:50:45Z</time>
      </trkpt>
      <trkpt lat="47.8115" lon="6.78649">
        <ele>1121.880737</ele>
        <time>2018-05-26T14:50:46Z</time>
      </trkpt>
      <trkpt lat="47.81154" lon="6.7865">
        <ele>1121.680176</ele>
        <time>2018-05-26T14:50:47Z</time>
      </trkpt>
      <trkpt lat="47.81158" lon="6.78652">
        <ele>1121.515503</ele>
        <time>2018-05-26T14:50:48Z</time>
      </trkpt>
      <trkpt lat="47.81161" lon="6.78655">
        <ele>1121.240356</ele>
        <time>2018-05-26T14:50:49Z</time>
      </trkpt>
      <trkpt lat="47.81164" lon="6.78658">
        <ele>1121.051514</ele>
        <time>2018-05-26T14:50:50Z</time>
      </trkpt>
      <trkpt lat="47.81167" lon="6.78661">
        <ele>1120.78186</ele>
        <time>2018-05-26T14:50:51Z</time>
      </trkpt>
      <trkpt lat="47.81171" lon="6.78664">
        <ele>1120.617065</ele>
        <time>2018-05-26T14:50:52Z</time>
      </trkpt>
      <trkpt lat="47.81174" lon="6.78667">
        <ele>1120.464233</ele>
        <time>2018-05-26T14:50:53Z</time>
      </trkpt>
      <trkpt lat="47.81177" lon="6.7867">
        <ele>1120.261108</ele>
        <time>2018-05-26T14:50:54Z</time>
      </trkpt>
      <trkpt lat="47.8118" lon="6.78672">
        <ele>1120.135986</ele>
        <time>2018-05-26T14:50:55Z</time>
      </trkpt>
      <trkpt lat="47.81183" lon="6.78675">
        <ele>1119.946655</ele>
        <time>2018-05-26T14:50:56Z</time>
      </trkpt>
      <trkpt lat="47.81186" lon="6.78677">
        <ele>1119.815918</ele>
        <time>2018-05-26T14:50:57Z</time>
      </trkpt>
      <trkpt lat="47.81188" lon="6.78679">
        <ele>1119.69043</ele>
        <time>2018-05-26T14:50:58Z</time>
      </trkpt>
      <trkpt lat="47.8119" lon="6.78682">
        <ele>1119.528687</ele>
        <time>2018-05-26T14:50:59Z</time>
      </trkpt>
      <trkpt lat="47.81192" lon="6.78683">
        <ele>1119.484497</ele>
        <time>2018-05-26T14:51:00Z</time>
      </trkpt>
      <trkpt lat="47.81195" lon="6.78685">
        <ele>1119.409302</ele>
        <time>2018-05-26T14:51:01Z</time>
      </trkpt>
      <trkpt lat="47.81198" lon="6.78685">
        <ele>1119.358032</ele>
        <time>2018-05-26T14:51:02Z</time>
      </trkpt>
      <trkpt lat="47.812" lon="6.78686">
        <ele>1119.342163</ele>
        <time>2018-05-26T14:51:03Z</time>
      </trkpt>
      <trkpt lat="47.81202" lon="6.78687">
        <ele>1119.346558</ele>
        <time>2018-05-26T14:51:04Z</time>
      </trkpt>
      <trkpt lat="47.81205" lon="6.78688">
        <ele>1119.378784</ele>
        <time>2018-05-26T14:51:05Z</time>
      </trkpt>
      <trkpt lat="47.81207" lon="6.7869">
        <ele>1119.46106</ele>
        <time>2018-05-26T14:51:06Z</time>
      </trkpt>
      <trkpt lat="47.81209" lon="6.78691">
        <ele>1119.526611</ele>
        <time>2018-05-26T14:51:07Z</time>
      </trkpt>
      <trkpt lat="47.81211" lon="6.78693">
        <ele>1119.620483</ele>
        <time>2018-05-26T14:51:08Z</time>
      </trkpt>
      <trkpt lat="47.81213" lon="6.78694">
        <ele>1119.675171</ele>
        <time>2018-05-26T14:51:09Z</time>
      </trkpt>
      <trkpt lat="47.81215" lon="6.78695">
        <ele>1119.758667</ele>
        <time>2018-05-26T14:51:10Z</time>
      </trkpt>
      <trkpt lat="47.81217" lon="6.78697">
        <ele>1119.81958</ele>
        <time>2018-05-26T14:51:11Z</time>
      </trkpt>
      <trkpt lat="47.81218" lon="6.78698">
        <ele>1119.884155</ele>
        <time>2018-05-26T14:51:12Z</time>
      </trkpt>
      <trkpt lat="47.8122" lon="6.78698">
        <ele>1119.987671</ele>
        <time>2018-05-26T14:51:13Z</time>
      </trkpt>
      <trkpt lat="47.81221" lon="6.78699">
        <ele>1120.068481</ele>
        <time>2018-05-26T14:51:14Z</time>
      </trkpt>
      <trkpt lat="47.81223" lon="6.787">
        <ele>1120.222656</ele>
        <time>2018-05-26T14:51:15Z</time>
      </trkpt>
      <trkpt lat="47.81224" lon="6.78701">
        <ele>1120.348267</ele>
        <time>2018-05-26T14:51:16Z</time>
      </trkpt>
      <trkpt lat="47.81225" lon="6.78702">
        <ele>1120.488403</ele>
        <time>2018-05-26T14:51:17Z</time>
      </trkpt>
      <trkpt lat="47.81228" lon="6.78703">
        <ele>1120.721069</ele>
        <time>2018-05-26T14:51:18Z</time>
      </trkpt>
      <trkpt lat="47.8123" lon="6.78704">
        <ele>1120.891724</ele>
        <time>2018-05-26T14:51:19Z</time>
      </trkpt>
      <trkpt lat="47.81231" lon="6.78705">
        <ele>1121.165894</ele>
        <time>2018-05-26T14:51:20Z</time>
      </trkpt>
      <trkpt lat="47.81233" lon="6.78705">
        <ele>1121.348633</ele>
        <time>2018-05-26T14:51:21Z</time>
      </trkpt>
      <trkpt lat="47.81234" lon="6.78705">
        <ele>1121.612061</ele>
        <time>2018-05-26T14:51:22Z</time>
      </trkpt>
      <trkpt lat="47.81236" lon="6.78705">
        <ele>1121.783569</ele>
        <time>2018-05-26T14:51:23Z</time>
      </trkpt>
      <trkpt lat="47.81237" lon="6.78705">
        <ele>1121.953125</ele>
        <time>2018-05-26T14:51:24Z</time>
      </trkpt>
      <trkpt lat="47.81239" lon="6.78705">
        <ele>1122.359985</ele>
        <time>2018-05-26T14:51:25Z</time>
      </trkpt>
      <trkpt lat="47.81241" lon="6.78705">
        <ele>1122.591675</ele>
        <time>2018-05-26T14:51:27Z</time>
      </trkpt>
      <trkpt lat="47.81242" lon="6.78705">
        <ele>1122.746582</ele>
        <time>2018-05-26T14:51:28Z</time>
      </trkpt>
      <trkpt lat="47.81244" lon="6.78705">
        <ele>1122.907227</ele>
        <time>2018-05-26T14:51:29Z</time>
      </trkpt>
      <trkpt lat="47.81246" lon="6.78706">
        <ele>1123.163696</ele>
        <time>2018-05-26T14:51:30Z</time>
      </trkpt>
      <trkpt lat="47.81248" lon="6.78706">
        <ele>1123.344971</ele>
        <time>2018-05-26T14:51:31Z</time>
      </trkpt>
      <trkpt lat="47.81249" lon="6.78706">
        <ele>1123.618042</ele>
        <time>2018-05-26T14:51:32Z</time>
      </trkpt>
      <trkpt lat="47.8125" lon="6.78706">
        <ele>1123.792603</ele>
        <time>2018-05-26T14:51:33Z</time>
      </trkpt>
      <trkpt lat="47.81251" lon="6.78706">
        <ele>1124.040161</ele>
        <time>2018-05-26T14:51:34Z</time>
      </trkpt>
      <trkpt lat="47.81253" lon="6.78705">
        <ele>1124.203247</ele>
        <time>2018-05-26T14:51:35Z</time>
      </trkpt>
      <trkpt lat="47.81255" lon="6.78705">
        <ele>1124.36377</ele>
        <time>2018-05-26T14:51:36Z</time>
      </trkpt>
      <trkpt lat="47.81257" lon="6.78706">
        <ele>1124.594482</ele>
        <time>2018-05-26T14:51:37Z</time>
      </trkpt>
      <trkpt lat="47.81258" lon="6.78706">
        <ele>1124.746704</ele>
        <time>2018-05-26T14:51:38Z</time>
      </trkpt>
      <trkpt lat="47.8126" lon="6.78706">
        <ele>1124.993408</ele>
        <time>2018-05-26T14:51:39Z</time>
      </trkpt>
      <trkpt lat="47.81261" lon="6.78706">
        <ele>1125.174438</ele>
        <time>2018-05-26T14:51:40Z</time>
      </trkpt>
      <trkpt lat="47.81263" lon="6.78706">
        <ele>1125.44812</ele>
        <time>2018-05-26T14:51:41Z</time>
      </trkpt>
      <trkpt lat="47.81265" lon="6.78706">
        <ele>1125.625977</ele>
        <time>2018-05-26T14:51:42Z</time>
      </trkpt>
      <trkpt lat="47.81266" lon="6.78706">
        <ele>1125.805298</ele>
        <time>2018-05-26T14:51:43Z</time>
      </trkpt>
      <trkpt lat="47.81268" lon="6.78706">
        <ele>1126.082886</ele>
        <time>2018-05-26T14:51:44Z</time>
      </trkpt>
      <trkpt lat="47.8127" lon="6.78705">
        <ele>1126.269165</ele>
        <time>2018-05-26T14:51:45Z</time>
      </trkpt>
      <trkpt lat="47.81272" lon="6.78705">
        <ele>1126.546509</ele>
        <time>2018-05-26T14:51:46Z</time>
      </trkpt>
      <trkpt lat="47.81274" lon="6.78704">
        <ele>1126.732544</ele>
        <time>2018-05-26T14:51:47Z</time>
      </trkpt>
      <trkpt lat="47.81277" lon="6.78703">
        <ele>1127.003174</ele>
        <time>2018-05-26T14:51:48Z</time>
      </trkpt>
      <trkpt lat="47.81279" lon="6.78703">
        <ele>1127.171631</ele>
        <time>2018-05-26T14:51:49Z</time>
      </trkpt>
      <trkpt lat="47.81282" lon="6.78703">
        <ele>1127.397461</ele>
        <time>2018-05-26T14:51:50Z</time>
      </trkpt>
      <trkpt lat="47.81283" lon="6.78703">
        <ele>1127.528931</ele>
        <time>2018-05-26T14:51:51Z</time>
      </trkpt>
      <trkpt lat="47.81286" lon="6.78704">
        <ele>1127.700806</ele>
        <time>2018-05-26T14:51:52Z</time>
      </trkpt>
      <trkpt lat="47.81287" lon="6.78704">
        <ele>1127.806396</ele>
        <time>2018-05-26T14:51:53Z</time>
      </trkpt>
      <trkpt lat="47.81289" lon="6.78704">
        <ele>1127.95459</ele>
        <time>2018-05-26T14:51:54Z</time>
      </trkpt>
      <trkpt lat="47.81291" lon="6.78704">
        <ele>1128.046997</ele>
        <time>2018-05-26T14:51:55Z</time>
      </trkpt>
      <trkpt lat="47.81293" lon="6.78705">
        <ele>1128.13916</ele>
        <time>2018-05-26T14:51:56Z</time>
      </trkpt>
      <trkpt lat="47.81295" lon="6.78705">
        <ele>1128.289429</ele>
        <time>2018-05-26T14:51:57Z</time>
      </trkpt>
      <trkpt lat="47.81296" lon="6.78704">
        <ele>1128.399902</ele>
        <time>2018-05-26T14:51:58Z</time>
      </trkpt>
      <trkpt lat="47.81298" lon="6.78705">
        <ele>1128.558838</ele>
        <time>2018-05-26T14:51:59Z</time>
      </trkpt>
      <trkpt lat="47.813" lon="6.78705">
        <ele>1128.651123</ele>
        <time>2018-05-26T14:52:00Z</time>
      </trkpt>
      <trkpt lat="47.81303" lon="6.78705">
        <ele>1128.733276</ele>
        <time>2018-05-26T14:52:01Z</time>
      </trkpt>
      <trkpt lat="47.81305" lon="6.78705">
        <ele>1128.815063</ele>
        <time>2018-05-26T14:52:02Z</time>
      </trkpt>
      <trkpt lat="47.81307" lon="6.78706">
        <ele>1128.937988</ele>
        <time>2018-05-26T14:52:03Z</time>
      </trkpt>
      <trkpt lat="47.81309" lon="6.78706">
        <ele>1129.017944</ele>
        <time>2018-05-26T14:52:04Z</time>
      </trkpt>
      <trkpt lat="47.8131" lon="6.78706">
        <ele>1129.120117</ele>
        <time>2018-05-26T14:52:05Z</time>
      </trkpt>
      <trkpt lat="47.81312" lon="6.78706">
        <ele>1129.178833</ele>
        <time>2018-05-26T14:52:06Z</time>
      </trkpt>
      <trkpt lat="47.81315" lon="6.78706">
        <ele>1129.264771</ele>
        <time>2018-05-26T14:52:07Z</time>
      </trkpt>
      <trkpt lat="47.81316" lon="6.78707">
        <ele>1129.318726</ele>
        <time>2018-05-26T14:52:08Z</time>
      </trkpt>
      <trkpt lat="47.81317" lon="6.78708">
        <ele>1129.36145</ele>
        <time>2018-05-26T14:52:09Z</time>
      </trkpt>
      <trkpt lat="47.81319" lon="6.78709">
        <ele>1129.401367</ele>
        <time>2018-05-26T14:52:10Z</time>
      </trkpt>
      <trkpt lat="47.81322" lon="6.7871">
        <ele>1129.416626</ele>
        <time>2018-05-26T14:52:11Z</time>
      </trkpt>
      <trkpt lat="47.81324" lon="6.78711">
        <ele>1129.419678</ele>
        <time>2018-05-26T14:52:12Z</time>
      </trkpt>
      <trkpt lat="47.81326" lon="6.78712">
        <ele>1129.415894</ele>
        <time>2018-05-26T14:52:13Z</time>
      </trkpt>
      <trkpt lat="47.81329" lon="6.78713">
        <ele>1129.38208</ele>
        <time>2018-05-26T14:52:14Z</time>
      </trkpt>
      <trkpt lat="47.81331" lon="6.78713">
        <ele>1129.349487</ele>
        <time>2018-05-26T14:52:15Z</time>
      </trkpt>
      <trkpt lat="47.81333" lon="6.78713">
        <ele>1129.317871</ele>
        <time>2018-05-26T14:52:16Z</time>
      </trkpt>
      <trkpt lat="47.81335" lon="6.78714">
        <ele>1129.280396</ele>
        <time>2018-05-26T14:52:17Z</time>
      </trkpt>
      <trkpt lat="47.81337" lon="6.78715">
        <ele>1129.27478</ele>
        <time>2018-05-26T14:52:18Z</time>
      </trkpt>
      <trkpt lat="47.81339" lon="6.78715">
        <ele>1129.282104</ele>
        <time>2018-05-26T14:52:19Z</time>
      </trkpt>
      <trkpt lat="47.8134" lon="6.78716">
        <ele>1129.317505</ele>
        <time>2018-05-26T14:52:20Z</time>
      </trkpt>
      <trkpt lat="47.81343" lon="6.78716">
        <ele>1129.403809</ele>
        <time>2018-05-26T14:52:21Z</time>
      </trkpt>
      <trkpt lat="47.81345" lon="6.78717">
        <ele>1129.46814</ele>
        <time>2018-05-26T14:52:22Z</time>
      </trkpt>
      <trkpt lat="47.81347" lon="6.78718">
        <ele>1129.561035</ele>
        <time>2018-05-26T14:52:23Z</time>
      </trkpt>
      <trkpt lat="47.8135" lon="6.78719">
        <ele>1129.611206</ele>
        <time>2018-05-26T14:52:24Z</time>
      </trkpt>
      <trkpt lat="47.81352" lon="6.7872">
        <ele>1129.651123</ele>
        <time>2018-05-26T14:52:25Z</time>
      </trkpt>
      <trkpt lat="47.81353" lon="6.7872">
        <ele>1129.652954</ele>
        <time>2018-05-26T14:52:26Z</time>
      </trkpt>
      <trkpt lat="47.81355" lon="6.78721">
        <ele>1129.649536</ele>
        <time>2018-05-26T14:52:27Z</time>
      </trkpt>
      <trkpt lat="47.81357" lon="6.78723">
        <ele>1129.648315</ele>
        <time>2018-05-26T14:52:28Z</time>
      </trkpt>
      <trkpt lat="47.81359" lon="6.78724">
        <ele>1129.648926</ele>
        <time>2018-05-26T14:52:29Z</time>
      </trkpt>
      <trkpt lat="47.81361" lon="6.78725">
        <ele>1129.672607</ele>
        <time>2018-05-26T14:52:30Z</time>
      </trkpt>
      <trkpt lat="47.81362" lon="6.78727">
        <ele>1129.708984</ele>
        <time>2018-05-26T14:52:31Z</time>
      </trkpt>
      <trkpt lat="47.81364" lon="6.78728">
        <ele>1129.798218</ele>
        <time>2018-05-26T14:52:32Z</time>
      </trkpt>
      <trkpt lat="47.81366" lon="6.7873">
        <ele>1129.876465</ele>
        <time>2018-05-26T14:52:33Z</time>
      </trkpt>
      <trkpt lat="47.81368" lon="6.78732">
        <ele>1130.011108</ele>
        <time>2018-05-26T14:52:34Z</time>
      </trkpt>
      <trkpt lat="47.81371" lon="6.78735">
        <ele>1130.09729</ele>
        <time>2018-05-26T14:52:35Z</time>
      </trkpt>
      <trkpt lat="47.81373" lon="6.78737">
        <ele>1130.168091</ele>
        <time>2018-05-26T14:52:36Z</time>
      </trkpt>
      <trkpt lat="47.81375" lon="6.7874">
        <ele>1130.23938</ele>
        <time>2018-05-26T14:52:37Z</time>
      </trkpt>
      <trkpt lat="47.81377" lon="6.78743">
        <ele>1130.261353</ele>
        <time>2018-05-26T14:52:38Z</time>
      </trkpt>
      <trkpt lat="47.81379" lon="6.78746">
        <ele>1130.261108</ele>
        <time>2018-05-26T14:52:39Z</time>
      </trkpt>
      <trkpt lat="47.81381" lon="6.7875">
        <ele>1130.237671</ele>
        <time>2018-05-26T14:52:40Z</time>
      </trkpt>
      <trkpt lat="47.81383" lon="6.78754">
        <ele>1130.156128</ele>
        <time>2018-05-26T14:52:41Z</time>
      </trkpt>
      <trkpt lat="47.81385" lon="6.78758">
        <ele>1130.088379</ele>
        <time>2018-05-26T14:52:42Z</time>
      </trkpt>
      <trkpt lat="47.81387" lon="6.78761">
        <ele>1130.025269</ele>
        <time>2018-05-26T14:52:43Z</time>
      </trkpt>
      <trkpt lat="47.81389" lon="6.78764">
        <ele>1129.950317</ele>
        <time>2018-05-26T14:52:44Z</time>
      </trkpt>
      <trkpt lat="47.81391" lon="6.78765">
        <ele>1129.914185</ele>
        <time>2018-05-26T14:52:45Z</time>
      </trkpt>
      <trkpt lat="47.81393" lon="6.78768">
        <ele>1129.86499</ele>
        <time>2018-05-26T14:52:46Z</time>
      </trkpt>
      <trkpt lat="47.81396" lon="6.78772">
        <ele>1129.82312</ele>
        <time>2018-05-26T14:52:47Z</time>
      </trkpt>
      <trkpt lat="47.81398" lon="6.78776">
        <ele>1129.769287</ele>
        <time>2018-05-26T14:52:48Z</time>
      </trkpt>
      <trkpt lat="47.81401" lon="6.7878">
        <ele>1129.657837</ele>
        <time>2018-05-26T14:52:49Z</time>
      </trkpt>
      <trkpt lat="47.81404" lon="6.78785">
        <ele>1129.554321</ele>
        <time>2018-05-26T14:52:50Z</time>
      </trkpt>
      <trkpt lat="47.81407" lon="6.78789">
        <ele>1129.339966</ele>
        <time>2018-05-26T14:52:51Z</time>
      </trkpt>
      <trkpt lat="47.8141" lon="6.78793">
        <ele>1129.167114</ele>
        <time>2018-05-26T14:52:52Z</time>
      </trkpt>
      <trkpt lat="47.81412" lon="6.78798">
        <ele>1128.891113</ele>
        <time>2018-05-26T14:52:53Z</time>
      </trkpt>
      <trkpt lat="47.81414" lon="6.78801">
        <ele>1128.710815</ele>
        <time>2018-05-26T14:52:54Z</time>
      </trkpt>
      <trkpt lat="47.81415" lon="6.78804">
        <ele>1128.542603</ele>
        <time>2018-05-26T14:52:55Z</time>
      </trkpt>
      <trkpt lat="47.81417" lon="6.78808">
        <ele>1128.327515</ele>
        <time>2018-05-26T14:52:56Z</time>
      </trkpt>
      <trkpt lat="47.81418" lon="6.78812">
        <ele>1128.221558</ele>
        <time>2018-05-26T14:52:57Z</time>
      </trkpt>
      <trkpt lat="47.8142" lon="6.78816">
        <ele>1128.120239</ele>
        <time>2018-05-26T14:52:58Z</time>
      </trkpt>
      <trkpt lat="47.81423" lon="6.7882">
        <ele>1128.077759</ele>
        <time>2018-05-26T14:52:59Z</time>
      </trkpt>
      <trkpt lat="47.81426" lon="6.78823">
        <ele>1128.058716</ele>
        <time>2018-05-26T14:53:00Z</time>
      </trkpt>
      <trkpt lat="47.81429" lon="6.78826">
        <ele>1128.015259</ele>
        <time>2018-05-26T14:53:01Z</time>
      </trkpt>
      <trkpt lat="47.81432" lon="6.78829">
        <ele>1127.960693</ele>
        <time>2018-05-26T14:53:02Z</time>
      </trkpt>
      <trkpt lat="47.81433" lon="6.78831">
        <ele>1127.89209</ele>
        <time>2018-05-26T14:53:03Z</time>
      </trkpt>
      <trkpt lat="47.81434" lon="6.78832">
        <ele>1127.758667</ele>
        <time>2018-05-26T14:53:04Z</time>
      </trkpt>
      <trkpt lat="47.81435" lon="6.78832">
        <ele>1127.643433</ele>
        <time>2018-05-26T14:53:05Z</time>
      </trkpt>
      <trkpt lat="47.81444" lon="6.78841">
        <ele>1126.338013</ele>
        <time>2018-05-26T14:53:27Z</time>
      </trkpt>
      <trkpt lat="47.81447" lon="6.78843">
        <ele>1126.236084</ele>
        <time>2018-05-26T14:53:29Z</time>
      </trkpt>
      <trkpt lat="47.81449" lon="6.78845">
        <ele>1126.160278</ele>
        <time>2018-05-26T14:53:30Z</time>
      </trkpt>
      <trkpt lat="47.8145" lon="6.78848">
        <ele>1126.035522</ele>
        <time>2018-05-26T14:53:31Z</time>
      </trkpt>
      <trkpt lat="47.81452" lon="6.78851">
        <ele>1125.943726</ele>
        <time>2018-05-26T14:53:32Z</time>
      </trkpt>
      <trkpt lat="47.81453" lon="6.78855">
        <ele>1125.795654</ele>
        <time>2018-05-26T14:53:33Z</time>
      </trkpt>
      <trkpt lat="47.81454" lon="6.78858">
        <ele>1125.696289</ele>
        <time>2018-05-26T14:53:34Z</time>
      </trkpt>
      <trkpt lat="47.81455" lon="6.78862">
        <ele>1125.595825</ele>
        <time>2018-05-26T14:53:35Z</time>
      </trkpt>
      <trkpt lat="47.81456" lon="6.78866">
        <ele>1125.439819</ele>
        <time>2018-05-26T14:53:36Z</time>
      </trkpt>
      <trkpt lat="47.81457" lon="6.78868">
        <ele>1125.333984</ele>
        <time>2018-05-26T14:53:37Z</time>
      </trkpt>
      <trkpt lat="47.8146" lon="6.7887">
        <ele>1125.200073</ele>
        <time>2018-05-26T14:53:38Z</time>
      </trkpt>
      <trkpt lat="47.81463" lon="6.78871">
        <ele>1125.127441</ele>
        <time>2018-05-26T14:53:39Z</time>
      </trkpt>
      <trkpt lat="47.81467" lon="6.78872">
        <ele>1125.036377</ele>
        <time>2018-05-26T14:53:40Z</time>
      </trkpt>
      <trkpt lat="47.8147" lon="6.78875">
        <ele>1124.977783</ele>
        <time>2018-05-26T14:53:41Z</time>
      </trkpt>
      <trkpt lat="47.81473" lon="6.78877">
        <ele>1124.921509</ele>
        <time>2018-05-26T14:53:42Z</time>
      </trkpt>
      <trkpt lat="47.81475" lon="6.78881">
        <ele>1124.834229</ele>
        <time>2018-05-26T14:53:43Z</time>
      </trkpt>
      <trkpt lat="47.81478" lon="6.78885">
        <ele>1124.76709</ele>
        <time>2018-05-26T14:53:44Z</time>
      </trkpt>
      <trkpt lat="47.81481" lon="6.78889">
        <ele>1124.639648</ele>
        <time>2018-05-26T14:53:45Z</time>
      </trkpt>
      <trkpt lat="47.81484" lon="6.78892">
        <ele>1124.530762</ele>
        <time>2018-05-26T14:53:46Z</time>
      </trkpt>
      <trkpt lat="47.81488" lon="6.78895">
        <ele>1124.342163</ele>
        <time>2018-05-26T14:53:47Z</time>
      </trkpt>
      <trkpt lat="47.81492" lon="6.78898">
        <ele>1124.20752</ele>
        <time>2018-05-26T14:53:48Z</time>
      </trkpt>
      <trkpt lat="47.81495" lon="6.78902">
        <ele>1124.072266</ele>
        <time>2018-05-26T14:53:49Z</time>
      </trkpt>
      <trkpt lat="47.81498" lon="6.78905">
        <ele>1123.85144</ele>
        <time>2018-05-26T14:53:50Z</time>
      </trkpt>
      <trkpt lat="47.81501" lon="6.78908">
        <ele>1123.694702</ele>
        <time>2018-05-26T14:53:51Z</time>
      </trkpt>
      <trkpt lat="47.81502" lon="6.78909">
        <ele>1123.468872</ele>
        <time>2018-05-26T14:53:52Z</time>
      </trkpt>
      <trkpt lat="47.81502" lon="6.78911">
        <ele>1123.334473</ele>
        <time>2018-05-26T14:53:53Z</time>
      </trkpt>
      <trkpt lat="47.81508" lon="6.78922">
        <ele>1122.703003</ele>
        <time>2018-05-26T14:54:05Z</time>
      </trkpt>
      <trkpt lat="47.81509" lon="6.78923">
        <ele>1122.702271</ele>
        <time>2018-05-26T14:54:07Z</time>
      </trkpt>
      <trkpt lat="47.8151" lon="6.78924">
        <ele>1122.698608</ele>
        <time>2018-05-26T14:54:08Z</time>
      </trkpt>
      <trkpt lat="47.81511" lon="6.78924">
        <ele>1122.689209</ele>
        <time>2018-05-26T14:54:09Z</time>
      </trkpt>
      <trkpt lat="47.81512" lon="6.78925">
        <ele>1122.681274</ele>
        <time>2018-05-26T14:54:10Z</time>
      </trkpt>
      <trkpt lat="47.81513" lon="6.78924">
        <ele>1122.668945</ele>
        <time>2018-05-26T14:54:11Z</time>
      </trkpt>
      <trkpt lat="47.81515" lon="6.78922">
        <ele>1122.660645</ele>
        <time>2018-05-26T14:54:12Z</time>
      </trkpt>
      <trkpt lat="47.81516" lon="6.78923">
        <ele>1122.639771</ele>
        <time>2018-05-26T14:54:13Z</time>
      </trkpt>
      <trkpt lat="47.81518" lon="6.78924">
        <ele>1122.61731</ele>
        <time>2018-05-26T14:54:14Z</time>
      </trkpt>
      <trkpt lat="47.81519" lon="6.78925">
        <ele>1122.58374</ele>
        <time>2018-05-26T14:54:15Z</time>
      </trkpt>
      <trkpt lat="47.81521" lon="6.78927">
        <ele>1122.528442</ele>
        <time>2018-05-26T14:54:16Z</time>
      </trkpt>
      <trkpt lat="47.81522" lon="6.78928">
        <ele>1122.49231</ele>
        <time>2018-05-26T14:54:17Z</time>
      </trkpt>
      <trkpt lat="47.81524" lon="6.78929">
        <ele>1122.439331</ele>
        <time>2018-05-26T14:54:18Z</time>
      </trkpt>
      <trkpt lat="47.81526" lon="6.78931">
        <ele>1122.408569</ele>
        <time>2018-05-26T14:54:19Z</time>
      </trkpt>
      <trkpt lat="47.81528" lon="6.78933">
        <ele>1122.394165</ele>
        <time>2018-05-26T14:54:20Z</time>
      </trkpt>
      <trkpt lat="47.81529" lon="6.78936">
        <ele>1122.392212</ele>
        <time>2018-05-26T14:54:21Z</time>
      </trkpt>
      <trkpt lat="47.81532" lon="6.78939">
        <ele>1122.390503</ele>
        <time>2018-05-26T14:54:22Z</time>
      </trkpt>
      <trkpt lat="47.81534" lon="6.78941">
        <ele>1122.386108</ele>
        <time>2018-05-26T14:54:23Z</time>
      </trkpt>
      <trkpt lat="47.81536" lon="6.78943">
        <ele>1122.369263</ele>
        <time>2018-05-26T14:54:24Z</time>
      </trkpt>
      <trkpt lat="47.81538" lon="6.78946">
        <ele>1122.337524</ele>
        <time>2018-05-26T14:54:25Z</time>
      </trkpt>
      <trkpt lat="47.8154" lon="6.78948">
        <ele>1122.315552</ele>
        <time>2018-05-26T14:54:26Z</time>
      </trkpt>
      <trkpt lat="47.81542" lon="6.7895">
        <ele>1122.294067</ele>
        <time>2018-05-26T14:54:27Z</time>
      </trkpt>
      <trkpt lat="47.81544" lon="6.78953">
        <ele>1122.278687</ele>
        <time>2018-05-26T14:54:28Z</time>
      </trkpt>
      <trkpt lat="47.81546" lon="6.78955">
        <ele>1122.279419</ele>
        <time>2018-05-26T14:54:29Z</time>
      </trkpt>
      <trkpt lat="47.81547" lon="6.78957">
        <ele>1122.316528</ele>
        <time>2018-05-26T14:54:30Z</time>
      </trkpt>
      <trkpt lat="47.81548" lon="6.7896">
        <ele>1122.369263</ele>
        <time>2018-05-26T14:54:31Z</time>
      </trkpt>
      <trkpt lat="47.8155" lon="6.78962">
        <ele>1122.440063</ele>
        <time>2018-05-26T14:54:32Z</time>
      </trkpt>
      <trkpt lat="47.81551" lon="6.78965">
        <ele>1122.58252</ele>
        <time>2018-05-26T14:54:33Z</time>
      </trkpt>
      <trkpt lat="47.81551" lon="6.78967">
        <ele>1122.717651</ele>
        <time>2018-05-26T14:54:34Z</time>
      </trkpt>
      <trkpt lat="47.81553" lon="6.78969">
        <ele>1122.993774</ele>
        <time>2018-05-26T14:54:35Z</time>
      </trkpt>
      <trkpt lat="47.81554" lon="6.78971">
        <ele>1123.225586</ele>
        <time>2018-05-26T14:54:36Z</time>
      </trkpt>
      <trkpt lat="47.81554" lon="6.78973">
        <ele>1123.62854</ele>
        <time>2018-05-26T14:54:37Z</time>
      </trkpt>
      <trkpt lat="47.81555" lon="6.78975">
        <ele>1123.924438</ele>
        <time>2018-05-26T14:54:38Z</time>
      </trkpt>
      <trkpt lat="47.81556" lon="6.78977">
        <ele>1124.369629</ele>
        <time>2018-05-26T14:54:39Z</time>
      </trkpt>
      <trkpt lat="47.81556" lon="6.78979">
        <ele>1124.650513</ele>
        <time>2018-05-26T14:54:40Z</time>
      </trkpt>
      <trkpt lat="47.81556" lon="6.78981">
        <ele>1125.052856</ele>
        <time>2018-05-26T14:54:41Z</time>
      </trkpt>
      <trkpt lat="47.81557" lon="6.78982">
        <ele>1125.321533</ele>
        <time>2018-05-26T14:54:42Z</time>
      </trkpt>
      <trkpt lat="47.81557" lon="6.78984">
        <ele>1125.732788</ele>
        <time>2018-05-26T14:54:43Z</time>
      </trkpt>
      <trkpt lat="47.81556" lon="6.78986">
        <ele>1126.009888</ele>
        <time>2018-05-26T14:54:44Z</time>
      </trkpt>
      <trkpt lat="47.81556" lon="6.78987">
        <ele>1126.288086</ele>
        <time>2018-05-26T14:54:45Z</time>
      </trkpt>
      <trkpt lat="47.8156" lon="6.79001">
        <ele>1129.218872</ele>
        <time>2018-05-26T14:54:59Z</time>
      </trkpt>
      <trkpt lat="47.8156" lon="6.79002">
        <ele>1129.338013</ele>
        <time>2018-05-26T14:55:01Z</time>
      </trkpt>
      <trkpt lat="47.81561" lon="6.79003">
        <ele>1129.452026</ele>
        <time>2018-05-26T14:55:02Z</time>
      </trkpt>
      <trkpt lat="47.81561" lon="6.79005">
        <ele>1129.562866</ele>
        <time>2018-05-26T14:55:03Z</time>
      </trkpt>
      <trkpt lat="47.81562" lon="6.79007">
        <ele>1129.720703</ele>
        <time>2018-05-26T14:55:04Z</time>
      </trkpt>
      <trkpt lat="47.81563" lon="6.79008">
        <ele>1129.819336</ele>
        <time>2018-05-26T14:55:05Z</time>
      </trkpt>
      <trkpt lat="47.81563" lon="6.79009">
        <ele>1130.15625</ele>
        <time>2018-05-26T14:55:07Z</time>
      </trkpt>
      <trkpt lat="47.81564" lon="6.79011">
        <ele>1130.306152</ele>
        <time>2018-05-26T14:55:09Z</time>
      </trkpt>
      <trkpt lat="47.81564" lon="6.79012">
        <ele>1130.400146</ele>
        <time>2018-05-26T14:55:10Z</time>
      </trkpt>
      <trkpt lat="47.81565" lon="6.79014">
        <ele>1130.520264</ele>
        <time>2018-05-26T14:55:11Z</time>
      </trkpt>
      <trkpt lat="47.81566" lon="6.79016">
        <ele>1130.590088</ele>
        <time>2018-05-26T14:55:12Z</time>
      </trkpt>
      <trkpt lat="47.81566" lon="6.79018">
        <ele>1130.679199</ele>
        <time>2018-05-26T14:55:13Z</time>
      </trkpt>
      <trkpt lat="47.81567" lon="6.7902">
        <ele>1130.723755</ele>
        <time>2018-05-26T14:55:14Z</time>
      </trkpt>
      <trkpt lat="47.81568" lon="6.79021">
        <ele>1130.745972</ele>
        <time>2018-05-26T14:55:15Z</time>
      </trkpt>
      <trkpt lat="47.81569" lon="6.79022">
        <ele>1130.745972</ele>
        <time>2018-05-26T14:55:16Z</time>
      </trkpt>
      <trkpt lat="47.8157" lon="6.79024">
        <ele>1130.735718</ele>
        <time>2018-05-26T14:55:17Z</time>
      </trkpt>
      <trkpt lat="47.81571" lon="6.79026">
        <ele>1130.711304</ele>
        <time>2018-05-26T14:55:18Z</time>
      </trkpt>
      <trkpt lat="47.81573" lon="6.79028">
        <ele>1130.688721</ele>
        <time>2018-05-26T14:55:19Z</time>
      </trkpt>
      <trkpt lat="47.81574" lon="6.7903">
        <ele>1130.653931</ele>
        <time>2018-05-26T14:55:20Z</time>
      </trkpt>
      <trkpt lat="47.81576" lon="6.79031">
        <ele>1130.643188</ele>
        <time>2018-05-26T14:55:21Z</time>
      </trkpt>
      <trkpt lat="47.81578" lon="6.79033">
        <ele>1130.644897</ele>
        <time>2018-05-26T14:55:22Z</time>
      </trkpt>
      <trkpt lat="47.81579" lon="6.79034">
        <ele>1130.657471</ele>
        <time>2018-05-26T14:55:23Z</time>
      </trkpt>
      <trkpt lat="47.8158" lon="6.79036">
        <ele>1130.678345</ele>
        <time>2018-05-26T14:55:24Z</time>
      </trkpt>
      <trkpt lat="47.81582" lon="6.79038">
        <ele>1130.707397</ele>
        <time>2018-05-26T14:55:25Z</time>
      </trkpt>
      <trkpt lat="47.81584" lon="6.79039">
        <ele>1130.734497</ele>
        <time>2018-05-26T14:55:26Z</time>
      </trkpt>
      <trkpt lat="47.81585" lon="6.79041">
        <ele>1130.80603</ele>
        <time>2018-05-26T14:55:27Z</time>
      </trkpt>
      <trkpt lat="47.81587" lon="6.79043">
        <ele>1130.87207</ele>
        <time>2018-05-26T14:55:28Z</time>
      </trkpt>
      <trkpt lat="47.81589" lon="6.79045">
        <ele>1130.981689</ele>
        <time>2018-05-26T14:55:29Z</time>
      </trkpt>
      <trkpt lat="47.8159" lon="6.79047">
        <ele>1131.056519</ele>
        <time>2018-05-26T14:55:30Z</time>
      </trkpt>
      <trkpt lat="47.81592" lon="6.79049">
        <ele>1131.167847</ele>
        <time>2018-05-26T14:55:31Z</time>
      </trkpt>
      <trkpt lat="47.81593" lon="6.79051">
        <ele>1131.234375</ele>
        <time>2018-05-26T14:55:32Z</time>
      </trkpt>
      <trkpt lat="47.81595" lon="6.79053">
        <ele>1131.292603</ele>
        <time>2018-05-26T14:55:33Z</time>
      </trkpt>
      <trkpt lat="47.81596" lon="6.79054">
        <ele>1131.36438</ele>
        <time>2018-05-26T14:55:34Z</time>
      </trkpt>
      <trkpt lat="47.81598" lon="6.79055">
        <ele>1131.401489</ele>
        <time>2018-05-26T14:55:35Z</time>
      </trkpt>
      <trkpt lat="47.81599" lon="6.79056">
        <ele>1131.446289</ele>
        <time>2018-05-26T14:55:36Z</time>
      </trkpt>
      <trkpt lat="47.81601" lon="6.79057">
        <ele>1131.479004</ele>
        <time>2018-05-26T14:55:37Z</time>
      </trkpt>
      <trkpt lat="47.81603" lon="6.79058">
        <ele>1131.543091</ele>
        <time>2018-05-26T14:55:38Z</time>
      </trkpt>
      <trkpt lat="47.81604" lon="6.79059">
        <ele>1131.585815</ele>
        <time>2018-05-26T14:55:39Z</time>
      </trkpt>
      <trkpt lat="47.81604" lon="6.7906">
        <ele>1131.617432</ele>
        <time>2018-05-26T14:55:40Z</time>
      </trkpt>
      <trkpt lat="47.81605" lon="6.79061">
        <ele>1131.6427</ele>
        <time>2018-05-26T14:55:41Z</time>
      </trkpt>
      <trkpt lat="47.81606" lon="6.79062">
        <ele>1131.645874</ele>
        <time>2018-05-26T14:55:42Z</time>
      </trkpt>
      <trkpt lat="47.81606" lon="6.79063">
        <ele>1131.643433</ele>
        <time>2018-05-26T14:55:43Z</time>
      </trkpt>
      <trkpt lat="47.81607" lon="6.79064">
        <ele>1131.626587</ele>
        <time>2018-05-26T14:55:44Z</time>
      </trkpt>
      <trkpt lat="47.81609" lon="6.79066">
        <ele>1131.589233</ele>
        <time>2018-05-26T14:55:45Z</time>
      </trkpt>
      <trkpt lat="47.81609" lon="6.79068">
        <ele>1131.564331</ele>
        <time>2018-05-26T14:55:46Z</time>
      </trkpt>
      <trkpt lat="47.81611" lon="6.7907">
        <ele>1131.545532</ele>
        <time>2018-05-26T14:55:47Z</time>
      </trkpt>
      <trkpt lat="47.81612" lon="6.79072">
        <ele>1131.537598</ele>
        <time>2018-05-26T14:55:48Z</time>
      </trkpt>
      <trkpt lat="47.81613" lon="6.79074">
        <ele>1131.539551</ele>
        <time>2018-05-26T14:55:49Z</time>
      </trkpt>
      <trkpt lat="47.81614" lon="6.79076">
        <ele>1131.571167</ele>
        <time>2018-05-26T14:55:50Z</time>
      </trkpt>
      <trkpt lat="47.81615" lon="6.79079">
        <ele>1131.606567</ele>
        <time>2018-05-26T14:55:51Z</time>
      </trkpt>
      <trkpt lat="47.81615" lon="6.79081">
        <ele>1131.649292</ele>
        <time>2018-05-26T14:55:52Z</time>
      </trkpt>
      <trkpt lat="47.81616" lon="6.79083">
        <ele>1131.726196</ele>
        <time>2018-05-26T14:55:53Z</time>
      </trkpt>
      <trkpt lat="47.81617" lon="6.79084">
        <ele>1131.789063</ele>
        <time>2018-05-26T14:55:54Z</time>
      </trkpt>
      <trkpt lat="47.81619" lon="6.79086">
        <ele>1131.908569</ele>
        <time>2018-05-26T14:55:55Z</time>
      </trkpt>
      <trkpt lat="47.8162" lon="6.79087">
        <ele>1132.00415</ele>
        <time>2018-05-26T14:55:56Z</time>
      </trkpt>
      <trkpt lat="47.81621" lon="6.79089">
        <ele>1132.157471</ele>
        <time>2018-05-26T14:55:57Z</time>
      </trkpt>
      <trkpt lat="47.81622" lon="6.79091">
        <ele>1132.261353</ele>
        <time>2018-05-26T14:55:58Z</time>
      </trkpt>
      <trkpt lat="47.81623" lon="6.79092">
        <ele>1132.363892</ele>
        <time>2018-05-26T14:55:59Z</time>
      </trkpt>
      <trkpt lat="47.81624" lon="6.79094">
        <ele>1132.516357</ele>
        <time>2018-05-26T14:56:00Z</time>
      </trkpt>
      <trkpt lat="47.81624" lon="6.79095">
        <ele>1132.653198</ele>
        <time>2018-05-26T14:56:01Z</time>
      </trkpt>
      <trkpt lat="47.81626" lon="6.79097">
        <ele>1132.653198</ele>
        <time>2018-05-26T14:56:03Z</time>
      </trkpt>
      <trkpt lat="47.81626" lon="6.79098">
        <ele>1132.765015</ele>
        <time>2018-05-26T14:56:04Z</time>
      </trkpt>
      <trkpt lat="47.81627" lon="6.79099">
        <ele>1132.831055</ele>
        <time>2018-05-26T14:56:05Z</time>
      </trkpt>
      <trkpt lat="47.81629" lon="6.79101">
        <ele>1132.894653</ele>
        <time>2018-05-26T14:56:06Z</time>
      </trkpt>
      <trkpt lat="47.8163" lon="6.79104">
        <ele>1132.989014</ele>
        <time>2018-05-26T14:56:07Z</time>
      </trkpt>
      <trkpt lat="47.81631" lon="6.79105">
        <ele>1133.042114</ele>
        <time>2018-05-26T14:56:08Z</time>
      </trkpt>
      <trkpt lat="47.81632" lon="6.79107">
        <ele>1133.1073</ele>
        <time>2018-05-26T14:56:09Z</time>
      </trkpt>
      <trkpt lat="47.81633" lon="6.7911">
        <ele>1133.148193</ele>
        <time>2018-05-26T14:56:10Z</time>
      </trkpt>
      <trkpt lat="47.81635" lon="6.79113">
        <ele>1133.21936</ele>
        <time>2018-05-26T14:56:11Z</time>
      </trkpt>
      <trkpt lat="47.81636" lon="6.79115">
        <ele>1133.266235</ele>
        <time>2018-05-26T14:56:12Z</time>
      </trkpt>
      <trkpt lat="47.81637" lon="6.79118">
        <ele>1133.30896</ele>
        <time>2018-05-26T14:56:13Z</time>
      </trkpt>
      <trkpt lat="47.81638" lon="6.7912">
        <ele>1133.361938</ele>
        <time>2018-05-26T14:56:14Z</time>
      </trkpt>
      <trkpt lat="47.81639" lon="6.79123">
        <ele>1133.406494</ele>
        <time>2018-05-26T14:56:15Z</time>
      </trkpt>
      <trkpt lat="47.81641" lon="6.79125">
        <ele>1133.49585</ele>
        <time>2018-05-26T14:56:16Z</time>
      </trkpt>
      <trkpt lat="47.81642" lon="6.79128">
        <ele>1133.566528</ele>
        <time>2018-05-26T14:56:17Z</time>
      </trkpt>
      <trkpt lat="47.81643" lon="6.79131">
        <ele>1133.687378</ele>
        <time>2018-05-26T14:56:18Z</time>
      </trkpt>
      <trkpt lat="47.81643" lon="6.79134">
        <ele>1133.779419</ele>
        <time>2018-05-26T14:56:19Z</time>
      </trkpt>
      <trkpt lat="47.81644" lon="6.79136">
        <ele>1133.947144</ele>
        <time>2018-05-26T14:56:20Z</time>
      </trkpt>
      <trkpt lat="47.81646" lon="6.79137">
        <ele>1134.071655</ele>
        <time>2018-05-26T14:56:21Z</time>
      </trkpt>
      <trkpt lat="47.81647" lon="6.79139">
        <ele>1134.197388</ele>
        <time>2018-05-26T14:56:22Z</time>
      </trkpt>
      <trkpt lat="47.81648" lon="6.79141">
        <ele>1134.377563</ele>
        <time>2018-05-26T14:56:23Z</time>
      </trkpt>
      <trkpt lat="47.81649" lon="6.79142">
        <ele>1134.497192</ele>
        <time>2018-05-26T14:56:24Z</time>
      </trkpt>
      <trkpt lat="47.8165" lon="6.79144">
        <ele>1134.673828</ele>
        <time>2018-05-26T14:56:25Z</time>
      </trkpt>
      <trkpt lat="47.81651" lon="6.79146">
        <ele>1134.791992</ele>
        <time>2018-05-26T14:56:26Z</time>
      </trkpt>
      <trkpt lat="47.81652" lon="6.79148">
        <ele>1134.972656</ele>
        <time>2018-05-26T14:56:27Z</time>
      </trkpt>
      <trkpt lat="47.81652" lon="6.79151">
        <ele>1135.103882</ele>
        <time>2018-05-26T14:56:28Z</time>
      </trkpt>
      <trkpt lat="47.81653" lon="6.79153">
        <ele>1135.245361</ele>
        <time>2018-05-26T14:56:29Z</time>
      </trkpt>
      <trkpt lat="47.81654" lon="6.79156">
        <ele>1135.476685</ele>
        <time>2018-05-26T14:56:30Z</time>
      </trkpt>
      <trkpt lat="47.81655" lon="6.79158">
        <ele>1135.641357</ele>
        <time>2018-05-26T14:56:31Z</time>
      </trkpt>
      <trkpt lat="47.81655" lon="6.79161">
        <ele>1135.88562</ele>
        <time>2018-05-26T14:56:32Z</time>
      </trkpt>
      <trkpt lat="47.81656" lon="6.79163">
        <ele>1136.034058</ele>
        <time>2018-05-26T14:56:33Z</time>
      </trkpt>
      <trkpt lat="47.81657" lon="6.79165">
        <ele>1136.234009</ele>
        <time>2018-05-26T14:56:34Z</time>
      </trkpt>
      <trkpt lat="47.81658" lon="6.79167">
        <ele>1136.353638</ele>
        <time>2018-05-26T14:56:35Z</time>
      </trkpt>
      <trkpt lat="47.8166" lon="6.79169">
        <ele>1136.518921</ele>
        <time>2018-05-26T14:56:36Z</time>
      </trkpt>
      <trkpt lat="47.81662" lon="6.79171">
        <ele>1136.624634</ele>
        <time>2018-05-26T14:56:37Z</time>
      </trkpt>
      <trkpt lat="47.81663" lon="6.79172">
        <ele>1136.724243</ele>
        <time>2018-05-26T14:56:38Z</time>
      </trkpt>
      <trkpt lat="47.81664" lon="6.79174">
        <ele>1136.862427</ele>
        <time>2018-05-26T14:56:39Z</time>
      </trkpt>
      <trkpt lat="47.81665" lon="6.79175">
        <ele>1136.949829</ele>
        <time>2018-05-26T14:56:40Z</time>
      </trkpt>
      <trkpt lat="47.81666" lon="6.79177">
        <ele>1137.068726</ele>
        <time>2018-05-26T14:56:41Z</time>
      </trkpt>
      <trkpt lat="47.81667" lon="6.79178">
        <ele>1137.137573</ele>
        <time>2018-05-26T14:56:42Z</time>
      </trkpt>
      <trkpt lat="47.81668" lon="6.7918">
        <ele>1137.20105</ele>
        <time>2018-05-26T14:56:43Z</time>
      </trkpt>
      <trkpt lat="47.81669" lon="6.79181">
        <ele>1137.300293</ele>
        <time>2018-05-26T14:56:44Z</time>
      </trkpt>
      <trkpt lat="47.8167" lon="6.79182">
        <ele>1137.375122</ele>
        <time>2018-05-26T14:56:45Z</time>
      </trkpt>
      <trkpt lat="47.81671" lon="6.79184">
        <ele>1137.495483</ele>
        <time>2018-05-26T14:56:46Z</time>
      </trkpt>
      <trkpt lat="47.81672" lon="6.79187">
        <ele>1137.576782</ele>
        <time>2018-05-26T14:56:47Z</time>
      </trkpt>
      <trkpt lat="47.81673" lon="6.79189">
        <ele>1137.697632</ele>
        <time>2018-05-26T14:56:48Z</time>
      </trkpt>
      <trkpt lat="47.81675" lon="6.7919">
        <ele>1137.773193</ele>
        <time>2018-05-26T14:56:49Z</time>
      </trkpt>
      <trkpt lat="47.81676" lon="6.7919">
        <ele>1137.839233</ele>
        <time>2018-05-26T14:56:50Z</time>
      </trkpt>
      <trkpt lat="47.81677" lon="6.7919">
        <ele>1137.92041</ele>
        <time>2018-05-26T14:56:51Z</time>
      </trkpt>
      <trkpt lat="47.81678" lon="6.79191">
        <ele>1137.962158</ele>
        <time>2018-05-26T14:56:52Z</time>
      </trkpt>
      <trkpt lat="47.8168" lon="6.79191">
        <ele>1138.005371</ele>
        <time>2018-05-26T14:56:53Z</time>
      </trkpt>
      <trkpt lat="47.81681" lon="6.79193">
        <ele>1138.022339</ele>
        <time>2018-05-26T14:56:54Z</time>
      </trkpt>
      <trkpt lat="47.81682" lon="6.79195">
        <ele>1138.032104</ele>
        <time>2018-05-26T14:56:55Z</time>
      </trkpt>
      <trkpt lat="47.81684" lon="6.79196">
        <ele>1138.034424</ele>
        <time>2018-05-26T14:56:56Z</time>
      </trkpt>
      <trkpt lat="47.81686" lon="6.79198">
        <ele>1138.029785</ele>
        <time>2018-05-26T14:56:57Z</time>
      </trkpt>
      <trkpt lat="47.81688" lon="6.792">
        <ele>1137.997314</ele>
        <time>2018-05-26T14:56:58Z</time>
      </trkpt>
      <trkpt lat="47.8169" lon="6.79203">
        <ele>1137.958862</ele>
        <time>2018-05-26T14:56:59Z</time>
      </trkpt>
      <trkpt lat="47.81691" lon="6.79204">
        <ele>1137.895386</ele>
        <time>2018-05-26T14:57:00Z</time>
      </trkpt>
      <trkpt lat="47.81692" lon="6.79205">
        <ele>1137.85498</ele>
        <time>2018-05-26T14:57:01Z</time>
      </trkpt>
      <trkpt lat="47.81693" lon="6.79206">
        <ele>1137.816895</ele>
        <time>2018-05-26T14:57:02Z</time>
      </trkpt>
      <trkpt lat="47.81694" lon="6.79207">
        <ele>1137.779663</ele>
        <time>2018-05-26T14:57:03Z</time>
      </trkpt>
      <trkpt lat="47.81697" lon="6.79208">
        <ele>1137.738647</ele>
        <time>2018-05-26T14:57:04Z</time>
      </trkpt>
      <trkpt lat="47.81699" lon="6.79209">
        <ele>1137.672974</ele>
        <time>2018-05-26T14:57:05Z</time>
      </trkpt>
      <trkpt lat="47.81701" lon="6.7921">
        <ele>1137.631592</ele>
        <time>2018-05-26T14:57:06Z</time>
      </trkpt>
      <trkpt lat="47.81702" lon="6.79211">
        <ele>1137.561646</ele>
        <time>2018-05-26T14:57:07Z</time>
      </trkpt>
      <trkpt lat="47.81704" lon="6.79212">
        <ele>1137.496216</ele>
        <time>2018-05-26T14:57:08Z</time>
      </trkpt>
      <trkpt lat="47.81705" lon="6.79213">
        <ele>1137.379761</ele>
        <time>2018-05-26T14:57:09Z</time>
      </trkpt>
      <trkpt lat="47.81706" lon="6.79215">
        <ele>1137.307861</ele>
        <time>2018-05-26T14:57:10Z</time>
      </trkpt>
      <trkpt lat="47.81707" lon="6.79216">
        <ele>1137.220581</ele>
        <time>2018-05-26T14:57:11Z</time>
      </trkpt>
      <trkpt lat="47.81709" lon="6.79216">
        <ele>1137.164673</ele>
        <time>2018-05-26T14:57:12Z</time>
      </trkpt>
      <trkpt lat="47.8171" lon="6.79217">
        <ele>1137.071411</ele>
        <time>2018-05-26T14:57:13Z</time>
      </trkpt>
      <trkpt lat="47.81712" lon="6.79218">
        <ele>1137.014038</ele>
        <time>2018-05-26T14:57:14Z</time>
      </trkpt>
      <trkpt lat="47.81714" lon="6.79219">
        <ele>1136.967896</ele>
        <time>2018-05-26T14:57:15Z</time>
      </trkpt>
      <trkpt lat="47.81715" lon="6.79221">
        <ele>1136.919312</ele>
        <time>2018-05-26T14:57:16Z</time>
      </trkpt>
      <trkpt lat="47.81716" lon="6.79222">
        <ele>1136.88855</ele>
        <time>2018-05-26T14:57:17Z</time>
      </trkpt>
      <trkpt lat="47.81717" lon="6.79224">
        <ele>1136.844727</ele>
        <time>2018-05-26T14:57:18Z</time>
      </trkpt>
      <trkpt lat="47.81719" lon="6.79225">
        <ele>1136.83728</ele>
        <time>2018-05-26T14:57:19Z</time>
      </trkpt>
      <trkpt lat="47.8172" lon="6.79227">
        <ele>1136.842041</ele>
        <time>2018-05-26T14:57:20Z</time>
      </trkpt>
      <trkpt lat="47.81722" lon="6.79228">
        <ele>1136.872681</ele>
        <time>2018-05-26T14:57:21Z</time>
      </trkpt>
      <trkpt lat="47.81724" lon="6.79229">
        <ele>1136.920166</ele>
        <time>2018-05-26T14:57:22Z</time>
      </trkpt>
      <trkpt lat="47.81726" lon="6.7923">
        <ele>1137.002441</ele>
        <time>2018-05-26T14:57:23Z</time>
      </trkpt>
      <trkpt lat="47.81727" lon="6.79232">
        <ele>1137.053711</ele>
        <time>2018-05-26T14:57:24Z</time>
      </trkpt>
      <trkpt lat="47.81729" lon="6.79233">
        <ele>1137.095215</ele>
        <time>2018-05-26T14:57:25Z</time>
      </trkpt>
      <trkpt lat="47.8173" lon="6.79233">
        <ele>1137.095215</ele>
        <time>2018-05-26T14:57:26Z</time>
      </trkpt>
      <trkpt lat="47.81733" lon="6.79234">
        <ele>1137.062134</ele>
        <time>2018-05-26T14:57:27Z</time>
      </trkpt>
      <trkpt lat="47.81735" lon="6.79236">
        <ele>1136.991821</ele>
        <time>2018-05-26T14:57:28Z</time>
      </trkpt>
      <trkpt lat="47.81737" lon="6.79237">
        <ele>1136.833862</ele>
        <time>2018-05-26T14:57:29Z</time>
      </trkpt>
      <trkpt lat="47.8174" lon="6.79238">
        <ele>1136.773438</ele>
        <time>2018-05-26T14:57:30Z</time>
      </trkpt>
      <trkpt lat="47.81743" lon="6.79239">
        <ele>1136.585815</ele>
        <time>2018-05-26T14:57:31Z</time>
      </trkpt>
      <trkpt lat="47.81746" lon="6.79241">
        <ele>1136.463623</ele>
        <time>2018-05-26T14:57:32Z</time>
      </trkpt>
      <trkpt lat="47.81749" lon="6.79242">
        <ele>1136.282349</ele>
        <time>2018-05-26T14:57:33Z</time>
      </trkpt>
      <trkpt lat="47.81752" lon="6.79243">
        <ele>1136.163208</ele>
        <time>2018-05-26T14:57:34Z</time>
      </trkpt>
      <trkpt lat="47.81755" lon="6.79244">
        <ele>1136.052979</ele>
        <time>2018-05-26T14:57:35Z</time>
      </trkpt>
      <trkpt lat="47.81758" lon="6.79245">
        <ele>1135.900269</ele>
        <time>2018-05-26T14:57:36Z</time>
      </trkpt>
      <trkpt lat="47.81761" lon="6.79246">
        <ele>1135.799561</ele>
        <time>2018-05-26T14:57:37Z</time>
      </trkpt>
      <trkpt lat="47.81764" lon="6.79247">
        <ele>1135.640991</ele>
        <time>2018-05-26T14:57:38Z</time>
      </trkpt>
      <trkpt lat="47.81767" lon="6.79248">
        <ele>1135.527588</ele>
        <time>2018-05-26T14:57:39Z</time>
      </trkpt>
      <trkpt lat="47.8177" lon="6.7925">
        <ele>1135.403931</ele>
        <time>2018-05-26T14:57:40Z</time>
      </trkpt>
      <trkpt lat="47.81772" lon="6.7925">
        <ele>1135.196411</ele>
        <time>2018-05-26T14:57:41Z</time>
      </trkpt>
      <trkpt lat="47.81776" lon="6.79251">
        <ele>1135.04541</ele>
        <time>2018-05-26T14:57:42Z</time>
      </trkpt>
      <trkpt lat="47.81779" lon="6.79252">
        <ele>1134.810669</ele>
        <time>2018-05-26T14:57:43Z</time>
      </trkpt>
      <trkpt lat="47.81782" lon="6.79252">
        <ele>1134.646118</ele>
        <time>2018-05-26T14:57:44Z</time>
      </trkpt>
      <trkpt lat="47.81784" lon="6.79253">
        <ele>1134.373901</ele>
        <time>2018-05-26T14:57:45Z</time>
      </trkpt>
      <trkpt lat="47.81787" lon="6.79252">
        <ele>1134.180908</ele>
        <time>2018-05-26T14:57:46Z</time>
      </trkpt>
      <trkpt lat="47.8179" lon="6.79252">
        <ele>1133.985107</ele>
        <time>2018-05-26T14:57:47Z</time>
      </trkpt>
      <trkpt lat="47.81793" lon="6.79252">
        <ele>1133.700317</ele>
        <time>2018-05-26T14:57:48Z</time>
      </trkpt>
      <trkpt lat="47.81795" lon="6.79252">
        <ele>1133.532349</ele>
        <time>2018-05-26T14:57:49Z</time>
      </trkpt>
      <trkpt lat="47.81797" lon="6.79252">
        <ele>1133.343262</ele>
        <time>2018-05-26T14:57:50Z</time>
      </trkpt>
      <trkpt lat="47.81799" lon="6.79253">
        <ele>1133.263184</ele>
        <time>2018-05-26T14:57:51Z</time>
      </trkpt>
      <trkpt lat="47.81801" lon="6.79253">
        <ele>1133.189941</ele>
        <time>2018-05-26T14:57:52Z</time>
      </trkpt>
      <trkpt lat="47.81803" lon="6.79254">
        <ele>1133.160034</ele>
        <time>2018-05-26T14:57:53Z</time>
      </trkpt>
      <trkpt lat="47.81805" lon="6.79255">
        <ele>1133.133911</ele>
        <time>2018-05-26T14:57:54Z</time>
      </trkpt>
      <trkpt lat="47.81809" lon="6.79256">
        <ele>1133.0896</ele>
        <time>2018-05-26T14:57:55Z</time>
      </trkpt>
      <trkpt lat="47.81812" lon="6.79257">
        <ele>1133.0448</ele>
        <time>2018-05-26T14:57:56Z</time>
      </trkpt>
      <trkpt lat="47.81815" lon="6.7926">
        <ele>1132.954102</ele>
        <time>2018-05-26T14:57:57Z</time>
      </trkpt>
      <trkpt lat="47.81817" lon="6.79263">
        <ele>1132.876587</ele>
        <time>2018-05-26T14:57:58Z</time>
      </trkpt>
      <trkpt lat="47.81819" lon="6.79266">
        <ele>1132.740845</ele>
        <time>2018-05-26T14:57:59Z</time>
      </trkpt>
      <trkpt lat="47.81822" lon="6.79268">
        <ele>1132.62561</ele>
        <time>2018-05-26T14:58:00Z</time>
      </trkpt>
      <trkpt lat="47.81826" lon="6.7927">
        <ele>1132.484741</ele>
        <time>2018-05-26T14:58:01Z</time>
      </trkpt>
      <trkpt lat="47.8183" lon="6.79272">
        <ele>1132.220825</ele>
        <time>2018-05-26T14:58:02Z</time>
      </trkpt>
      <trkpt lat="47.81834" lon="6.79275">
        <ele>1132.02002</ele>
        <time>2018-05-26T14:58:03Z</time>
      </trkpt>
      <trkpt lat="47.81838" lon="6.79277">
        <ele>1131.800415</ele>
        <time>2018-05-26T14:58:04Z</time>
      </trkpt>
      <trkpt lat="47.81841" lon="6.79278">
        <ele>1131.568237</ele>
        <time>2018-05-26T14:58:05Z</time>
      </trkpt>
      <trkpt lat="47.81845" lon="6.79279">
        <ele>1131.197144</ele>
        <time>2018-05-26T14:58:06Z</time>
      </trkpt>
      <trkpt lat="47.81849" lon="6.7928">
        <ele>1130.946289</ele>
        <time>2018-05-26T14:58:07Z</time>
      </trkpt>
      <trkpt lat="47.81853" lon="6.79281">
        <ele>1130.576294</ele>
        <time>2018-05-26T14:58:08Z</time>
      </trkpt>
      <trkpt lat="47.81857" lon="6.79284">
        <ele>1130.336182</ele>
        <time>2018-05-26T14:58:09Z</time>
      </trkpt>
      <trkpt lat="47.8186" lon="6.79287">
        <ele>1129.986938</ele>
        <time>2018-05-26T14:58:10Z</time>
      </trkpt>
      <trkpt lat="47.81863" lon="6.7929">
        <ele>1129.766968</ele>
        <time>2018-05-26T14:58:11Z</time>
      </trkpt>
      <trkpt lat="47.81867" lon="6.79293">
        <ele>1129.471069</ele>
        <time>2018-05-26T14:58:12Z</time>
      </trkpt>
      <trkpt lat="47.8187" lon="6.79295">
        <ele>1129.297363</ele>
        <time>2018-05-26T14:58:13Z</time>
      </trkpt>
      <trkpt lat="47.81873" lon="6.79295">
        <ele>1129.143066</ele>
        <time>2018-05-26T14:58:14Z</time>
      </trkpt>
      <trkpt lat="47.81877" lon="6.79296">
        <ele>1128.947388</ele>
        <time>2018-05-26T14:58:15Z</time>
      </trkpt>
      <trkpt lat="47.8188" lon="6.79296">
        <ele>1128.834839</ele>
        <time>2018-05-26T14:58:16Z</time>
      </trkpt>
      <trkpt lat="47.81883" lon="6.79297">
        <ele>1128.697266</ele>
        <time>2018-05-26T14:58:17Z</time>
      </trkpt>
      <trkpt lat="47.81886" lon="6.79298">
        <ele>1128.621582</ele>
        <time>2018-05-26T14:58:18Z</time>
      </trkpt>
      <trkpt lat="47.8189" lon="6.793">
        <ele>1128.555054</ele>
        <time>2018-05-26T14:58:19Z</time>
      </trkpt>
      <trkpt lat="47.81892" lon="6.79301">
        <ele>1128.473999</ele>
        <time>2018-05-26T14:58:20Z</time>
      </trkpt>
      <trkpt lat="47.81894" lon="6.79302">
        <ele>1128.437378</ele>
        <time>2018-05-26T14:58:21Z</time>
      </trkpt>
      <trkpt lat="47.81897" lon="6.79302">
        <ele>1128.411621</ele>
        <time>2018-05-26T14:58:22Z</time>
      </trkpt>
      <trkpt lat="47.81899" lon="6.79302">
        <ele>1128.411377</ele>
        <time>2018-05-26T14:58:23Z</time>
      </trkpt>
      <trkpt lat="47.81901" lon="6.79303">
        <ele>1128.421387</ele>
        <time>2018-05-26T14:58:24Z</time>
      </trkpt>
      <trkpt lat="47.81902" lon="6.79303">
        <ele>1128.435181</ele>
        <time>2018-05-26T14:58:25Z</time>
      </trkpt>
      <trkpt lat="47.81904" lon="6.79303">
        <ele>1128.458374</ele>
        <time>2018-05-26T14:58:26Z</time>
      </trkpt>
      <trkpt lat="47.81906" lon="6.79304">
        <ele>1128.482056</ele>
        <time>2018-05-26T14:58:27Z</time>
      </trkpt>
      <trkpt lat="47.81908" lon="6.79304">
        <ele>1128.526489</ele>
        <time>2018-05-26T14:58:28Z</time>
      </trkpt>
      <trkpt lat="47.8191" lon="6.79304">
        <ele>1128.646851</ele>
        <time>2018-05-26T14:58:29Z</time>
      </trkpt>
      <trkpt lat="47.81912" lon="6.79304">
        <ele>1128.755127</ele>
        <time>2018-05-26T14:58:30Z</time>
      </trkpt>
      <trkpt lat="47.81914" lon="6.79304">
        <ele>1128.942993</ele>
        <time>2018-05-26T14:58:31Z</time>
      </trkpt>
      <trkpt lat="47.81916" lon="6.79305">
        <ele>1129.086304</ele>
        <time>2018-05-26T14:58:32Z</time>
      </trkpt>
      <trkpt lat="47.81918" lon="6.79305">
        <ele>1129.243286</ele>
        <time>2018-05-26T14:58:33Z</time>
      </trkpt>
      <trkpt lat="47.8192" lon="6.79305">
        <ele>1129.475464</ele>
        <time>2018-05-26T14:58:34Z</time>
      </trkpt>
      <trkpt lat="47.81921" lon="6.79306">
        <ele>1129.612793</ele>
        <time>2018-05-26T14:58:35Z</time>
      </trkpt>
      <trkpt lat="47.81922" lon="6.79307">
        <ele>1129.79126</ele>
        <time>2018-05-26T14:58:36Z</time>
      </trkpt>
      <trkpt lat="47.81923" lon="6.79308">
        <ele>1129.898315</ele>
        <time>2018-05-26T14:58:37Z</time>
      </trkpt>
      <trkpt lat="47.81923" lon="6.79309">
        <ele>1130.156372</ele>
        <time>2018-05-26T14:58:38Z</time>
      </trkpt>
      <trkpt lat="47.81922" lon="6.79311">
        <ele>1130.262817</ele>
        <time>2018-05-26T14:58:40Z</time>
      </trkpt>
      <trkpt lat="47.81922" lon="6.79313">
        <ele>1130.43103</ele>
        <time>2018-05-26T14:58:41Z</time>
      </trkpt>
      <trkpt lat="47.81921" lon="6.79314">
        <ele>1130.550293</ele>
        <time>2018-05-26T14:58:42Z</time>
      </trkpt>
      <trkpt lat="47.8192" lon="6.79316">
        <ele>1130.724731</ele>
        <time>2018-05-26T14:58:43Z</time>
      </trkpt>
      <trkpt lat="47.81919" lon="6.79317">
        <ele>1130.826538</ele>
        <time>2018-05-26T14:58:44Z</time>
      </trkpt>
      <trkpt lat="47.81917" lon="6.79319">
        <ele>1130.906982</ele>
        <time>2018-05-26T14:58:45Z</time>
      </trkpt>
      <trkpt lat="47.81916" lon="6.79321">
        <ele>1130.988647</ele>
        <time>2018-05-26T14:58:46Z</time>
      </trkpt>
      <trkpt lat="47.81916" lon="6.79323">
        <ele>1131.023071</ele>
        <time>2018-05-26T14:58:47Z</time>
      </trkpt>
      <trkpt lat="47.81917" lon="6.79325">
        <ele>1131.055054</ele>
        <time>2018-05-26T14:58:48Z</time>
      </trkpt>
      <trkpt lat="47.81925" lon="6.79319">
        <ele>1131.052368</ele>
        <time>2018-05-26T14:59:09Z</time>
      </trkpt>
      <trkpt lat="47.81933" lon="6.79311">
        <ele>1131.179321</ele>
        <time>2018-05-26T14:59:32Z</time>
      </trkpt>
      <trkpt lat="47.81933" lon="6.79309">
        <ele>1131.156372</ele>
        <time>2018-05-26T14:59:34Z</time>
      </trkpt>
      <trkpt lat="47.81942" lon="6.7931">
        <ele>1131.327637</ele>
        <time>2018-05-26T14:59:50Z</time>
      </trkpt>
      <trkpt lat="47.81945" lon="6.79311">
        <ele>1131.316284</ele>
        <time>2018-05-26T14:59:52Z</time>
      </trkpt>
      <trkpt lat="47.81947" lon="6.79312">
        <ele>1131.277222</ele>
        <time>2018-05-26T14:59:53Z</time>
      </trkpt>
      <trkpt lat="47.8195" lon="6.79313">
        <ele>1131.18335</ele>
        <time>2018-05-26T14:59:54Z</time>
      </trkpt>
      <trkpt lat="47.81952" lon="6.79314">
        <ele>1131.126465</ele>
        <time>2018-05-26T14:59:55Z</time>
      </trkpt>
      <trkpt lat="47.81955" lon="6.79315">
        <ele>1131.074829</ele>
        <time>2018-05-26T14:59:56Z</time>
      </trkpt>
      <trkpt lat="47.81957" lon="6.79315">
        <ele>1131.054565</ele>
        <time>2018-05-26T14:59:57Z</time>
      </trkpt>
      <trkpt lat="47.8196" lon="6.79316">
        <ele>1131.030884</ele>
        <time>2018-05-26T14:59:58Z</time>
      </trkpt>
      <trkpt lat="47.81962" lon="6.79317">
        <ele>1131.025269</ele>
        <time>2018-05-26T14:59:59Z</time>
      </trkpt>
      <trkpt lat="47.81965" lon="6.79318">
        <ele>1131.024536</ele>
        <time>2018-05-26T15:00:00Z</time>
      </trkpt>
      <trkpt lat="47.81968" lon="6.79319">
        <ele>1131.022583</ele>
        <time>2018-05-26T15:00:01Z</time>
      </trkpt>
      <trkpt lat="47.81971" lon="6.7932">
        <ele>1131.018188</ele>
        <time>2018-05-26T15:00:02Z</time>
      </trkpt>
      <trkpt lat="47.81975" lon="6.79322">
        <ele>1130.998779</ele>
        <time>2018-05-26T15:00:03Z</time>
      </trkpt>
      <trkpt lat="47.81978" lon="6.79323">
        <ele>1130.992065</ele>
        <time>2018-05-26T15:00:04Z</time>
      </trkpt>
      <trkpt lat="47.81981" lon="6.79324">
        <ele>1130.990112</ele>
        <time>2018-05-26T15:00:05Z</time>
      </trkpt>
      <trkpt lat="47.81984" lon="6.79325">
        <ele>1131.003296</ele>
        <time>2018-05-26T15:00:06Z</time>
      </trkpt>
      <trkpt lat="47.81987" lon="6.79326">
        <ele>1131.055054</ele>
        <time>2018-05-26T15:00:07Z</time>
      </trkpt>
      <trkpt lat="47.81989" lon="6.79326">
        <ele>1131.09021</ele>
        <time>2018-05-26T15:00:08Z</time>
      </trkpt>
      <trkpt lat="47.81991" lon="6.79327">
        <ele>1131.136719</ele>
        <time>2018-05-26T15:00:09Z</time>
      </trkpt>
      <trkpt lat="47.81994" lon="6.79328">
        <ele>1131.166382</ele>
        <time>2018-05-26T15:00:10Z</time>
      </trkpt>
      <trkpt lat="47.81997" lon="6.79329">
        <ele>1131.190552</ele>
        <time>2018-05-26T15:00:11Z</time>
      </trkpt>
      <trkpt lat="47.81998" lon="6.7933">
        <ele>1131.203003</ele>
        <time>2018-05-26T15:00:12Z</time>
      </trkpt>
      <trkpt lat="47.82001" lon="6.7933">
        <ele>1131.203125</ele>
        <time>2018-05-26T15:00:13Z</time>
      </trkpt>
      <trkpt lat="47.82003" lon="6.79331">
        <ele>1131.206177</ele>
        <time>2018-05-26T15:00:14Z</time>
      </trkpt>
      <trkpt lat="47.82005" lon="6.79331">
        <ele>1131.20813</ele>
        <time>2018-05-26T15:00:15Z</time>
      </trkpt>
      <trkpt lat="47.82007" lon="6.79331">
        <ele>1131.230591</ele>
        <time>2018-05-26T15:00:16Z</time>
      </trkpt>
      <trkpt lat="47.82008" lon="6.79331">
        <ele>1131.251343</ele>
        <time>2018-05-26T15:00:17Z</time>
      </trkpt>
      <trkpt lat="47.8201" lon="6.7933">
        <ele>1131.279663</ele>
        <time>2018-05-26T15:00:18Z</time>
      </trkpt>
      <trkpt lat="47.82011" lon="6.7933">
        <ele>1131.292969</ele>
        <time>2018-05-26T15:00:19Z</time>
      </trkpt>
      <trkpt lat="47.82013" lon="6.79331">
        <ele>1131.298828</ele>
        <time>2018-05-26T15:00:20Z</time>
      </trkpt>
      <trkpt lat="47.82015" lon="6.79332">
        <ele>1131.294312</ele>
        <time>2018-05-26T15:00:21Z</time>
      </trkpt>
      <trkpt lat="47.82018" lon="6.79335">
        <ele>1131.267456</ele>
        <time>2018-05-26T15:00:22Z</time>
      </trkpt>
      <trkpt lat="47.8202" lon="6.79338">
        <ele>1131.172974</ele>
        <time>2018-05-26T15:00:23Z</time>
      </trkpt>
      <trkpt lat="47.82023" lon="6.7934">
        <ele>1131.086914</ele>
        <time>2018-05-26T15:00:24Z</time>
      </trkpt>
      <trkpt lat="47.82024" lon="6.79343">
        <ele>1130.940308</ele>
        <time>2018-05-26T15:00:25Z</time>
      </trkpt>
      <trkpt lat="47.82027" lon="6.79346">
        <ele>1130.833862</ele>
        <time>2018-05-26T15:00:26Z</time>
      </trkpt>
      <trkpt lat="47.8203" lon="6.79348">
        <ele>1130.676636</ele>
        <time>2018-05-26T15:00:27Z</time>
      </trkpt>
      <trkpt lat="47.82033" lon="6.79351">
        <ele>1130.580688</ele>
        <time>2018-05-26T15:00:28Z</time>
      </trkpt>
      <trkpt lat="47.82035" lon="6.79353">
        <ele>1130.450806</ele>
        <time>2018-05-26T15:00:29Z</time>
      </trkpt>
      <trkpt lat="47.82038" lon="6.79356">
        <ele>1130.367798</ele>
        <time>2018-05-26T15:00:30Z</time>
      </trkpt>
      <trkpt lat="47.82041" lon="6.79359">
        <ele>1130.291138</ele>
        <time>2018-05-26T15:00:31Z</time>
      </trkpt>
      <trkpt lat="47.82044" lon="6.79361">
        <ele>1130.200439</ele>
        <time>2018-05-26T15:00:32Z</time>
      </trkpt>
      <trkpt lat="47.82047" lon="6.79363">
        <ele>1130.158325</ele>
        <time>2018-05-26T15:00:33Z</time>
      </trkpt>
      <trkpt lat="47.8205" lon="6.79364">
        <ele>1130.122192</ele>
        <time>2018-05-26T15:00:34Z</time>
      </trkpt>
      <trkpt lat="47.82053" lon="6.79365">
        <ele>1130.112183</ele>
        <time>2018-05-26T15:00:35Z</time>
      </trkpt>
      <trkpt lat="47.82056" lon="6.79366">
        <ele>1130.114502</ele>
        <time>2018-05-26T15:00:36Z</time>
      </trkpt>
      <trkpt lat="47.8206" lon="6.79367">
        <ele>1130.12793</ele>
        <time>2018-05-26T15:00:37Z</time>
      </trkpt>
      <trkpt lat="47.82063" lon="6.79367">
        <ele>1130.147095</ele>
        <time>2018-05-26T15:00:38Z</time>
      </trkpt>
      <trkpt lat="47.82066" lon="6.79367">
        <ele>1130.164917</ele>
        <time>2018-05-26T15:00:39Z</time>
      </trkpt>
      <trkpt lat="47.82068" lon="6.79368">
        <ele>1130.171509</ele>
        <time>2018-05-26T15:00:40Z</time>
      </trkpt>
      <trkpt lat="47.82071" lon="6.79368">
        <ele>1130.192017</ele>
        <time>2018-05-26T15:00:41Z</time>
      </trkpt>
      <trkpt lat="47.82075" lon="6.79369">
        <ele>1130.209839</ele>
        <time>2018-05-26T15:00:42Z</time>
      </trkpt>
      <trkpt lat="47.82078" lon="6.79368">
        <ele>1130.224121</ele>
        <time>2018-05-26T15:00:43Z</time>
      </trkpt>
      <trkpt lat="47.82081" lon="6.79366">
        <ele>1130.226929</ele>
        <time>2018-05-26T15:00:44Z</time>
      </trkpt>
      <trkpt lat="47.82084" lon="6.79365">
        <ele>1130.228638</ele>
        <time>2018-05-26T15:00:45Z</time>
      </trkpt>
      <trkpt lat="47.82088" lon="6.79363">
        <ele>1130.229126</ele>
        <time>2018-05-26T15:00:46Z</time>
      </trkpt>
      <trkpt lat="47.8209" lon="6.79362">
        <ele>1130.228271</ele>
        <time>2018-05-26T15:00:47Z</time>
      </trkpt>
      <trkpt lat="47.82093" lon="6.7936">
        <ele>1130.223022</ele>
        <time>2018-05-26T15:00:48Z</time>
      </trkpt>
      <trkpt lat="47.82097" lon="6.79358">
        <ele>1130.223022</ele>
        <time>2018-05-26T15:00:49Z</time>
      </trkpt>
      <trkpt lat="47.821" lon="6.79356">
        <ele>1130.237427</ele>
        <time>2018-05-26T15:00:50Z</time>
      </trkpt>
      <trkpt lat="47.82102" lon="6.79353">
        <ele>1130.269775</ele>
        <time>2018-05-26T15:00:51Z</time>
      </trkpt>
      <trkpt lat="47.82105" lon="6.79351">
        <ele>1130.317749</ele>
        <time>2018-05-26T15:00:52Z</time>
      </trkpt>
      <trkpt lat="47.82108" lon="6.79349">
        <ele>1130.418091</ele>
        <time>2018-05-26T15:00:53Z</time>
      </trkpt>
      <trkpt lat="47.8211" lon="6.79347">
        <ele>1130.497437</ele>
        <time>2018-05-26T15:00:54Z</time>
      </trkpt>
      <trkpt lat="47.82113" lon="6.79344">
        <ele>1130.61853</ele>
        <time>2018-05-26T15:00:55Z</time>
      </trkpt>
      <trkpt lat="47.82115" lon="6.79341">
        <ele>1130.698608</ele>
        <time>2018-05-26T15:00:56Z</time>
      </trkpt>
      <trkpt lat="47.82118" lon="6.79338">
        <ele>1130.787231</ele>
        <time>2018-05-26T15:00:57Z</time>
      </trkpt>
      <trkpt lat="47.82119" lon="6.79335">
        <ele>1130.947388</ele>
        <time>2018-05-26T15:00:58Z</time>
      </trkpt>
      <trkpt lat="47.82121" lon="6.79332">
        <ele>1131.071411</ele>
        <time>2018-05-26T15:00:59Z</time>
      </trkpt>
      <trkpt lat="47.82122" lon="6.79329">
        <ele>1131.283447</ele>
        <time>2018-05-26T15:01:00Z</time>
      </trkpt>
      <trkpt lat="47.82124" lon="6.79326">
        <ele>1131.443481</ele>
        <time>2018-05-26T15:01:01Z</time>
      </trkpt>
      <trkpt lat="47.82125" lon="6.79322">
        <ele>1131.710205</ele>
        <time>2018-05-26T15:01:02Z</time>
      </trkpt>
      <trkpt lat="47.82127" lon="6.7932">
        <ele>1131.898804</ele>
        <time>2018-05-26T15:01:03Z</time>
      </trkpt>
      <trkpt lat="47.82129" lon="6.79318">
        <ele>1132.088379</ele>
        <time>2018-05-26T15:01:04Z</time>
      </trkpt>
      <trkpt lat="47.8213" lon="6.79315">
        <ele>1132.275024</ele>
        <time>2018-05-26T15:01:05Z</time>
      </trkpt>
      <trkpt lat="47.82131" lon="6.79313">
        <ele>1132.461548</ele>
        <time>2018-05-26T15:01:06Z</time>
      </trkpt>
      <trkpt lat="47.82132" lon="6.79311">
        <ele>1132.650024</ele>
        <time>2018-05-26T15:01:07Z</time>
      </trkpt>
      <trkpt lat="47.82134" lon="6.79309">
        <ele>1132.936401</ele>
        <time>2018-05-26T15:01:08Z</time>
      </trkpt>
      <trkpt lat="47.82135" lon="6.79308">
        <ele>1133.128052</ele>
        <time>2018-05-26T15:01:09Z</time>
      </trkpt>
      <trkpt lat="47.82137" lon="6.79306">
        <ele>1133.425903</ele>
        <time>2018-05-26T15:01:10Z</time>
      </trkpt>
      <trkpt lat="47.82139" lon="6.79305">
        <ele>1133.626221</ele>
        <time>2018-05-26T15:01:11Z</time>
      </trkpt>
      <trkpt lat="47.82141" lon="6.79303">
        <ele>1133.922119</ele>
        <time>2018-05-26T15:01:12Z</time>
      </trkpt>
      <trkpt lat="47.82142" lon="6.79303">
        <ele>1134.353394</ele>
        <time>2018-05-26T15:01:13Z</time>
      </trkpt>
      <trkpt lat="47.82144" lon="6.79301">
        <ele>1134.503296</ele>
        <time>2018-05-26T15:01:15Z</time>
      </trkpt>
      <trkpt lat="47.82146" lon="6.793">
        <ele>1134.717285</ele>
        <time>2018-05-26T15:01:16Z</time>
      </trkpt>
      <trkpt lat="47.82148" lon="6.79299">
        <ele>1134.849243</ele>
        <time>2018-05-26T15:01:17Z</time>
      </trkpt>
      <trkpt lat="47.8215" lon="6.79297">
        <ele>1134.976563</ele>
        <time>2018-05-26T15:01:18Z</time>
      </trkpt>
      <trkpt lat="47.82152" lon="6.79296">
        <ele>1135.172485</ele>
        <time>2018-05-26T15:01:19Z</time>
      </trkpt>
      <trkpt lat="47.82154" lon="6.79295">
        <ele>1135.30896</ele>
        <time>2018-05-26T15:01:20Z</time>
      </trkpt>
      <trkpt lat="47.82156" lon="6.79294">
        <ele>1135.516602</ele>
        <time>2018-05-26T15:01:21Z</time>
      </trkpt>
      <trkpt lat="47.82158" lon="6.79293">
        <ele>1135.650024</ele>
        <time>2018-05-26T15:01:22Z</time>
      </trkpt>
      <trkpt lat="47.8216" lon="6.79291">
        <ele>1135.775391</ele>
        <time>2018-05-26T15:01:23Z</time>
      </trkpt>
      <trkpt lat="47.82162" lon="6.7929">
        <ele>1135.949097</ele>
        <time>2018-05-26T15:01:24Z</time>
      </trkpt>
      <trkpt lat="47.82164" lon="6.79289">
        <ele>1136.055054</ele>
        <time>2018-05-26T15:01:25Z</time>
      </trkpt>
      <trkpt lat="47.82166" lon="6.79288">
        <ele>1136.21106</ele>
        <time>2018-05-26T15:01:26Z</time>
      </trkpt>
      <trkpt lat="47.82167" lon="6.79287">
        <ele>1136.321411</ele>
        <time>2018-05-26T15:01:27Z</time>
      </trkpt>
      <trkpt lat="47.8217" lon="6.79285">
        <ele>1136.494385</ele>
        <time>2018-05-26T15:01:28Z</time>
      </trkpt>
      <trkpt lat="47.82172" lon="6.79284">
        <ele>1136.612915</ele>
        <time>2018-05-26T15:01:29Z</time>
      </trkpt>
      <trkpt lat="47.82174" lon="6.79283">
        <ele>1136.73645</ele>
        <time>2018-05-26T15:01:30Z</time>
      </trkpt>
      <trkpt lat="47.82175" lon="6.79283">
        <ele>1136.936523</ele>
        <time>2018-05-26T15:01:31Z</time>
      </trkpt>
      <trkpt lat="47.82178" lon="6.79282">
        <ele>1137.073608</ele>
        <time>2018-05-26T15:01:32Z</time>
      </trkpt>
      <trkpt lat="47.8218" lon="6.79281">
        <ele>1137.266113</ele>
        <time>2018-05-26T15:01:33Z</time>
      </trkpt>
      <trkpt lat="47.82182" lon="6.79279">
        <ele>1137.677979</ele>
        <time>2018-05-26T15:01:35Z</time>
      </trkpt>
      <trkpt lat="47.82184" lon="6.79277">
        <ele>1137.787476</ele>
        <time>2018-05-26T15:01:37Z</time>
      </trkpt>
      <trkpt lat="47.82187" lon="6.79275">
        <ele>1137.959351</ele>
        <time>2018-05-26T15:01:38Z</time>
      </trkpt>
      <trkpt lat="47.82189" lon="6.79275">
        <ele>1138.086792</ele>
        <time>2018-05-26T15:01:39Z</time>
      </trkpt>
      <trkpt lat="47.82191" lon="6.79275">
        <ele>1138.292847</ele>
        <time>2018-05-26T15:01:40Z</time>
      </trkpt>
      <trkpt lat="47.82193" lon="6.79274">
        <ele>1138.432007</ele>
        <time>2018-05-26T15:01:41Z</time>
      </trkpt>
      <trkpt lat="47.82195" lon="6.79274">
        <ele>1138.574707</ele>
        <time>2018-05-26T15:01:42Z</time>
      </trkpt>
      <trkpt lat="47.82198" lon="6.79273">
        <ele>1138.789917</ele>
        <time>2018-05-26T15:01:43Z</time>
      </trkpt>
      <trkpt lat="47.822" lon="6.79271">
        <ele>1138.92395</ele>
        <time>2018-05-26T15:01:44Z</time>
      </trkpt>
      <trkpt lat="47.82202" lon="6.7927">
        <ele>1139.100464</ele>
        <time>2018-05-26T15:01:45Z</time>
      </trkpt>
      <trkpt lat="47.82204" lon="6.79269">
        <ele>1139.210571</ele>
        <time>2018-05-26T15:01:46Z</time>
      </trkpt>
      <trkpt lat="47.82206" lon="6.79268">
        <ele>1139.324951</ele>
        <time>2018-05-26T15:01:47Z</time>
      </trkpt>
      <trkpt lat="47.82208" lon="6.79268">
        <ele>1139.510498</ele>
        <time>2018-05-26T15:01:48Z</time>
      </trkpt>
      <trkpt lat="47.82211" lon="6.79266">
        <ele>1139.637085</ele>
        <time>2018-05-26T15:01:49Z</time>
      </trkpt>
      <trkpt lat="47.82212" lon="6.79264">
        <ele>1139.821533</ele>
        <time>2018-05-26T15:01:50Z</time>
      </trkpt>
      <trkpt lat="47.82214" lon="6.79262">
        <ele>1139.939331</ele>
        <time>2018-05-26T15:01:51Z</time>
      </trkpt>
      <trkpt lat="47.82215" lon="6.7926">
        <ele>1140.101929</ele>
        <time>2018-05-26T15:01:52Z</time>
      </trkpt>
      <trkpt lat="47.82217" lon="6.79257">
        <ele>1140.199585</ele>
        <time>2018-05-26T15:01:53Z</time>
      </trkpt>
      <trkpt lat="47.82218" lon="6.79254">
        <ele>1140.292603</ele>
        <time>2018-05-26T15:01:54Z</time>
      </trkpt>
      <trkpt lat="47.82219" lon="6.7925">
        <ele>1140.447144</ele>
        <time>2018-05-26T15:01:55Z</time>
      </trkpt>
      <trkpt lat="47.8222" lon="6.79247">
        <ele>1140.569458</ele>
        <time>2018-05-26T15:01:56Z</time>
      </trkpt>
      <trkpt lat="47.82221" lon="6.79243">
        <ele>1140.786133</ele>
        <time>2018-05-26T15:01:57Z</time>
      </trkpt>
      <trkpt lat="47.82221" lon="6.7924">
        <ele>1140.951904</ele>
        <time>2018-05-26T15:01:58Z</time>
      </trkpt>
      <trkpt lat="47.82222" lon="6.79236">
        <ele>1141.224121</ele>
        <time>2018-05-26T15:01:59Z</time>
      </trkpt>
      <trkpt lat="47.82222" lon="6.79233">
        <ele>1141.411377</ele>
        <time>2018-05-26T15:02:00Z</time>
      </trkpt>
      <trkpt lat="47.82223" lon="6.79229">
        <ele>1141.689575</ele>
        <time>2018-05-26T15:02:01Z</time>
      </trkpt>
      <trkpt lat="47.82224" lon="6.79226">
        <ele>1141.873657</ele>
        <time>2018-05-26T15:02:02Z</time>
      </trkpt>
      <trkpt lat="47.82225" lon="6.79223">
        <ele>1142.153687</ele>
        <time>2018-05-26T15:02:03Z</time>
      </trkpt>
      <trkpt lat="47.82225" lon="6.7922">
        <ele>1142.338501</ele>
        <time>2018-05-26T15:02:04Z</time>
      </trkpt>
      <trkpt lat="47.82224" lon="6.79217">
        <ele>1142.515259</ele>
        <time>2018-05-26T15:02:05Z</time>
      </trkpt>
      <trkpt lat="47.82225" lon="6.79214">
        <ele>1142.600098</ele>
        <time>2018-05-26T15:02:06Z</time>
      </trkpt>
      <trkpt lat="47.82225" lon="6.79211">
        <ele>1142.765869</ele>
        <time>2018-05-26T15:02:07Z</time>
      </trkpt>
      <trkpt lat="47.82225" lon="6.79208">
        <ele>1142.936646</ele>
        <time>2018-05-26T15:02:08Z</time>
      </trkpt>
      <trkpt lat="47.82226" lon="6.79205">
        <ele>1143.111084</ele>
        <time>2018-05-26T15:02:09Z</time>
      </trkpt>
      <trkpt lat="47.82227" lon="6.79202">
        <ele>1143.367065</ele>
        <time>2018-05-26T15:02:10Z</time>
      </trkpt>
      <trkpt lat="47.82227" lon="6.79199">
        <ele>1143.528198</ele>
        <time>2018-05-26T15:02:11Z</time>
      </trkpt>
      <trkpt lat="47.82228" lon="6.79195">
        <ele>1143.76355</ele>
        <time>2018-05-26T15:02:12Z</time>
      </trkpt>
      <trkpt lat="47.82228" lon="6.79192">
        <ele>1143.91687</ele>
        <time>2018-05-26T15:02:13Z</time>
      </trkpt>
      <trkpt lat="47.82229" lon="6.7919">
        <ele>1144.133667</ele>
        <time>2018-05-26T15:02:14Z</time>
      </trkpt>
      <trkpt lat="47.82229" lon="6.79187">
        <ele>1144.268433</ele>
        <time>2018-05-26T15:02:15Z</time>
      </trkpt>
      <trkpt lat="47.82229" lon="6.79184">
        <ele>1144.399902</ele>
        <time>2018-05-26T15:02:16Z</time>
      </trkpt>
      <trkpt lat="47.82229" lon="6.79182">
        <ele>1144.605103</ele>
        <time>2018-05-26T15:02:17Z</time>
      </trkpt>
      <trkpt lat="47.8223" lon="6.79179">
        <ele>1144.748901</ele>
        <time>2018-05-26T15:02:18Z</time>
      </trkpt>
      <trkpt lat="47.82231" lon="6.79177">
        <ele>1144.97522</ele>
        <time>2018-05-26T15:02:19Z</time>
      </trkpt>
      <trkpt lat="47.82231" lon="6.79174">
        <ele>1145.130249</ele>
        <time>2018-05-26T15:02:20Z</time>
      </trkpt>
      <trkpt lat="47.82231" lon="6.7917">
        <ele>1145.285278</ele>
        <time>2018-05-26T15:02:21Z</time>
      </trkpt>
      <trkpt lat="47.82232" lon="6.79167">
        <ele>1145.510376</ele>
        <time>2018-05-26T15:02:22Z</time>
      </trkpt>
      <trkpt lat="47.82232" lon="6.79164">
        <ele>1145.655884</ele>
        <time>2018-05-26T15:02:23Z</time>
      </trkpt>
      <trkpt lat="47.82232" lon="6.79162">
        <ele>1145.874146</ele>
        <time>2018-05-26T15:02:24Z</time>
      </trkpt>
      <trkpt lat="47.82232" lon="6.79159">
        <ele>1146.026978</ele>
        <time>2018-05-26T15:02:25Z</time>
      </trkpt>
      <trkpt lat="47.82232" lon="6.79156">
        <ele>1146.261719</ele>
        <time>2018-05-26T15:02:26Z</time>
      </trkpt>
      <trkpt lat="47.82233" lon="6.79153">
        <ele>1146.413696</ele>
        <time>2018-05-26T15:02:27Z</time>
      </trkpt>
      <trkpt lat="47.82234" lon="6.7915">
        <ele>1146.559814</ele>
        <time>2018-05-26T15:02:28Z</time>
      </trkpt>
      <trkpt lat="47.82235" lon="6.79147">
        <ele>1146.768433</ele>
        <time>2018-05-26T15:02:29Z</time>
      </trkpt>
      <trkpt lat="47.82235" lon="6.79145">
        <ele>1146.906128</ele>
        <time>2018-05-26T15:02:30Z</time>
      </trkpt>
      <trkpt lat="47.82237" lon="6.79143">
        <ele>1147.109619</ele>
        <time>2018-05-26T15:02:31Z</time>
      </trkpt>
      <trkpt lat="47.82238" lon="6.7914">
        <ele>1147.239014</ele>
        <time>2018-05-26T15:02:32Z</time>
      </trkpt>
      <trkpt lat="47.8224" lon="6.79138">
        <ele>1147.360474</ele>
        <time>2018-05-26T15:02:33Z</time>
      </trkpt>
      <trkpt lat="47.82241" lon="6.79136">
        <ele>1147.540649</ele>
        <time>2018-05-26T15:02:34Z</time>
      </trkpt>
      <trkpt lat="47.82242" lon="6.79134">
        <ele>1147.665039</ele>
        <time>2018-05-26T15:02:35Z</time>
      </trkpt>
      <trkpt lat="47.82243" lon="6.79132">
        <ele>1147.859985</ele>
        <time>2018-05-26T15:02:36Z</time>
      </trkpt>
      <trkpt lat="47.82244" lon="6.79129">
        <ele>1147.995972</ele>
        <time>2018-05-26T15:02:37Z</time>
      </trkpt>
      <trkpt lat="47.82245" lon="6.79127">
        <ele>1148.214966</ele>
        <time>2018-05-26T15:02:38Z</time>
      </trkpt>
      <trkpt lat="47.82246" lon="6.79124">
        <ele>1148.366699</ele>
        <time>2018-05-26T15:02:39Z</time>
      </trkpt>
      <trkpt lat="47.82247" lon="6.79122">
        <ele>1148.518921</ele>
        <time>2018-05-26T15:02:40Z</time>
      </trkpt>
      <trkpt lat="47.82248" lon="6.7912">
        <ele>1148.74231</ele>
        <time>2018-05-26T15:02:41Z</time>
      </trkpt>
      <trkpt lat="47.82249" lon="6.79118">
        <ele>1148.892212</ele>
        <time>2018-05-26T15:02:42Z</time>
      </trkpt>
      <trkpt lat="47.8225" lon="6.79115">
        <ele>1149.117798</ele>
        <time>2018-05-26T15:02:43Z</time>
      </trkpt>
      <trkpt lat="47.82251" lon="6.79113">
        <ele>1149.268799</ele>
        <time>2018-05-26T15:02:44Z</time>
      </trkpt>
      <trkpt lat="47.82253" lon="6.79111">
        <ele>1149.504272</ele>
        <time>2018-05-26T15:02:45Z</time>
      </trkpt>
      <trkpt lat="47.82253" lon="6.79108">
        <ele>1149.664429</ele>
        <time>2018-05-26T15:02:46Z</time>
      </trkpt>
      <trkpt lat="47.82254" lon="6.79105">
        <ele>1149.821777</ele>
        <time>2018-05-26T15:02:47Z</time>
      </trkpt>
      <trkpt lat="47.82255" lon="6.79103">
        <ele>1150.055298</ele>
        <time>2018-05-26T15:02:48Z</time>
      </trkpt>
      <trkpt lat="47.82256" lon="6.791">
        <ele>1150.216675</ele>
        <time>2018-05-26T15:02:49Z</time>
      </trkpt>
      <trkpt lat="47.82257" lon="6.79097">
        <ele>1150.477661</ele>
        <time>2018-05-26T15:02:50Z</time>
      </trkpt>
      <trkpt lat="47.82258" lon="6.79094">
        <ele>1150.657593</ele>
        <time>2018-05-26T15:02:51Z</time>
      </trkpt>
      <trkpt lat="47.82258" lon="6.79092">
        <ele>1150.917847</ele>
        <time>2018-05-26T15:02:52Z</time>
      </trkpt>
      <trkpt lat="47.8226" lon="6.7909">
        <ele>1151.086792</ele>
        <time>2018-05-26T15:02:53Z</time>
      </trkpt>
      <trkpt lat="47.82261" lon="6.79088">
        <ele>1151.331421</ele>
        <time>2018-05-26T15:02:54Z</time>
      </trkpt>
      <trkpt lat="47.82261" lon="6.79085">
        <ele>1151.482056</ele>
        <time>2018-05-26T15:02:55Z</time>
      </trkpt>
      <trkpt lat="47.82261" lon="6.79083">
        <ele>1151.687134</ele>
        <time>2018-05-26T15:02:56Z</time>
      </trkpt>
      <trkpt lat="47.82262" lon="6.7908">
        <ele>1151.817017</ele>
        <time>2018-05-26T15:02:57Z</time>
      </trkpt>
      <trkpt lat="47.82262" lon="6.79077">
        <ele>1151.94873</ele>
        <time>2018-05-26T15:02:58Z</time>
      </trkpt>
      <trkpt lat="47.82262" lon="6.79075">
        <ele>1152.154907</ele>
        <time>2018-05-26T15:02:59Z</time>
      </trkpt>
      <trkpt lat="47.82263" lon="6.79072">
        <ele>1152.295532</ele>
        <time>2018-05-26T15:03:00Z</time>
      </trkpt>
      <trkpt lat="47.82264" lon="6.7907">
        <ele>1152.507568</ele>
        <time>2018-05-26T15:03:01Z</time>
      </trkpt>
      <trkpt lat="47.82265" lon="6.79068">
        <ele>1152.649536</ele>
        <time>2018-05-26T15:03:02Z</time>
      </trkpt>
      <trkpt lat="47.82265" lon="6.79067">
        <ele>1152.865601</ele>
        <time>2018-05-26T15:03:03Z</time>
      </trkpt>
      <trkpt lat="47.82265" lon="6.79066">
        <ele>1153.011841</ele>
        <time>2018-05-26T15:03:04Z</time>
      </trkpt>
      <trkpt lat="47.82265" lon="6.79063">
        <ele>1153.235718</ele>
        <time>2018-05-26T15:03:05Z</time>
      </trkpt>
      <trkpt lat="47.82265" lon="6.79061">
        <ele>1153.389893</ele>
        <time>2018-05-26T15:03:06Z</time>
      </trkpt>
      <trkpt lat="47.82265" lon="6.79058">
        <ele>1153.467407</ele>
        <time>2018-05-26T15:03:07Z</time>
      </trkpt>
      <trkpt lat="47.82265" lon="6.79056">
        <ele>1153.620361</ele>
        <time>2018-05-26T15:03:08Z</time>
      </trkpt>
      <trkpt lat="47.82265" lon="6.79053">
        <ele>1153.771606</ele>
        <time>2018-05-26T15:03:09Z</time>
      </trkpt>
      <trkpt lat="47.82265" lon="6.7905">
        <ele>1153.925659</ele>
        <time>2018-05-26T15:03:10Z</time>
      </trkpt>
      <trkpt lat="47.82265" lon="6.79047">
        <ele>1154.168823</ele>
        <time>2018-05-26T15:03:11Z</time>
      </trkpt>
      <trkpt lat="47.82265" lon="6.79045">
        <ele>1154.341309</ele>
        <time>2018-05-26T15:03:12Z</time>
      </trkpt>
      <trkpt lat="47.82265" lon="6.79043">
        <ele>1154.610962</ele>
        <time>2018-05-26T15:03:13Z</time>
      </trkpt>
      <trkpt lat="47.82264" lon="6.7904">
        <ele>1154.79187</ele>
        <time>2018-05-26T15:03:14Z</time>
      </trkpt>
      <trkpt lat="47.82264" lon="6.79038">
        <ele>1155.059692</ele>
        <time>2018-05-26T15:03:15Z</time>
      </trkpt>
      <trkpt lat="47.82264" lon="6.79036">
        <ele>1155.234375</ele>
        <time>2018-05-26T15:03:16Z</time>
      </trkpt>
      <trkpt lat="47.82264" lon="6.79034">
        <ele>1155.406738</ele>
        <time>2018-05-26T15:03:17Z</time>
      </trkpt>
      <trkpt lat="47.82264" lon="6.79032">
        <ele>1155.659424</ele>
        <time>2018-05-26T15:03:18Z</time>
      </trkpt>
      <trkpt lat="47.82264" lon="6.79029">
        <ele>1155.827026</ele>
        <time>2018-05-26T15:03:19Z</time>
      </trkpt>
      <trkpt lat="47.82264" lon="6.79026">
        <ele>1156.06897</ele>
        <time>2018-05-26T15:03:20Z</time>
      </trkpt>
      <trkpt lat="47.82263" lon="6.79023">
        <ele>1156.218994</ele>
        <time>2018-05-26T15:03:21Z</time>
      </trkpt>
      <trkpt lat="47.82263" lon="6.7902">
        <ele>1156.354004</ele>
        <time>2018-05-26T15:03:22Z</time>
      </trkpt>
      <trkpt lat="47.82262" lon="6.79017">
        <ele>1156.521484</ele>
        <time>2018-05-26T15:03:23Z</time>
      </trkpt>
      <trkpt lat="47.82261" lon="6.79014">
        <ele>1156.609009</ele>
        <time>2018-05-26T15:03:24Z</time>
      </trkpt>
      <trkpt lat="47.82261" lon="6.79012">
        <ele>1156.709106</ele>
        <time>2018-05-26T15:03:25Z</time>
      </trkpt>
      <trkpt lat="47.82261" lon="6.79009">
        <ele>1156.763672</ele>
        <time>2018-05-26T15:03:26Z</time>
      </trkpt>
      <trkpt lat="47.8226" lon="6.79006">
        <ele>1156.841919</ele>
        <time>2018-05-26T15:03:27Z</time>
      </trkpt>
      <trkpt lat="47.8226" lon="6.79003">
        <ele>1156.900269</ele>
        <time>2018-05-26T15:03:28Z</time>
      </trkpt>
      <trkpt lat="47.8226" lon="6.79">
        <ele>1156.97229</ele>
        <time>2018-05-26T15:03:29Z</time>
      </trkpt>
      <trkpt lat="47.8226" lon="6.78996">
        <ele>1157.122192</ele>
        <time>2018-05-26T15:03:30Z</time>
      </trkpt>
      <trkpt lat="47.82259" lon="6.78993">
        <ele>1157.248047</ele>
        <time>2018-05-26T15:03:31Z</time>
      </trkpt>
      <trkpt lat="47.82258" lon="6.78991">
        <ele>1157.453369</ele>
        <time>2018-05-26T15:03:32Z</time>
      </trkpt>
      <trkpt lat="47.82257" lon="6.78988">
        <ele>1157.588745</ele>
        <time>2018-05-26T15:03:33Z</time>
      </trkpt>
      <trkpt lat="47.82256" lon="6.78985">
        <ele>1157.716064</ele>
        <time>2018-05-26T15:03:34Z</time>
      </trkpt>
      <trkpt lat="47.82256" lon="6.78982">
        <ele>1157.894409</ele>
        <time>2018-05-26T15:03:35Z</time>
      </trkpt>
      <trkpt lat="47.82256" lon="6.78979">
        <ele>1158.002808</ele>
        <time>2018-05-26T15:03:36Z</time>
      </trkpt>
      <trkpt lat="47.82256" lon="6.78976">
        <ele>1158.155884</ele>
        <time>2018-05-26T15:03:37Z</time>
      </trkpt>
      <trkpt lat="47.82256" lon="6.78973">
        <ele>1158.258179</ele>
        <time>2018-05-26T15:03:38Z</time>
      </trkpt>
      <trkpt lat="47.82256" lon="6.78971">
        <ele>1158.416504</ele>
        <time>2018-05-26T15:03:39Z</time>
      </trkpt>
      <trkpt lat="47.82256" lon="6.78968">
        <ele>1158.51709</ele>
        <time>2018-05-26T15:03:40Z</time>
      </trkpt>
      <trkpt lat="47.82256" lon="6.78965">
        <ele>1158.668457</ele>
        <time>2018-05-26T15:03:41Z</time>
      </trkpt>
      <trkpt lat="47.82256" lon="6.78962">
        <ele>1158.775269</ele>
        <time>2018-05-26T15:03:42Z</time>
      </trkpt>
      <trkpt lat="47.82256" lon="6.7896">
        <ele>1158.888794</ele>
        <time>2018-05-26T15:03:43Z</time>
      </trkpt>
      <trkpt lat="47.82255" lon="6.78957">
        <ele>1159.067017</ele>
        <time>2018-05-26T15:03:44Z</time>
      </trkpt>
      <trkpt lat="47.82255" lon="6.78954">
        <ele>1159.184692</ele>
        <time>2018-05-26T15:03:45Z</time>
      </trkpt>
      <trkpt lat="47.82254" lon="6.7895">
        <ele>1159.351929</ele>
        <time>2018-05-26T15:03:46Z</time>
      </trkpt>
      <trkpt lat="47.82254" lon="6.78947">
        <ele>1159.454712</ele>
        <time>2018-05-26T15:03:47Z</time>
      </trkpt>
      <trkpt lat="47.82254" lon="6.78944">
        <ele>1159.592285</ele>
        <time>2018-05-26T15:03:48Z</time>
      </trkpt>
      <trkpt lat="47.82254" lon="6.78941">
        <ele>1159.67395</ele>
        <time>2018-05-26T15:03:49Z</time>
      </trkpt>
      <trkpt lat="47.82254" lon="6.78938">
        <ele>1159.791504</ele>
        <time>2018-05-26T15:03:50Z</time>
      </trkpt>
      <trkpt lat="47.82254" lon="6.78934">
        <ele>1159.873535</ele>
        <time>2018-05-26T15:03:51Z</time>
      </trkpt>
      <trkpt lat="47.82254" lon="6.78931">
        <ele>1159.964722</ele>
        <time>2018-05-26T15:03:52Z</time>
      </trkpt>
      <trkpt lat="47.82254" lon="6.78928">
        <ele>1160.122559</ele>
        <time>2018-05-26T15:03:53Z</time>
      </trkpt>
      <trkpt lat="47.82253" lon="6.78925">
        <ele>1160.237183</ele>
        <time>2018-05-26T15:03:54Z</time>
      </trkpt>
      <trkpt lat="47.82254" lon="6.78922">
        <ele>1160.410767</ele>
        <time>2018-05-26T15:03:55Z</time>
      </trkpt>
      <trkpt lat="47.82254" lon="6.78919">
        <ele>1160.530273</ele>
        <time>2018-05-26T15:03:56Z</time>
      </trkpt>
      <trkpt lat="47.82255" lon="6.78916">
        <ele>1160.721313</ele>
        <time>2018-05-26T15:03:57Z</time>
      </trkpt>
      <trkpt lat="47.82255" lon="6.78913">
        <ele>1160.855469</ele>
        <time>2018-05-26T15:03:58Z</time>
      </trkpt>
      <trkpt lat="47.82256" lon="6.78911">
        <ele>1161.054443</ele>
        <time>2018-05-26T15:03:59Z</time>
      </trkpt>
      <trkpt lat="47.82256" lon="6.78908">
        <ele>1161.189331</ele>
        <time>2018-05-26T15:04:00Z</time>
      </trkpt>
      <trkpt lat="47.82257" lon="6.78905">
        <ele>1161.410034</ele>
        <time>2018-05-26T15:04:01Z</time>
      </trkpt>
      <trkpt lat="47.82258" lon="6.78902">
        <ele>1161.571167</ele>
        <time>2018-05-26T15:04:02Z</time>
      </trkpt>
      <trkpt lat="47.82258" lon="6.78899">
        <ele>1161.735718</ele>
        <time>2018-05-26T15:04:03Z</time>
      </trkpt>
      <trkpt lat="47.82257" lon="6.78897">
        <ele>1161.979126</ele>
        <time>2018-05-26T15:04:04Z</time>
      </trkpt>
      <trkpt lat="47.82257" lon="6.78894">
        <ele>1162.134766</ele>
        <time>2018-05-26T15:04:05Z</time>
      </trkpt>
      <trkpt lat="47.82257" lon="6.78892">
        <ele>1162.368164</ele>
        <time>2018-05-26T15:04:06Z</time>
      </trkpt>
      <trkpt lat="47.82257" lon="6.78888">
        <ele>1162.520874</ele>
        <time>2018-05-26T15:04:07Z</time>
      </trkpt>
      <trkpt lat="47.82257" lon="6.78885">
        <ele>1162.596313</ele>
        <time>2018-05-26T15:04:08Z</time>
      </trkpt>
      <trkpt lat="47.82257" lon="6.78882">
        <ele>1162.741333</ele>
        <time>2018-05-26T15:04:09Z</time>
      </trkpt>
      <trkpt lat="47.82257" lon="6.78879">
        <ele>1162.885742</ele>
        <time>2018-05-26T15:04:10Z</time>
      </trkpt>
      <trkpt lat="47.82257" lon="6.78876">
        <ele>1163.034668</ele>
        <time>2018-05-26T15:04:11Z</time>
      </trkpt>
      <trkpt lat="47.82256" lon="6.78873">
        <ele>1163.264038</ele>
        <time>2018-05-26T15:04:12Z</time>
      </trkpt>
      <trkpt lat="47.82256" lon="6.7887">
        <ele>1163.4198</ele>
        <time>2018-05-26T15:04:13Z</time>
      </trkpt>
      <trkpt lat="47.82257" lon="6.78867">
        <ele>1163.664185</ele>
        <time>2018-05-26T15:04:14Z</time>
      </trkpt>
      <trkpt lat="47.82257" lon="6.78864">
        <ele>1163.840332</ele>
        <time>2018-05-26T15:04:15Z</time>
      </trkpt>
      <trkpt lat="47.82257" lon="6.78861">
        <ele>1164.122681</ele>
        <time>2018-05-26T15:04:16Z</time>
      </trkpt>
      <trkpt lat="47.82257" lon="6.78858">
        <ele>1164.317993</ele>
        <time>2018-05-26T15:04:17Z</time>
      </trkpt>
      <trkpt lat="47.82257" lon="6.78855">
        <ele>1164.517212</ele>
        <time>2018-05-26T15:04:18Z</time>
      </trkpt>
      <trkpt lat="47.82257" lon="6.78853">
        <ele>1164.802124</ele>
        <time>2018-05-26T15:04:19Z</time>
      </trkpt>
      <trkpt lat="47.82258" lon="6.78849">
        <ele>1164.96875</ele>
        <time>2018-05-26T15:04:20Z</time>
      </trkpt>
      <trkpt lat="47.82258" lon="6.78846">
        <ele>1165.17981</ele>
        <time>2018-05-26T15:04:21Z</time>
      </trkpt>
      <trkpt lat="47.82259" lon="6.78843">
        <ele>1165.310791</ele>
        <time>2018-05-26T15:04:22Z</time>
      </trkpt>
      <trkpt lat="47.82259" lon="6.7884">
        <ele>1165.503052</ele>
        <time>2018-05-26T15:04:23Z</time>
      </trkpt>
      <trkpt lat="47.82259" lon="6.78837">
        <ele>1165.621216</ele>
        <time>2018-05-26T15:04:24Z</time>
      </trkpt>
      <trkpt lat="47.82259" lon="6.78835">
        <ele>1165.729492</ele>
        <time>2018-05-26T15:04:25Z</time>
      </trkpt>
      <trkpt lat="47.8226" lon="6.78832">
        <ele>1165.893921</ele>
        <time>2018-05-26T15:04:26Z</time>
      </trkpt>
      <trkpt lat="47.82261" lon="6.78829">
        <ele>1166.015137</ele>
        <time>2018-05-26T15:04:27Z</time>
      </trkpt>
      <trkpt lat="47.82261" lon="6.78825">
        <ele>1166.207886</ele>
        <time>2018-05-26T15:04:28Z</time>
      </trkpt>
      <trkpt lat="47.82262" lon="6.78822">
        <ele>1166.341431</ele>
        <time>2018-05-26T15:04:29Z</time>
      </trkpt>
      <trkpt lat="47.82262" lon="6.78819">
        <ele>1166.548218</ele>
        <time>2018-05-26T15:04:30Z</time>
      </trkpt>
      <trkpt lat="47.82262" lon="6.78816">
        <ele>1166.6875</ele>
        <time>2018-05-26T15:04:31Z</time>
      </trkpt>
      <trkpt lat="47.82262" lon="6.78813">
        <ele>1166.822144</ele>
        <time>2018-05-26T15:04:32Z</time>
      </trkpt>
      <trkpt lat="47.82263" lon="6.78809">
        <ele>1167.014282</ele>
        <time>2018-05-26T15:04:33Z</time>
      </trkpt>
      <trkpt lat="47.82264" lon="6.78807">
        <ele>1167.137573</ele>
        <time>2018-05-26T15:04:34Z</time>
      </trkpt>
      <trkpt lat="47.82265" lon="6.78804">
        <ele>1167.308594</ele>
        <time>2018-05-26T15:04:35Z</time>
      </trkpt>
      <trkpt lat="47.82266" lon="6.78801">
        <ele>1167.41394</ele>
        <time>2018-05-26T15:04:36Z</time>
      </trkpt>
      <trkpt lat="47.82266" lon="6.78799">
        <ele>1167.517822</ele>
        <time>2018-05-26T15:04:37Z</time>
      </trkpt>
      <trkpt lat="47.82267" lon="6.78797">
        <ele>1167.694336</ele>
        <time>2018-05-26T15:04:38Z</time>
      </trkpt>
      <trkpt lat="47.82268" lon="6.78794">
        <ele>1167.824097</ele>
        <time>2018-05-26T15:04:39Z</time>
      </trkpt>
      <trkpt lat="47.82268" lon="6.78791">
        <ele>1168.034424</ele>
        <time>2018-05-26T15:04:40Z</time>
      </trkpt>
      <trkpt lat="47.82268" lon="6.78789">
        <ele>1168.185913</ele>
        <time>2018-05-26T15:04:41Z</time>
      </trkpt>
      <trkpt lat="47.82269" lon="6.78787">
        <ele>1168.420898</ele>
        <time>2018-05-26T15:04:42Z</time>
      </trkpt>
      <trkpt lat="47.8227" lon="6.78785">
        <ele>1168.564819</ele>
        <time>2018-05-26T15:04:43Z</time>
      </trkpt>
      <trkpt lat="47.82271" lon="6.78783">
        <ele>1168.690674</ele>
        <time>2018-05-26T15:04:44Z</time>
      </trkpt>
      <trkpt lat="47.82271" lon="6.78781">
        <ele>1168.860962</ele>
        <time>2018-05-26T15:04:45Z</time>
      </trkpt>
      <trkpt lat="47.82272" lon="6.7878">
        <ele>1168.969849</ele>
        <time>2018-05-26T15:04:46Z</time>
      </trkpt>
      <trkpt lat="47.82273" lon="6.78778">
        <ele>1169.115112</ele>
        <time>2018-05-26T15:04:47Z</time>
      </trkpt>
      <trkpt lat="47.82274" lon="6.78777">
        <ele>1169.200195</ele>
        <time>2018-05-26T15:04:48Z</time>
      </trkpt>
      <trkpt lat="47.82274" lon="6.78776">
        <ele>1169.332397</ele>
        <time>2018-05-26T15:04:49Z</time>
      </trkpt>
      <trkpt lat="47.82274" lon="6.78775">
        <ele>1169.429565</ele>
        <time>2018-05-26T15:04:50Z</time>
      </trkpt>
      <trkpt lat="47.82275" lon="6.78774">
        <ele>1169.526733</ele>
        <time>2018-05-26T15:04:51Z</time>
      </trkpt>
      <trkpt lat="47.82275" lon="6.78772">
        <ele>1169.659302</ele>
        <time>2018-05-26T15:04:52Z</time>
      </trkpt>
      <trkpt lat="47.82277" lon="6.78771">
        <ele>1169.733032</ele>
        <time>2018-05-26T15:04:53Z</time>
      </trkpt>
      <trkpt lat="47.82277" lon="6.78769">
        <ele>1169.821655</ele>
        <time>2018-05-26T15:04:54Z</time>
      </trkpt>
      <trkpt lat="47.82278" lon="6.78768">
        <ele>1169.86853</ele>
        <time>2018-05-26T15:04:55Z</time>
      </trkpt>
      <trkpt lat="47.82278" lon="6.78767">
        <ele>1169.925659</ele>
        <time>2018-05-26T15:04:56Z</time>
      </trkpt>
      <trkpt lat="47.82278" lon="6.78766">
        <ele>1169.960083</ele>
        <time>2018-05-26T15:04:57Z</time>
      </trkpt>
      <trkpt lat="47.82279" lon="6.78765">
        <ele>1170.014038</ele>
        <time>2018-05-26T15:04:58Z</time>
      </trkpt>
      <trkpt lat="47.8228" lon="6.78765">
        <ele>1170.052368</ele>
        <time>2018-05-26T15:04:59Z</time>
      </trkpt>
      <trkpt lat="47.8228" lon="6.78765">
        <ele>1170.113281</ele>
        <time>2018-05-26T15:05:00Z</time>
      </trkpt>
      <trkpt lat="47.82281" lon="6.78767">
        <ele>1170.158325</ele>
        <time>2018-05-26T15:05:01Z</time>
      </trkpt>
      <trkpt lat="47.82282" lon="6.78768">
        <ele>1170.205811</ele>
        <time>2018-05-26T15:05:02Z</time>
      </trkpt>
      <trkpt lat="47.82283" lon="6.78768">
        <ele>1170.277954</ele>
        <time>2018-05-26T15:05:03Z</time>
      </trkpt>
      <trkpt lat="47.82284" lon="6.78767">
        <ele>1170.315186</ele>
        <time>2018-05-26T15:05:04Z</time>
      </trkpt>
      <trkpt lat="47.82285" lon="6.78766">
        <ele>1170.341675</ele>
        <time>2018-05-26T15:05:05Z</time>
      </trkpt>
      <trkpt lat="47.82287" lon="6.78766">
        <ele>1170.351196</ele>
        <time>2018-05-26T15:05:06Z</time>
      </trkpt>
      <trkpt lat="47.82288" lon="6.78766">
        <ele>1170.365601</ele>
        <time>2018-05-26T15:05:07Z</time>
      </trkpt>
      <trkpt lat="47.82288" lon="6.78767">
        <ele>1170.375122</ele>
        <time>2018-05-26T15:05:08Z</time>
      </trkpt>
      <trkpt lat="47.82289" lon="6.78768">
        <ele>1170.384399</ele>
        <time>2018-05-26T15:05:09Z</time>
      </trkpt>
      <trkpt lat="47.82291" lon="6.78769">
        <ele>1170.397339</ele>
        <time>2018-05-26T15:05:10Z</time>
      </trkpt>
      <trkpt lat="47.82291" lon="6.78771">
        <ele>1170.412964</ele>
        <time>2018-05-26T15:05:11Z</time>
      </trkpt>
      <trkpt lat="47.82292" lon="6.78774">
        <ele>1170.453247</ele>
        <time>2018-05-26T15:05:12Z</time>
      </trkpt>
      <trkpt lat="47.82293" lon="6.78776">
        <ele>1170.489258</ele>
        <time>2018-05-26T15:05:13Z</time>
      </trkpt>
      <trkpt lat="47.82293" lon="6.78778">
        <ele>1170.562866</ele>
        <time>2018-05-26T15:05:14Z</time>
      </trkpt>
      <trkpt lat="47.82294" lon="6.7878">
        <ele>1170.63501</ele>
        <time>2018-05-26T15:05:15Z</time>
      </trkpt>
      <trkpt lat="47.82294" lon="6.78782">
        <ele>1170.730835</ele>
        <time>2018-05-26T15:05:16Z</time>
      </trkpt>
      <trkpt lat="47.82295" lon="6.78784">
        <ele>1170.925049</ele>
        <time>2018-05-26T15:05:17Z</time>
      </trkpt>
      <trkpt lat="47.82295" lon="6.78785">
        <ele>1171.096802</ele>
        <time>2018-05-26T15:05:18Z</time>
      </trkpt>
      <trkpt lat="47.82296" lon="6.78787">
        <ele>1171.412964</ele>
        <time>2018-05-26T15:05:19Z</time>
      </trkpt>
      <trkpt lat="47.82296" lon="6.78789">
        <ele>1171.644409</ele>
        <time>2018-05-26T15:05:20Z</time>
      </trkpt>
      <trkpt lat="47.82297" lon="6.78791">
        <ele>1171.993774</ele>
        <time>2018-05-26T15:05:21Z</time>
      </trkpt>
      <trkpt lat="47.82297" lon="6.78793">
        <ele>1172.207886</ele>
        <time>2018-05-26T15:05:22Z</time>
      </trkpt>
      <trkpt lat="47.82297" lon="6.78795">
        <ele>1172.397461</ele>
        <time>2018-05-26T15:05:23Z</time>
      </trkpt>
      <trkpt lat="47.82298" lon="6.78796">
        <ele>1172.639038</ele>
        <time>2018-05-26T15:05:24Z</time>
      </trkpt>
      <trkpt lat="47.82298" lon="6.78798">
        <ele>1172.780151</ele>
        <time>2018-05-26T15:05:25Z</time>
      </trkpt>
      <trkpt lat="47.82299" lon="6.788">
        <ele>1172.971069</ele>
        <time>2018-05-26T15:05:26Z</time>
      </trkpt>
      <trkpt lat="47.823" lon="6.78802">
        <ele>1173.089844</ele>
        <time>2018-05-26T15:05:27Z</time>
      </trkpt>
      <trkpt lat="47.82301" lon="6.78804">
        <ele>1173.274292</ele>
        <time>2018-05-26T15:05:28Z</time>
      </trkpt>
      <trkpt lat="47.82301" lon="6.78805">
        <ele>1173.411987</ele>
        <time>2018-05-26T15:05:29Z</time>
      </trkpt>
      <trkpt lat="47.82301" lon="6.78807">
        <ele>1173.563354</ele>
        <time>2018-05-26T15:05:30Z</time>
      </trkpt>
      <trkpt lat="47.823" lon="6.78809">
        <ele>1173.822388</ele>
        <time>2018-05-26T15:05:31Z</time>
      </trkpt>
      <trkpt lat="47.823" lon="6.78811">
        <ele>1174.015503</ele>
        <time>2018-05-26T15:05:32Z</time>
      </trkpt>
      <trkpt lat="47.82299" lon="6.78813">
        <ele>1174.324219</ele>
        <time>2018-05-26T15:05:33Z</time>
      </trkpt>
      <trkpt lat="47.823" lon="6.78815">
        <ele>1174.528564</ele>
        <time>2018-05-26T15:05:34Z</time>
      </trkpt>
      <trkpt lat="47.823" lon="6.78817">
        <ele>1174.8125</ele>
        <time>2018-05-26T15:05:35Z</time>
      </trkpt>
      <trkpt lat="47.823" lon="6.78819">
        <ele>1174.984253</ele>
        <time>2018-05-26T15:05:36Z</time>
      </trkpt>
      <trkpt lat="47.823" lon="6.78821">
        <ele>1175.221191</ele>
        <time>2018-05-26T15:05:37Z</time>
      </trkpt>
      <trkpt lat="47.823" lon="6.78823">
        <ele>1175.371094</ele>
        <time>2018-05-26T15:05:38Z</time>
      </trkpt>
      <trkpt lat="47.82301" lon="6.78824">
        <ele>1175.580566</ele>
        <time>2018-05-26T15:05:39Z</time>
      </trkpt>
      <trkpt lat="47.82301" lon="6.78826">
        <ele>1175.706665</ele>
        <time>2018-05-26T15:05:40Z</time>
      </trkpt>
      <trkpt lat="47.823" lon="6.78828">
        <ele>1175.825562</ele>
        <time>2018-05-26T15:05:41Z</time>
      </trkpt>
      <trkpt lat="47.823" lon="6.7883">
        <ele>1175.991699</ele>
        <time>2018-05-26T15:05:42Z</time>
      </trkpt>
      <trkpt lat="47.823" lon="6.78832">
        <ele>1176.093994</ele>
        <time>2018-05-26T15:05:43Z</time>
      </trkpt>
      <trkpt lat="47.82299" lon="6.78834">
        <ele>1176.226929</ele>
        <time>2018-05-26T15:05:44Z</time>
      </trkpt>
      <trkpt lat="47.82299" lon="6.78837">
        <ele>1176.307983</ele>
        <time>2018-05-26T15:05:45Z</time>
      </trkpt>
      <trkpt lat="47.82298" lon="6.78839">
        <ele>1176.424194</ele>
        <time>2018-05-26T15:05:46Z</time>
      </trkpt>
      <trkpt lat="47.82298" lon="6.78841">
        <ele>1176.498291</ele>
        <time>2018-05-26T15:05:47Z</time>
      </trkpt>
      <trkpt lat="47.82298" lon="6.78844">
        <ele>1176.565308</ele>
        <time>2018-05-26T15:05:48Z</time>
      </trkpt>
      <trkpt lat="47.82299" lon="6.78846">
        <ele>1176.656128</ele>
        <time>2018-05-26T15:05:49Z</time>
      </trkpt>
      <trkpt lat="47.82299" lon="6.78848">
        <ele>1176.713257</ele>
        <time>2018-05-26T15:05:50Z</time>
      </trkpt>
      <trkpt lat="47.82299" lon="6.78849">
        <ele>1176.856812</ele>
        <time>2018-05-26T15:05:51Z</time>
      </trkpt>
      <trkpt lat="47.82301" lon="6.78851">
        <ele>1176.962158</ele>
        <time>2018-05-26T15:05:53Z</time>
      </trkpt>
      <trkpt lat="47.82301" lon="6.78852">
        <ele>1177.053711</ele>
        <time>2018-05-26T15:05:54Z</time>
      </trkpt>
      <trkpt lat="47.82302" lon="6.78854">
        <ele>1177.165894</ele>
        <time>2018-05-26T15:05:55Z</time>
      </trkpt>
      <trkpt lat="47.82303" lon="6.78856">
        <ele>1177.363037</ele>
        <time>2018-05-26T15:05:56Z</time>
      </trkpt>
      <trkpt lat="47.82304" lon="6.78858">
        <ele>1177.500854</ele>
        <time>2018-05-26T15:05:57Z</time>
      </trkpt>
      <trkpt lat="47.82306" lon="6.7886">
        <ele>1177.699829</ele>
        <time>2018-05-26T15:05:58Z</time>
      </trkpt>
      <trkpt lat="47.82307" lon="6.78863">
        <ele>1177.826782</ele>
        <time>2018-05-26T15:05:59Z</time>
      </trkpt>
      <trkpt lat="47.82307" lon="6.78865">
        <ele>1178.00647</ele>
        <time>2018-05-26T15:06:00Z</time>
      </trkpt>
      <trkpt lat="47.82307" lon="6.78867">
        <ele>1178.120117</ele>
        <time>2018-05-26T15:06:01Z</time>
      </trkpt>
      <trkpt lat="47.82307" lon="6.78869">
        <ele>1178.23877</ele>
        <time>2018-05-26T15:06:02Z</time>
      </trkpt>
      <trkpt lat="47.82307" lon="6.78871">
        <ele>1178.440552</ele>
        <time>2018-05-26T15:06:03Z</time>
      </trkpt>
      <trkpt lat="47.82307" lon="6.78873">
        <ele>1178.584595</ele>
        <time>2018-05-26T15:06:04Z</time>
      </trkpt>
      <trkpt lat="47.82307" lon="6.78875">
        <ele>1178.799683</ele>
        <time>2018-05-26T15:06:05Z</time>
      </trkpt>
      <trkpt lat="47.82308" lon="6.78877">
        <ele>1178.942261</ele>
        <time>2018-05-26T15:06:06Z</time>
      </trkpt>
      <trkpt lat="47.82308" lon="6.78878">
        <ele>1179.076294</ele>
        <time>2018-05-26T15:06:07Z</time>
      </trkpt>
      <trkpt lat="47.82308" lon="6.78879">
        <ele>1179.325684</ele>
        <time>2018-05-26T15:06:08Z</time>
      </trkpt>
      <trkpt lat="47.82306" lon="6.78893">
        <ele>1179.632324</ele>
        <time>2018-05-26T15:06:23Z</time>
      </trkpt>
      <trkpt lat="47.82307" lon="6.78893">
        <ele>1179.787354</ele>
        <time>2018-05-26T15:06:25Z</time>
      </trkpt>
      <trkpt lat="47.82307" lon="6.78895">
        <ele>1179.949585</ele>
        <time>2018-05-26T15:06:27Z</time>
      </trkpt>
      <trkpt lat="47.82307" lon="6.78897">
        <ele>1180.07959</ele>
        <time>2018-05-26T15:06:28Z</time>
      </trkpt>
      <trkpt lat="47.82308" lon="6.78898">
        <ele>1180.452148</ele>
        <time>2018-05-26T15:06:29Z</time>
      </trkpt>
      <trkpt lat="47.8231" lon="6.78911">
        <ele>1182.611694</ele>
        <time>2018-05-26T15:06:50Z</time>
      </trkpt>
      <trkpt lat="47.82311" lon="6.78913">
        <ele>1182.655762</ele>
        <time>2018-05-26T15:06:52Z</time>
      </trkpt>
      <trkpt lat="47.82315" lon="6.78925">
        <ele>1183.170288</ele>
        <time>2018-05-26T15:07:01Z</time>
      </trkpt>
      <trkpt lat="47.82315" lon="6.78927">
        <ele>1183.254395</ele>
        <time>2018-05-26T15:07:03Z</time>
      </trkpt>
      <trkpt lat="47.82315" lon="6.78929">
        <ele>1183.329712</ele>
        <time>2018-05-26T15:07:04Z</time>
      </trkpt>
      <trkpt lat="47.82316" lon="6.78943">
        <ele>1183.985229</ele>
        <time>2018-05-26T15:07:14Z</time>
      </trkpt>
      <trkpt lat="47.82316" lon="6.78946">
        <ele>1184.020752</ele>
        <time>2018-05-26T15:07:16Z</time>
      </trkpt>
      <trkpt lat="47.82316" lon="6.78949">
        <ele>1184.074829</ele>
        <time>2018-05-26T15:07:17Z</time>
      </trkpt>
      <trkpt lat="47.82317" lon="6.78953">
        <ele>1184.12085</ele>
        <time>2018-05-26T15:07:18Z</time>
      </trkpt>
      <trkpt lat="47.82317" lon="6.78955">
        <ele>1184.175781</ele>
        <time>2018-05-26T15:07:19Z</time>
      </trkpt>
      <trkpt lat="47.82317" lon="6.78958">
        <ele>1184.255371</ele>
        <time>2018-05-26T15:07:20Z</time>
      </trkpt>
      <trkpt lat="47.82317" lon="6.7896">
        <ele>1184.304321</ele>
        <time>2018-05-26T15:07:21Z</time>
      </trkpt>
      <trkpt lat="47.82318" lon="6.78962">
        <ele>1184.387573</ele>
        <time>2018-05-26T15:07:22Z</time>
      </trkpt>
      <trkpt lat="47.82318" lon="6.78964">
        <ele>1184.459839</ele>
        <time>2018-05-26T15:07:23Z</time>
      </trkpt>
      <trkpt lat="47.82319" lon="6.78967">
        <ele>1184.543823</ele>
        <time>2018-05-26T15:07:24Z</time>
      </trkpt>
      <trkpt lat="47.8232" lon="6.78969">
        <ele>1184.693481</ele>
        <time>2018-05-26T15:07:25Z</time>
      </trkpt>
      <trkpt lat="47.82321" lon="6.78971">
        <ele>1184.810059</ele>
        <time>2018-05-26T15:07:26Z</time>
      </trkpt>
      <trkpt lat="47.82322" lon="6.78973">
        <ele>1185.017578</ele>
        <time>2018-05-26T15:07:27Z</time>
      </trkpt>
      <trkpt lat="47.82323" lon="6.78975">
        <ele>1185.181885</ele>
        <time>2018-05-26T15:07:28Z</time>
      </trkpt>
      <trkpt lat="47.82324" lon="6.78978">
        <ele>1185.468872</ele>
        <time>2018-05-26T15:07:29Z</time>
      </trkpt>
      <trkpt lat="47.82325" lon="6.7898">
        <ele>1185.671387</ele>
        <time>2018-05-26T15:07:30Z</time>
      </trkpt>
      <trkpt lat="47.82325" lon="6.78981">
        <ele>1185.868042</ele>
        <time>2018-05-26T15:07:31Z</time>
      </trkpt>
      <trkpt lat="47.82325" lon="6.78983">
        <ele>1186.140625</ele>
        <time>2018-05-26T15:07:32Z</time>
      </trkpt>
      <trkpt lat="47.82325" lon="6.78985">
        <ele>1186.300903</ele>
        <time>2018-05-26T15:07:33Z</time>
      </trkpt>
      <trkpt lat="47.82325" lon="6.78986">
        <ele>1186.490845</ele>
        <time>2018-05-26T15:07:34Z</time>
      </trkpt>
      <trkpt lat="47.82325" lon="6.78988">
        <ele>1186.574341</ele>
        <time>2018-05-26T15:07:35Z</time>
      </trkpt>
      <trkpt lat="47.82326" lon="6.7899">
        <ele>1186.621582</ele>
        <time>2018-05-26T15:07:36Z</time>
      </trkpt>
      <trkpt lat="47.82327" lon="6.78991">
        <ele>1186.64856</ele>
        <time>2018-05-26T15:07:37Z</time>
      </trkpt>
      <trkpt lat="47.82328" lon="6.78993">
        <ele>1186.654907</ele>
        <time>2018-05-26T15:07:38Z</time>
      </trkpt>
      <trkpt lat="47.8233" lon="6.78994">
        <ele>1186.67688</ele>
        <time>2018-05-26T15:07:39Z</time>
      </trkpt>
      <trkpt lat="47.82331" lon="6.78996">
        <ele>1186.700928</ele>
        <time>2018-05-26T15:07:40Z</time>
      </trkpt>
      <trkpt lat="47.82332" lon="6.78998">
        <ele>1186.76062</ele>
        <time>2018-05-26T15:07:41Z</time>
      </trkpt>
      <trkpt lat="47.82333" lon="6.79">
        <ele>1186.818359</ele>
        <time>2018-05-26T15:07:42Z</time>
      </trkpt>
      <trkpt lat="47.82334" lon="6.79001">
        <ele>1186.886719</ele>
        <time>2018-05-26T15:07:43Z</time>
      </trkpt>
      <trkpt lat="47.82344" lon="6.79011">
        <ele>1189.534668</ele>
        <time>2018-05-26T15:08:39Z</time>
      </trkpt>
      <trkpt lat="47.82346" lon="6.79011">
        <ele>1189.584717</ele>
        <time>2018-05-26T15:08:41Z</time>
      </trkpt>
      <trkpt lat="47.82346" lon="6.79012">
        <ele>1189.668579</ele>
        <time>2018-05-26T15:08:42Z</time>
      </trkpt>
      <trkpt lat="47.82348" lon="6.79012">
        <ele>1189.735352</ele>
        <time>2018-05-26T15:08:43Z</time>
      </trkpt>
      <trkpt lat="47.82349" lon="6.79013">
        <ele>1189.859497</ele>
        <time>2018-05-26T15:08:44Z</time>
      </trkpt>
      <trkpt lat="47.8235" lon="6.79014">
        <ele>1189.954712</ele>
        <time>2018-05-26T15:08:45Z</time>
      </trkpt>
      <trkpt lat="47.82352" lon="6.79015">
        <ele>1190.057251</ele>
        <time>2018-05-26T15:08:46Z</time>
      </trkpt>
      <trkpt lat="47.82353" lon="6.79016">
        <ele>1190.232788</ele>
        <time>2018-05-26T15:08:47Z</time>
      </trkpt>
      <trkpt lat="47.82354" lon="6.79017">
        <ele>1190.360718</ele>
        <time>2018-05-26T15:08:48Z</time>
      </trkpt>
      <trkpt lat="47.82356" lon="6.79018">
        <ele>1190.559326</ele>
        <time>2018-05-26T15:08:49Z</time>
      </trkpt>
      <trkpt lat="47.82356" lon="6.79018">
        <ele>1191.08728</ele>
        <time>2018-05-26T15:08:51Z</time>
      </trkpt>
      <trkpt lat="47.82365" lon="6.79024">
        <ele>1192.54895</ele>
        <time>2018-05-26T15:08:58Z</time>
      </trkpt>
      <trkpt lat="47.82366" lon="6.79024">
        <ele>1192.835083</ele>
        <time>2018-05-26T15:09:00Z</time>
      </trkpt>
      <trkpt lat="47.82367" lon="6.79025">
        <ele>1193.028198</ele>
        <time>2018-05-26T15:09:01Z</time>
      </trkpt>
      <trkpt lat="47.82368" lon="6.79025">
        <ele>1193.304077</ele>
        <time>2018-05-26T15:09:02Z</time>
      </trkpt>
      <trkpt lat="47.82369" lon="6.79026">
        <ele>1193.463745</ele>
        <time>2018-05-26T15:09:03Z</time>
      </trkpt>
      <trkpt lat="47.8237" lon="6.79027">
        <ele>1193.600952</ele>
        <time>2018-05-26T15:09:04Z</time>
      </trkpt>
      <trkpt lat="47.82371" lon="6.79029">
        <ele>1193.772095</ele>
        <time>2018-05-26T15:09:05Z</time>
      </trkpt>
      <trkpt lat="47.82372" lon="6.79031">
        <ele>1193.878174</ele>
        <time>2018-05-26T15:09:06Z</time>
      </trkpt>
      <trkpt lat="47.82373" lon="6.79032">
        <ele>1194.03894</ele>
        <time>2018-05-26T15:09:07Z</time>
      </trkpt>
      <trkpt lat="47.82373" lon="6.79034">
        <ele>1194.157837</ele>
        <time>2018-05-26T15:09:08Z</time>
      </trkpt>
      <trkpt lat="47.82374" lon="6.79035">
        <ele>1194.371826</ele>
        <time>2018-05-26T15:09:09Z</time>
      </trkpt>
      <trkpt lat="47.82375" lon="6.79037">
        <ele>1194.546387</ele>
        <time>2018-05-26T15:09:10Z</time>
      </trkpt>
      <trkpt lat="47.82375" lon="6.79038">
        <ele>1194.639893</ele>
        <time>2018-05-26T15:09:11Z</time>
      </trkpt>
      <trkpt lat="47.82382" lon="6.79047">
        <ele>1196.129517</ele>
        <time>2018-05-26T15:09:24Z</time>
      </trkpt>
      <trkpt lat="47.82384" lon="6.79049">
        <ele>1196.228149</ele>
        <time>2018-05-26T15:09:26Z</time>
      </trkpt>
      <trkpt lat="47.82385" lon="6.79051">
        <ele>1196.312744</ele>
        <time>2018-05-26T15:09:27Z</time>
      </trkpt>
      <trkpt lat="47.82385" lon="6.79053">
        <ele>1196.418579</ele>
        <time>2018-05-26T15:09:28Z</time>
      </trkpt>
      <trkpt lat="47.82386" lon="6.79055">
        <ele>1196.634155</ele>
        <time>2018-05-26T15:09:29Z</time>
      </trkpt>
      <trkpt lat="47.82388" lon="6.79056">
        <ele>1196.803833</ele>
        <time>2018-05-26T15:09:30Z</time>
      </trkpt>
      <trkpt lat="47.82388" lon="6.79058">
        <ele>1197.058105</ele>
        <time>2018-05-26T15:09:31Z</time>
      </trkpt>
      <trkpt lat="47.82389" lon="6.79059">
        <ele>1197.215454</ele>
        <time>2018-05-26T15:09:32Z</time>
      </trkpt>
      <trkpt lat="47.8239" lon="6.79061">
        <ele>1197.431519</ele>
        <time>2018-05-26T15:09:33Z</time>
      </trkpt>
      <trkpt lat="47.82391" lon="6.79062">
        <ele>1197.565308</ele>
        <time>2018-05-26T15:09:34Z</time>
      </trkpt>
      <trkpt lat="47.82393" lon="6.79064">
        <ele>1197.689331</ele>
        <time>2018-05-26T15:09:35Z</time>
      </trkpt>
      <trkpt lat="47.82394" lon="6.79065">
        <ele>1197.860474</ele>
        <time>2018-05-26T15:09:36Z</time>
      </trkpt>
      <trkpt lat="47.82396" lon="6.79067">
        <ele>1197.974243</ele>
        <time>2018-05-26T15:09:37Z</time>
      </trkpt>
      <trkpt lat="47.82397" lon="6.79068">
        <ele>1198.160522</ele>
        <time>2018-05-26T15:09:38Z</time>
      </trkpt>
      <trkpt lat="47.82398" lon="6.7907">
        <ele>1198.302246</ele>
        <time>2018-05-26T15:09:39Z</time>
      </trkpt>
      <trkpt lat="47.82399" lon="6.79071">
        <ele>1198.458252</ele>
        <time>2018-05-26T15:09:40Z</time>
      </trkpt>
      <trkpt lat="47.82401" lon="6.79072">
        <ele>1198.707397</ele>
        <time>2018-05-26T15:09:41Z</time>
      </trkpt>
      <trkpt lat="47.82402" lon="6.79073">
        <ele>1198.871704</ele>
        <time>2018-05-26T15:09:42Z</time>
      </trkpt>
      <trkpt lat="47.82403" lon="6.79074">
        <ele>1199.119507</ele>
        <time>2018-05-26T15:09:43Z</time>
      </trkpt>
      <trkpt lat="47.82404" lon="6.79076">
        <ele>1199.282104</ele>
        <time>2018-05-26T15:09:44Z</time>
      </trkpt>
      <trkpt lat="47.82405" lon="6.79077">
        <ele>1199.50647</ele>
        <time>2018-05-26T15:09:45Z</time>
      </trkpt>
      <trkpt lat="47.82406" lon="6.79079">
        <ele>1199.633179</ele>
        <time>2018-05-26T15:09:46Z</time>
      </trkpt>
      <trkpt lat="47.82407" lon="6.7908">
        <ele>1199.786255</ele>
        <time>2018-05-26T15:09:47Z</time>
      </trkpt>
      <trkpt lat="47.82408" lon="6.79081">
        <ele>1199.873657</ele>
        <time>2018-05-26T15:09:48Z</time>
      </trkpt>
      <trkpt lat="47.82409" lon="6.79082">
        <ele>1199.955444</ele>
        <time>2018-05-26T15:09:49Z</time>
      </trkpt>
      <trkpt lat="47.8241" lon="6.79083">
        <ele>1200.083984</ele>
        <time>2018-05-26T15:09:50Z</time>
      </trkpt>
      <trkpt lat="47.82412" lon="6.79084">
        <ele>1200.17981</ele>
        <time>2018-05-26T15:09:51Z</time>
      </trkpt>
      <trkpt lat="47.82413" lon="6.79085">
        <ele>1200.337158</ele>
        <time>2018-05-26T15:09:52Z</time>
      </trkpt>
      <trkpt lat="47.82414" lon="6.79086">
        <ele>1200.444702</ele>
        <time>2018-05-26T15:09:53Z</time>
      </trkpt>
      <trkpt lat="47.82415" lon="6.79088">
        <ele>1200.608032</ele>
        <time>2018-05-26T15:09:54Z</time>
      </trkpt>
      <trkpt lat="47.82416" lon="6.79089">
        <ele>1200.712891</ele>
        <time>2018-05-26T15:09:55Z</time>
      </trkpt>
      <trkpt lat="47.82417" lon="6.7909">
        <ele>1200.854614</ele>
        <time>2018-05-26T15:09:56Z</time>
      </trkpt>
      <trkpt lat="47.82418" lon="6.79092">
        <ele>1200.93811</ele>
        <time>2018-05-26T15:09:57Z</time>
      </trkpt>
      <trkpt lat="47.82419" lon="6.79094">
        <ele>1201.063354</ele>
        <time>2018-05-26T15:09:58Z</time>
      </trkpt>
      <trkpt lat="47.82421" lon="6.79095">
        <ele>1201.154907</ele>
        <time>2018-05-26T15:09:59Z</time>
      </trkpt>
      <trkpt lat="47.82422" lon="6.79096">
        <ele>1201.311646</ele>
        <time>2018-05-26T15:10:00Z</time>
      </trkpt>
      <trkpt lat="47.82423" lon="6.79097">
        <ele>1201.42688</ele>
        <time>2018-05-26T15:10:01Z</time>
      </trkpt>
      <trkpt lat="47.82424" lon="6.79099">
        <ele>1201.550171</ele>
        <time>2018-05-26T15:10:02Z</time>
      </trkpt>
      <trkpt lat="47.82425" lon="6.79101">
        <ele>1201.737427</ele>
        <time>2018-05-26T15:10:03Z</time>
      </trkpt>
      <trkpt lat="47.82426" lon="6.79102">
        <ele>1201.853882</ele>
        <time>2018-05-26T15:10:04Z</time>
      </trkpt>
      <trkpt lat="47.82427" lon="6.79103">
        <ele>1202.01416</ele>
        <time>2018-05-26T15:10:05Z</time>
      </trkpt>
      <trkpt lat="47.82428" lon="6.79105">
        <ele>1202.114868</ele>
        <time>2018-05-26T15:10:06Z</time>
      </trkpt>
      <trkpt lat="47.8243" lon="6.79106">
        <ele>1202.25647</ele>
        <time>2018-05-26T15:10:07Z</time>
      </trkpt>
      <trkpt lat="47.82431" lon="6.79107">
        <ele>1202.350708</ele>
        <time>2018-05-26T15:10:08Z</time>
      </trkpt>
      <trkpt lat="47.82432" lon="6.79109">
        <ele>1202.452637</ele>
        <time>2018-05-26T15:10:09Z</time>
      </trkpt>
      <trkpt lat="47.82433" lon="6.7911">
        <ele>1202.620239</ele>
        <time>2018-05-26T15:10:10Z</time>
      </trkpt>
      <trkpt lat="47.82434" lon="6.79111">
        <ele>1202.734253</ele>
        <time>2018-05-26T15:10:11Z</time>
      </trkpt>
      <trkpt lat="47.82435" lon="6.79112">
        <ele>1202.790161</ele>
        <time>2018-05-26T15:10:12Z</time>
      </trkpt>
      <trkpt lat="47.82437" lon="6.79113">
        <ele>1202.790161</ele>
        <time>2018-05-26T15:10:13Z</time>
      </trkpt>
      <trkpt lat="47.82438" lon="6.79114">
        <ele>1202.959595</ele>
        <time>2018-05-26T15:10:14Z</time>
      </trkpt>
      <trkpt lat="47.8244" lon="6.79115">
        <ele>1203.079712</ele>
        <time>2018-05-26T15:10:15Z</time>
      </trkpt>
      <trkpt lat="47.82442" lon="6.79117">
        <ele>1203.202271</ele>
        <time>2018-05-26T15:10:16Z</time>
      </trkpt>
      <trkpt lat="47.82444" lon="6.79118">
        <ele>1203.377319</ele>
        <time>2018-05-26T15:10:17Z</time>
      </trkpt>
      <trkpt lat="47.82446" lon="6.7912">
        <ele>1203.4823</ele>
        <time>2018-05-26T15:10:18Z</time>
      </trkpt>
      <trkpt lat="47.82447" lon="6.79121">
        <ele>1203.617065</ele>
        <time>2018-05-26T15:10:19Z</time>
      </trkpt>
      <trkpt lat="47.82449" lon="6.79122">
        <ele>1203.69519</ele>
        <time>2018-05-26T15:10:20Z</time>
      </trkpt>
      <trkpt lat="47.82451" lon="6.79123">
        <ele>1203.793945</ele>
        <time>2018-05-26T15:10:21Z</time>
      </trkpt>
      <trkpt lat="47.82453" lon="6.79124">
        <ele>1203.848999</ele>
        <time>2018-05-26T15:10:22Z</time>
      </trkpt>
      <trkpt lat="47.82455" lon="6.79125">
        <ele>1203.916748</ele>
        <time>2018-05-26T15:10:23Z</time>
      </trkpt>
      <trkpt lat="47.82457" lon="6.79126">
        <ele>1203.952026</ele>
        <time>2018-05-26T15:10:24Z</time>
      </trkpt>
      <trkpt lat="47.82459" lon="6.79127">
        <ele>1203.980347</ele>
        <time>2018-05-26T15:10:25Z</time>
      </trkpt>
      <trkpt lat="47.8246" lon="6.79128">
        <ele>1204.015015</ele>
        <time>2018-05-26T15:10:26Z</time>
      </trkpt>
      <trkpt lat="47.82462" lon="6.79128">
        <ele>1204.031982</ele>
        <time>2018-05-26T15:10:27Z</time>
      </trkpt>
      <trkpt lat="47.82464" lon="6.79129">
        <ele>1204.049072</ele>
        <time>2018-05-26T15:10:28Z</time>
      </trkpt>
      <trkpt lat="47.82467" lon="6.7913">
        <ele>1204.05835</ele>
        <time>2018-05-26T15:10:29Z</time>
      </trkpt>
      <trkpt lat="47.82469" lon="6.79131">
        <ele>1204.077026</ele>
        <time>2018-05-26T15:10:30Z</time>
      </trkpt>
      <trkpt lat="47.82471" lon="6.79132">
        <ele>1204.11084</ele>
        <time>2018-05-26T15:10:31Z</time>
      </trkpt>
      <trkpt lat="47.82473" lon="6.79133">
        <ele>1204.146851</ele>
        <time>2018-05-26T15:10:32Z</time>
      </trkpt>
      <trkpt lat="47.82476" lon="6.79133">
        <ele>1204.19104</ele>
        <time>2018-05-26T15:10:33Z</time>
      </trkpt>
      <trkpt lat="47.82478" lon="6.79134">
        <ele>1204.266479</ele>
        <time>2018-05-26T15:10:34Z</time>
      </trkpt>
      <trkpt lat="47.8248" lon="6.79134">
        <ele>1204.311157</ele>
        <time>2018-05-26T15:10:35Z</time>
      </trkpt>
      <trkpt lat="47.82482" lon="6.79135">
        <ele>1204.346802</ele>
        <time>2018-05-26T15:10:36Z</time>
      </trkpt>
      <trkpt lat="47.82484" lon="6.79136">
        <ele>1204.380737</ele>
        <time>2018-05-26T15:10:37Z</time>
      </trkpt>
      <trkpt lat="47.82486" lon="6.79137">
        <ele>1204.395508</ele>
        <time>2018-05-26T15:10:38Z</time>
      </trkpt>
      <trkpt lat="47.82489" lon="6.79137">
        <ele>1204.409912</ele>
        <time>2018-05-26T15:10:39Z</time>
      </trkpt>
      <trkpt lat="47.82491" lon="6.79138">
        <ele>1204.41748</ele>
        <time>2018-05-26T15:10:40Z</time>
      </trkpt>
      <trkpt lat="47.82493" lon="6.79139">
        <ele>1204.433228</ele>
        <time>2018-05-26T15:10:41Z</time>
      </trkpt>
      <trkpt lat="47.82496" lon="6.7914">
        <ele>1204.452515</ele>
        <time>2018-05-26T15:10:42Z</time>
      </trkpt>
      <trkpt lat="47.82497" lon="6.79141">
        <ele>1204.479614</ele>
        <time>2018-05-26T15:10:43Z</time>
      </trkpt>
      <trkpt lat="47.82499" lon="6.79142">
        <ele>1204.532349</ele>
        <time>2018-05-26T15:10:44Z</time>
      </trkpt>
      <trkpt lat="47.82502" lon="6.79143">
        <ele>1204.569946</ele>
        <time>2018-05-26T15:10:45Z</time>
      </trkpt>
      <trkpt lat="47.82504" lon="6.79144">
        <ele>1204.618652</ele>
        <time>2018-05-26T15:10:46Z</time>
      </trkpt>
      <trkpt lat="47.82506" lon="6.79145">
        <ele>1204.64978</ele>
        <time>2018-05-26T15:10:47Z</time>
      </trkpt>
      <trkpt lat="47.82507" lon="6.79146">
        <ele>1204.70752</ele>
        <time>2018-05-26T15:10:48Z</time>
      </trkpt>
      <trkpt lat="47.82516" lon="6.79153">
        <ele>1204.19397</ele>
        <time>2018-05-26T15:16:18Z</time>
      </trkpt>
      <trkpt lat="47.82518" lon="6.79154">
        <ele>1204.155029</ele>
        <time>2018-05-26T15:16:20Z</time>
      </trkpt>
      <trkpt lat="47.8252" lon="6.79155">
        <ele>1204.11438</ele>
        <time>2018-05-26T15:16:21Z</time>
      </trkpt>
      <trkpt lat="47.82523" lon="6.79156">
        <ele>1204.097046</ele>
        <time>2018-05-26T15:16:22Z</time>
      </trkpt>
      <trkpt lat="47.82526" lon="6.79157">
        <ele>1204.070923</ele>
        <time>2018-05-26T15:16:23Z</time>
      </trkpt>
      <trkpt lat="47.82529" lon="6.79158">
        <ele>1204.049927</ele>
        <time>2018-05-26T15:16:24Z</time>
      </trkpt>
      <trkpt lat="47.82532" lon="6.79159">
        <ele>1204.026733</ele>
        <time>2018-05-26T15:16:25Z</time>
      </trkpt>
      <trkpt lat="47.82535" lon="6.79161">
        <ele>1203.979858</ele>
        <time>2018-05-26T15:16:26Z</time>
      </trkpt>
      <trkpt lat="47.82538" lon="6.79163">
        <ele>1203.938599</ele>
        <time>2018-05-26T15:16:27Z</time>
      </trkpt>
      <trkpt lat="47.82541" lon="6.79165">
        <ele>1203.854614</ele>
        <time>2018-05-26T15:16:28Z</time>
      </trkpt>
      <trkpt lat="47.82543" lon="6.79167">
        <ele>1203.775635</ele>
        <time>2018-05-26T15:16:29Z</time>
      </trkpt>
      <trkpt lat="47.82546" lon="6.79169">
        <ele>1203.616333</ele>
        <time>2018-05-26T15:16:30Z</time>
      </trkpt>
      <trkpt lat="47.82549" lon="6.7917">
        <ele>1203.49292</ele>
        <time>2018-05-26T15:16:31Z</time>
      </trkpt>
      <trkpt lat="47.82552" lon="6.79172">
        <ele>1203.311646</ele>
        <time>2018-05-26T15:16:32Z</time>
      </trkpt>
      <trkpt lat="47.82554" lon="6.79174">
        <ele>1203.201538</ele>
        <time>2018-05-26T15:16:33Z</time>
      </trkpt>
      <trkpt lat="47.82557" lon="6.79177">
        <ele>1203.053955</ele>
        <time>2018-05-26T15:16:34Z</time>
      </trkpt>
      <trkpt lat="47.8256" lon="6.79179">
        <ele>1202.967896</ele>
        <time>2018-05-26T15:16:35Z</time>
      </trkpt>
      <trkpt lat="47.82563" lon="6.79182">
        <ele>1202.891235</ele>
        <time>2018-05-26T15:16:36Z</time>
      </trkpt>
      <trkpt lat="47.82566" lon="6.79184">
        <ele>1202.773315</ele>
        <time>2018-05-26T15:16:37Z</time>
      </trkpt>
      <trkpt lat="47.8257" lon="6.79185">
        <ele>1202.679077</ele>
        <time>2018-05-26T15:16:38Z</time>
      </trkpt>
      <trkpt lat="47.82573" lon="6.79186">
        <ele>1202.499634</ele>
        <time>2018-05-26T15:16:39Z</time>
      </trkpt>
      <trkpt lat="47.82576" lon="6.79188">
        <ele>1202.365356</ele>
        <time>2018-05-26T15:16:40Z</time>
      </trkpt>
      <trkpt lat="47.82578" lon="6.79189">
        <ele>1202.180542</ele>
        <time>2018-05-26T15:16:41Z</time>
      </trkpt>
      <trkpt lat="47.82581" lon="6.79191">
        <ele>1202.082642</ele>
        <time>2018-05-26T15:16:42Z</time>
      </trkpt>
      <trkpt lat="47.82585" lon="6.79194">
        <ele>1201.995728</ele>
        <time>2018-05-26T15:16:43Z</time>
      </trkpt>
      <trkpt lat="47.82589" lon="6.79196">
        <ele>1201.868652</ele>
        <time>2018-05-26T15:16:44Z</time>
      </trkpt>
      <trkpt lat="47.82593" lon="6.79199">
        <ele>1201.767578</ele>
        <time>2018-05-26T15:16:45Z</time>
      </trkpt>
      <trkpt lat="47.82597" lon="6.79202">
        <ele>1201.569824</ele>
        <time>2018-05-26T15:16:46Z</time>
      </trkpt>
      <trkpt lat="47.826" lon="6.79204">
        <ele>1201.405396</ele>
        <time>2018-05-26T15:16:47Z</time>
      </trkpt>
      <trkpt lat="47.82605" lon="6.79207">
        <ele>1201.11438</ele>
        <time>2018-05-26T15:16:48Z</time>
      </trkpt>
      <trkpt lat="47.82608" lon="6.7921">
        <ele>1200.895752</ele>
        <time>2018-05-26T15:16:49Z</time>
      </trkpt>
      <trkpt lat="47.82613" lon="6.79212">
        <ele>1200.54541</ele>
        <time>2018-05-26T15:16:50Z</time>
      </trkpt>
      <trkpt lat="47.82617" lon="6.79215">
        <ele>1200.326904</ele>
        <time>2018-05-26T15:16:51Z</time>
      </trkpt>
      <trkpt lat="47.82622" lon="6.79218">
        <ele>1200.132568</ele>
        <time>2018-05-26T15:16:52Z</time>
      </trkpt>
      <trkpt lat="47.82626" lon="6.7922">
        <ele>1199.849854</ele>
        <time>2018-05-26T15:16:53Z</time>
      </trkpt>
      <trkpt lat="47.82631" lon="6.79223">
        <ele>1199.634155</ele>
        <time>2018-05-26T15:16:54Z</time>
      </trkpt>
      <trkpt lat="47.82636" lon="6.79226">
        <ele>1199.264526</ele>
        <time>2018-05-26T15:16:55Z</time>
      </trkpt>
      <trkpt lat="47.82641" lon="6.79229">
        <ele>1199.001953</ele>
        <time>2018-05-26T15:16:56Z</time>
      </trkpt>
      <trkpt lat="47.82646" lon="6.79232">
        <ele>1198.726807</ele>
        <time>2018-05-26T15:16:57Z</time>
      </trkpt>
      <trkpt lat="47.82652" lon="6.79235">
        <ele>1198.263184</ele>
        <time>2018-05-26T15:16:58Z</time>
      </trkpt>
      <trkpt lat="47.82657" lon="6.79238">
        <ele>1197.911621</ele>
        <time>2018-05-26T15:16:59Z</time>
      </trkpt>
      <trkpt lat="47.82662" lon="6.79241">
        <ele>1197.339722</ele>
        <time>2018-05-26T15:17:00Z</time>
      </trkpt>
      <trkpt lat="47.82668" lon="6.79242">
        <ele>1196.947388</ele>
        <time>2018-05-26T15:17:01Z</time>
      </trkpt>
      <trkpt lat="47.82673" lon="6.79244">
        <ele>1196.385376</ele>
        <time>2018-05-26T15:17:02Z</time>
      </trkpt>
      <trkpt lat="47.82678" lon="6.79245">
        <ele>1196.048218</ele>
        <time>2018-05-26T15:17:03Z</time>
      </trkpt>
      <trkpt lat="47.82682" lon="6.79246">
        <ele>1195.747681</ele>
        <time>2018-05-26T15:17:04Z</time>
      </trkpt>
      <trkpt lat="47.82686" lon="6.79249">
        <ele>1195.370483</ele>
        <time>2018-05-26T15:17:05Z</time>
      </trkpt>
      <trkpt lat="47.82689" lon="6.79252">
        <ele>1195.170288</ele>
        <time>2018-05-26T15:17:06Z</time>
      </trkpt>
      <trkpt lat="47.82692" lon="6.79255">
        <ele>1194.945679</ele>
        <time>2018-05-26T15:17:07Z</time>
      </trkpt>
      <trkpt lat="47.82694" lon="6.79259">
        <ele>1194.828735</ele>
        <time>2018-05-26T15:17:08Z</time>
      </trkpt>
      <trkpt lat="47.82697" lon="6.79263">
        <ele>1194.729492</ele>
        <time>2018-05-26T15:17:09Z</time>
      </trkpt>
      <trkpt lat="47.82699" lon="6.79267">
        <ele>1194.596558</ele>
        <time>2018-05-26T15:17:10Z</time>
      </trkpt>
      <trkpt lat="47.82702" lon="6.7927">
        <ele>1194.508057</ele>
        <time>2018-05-26T15:17:11Z</time>
      </trkpt>
      <trkpt lat="47.82705" lon="6.79273">
        <ele>1194.356079</ele>
        <time>2018-05-26T15:17:12Z</time>
      </trkpt>
      <trkpt lat="47.82708" lon="6.79275">
        <ele>1194.241089</ele>
        <time>2018-05-26T15:17:13Z</time>
      </trkpt>
      <trkpt lat="47.82709" lon="6.79277">
        <ele>1194.057129</ele>
        <time>2018-05-26T15:17:14Z</time>
      </trkpt>
      <trkpt lat="47.82711" lon="6.79279">
        <ele>1193.923706</ele>
        <time>2018-05-26T15:17:15Z</time>
      </trkpt>
      <trkpt lat="47.82712" lon="6.7928">
        <ele>1193.789551</ele>
        <time>2018-05-26T15:17:16Z</time>
      </trkpt>
      <trkpt lat="47.82714" lon="6.79281">
        <ele>1193.723633</ele>
        <time>2018-05-26T15:17:17Z</time>
      </trkpt>
      <trkpt lat="47.82715" lon="6.79282">
        <ele>1193.723633</ele>
        <time>2018-05-26T15:17:18Z</time>
      </trkpt>
      <trkpt lat="47.82716" lon="6.79283">
        <ele>1193.599731</ele>
        <time>2018-05-26T15:17:19Z</time>
      </trkpt>
      <trkpt lat="47.82717" lon="6.79284">
        <ele>1193.42395</ele>
        <time>2018-05-26T15:17:20Z</time>
      </trkpt>
      <trkpt lat="47.82718" lon="6.79288">
        <ele>1193.309204</ele>
        <time>2018-05-26T15:17:21Z</time>
      </trkpt>
      <trkpt lat="47.82719" lon="6.79291">
        <ele>1193.144165</ele>
        <time>2018-05-26T15:17:22Z</time>
      </trkpt>
      <trkpt lat="47.82718" lon="6.79295">
        <ele>1193.042725</ele>
        <time>2018-05-26T15:17:23Z</time>
      </trkpt>
      <trkpt lat="47.82718" lon="6.79299">
        <ele>1192.894653</ele>
        <time>2018-05-26T15:17:24Z</time>
      </trkpt>
      <trkpt lat="47.82718" lon="6.79301">
        <ele>1192.795166</ele>
        <time>2018-05-26T15:17:25Z</time>
      </trkpt>
      <trkpt lat="47.82721" lon="6.79316">
        <ele>1191.391479</ele>
        <time>2018-05-26T15:17:53Z</time>
      </trkpt>
      <trkpt lat="47.82721" lon="6.79319">
        <ele>1191.399536</ele>
        <time>2018-05-26T15:17:55Z</time>
      </trkpt>
      <trkpt lat="47.82721" lon="6.79324">
        <ele>1191.399536</ele>
        <time>2018-05-26T15:17:56Z</time>
      </trkpt>
      <trkpt lat="47.8272" lon="6.79328">
        <ele>1191.395996</ele>
        <time>2018-05-26T15:17:57Z</time>
      </trkpt>
      <trkpt lat="47.8272" lon="6.79334">
        <ele>1191.368164</ele>
        <time>2018-05-26T15:17:58Z</time>
      </trkpt>
      <trkpt lat="47.82721" lon="6.7934">
        <ele>1191.328003</ele>
        <time>2018-05-26T15:17:59Z</time>
      </trkpt>
      <trkpt lat="47.82721" lon="6.79345">
        <ele>1191.219849</ele>
        <time>2018-05-26T15:18:00Z</time>
      </trkpt>
      <trkpt lat="47.82721" lon="6.7935">
        <ele>1191.116577</ele>
        <time>2018-05-26T15:18:01Z</time>
      </trkpt>
      <trkpt lat="47.8272" lon="6.79355">
        <ele>1190.939331</ele>
        <time>2018-05-26T15:18:02Z</time>
      </trkpt>
      <trkpt lat="47.82721" lon="6.79361">
        <ele>1190.812378</ele>
        <time>2018-05-26T15:18:03Z</time>
      </trkpt>
      <trkpt lat="47.82723" lon="6.79367">
        <ele>1190.678223</ele>
        <time>2018-05-26T15:18:04Z</time>
      </trkpt>
      <trkpt lat="47.82724" lon="6.79374">
        <ele>1190.464966</ele>
        <time>2018-05-26T15:18:05Z</time>
      </trkpt>
      <trkpt lat="47.82724" lon="6.7938">
        <ele>1190.317139</ele>
        <time>2018-05-26T15:18:06Z</time>
      </trkpt>
      <trkpt lat="47.82725" lon="6.79387">
        <ele>1190.079468</ele>
        <time>2018-05-26T15:18:07Z</time>
      </trkpt>
      <trkpt lat="47.82726" lon="6.79391">
        <ele>1189.904907</ele>
        <time>2018-05-26T15:18:08Z</time>
      </trkpt>
      <trkpt lat="47.82727" lon="6.79395">
        <ele>1189.635742</ele>
        <time>2018-05-26T15:18:09Z</time>
      </trkpt>
      <trkpt lat="47.82728" lon="6.79399">
        <ele>1189.454956</ele>
        <time>2018-05-26T15:18:10Z</time>
      </trkpt>
      <trkpt lat="47.82728" lon="6.79403">
        <ele>1189.274658</ele>
        <time>2018-05-26T15:18:11Z</time>
      </trkpt>
      <trkpt lat="47.82729" lon="6.79407">
        <ele>1189.012085</ele>
        <time>2018-05-26T15:18:12Z</time>
      </trkpt>
      <trkpt lat="47.82729" lon="6.79412">
        <ele>1188.853149</ele>
        <time>2018-05-26T15:18:13Z</time>
      </trkpt>
      <trkpt lat="47.8273" lon="6.79417">
        <ele>1188.635132</ele>
        <time>2018-05-26T15:18:14Z</time>
      </trkpt>
      <trkpt lat="47.8273" lon="6.79422">
        <ele>1188.494629</ele>
        <time>2018-05-26T15:18:15Z</time>
      </trkpt>
      <trkpt lat="47.82731" lon="6.79427">
        <ele>1188.343628</ele>
        <time>2018-05-26T15:18:16Z</time>
      </trkpt>
      <trkpt lat="47.82731" lon="6.79431">
        <ele>1188.101196</ele>
        <time>2018-05-26T15:18:17Z</time>
      </trkpt>
      <trkpt lat="47.82731" lon="6.79436">
        <ele>1188.017212</ele>
        <time>2018-05-26T15:18:18Z</time>
      </trkpt>
      <trkpt lat="47.82732" lon="6.79441">
        <ele>1187.848511</ele>
        <time>2018-05-26T15:18:19Z</time>
      </trkpt>
      <trkpt lat="47.82733" lon="6.79447">
        <ele>1187.608398</ele>
        <time>2018-05-26T15:18:20Z</time>
      </trkpt>
      <trkpt lat="47.82733" lon="6.79451">
        <ele>1187.474487</ele>
        <time>2018-05-26T15:18:21Z</time>
      </trkpt>
      <trkpt lat="47.82734" lon="6.79456">
        <ele>1187.33728</ele>
        <time>2018-05-26T15:18:22Z</time>
      </trkpt>
      <trkpt lat="47.82734" lon="6.79461">
        <ele>1187.286133</ele>
        <time>2018-05-26T15:18:23Z</time>
      </trkpt>
      <trkpt lat="47.82734" lon="6.79465">
        <ele>1187.250366</ele>
        <time>2018-05-26T15:18:24Z</time>
      </trkpt>
      <trkpt lat="47.82735" lon="6.79469">
        <ele>1187.248535</ele>
        <time>2018-05-26T15:18:25Z</time>
      </trkpt>
      <trkpt lat="47.82735" lon="6.79473">
        <ele>1187.25647</ele>
        <time>2018-05-26T15:18:26Z</time>
      </trkpt>
      <trkpt lat="47.82735" lon="6.79478">
        <ele>1187.280151</ele>
        <time>2018-05-26T15:18:27Z</time>
      </trkpt>
      <trkpt lat="47.82736" lon="6.79482">
        <ele>1187.310303</ele>
        <time>2018-05-26T15:18:28Z</time>
      </trkpt>
      <trkpt lat="47.82737" lon="6.79484">
        <ele>1187.357788</ele>
        <time>2018-05-26T15:18:29Z</time>
      </trkpt>
      <trkpt lat="47.82739" lon="6.79487">
        <ele>1187.391602</ele>
        <time>2018-05-26T15:18:30Z</time>
      </trkpt>
      <trkpt lat="47.82739" lon="6.79489">
        <ele>1187.456787</ele>
        <time>2018-05-26T15:18:31Z</time>
      </trkpt>
      <trkpt lat="47.82739" lon="6.79493">
        <ele>1187.509644</ele>
        <time>2018-05-26T15:18:32Z</time>
      </trkpt>
      <trkpt lat="47.82739" lon="6.79498">
        <ele>1187.571045</ele>
        <time>2018-05-26T15:18:33Z</time>
      </trkpt>
      <trkpt lat="47.8274" lon="6.79502">
        <ele>1187.592163</ele>
        <time>2018-05-26T15:18:34Z</time>
      </trkpt>
      <trkpt lat="47.82741" lon="6.79505">
        <ele>1187.610229</ele>
        <time>2018-05-26T15:18:35Z</time>
      </trkpt>
      <trkpt lat="47.82742" lon="6.79508">
        <ele>1187.612671</ele>
        <time>2018-05-26T15:18:36Z</time>
      </trkpt>
      <trkpt lat="47.82742" lon="6.79512">
        <ele>1187.609253</ele>
        <time>2018-05-26T15:18:37Z</time>
      </trkpt>
      <trkpt lat="47.82742" lon="6.79515">
        <ele>1187.597656</ele>
        <time>2018-05-26T15:18:38Z</time>
      </trkpt>
      <trkpt lat="47.82743" lon="6.79519">
        <ele>1187.579834</ele>
        <time>2018-05-26T15:18:39Z</time>
      </trkpt>
      <trkpt lat="47.82744" lon="6.79522">
        <ele>1187.55896</ele>
        <time>2018-05-26T15:18:40Z</time>
      </trkpt>
      <trkpt lat="47.82746" lon="6.79526">
        <ele>1187.552368</ele>
        <time>2018-05-26T15:18:41Z</time>
      </trkpt>
      <trkpt lat="47.82747" lon="6.79529">
        <ele>1187.550781</ele>
        <time>2018-05-26T15:18:42Z</time>
      </trkpt>
      <trkpt lat="47.82748" lon="6.79531">
        <ele>1187.553223</ele>
        <time>2018-05-26T15:18:43Z</time>
      </trkpt>
      <trkpt lat="47.8275" lon="6.79533">
        <ele>1187.561401</ele>
        <time>2018-05-26T15:18:44Z</time>
      </trkpt>
      <trkpt lat="47.82752" lon="6.79534">
        <ele>1187.578491</ele>
        <time>2018-05-26T15:18:45Z</time>
      </trkpt>
      <trkpt lat="47.82755" lon="6.79534">
        <ele>1187.619751</ele>
        <time>2018-05-26T15:18:46Z</time>
      </trkpt>
      <trkpt lat="47.82757" lon="6.79535">
        <ele>1187.747192</ele>
        <time>2018-05-26T15:18:47Z</time>
      </trkpt>
      <trkpt lat="47.82758" lon="6.79537">
        <ele>1187.872559</ele>
        <time>2018-05-26T15:18:48Z</time>
      </trkpt>
      <trkpt lat="47.82758" lon="6.7954">
        <ele>1188.119019</ele>
        <time>2018-05-26T15:18:49Z</time>
      </trkpt>
      <trkpt lat="47.82758" lon="6.79542">
        <ele>1188.314575</ele>
        <time>2018-05-26T15:18:50Z</time>
      </trkpt>
      <trkpt lat="47.82759" lon="6.79545">
        <ele>1188.522949</ele>
        <time>2018-05-26T15:18:51Z</time>
      </trkpt>
      <trkpt lat="47.8276" lon="6.79548">
        <ele>1188.837524</ele>
        <time>2018-05-26T15:18:52Z</time>
      </trkpt>
      <trkpt lat="47.82761" lon="6.7955">
        <ele>1189.047729</ele>
        <time>2018-05-26T15:18:53Z</time>
      </trkpt>
      <trkpt lat="47.82763" lon="6.79553">
        <ele>1189.362915</ele>
        <time>2018-05-26T15:18:54Z</time>
      </trkpt>
      <trkpt lat="47.82764" lon="6.79555">
        <ele>1189.565796</ele>
        <time>2018-05-26T15:18:55Z</time>
      </trkpt>
      <trkpt lat="47.82766" lon="6.79557">
        <ele>1189.839478</ele>
        <time>2018-05-26T15:18:56Z</time>
      </trkpt>
      <trkpt lat="47.82767" lon="6.79558">
        <ele>1190.002441</ele>
        <time>2018-05-26T15:18:57Z</time>
      </trkpt>
      <trkpt lat="47.82768" lon="6.7956">
        <ele>1190.156006</ele>
        <time>2018-05-26T15:18:58Z</time>
      </trkpt>
      <trkpt lat="47.82769" lon="6.79562">
        <ele>1190.384644</ele>
        <time>2018-05-26T15:18:59Z</time>
      </trkpt>
      <trkpt lat="47.8277" lon="6.79564">
        <ele>1190.542603</ele>
        <time>2018-05-26T15:19:00Z</time>
      </trkpt>
      <trkpt lat="47.8277" lon="6.79566">
        <ele>1190.793091</ele>
        <time>2018-05-26T15:19:01Z</time>
      </trkpt>
      <trkpt lat="47.82771" lon="6.79568">
        <ele>1190.963623</ele>
        <time>2018-05-26T15:19:02Z</time>
      </trkpt>
      <trkpt lat="47.82771" lon="6.79571">
        <ele>1191.126099</ele>
        <time>2018-05-26T15:19:03Z</time>
      </trkpt>
      <trkpt lat="47.82772" lon="6.79573">
        <ele>1191.338867</ele>
        <time>2018-05-26T15:19:04Z</time>
      </trkpt>
      <trkpt lat="47.82773" lon="6.79576">
        <ele>1191.453125</ele>
        <time>2018-05-26T15:19:05Z</time>
      </trkpt>
      <trkpt lat="47.82774" lon="6.79577">
        <ele>1191.583984</ele>
        <time>2018-05-26T15:19:06Z</time>
      </trkpt>
      <trkpt lat="47.82774" lon="6.79579">
        <ele>1191.643921</ele>
        <time>2018-05-26T15:19:07Z</time>
      </trkpt>
      <trkpt lat="47.82775" lon="6.79581">
        <ele>1191.704468</ele>
        <time>2018-05-26T15:19:08Z</time>
      </trkpt>
      <trkpt lat="47.82776" lon="6.79583">
        <ele>1191.733521</ele>
        <time>2018-05-26T15:19:09Z</time>
      </trkpt>
      <trkpt lat="47.82776" lon="6.79585">
        <ele>1191.756226</ele>
        <time>2018-05-26T15:19:10Z</time>
      </trkpt>
      <trkpt lat="47.82777" lon="6.79588">
        <ele>1191.779175</ele>
        <time>2018-05-26T15:19:11Z</time>
      </trkpt>
      <trkpt lat="47.82778" lon="6.7959">
        <ele>1191.795288</ele>
        <time>2018-05-26T15:19:12Z</time>
      </trkpt>
      <trkpt lat="47.82779" lon="6.79592">
        <ele>1191.841797</ele>
        <time>2018-05-26T15:19:13Z</time>
      </trkpt>
      <trkpt lat="47.8278" lon="6.79595">
        <ele>1191.884155</ele>
        <time>2018-05-26T15:19:14Z</time>
      </trkpt>
      <trkpt lat="47.82781" lon="6.79598">
        <ele>1191.945801</ele>
        <time>2018-05-26T15:19:15Z</time>
      </trkpt>
      <trkpt lat="47.82782" lon="6.796">
        <ele>1191.984985</ele>
        <time>2018-05-26T15:19:16Z</time>
      </trkpt>
      <trkpt lat="47.82783" lon="6.79602">
        <ele>1192.029541</ele>
        <time>2018-05-26T15:19:17Z</time>
      </trkpt>
      <trkpt lat="47.82784" lon="6.79604">
        <ele>1192.101685</ele>
        <time>2018-05-26T15:19:18Z</time>
      </trkpt>
      <trkpt lat="47.82785" lon="6.79606">
        <ele>1192.141479</ele>
        <time>2018-05-26T15:19:19Z</time>
      </trkpt>
      <trkpt lat="47.82786" lon="6.79609">
        <ele>1192.166992</ele>
        <time>2018-05-26T15:19:20Z</time>
      </trkpt>
      <trkpt lat="47.82786" lon="6.79611">
        <ele>1192.17688</ele>
        <time>2018-05-26T15:19:21Z</time>
      </trkpt>
      <trkpt lat="47.82787" lon="6.79614">
        <ele>1192.175903</ele>
        <time>2018-05-26T15:19:22Z</time>
      </trkpt>
      <trkpt lat="47.82788" lon="6.79618">
        <ele>1192.160522</ele>
        <time>2018-05-26T15:19:23Z</time>
      </trkpt>
      <trkpt lat="47.82788" lon="6.79621">
        <ele>1192.099487</ele>
        <time>2018-05-26T15:19:24Z</time>
      </trkpt>
      <trkpt lat="47.82789" lon="6.79624">
        <ele>1192.029297</ele>
        <time>2018-05-26T15:19:25Z</time>
      </trkpt>
      <trkpt lat="47.8279" lon="6.79626">
        <ele>1191.876953</ele>
        <time>2018-05-26T15:19:26Z</time>
      </trkpt>
      <trkpt lat="47.82791" lon="6.79626">
        <ele>1191.748169</ele>
        <time>2018-05-26T15:19:27Z</time>
      </trkpt>
      <trkpt lat="47.82792" lon="6.79627">
        <ele>1191.537231</ele>
        <time>2018-05-26T15:19:28Z</time>
      </trkpt>
      <trkpt lat="47.82793" lon="6.79627">
        <ele>1191.401978</ele>
        <time>2018-05-26T15:19:29Z</time>
      </trkpt>
      <trkpt lat="47.82793" lon="6.79628">
        <ele>1191.19043</ele>
        <time>2018-05-26T15:19:32Z</time>
      </trkpt>
      <trkpt lat="47.82794" lon="6.79629">
        <ele>1191.32605</ele>
        <time>2018-05-26T15:19:34Z</time>
      </trkpt>
      <trkpt lat="47.82801" lon="6.79644">
        <ele>1191.038452</ele>
        <time>2018-05-26T15:19:57Z</time>
      </trkpt>
      <trkpt lat="47.82803" lon="6.79647">
        <ele>1191.003784</ele>
        <time>2018-05-26T15:19:59Z</time>
      </trkpt>
      <trkpt lat="47.82806" lon="6.79649">
        <ele>1190.94104</ele>
        <time>2018-05-26T15:20:00Z</time>
      </trkpt>
      <trkpt lat="47.82808" lon="6.79651">
        <ele>1190.89209</ele>
        <time>2018-05-26T15:20:01Z</time>
      </trkpt>
      <trkpt lat="47.82811" lon="6.79653">
        <ele>1190.832031</ele>
        <time>2018-05-26T15:20:02Z</time>
      </trkpt>
      <trkpt lat="47.82812" lon="6.79655">
        <ele>1190.813599</ele>
        <time>2018-05-26T15:20:03Z</time>
      </trkpt>
      <trkpt lat="47.82814" lon="6.79657">
        <ele>1190.814819</ele>
        <time>2018-05-26T15:20:04Z</time>
      </trkpt>
      <trkpt lat="47.82816" lon="6.79659">
        <ele>1190.83728</ele>
        <time>2018-05-26T15:20:05Z</time>
      </trkpt>
      <trkpt lat="47.82816" lon="6.79661">
        <ele>1190.895874</ele>
        <time>2018-05-26T15:20:06Z</time>
      </trkpt>
      <trkpt lat="47.82818" lon="6.79662">
        <ele>1191.031128</ele>
        <time>2018-05-26T15:20:07Z</time>
      </trkpt>
      <trkpt lat="47.82819" lon="6.79663">
        <ele>1191.137817</ele>
        <time>2018-05-26T15:20:08Z</time>
      </trkpt>
      <trkpt lat="47.82821" lon="6.79665">
        <ele>1191.301758</ele>
        <time>2018-05-26T15:20:09Z</time>
      </trkpt>
      <trkpt lat="47.82822" lon="6.79667">
        <ele>1191.418091</ele>
        <time>2018-05-26T15:20:10Z</time>
      </trkpt>
      <trkpt lat="47.82822" lon="6.79668">
        <ele>1191.539917</ele>
        <time>2018-05-26T15:20:11Z</time>
      </trkpt>
      <trkpt lat="47.82824" lon="6.79669">
        <ele>1191.73291</ele>
        <time>2018-05-26T15:20:12Z</time>
      </trkpt>
      <trkpt lat="47.82825" lon="6.79671">
        <ele>1191.858398</ele>
        <time>2018-05-26T15:20:13Z</time>
      </trkpt>
      <trkpt lat="47.82826" lon="6.79673">
        <ele>1192.031616</ele>
        <time>2018-05-26T15:20:14Z</time>
      </trkpt>
      <trkpt lat="47.82827" lon="6.79676">
        <ele>1192.133423</ele>
        <time>2018-05-26T15:20:15Z</time>
      </trkpt>
      <trkpt lat="47.82829" lon="6.79678">
        <ele>1192.294312</ele>
        <time>2018-05-26T15:20:16Z</time>
      </trkpt>
      <trkpt lat="47.82831" lon="6.79679">
        <ele>1192.414795</ele>
        <time>2018-05-26T15:20:17Z</time>
      </trkpt>
      <trkpt lat="47.82833" lon="6.7968">
        <ele>1192.55188</ele>
        <time>2018-05-26T15:20:18Z</time>
      </trkpt>
      <trkpt lat="47.82834" lon="6.7968">
        <ele>1192.772339</ele>
        <time>2018-05-26T15:20:19Z</time>
      </trkpt>
      <trkpt lat="47.82835" lon="6.79681">
        <ele>1192.848389</ele>
        <time>2018-05-26T15:20:20Z</time>
      </trkpt>
      <trkpt lat="47.82837" lon="6.79683">
        <ele>1192.848389</ele>
        <time>2018-05-26T15:20:21Z</time>
      </trkpt>
      <trkpt lat="47.82838" lon="6.79685">
        <ele>1193.076416</ele>
        <time>2018-05-26T15:20:22Z</time>
      </trkpt>
      <trkpt lat="47.82839" lon="6.79687">
        <ele>1193.23645</ele>
        <time>2018-05-26T15:20:23Z</time>
      </trkpt>
      <trkpt lat="47.82841" lon="6.79689">
        <ele>1193.399292</ele>
        <time>2018-05-26T15:20:24Z</time>
      </trkpt>
      <trkpt lat="47.82842" lon="6.7969">
        <ele>1193.630615</ele>
        <time>2018-05-26T15:20:25Z</time>
      </trkpt>
      <trkpt lat="47.82843" lon="6.79692">
        <ele>1193.767212</ele>
        <time>2018-05-26T15:20:26Z</time>
      </trkpt>
      <trkpt lat="47.82845" lon="6.79694">
        <ele>1193.940796</ele>
        <time>2018-05-26T15:20:27Z</time>
      </trkpt>
      <trkpt lat="47.82847" lon="6.79694">
        <ele>1194.035278</ele>
        <time>2018-05-26T15:20:28Z</time>
      </trkpt>
      <trkpt lat="47.82849" lon="6.79695">
        <ele>1194.155273</ele>
        <time>2018-05-26T15:20:29Z</time>
      </trkpt>
      <trkpt lat="47.82851" lon="6.79696">
        <ele>1194.226196</ele>
        <time>2018-05-26T15:20:30Z</time>
      </trkpt>
      <trkpt lat="47.82852" lon="6.79697">
        <ele>1194.334106</ele>
        <time>2018-05-26T15:20:31Z</time>
      </trkpt>
      <trkpt lat="47.82853" lon="6.79699">
        <ele>1194.417725</ele>
        <time>2018-05-26T15:20:32Z</time>
      </trkpt>
      <trkpt lat="47.82854" lon="6.797">
        <ele>1194.513306</ele>
        <time>2018-05-26T15:20:33Z</time>
      </trkpt>
      <trkpt lat="47.82855" lon="6.79701">
        <ele>1194.681274</ele>
        <time>2018-05-26T15:20:34Z</time>
      </trkpt>
      <trkpt lat="47.82855" lon="6.79702">
        <ele>1194.800049</ele>
        <time>2018-05-26T15:20:35Z</time>
      </trkpt>
      <trkpt lat="47.82856" lon="6.79704">
        <ele>1194.966919</ele>
        <time>2018-05-26T15:20:36Z</time>
      </trkpt>
      <trkpt lat="47.82857" lon="6.79705">
        <ele>1195.06311</ele>
        <time>2018-05-26T15:20:37Z</time>
      </trkpt>
      <trkpt lat="47.82859" lon="6.79706">
        <ele>1195.194702</ele>
        <time>2018-05-26T15:20:38Z</time>
      </trkpt>
      <trkpt lat="47.82861" lon="6.79707">
        <ele>1195.276733</ele>
        <time>2018-05-26T15:20:39Z</time>
      </trkpt>
      <trkpt lat="47.82863" lon="6.79708">
        <ele>1195.395874</ele>
        <time>2018-05-26T15:20:40Z</time>
      </trkpt>
      <trkpt lat="47.82864" lon="6.7971">
        <ele>1195.468994</ele>
        <time>2018-05-26T15:20:41Z</time>
      </trkpt>
      <trkpt lat="47.82864" lon="6.79712">
        <ele>1195.569336</ele>
        <time>2018-05-26T15:20:42Z</time>
      </trkpt>
      <trkpt lat="47.82866" lon="6.79713">
        <ele>1195.633179</ele>
        <time>2018-05-26T15:20:43Z</time>
      </trkpt>
      <trkpt lat="47.82867" lon="6.79715">
        <ele>1195.723267</ele>
        <time>2018-05-26T15:20:44Z</time>
      </trkpt>
      <trkpt lat="47.82868" lon="6.79717">
        <ele>1195.770996</ele>
        <time>2018-05-26T15:20:45Z</time>
      </trkpt>
      <trkpt lat="47.82869" lon="6.79719">
        <ele>1195.81311</ele>
        <time>2018-05-26T15:20:46Z</time>
      </trkpt>
      <trkpt lat="47.8287" lon="6.79722">
        <ele>1195.875488</ele>
        <time>2018-05-26T15:20:47Z</time>
      </trkpt>
      <trkpt lat="47.82871" lon="6.79724">
        <ele>1195.912231</ele>
        <time>2018-05-26T15:20:48Z</time>
      </trkpt>
      <trkpt lat="47.82873" lon="6.79727">
        <ele>1195.930542</ele>
        <time>2018-05-26T15:20:49Z</time>
      </trkpt>
      <trkpt lat="47.82874" lon="6.7973">
        <ele>1195.930542</ele>
        <time>2018-05-26T15:20:50Z</time>
      </trkpt>
      <trkpt lat="47.82876" lon="6.79733">
        <ele>1195.910889</ele>
        <time>2018-05-26T15:20:51Z</time>
      </trkpt>
      <trkpt lat="47.82877" lon="6.79736">
        <ele>1195.88208</ele>
        <time>2018-05-26T15:20:52Z</time>
      </trkpt>
      <trkpt lat="47.82879" lon="6.79738">
        <ele>1195.829712</ele>
        <time>2018-05-26T15:20:53Z</time>
      </trkpt>
      <trkpt lat="47.82881" lon="6.7974">
        <ele>1195.701538</ele>
        <time>2018-05-26T15:20:54Z</time>
      </trkpt>
      <trkpt lat="47.82883" lon="6.79743">
        <ele>1195.603027</ele>
        <time>2018-05-26T15:20:55Z</time>
      </trkpt>
      <trkpt lat="47.82885" lon="6.79746">
        <ele>1195.463501</ele>
        <time>2018-05-26T15:20:56Z</time>
      </trkpt>
      <trkpt lat="47.82887" lon="6.79749">
        <ele>1195.371948</ele>
        <time>2018-05-26T15:20:57Z</time>
      </trkpt>
      <trkpt lat="47.82889" lon="6.79751">
        <ele>1195.244507</ele>
        <time>2018-05-26T15:20:58Z</time>
      </trkpt>
      <trkpt lat="47.8289" lon="6.79753">
        <ele>1195.174194</ele>
        <time>2018-05-26T15:20:59Z</time>
      </trkpt>
      <trkpt lat="47.82893" lon="6.79755">
        <ele>1195.115234</ele>
        <time>2018-05-26T15:21:00Z</time>
      </trkpt>
      <trkpt lat="47.82895" lon="6.79756">
        <ele>1195.040283</ele>
        <time>2018-05-26T15:21:01Z</time>
      </trkpt>
      <trkpt lat="47.82897" lon="6.79758">
        <ele>1194.992065</ele>
        <time>2018-05-26T15:21:02Z</time>
      </trkpt>
      <trkpt lat="47.829" lon="6.7976">
        <ele>1194.928589</ele>
        <time>2018-05-26T15:21:03Z</time>
      </trkpt>
      <trkpt lat="47.82901" lon="6.79764">
        <ele>1194.89563</ele>
        <time>2018-05-26T15:21:04Z</time>
      </trkpt>
      <trkpt lat="47.82903" lon="6.79767">
        <ele>1194.864624</ele>
        <time>2018-05-26T15:21:05Z</time>
      </trkpt>
      <trkpt lat="47.82905" lon="6.79769">
        <ele>1194.811401</ele>
        <time>2018-05-26T15:21:06Z</time>
      </trkpt>
      <trkpt lat="47.82908" lon="6.79771">
        <ele>1194.782104</ele>
        <time>2018-05-26T15:21:07Z</time>
      </trkpt>
      <trkpt lat="47.8291" lon="6.79773">
        <ele>1194.749023</ele>
        <time>2018-05-26T15:21:08Z</time>
      </trkpt>
      <trkpt lat="47.82912" lon="6.79775">
        <ele>1194.723267</ele>
        <time>2018-05-26T15:21:09Z</time>
      </trkpt>
      <trkpt lat="47.82914" lon="6.79776">
        <ele>1194.664185</ele>
        <time>2018-05-26T15:21:10Z</time>
      </trkpt>
      <trkpt lat="47.82916" lon="6.79776">
        <ele>1194.618042</ele>
        <time>2018-05-26T15:21:11Z</time>
      </trkpt>
      <trkpt lat="47.82917" lon="6.79776">
        <ele>1194.526733</ele>
        <time>2018-05-26T15:21:12Z</time>
      </trkpt>
      <trkpt lat="47.82917" lon="6.79777">
        <ele>1194.493774</ele>
        <time>2018-05-26T15:21:14Z</time>
      </trkpt>
      <trkpt lat="47.82918" lon="6.79778">
        <ele>1194.444336</ele>
        <time>2018-05-26T15:21:15Z</time>
      </trkpt>
      <trkpt lat="47.8292" lon="6.7978">
        <ele>1194.416504</ele>
        <time>2018-05-26T15:21:16Z</time>
      </trkpt>
      <trkpt lat="47.82922" lon="6.79781">
        <ele>1194.378906</ele>
        <time>2018-05-26T15:21:17Z</time>
      </trkpt>
      <trkpt lat="47.82924" lon="6.79782">
        <ele>1194.349243</ele>
        <time>2018-05-26T15:21:18Z</time>
      </trkpt>
      <trkpt lat="47.82927" lon="6.79783">
        <ele>1194.310181</ele>
        <time>2018-05-26T15:21:19Z</time>
      </trkpt>
      <trkpt lat="47.82929" lon="6.79784">
        <ele>1194.230591</ele>
        <time>2018-05-26T15:21:20Z</time>
      </trkpt>
      <trkpt lat="47.82932" lon="6.79786">
        <ele>1194.158936</ele>
        <time>2018-05-26T15:21:21Z</time>
      </trkpt>
      <trkpt lat="47.82935" lon="6.79786">
        <ele>1194.072632</ele>
        <time>2018-05-26T15:21:22Z</time>
      </trkpt>
      <trkpt lat="47.82937" lon="6.79787">
        <ele>1193.974976</ele>
        <time>2018-05-26T15:21:23Z</time>
      </trkpt>
      <trkpt lat="47.8294" lon="6.79789">
        <ele>1193.815186</ele>
        <time>2018-05-26T15:21:24Z</time>
      </trkpt>
      <trkpt lat="47.82941" lon="6.7979">
        <ele>1193.708374</ele>
        <time>2018-05-26T15:21:25Z</time>
      </trkpt>
      <trkpt lat="47.82944" lon="6.79792">
        <ele>1193.562866</ele>
        <time>2018-05-26T15:21:26Z</time>
      </trkpt>
      <trkpt lat="47.82946" lon="6.79795">
        <ele>1193.477295</ele>
        <time>2018-05-26T15:21:27Z</time>
      </trkpt>
      <trkpt lat="47.82949" lon="6.79797">
        <ele>1193.354126</ele>
        <time>2018-05-26T15:21:28Z</time>
      </trkpt>
      <trkpt lat="47.82952" lon="6.798">
        <ele>1193.265747</ele>
        <time>2018-05-26T15:21:29Z</time>
      </trkpt>
      <trkpt lat="47.82954" lon="6.79803">
        <ele>1193.119507</ele>
        <time>2018-05-26T15:21:30Z</time>
      </trkpt>
      <trkpt lat="47.82958" lon="6.79807">
        <ele>1193.012817</ele>
        <time>2018-05-26T15:21:31Z</time>
      </trkpt>
      <trkpt lat="47.82962" lon="6.79811">
        <ele>1192.826416</ele>
        <time>2018-05-26T15:21:32Z</time>
      </trkpt>
      <trkpt lat="47.82964" lon="6.79816">
        <ele>1192.679565</ele>
        <time>2018-05-26T15:21:33Z</time>
      </trkpt>
      <trkpt lat="47.82967" lon="6.7982">
        <ele>1192.426636</ele>
        <time>2018-05-26T15:21:34Z</time>
      </trkpt>
      <trkpt lat="47.82969" lon="6.79825">
        <ele>1192.242188</ele>
        <time>2018-05-26T15:21:35Z</time>
      </trkpt>
      <trkpt lat="47.82972" lon="6.79828">
        <ele>1192.04541</ele>
        <time>2018-05-26T15:21:36Z</time>
      </trkpt>
      <trkpt lat="47.82975" lon="6.7983">
        <ele>1191.709595</ele>
        <time>2018-05-26T15:21:37Z</time>
      </trkpt>
      <trkpt lat="47.82979" lon="6.79831">
        <ele>1191.454712</ele>
        <time>2018-05-26T15:21:38Z</time>
      </trkpt>
      <trkpt lat="47.82982" lon="6.79832">
        <ele>1191.025269</ele>
        <time>2018-05-26T15:21:39Z</time>
      </trkpt>
      <trkpt lat="47.82986" lon="6.79833">
        <ele>1190.709106</ele>
        <time>2018-05-26T15:21:40Z</time>
      </trkpt>
      <trkpt lat="47.82989" lon="6.79834">
        <ele>1190.212524</ele>
        <time>2018-05-26T15:21:41Z</time>
      </trkpt>
      <trkpt lat="47.82993" lon="6.79835">
        <ele>1189.890747</ele>
        <time>2018-05-26T15:21:42Z</time>
      </trkpt>
      <trkpt lat="47.82995" lon="6.79836">
        <ele>1189.584839</ele>
        <time>2018-05-26T15:21:43Z</time>
      </trkpt>
      <trkpt lat="47.82997" lon="6.79836">
        <ele>1189.180786</ele>
        <time>2018-05-26T15:21:44Z</time>
      </trkpt>
      <trkpt lat="47.82998" lon="6.79836">
        <ele>1188.960449</ele>
        <time>2018-05-26T15:21:45Z</time>
      </trkpt>
      <trkpt lat="47.82999" lon="6.79838">
        <ele>1188.696167</ele>
        <time>2018-05-26T15:21:46Z</time>
      </trkpt>
      <trkpt lat="47.83" lon="6.7984">
        <ele>1188.5448</ele>
        <time>2018-05-26T15:21:47Z</time>
      </trkpt>
      <trkpt lat="47.83001" lon="6.79842">
        <ele>1188.338623</ele>
        <time>2018-05-26T15:21:48Z</time>
      </trkpt>
      <trkpt lat="47.83002" lon="6.79844">
        <ele>1188.208862</ele>
        <time>2018-05-26T15:21:49Z</time>
      </trkpt>
      <trkpt lat="47.83003" lon="6.79846">
        <ele>1188.032959</ele>
        <time>2018-05-26T15:21:50Z</time>
      </trkpt>
      <trkpt lat="47.83004" lon="6.79847">
        <ele>1187.91272</ele>
        <time>2018-05-26T15:21:51Z</time>
      </trkpt>
      <trkpt lat="47.83005" lon="6.79849">
        <ele>1187.778198</ele>
        <time>2018-05-26T15:21:52Z</time>
      </trkpt>
      <trkpt lat="47.83006" lon="6.79852">
        <ele>1187.555908</ele>
        <time>2018-05-26T15:21:53Z</time>
      </trkpt>
      <trkpt lat="47.83007" lon="6.79855">
        <ele>1187.40271</ele>
        <time>2018-05-26T15:21:54Z</time>
      </trkpt>
      <trkpt lat="47.83008" lon="6.79858">
        <ele>1187.164795</ele>
        <time>2018-05-26T15:21:55Z</time>
      </trkpt>
      <trkpt lat="47.83008" lon="6.79862">
        <ele>1186.99353</ele>
        <time>2018-05-26T15:21:56Z</time>
      </trkpt>
      <trkpt lat="47.83009" lon="6.79865">
        <ele>1186.812988</ele>
        <time>2018-05-26T15:21:57Z</time>
      </trkpt>
      <trkpt lat="47.83009" lon="6.79868">
        <ele>1186.531372</ele>
        <time>2018-05-26T15:21:58Z</time>
      </trkpt>
      <trkpt lat="47.83011" lon="6.7987">
        <ele>1186.343384</ele>
        <time>2018-05-26T15:21:59Z</time>
      </trkpt>
      <trkpt lat="47.83011" lon="6.7987">
        <ele>1186.04895</ele>
        <time>2018-05-26T15:22:00Z</time>
      </trkpt>
      <trkpt lat="47.83009" lon="6.79856">
        <ele>1185.59436</ele>
        <time>2018-05-26T15:31:33Z</time>
      </trkpt>
      <trkpt lat="47.83008" lon="6.79854">
        <ele>1185.660645</ele>
        <time>2018-05-26T15:31:35Z</time>
      </trkpt>
      <trkpt lat="47.83007" lon="6.79851">
        <ele>1185.699097</ele>
        <time>2018-05-26T15:31:36Z</time>
      </trkpt>
      <trkpt lat="47.83007" lon="6.79849">
        <ele>1185.754517</ele>
        <time>2018-05-26T15:31:37Z</time>
      </trkpt>
      <trkpt lat="47.83006" lon="6.79847">
        <ele>1185.806641</ele>
        <time>2018-05-26T15:31:38Z</time>
      </trkpt>
      <trkpt lat="47.83004" lon="6.79846">
        <ele>1185.932251</ele>
        <time>2018-05-26T15:31:39Z</time>
      </trkpt>
      <trkpt lat="47.83003" lon="6.79844">
        <ele>1186.048828</ele>
        <time>2018-05-26T15:31:40Z</time>
      </trkpt>
      <trkpt lat="47.83002" lon="6.79842">
        <ele>1186.192261</ele>
        <time>2018-05-26T15:31:41Z</time>
      </trkpt>
      <trkpt lat="47.83001" lon="6.79839">
        <ele>1186.457153</ele>
        <time>2018-05-26T15:31:42Z</time>
      </trkpt>
      <trkpt lat="47.83" lon="6.79837">
        <ele>1186.655762</ele>
        <time>2018-05-26T15:31:43Z</time>
      </trkpt>
      <trkpt lat="47.82999" lon="6.79836">
        <ele>1186.956909</ele>
        <time>2018-05-26T15:31:44Z</time>
      </trkpt>
      <trkpt lat="47.82998" lon="6.79836">
        <ele>1187.149536</ele>
        <time>2018-05-26T15:31:45Z</time>
      </trkpt>
      <trkpt lat="47.82995" lon="6.79836">
        <ele>1187.3302</ele>
        <time>2018-05-26T15:31:46Z</time>
      </trkpt>
      <trkpt lat="47.82994" lon="6.79835">
        <ele>1187.567383</ele>
        <time>2018-05-26T15:31:47Z</time>
      </trkpt>
      <trkpt lat="47.82992" lon="6.79835">
        <ele>1187.701172</ele>
        <time>2018-05-26T15:31:48Z</time>
      </trkpt>
      <trkpt lat="47.82991" lon="6.79834">
        <ele>1187.877075</ele>
        <time>2018-05-26T15:31:49Z</time>
      </trkpt>
      <trkpt lat="47.8299" lon="6.79833">
        <ele>1187.978271</ele>
        <time>2018-05-26T15:31:50Z</time>
      </trkpt>
      <trkpt lat="47.82988" lon="6.79832">
        <ele>1188.106812</ele>
        <time>2018-05-26T15:31:51Z</time>
      </trkpt>
      <trkpt lat="47.82987" lon="6.79832">
        <ele>1188.187134</ele>
        <time>2018-05-26T15:31:52Z</time>
      </trkpt>
      <trkpt lat="47.82986" lon="6.79832">
        <ele>1188.266479</ele>
        <time>2018-05-26T15:31:53Z</time>
      </trkpt>
      <trkpt lat="47.82985" lon="6.79831">
        <ele>1188.373169</ele>
        <time>2018-05-26T15:31:54Z</time>
      </trkpt>
      <trkpt lat="47.82983" lon="6.79831">
        <ele>1188.430054</ele>
        <time>2018-05-26T15:31:55Z</time>
      </trkpt>
      <trkpt lat="47.82982" lon="6.79831">
        <ele>1188.505005</ele>
        <time>2018-05-26T15:31:56Z</time>
      </trkpt>
      <trkpt lat="47.82982" lon="6.7983">
        <ele>1188.557739</ele>
        <time>2018-05-26T15:31:57Z</time>
      </trkpt>
      <trkpt lat="47.8298" lon="6.7983">
        <ele>1188.616455</ele>
        <time>2018-05-26T15:31:58Z</time>
      </trkpt>
      <trkpt lat="47.82978" lon="6.79829">
        <ele>1188.70874</ele>
        <time>2018-05-26T15:31:59Z</time>
      </trkpt>
      <trkpt lat="47.82978" lon="6.79829">
        <ele>1188.777954</ele>
        <time>2018-05-26T15:32:00Z</time>
      </trkpt>
      <trkpt lat="47.82976" lon="6.79828">
        <ele>1188.893555</ele>
        <time>2018-05-26T15:32:01Z</time>
      </trkpt>
      <trkpt lat="47.82975" lon="6.79828">
        <ele>1188.97229</ele>
        <time>2018-05-26T15:32:02Z</time>
      </trkpt>
      <trkpt lat="47.82974" lon="6.79826">
        <ele>1189.096802</ele>
        <time>2018-05-26T15:32:03Z</time>
      </trkpt>
      <trkpt lat="47.82974" lon="6.79824">
        <ele>1189.188965</ele>
        <time>2018-05-26T15:32:04Z</time>
      </trkpt>
      <trkpt lat="47.82973" lon="6.79823">
        <ele>1189.287964</ele>
        <time>2018-05-26T15:32:05Z</time>
      </trkpt>
      <trkpt lat="47.82972" lon="6.79821">
        <ele>1189.443604</ele>
        <time>2018-05-26T15:32:06Z</time>
      </trkpt>
      <trkpt lat="47.82971" lon="6.7982">
        <ele>1189.559692</ele>
        <time>2018-05-26T15:32:07Z</time>
      </trkpt>
      <trkpt lat="47.82969" lon="6.79818">
        <ele>1189.759155</ele>
        <time>2018-05-26T15:32:08Z</time>
      </trkpt>
      <trkpt lat="47.82969" lon="6.79816">
        <ele>1189.904297</ele>
        <time>2018-05-26T15:32:09Z</time>
      </trkpt>
      <trkpt lat="47.82968" lon="6.79815">
        <ele>1190.053589</ele>
        <time>2018-05-26T15:32:10Z</time>
      </trkpt>
      <trkpt lat="47.82967" lon="6.79813">
        <ele>1190.27771</ele>
        <time>2018-05-26T15:32:11Z</time>
      </trkpt>
      <trkpt lat="47.82966" lon="6.79811">
        <ele>1190.421265</ele>
        <time>2018-05-26T15:32:12Z</time>
      </trkpt>
      <trkpt lat="47.82966" lon="6.7981">
        <ele>1190.624634</ele>
        <time>2018-05-26T15:32:13Z</time>
      </trkpt>
      <trkpt lat="47.82964" lon="6.79809">
        <ele>1190.755249</ele>
        <time>2018-05-26T15:32:14Z</time>
      </trkpt>
      <trkpt lat="47.82963" lon="6.79808">
        <ele>1190.956787</ele>
        <time>2018-05-26T15:32:15Z</time>
      </trkpt>
      <trkpt lat="47.82961" lon="6.79808">
        <ele>1191.090454</ele>
        <time>2018-05-26T15:32:16Z</time>
      </trkpt>
      <trkpt lat="47.8296" lon="6.79809">
        <ele>1191.21521</ele>
        <time>2018-05-26T15:32:17Z</time>
      </trkpt>
      <trkpt lat="47.82959" lon="6.79811">
        <ele>1191.368652</ele>
        <time>2018-05-26T15:32:18Z</time>
      </trkpt>
      <trkpt lat="47.82958" lon="6.79812">
        <ele>1191.446289</ele>
        <time>2018-05-26T15:32:19Z</time>
      </trkpt>
      <trkpt lat="47.82956" lon="6.79814">
        <ele>1191.512207</ele>
        <time>2018-05-26T15:32:20Z</time>
      </trkpt>
      <trkpt lat="47.82956" lon="6.79817">
        <ele>1191.513306</ele>
        <time>2018-05-26T15:32:21Z</time>
      </trkpt>
      <trkpt lat="47.82954" lon="6.7982">
        <ele>1191.485352</ele>
        <time>2018-05-26T15:32:22Z</time>
      </trkpt>
      <trkpt lat="47.82954" lon="6.79824">
        <ele>1191.418457</ele>
        <time>2018-05-26T15:32:23Z</time>
      </trkpt>
      <trkpt lat="47.82953" lon="6.79827">
        <ele>1191.258423</ele>
        <time>2018-05-26T15:32:24Z</time>
      </trkpt>
      <trkpt lat="47.82952" lon="6.7983">
        <ele>1191.11145</ele>
        <time>2018-05-26T15:32:25Z</time>
      </trkpt>
      <trkpt lat="47.82951" lon="6.79835">
        <ele>1190.83313</ele>
        <time>2018-05-26T15:32:26Z</time>
      </trkpt>
      <trkpt lat="47.82949" lon="6.79839">
        <ele>1190.611816</ele>
        <time>2018-05-26T15:32:27Z</time>
      </trkpt>
      <trkpt lat="47.82948" lon="6.79843">
        <ele>1190.219238</ele>
        <time>2018-05-26T15:32:28Z</time>
      </trkpt>
      <trkpt lat="47.82946" lon="6.79846">
        <ele>1190.075073</ele>
        <time>2018-05-26T15:32:29Z</time>
      </trkpt>
      <trkpt lat="47.82943" lon="6.7985">
        <ele>1189.604492</ele>
        <time>2018-05-26T15:32:30Z</time>
      </trkpt>
      <trkpt lat="47.8294" lon="6.79854">
        <ele>1189.251831</ele>
        <time>2018-05-26T15:32:31Z</time>
      </trkpt>
      <trkpt lat="47.82938" lon="6.79857">
        <ele>1188.644653</ele>
        <time>2018-05-26T15:32:32Z</time>
      </trkpt>
      <trkpt lat="47.82934" lon="6.79861">
        <ele>1188.185181</ele>
        <time>2018-05-26T15:32:33Z</time>
      </trkpt>
      <trkpt lat="47.82932" lon="6.79865">
        <ele>1187.685059</ele>
        <time>2018-05-26T15:32:34Z</time>
      </trkpt>
      <trkpt lat="47.82929" lon="6.79869">
        <ele>1186.883179</ele>
        <time>2018-05-26T15:32:35Z</time>
      </trkpt>
      <trkpt lat="47.82927" lon="6.79874">
        <ele>1186.337036</ele>
        <time>2018-05-26T15:32:36Z</time>
      </trkpt>
      <trkpt lat="47.82925" lon="6.79879">
        <ele>1185.518677</ele>
        <time>2018-05-26T15:32:37Z</time>
      </trkpt>
      <trkpt lat="47.82923" lon="6.79885">
        <ele>1184.973755</ele>
        <time>2018-05-26T15:32:38Z</time>
      </trkpt>
      <trkpt lat="47.82922" lon="6.79891">
        <ele>1184.155029</ele>
        <time>2018-05-26T15:32:39Z</time>
      </trkpt>
      <trkpt lat="47.8292" lon="6.79897">
        <ele>1183.603638</ele>
        <time>2018-05-26T15:32:40Z</time>
      </trkpt>
      <trkpt lat="47.82918" lon="6.79903">
        <ele>1183.030884</ele>
        <time>2018-05-26T15:32:41Z</time>
      </trkpt>
      <trkpt lat="47.82916" lon="6.79907">
        <ele>1182.098633</ele>
        <time>2018-05-26T15:32:42Z</time>
      </trkpt>
      <trkpt lat="47.82913" lon="6.79909">
        <ele>1181.430298</ele>
        <time>2018-05-26T15:32:43Z</time>
      </trkpt>
      <trkpt lat="47.8291" lon="6.79909">
        <ele>1180.375</ele>
        <time>2018-05-26T15:32:44Z</time>
      </trkpt>
      <trkpt lat="47.82907" lon="6.79909">
        <ele>1179.634155</ele>
        <time>2018-05-26T15:32:45Z</time>
      </trkpt>
      <trkpt lat="47.82904" lon="6.79909">
        <ele>1178.522095</ele>
        <time>2018-05-26T15:32:46Z</time>
      </trkpt>
      <trkpt lat="47.829" lon="6.79909">
        <ele>1177.817871</ele>
        <time>2018-05-26T15:32:47Z</time>
      </trkpt>
      <trkpt lat="47.82897" lon="6.79911">
        <ele>1176.836548</ele>
        <time>2018-05-26T15:32:48Z</time>
      </trkpt>
      <trkpt lat="47.82893" lon="6.79913">
        <ele>1176.224731</ele>
        <time>2018-05-26T15:32:49Z</time>
      </trkpt>
      <trkpt lat="47.8289" lon="6.79915">
        <ele>1175.378052</ele>
        <time>2018-05-26T15:32:50Z</time>
      </trkpt>
      <trkpt lat="47.82886" lon="6.79915">
        <ele>1174.842529</ele>
        <time>2018-05-26T15:32:51Z</time>
      </trkpt>
      <trkpt lat="47.82882" lon="6.79916">
        <ele>1174.024536</ele>
        <time>2018-05-26T15:32:52Z</time>
      </trkpt>
      <trkpt lat="47.82878" lon="6.79918">
        <ele>1173.45105</ele>
        <time>2018-05-26T15:32:53Z</time>
      </trkpt>
      <trkpt lat="47.82875" lon="6.79919">
        <ele>1172.856934</ele>
        <time>2018-05-26T15:32:54Z</time>
      </trkpt>
      <trkpt lat="47.82874" lon="6.7992">
        <ele>1171.945679</ele>
        <time>2018-05-26T15:32:55Z</time>
      </trkpt>
      <trkpt lat="47.82874" lon="6.79922">
        <ele>1171.31311</ele>
        <time>2018-05-26T15:32:56Z</time>
      </trkpt>
      <trkpt lat="47.82875" lon="6.79924">
        <ele>1170.349243</ele>
        <time>2018-05-26T15:32:57Z</time>
      </trkpt>
      <trkpt lat="47.82875" lon="6.79925">
        <ele>1169.720093</ele>
        <time>2018-05-26T15:32:58Z</time>
      </trkpt>
      <trkpt lat="47.82874" lon="6.79926">
        <ele>1168.829712</ele>
        <time>2018-05-26T15:32:59Z</time>
      </trkpt>
      <trkpt lat="47.82874" lon="6.79927">
        <ele>1168.292847</ele>
        <time>2018-05-26T15:33:00Z</time>
      </trkpt>
      <trkpt lat="47.82872" lon="6.79929">
        <ele>1167.629395</ele>
        <time>2018-05-26T15:33:01Z</time>
      </trkpt>
      <trkpt lat="47.82872" lon="6.7993">
        <ele>1167.29187</ele>
        <time>2018-05-26T15:33:02Z</time>
      </trkpt>
      <trkpt lat="47.82871" lon="6.79915">
        <ele>1166.078735</ele>
        <time>2018-05-26T15:37:57Z</time>
      </trkpt>
      <trkpt lat="47.8287" lon="6.79914">
        <ele>1166.131714</ele>
        <time>2018-05-26T15:37:59Z</time>
      </trkpt>
      <trkpt lat="47.82869" lon="6.79912">
        <ele>1166.141602</ele>
        <time>2018-05-26T15:38:00Z</time>
      </trkpt>
      <trkpt lat="47.82865" lon="6.7991">
        <ele>1166.137695</ele>
        <time>2018-05-26T15:38:01Z</time>
      </trkpt>
      <trkpt lat="47.82862" lon="6.79909">
        <ele>1166.109741</ele>
        <time>2018-05-26T15:38:02Z</time>
      </trkpt>
      <trkpt lat="47.82858" lon="6.79908">
        <ele>1166.014648</ele>
        <time>2018-05-26T15:38:03Z</time>
      </trkpt>
      <trkpt lat="47.82855" lon="6.79909">
        <ele>1165.90979</ele>
        <time>2018-05-26T15:38:04Z</time>
      </trkpt>
      <trkpt lat="47.8285" lon="6.79911">
        <ele>1165.770508</ele>
        <time>2018-05-26T15:38:05Z</time>
      </trkpt>
      <trkpt lat="47.82847" lon="6.79914">
        <ele>1165.497437</ele>
        <time>2018-05-26T15:38:06Z</time>
      </trkpt>
      <trkpt lat="47.82843" lon="6.79915">
        <ele>1165.270874</ele>
        <time>2018-05-26T15:38:07Z</time>
      </trkpt>
      <trkpt lat="47.82839" lon="6.79916">
        <ele>1164.849121</ele>
        <time>2018-05-26T15:38:08Z</time>
      </trkpt>
      <trkpt lat="47.82835" lon="6.79917">
        <ele>1164.508423</ele>
        <time>2018-05-26T15:38:09Z</time>
      </trkpt>
      <trkpt lat="47.82832" lon="6.79916">
        <ele>1163.932617</ele>
        <time>2018-05-26T15:38:10Z</time>
      </trkpt>
      <trkpt lat="47.82829" lon="6.79915">
        <ele>1163.502197</ele>
        <time>2018-05-26T15:38:11Z</time>
      </trkpt>
      <trkpt lat="47.82826" lon="6.79914">
        <ele>1163.022339</ele>
        <time>2018-05-26T15:38:12Z</time>
      </trkpt>
      <trkpt lat="47.82822" lon="6.79912">
        <ele>1162.231079</ele>
        <time>2018-05-26T15:38:13Z</time>
      </trkpt>
      <trkpt lat="47.82818" lon="6.79911">
        <ele>1161.680908</ele>
        <time>2018-05-26T15:38:14Z</time>
      </trkpt>
      <trkpt lat="47.82813" lon="6.7991">
        <ele>1160.869507</ele>
        <time>2018-05-26T15:38:15Z</time>
      </trkpt>
      <trkpt lat="47.82808" lon="6.79909">
        <ele>1160.352417</ele>
        <time>2018-05-26T15:38:16Z</time>
      </trkpt>
      <trkpt lat="47.82804" lon="6.79909">
        <ele>1159.626587</ele>
        <time>2018-05-26T15:38:17Z</time>
      </trkpt>
      <trkpt lat="47.828" lon="6.79909">
        <ele>1159.169922</ele>
        <time>2018-05-26T15:38:18Z</time>
      </trkpt>
      <trkpt lat="47.82796" lon="6.79908">
        <ele>1158.523926</ele>
        <time>2018-05-26T15:38:19Z</time>
      </trkpt>
      <trkpt lat="47.82793" lon="6.79909">
        <ele>1158.108887</ele>
        <time>2018-05-26T15:38:20Z</time>
      </trkpt>
      <trkpt lat="47.8279" lon="6.79909">
        <ele>1157.494995</ele>
        <time>2018-05-26T15:38:21Z</time>
      </trkpt>
      <trkpt lat="47.82786" lon="6.79909">
        <ele>1157.100098</ele>
        <time>2018-05-26T15:38:22Z</time>
      </trkpt>
      <trkpt lat="47.82784" lon="6.79909">
        <ele>1156.719727</ele>
        <time>2018-05-26T15:38:23Z</time>
      </trkpt>
      <trkpt lat="47.82783" lon="6.79908">
        <ele>1156.160889</ele>
        <time>2018-05-26T15:38:24Z</time>
      </trkpt>
      <trkpt lat="47.82781" lon="6.79907">
        <ele>1155.778198</ele>
        <time>2018-05-26T15:38:25Z</time>
      </trkpt>
      <trkpt lat="47.82772" lon="6.79911">
        <ele>1152.660156</ele>
        <time>2018-05-26T15:38:44Z</time>
      </trkpt>
      <trkpt lat="47.82769" lon="6.79914">
        <ele>1152.530396</ele>
        <time>2018-05-26T15:38:46Z</time>
      </trkpt>
      <trkpt lat="47.82765" lon="6.79918">
        <ele>1152.412842</ele>
        <time>2018-05-26T15:38:47Z</time>
      </trkpt>
      <trkpt lat="47.82761" lon="6.7992">
        <ele>1152.189941</ele>
        <time>2018-05-26T15:38:48Z</time>
      </trkpt>
      <trkpt lat="47.82758" lon="6.79922">
        <ele>1151.995728</ele>
        <time>2018-05-26T15:38:49Z</time>
      </trkpt>
      <trkpt lat="47.82754" lon="6.79923">
        <ele>1151.611938</ele>
        <time>2018-05-26T15:38:50Z</time>
      </trkpt>
      <trkpt lat="47.8275" lon="6.79926">
        <ele>1151.306641</ele>
        <time>2018-05-26T15:38:51Z</time>
      </trkpt>
      <trkpt lat="47.82747" lon="6.79928">
        <ele>1150.800781</ele>
        <time>2018-05-26T15:38:52Z</time>
      </trkpt>
      <trkpt lat="47.82744" lon="6.7993">
        <ele>1150.430176</ele>
        <time>2018-05-26T15:38:53Z</time>
      </trkpt>
      <trkpt lat="47.8274" lon="6.79932">
        <ele>1149.810547</ele>
        <time>2018-05-26T15:38:54Z</time>
      </trkpt>
      <trkpt lat="47.82736" lon="6.79934">
        <ele>1149.370728</ele>
        <time>2018-05-26T15:38:55Z</time>
      </trkpt>
      <trkpt lat="47.82731" lon="6.79936">
        <ele>1148.92981</ele>
        <time>2018-05-26T15:38:56Z</time>
      </trkpt>
      <trkpt lat="47.82727" lon="6.79939">
        <ele>1148.268188</ele>
        <time>2018-05-26T15:38:57Z</time>
      </trkpt>
      <trkpt lat="47.82724" lon="6.79941">
        <ele>1147.810425</ele>
        <time>2018-05-26T15:38:58Z</time>
      </trkpt>
      <trkpt lat="47.82721" lon="6.79942">
        <ele>1147.10437</ele>
        <time>2018-05-26T15:38:59Z</time>
      </trkpt>
      <trkpt lat="47.82718" lon="6.79944">
        <ele>1146.637573</ele>
        <time>2018-05-26T15:39:00Z</time>
      </trkpt>
      <trkpt lat="47.82712" lon="6.79949">
        <ele>1145.51123</ele>
        <time>2018-05-26T15:39:02Z</time>
      </trkpt>
      <trkpt lat="47.8271" lon="6.79951">
        <ele>1144.830444</ele>
        <time>2018-05-26T15:39:03Z</time>
      </trkpt>
      <trkpt lat="47.82707" lon="6.79954">
        <ele>1144.36499</ele>
        <time>2018-05-26T15:39:04Z</time>
      </trkpt>
      <trkpt lat="47.82703" lon="6.79957">
        <ele>1143.894653</ele>
        <time>2018-05-26T15:39:05Z</time>
      </trkpt>
      <trkpt lat="47.827" lon="6.7996">
        <ele>1143.169678</ele>
        <time>2018-05-26T15:39:06Z</time>
      </trkpt>
      <trkpt lat="47.82695" lon="6.79964">
        <ele>1142.667358</ele>
        <time>2018-05-26T15:39:07Z</time>
      </trkpt>
      <trkpt lat="47.82692" lon="6.79968">
        <ele>1141.880005</ele>
        <time>2018-05-26T15:39:08Z</time>
      </trkpt>
      <trkpt lat="47.82689" lon="6.7997">
        <ele>1141.32605</ele>
        <time>2018-05-26T15:39:09Z</time>
      </trkpt>
      <trkpt lat="47.82687" lon="6.79974">
        <ele>1140.431274</ele>
        <time>2018-05-26T15:39:10Z</time>
      </trkpt>
      <trkpt lat="47.82685" lon="6.79977">
        <ele>1139.806519</ele>
        <time>2018-05-26T15:39:11Z</time>
      </trkpt>
      <trkpt lat="47.82683" lon="6.7998">
        <ele>1139.170288</ele>
        <time>2018-05-26T15:39:12Z</time>
      </trkpt>
      <trkpt lat="47.82681" lon="6.79983">
        <ele>1138.23584</ele>
        <time>2018-05-26T15:39:13Z</time>
      </trkpt>
      <trkpt lat="47.82678" lon="6.79985">
        <ele>1137.660034</ele>
        <time>2018-05-26T15:39:14Z</time>
      </trkpt>
      <trkpt lat="47.82674" lon="6.79987">
        <ele>1136.921997</ele>
        <time>2018-05-26T15:39:15Z</time>
      </trkpt>
      <trkpt lat="47.82669" lon="6.79989">
        <ele>1136.508789</ele>
        <time>2018-05-26T15:39:16Z</time>
      </trkpt>
      <trkpt lat="47.82663" lon="6.79992">
        <ele>1136.133789</ele>
        <time>2018-05-26T15:39:17Z</time>
      </trkpt>
      <trkpt lat="47.82659" lon="6.79993">
        <ele>1135.56543</ele>
        <time>2018-05-26T15:39:18Z</time>
      </trkpt>
      <trkpt lat="47.82653" lon="6.79994">
        <ele>1135.144531</ele>
        <time>2018-05-26T15:39:19Z</time>
      </trkpt>
      <trkpt lat="47.82648" lon="6.79995">
        <ele>1134.437866</ele>
        <time>2018-05-26T15:39:20Z</time>
      </trkpt>
      <trkpt lat="47.82643" lon="6.79997">
        <ele>1133.902954</ele>
        <time>2018-05-26T15:39:21Z</time>
      </trkpt>
      <trkpt lat="47.82639" lon="6.79999">
        <ele>1133.012573</ele>
        <time>2018-05-26T15:39:22Z</time>
      </trkpt>
      <trkpt lat="47.82636" lon="6.80001">
        <ele>1132.384888</ele>
        <time>2018-05-26T15:39:23Z</time>
      </trkpt>
      <trkpt lat="47.82633" lon="6.80005">
        <ele>1131.756836</ele>
        <time>2018-05-26T15:39:24Z</time>
      </trkpt>
      <trkpt lat="47.82631" lon="6.80008">
        <ele>1130.860229</ele>
        <time>2018-05-26T15:39:25Z</time>
      </trkpt>
      <trkpt lat="47.82628" lon="6.80012">
        <ele>1130.303467</ele>
        <time>2018-05-26T15:39:26Z</time>
      </trkpt>
      <trkpt lat="47.82626" lon="6.80016">
        <ele>1129.533203</ele>
        <time>2018-05-26T15:39:27Z</time>
      </trkpt>
      <trkpt lat="47.82623" lon="6.80021">
        <ele>1129.050415</ele>
        <time>2018-05-26T15:39:28Z</time>
      </trkpt>
      <trkpt lat="47.82621" lon="6.80027">
        <ele>1128.599976</ele>
        <time>2018-05-26T15:39:29Z</time>
      </trkpt>
      <trkpt lat="47.82619" lon="6.80031">
        <ele>1127.97998</ele>
        <time>2018-05-26T15:39:30Z</time>
      </trkpt>
      <trkpt lat="47.82617" lon="6.80034">
        <ele>1127.602661</ele>
        <time>2018-05-26T15:39:31Z</time>
      </trkpt>
      <trkpt lat="47.82616" lon="6.80037">
        <ele>1127.237183</ele>
        <time>2018-05-26T15:39:32Z</time>
      </trkpt>
      <trkpt lat="47.82615" lon="6.80039">
        <ele>1126.87439</ele>
        <time>2018-05-26T15:39:33Z</time>
      </trkpt>
      <trkpt lat="47.82613" lon="6.80041">
        <ele>1126.505493</ele>
        <time>2018-05-26T15:39:34Z</time>
      </trkpt>
      <trkpt lat="47.82612" lon="6.80043">
        <ele>1125.930054</ele>
        <time>2018-05-26T15:39:35Z</time>
      </trkpt>
      <trkpt lat="47.8261" lon="6.80045">
        <ele>1125.541992</ele>
        <time>2018-05-26T15:39:36Z</time>
      </trkpt>
      <trkpt lat="47.82609" lon="6.80046">
        <ele>1124.975464</ele>
        <time>2018-05-26T15:39:37Z</time>
      </trkpt>
      <trkpt lat="47.82606" lon="6.80046">
        <ele>1124.613403</ele>
        <time>2018-05-26T15:39:38Z</time>
      </trkpt>
      <trkpt lat="47.82603" lon="6.80047">
        <ele>1124.072998</ele>
        <time>2018-05-26T15:39:39Z</time>
      </trkpt>
      <trkpt lat="47.826" lon="6.80049">
        <ele>1123.707764</ele>
        <time>2018-05-26T15:39:40Z</time>
      </trkpt>
      <trkpt lat="47.82596" lon="6.80051">
        <ele>1123.33667</ele>
        <time>2018-05-26T15:39:41Z</time>
      </trkpt>
      <trkpt lat="47.82592" lon="6.80053">
        <ele>1122.754028</ele>
        <time>2018-05-26T15:39:42Z</time>
      </trkpt>
      <trkpt lat="47.82588" lon="6.80056">
        <ele>1122.114746</ele>
        <time>2018-05-26T15:39:43Z</time>
      </trkpt>
      <trkpt lat="47.82584" lon="6.80058">
        <ele>1121.648926</ele>
        <time>2018-05-26T15:39:44Z</time>
      </trkpt>
      <trkpt lat="47.82579" lon="6.80061">
        <ele>1121.147949</ele>
        <time>2018-05-26T15:39:45Z</time>
      </trkpt>
      <trkpt lat="47.82576" lon="6.80066">
        <ele>1120.322876</ele>
        <time>2018-05-26T15:39:46Z</time>
      </trkpt>
      <trkpt lat="47.82571" lon="6.80071">
        <ele>1119.715576</ele>
        <time>2018-05-26T15:39:47Z</time>
      </trkpt>
      <trkpt lat="47.82567" lon="6.80076">
        <ele>1118.727051</ele>
        <time>2018-05-26T15:39:48Z</time>
      </trkpt>
      <trkpt lat="47.82562" lon="6.80079">
        <ele>1118.03894</ele>
        <time>2018-05-26T15:39:49Z</time>
      </trkpt>
      <trkpt lat="47.82557" lon="6.8008">
        <ele>1117.012573</ele>
        <time>2018-05-26T15:39:50Z</time>
      </trkpt>
      <trkpt lat="47.82553" lon="6.8008">
        <ele>1116.374634</ele>
        <time>2018-05-26T15:39:51Z</time>
      </trkpt>
      <trkpt lat="47.8255" lon="6.80081">
        <ele>1115.822632</ele>
        <time>2018-05-26T15:39:52Z</time>
      </trkpt>
      <trkpt lat="47.82547" lon="6.80082">
        <ele>1115.201416</ele>
        <time>2018-05-26T15:39:53Z</time>
      </trkpt>
      <trkpt lat="47.82543" lon="6.80083">
        <ele>1114.914673</ele>
        <time>2018-05-26T15:39:54Z</time>
      </trkpt>
      <trkpt lat="47.8254" lon="6.80083">
        <ele>1114.661499</ele>
        <time>2018-05-26T15:39:55Z</time>
      </trkpt>
      <trkpt lat="47.82536" lon="6.80084">
        <ele>1114.624512</ele>
        <time>2018-05-26T15:39:56Z</time>
      </trkpt>
      <trkpt lat="47.82533" lon="6.80084">
        <ele>1114.639526</ele>
        <time>2018-05-26T15:39:57Z</time>
      </trkpt>
      <trkpt lat="47.82531" lon="6.80085">
        <ele>1114.709839</ele>
        <time>2018-05-26T15:39:58Z</time>
      </trkpt>
      <trkpt lat="47.82528" lon="6.80086">
        <ele>1114.845337</ele>
        <time>2018-05-26T15:39:59Z</time>
      </trkpt>
      <trkpt lat="47.82525" lon="6.80087">
        <ele>1114.941284</ele>
        <time>2018-05-26T15:40:00Z</time>
      </trkpt>
      <trkpt lat="47.82521" lon="6.80088">
        <ele>1115.042969</ele>
        <time>2018-05-26T15:40:01Z</time>
      </trkpt>
      <trkpt lat="47.82519" lon="6.80089">
        <ele>1115.187134</ele>
        <time>2018-05-26T15:40:02Z</time>
      </trkpt>
      <trkpt lat="47.82516" lon="6.80089">
        <ele>1115.264771</ele>
        <time>2018-05-26T15:40:03Z</time>
      </trkpt>
      <trkpt lat="47.82514" lon="6.8009">
        <ele>1115.324707</ele>
        <time>2018-05-26T15:40:04Z</time>
      </trkpt>
      <trkpt lat="47.82513" lon="6.8009">
        <ele>1115.324707</ele>
        <time>2018-05-26T15:40:05Z</time>
      </trkpt>
      <trkpt lat="47.82512" lon="6.8009">
        <ele>1115.279297</ele>
        <time>2018-05-26T15:40:06Z</time>
      </trkpt>
      <trkpt lat="47.82509" lon="6.80089">
        <ele>1115.178833</ele>
        <time>2018-05-26T15:40:07Z</time>
      </trkpt>
      <trkpt lat="47.82507" lon="6.80088">
        <ele>1115.031616</ele>
        <time>2018-05-26T15:40:08Z</time>
      </trkpt>
      <trkpt lat="47.82505" lon="6.80087">
        <ele>1114.755249</ele>
        <time>2018-05-26T15:40:09Z</time>
      </trkpt>
      <trkpt lat="47.82502" lon="6.80086">
        <ele>1114.562134</ele>
        <time>2018-05-26T15:40:10Z</time>
      </trkpt>
      <trkpt lat="47.825" lon="6.80085">
        <ele>1114.287476</ele>
        <time>2018-05-26T15:40:11Z</time>
      </trkpt>
      <trkpt lat="47.82497" lon="6.80085">
        <ele>1114.114258</ele>
        <time>2018-05-26T15:40:12Z</time>
      </trkpt>
      <trkpt lat="47.82494" lon="6.80086">
        <ele>1113.876831</ele>
        <time>2018-05-26T15:40:13Z</time>
      </trkpt>
      <trkpt lat="47.82492" lon="6.80086">
        <ele>1113.730591</ele>
        <time>2018-05-26T15:40:14Z</time>
      </trkpt>
      <trkpt lat="47.82489" lon="6.80086">
        <ele>1113.585938</ele>
        <time>2018-05-26T15:40:15Z</time>
      </trkpt>
      <trkpt lat="47.82487" lon="6.80086">
        <ele>1113.373535</ele>
        <time>2018-05-26T15:40:16Z</time>
      </trkpt>
      <trkpt lat="47.82485" lon="6.80087">
        <ele>1113.243652</ele>
        <time>2018-05-26T15:40:17Z</time>
      </trkpt>
      <trkpt lat="47.82483" lon="6.80088">
        <ele>1113.081421</ele>
        <time>2018-05-26T15:40:18Z</time>
      </trkpt>
      <trkpt lat="47.8248" lon="6.80088">
        <ele>1112.99585</ele>
        <time>2018-05-26T15:40:19Z</time>
      </trkpt>
      <trkpt lat="47.82478" lon="6.80089">
        <ele>1112.932251</ele>
        <time>2018-05-26T15:40:20Z</time>
      </trkpt>
      <trkpt lat="47.82476" lon="6.80089">
        <ele>1112.87915</ele>
        <time>2018-05-26T15:40:21Z</time>
      </trkpt>
      <trkpt lat="47.82473" lon="6.8009">
        <ele>1112.86731</ele>
        <time>2018-05-26T15:40:22Z</time>
      </trkpt>
      <trkpt lat="47.82472" lon="6.80089">
        <ele>1112.847046</ele>
        <time>2018-05-26T15:40:23Z</time>
      </trkpt>
      <trkpt lat="47.8247" lon="6.80089">
        <ele>1112.818237</ele>
        <time>2018-05-26T15:40:24Z</time>
      </trkpt>
      <trkpt lat="47.82468" lon="6.80089">
        <ele>1112.76062</ele>
        <time>2018-05-26T15:40:25Z</time>
      </trkpt>
      <trkpt lat="47.82466" lon="6.8009">
        <ele>1112.712891</ele>
        <time>2018-05-26T15:40:26Z</time>
      </trkpt>
      <trkpt lat="47.82464" lon="6.80091">
        <ele>1112.653198</ele>
        <time>2018-05-26T15:40:27Z</time>
      </trkpt>
      <trkpt lat="47.82462" lon="6.80092">
        <ele>1112.548584</ele>
        <time>2018-05-26T15:40:28Z</time>
      </trkpt>
      <trkpt lat="47.82459" lon="6.80092">
        <ele>1112.473145</ele>
        <time>2018-05-26T15:40:29Z</time>
      </trkpt>
      <trkpt lat="47.82456" lon="6.80092">
        <ele>1112.350708</ele>
        <time>2018-05-26T15:40:30Z</time>
      </trkpt>
      <trkpt lat="47.82454" lon="6.80091">
        <ele>1112.260376</ele>
        <time>2018-05-26T15:40:31Z</time>
      </trkpt>
      <trkpt lat="47.82451" lon="6.80092">
        <ele>1112.16272</ele>
        <time>2018-05-26T15:40:32Z</time>
      </trkpt>
      <trkpt lat="47.82449" lon="6.80092">
        <ele>1112.050659</ele>
        <time>2018-05-26T15:40:33Z</time>
      </trkpt>
      <trkpt lat="47.82446" lon="6.80092">
        <ele>1111.915649</ele>
        <time>2018-05-26T15:40:34Z</time>
      </trkpt>
      <trkpt lat="47.82443" lon="6.80093">
        <ele>1111.75647</ele>
        <time>2018-05-26T15:40:35Z</time>
      </trkpt>
      <trkpt lat="47.8244" lon="6.80095">
        <ele>1111.467407</ele>
        <time>2018-05-26T15:40:36Z</time>
      </trkpt>
      <trkpt lat="47.82436" lon="6.80096">
        <ele>1111.233398</ele>
        <time>2018-05-26T15:40:37Z</time>
      </trkpt>
      <trkpt lat="47.82432" lon="6.80096">
        <ele>1110.775513</ele>
        <time>2018-05-26T15:40:38Z</time>
      </trkpt>
      <trkpt lat="47.82428" lon="6.80095">
        <ele>1110.395142</ele>
        <time>2018-05-26T15:40:39Z</time>
      </trkpt>
      <trkpt lat="47.82424" lon="6.80095">
        <ele>1109.732422</ele>
        <time>2018-05-26T15:40:40Z</time>
      </trkpt>
      <trkpt lat="47.8242" lon="6.80096">
        <ele>1109.257324</ele>
        <time>2018-05-26T15:40:41Z</time>
      </trkpt>
      <trkpt lat="47.82416" lon="6.80098">
        <ele>1108.785156</ele>
        <time>2018-05-26T15:40:42Z</time>
      </trkpt>
      <trkpt lat="47.82412" lon="6.801">
        <ele>1108.158325</ele>
        <time>2018-05-26T15:40:43Z</time>
      </trkpt>
      <trkpt lat="47.82409" lon="6.80103">
        <ele>1107.818481</ele>
        <time>2018-05-26T15:40:44Z</time>
      </trkpt>
      <trkpt lat="47.82406" lon="6.80106">
        <ele>1107.404907</ele>
        <time>2018-05-26T15:40:45Z</time>
      </trkpt>
      <trkpt lat="47.82403" lon="6.80108">
        <ele>1107.174805</ele>
        <time>2018-05-26T15:40:46Z</time>
      </trkpt>
      <trkpt lat="47.824" lon="6.80112">
        <ele>1106.881714</ele>
        <time>2018-05-26T15:40:47Z</time>
      </trkpt>
      <trkpt lat="47.82396" lon="6.80116">
        <ele>1106.710083</ele>
        <time>2018-05-26T15:40:48Z</time>
      </trkpt>
      <trkpt lat="47.82394" lon="6.80119">
        <ele>1106.453491</ele>
        <time>2018-05-26T15:40:49Z</time>
      </trkpt>
      <trkpt lat="47.82392" lon="6.80122">
        <ele>1106.264282</ele>
        <time>2018-05-26T15:40:50Z</time>
      </trkpt>
      <trkpt lat="47.8239" lon="6.80125">
        <ele>1105.945923</ele>
        <time>2018-05-26T15:40:51Z</time>
      </trkpt>
      <trkpt lat="47.82387" lon="6.80128">
        <ele>1105.703613</ele>
        <time>2018-05-26T15:40:52Z</time>
      </trkpt>
      <trkpt lat="47.82385" lon="6.80131">
        <ele>1105.449097</ele>
        <time>2018-05-26T15:40:53Z</time>
      </trkpt>
      <trkpt lat="47.82382" lon="6.80134">
        <ele>1105.060059</ele>
        <time>2018-05-26T15:40:54Z</time>
      </trkpt>
      <trkpt lat="47.8238" lon="6.80137">
        <ele>1104.803101</ele>
        <time>2018-05-26T15:40:55Z</time>
      </trkpt>
      <trkpt lat="47.82378" lon="6.8014">
        <ele>1104.398193</ele>
        <time>2018-05-26T15:40:56Z</time>
      </trkpt>
      <trkpt lat="47.82375" lon="6.80143">
        <ele>1104.13269</ele>
        <time>2018-05-26T15:40:57Z</time>
      </trkpt>
      <trkpt lat="47.82374" lon="6.80146">
        <ele>1103.753296</ele>
        <time>2018-05-26T15:40:58Z</time>
      </trkpt>
      <trkpt lat="47.82372" lon="6.8015">
        <ele>1103.511353</ele>
        <time>2018-05-26T15:40:59Z</time>
      </trkpt>
      <trkpt lat="47.82369" lon="6.80155">
        <ele>1103.27002</ele>
        <time>2018-05-26T15:41:00Z</time>
      </trkpt>
      <trkpt lat="47.82365" lon="6.80159">
        <ele>1102.905151</ele>
        <time>2018-05-26T15:41:01Z</time>
      </trkpt>
      <trkpt lat="47.82362" lon="6.80162">
        <ele>1102.658203</ele>
        <time>2018-05-26T15:41:02Z</time>
      </trkpt>
      <trkpt lat="47.82359" lon="6.80164">
        <ele>1102.271484</ele>
        <time>2018-05-26T15:41:03Z</time>
      </trkpt>
      <trkpt lat="47.82355" lon="6.80167">
        <ele>1101.998169</ele>
        <time>2018-05-26T15:41:04Z</time>
      </trkpt>
      <trkpt lat="47.82352" lon="6.8017">
        <ele>1101.573975</ele>
        <time>2018-05-26T15:41:05Z</time>
      </trkpt>
      <trkpt lat="47.82349" lon="6.80173">
        <ele>1101.293579</ele>
        <time>2018-05-26T15:41:06Z</time>
      </trkpt>
      <trkpt lat="47.82346" lon="6.80177">
        <ele>1100.901001</ele>
        <time>2018-05-26T15:41:07Z</time>
      </trkpt>
      <trkpt lat="47.82342" lon="6.8018">
        <ele>1100.668945</ele>
        <time>2018-05-26T15:41:08Z</time>
      </trkpt>
      <trkpt lat="47.82337" lon="6.80183">
        <ele>1100.450073</ele>
        <time>2018-05-26T15:41:09Z</time>
      </trkpt>
      <trkpt lat="47.82333" lon="6.80185">
        <ele>1100.094971</ele>
        <time>2018-05-26T15:41:10Z</time>
      </trkpt>
      <trkpt lat="47.82328" lon="6.80187">
        <ele>1099.825684</ele>
        <time>2018-05-26T15:41:11Z</time>
      </trkpt>
      <trkpt lat="47.82324" lon="6.8019">
        <ele>1099.374634</ele>
        <time>2018-05-26T15:41:12Z</time>
      </trkpt>
      <trkpt lat="47.8232" lon="6.80193">
        <ele>1099.069824</ele>
        <time>2018-05-26T15:41:13Z</time>
      </trkpt>
      <trkpt lat="47.82317" lon="6.80195">
        <ele>1098.793335</ele>
        <time>2018-05-26T15:41:14Z</time>
      </trkpt>
      <trkpt lat="47.82314" lon="6.80197">
        <ele>1098.439453</ele>
        <time>2018-05-26T15:41:15Z</time>
      </trkpt>
      <trkpt lat="47.82311" lon="6.802">
        <ele>1098.217529</ele>
        <time>2018-05-26T15:41:16Z</time>
      </trkpt>
      <trkpt lat="47.82307" lon="6.80202">
        <ele>1097.88855</ele>
        <time>2018-05-26T15:41:17Z</time>
      </trkpt>
      <trkpt lat="47.82304" lon="6.80205">
        <ele>1097.673828</ele>
        <time>2018-05-26T15:41:18Z</time>
      </trkpt>
      <trkpt lat="47.82301" lon="6.80207">
        <ele>1097.347046</ele>
        <time>2018-05-26T15:41:19Z</time>
      </trkpt>
      <trkpt lat="47.82296" lon="6.8021">
        <ele>1097.10022</ele>
        <time>2018-05-26T15:41:20Z</time>
      </trkpt>
      <trkpt lat="47.82292" lon="6.80213">
        <ele>1096.810791</ele>
        <time>2018-05-26T15:41:21Z</time>
      </trkpt>
      <trkpt lat="47.82288" lon="6.80215">
        <ele>1096.302612</ele>
        <time>2018-05-26T15:41:22Z</time>
      </trkpt>
      <trkpt lat="47.82284" lon="6.80217">
        <ele>1095.94812</ele>
        <time>2018-05-26T15:41:23Z</time>
      </trkpt>
      <trkpt lat="47.82281" lon="6.80219">
        <ele>1095.458008</ele>
        <time>2018-05-26T15:41:24Z</time>
      </trkpt>
      <trkpt lat="47.82278" lon="6.8022">
        <ele>1095.178955</ele>
        <time>2018-05-26T15:41:25Z</time>
      </trkpt>
      <trkpt lat="47.82275" lon="6.80222">
        <ele>1094.952759</ele>
        <time>2018-05-26T15:41:26Z</time>
      </trkpt>
      <trkpt lat="47.82273" lon="6.80224">
        <ele>1094.720703</ele>
        <time>2018-05-26T15:41:27Z</time>
      </trkpt>
      <trkpt lat="47.82271" lon="6.80225">
        <ele>1094.640503</ele>
        <time>2018-05-26T15:41:28Z</time>
      </trkpt>
      <trkpt lat="47.82268" lon="6.80227">
        <ele>1094.610718</ele>
        <time>2018-05-26T15:41:29Z</time>
      </trkpt>
      <trkpt lat="47.82266" lon="6.80229">
        <ele>1094.610718</ele>
        <time>2018-05-26T15:41:30Z</time>
      </trkpt>
      <trkpt lat="47.82265" lon="6.80232">
        <ele>1094.638794</ele>
        <time>2018-05-26T15:41:31Z</time>
      </trkpt>
      <trkpt lat="47.82263" lon="6.80234">
        <ele>1094.658447</ele>
        <time>2018-05-26T15:41:32Z</time>
      </trkpt>
      <trkpt lat="47.82261" lon="6.80236">
        <ele>1094.669678</ele>
        <time>2018-05-26T15:41:33Z</time>
      </trkpt>
      <trkpt lat="47.82259" lon="6.80238">
        <ele>1094.669678</ele>
        <time>2018-05-26T15:41:34Z</time>
      </trkpt>
      <trkpt lat="47.82258" lon="6.8024">
        <ele>1094.669678</ele>
        <time>2018-05-26T15:41:35Z</time>
      </trkpt>
      <trkpt lat="47.82257" lon="6.80241">
        <ele>1094.659302</ele>
        <time>2018-05-26T15:41:36Z</time>
      </trkpt>
      <trkpt lat="47.82255" lon="6.80243">
        <ele>1094.633789</ele>
        <time>2018-05-26T15:41:37Z</time>
      </trkpt>
      <trkpt lat="47.82254" lon="6.80246">
        <ele>1094.596558</ele>
        <time>2018-05-26T15:41:38Z</time>
      </trkpt>
      <trkpt lat="47.82253" lon="6.80248">
        <ele>1094.518799</ele>
        <time>2018-05-26T15:41:39Z</time>
      </trkpt>
      <trkpt lat="47.82251" lon="6.8025">
        <ele>1094.464722</ele>
        <time>2018-05-26T15:41:40Z</time>
      </trkpt>
      <trkpt lat="47.82248" lon="6.80253">
        <ele>1094.383423</ele>
        <time>2018-05-26T15:41:41Z</time>
      </trkpt>
      <trkpt lat="47.82246" lon="6.80256">
        <ele>1094.325684</ele>
        <time>2018-05-26T15:41:42Z</time>
      </trkpt>
      <trkpt lat="47.82244" lon="6.80259">
        <ele>1094.214355</ele>
        <time>2018-05-26T15:41:43Z</time>
      </trkpt>
      <trkpt lat="47.82242" lon="6.80263">
        <ele>1094.119019</ele>
        <time>2018-05-26T15:41:44Z</time>
      </trkpt>
      <trkpt lat="47.8224" lon="6.80266">
        <ele>1094.009644</ele>
        <time>2018-05-26T15:41:45Z</time>
      </trkpt>
      <trkpt lat="47.82237" lon="6.80269">
        <ele>1093.822021</ele>
        <time>2018-05-26T15:41:46Z</time>
      </trkpt>
      <trkpt lat="47.82235" lon="6.80271">
        <ele>1093.68103</ele>
        <time>2018-05-26T15:41:47Z</time>
      </trkpt>
      <trkpt lat="47.82232" lon="6.80273">
        <ele>1093.446045</ele>
        <time>2018-05-26T15:41:48Z</time>
      </trkpt>
      <trkpt lat="47.82229" lon="6.80275">
        <ele>1093.279419</ele>
        <time>2018-05-26T15:41:49Z</time>
      </trkpt>
      <trkpt lat="47.82226" lon="6.80276">
        <ele>1093.02771</ele>
        <time>2018-05-26T15:41:50Z</time>
      </trkpt>
      <trkpt lat="47.82223" lon="6.80277">
        <ele>1092.857544</ele>
        <time>2018-05-26T15:41:51Z</time>
      </trkpt>
      <trkpt lat="47.8222" lon="6.80279">
        <ele>1092.570923</ele>
        <time>2018-05-26T15:41:52Z</time>
      </trkpt>
      <trkpt lat="47.82217" lon="6.8028">
        <ele>1092.360718</ele>
        <time>2018-05-26T15:41:53Z</time>
      </trkpt>
      <trkpt lat="47.82215" lon="6.80281">
        <ele>1092.137695</ele>
        <time>2018-05-26T15:41:54Z</time>
      </trkpt>
      <trkpt lat="47.82212" lon="6.80283">
        <ele>1091.773071</ele>
        <time>2018-05-26T15:41:55Z</time>
      </trkpt>
      <trkpt lat="47.82208" lon="6.80285">
        <ele>1091.496582</ele>
        <time>2018-05-26T15:41:56Z</time>
      </trkpt>
      <trkpt lat="47.82204" lon="6.80286">
        <ele>1091.028442</ele>
        <time>2018-05-26T15:41:57Z</time>
      </trkpt>
      <trkpt lat="47.82201" lon="6.80288">
        <ele>1090.685059</ele>
        <time>2018-05-26T15:41:58Z</time>
      </trkpt>
      <trkpt lat="47.82198" lon="6.80289">
        <ele>1090.129883</ele>
        <time>2018-05-26T15:41:59Z</time>
      </trkpt>
      <trkpt lat="47.82196" lon="6.8029">
        <ele>1089.750366</ele>
        <time>2018-05-26T15:42:00Z</time>
      </trkpt>
      <trkpt lat="47.82193" lon="6.80292">
        <ele>1089.382202</ele>
        <time>2018-05-26T15:42:01Z</time>
      </trkpt>
      <trkpt lat="47.82191" lon="6.80293">
        <ele>1088.876099</ele>
        <time>2018-05-26T15:42:02Z</time>
      </trkpt>
      <trkpt lat="47.82188" lon="6.80294">
        <ele>1088.582642</ele>
        <time>2018-05-26T15:42:03Z</time>
      </trkpt>
      <trkpt lat="47.82185" lon="6.80295">
        <ele>1088.226074</ele>
        <time>2018-05-26T15:42:04Z</time>
      </trkpt>
      <trkpt lat="47.82183" lon="6.80295">
        <ele>1088.033081</ele>
        <time>2018-05-26T15:42:05Z</time>
      </trkpt>
      <trkpt lat="47.82181" lon="6.80297">
        <ele>1087.795288</ele>
        <time>2018-05-26T15:42:06Z</time>
      </trkpt>
      <trkpt lat="47.82179" lon="6.80299">
        <ele>1087.664429</ele>
        <time>2018-05-26T15:42:07Z</time>
      </trkpt>
      <trkpt lat="47.82177" lon="6.80299">
        <ele>1087.540894</ele>
        <time>2018-05-26T15:42:08Z</time>
      </trkpt>
      <trkpt lat="47.82173" lon="6.80299">
        <ele>1087.338013</ele>
        <time>2018-05-26T15:42:09Z</time>
      </trkpt>
      <trkpt lat="47.82171" lon="6.803">
        <ele>1087.177368</ele>
        <time>2018-05-26T15:42:10Z</time>
      </trkpt>
      <trkpt lat="47.82168" lon="6.80301">
        <ele>1086.87561</ele>
        <time>2018-05-26T15:42:11Z</time>
      </trkpt>
      <trkpt lat="47.82166" lon="6.80302">
        <ele>1086.630005</ele>
        <time>2018-05-26T15:42:12Z</time>
      </trkpt>
      <trkpt lat="47.82163" lon="6.80304">
        <ele>1086.208374</ele>
        <time>2018-05-26T15:42:13Z</time>
      </trkpt>
      <trkpt lat="47.82161" lon="6.80305">
        <ele>1085.906738</ele>
        <time>2018-05-26T15:42:14Z</time>
      </trkpt>
      <trkpt lat="47.82159" lon="6.80306">
        <ele>1085.595337</ele>
        <time>2018-05-26T15:42:15Z</time>
      </trkpt>
      <trkpt lat="47.82156" lon="6.80307">
        <ele>1085.117432</ele>
        <time>2018-05-26T15:42:16Z</time>
      </trkpt>
      <trkpt lat="47.82153" lon="6.80309">
        <ele>1084.780884</ele>
        <time>2018-05-26T15:42:17Z</time>
      </trkpt>
      <trkpt lat="47.8215" lon="6.8031">
        <ele>1084.226563</ele>
        <time>2018-05-26T15:42:18Z</time>
      </trkpt>
      <trkpt lat="47.82147" lon="6.8031">
        <ele>1083.829346</ele>
        <time>2018-05-26T15:42:19Z</time>
      </trkpt>
      <trkpt lat="47.82143" lon="6.80312">
        <ele>1083.2052</ele>
        <time>2018-05-26T15:42:20Z</time>
      </trkpt>
      <trkpt lat="47.82139" lon="6.80313">
        <ele>1082.776489</ele>
        <time>2018-05-26T15:42:21Z</time>
      </trkpt>
      <trkpt lat="47.82136" lon="6.80314">
        <ele>1082.339233</ele>
        <time>2018-05-26T15:42:22Z</time>
      </trkpt>
      <trkpt lat="47.82133" lon="6.80314">
        <ele>1081.696167</ele>
        <time>2018-05-26T15:42:23Z</time>
      </trkpt>
      <trkpt lat="47.8213" lon="6.80314">
        <ele>1081.281372</ele>
        <time>2018-05-26T15:42:24Z</time>
      </trkpt>
      <trkpt lat="47.82128" lon="6.80315">
        <ele>1080.680054</ele>
        <time>2018-05-26T15:42:25Z</time>
      </trkpt>
      <trkpt lat="47.82126" lon="6.80315">
        <ele>1080.291382</ele>
        <time>2018-05-26T15:42:26Z</time>
      </trkpt>
      <trkpt lat="47.82123" lon="6.80316">
        <ele>1079.926392</ele>
        <time>2018-05-26T15:42:27Z</time>
      </trkpt>
      <trkpt lat="47.82119" lon="6.80315">
        <ele>1079.42395</ele>
        <time>2018-05-26T15:42:28Z</time>
      </trkpt>
      <trkpt lat="47.82115" lon="6.80314">
        <ele>1079.114746</ele>
        <time>2018-05-26T15:42:29Z</time>
      </trkpt>
      <trkpt lat="47.82112" lon="6.80314">
        <ele>1078.670288</ele>
        <time>2018-05-26T15:42:30Z</time>
      </trkpt>
      <trkpt lat="47.8211" lon="6.80315">
        <ele>1078.380249</ele>
        <time>2018-05-26T15:42:31Z</time>
      </trkpt>
      <trkpt lat="47.82107" lon="6.80317">
        <ele>1077.928711</ele>
        <time>2018-05-26T15:42:32Z</time>
      </trkpt>
      <trkpt lat="47.82105" lon="6.80319">
        <ele>1077.617676</ele>
        <time>2018-05-26T15:42:33Z</time>
      </trkpt>
      <trkpt lat="47.82102" lon="6.80323">
        <ele>1077.307617</ele>
        <time>2018-05-26T15:42:34Z</time>
      </trkpt>
      <trkpt lat="47.821" lon="6.80326">
        <ele>1077.008179</ele>
        <time>2018-05-26T15:42:35Z</time>
      </trkpt>
      <trkpt lat="47.82097" lon="6.80329">
        <ele>1076.703735</ele>
        <time>2018-05-26T15:42:36Z</time>
      </trkpt>
      <trkpt lat="47.82095" lon="6.80332">
        <ele>1076.384521</ele>
        <time>2018-05-26T15:42:37Z</time>
      </trkpt>
      <trkpt lat="47.82092" lon="6.80334">
        <ele>1075.857544</ele>
        <time>2018-05-26T15:42:38Z</time>
      </trkpt>
      <trkpt lat="47.82089" lon="6.80336">
        <ele>1075.494263</ele>
        <time>2018-05-26T15:42:39Z</time>
      </trkpt>
      <trkpt lat="47.82086" lon="6.80338">
        <ele>1074.957642</ele>
        <time>2018-05-26T15:42:40Z</time>
      </trkpt>
      <trkpt lat="47.82084" lon="6.80339">
        <ele>1074.61438</ele>
        <time>2018-05-26T15:42:41Z</time>
      </trkpt>
      <trkpt lat="47.82082" lon="6.8034">
        <ele>1074.087524</ele>
        <time>2018-05-26T15:42:42Z</time>
      </trkpt>
      <trkpt lat="47.82081" lon="6.80341">
        <ele>1073.709961</ele>
        <time>2018-05-26T15:42:43Z</time>
      </trkpt>
      <trkpt lat="47.82079" lon="6.80342">
        <ele>1073.127319</ele>
        <time>2018-05-26T15:42:44Z</time>
      </trkpt>
      <trkpt lat="47.82076" lon="6.80343">
        <ele>1072.748291</ele>
        <time>2018-05-26T15:42:45Z</time>
      </trkpt>
      <trkpt lat="47.82075" lon="6.80344">
        <ele>1072.382446</ele>
        <time>2018-05-26T15:42:46Z</time>
      </trkpt>
      <trkpt lat="47.82072" lon="6.80345">
        <ele>1071.854126</ele>
        <time>2018-05-26T15:42:47Z</time>
      </trkpt>
      <trkpt lat="47.8207" lon="6.80345">
        <ele>1071.519409</ele>
        <time>2018-05-26T15:42:48Z</time>
      </trkpt>
      <trkpt lat="47.82067" lon="6.80345">
        <ele>1071.033203</ele>
        <time>2018-05-26T15:42:49Z</time>
      </trkpt>
      <trkpt lat="47.82063" lon="6.80347">
        <ele>1070.696411</ele>
        <time>2018-05-26T15:42:50Z</time>
      </trkpt>
      <trkpt lat="47.8206" lon="6.80349">
        <ele>1070.143799</ele>
        <time>2018-05-26T15:42:51Z</time>
      </trkpt>
      <trkpt lat="47.82056" lon="6.80352">
        <ele>1069.743896</ele>
        <time>2018-05-26T15:42:52Z</time>
      </trkpt>
      <trkpt lat="47.82054" lon="6.80354">
        <ele>1069.328735</ele>
        <time>2018-05-26T15:42:53Z</time>
      </trkpt>
      <trkpt lat="47.82051" lon="6.80355">
        <ele>1068.703613</ele>
        <time>2018-05-26T15:42:54Z</time>
      </trkpt>
      <trkpt lat="47.82049" lon="6.80355">
        <ele>1068.297974</ele>
        <time>2018-05-26T15:42:55Z</time>
      </trkpt>
      <trkpt lat="47.82048" lon="6.80357">
        <ele>1067.731079</ele>
        <time>2018-05-26T15:42:56Z</time>
      </trkpt>
      <trkpt lat="47.82045" lon="6.80357">
        <ele>1067.376953</ele>
        <time>2018-05-26T15:42:57Z</time>
      </trkpt>
      <trkpt lat="47.82042" lon="6.80358">
        <ele>1066.893188</ele>
        <time>2018-05-26T15:42:58Z</time>
      </trkpt>
      <trkpt lat="47.82039" lon="6.80358">
        <ele>1066.610474</ele>
        <time>2018-05-26T15:42:59Z</time>
      </trkpt>
      <trkpt lat="47.82036" lon="6.80359">
        <ele>1066.250977</ele>
        <time>2018-05-26T15:43:00Z</time>
      </trkpt>
      <trkpt lat="47.82033" lon="6.80359">
        <ele>1066.027222</ele>
        <time>2018-05-26T15:43:01Z</time>
      </trkpt>
      <trkpt lat="47.82029" lon="6.8036">
        <ele>1065.803223</ele>
        <time>2018-05-26T15:43:02Z</time>
      </trkpt>
      <trkpt lat="47.82026" lon="6.80361">
        <ele>1065.454468</ele>
        <time>2018-05-26T15:43:03Z</time>
      </trkpt>
      <trkpt lat="47.82022" lon="6.80362">
        <ele>1065.227173</ele>
        <time>2018-05-26T15:43:04Z</time>
      </trkpt>
      <trkpt lat="47.82019" lon="6.80362">
        <ele>1064.896118</ele>
        <time>2018-05-26T15:43:05Z</time>
      </trkpt>
      <trkpt lat="47.82015" lon="6.80363">
        <ele>1064.676758</ele>
        <time>2018-05-26T15:43:06Z</time>
      </trkpt>
      <trkpt lat="47.82013" lon="6.80365">
        <ele>1064.352905</ele>
        <time>2018-05-26T15:43:07Z</time>
      </trkpt>
      <trkpt lat="47.82009" lon="6.80366">
        <ele>1064.14978</ele>
        <time>2018-05-26T15:43:08Z</time>
      </trkpt>
      <trkpt lat="47.82005" lon="6.80368">
        <ele>1063.852783</ele>
        <time>2018-05-26T15:43:09Z</time>
      </trkpt>
      <trkpt lat="47.82001" lon="6.8037">
        <ele>1063.652222</ele>
        <time>2018-05-26T15:43:10Z</time>
      </trkpt>
      <trkpt lat="47.81998" lon="6.80372">
        <ele>1063.44104</ele>
        <time>2018-05-26T15:43:11Z</time>
      </trkpt>
      <trkpt lat="47.81996" lon="6.80374">
        <ele>1063.105347</ele>
        <time>2018-05-26T15:43:12Z</time>
      </trkpt>
      <trkpt lat="47.81994" lon="6.80376">
        <ele>1062.88147</ele>
        <time>2018-05-26T15:43:13Z</time>
      </trkpt>
      <trkpt lat="47.81991" lon="6.80378">
        <ele>1062.55896</ele>
        <time>2018-05-26T15:43:14Z</time>
      </trkpt>
      <trkpt lat="47.81989" lon="6.80378">
        <ele>1062.356812</ele>
        <time>2018-05-26T15:43:15Z</time>
      </trkpt>
      <trkpt lat="47.81987" lon="6.80379">
        <ele>1062.169067</ele>
        <time>2018-05-26T15:43:16Z</time>
      </trkpt>
      <trkpt lat="47.81984" lon="6.80381">
        <ele>1061.914917</ele>
        <time>2018-05-26T15:43:17Z</time>
      </trkpt>
      <trkpt lat="47.81981" lon="6.80383">
        <ele>1061.761841</ele>
        <time>2018-05-26T15:43:18Z</time>
      </trkpt>
      <trkpt lat="47.81978" lon="6.80385">
        <ele>1061.56189</ele>
        <time>2018-05-26T15:43:19Z</time>
      </trkpt>
      <trkpt lat="47.81975" lon="6.80387">
        <ele>1061.449097</ele>
        <time>2018-05-26T15:43:20Z</time>
      </trkpt>
      <trkpt lat="47.81973" lon="6.80389">
        <ele>1061.342285</ele>
        <time>2018-05-26T15:43:21Z</time>
      </trkpt>
      <trkpt lat="47.8197" lon="6.80392">
        <ele>1061.169067</ele>
        <time>2018-05-26T15:43:22Z</time>
      </trkpt>
      <trkpt lat="47.81967" lon="6.80395">
        <ele>1061.036621</ele>
        <time>2018-05-26T15:43:23Z</time>
      </trkpt>
      <trkpt lat="47.81965" lon="6.80399">
        <ele>1060.802856</ele>
        <time>2018-05-26T15:43:24Z</time>
      </trkpt>
      <trkpt lat="47.81961" lon="6.80403">
        <ele>1060.615601</ele>
        <time>2018-05-26T15:43:25Z</time>
      </trkpt>
      <trkpt lat="47.81958" lon="6.80407">
        <ele>1060.271118</ele>
        <time>2018-05-26T15:43:26Z</time>
      </trkpt>
      <trkpt lat="47.81955" lon="6.8041">
        <ele>1059.981812</ele>
        <time>2018-05-26T15:43:27Z</time>
      </trkpt>
      <trkpt lat="47.8195" lon="6.80413">
        <ele>1059.663086</ele>
        <time>2018-05-26T15:43:28Z</time>
      </trkpt>
      <trkpt lat="47.81946" lon="6.80415">
        <ele>1059.162109</ele>
        <time>2018-05-26T15:43:29Z</time>
      </trkpt>
      <trkpt lat="47.81943" lon="6.80417">
        <ele>1058.811401</ele>
        <time>2018-05-26T15:43:30Z</time>
      </trkpt>
      <trkpt lat="47.81941" lon="6.80419">
        <ele>1058.268311</ele>
        <time>2018-05-26T15:43:31Z</time>
      </trkpt>
      <trkpt lat="47.81938" lon="6.80421">
        <ele>1057.927856</ele>
        <time>2018-05-26T15:43:32Z</time>
      </trkpt>
      <trkpt lat="47.81935" lon="6.80423">
        <ele>1057.484131</ele>
        <time>2018-05-26T15:43:33Z</time>
      </trkpt>
      <trkpt lat="47.81932" lon="6.80426">
        <ele>1057.217407</ele>
        <time>2018-05-26T15:43:34Z</time>
      </trkpt>
      <trkpt lat="47.8193" lon="6.80428">
        <ele>1056.954468</ele>
        <time>2018-05-26T15:43:35Z</time>
      </trkpt>
      <trkpt lat="47.81927" lon="6.80431">
        <ele>1056.685303</ele>
        <time>2018-05-26T15:43:36Z</time>
      </trkpt>
      <trkpt lat="47.81923" lon="6.80433">
        <ele>1056.408447</ele>
        <time>2018-05-26T15:43:37Z</time>
      </trkpt>
      <trkpt lat="47.81919" lon="6.80435">
        <ele>1056.119263</ele>
        <time>2018-05-26T15:43:38Z</time>
      </trkpt>
      <trkpt lat="47.81915" lon="6.80438">
        <ele>1055.639404</ele>
        <time>2018-05-26T15:43:39Z</time>
      </trkpt>
      <trkpt lat="47.81911" lon="6.80441">
        <ele>1055.287109</ele>
        <time>2018-05-26T15:43:40Z</time>
      </trkpt>
      <trkpt lat="47.81908" lon="6.80443">
        <ele>1054.739746</ele>
        <time>2018-05-26T15:43:41Z</time>
      </trkpt>
      <trkpt lat="47.81906" lon="6.80446">
        <ele>1054.376831</ele>
        <time>2018-05-26T15:43:42Z</time>
      </trkpt>
      <trkpt lat="47.81904" lon="6.8045">
        <ele>1053.858276</ele>
        <time>2018-05-26T15:43:43Z</time>
      </trkpt>
      <trkpt lat="47.81901" lon="6.80454">
        <ele>1053.536621</ele>
        <time>2018-05-26T15:43:44Z</time>
      </trkpt>
      <trkpt lat="47.81898" lon="6.80459">
        <ele>1053.230957</ele>
        <time>2018-05-26T15:43:45Z</time>
      </trkpt>
      <trkpt lat="47.81895" lon="6.80463">
        <ele>1052.781982</ele>
        <time>2018-05-26T15:43:46Z</time>
      </trkpt>
      <trkpt lat="47.81891" lon="6.80467">
        <ele>1052.484497</ele>
        <time>2018-05-26T15:43:47Z</time>
      </trkpt>
      <trkpt lat="47.81888" lon="6.80471">
        <ele>1052.046509</ele>
        <time>2018-05-26T15:43:48Z</time>
      </trkpt>
      <trkpt lat="47.81885" lon="6.80475">
        <ele>1051.783325</ele>
        <time>2018-05-26T15:43:49Z</time>
      </trkpt>
      <trkpt lat="47.81882" lon="6.80478">
        <ele>1051.466675</ele>
        <time>2018-05-26T15:43:50Z</time>
      </trkpt>
      <trkpt lat="47.81879" lon="6.80481">
        <ele>1051.315796</ele>
        <time>2018-05-26T15:43:51Z</time>
      </trkpt>
      <trkpt lat="47.81875" lon="6.80484">
        <ele>1051.166748</ele>
        <time>2018-05-26T15:43:52Z</time>
      </trkpt>
      <trkpt lat="47.81871" lon="6.80486">
        <ele>1051.114014</ele>
        <time>2018-05-26T15:43:53Z</time>
      </trkpt>
      <trkpt lat="47.81867" lon="6.80488">
        <ele>1051.076904</ele>
        <time>2018-05-26T15:43:54Z</time>
      </trkpt>
      <trkpt lat="47.81862" lon="6.8049">
        <ele>1051.005615</ele>
        <time>2018-05-26T15:43:55Z</time>
      </trkpt>
      <trkpt lat="47.8186" lon="6.80491">
        <ele>1050.929565</ele>
        <time>2018-05-26T15:43:56Z</time>
      </trkpt>
      <trkpt lat="47.81857" lon="6.80492">
        <ele>1050.766235</ele>
        <time>2018-05-26T15:43:57Z</time>
      </trkpt>
      <trkpt lat="47.81856" lon="6.80494">
        <ele>1050.619263</ele>
        <time>2018-05-26T15:43:58Z</time>
      </trkpt>
      <trkpt lat="47.81855" lon="6.80494">
        <ele>1050.43689</ele>
        <time>2018-05-26T15:43:59Z</time>
      </trkpt>
      <trkpt lat="47.81848" lon="6.80503">
        <ele>1048.219116</ele>
        <time>2018-05-26T15:44:16Z</time>
      </trkpt>
      <trkpt lat="47.81846" lon="6.80506">
        <ele>1048.101318</ele>
        <time>2018-05-26T15:44:18Z</time>
      </trkpt>
      <trkpt lat="47.81844" lon="6.80508">
        <ele>1048.017334</ele>
        <time>2018-05-26T15:44:19Z</time>
      </trkpt>
      <trkpt lat="47.81843" lon="6.8051">
        <ele>1047.886353</ele>
        <time>2018-05-26T15:44:20Z</time>
      </trkpt>
      <trkpt lat="47.81841" lon="6.80512">
        <ele>1047.796997</ele>
        <time>2018-05-26T15:44:21Z</time>
      </trkpt>
      <trkpt lat="47.8184" lon="6.80515">
        <ele>1047.70752</ele>
        <time>2018-05-26T15:44:22Z</time>
      </trkpt>
      <trkpt lat="47.81839" lon="6.80517">
        <ele>1047.558472</ele>
        <time>2018-05-26T15:44:23Z</time>
      </trkpt>
      <trkpt lat="47.81837" lon="6.80519">
        <ele>1047.454956</ele>
        <time>2018-05-26T15:44:24Z</time>
      </trkpt>
      <trkpt lat="47.81836" lon="6.80522">
        <ele>1047.314697</ele>
        <time>2018-05-26T15:44:25Z</time>
      </trkpt>
      <trkpt lat="47.81834" lon="6.80527">
        <ele>1047.234375</ele>
        <time>2018-05-26T15:44:26Z</time>
      </trkpt>
      <trkpt lat="47.81833" lon="6.80531">
        <ele>1047.107544</ele>
        <time>2018-05-26T15:44:27Z</time>
      </trkpt>
      <trkpt lat="47.81833" lon="6.80535">
        <ele>1047.008423</ele>
        <time>2018-05-26T15:44:28Z</time>
      </trkpt>
      <trkpt lat="47.81832" lon="6.80538">
        <ele>1046.83606</ele>
        <time>2018-05-26T15:44:29Z</time>
      </trkpt>
      <trkpt lat="47.81831" lon="6.80541">
        <ele>1046.695679</ele>
        <time>2018-05-26T15:44:30Z</time>
      </trkpt>
      <trkpt lat="47.81831" lon="6.80542">
        <ele>1045.68811</ele>
        <time>2018-05-26T15:44:33Z</time>
      </trkpt>
      <trkpt lat="47.8183" lon="6.80557">
        <ele>1044.103882</ele>
        <time>2018-05-26T15:44:49Z</time>
      </trkpt>
      <trkpt lat="47.8183" lon="6.8056">
        <ele>1043.982788</ele>
        <time>2018-05-26T15:44:51Z</time>
      </trkpt>
      <trkpt lat="47.8183" lon="6.80562">
        <ele>1043.901489</ele>
        <time>2018-05-26T15:44:52Z</time>
      </trkpt>
      <trkpt lat="47.81829" lon="6.80564">
        <ele>1043.817627</ele>
        <time>2018-05-26T15:44:53Z</time>
      </trkpt>
      <trkpt lat="47.81827" lon="6.80566">
        <ele>1043.697388</ele>
        <time>2018-05-26T15:44:54Z</time>
      </trkpt>
      <trkpt lat="47.81825" lon="6.80568">
        <ele>1043.628296</ele>
        <time>2018-05-26T15:44:55Z</time>
      </trkpt>
      <trkpt lat="47.81823" lon="6.8057">
        <ele>1043.544678</ele>
        <time>2018-05-26T15:44:56Z</time>
      </trkpt>
      <trkpt lat="47.81821" lon="6.80572">
        <ele>1043.50061</ele>
        <time>2018-05-26T15:44:57Z</time>
      </trkpt>
      <trkpt lat="47.81818" lon="6.80574">
        <ele>1043.453735</ele>
        <time>2018-05-26T15:44:58Z</time>
      </trkpt>
      <trkpt lat="47.81816" lon="6.80575">
        <ele>1043.434692</ele>
        <time>2018-05-26T15:44:59Z</time>
      </trkpt>
      <trkpt lat="47.81815" lon="6.80576">
        <ele>1043.425415</ele>
        <time>2018-05-26T15:45:00Z</time>
      </trkpt>
      <trkpt lat="47.81814" lon="6.80578">
        <ele>1043.418823</ele>
        <time>2018-05-26T15:45:01Z</time>
      </trkpt>
      <trkpt lat="47.81813" lon="6.8058">
        <ele>1043.411865</ele>
        <time>2018-05-26T15:45:02Z</time>
      </trkpt>
      <trkpt lat="47.81812" lon="6.80582">
        <ele>1043.387085</ele>
        <time>2018-05-26T15:45:03Z</time>
      </trkpt>
      <trkpt lat="47.8181" lon="6.80583">
        <ele>1043.358276</ele>
        <time>2018-05-26T15:45:04Z</time>
      </trkpt>
      <trkpt lat="47.81808" lon="6.80585">
        <ele>1043.290039</ele>
        <time>2018-05-26T15:45:05Z</time>
      </trkpt>
      <trkpt lat="47.81805" lon="6.80588">
        <ele>1043.222168</ele>
        <time>2018-05-26T15:45:06Z</time>
      </trkpt>
      <trkpt lat="47.81802" lon="6.80592">
        <ele>1043.075317</ele>
        <time>2018-05-26T15:45:07Z</time>
      </trkpt>
      <trkpt lat="47.81798" lon="6.80595">
        <ele>1042.944336</ele>
        <time>2018-05-26T15:45:08Z</time>
      </trkpt>
      <trkpt lat="47.81794" lon="6.80598">
        <ele>1042.700317</ele>
        <time>2018-05-26T15:45:09Z</time>
      </trkpt>
      <trkpt lat="47.81789" lon="6.80601">
        <ele>1042.501587</ele>
        <time>2018-05-26T15:45:10Z</time>
      </trkpt>
      <trkpt lat="47.81786" lon="6.80603">
        <ele>1042.269165</ele>
        <time>2018-05-26T15:45:11Z</time>
      </trkpt>
      <trkpt lat="47.81783" lon="6.80605">
        <ele>1041.849243</ele>
        <time>2018-05-26T15:45:12Z</time>
      </trkpt>
      <trkpt lat="47.81779" lon="6.80606">
        <ele>1041.518188</ele>
        <time>2018-05-26T15:45:13Z</time>
      </trkpt>
      <trkpt lat="47.81776" lon="6.80607">
        <ele>1040.953003</ele>
        <time>2018-05-26T15:45:14Z</time>
      </trkpt>
      <trkpt lat="47.81773" lon="6.80607">
        <ele>1040.551392</ele>
        <time>2018-05-26T15:45:15Z</time>
      </trkpt>
      <trkpt lat="47.81769" lon="6.80606">
        <ele>1039.94165</ele>
        <time>2018-05-26T15:45:16Z</time>
      </trkpt>
      <trkpt lat="47.81766" lon="6.80605">
        <ele>1039.536987</ele>
        <time>2018-05-26T15:45:17Z</time>
      </trkpt>
      <trkpt lat="47.81762" lon="6.80604">
        <ele>1038.960938</ele>
        <time>2018-05-26T15:45:18Z</time>
      </trkpt>
      <trkpt lat="47.81759" lon="6.80605">
        <ele>1038.611816</ele>
        <time>2018-05-26T15:45:19Z</time>
      </trkpt>
      <trkpt lat="47.81756" lon="6.80605">
        <ele>1038.274048</ele>
        <time>2018-05-26T15:45:20Z</time>
      </trkpt>
      <trkpt lat="47.81753" lon="6.80608">
        <ele>1037.762573</ele>
        <time>2018-05-26T15:45:21Z</time>
      </trkpt>
      <trkpt lat="47.81749" lon="6.80611">
        <ele>1037.427246</ele>
        <time>2018-05-26T15:45:22Z</time>
      </trkpt>
      <trkpt lat="47.81746" lon="6.80614">
        <ele>1036.941528</ele>
        <time>2018-05-26T15:45:23Z</time>
      </trkpt>
      <trkpt lat="47.81742" lon="6.80618">
        <ele>1036.614136</ele>
        <time>2018-05-26T15:45:24Z</time>
      </trkpt>
      <trkpt lat="47.81739" lon="6.80621">
        <ele>1036.277222</ele>
        <time>2018-05-26T15:45:25Z</time>
      </trkpt>
      <trkpt lat="47.81735" lon="6.80625">
        <ele>1035.766235</ele>
        <time>2018-05-26T15:45:26Z</time>
      </trkpt>
      <trkpt lat="47.81731" lon="6.80628">
        <ele>1035.440308</ele>
        <time>2018-05-26T15:45:27Z</time>
      </trkpt>
      <trkpt lat="47.81727" lon="6.80632">
        <ele>1034.973999</ele>
        <time>2018-05-26T15:45:28Z</time>
      </trkpt>
      <trkpt lat="47.81721" lon="6.80635">
        <ele>1034.668701</ele>
        <time>2018-05-26T15:45:29Z</time>
      </trkpt>
      <trkpt lat="47.81716" lon="6.80638">
        <ele>1034.204468</ele>
        <time>2018-05-26T15:45:30Z</time>
      </trkpt>
      <trkpt lat="47.81711" lon="6.80642">
        <ele>1033.883423</ele>
        <time>2018-05-26T15:45:31Z</time>
      </trkpt>
      <trkpt lat="47.81706" lon="6.80646">
        <ele>1033.541016</ele>
        <time>2018-05-26T15:45:32Z</time>
      </trkpt>
      <trkpt lat="47.81701" lon="6.8065">
        <ele>1032.950317</ele>
        <time>2018-05-26T15:45:33Z</time>
      </trkpt>
      <trkpt lat="47.81694" lon="6.80654">
        <ele>1032.500122</ele>
        <time>2018-05-26T15:45:34Z</time>
      </trkpt>
      <trkpt lat="47.81689" lon="6.80658">
        <ele>1031.788574</ele>
        <time>2018-05-26T15:45:35Z</time>
      </trkpt>
      <trkpt lat="47.81683" lon="6.8066">
        <ele>1031.319214</ele>
        <time>2018-05-26T15:45:36Z</time>
      </trkpt>
      <trkpt lat="47.81678" lon="6.80662">
        <ele>1031.083862</ele>
        <time>2018-05-26T15:45:37Z</time>
      </trkpt>
      <trkpt lat="47.81673" lon="6.80663">
        <ele>1030.598755</ele>
        <time>2018-05-26T15:45:38Z</time>
      </trkpt>
      <trkpt lat="47.81669" lon="6.80664">
        <ele>1030.08728</ele>
        <time>2018-05-26T15:45:39Z</time>
      </trkpt>
      <trkpt lat="47.81665" lon="6.80664">
        <ele>1029.558716</ele>
        <time>2018-05-26T15:45:40Z</time>
      </trkpt>
      <trkpt lat="47.81662" lon="6.80665">
        <ele>1028.780151</ele>
        <time>2018-05-26T15:45:41Z</time>
      </trkpt>
      <trkpt lat="47.81659" lon="6.80668">
        <ele>1028.273926</ele>
        <time>2018-05-26T15:45:42Z</time>
      </trkpt>
      <trkpt lat="47.81657" lon="6.8067">
        <ele>1027.525024</ele>
        <time>2018-05-26T15:45:43Z</time>
      </trkpt>
      <trkpt lat="47.81655" lon="6.80671">
        <ele>1027.036743</ele>
        <time>2018-05-26T15:45:44Z</time>
      </trkpt>
      <trkpt lat="47.81652" lon="6.80673">
        <ele>1026.348633</ele>
        <time>2018-05-26T15:45:45Z</time>
      </trkpt>
      <trkpt lat="47.81648" lon="6.80674">
        <ele>1025.927368</ele>
        <time>2018-05-26T15:45:46Z</time>
      </trkpt>
      <trkpt lat="47.81645" lon="6.80676">
        <ele>1025.368042</ele>
        <time>2018-05-26T15:45:47Z</time>
      </trkpt>
      <trkpt lat="47.81641" lon="6.80678">
        <ele>1025.037842</ele>
        <time>2018-05-26T15:45:48Z</time>
      </trkpt>
      <trkpt lat="47.81638" lon="6.80679">
        <ele>1024.739502</ele>
        <time>2018-05-26T15:45:49Z</time>
      </trkpt>
      <trkpt lat="47.81633" lon="6.8068">
        <ele>1024.30896</ele>
        <time>2018-05-26T15:45:50Z</time>
      </trkpt>
      <trkpt lat="47.81628" lon="6.80681">
        <ele>1024.018433</ele>
        <time>2018-05-26T15:45:51Z</time>
      </trkpt>
      <trkpt lat="47.81622" lon="6.80682">
        <ele>1023.568054</ele>
        <time>2018-05-26T15:45:52Z</time>
      </trkpt>
      <trkpt lat="47.81616" lon="6.80684">
        <ele>1023.260254</ele>
        <time>2018-05-26T15:45:53Z</time>
      </trkpt>
      <trkpt lat="47.81609" lon="6.80685">
        <ele>1022.933411</ele>
        <time>2018-05-26T15:45:54Z</time>
      </trkpt>
      <trkpt lat="47.81602" lon="6.80684">
        <ele>1022.350403</ele>
        <time>2018-05-26T15:45:55Z</time>
      </trkpt>
      <trkpt lat="47.81595" lon="6.80684">
        <ele>1021.874695</ele>
        <time>2018-05-26T15:45:56Z</time>
      </trkpt>
      <trkpt lat="47.81587" lon="6.80684">
        <ele>1021.031738</ele>
        <time>2018-05-26T15:45:57Z</time>
      </trkpt>
      <trkpt lat="47.8158" lon="6.80686">
        <ele>1020.389648</ele>
        <time>2018-05-26T15:45:58Z</time>
      </trkpt>
      <trkpt lat="47.81572" lon="6.80687">
        <ele>1019.345886</ele>
        <time>2018-05-26T15:45:59Z</time>
      </trkpt>
      <trkpt lat="47.81564" lon="6.80688">
        <ele>1018.638672</ele>
        <time>2018-05-26T15:46:00Z</time>
      </trkpt>
      <trkpt lat="47.81555" lon="6.80689">
        <ele>1017.94928</ele>
        <time>2018-05-26T15:46:01Z</time>
      </trkpt>
      <trkpt lat="47.81547" lon="6.8069">
        <ele>1016.943848</ele>
        <time>2018-05-26T15:46:02Z</time>
      </trkpt>
      <trkpt lat="47.8154" lon="6.80691">
        <ele>1016.287292</ele>
        <time>2018-05-26T15:46:03Z</time>
      </trkpt>
      <trkpt lat="47.81532" lon="6.80692">
        <ele>1015.303955</ele>
        <time>2018-05-26T15:46:04Z</time>
      </trkpt>
      <trkpt lat="47.81524" lon="6.80692">
        <ele>1014.655457</ele>
        <time>2018-05-26T15:46:05Z</time>
      </trkpt>
      <trkpt lat="47.81517" lon="6.80694">
        <ele>1014.024902</ele>
        <time>2018-05-26T15:46:06Z</time>
      </trkpt>
      <trkpt lat="47.81511" lon="6.80695">
        <ele>1013.131836</ele>
        <time>2018-05-26T15:46:07Z</time>
      </trkpt>
      <trkpt lat="47.81505" lon="6.80694">
        <ele>1012.587097</ele>
        <time>2018-05-26T15:46:08Z</time>
      </trkpt>
      <trkpt lat="47.81499" lon="6.80694">
        <ele>1011.817322</ele>
        <time>2018-05-26T15:46:09Z</time>
      </trkpt>
      <trkpt lat="47.81493" lon="6.80693">
        <ele>1011.33197</ele>
        <time>2018-05-26T15:46:10Z</time>
      </trkpt>
      <trkpt lat="47.81486" lon="6.80693">
        <ele>1010.633789</ele>
        <time>2018-05-26T15:46:11Z</time>
      </trkpt>
      <trkpt lat="47.8148" lon="6.80692">
        <ele>1010.172302</ele>
        <time>2018-05-26T15:46:12Z</time>
      </trkpt>
      <trkpt lat="47.81474" lon="6.80692">
        <ele>1009.709229</ele>
        <time>2018-05-26T15:46:13Z</time>
      </trkpt>
      <trkpt lat="47.81469" lon="6.80693">
        <ele>1009.021667</ele>
        <time>2018-05-26T15:46:14Z</time>
      </trkpt>
      <trkpt lat="47.81463" lon="6.80695">
        <ele>1008.559875</ele>
        <time>2018-05-26T15:46:15Z</time>
      </trkpt>
      <trkpt lat="47.81459" lon="6.80698">
        <ele>1007.868591</ele>
        <time>2018-05-26T15:46:16Z</time>
      </trkpt>
      <trkpt lat="47.81458" lon="6.80703">
        <ele>1007.411438</ele>
        <time>2018-05-26T15:46:17Z</time>
      </trkpt>
      <trkpt lat="47.81458" lon="6.80709">
        <ele>1006.719177</ele>
        <time>2018-05-26T15:46:18Z</time>
      </trkpt>
      <trkpt lat="47.81459" lon="6.80714">
        <ele>1006.264099</ele>
        <time>2018-05-26T15:46:19Z</time>
      </trkpt>
      <trkpt lat="47.8146" lon="6.8072">
        <ele>1005.601074</ele>
        <time>2018-05-26T15:46:20Z</time>
      </trkpt>
      <trkpt lat="47.81463" lon="6.80727">
        <ele>1005.180664</ele>
        <time>2018-05-26T15:46:21Z</time>
      </trkpt>
      <trkpt lat="47.81465" lon="6.80733">
        <ele>1004.799988</ele>
        <time>2018-05-26T15:46:22Z</time>
      </trkpt>
      <trkpt lat="47.81467" lon="6.8074">
        <ele>1004.297302</ele>
        <time>2018-05-26T15:46:23Z</time>
      </trkpt>
      <trkpt lat="47.8147" lon="6.80746">
        <ele>1003.999939</ele>
        <time>2018-05-26T15:46:24Z</time>
      </trkpt>
      <trkpt lat="47.81472" lon="6.80753">
        <ele>1003.60498</ele>
        <time>2018-05-26T15:46:25Z</time>
      </trkpt>
      <trkpt lat="47.81476" lon="6.80759">
        <ele>1003.372986</ele>
        <time>2018-05-26T15:46:26Z</time>
      </trkpt>
      <trkpt lat="47.8148" lon="6.80766">
        <ele>1003.022949</ele>
        <time>2018-05-26T15:46:27Z</time>
      </trkpt>
      <trkpt lat="47.81484" lon="6.80771">
        <ele>1002.76178</ele>
        <time>2018-05-26T15:46:28Z</time>
      </trkpt>
      <trkpt lat="47.81489" lon="6.80778">
        <ele>1002.305725</ele>
        <time>2018-05-26T15:46:29Z</time>
      </trkpt>
      <trkpt lat="47.81494" lon="6.80785">
        <ele>1001.943298</ele>
        <time>2018-05-26T15:46:30Z</time>
      </trkpt>
      <trkpt lat="47.81498" lon="6.80792">
        <ele>1001.316223</ele>
        <time>2018-05-26T15:46:31Z</time>
      </trkpt>
      <trkpt lat="47.81503" lon="6.80799">
        <ele>1000.853516</ele>
        <time>2018-05-26T15:46:32Z</time>
      </trkpt>
      <trkpt lat="47.81508" lon="6.80808">
        <ele>1000.385071</ele>
        <time>2018-05-26T15:46:33Z</time>
      </trkpt>
      <trkpt lat="47.81514" lon="6.80817">
        <ele>999.673828</ele>
        <time>2018-05-26T15:46:34Z</time>
      </trkpt>
      <trkpt lat="47.8152" lon="6.80827">
        <ele>999.194397</ele>
        <time>2018-05-26T15:46:35Z</time>
      </trkpt>
      <trkpt lat="47.81525" lon="6.80836">
        <ele>998.44989</ele>
        <time>2018-05-26T15:46:36Z</time>
      </trkpt>
      <trkpt lat="47.8153" lon="6.80844">
        <ele>997.93573</ele>
        <time>2018-05-26T15:46:37Z</time>
      </trkpt>
      <trkpt lat="47.81532" lon="6.80851">
        <ele>997.668457</ele>
        <time>2018-05-26T15:46:38Z</time>
      </trkpt>
      <trkpt lat="47.81534" lon="6.80857">
        <ele>997.668457</ele>
        <time>2018-05-26T15:46:39Z</time>
      </trkpt>
      <trkpt lat="47.81537" lon="6.80862">
        <ele>996.822937</ele>
        <time>2018-05-26T15:46:40Z</time>
      </trkpt>
      <trkpt lat="47.8154" lon="6.80867">
        <ele>996.234619</ele>
        <time>2018-05-26T15:46:41Z</time>
      </trkpt>
      <trkpt lat="47.81544" lon="6.80873">
        <ele>995.652161</ele>
        <time>2018-05-26T15:46:42Z</time>
      </trkpt>
      <trkpt lat="47.81547" lon="6.8088">
        <ele>994.798401</ele>
        <time>2018-05-26T15:46:43Z</time>
      </trkpt>
      <trkpt lat="47.81551" lon="6.80888">
        <ele>994.253418</ele>
        <time>2018-05-26T15:46:44Z</time>
      </trkpt>
      <trkpt lat="47.81554" lon="6.80894">
        <ele>993.522278</ele>
        <time>2018-05-26T15:46:45Z</time>
      </trkpt>
      <trkpt lat="47.81557" lon="6.80898">
        <ele>993.072815</ele>
        <time>2018-05-26T15:46:46Z</time>
      </trkpt>
      <trkpt lat="47.81558" lon="6.809">
        <ele>992.404724</ele>
        <time>2018-05-26T15:46:47Z</time>
      </trkpt>
      <trkpt lat="47.81559" lon="6.80903">
        <ele>991.97467</ele>
        <time>2018-05-26T15:46:48Z</time>
      </trkpt>
      <trkpt lat="47.81561" lon="6.80905">
        <ele>991.392273</ele>
        <time>2018-05-26T15:46:49Z</time>
      </trkpt>
      <trkpt lat="47.81561" lon="6.80908">
        <ele>991.047852</ele>
        <time>2018-05-26T15:46:50Z</time>
      </trkpt>
      <trkpt lat="47.81562" lon="6.8091">
        <ele>990.577698</ele>
        <time>2018-05-26T15:46:51Z</time>
      </trkpt>
      <trkpt lat="47.81563" lon="6.80912">
        <ele>990.294373</ele>
        <time>2018-05-26T15:46:52Z</time>
      </trkpt>
      <trkpt lat="47.81564" lon="6.80914">
        <ele>990.038086</ele>
        <time>2018-05-26T15:46:53Z</time>
      </trkpt>
      <trkpt lat="47.81564" lon="6.80916">
        <ele>989.693542</ele>
        <time>2018-05-26T15:46:54Z</time>
      </trkpt>
      <trkpt lat="47.81566" lon="6.80918">
        <ele>989.474609</ele>
        <time>2018-05-26T15:46:55Z</time>
      </trkpt>
      <trkpt lat="47.81568" lon="6.8092">
        <ele>989.15741</ele>
        <time>2018-05-26T15:46:56Z</time>
      </trkpt>
      <trkpt lat="47.8157" lon="6.80923">
        <ele>988.954102</ele>
        <time>2018-05-26T15:46:57Z</time>
      </trkpt>
      <trkpt lat="47.81571" lon="6.80928">
        <ele>988.66333</ele>
        <time>2018-05-26T15:46:58Z</time>
      </trkpt>
      <trkpt lat="47.81572" lon="6.80931">
        <ele>988.481628</ele>
        <time>2018-05-26T15:46:59Z</time>
      </trkpt>
      <trkpt lat="47.81574" lon="6.80933">
        <ele>988.224182</ele>
        <time>2018-05-26T15:47:00Z</time>
      </trkpt>
      <trkpt lat="47.81574" lon="6.80937">
        <ele>988.063721</ele>
        <time>2018-05-26T15:47:01Z</time>
      </trkpt>
      <trkpt lat="47.81575" lon="6.8094">
        <ele>987.909973</ele>
        <time>2018-05-26T15:47:02Z</time>
      </trkpt>
      <trkpt lat="47.81577" lon="6.80944">
        <ele>987.678528</ele>
        <time>2018-05-26T15:47:03Z</time>
      </trkpt>
      <trkpt lat="47.81579" lon="6.80948">
        <ele>987.52655</ele>
        <time>2018-05-26T15:47:04Z</time>
      </trkpt>
      <trkpt lat="47.81582" lon="6.80951">
        <ele>987.310852</ele>
        <time>2018-05-26T15:47:05Z</time>
      </trkpt>
      <trkpt lat="47.81584" lon="6.80955">
        <ele>987.162842</ele>
        <time>2018-05-26T15:47:06Z</time>
      </trkpt>
      <trkpt lat="47.81586" lon="6.8096">
        <ele>986.994873</ele>
        <time>2018-05-26T15:47:07Z</time>
      </trkpt>
      <trkpt lat="47.81588" lon="6.80967">
        <ele>986.689697</ele>
        <time>2018-05-26T15:47:08Z</time>
      </trkpt>
      <trkpt lat="47.81591" lon="6.80975">
        <ele>986.452698</ele>
        <time>2018-05-26T15:47:09Z</time>
      </trkpt>
      <trkpt lat="47.81593" lon="6.80982">
        <ele>986.044434</ele>
        <time>2018-05-26T15:47:10Z</time>
      </trkpt>
      <trkpt lat="47.81596" lon="6.80985">
        <ele>985.726135</ele>
        <time>2018-05-26T15:47:11Z</time>
      </trkpt>
      <trkpt lat="47.81596" lon="6.80988">
        <ele>985.163574</ele>
        <time>2018-05-26T15:47:12Z</time>
      </trkpt>
      <trkpt lat="47.81596" lon="6.80989">
        <ele>984.735168</ele>
        <time>2018-05-26T15:47:13Z</time>
      </trkpt>
      <trkpt lat="47.81596" lon="6.80991">
        <ele>984.052734</ele>
        <time>2018-05-26T15:47:14Z</time>
      </trkpt>
      <trkpt lat="47.81597" lon="6.80994">
        <ele>983.610779</ele>
        <time>2018-05-26T15:47:15Z</time>
      </trkpt>
      <trkpt lat="47.81598" lon="6.80995">
        <ele>983.016663</ele>
        <time>2018-05-26T15:47:16Z</time>
      </trkpt>
      <trkpt lat="47.81599" lon="6.80997">
        <ele>982.67865</ele>
        <time>2018-05-26T15:47:17Z</time>
      </trkpt>
      <trkpt lat="47.81601" lon="6.81">
        <ele>982.386719</ele>
        <time>2018-05-26T15:47:18Z</time>
      </trkpt>
      <trkpt lat="47.81602" lon="6.81005">
        <ele>982.001953</ele>
        <time>2018-05-26T15:47:19Z</time>
      </trkpt>
      <trkpt lat="47.81603" lon="6.81011">
        <ele>981.758972</ele>
        <time>2018-05-26T15:47:20Z</time>
      </trkpt>
      <trkpt lat="47.81606" lon="6.81016">
        <ele>981.386902</ele>
        <time>2018-05-26T15:47:21Z</time>
      </trkpt>
      <trkpt lat="47.81607" lon="6.81021">
        <ele>981.125671</ele>
        <time>2018-05-26T15:47:22Z</time>
      </trkpt>
      <trkpt lat="47.81609" lon="6.81027">
        <ele>980.730774</ele>
        <time>2018-05-26T15:47:23Z</time>
      </trkpt>
      <trkpt lat="47.8161" lon="6.81033">
        <ele>980.487793</ele>
        <time>2018-05-26T15:47:24Z</time>
      </trkpt>
      <trkpt lat="47.81612" lon="6.81038">
        <ele>980.272461</ele>
        <time>2018-05-26T15:47:25Z</time>
      </trkpt>
      <trkpt lat="47.81614" lon="6.81044">
        <ele>979.997314</ele>
        <time>2018-05-26T15:47:26Z</time>
      </trkpt>
      <trkpt lat="47.81615" lon="6.81049">
        <ele>979.84491</ele>
        <time>2018-05-26T15:47:27Z</time>
      </trkpt>
      <trkpt lat="47.81616" lon="6.81055">
        <ele>979.648743</ele>
        <time>2018-05-26T15:47:28Z</time>
      </trkpt>
      <trkpt lat="47.81617" lon="6.81058">
        <ele>979.519592</ele>
        <time>2018-05-26T15:47:29Z</time>
      </trkpt>
      <trkpt lat="47.81619" lon="6.81061">
        <ele>979.366516</ele>
        <time>2018-05-26T15:47:30Z</time>
      </trkpt>
      <trkpt lat="47.81619" lon="6.81063">
        <ele>979.079346</ele>
        <time>2018-05-26T15:47:31Z</time>
      </trkpt>
      <trkpt lat="47.81621" lon="6.81066">
        <ele>978.861511</ele>
        <time>2018-05-26T15:47:32Z</time>
      </trkpt>
      <trkpt lat="47.81622" lon="6.8107">
        <ele>978.519043</ele>
        <time>2018-05-26T15:47:33Z</time>
      </trkpt>
      <trkpt lat="47.81623" lon="6.81073">
        <ele>978.289368</ele>
        <time>2018-05-26T15:47:34Z</time>
      </trkpt>
      <trkpt lat="47.81625" lon="6.81076">
        <ele>977.968994</ele>
        <time>2018-05-26T15:47:35Z</time>
      </trkpt>
      <trkpt lat="47.81627" lon="6.8108">
        <ele>977.786133</ele>
        <time>2018-05-26T15:47:36Z</time>
      </trkpt>
      <trkpt lat="47.81628" lon="6.81083">
        <ele>977.628906</ele>
        <time>2018-05-26T15:47:37Z</time>
      </trkpt>
      <trkpt lat="47.81629" lon="6.81086">
        <ele>977.415833</ele>
        <time>2018-05-26T15:47:38Z</time>
      </trkpt>
      <trkpt lat="47.8163" lon="6.81089">
        <ele>977.2771</ele>
        <time>2018-05-26T15:47:39Z</time>
      </trkpt>
      <trkpt lat="47.81632" lon="6.81093">
        <ele>977.139954</ele>
        <time>2018-05-26T15:47:40Z</time>
      </trkpt>
      <trkpt lat="47.81633" lon="6.81096">
        <ele>977.01239</ele>
        <time>2018-05-26T15:47:41Z</time>
      </trkpt>
      <trkpt lat="47.81634" lon="6.81098">
        <ele>976.834778</ele>
        <time>2018-05-26T15:47:42Z</time>
      </trkpt>
      <trkpt lat="47.81635" lon="6.81102">
        <ele>976.712097</ele>
        <time>2018-05-26T15:47:43Z</time>
      </trkpt>
      <trkpt lat="47.81635" lon="6.81105">
        <ele>976.526367</ele>
        <time>2018-05-26T15:47:44Z</time>
      </trkpt>
      <trkpt lat="47.81637" lon="6.81108">
        <ele>976.41864</ele>
        <time>2018-05-26T15:47:45Z</time>
      </trkpt>
      <trkpt lat="47.81638" lon="6.81111">
        <ele>976.280762</ele>
        <time>2018-05-26T15:47:46Z</time>
      </trkpt>
      <trkpt lat="47.8164" lon="6.81115">
        <ele>976.190186</ele>
        <time>2018-05-26T15:47:47Z</time>
      </trkpt>
      <trkpt lat="47.81641" lon="6.81118">
        <ele>976.089539</ele>
        <time>2018-05-26T15:47:48Z</time>
      </trkpt>
      <trkpt lat="47.81642" lon="6.81123">
        <ele>975.917175</ele>
        <time>2018-05-26T15:47:49Z</time>
      </trkpt>
      <trkpt lat="47.81643" lon="6.81128">
        <ele>975.790344</ele>
        <time>2018-05-26T15:47:50Z</time>
      </trkpt>
      <trkpt lat="47.81643" lon="6.81133">
        <ele>975.568115</ele>
        <time>2018-05-26T15:47:51Z</time>
      </trkpt>
      <trkpt lat="47.81644" lon="6.81138">
        <ele>975.386475</ele>
        <time>2018-05-26T15:47:52Z</time>
      </trkpt>
      <trkpt lat="47.81645" lon="6.81142">
        <ele>975.072327</ele>
        <time>2018-05-26T15:47:53Z</time>
      </trkpt>
      <trkpt lat="47.81645" lon="6.81148">
        <ele>974.842529</ele>
        <time>2018-05-26T15:47:54Z</time>
      </trkpt>
      <trkpt lat="47.81646" lon="6.81154">
        <ele>974.461243</ele>
        <time>2018-05-26T15:47:55Z</time>
      </trkpt>
      <trkpt lat="47.81648" lon="6.8116">
        <ele>974.169434</ele>
        <time>2018-05-26T15:47:56Z</time>
      </trkpt>
      <trkpt lat="47.81648" lon="6.81167">
        <ele>973.840515</ele>
        <time>2018-05-26T15:47:57Z</time>
      </trkpt>
      <trkpt lat="47.81649" lon="6.81173">
        <ele>973.265076</ele>
        <time>2018-05-26T15:47:58Z</time>
      </trkpt>
      <trkpt lat="47.81651" lon="6.81181">
        <ele>972.820007</ele>
        <time>2018-05-26T15:47:59Z</time>
      </trkpt>
      <trkpt lat="47.81654" lon="6.81188">
        <ele>972.088379</ele>
        <time>2018-05-26T15:48:00Z</time>
      </trkpt>
      <trkpt lat="47.81656" lon="6.81196">
        <ele>971.593689</ele>
        <time>2018-05-26T15:48:01Z</time>
      </trkpt>
      <trkpt lat="47.81658" lon="6.81204">
        <ele>971.119385</ele>
        <time>2018-05-26T15:48:02Z</time>
      </trkpt>
      <trkpt lat="47.81661" lon="6.81211">
        <ele>970.438721</ele>
        <time>2018-05-26T15:48:03Z</time>
      </trkpt>
      <trkpt lat="47.81663" lon="6.81216">
        <ele>970.016052</ele>
        <time>2018-05-26T15:48:04Z</time>
      </trkpt>
      <trkpt lat="47.81665" lon="6.81219">
        <ele>969.428284</ele>
        <time>2018-05-26T15:48:05Z</time>
      </trkpt>
      <trkpt lat="47.81666" lon="6.81222">
        <ele>969.085022</ele>
        <time>2018-05-26T15:48:06Z</time>
      </trkpt>
      <trkpt lat="47.81667" lon="6.81225">
        <ele>968.688232</ele>
        <time>2018-05-26T15:48:07Z</time>
      </trkpt>
      <trkpt lat="47.81669" lon="6.81228">
        <ele>968.50293</ele>
        <time>2018-05-26T15:48:08Z</time>
      </trkpt>
      <trkpt lat="47.8167" lon="6.81232">
        <ele>968.354309</ele>
        <time>2018-05-26T15:48:09Z</time>
      </trkpt>
      <trkpt lat="47.81671" lon="6.81236">
        <ele>968.143372</ele>
        <time>2018-05-26T15:48:10Z</time>
      </trkpt>
      <trkpt lat="47.81673" lon="6.8124">
        <ele>968.013184</ele>
        <time>2018-05-26T15:48:11Z</time>
      </trkpt>
      <trkpt lat="47.81675" lon="6.81244">
        <ele>967.847961</ele>
        <time>2018-05-26T15:48:12Z</time>
      </trkpt>
      <trkpt lat="47.81677" lon="6.81249">
        <ele>967.747742</ele>
        <time>2018-05-26T15:48:13Z</time>
      </trkpt>
      <trkpt lat="47.81678" lon="6.81253">
        <ele>967.5672</ele>
        <time>2018-05-26T15:48:14Z</time>
      </trkpt>
      <trkpt lat="47.81681" lon="6.81258">
        <ele>967.423157</ele>
        <time>2018-05-26T15:48:15Z</time>
      </trkpt>
      <trkpt lat="47.81682" lon="6.81264">
        <ele>967.197998</ele>
        <time>2018-05-26T15:48:16Z</time>
      </trkpt>
      <trkpt lat="47.81683" lon="6.8127">
        <ele>967.052673</ele>
        <time>2018-05-26T15:48:17Z</time>
      </trkpt>
      <trkpt lat="47.81685" lon="6.81275">
        <ele>966.906311</ele>
        <time>2018-05-26T15:48:18Z</time>
      </trkpt>
      <trkpt lat="47.81687" lon="6.81279">
        <ele>966.691711</ele>
        <time>2018-05-26T15:48:19Z</time>
      </trkpt>
      <trkpt lat="47.81689" lon="6.81283">
        <ele>966.57782</ele>
        <time>2018-05-26T15:48:20Z</time>
      </trkpt>
      <trkpt lat="47.81691" lon="6.81286">
        <ele>966.507324</ele>
        <time>2018-05-26T15:48:21Z</time>
      </trkpt>
      <trkpt lat="47.81692" lon="6.81288">
        <ele>966.507324</ele>
        <time>2018-05-26T15:48:22Z</time>
      </trkpt>
      <trkpt lat="47.81694" lon="6.8129">
        <ele>966.552429</ele>
        <time>2018-05-26T15:48:23Z</time>
      </trkpt>
      <trkpt lat="47.81695" lon="6.81292">
        <ele>966.627441</ele>
        <time>2018-05-26T15:48:24Z</time>
      </trkpt>
      <trkpt lat="47.81696" lon="6.81295">
        <ele>966.73761</ele>
        <time>2018-05-26T15:48:25Z</time>
      </trkpt>
      <trkpt lat="47.81698" lon="6.81298">
        <ele>966.947449</ele>
        <time>2018-05-26T15:48:26Z</time>
      </trkpt>
      <trkpt lat="47.81699" lon="6.81301">
        <ele>967.106873</ele>
        <time>2018-05-26T15:48:27Z</time>
      </trkpt>
      <trkpt lat="47.81699" lon="6.81303">
        <ele>967.359314</ele>
        <time>2018-05-26T15:48:28Z</time>
      </trkpt>
      <trkpt lat="47.817" lon="6.81306">
        <ele>967.546692</ele>
        <time>2018-05-26T15:48:29Z</time>
      </trkpt>
      <trkpt lat="47.81701" lon="6.81309">
        <ele>967.757996</ele>
        <time>2018-05-26T15:48:30Z</time>
      </trkpt>
      <trkpt lat="47.81702" lon="6.81312">
        <ele>968.110657</ele>
        <time>2018-05-26T15:48:31Z</time>
      </trkpt>
      <trkpt lat="47.81703" lon="6.81314">
        <ele>968.352539</ele>
        <time>2018-05-26T15:48:32Z</time>
      </trkpt>
      <trkpt lat="47.81704" lon="6.81316">
        <ele>968.716553</ele>
        <time>2018-05-26T15:48:33Z</time>
      </trkpt>
      <trkpt lat="47.81705" lon="6.81318">
        <ele>968.953186</ele>
        <time>2018-05-26T15:48:34Z</time>
      </trkpt>
      <trkpt lat="47.81707" lon="6.81319">
        <ele>969.28363</ele>
        <time>2018-05-26T15:48:35Z</time>
      </trkpt>
      <trkpt lat="47.81707" lon="6.81321">
        <ele>969.487061</ele>
        <time>2018-05-26T15:48:36Z</time>
      </trkpt>
      <trkpt lat="47.81708" lon="6.81323">
        <ele>970.201477</ele>
        <time>2018-05-26T15:48:39Z</time>
      </trkpt>
      <trkpt lat="47.81709" lon="6.81326">
        <ele>970.201477</ele>
        <time>2018-05-26T15:48:41Z</time>
      </trkpt>
      <trkpt lat="47.81711" lon="6.81328">
        <ele>970.424316</ele>
        <time>2018-05-26T15:48:42Z</time>
      </trkpt>
      <trkpt lat="47.81712" lon="6.81329">
        <ele>970.567932</ele>
        <time>2018-05-26T15:48:43Z</time>
      </trkpt>
      <trkpt lat="47.81714" lon="6.81331">
        <ele>970.718689</ele>
        <time>2018-05-26T15:48:44Z</time>
      </trkpt>
      <trkpt lat="47.81715" lon="6.81333">
        <ele>970.952698</ele>
        <time>2018-05-26T15:48:45Z</time>
      </trkpt>
      <trkpt lat="47.81717" lon="6.81335">
        <ele>971.113281</ele>
        <time>2018-05-26T15:48:46Z</time>
      </trkpt>
      <trkpt lat="47.81719" lon="6.81337">
        <ele>971.362976</ele>
        <time>2018-05-26T15:48:47Z</time>
      </trkpt>
      <trkpt lat="47.8172" lon="6.81339">
        <ele>971.535339</ele>
        <time>2018-05-26T15:48:48Z</time>
      </trkpt>
      <trkpt lat="47.81722" lon="6.8134">
        <ele>971.705261</ele>
        <time>2018-05-26T15:48:49Z</time>
      </trkpt>
      <trkpt lat="47.81723" lon="6.81342">
        <ele>971.95166</ele>
        <time>2018-05-26T15:48:50Z</time>
      </trkpt>
      <trkpt lat="47.81725" lon="6.81343">
        <ele>972.109375</ele>
        <time>2018-05-26T15:48:51Z</time>
      </trkpt>
      <trkpt lat="47.81726" lon="6.81344">
        <ele>972.329407</ele>
        <time>2018-05-26T15:48:52Z</time>
      </trkpt>
      <trkpt lat="47.81727" lon="6.81347">
        <ele>972.462463</ele>
        <time>2018-05-26T15:48:53Z</time>
      </trkpt>
      <trkpt lat="47.81728" lon="6.81348">
        <ele>972.655945</ele>
        <time>2018-05-26T15:48:54Z</time>
      </trkpt>
      <trkpt lat="47.8173" lon="6.8135">
        <ele>972.789612</ele>
        <time>2018-05-26T15:48:55Z</time>
      </trkpt>
      <trkpt lat="47.81731" lon="6.81352">
        <ele>972.995911</ele>
        <time>2018-05-26T15:48:56Z</time>
      </trkpt>
      <trkpt lat="47.81733" lon="6.81352">
        <ele>973.135071</ele>
        <time>2018-05-26T15:48:57Z</time>
      </trkpt>
      <trkpt lat="47.81734" lon="6.81353">
        <ele>973.358948</ele>
        <time>2018-05-26T15:48:58Z</time>
      </trkpt>
      <trkpt lat="47.81735" lon="6.81354">
        <ele>973.519531</ele>
        <time>2018-05-26T15:48:59Z</time>
      </trkpt>
      <trkpt lat="47.81737" lon="6.81356">
        <ele>973.756775</ele>
        <time>2018-05-26T15:49:00Z</time>
      </trkpt>
      <trkpt lat="47.81738" lon="6.81357">
        <ele>973.896973</ele>
        <time>2018-05-26T15:49:01Z</time>
      </trkpt>
      <trkpt lat="47.8174" lon="6.81359">
        <ele>974.023682</ele>
        <time>2018-05-26T15:49:02Z</time>
      </trkpt>
      <trkpt lat="47.81742" lon="6.8136">
        <ele>974.203613</ele>
        <time>2018-05-26T15:49:03Z</time>
      </trkpt>
      <trkpt lat="47.81743" lon="6.81361">
        <ele>974.310852</ele>
        <time>2018-05-26T15:49:04Z</time>
      </trkpt>
      <trkpt lat="47.81745" lon="6.81361">
        <ele>974.427063</ele>
        <time>2018-05-26T15:49:05Z</time>
      </trkpt>
      <trkpt lat="47.81746" lon="6.81362">
        <ele>974.470032</ele>
        <time>2018-05-26T15:49:06Z</time>
      </trkpt>
      <trkpt lat="47.81748" lon="6.81363">
        <ele>974.500427</ele>
        <time>2018-05-26T15:49:07Z</time>
      </trkpt>
      <trkpt lat="47.81749" lon="6.81364">
        <ele>974.509766</ele>
        <time>2018-05-26T15:49:08Z</time>
      </trkpt>
      <trkpt lat="47.8175" lon="6.81366">
        <ele>974.515869</ele>
        <time>2018-05-26T15:49:09Z</time>
      </trkpt>
      <trkpt lat="47.81751" lon="6.81366">
        <ele>974.52301</ele>
        <time>2018-05-26T15:49:10Z</time>
      </trkpt>
      <trkpt lat="47.81753" lon="6.81367">
        <ele>974.536072</ele>
        <time>2018-05-26T15:49:11Z</time>
      </trkpt>
      <trkpt lat="47.81754" lon="6.81369">
        <ele>974.58252</ele>
        <time>2018-05-26T15:49:12Z</time>
      </trkpt>
      <trkpt lat="47.81755" lon="6.81371">
        <ele>974.637024</ele>
        <time>2018-05-26T15:49:13Z</time>
      </trkpt>
      <trkpt lat="47.81757" lon="6.81372">
        <ele>974.703308</ele>
        <time>2018-05-26T15:49:14Z</time>
      </trkpt>
      <trkpt lat="47.81759" lon="6.81374">
        <ele>974.81012</ele>
        <time>2018-05-26T15:49:15Z</time>
      </trkpt>
      <trkpt lat="47.8176" lon="6.81375">
        <ele>974.881348</ele>
        <time>2018-05-26T15:49:16Z</time>
      </trkpt>
      <trkpt lat="47.81762" lon="6.81377">
        <ele>975.005554</ele>
        <time>2018-05-26T15:49:17Z</time>
      </trkpt>
      <trkpt lat="47.81764" lon="6.81378">
        <ele>975.103027</ele>
        <time>2018-05-26T15:49:18Z</time>
      </trkpt>
      <trkpt lat="47.81766" lon="6.81379">
        <ele>975.278381</ele>
        <time>2018-05-26T15:49:19Z</time>
      </trkpt>
      <trkpt lat="47.81767" lon="6.81379">
        <ele>975.413574</ele>
        <time>2018-05-26T15:49:20Z</time>
      </trkpt>
      <trkpt lat="47.81769" lon="6.8138">
        <ele>975.559753</ele>
        <time>2018-05-26T15:49:21Z</time>
      </trkpt>
      <trkpt lat="47.81771" lon="6.8138">
        <ele>975.795471</ele>
        <time>2018-05-26T15:49:22Z</time>
      </trkpt>
      <trkpt lat="47.81772" lon="6.81382">
        <ele>975.958923</ele>
        <time>2018-05-26T15:49:23Z</time>
      </trkpt>
      <trkpt lat="47.81774" lon="6.81383">
        <ele>976.197937</ele>
        <time>2018-05-26T15:49:24Z</time>
      </trkpt>
      <trkpt lat="47.81776" lon="6.81384">
        <ele>976.355164</ele>
        <time>2018-05-26T15:49:25Z</time>
      </trkpt>
      <trkpt lat="47.81777" lon="6.81385">
        <ele>976.514465</ele>
        <time>2018-05-26T15:49:26Z</time>
      </trkpt>
      <trkpt lat="47.8178" lon="6.81387">
        <ele>976.768616</ele>
        <time>2018-05-26T15:49:27Z</time>
      </trkpt>
      <trkpt lat="47.81782" lon="6.81388">
        <ele>976.940125</ele>
        <time>2018-05-26T15:49:28Z</time>
      </trkpt>
      <trkpt lat="47.81783" lon="6.81389">
        <ele>977.189758</ele>
        <time>2018-05-26T15:49:29Z</time>
      </trkpt>
      <trkpt lat="47.81785" lon="6.8139">
        <ele>977.3479</ele>
        <time>2018-05-26T15:49:30Z</time>
      </trkpt>
      <trkpt lat="47.81787" lon="6.81391">
        <ele>977.576172</ele>
        <time>2018-05-26T15:49:31Z</time>
      </trkpt>
      <trkpt lat="47.81789" lon="6.81392">
        <ele>977.717957</ele>
        <time>2018-05-26T15:49:32Z</time>
      </trkpt>
      <trkpt lat="47.81791" lon="6.81393">
        <ele>977.851868</ele>
        <time>2018-05-26T15:49:33Z</time>
      </trkpt>
      <trkpt lat="47.81793" lon="6.81394">
        <ele>978.045715</ele>
        <time>2018-05-26T15:49:34Z</time>
      </trkpt>
      <trkpt lat="47.81795" lon="6.81395">
        <ele>978.1651</ele>
        <time>2018-05-26T15:49:35Z</time>
      </trkpt>
      <trkpt lat="47.81797" lon="6.81396">
        <ele>978.328125</ele>
        <time>2018-05-26T15:49:36Z</time>
      </trkpt>
      <trkpt lat="47.81799" lon="6.81397">
        <ele>978.428711</ele>
        <time>2018-05-26T15:49:37Z</time>
      </trkpt>
      <trkpt lat="47.81801" lon="6.81398">
        <ele>978.571533</ele>
        <time>2018-05-26T15:49:38Z</time>
      </trkpt>
      <trkpt lat="47.81803" lon="6.81398">
        <ele>978.663574</ele>
        <time>2018-05-26T15:49:39Z</time>
      </trkpt>
      <trkpt lat="47.81805" lon="6.81399">
        <ele>978.799744</ele>
        <time>2018-05-26T15:49:40Z</time>
      </trkpt>
      <trkpt lat="47.81808" lon="6.81399">
        <ele>978.84491</ele>
        <time>2018-05-26T15:49:41Z</time>
      </trkpt>
      <trkpt lat="47.8181" lon="6.814">
        <ele>978.889221</ele>
        <time>2018-05-26T15:49:42Z</time>
      </trkpt>
      <trkpt lat="47.81812" lon="6.81399">
        <ele>979.019958</ele>
        <time>2018-05-26T15:49:43Z</time>
      </trkpt>
      <trkpt lat="47.81813" lon="6.81399">
        <ele>979.104431</ele>
        <time>2018-05-26T15:49:44Z</time>
      </trkpt>
      <trkpt lat="47.81815" lon="6.81399">
        <ele>979.232971</ele>
        <time>2018-05-26T15:49:45Z</time>
      </trkpt>
      <trkpt lat="47.81818" lon="6.81399">
        <ele>979.320496</ele>
        <time>2018-05-26T15:49:46Z</time>
      </trkpt>
      <trkpt lat="47.8182" lon="6.814">
        <ele>979.454407</ele>
        <time>2018-05-26T15:49:47Z</time>
      </trkpt>
      <trkpt lat="47.81823" lon="6.81401">
        <ele>979.544861</ele>
        <time>2018-05-26T15:49:48Z</time>
      </trkpt>
      <trkpt lat="47.81826" lon="6.81401">
        <ele>979.682312</ele>
        <time>2018-05-26T15:49:49Z</time>
      </trkpt>
      <trkpt lat="47.81828" lon="6.81402">
        <ele>979.765442</ele>
        <time>2018-05-26T15:49:50Z</time>
      </trkpt>
      <trkpt lat="47.8183" lon="6.81402">
        <ele>979.842468</ele>
        <time>2018-05-26T15:49:51Z</time>
      </trkpt>
      <trkpt lat="47.81832" lon="6.81403">
        <ele>979.945313</ele>
        <time>2018-05-26T15:49:52Z</time>
      </trkpt>
      <trkpt lat="47.81834" lon="6.81404">
        <ele>980.010071</ele>
        <time>2018-05-26T15:49:53Z</time>
      </trkpt>
      <trkpt lat="47.81835" lon="6.81407">
        <ele>980.093506</ele>
        <time>2018-05-26T15:49:54Z</time>
      </trkpt>
      <trkpt lat="47.81836" lon="6.81409">
        <ele>980.139954</ele>
        <time>2018-05-26T15:49:55Z</time>
      </trkpt>
      <trkpt lat="47.81837" lon="6.81411">
        <ele>980.182617</ele>
        <time>2018-05-26T15:49:56Z</time>
      </trkpt>
      <trkpt lat="47.81839" lon="6.81414">
        <ele>980.236877</ele>
        <time>2018-05-26T15:49:57Z</time>
      </trkpt>
      <trkpt lat="47.81841" lon="6.81418">
        <ele>980.250427</ele>
        <time>2018-05-26T15:49:58Z</time>
      </trkpt>
      <trkpt lat="47.81843" lon="6.81422">
        <ele>980.247131</ele>
        <time>2018-05-26T15:49:59Z</time>
      </trkpt>
      <trkpt lat="47.81845" lon="6.81426">
        <ele>980.222229</ele>
        <time>2018-05-26T15:50:00Z</time>
      </trkpt>
      <trkpt lat="47.81847" lon="6.8143">
        <ele>980.181458</ele>
        <time>2018-05-26T15:50:01Z</time>
      </trkpt>
      <trkpt lat="47.81849" lon="6.81434">
        <ele>980.104187</ele>
        <time>2018-05-26T15:50:02Z</time>
      </trkpt>
      <trkpt lat="47.81852" lon="6.81437">
        <ele>980.037048</ele>
        <time>2018-05-26T15:50:03Z</time>
      </trkpt>
      <trkpt lat="47.81854" lon="6.8144">
        <ele>979.910889</ele>
        <time>2018-05-26T15:50:04Z</time>
      </trkpt>
      <trkpt lat="47.81857" lon="6.81444">
        <ele>979.819824</ele>
        <time>2018-05-26T15:50:05Z</time>
      </trkpt>
      <trkpt lat="47.81859" lon="6.81447">
        <ele>979.7099</ele>
        <time>2018-05-26T15:50:06Z</time>
      </trkpt>
      <trkpt lat="47.81861" lon="6.81451">
        <ele>979.662903</ele>
        <time>2018-05-26T15:50:07Z</time>
      </trkpt>
      <trkpt lat="47.81863" lon="6.81454">
        <ele>979.62323</ele>
        <time>2018-05-26T15:50:08Z</time>
      </trkpt>
      <trkpt lat="47.81865" lon="6.81457">
        <ele>979.567383</ele>
        <time>2018-05-26T15:50:09Z</time>
      </trkpt>
      <trkpt lat="47.81867" lon="6.8146">
        <ele>979.553406</ele>
        <time>2018-05-26T15:50:10Z</time>
      </trkpt>
      <trkpt lat="47.81868" lon="6.81463">
        <ele>979.556458</ele>
        <time>2018-05-26T15:50:11Z</time>
      </trkpt>
      <trkpt lat="47.8187" lon="6.81466">
        <ele>979.578796</ele>
        <time>2018-05-26T15:50:12Z</time>
      </trkpt>
      <trkpt lat="47.81872" lon="6.81471">
        <ele>979.615479</ele>
        <time>2018-05-26T15:50:13Z</time>
      </trkpt>
      <trkpt lat="47.81873" lon="6.81475">
        <ele>979.628723</ele>
        <time>2018-05-26T15:50:14Z</time>
      </trkpt>
      <trkpt lat="47.81875" lon="6.81479">
        <ele>979.632751</ele>
        <time>2018-05-26T15:50:15Z</time>
      </trkpt>
      <trkpt lat="47.81876" lon="6.81483">
        <ele>979.628479</ele>
        <time>2018-05-26T15:50:16Z</time>
      </trkpt>
      <trkpt lat="47.81877" lon="6.81488">
        <ele>979.607971</ele>
        <time>2018-05-26T15:50:17Z</time>
      </trkpt>
      <trkpt lat="47.81878" lon="6.81492">
        <ele>979.525635</ele>
        <time>2018-05-26T15:50:18Z</time>
      </trkpt>
      <trkpt lat="47.81879" lon="6.81497">
        <ele>979.435486</ele>
        <time>2018-05-26T15:50:19Z</time>
      </trkpt>
      <trkpt lat="47.81878" lon="6.81503">
        <ele>979.247742</ele>
        <time>2018-05-26T15:50:20Z</time>
      </trkpt>
      <trkpt lat="47.81877" lon="6.8151">
        <ele>979.076172</ele>
        <time>2018-05-26T15:50:21Z</time>
      </trkpt>
      <trkpt lat="47.81876" lon="6.81518">
        <ele>978.711487</ele>
        <time>2018-05-26T15:50:22Z</time>
      </trkpt>
      <trkpt lat="47.81874" lon="6.81528">
        <ele>978.380798</ele>
        <time>2018-05-26T15:50:23Z</time>
      </trkpt>
      <trkpt lat="47.81872" lon="6.81538">
        <ele>977.762756</ele>
        <time>2018-05-26T15:50:24Z</time>
      </trkpt>
      <trkpt lat="47.8187" lon="6.81549">
        <ele>977.266113</ele>
        <time>2018-05-26T15:50:25Z</time>
      </trkpt>
      <trkpt lat="47.8187" lon="6.81559">
        <ele>976.39447</ele>
        <time>2018-05-26T15:50:26Z</time>
      </trkpt>
      <trkpt lat="47.8187" lon="6.81571">
        <ele>975.742737</ele>
        <time>2018-05-26T15:50:27Z</time>
      </trkpt>
      <trkpt lat="47.8187" lon="6.81582">
        <ele>975.058655</ele>
        <time>2018-05-26T15:50:28Z</time>
      </trkpt>
      <trkpt lat="47.81868" lon="6.81593">
        <ele>973.995056</ele>
        <time>2018-05-26T15:50:29Z</time>
      </trkpt>
      <trkpt lat="47.81867" lon="6.81603">
        <ele>973.287354</ele>
        <time>2018-05-26T15:50:30Z</time>
      </trkpt>
      <trkpt lat="47.81866" lon="6.81612">
        <ele>972.288574</ele>
        <time>2018-05-26T15:50:31Z</time>
      </trkpt>
      <trkpt lat="47.81865" lon="6.81621">
        <ele>971.682678</ele>
        <time>2018-05-26T15:50:32Z</time>
      </trkpt>
      <trkpt lat="47.81863" lon="6.8163">
        <ele>970.855225</ele>
        <time>2018-05-26T15:50:33Z</time>
      </trkpt>
      <trkpt lat="47.81862" lon="6.81637">
        <ele>970.381104</ele>
        <time>2018-05-26T15:50:34Z</time>
      </trkpt>
      <trkpt lat="47.8186" lon="6.81644">
        <ele>970.004333</ele>
        <time>2018-05-26T15:50:35Z</time>
      </trkpt>
      <trkpt lat="47.8186" lon="6.8165">
        <ele>969.643738</ele>
        <time>2018-05-26T15:50:36Z</time>
      </trkpt>
      <trkpt lat="47.8186" lon="6.81655">
        <ele>969.518616</ele>
        <time>2018-05-26T15:50:37Z</time>
      </trkpt>
      <trkpt lat="47.81858" lon="6.8166">
        <ele>969.476868</ele>
        <time>2018-05-26T15:50:38Z</time>
      </trkpt>
      <trkpt lat="47.81858" lon="6.81664">
        <ele>969.487</ele>
        <time>2018-05-26T15:50:39Z</time>
      </trkpt>
      <trkpt lat="47.81857" lon="6.81669">
        <ele>969.620667</ele>
        <time>2018-05-26T15:50:40Z</time>
      </trkpt>
      <trkpt lat="47.81856" lon="6.81674">
        <ele>969.687256</ele>
        <time>2018-05-26T15:50:41Z</time>
      </trkpt>
      <trkpt lat="47.81855" lon="6.81678">
        <ele>969.917236</ele>
        <time>2018-05-26T15:50:42Z</time>
      </trkpt>
      <trkpt lat="47.81855" lon="6.81683">
        <ele>970.088562</ele>
        <time>2018-05-26T15:50:43Z</time>
      </trkpt>
      <trkpt lat="47.81855" lon="6.81687">
        <ele>970.349609</ele>
        <time>2018-05-26T15:50:44Z</time>
      </trkpt>
      <trkpt lat="47.81854" lon="6.81691">
        <ele>970.51593</ele>
        <time>2018-05-26T15:50:45Z</time>
      </trkpt>
      <trkpt lat="47.81854" lon="6.81695">
        <ele>970.758789</ele>
        <time>2018-05-26T15:50:46Z</time>
      </trkpt>
      <trkpt lat="47.81854" lon="6.81699">
        <ele>970.916199</ele>
        <time>2018-05-26T15:50:47Z</time>
      </trkpt>
      <trkpt lat="47.81853" lon="6.81703">
        <ele>971.071228</ele>
        <time>2018-05-26T15:50:48Z</time>
      </trkpt>
      <trkpt lat="47.81853" lon="6.81706">
        <ele>971.300842</ele>
        <time>2018-05-26T15:50:49Z</time>
      </trkpt>
      <trkpt lat="47.81852" lon="6.8171">
        <ele>971.462891</ele>
        <time>2018-05-26T15:50:50Z</time>
      </trkpt>
      <trkpt lat="47.81852" lon="6.81714">
        <ele>971.74054</ele>
        <time>2018-05-26T15:50:51Z</time>
      </trkpt>
      <trkpt lat="47.81851" lon="6.81718">
        <ele>971.952332</ele>
        <time>2018-05-26T15:50:52Z</time>
      </trkpt>
      <trkpt lat="47.81851" lon="6.81722">
        <ele>972.295898</ele>
        <time>2018-05-26T15:50:53Z</time>
      </trkpt>
      <trkpt lat="47.81851" lon="6.81725">
        <ele>972.533508</ele>
        <time>2018-05-26T15:50:54Z</time>
      </trkpt>
      <trkpt lat="47.81852" lon="6.81728">
        <ele>972.776367</ele>
        <time>2018-05-26T15:50:55Z</time>
      </trkpt>
      <trkpt lat="47.81854" lon="6.8173">
        <ele>973.131042</ele>
        <time>2018-05-26T15:50:56Z</time>
      </trkpt>
      <trkpt lat="47.81855" lon="6.81732">
        <ele>973.349792</ele>
        <time>2018-05-26T15:50:57Z</time>
      </trkpt>
      <trkpt lat="47.81858" lon="6.81733">
        <ele>973.648682</ele>
        <time>2018-05-26T15:50:58Z</time>
      </trkpt>
      <trkpt lat="47.8186" lon="6.81735">
        <ele>973.836182</ele>
        <time>2018-05-26T15:50:59Z</time>
      </trkpt>
      <trkpt lat="47.81862" lon="6.81737">
        <ele>974.102234</ele>
        <time>2018-05-26T15:51:00Z</time>
      </trkpt>
      <trkpt lat="47.81864" lon="6.81739">
        <ele>974.258606</ele>
        <time>2018-05-26T15:51:01Z</time>
      </trkpt>
      <trkpt lat="47.81866" lon="6.8174">
        <ele>974.452881</ele>
        <time>2018-05-26T15:51:02Z</time>
      </trkpt>
      <trkpt lat="47.81867" lon="6.81741">
        <ele>974.559753</ele>
        <time>2018-05-26T15:51:03Z</time>
      </trkpt>
      <trkpt lat="47.81869" lon="6.81743">
        <ele>974.692078</ele>
        <time>2018-05-26T15:51:04Z</time>
      </trkpt>
      <trkpt lat="47.8187" lon="6.81745">
        <ele>974.760437</ele>
        <time>2018-05-26T15:51:05Z</time>
      </trkpt>
      <trkpt lat="47.81871" lon="6.81747">
        <ele>974.814636</ele>
        <time>2018-05-26T15:51:06Z</time>
      </trkpt>
      <trkpt lat="47.81873" lon="6.81748">
        <ele>974.882568</ele>
        <time>2018-05-26T15:51:07Z</time>
      </trkpt>
      <trkpt lat="47.81874" lon="6.81749">
        <ele>974.927063</ele>
        <time>2018-05-26T15:51:08Z</time>
      </trkpt>
      <trkpt lat="47.81881" lon="6.81759">
        <ele>974.597961</ele>
        <time>2018-05-26T15:51:59Z</time>
      </trkpt>
      <trkpt lat="47.81884" lon="6.81762">
        <ele>974.560791</ele>
        <time>2018-05-26T15:52:01Z</time>
      </trkpt>
      <trkpt lat="47.81886" lon="6.81766">
        <ele>974.536072</ele>
        <time>2018-05-26T15:52:02Z</time>
      </trkpt>
      <trkpt lat="47.81888" lon="6.81769">
        <ele>974.509949</ele>
        <time>2018-05-26T15:52:03Z</time>
      </trkpt>
      <trkpt lat="47.8189" lon="6.81773">
        <ele>974.47052</ele>
        <time>2018-05-26T15:52:04Z</time>
      </trkpt>
      <trkpt lat="47.81893" lon="6.81776">
        <ele>974.437195</ele>
        <time>2018-05-26T15:52:05Z</time>
      </trkpt>
      <trkpt lat="47.81894" lon="6.81779">
        <ele>974.38324</ele>
        <time>2018-05-26T15:52:06Z</time>
      </trkpt>
      <trkpt lat="47.81896" lon="6.81783">
        <ele>974.350098</ele>
        <time>2018-05-26T15:52:07Z</time>
      </trkpt>
      <trkpt lat="47.81898" lon="6.81787">
        <ele>974.319153</ele>
        <time>2018-05-26T15:52:08Z</time>
      </trkpt>
      <trkpt lat="47.819" lon="6.8179">
        <ele>974.266907</ele>
        <time>2018-05-26T15:52:09Z</time>
      </trkpt>
      <trkpt lat="47.81903" lon="6.81793">
        <ele>974.231628</ele>
        <time>2018-05-26T15:52:10Z</time>
      </trkpt>
      <trkpt lat="47.81905" lon="6.81797">
        <ele>974.194763</ele>
        <time>2018-05-26T15:52:11Z</time>
      </trkpt>
      <trkpt lat="47.81908" lon="6.81801">
        <ele>974.177551</ele>
        <time>2018-05-26T15:52:12Z</time>
      </trkpt>
      <trkpt lat="47.81912" lon="6.81805">
        <ele>974.143982</ele>
        <time>2018-05-26T15:52:13Z</time>
      </trkpt>
      <trkpt lat="47.81915" lon="6.81809">
        <ele>974.107422</ele>
        <time>2018-05-26T15:52:14Z</time>
      </trkpt>
      <trkpt lat="47.81917" lon="6.81812">
        <ele>974.06366</ele>
        <time>2018-05-26T15:52:15Z</time>
      </trkpt>
      <trkpt lat="47.81921" lon="6.81816">
        <ele>973.979309</ele>
        <time>2018-05-26T15:52:16Z</time>
      </trkpt>
      <trkpt lat="47.81924" lon="6.81819">
        <ele>973.901306</ele>
        <time>2018-05-26T15:52:17Z</time>
      </trkpt>
      <trkpt lat="47.81927" lon="6.81821">
        <ele>973.748596</ele>
        <time>2018-05-26T15:52:18Z</time>
      </trkpt>
      <trkpt lat="47.8193" lon="6.81822">
        <ele>973.653748</ele>
        <time>2018-05-26T15:52:19Z</time>
      </trkpt>
      <trkpt lat="47.81934" lon="6.81825">
        <ele>973.561523</ele>
        <time>2018-05-26T15:52:20Z</time>
      </trkpt>
      <trkpt lat="47.81937" lon="6.81828">
        <ele>973.524963</ele>
        <time>2018-05-26T15:52:21Z</time>
      </trkpt>
      <trkpt lat="47.8194" lon="6.81831">
        <ele>973.485596</ele>
        <time>2018-05-26T15:52:22Z</time>
      </trkpt>
      <trkpt lat="47.81943" lon="6.81834">
        <ele>973.480286</ele>
        <time>2018-05-26T15:52:23Z</time>
      </trkpt>
      <trkpt lat="47.81945" lon="6.81838">
        <ele>973.480286</ele>
        <time>2018-05-26T15:52:24Z</time>
      </trkpt>
      <trkpt lat="47.81947" lon="6.81841">
        <ele>973.499817</ele>
        <time>2018-05-26T15:52:25Z</time>
      </trkpt>
      <trkpt lat="47.8195" lon="6.81845">
        <ele>973.508606</ele>
        <time>2018-05-26T15:52:26Z</time>
      </trkpt>
      <trkpt lat="47.81952" lon="6.81849">
        <ele>973.506836</ele>
        <time>2018-05-26T15:52:27Z</time>
      </trkpt>
      <trkpt lat="47.81955" lon="6.81853">
        <ele>973.48584</ele>
        <time>2018-05-26T15:52:28Z</time>
      </trkpt>
      <trkpt lat="47.81957" lon="6.81857">
        <ele>973.419189</ele>
        <time>2018-05-26T15:52:29Z</time>
      </trkpt>
      <trkpt lat="47.8196" lon="6.81862">
        <ele>973.355225</ele>
        <time>2018-05-26T15:52:30Z</time>
      </trkpt>
      <trkpt lat="47.81961" lon="6.81866">
        <ele>973.250305</ele>
        <time>2018-05-26T15:52:31Z</time>
      </trkpt>
      <trkpt lat="47.81963" lon="6.81871">
        <ele>973.178406</ele>
        <time>2018-05-26T15:52:32Z</time>
      </trkpt>
      <trkpt lat="47.81965" lon="6.81875">
        <ele>973.110107</ele>
        <time>2018-05-26T15:52:33Z</time>
      </trkpt>
      <trkpt lat="47.81966" lon="6.81879">
        <ele>973.041199</ele>
        <time>2018-05-26T15:52:34Z</time>
      </trkpt>
      <trkpt lat="47.81968" lon="6.81884">
        <ele>973.030579</ele>
        <time>2018-05-26T15:52:35Z</time>
      </trkpt>
      <trkpt lat="47.81969" lon="6.81889">
        <ele>973.030334</ele>
        <time>2018-05-26T15:52:36Z</time>
      </trkpt>
      <trkpt lat="47.8197" lon="6.81894">
        <ele>973.031799</ele>
        <time>2018-05-26T15:52:37Z</time>
      </trkpt>
      <trkpt lat="47.81972" lon="6.81899">
        <ele>973.029236</ele>
        <time>2018-05-26T15:52:38Z</time>
      </trkpt>
      <trkpt lat="47.81973" lon="6.81904">
        <ele>973.016602</ele>
        <time>2018-05-26T15:52:39Z</time>
      </trkpt>
      <trkpt lat="47.81974" lon="6.81909">
        <ele>972.997742</ele>
        <time>2018-05-26T15:52:40Z</time>
      </trkpt>
      <trkpt lat="47.81974" lon="6.81915">
        <ele>972.963196</ele>
        <time>2018-05-26T15:52:41Z</time>
      </trkpt>
      <trkpt lat="47.81975" lon="6.81921">
        <ele>972.947449</ele>
        <time>2018-05-26T15:52:42Z</time>
      </trkpt>
      <trkpt lat="47.81974" lon="6.81927">
        <ele>972.947449</ele>
        <time>2018-05-26T15:52:43Z</time>
      </trkpt>
      <trkpt lat="47.81974" lon="6.81934">
        <ele>972.895691</ele>
        <time>2018-05-26T15:52:44Z</time>
      </trkpt>
      <trkpt lat="47.81973" lon="6.8194">
        <ele>972.856995</ele>
        <time>2018-05-26T15:52:45Z</time>
      </trkpt>
      <trkpt lat="47.81972" lon="6.81946">
        <ele>972.814209</ele>
        <time>2018-05-26T15:52:46Z</time>
      </trkpt>
      <trkpt lat="47.81972" lon="6.81953">
        <ele>972.723633</ele>
        <time>2018-05-26T15:52:47Z</time>
      </trkpt>
      <trkpt lat="47.81971" lon="6.8196">
        <ele>972.637756</ele>
        <time>2018-05-26T15:52:48Z</time>
      </trkpt>
      <trkpt lat="47.81971" lon="6.81966">
        <ele>972.483704</ele>
        <time>2018-05-26T15:52:49Z</time>
      </trkpt>
      <trkpt lat="47.8197" lon="6.81972">
        <ele>972.385193</ele>
        <time>2018-05-26T15:52:50Z</time>
      </trkpt>
      <trkpt lat="47.81969" lon="6.81979">
        <ele>972.222473</ele>
        <time>2018-05-26T15:52:51Z</time>
      </trkpt>
      <trkpt lat="47.81968" lon="6.81985">
        <ele>972.095032</ele>
        <time>2018-05-26T15:52:52Z</time>
      </trkpt>
      <trkpt lat="47.81967" lon="6.81991">
        <ele>971.905273</ele>
        <time>2018-05-26T15:52:53Z</time>
      </trkpt>
      <trkpt lat="47.81965" lon="6.81997">
        <ele>971.79425</ele>
        <time>2018-05-26T15:52:54Z</time>
      </trkpt>
      <trkpt lat="47.81963" lon="6.82004">
        <ele>971.631104</ele>
        <time>2018-05-26T15:52:55Z</time>
      </trkpt>
      <trkpt lat="47.81962" lon="6.8201">
        <ele>971.502136</ele>
        <time>2018-05-26T15:52:56Z</time>
      </trkpt>
      <trkpt lat="47.81961" lon="6.82015">
        <ele>971.358337</ele>
        <time>2018-05-26T15:52:57Z</time>
      </trkpt>
      <trkpt lat="47.81959" lon="6.82021">
        <ele>971.154053</ele>
        <time>2018-05-26T15:52:58Z</time>
      </trkpt>
      <trkpt lat="47.81957" lon="6.82027">
        <ele>971.051758</ele>
        <time>2018-05-26T15:52:59Z</time>
      </trkpt>
      <trkpt lat="47.81956" lon="6.82033">
        <ele>970.928772</ele>
        <time>2018-05-26T15:53:00Z</time>
      </trkpt>
      <trkpt lat="47.81955" lon="6.82039">
        <ele>970.851135</ele>
        <time>2018-05-26T15:53:01Z</time>
      </trkpt>
      <trkpt lat="47.81952" lon="6.82044">
        <ele>970.722961</ele>
        <time>2018-05-26T15:53:02Z</time>
      </trkpt>
      <trkpt lat="47.8195" lon="6.8205">
        <ele>970.632629</ele>
        <time>2018-05-26T15:53:03Z</time>
      </trkpt>
      <trkpt lat="47.81949" lon="6.82057">
        <ele>970.543274</ele>
        <time>2018-05-26T15:53:04Z</time>
      </trkpt>
      <trkpt lat="47.81945" lon="6.82063">
        <ele>970.400879</ele>
        <time>2018-05-26T15:53:05Z</time>
      </trkpt>
      <trkpt lat="47.81943" lon="6.82069">
        <ele>970.302551</ele>
        <time>2018-05-26T15:53:06Z</time>
      </trkpt>
      <trkpt lat="47.81941" lon="6.82074">
        <ele>970.157776</ele>
        <time>2018-05-26T15:53:07Z</time>
      </trkpt>
      <trkpt lat="47.81937" lon="6.82079">
        <ele>970.077148</ele>
        <time>2018-05-26T15:53:08Z</time>
      </trkpt>
      <trkpt lat="47.81935" lon="6.82084">
        <ele>969.978027</ele>
        <time>2018-05-26T15:53:09Z</time>
      </trkpt>
      <trkpt lat="47.81932" lon="6.82089">
        <ele>969.910461</ele>
        <time>2018-05-26T15:53:10Z</time>
      </trkpt>
      <trkpt lat="47.8193" lon="6.82093">
        <ele>969.828369</ele>
        <time>2018-05-26T15:53:11Z</time>
      </trkpt>
      <trkpt lat="47.81928" lon="6.82098">
        <ele>969.68158</ele>
        <time>2018-05-26T15:53:12Z</time>
      </trkpt>
      <trkpt lat="47.81926" lon="6.82101">
        <ele>969.578613</ele>
        <time>2018-05-26T15:53:13Z</time>
      </trkpt>
      <trkpt lat="47.81924" lon="6.82104">
        <ele>969.421875</ele>
        <time>2018-05-26T15:53:14Z</time>
      </trkpt>
      <trkpt lat="47.81922" lon="6.82106">
        <ele>969.324402</ele>
        <time>2018-05-26T15:53:15Z</time>
      </trkpt>
      <trkpt lat="47.8192" lon="6.82109">
        <ele>969.204773</ele>
        <time>2018-05-26T15:53:16Z</time>
      </trkpt>
      <trkpt lat="47.81918" lon="6.82112">
        <ele>969.158386</ele>
        <time>2018-05-26T15:53:17Z</time>
      </trkpt>
      <trkpt lat="47.81916" lon="6.82115">
        <ele>969.133301</ele>
        <time>2018-05-26T15:53:18Z</time>
      </trkpt>
      <trkpt lat="47.81914" lon="6.82117">
        <ele>969.119934</ele>
        <time>2018-05-26T15:53:19Z</time>
      </trkpt>
      <trkpt lat="47.81912" lon="6.8212">
        <ele>969.113464</ele>
        <time>2018-05-26T15:53:20Z</time>
      </trkpt>
      <trkpt lat="47.8191" lon="6.82122">
        <ele>969.093018</ele>
        <time>2018-05-26T15:53:21Z</time>
      </trkpt>
      <trkpt lat="47.81908" lon="6.82125">
        <ele>969.063171</ele>
        <time>2018-05-26T15:53:22Z</time>
      </trkpt>
      <trkpt lat="47.81906" lon="6.82127">
        <ele>968.993713</ele>
        <time>2018-05-26T15:53:23Z</time>
      </trkpt>
      <trkpt lat="47.81903" lon="6.82129">
        <ele>968.938171</ele>
        <time>2018-05-26T15:53:24Z</time>
      </trkpt>
      <trkpt lat="47.81901" lon="6.8213">
        <ele>968.878235</ele>
        <time>2018-05-26T15:53:25Z</time>
      </trkpt>
      <trkpt lat="47.81899" lon="6.82132">
        <ele>968.774109</ele>
        <time>2018-05-26T15:53:26Z</time>
      </trkpt>
      <trkpt lat="47.81898" lon="6.82133">
        <ele>968.69342</ele>
        <time>2018-05-26T15:53:27Z</time>
      </trkpt>
      <trkpt lat="47.81896" lon="6.82135">
        <ele>968.571594</ele>
        <time>2018-05-26T15:53:28Z</time>
      </trkpt>
      <trkpt lat="47.81895" lon="6.82137">
        <ele>968.501404</ele>
        <time>2018-05-26T15:53:29Z</time>
      </trkpt>
      <trkpt lat="47.81893" lon="6.82139">
        <ele>968.415344</ele>
        <time>2018-05-26T15:53:30Z</time>
      </trkpt>
      <trkpt lat="47.8189" lon="6.82141">
        <ele>968.365723</ele>
        <time>2018-05-26T15:53:31Z</time>
      </trkpt>
      <trkpt lat="47.81888" lon="6.82143">
        <ele>968.319641</ele>
        <time>2018-05-26T15:53:32Z</time>
      </trkpt>
      <trkpt lat="47.81886" lon="6.82145">
        <ele>968.24884</ele>
        <time>2018-05-26T15:53:33Z</time>
      </trkpt>
      <trkpt lat="47.81884" lon="6.82147">
        <ele>968.2005</ele>
        <time>2018-05-26T15:53:34Z</time>
      </trkpt>
      <trkpt lat="47.81882" lon="6.8215">
        <ele>968.130371</ele>
        <time>2018-05-26T15:53:35Z</time>
      </trkpt>
      <trkpt lat="47.8188" lon="6.82153">
        <ele>968.082703</ele>
        <time>2018-05-26T15:53:36Z</time>
      </trkpt>
      <trkpt lat="47.81877" lon="6.82156">
        <ele>968.029053</ele>
        <time>2018-05-26T15:53:37Z</time>
      </trkpt>
      <trkpt lat="47.81875" lon="6.82158">
        <ele>967.952454</ele>
        <time>2018-05-26T15:53:38Z</time>
      </trkpt>
      <trkpt lat="47.81873" lon="6.8216">
        <ele>967.922119</ele>
        <time>2018-05-26T15:53:39Z</time>
      </trkpt>
      <trkpt lat="47.8187" lon="6.82162">
        <ele>967.919678</ele>
        <time>2018-05-26T15:53:40Z</time>
      </trkpt>
      <trkpt lat="47.81869" lon="6.82164">
        <ele>967.937683</ele>
        <time>2018-05-26T15:53:41Z</time>
      </trkpt>
      <trkpt lat="47.81867" lon="6.82166">
        <ele>967.990723</ele>
        <time>2018-05-26T15:53:42Z</time>
      </trkpt>
      <trkpt lat="47.81865" lon="6.82169">
        <ele>968.007141</ele>
        <time>2018-05-26T15:53:43Z</time>
      </trkpt>
      <trkpt lat="47.81863" lon="6.82171">
        <ele>968.009705</ele>
        <time>2018-05-26T15:53:44Z</time>
      </trkpt>
      <trkpt lat="47.8186" lon="6.82174">
        <ele>968.000061</ele>
        <time>2018-05-26T15:53:45Z</time>
      </trkpt>
      <trkpt lat="47.81858" lon="6.82177">
        <ele>967.976074</ele>
        <time>2018-05-26T15:53:46Z</time>
      </trkpt>
      <trkpt lat="47.81857" lon="6.82181">
        <ele>967.92511</ele>
        <time>2018-05-26T15:53:47Z</time>
      </trkpt>
      <trkpt lat="47.81855" lon="6.82186">
        <ele>967.790466</ele>
        <time>2018-05-26T15:53:48Z</time>
      </trkpt>
      <trkpt lat="47.81853" lon="6.82192">
        <ele>967.676758</ele>
        <time>2018-05-26T15:53:49Z</time>
      </trkpt>
      <trkpt lat="47.81852" lon="6.82197">
        <ele>967.500671</ele>
        <time>2018-05-26T15:53:50Z</time>
      </trkpt>
      <trkpt lat="47.8185" lon="6.82202">
        <ele>967.374939</ele>
        <time>2018-05-26T15:53:51Z</time>
      </trkpt>
      <trkpt lat="47.81849" lon="6.82207">
        <ele>967.17041</ele>
        <time>2018-05-26T15:53:52Z</time>
      </trkpt>
      <trkpt lat="47.81848" lon="6.82212">
        <ele>967.035828</ele>
        <time>2018-05-26T15:53:53Z</time>
      </trkpt>
      <trkpt lat="47.81847" lon="6.82218">
        <ele>966.854309</ele>
        <time>2018-05-26T15:53:54Z</time>
      </trkpt>
      <trkpt lat="47.81846" lon="6.82223">
        <ele>966.751282</ele>
        <time>2018-05-26T15:53:55Z</time>
      </trkpt>
      <trkpt lat="47.81845" lon="6.82229">
        <ele>966.66217</ele>
        <time>2018-05-26T15:53:56Z</time>
      </trkpt>
      <trkpt lat="47.81844" lon="6.82234">
        <ele>966.56134</ele>
        <time>2018-05-26T15:53:57Z</time>
      </trkpt>
      <trkpt lat="47.81842" lon="6.82239">
        <ele>966.507813</ele>
        <time>2018-05-26T15:53:58Z</time>
      </trkpt>
      <trkpt lat="47.8184" lon="6.82244">
        <ele>966.432617</ele>
        <time>2018-05-26T15:53:59Z</time>
      </trkpt>
      <trkpt lat="47.81838" lon="6.82248">
        <ele>966.387878</ele>
        <time>2018-05-26T15:54:00Z</time>
      </trkpt>
      <trkpt lat="47.81835" lon="6.82252">
        <ele>966.334229</ele>
        <time>2018-05-26T15:54:01Z</time>
      </trkpt>
      <trkpt lat="47.81833" lon="6.82257">
        <ele>966.299866</ele>
        <time>2018-05-26T15:54:02Z</time>
      </trkpt>
      <trkpt lat="47.81831" lon="6.82262">
        <ele>966.235413</ele>
        <time>2018-05-26T15:54:03Z</time>
      </trkpt>
      <trkpt lat="47.81828" lon="6.82265">
        <ele>966.195618</ele>
        <time>2018-05-26T15:54:04Z</time>
      </trkpt>
      <trkpt lat="47.81826" lon="6.82268">
        <ele>966.168945</ele>
        <time>2018-05-26T15:54:05Z</time>
      </trkpt>
      <trkpt lat="47.81823" lon="6.82272">
        <ele>966.139221</ele>
        <time>2018-05-26T15:54:06Z</time>
      </trkpt>
      <trkpt lat="47.8182" lon="6.82275">
        <ele>966.109863</ele>
        <time>2018-05-26T15:54:07Z</time>
      </trkpt>
      <trkpt lat="47.81818" lon="6.82279">
        <ele>966.054016</ele>
        <time>2018-05-26T15:54:08Z</time>
      </trkpt>
      <trkpt lat="47.81814" lon="6.82282">
        <ele>966.026184</ele>
        <time>2018-05-26T15:54:09Z</time>
      </trkpt>
      <trkpt lat="47.81811" lon="6.82285">
        <ele>966.010193</ele>
        <time>2018-05-26T15:54:10Z</time>
      </trkpt>
      <trkpt lat="47.81808" lon="6.82288">
        <ele>965.98468</ele>
        <time>2018-05-26T15:54:11Z</time>
      </trkpt>
      <trkpt lat="47.81805" lon="6.82291">
        <ele>965.964417</ele>
        <time>2018-05-26T15:54:12Z</time>
      </trkpt>
      <trkpt lat="47.81803" lon="6.82294">
        <ele>965.957092</ele>
        <time>2018-05-26T15:54:13Z</time>
      </trkpt>
      <trkpt lat="47.81801" lon="6.82296">
        <ele>965.96167</ele>
        <time>2018-05-26T15:54:14Z</time>
      </trkpt>
      <trkpt lat="47.81798" lon="6.82297">
        <ele>965.997253</ele>
        <time>2018-05-26T15:54:15Z</time>
      </trkpt>
      <trkpt lat="47.81795" lon="6.82299">
        <ele>966.023621</ele>
        <time>2018-05-26T15:54:16Z</time>
      </trkpt>
      <trkpt lat="47.81793" lon="6.823">
        <ele>966.056885</ele>
        <time>2018-05-26T15:54:17Z</time>
      </trkpt>
      <trkpt lat="47.81791" lon="6.82301">
        <ele>966.138611</ele>
        <time>2018-05-26T15:54:18Z</time>
      </trkpt>
      <trkpt lat="47.81789" lon="6.82302">
        <ele>966.197327</ele>
        <time>2018-05-26T15:54:19Z</time>
      </trkpt>
      <trkpt lat="47.81786" lon="6.82304">
        <ele>966.257263</ele>
        <time>2018-05-26T15:54:20Z</time>
      </trkpt>
      <trkpt lat="47.81784" lon="6.82305">
        <ele>966.278809</ele>
        <time>2018-05-26T15:54:21Z</time>
      </trkpt>
      <trkpt lat="47.81782" lon="6.82306">
        <ele>966.296082</ele>
        <time>2018-05-26T15:54:22Z</time>
      </trkpt>
      <trkpt lat="47.81773" lon="6.8231">
        <ele>965.930603</ele>
        <time>2018-05-26T15:54:42Z</time>
      </trkpt>
      <trkpt lat="47.81772" lon="6.82311">
        <ele>965.902344</ele>
        <time>2018-05-26T15:54:44Z</time>
      </trkpt>
      <trkpt lat="47.8177" lon="6.82313">
        <ele>965.872986</ele>
        <time>2018-05-26T15:54:45Z</time>
      </trkpt>
      <trkpt lat="47.81769" lon="6.82314">
        <ele>965.777283</ele>
        <time>2018-05-26T15:54:46Z</time>
      </trkpt>
      <trkpt lat="47.81768" lon="6.82316">
        <ele>965.710144</ele>
        <time>2018-05-26T15:54:47Z</time>
      </trkpt>
      <trkpt lat="47.81766" lon="6.82319">
        <ele>965.619812</ele>
        <time>2018-05-26T15:54:48Z</time>
      </trkpt>
      <trkpt lat="47.81765" lon="6.82321">
        <ele>965.563293</ele>
        <time>2018-05-26T15:54:49Z</time>
      </trkpt>
      <trkpt lat="47.81763" lon="6.82324">
        <ele>965.483887</ele>
        <time>2018-05-26T15:54:50Z</time>
      </trkpt>
      <trkpt lat="47.81762" lon="6.82326">
        <ele>965.442627</ele>
        <time>2018-05-26T15:54:51Z</time>
      </trkpt>
      <trkpt lat="47.8176" lon="6.82329">
        <ele>965.414063</ele>
        <time>2018-05-26T15:54:52Z</time>
      </trkpt>
      <trkpt lat="47.81759" lon="6.82332">
        <ele>965.378845</ele>
        <time>2018-05-26T15:54:53Z</time>
      </trkpt>
      <trkpt lat="47.81757" lon="6.82335">
        <ele>965.357971</ele>
        <time>2018-05-26T15:54:54Z</time>
      </trkpt>
      <trkpt lat="47.81756" lon="6.82338">
        <ele>965.332825</ele>
        <time>2018-05-26T15:54:55Z</time>
      </trkpt>
      <trkpt lat="47.81755" lon="6.82341">
        <ele>965.318665</ele>
        <time>2018-05-26T15:54:56Z</time>
      </trkpt>
      <trkpt lat="47.81755" lon="6.82344">
        <ele>965.30011</ele>
        <time>2018-05-26T15:54:57Z</time>
      </trkpt>
      <trkpt lat="47.81754" lon="6.82348">
        <ele>965.265625</ele>
        <time>2018-05-26T15:54:58Z</time>
      </trkpt>
      <trkpt lat="47.81754" lon="6.82351">
        <ele>965.245911</ele>
        <time>2018-05-26T15:54:59Z</time>
      </trkpt>
      <trkpt lat="47.81754" lon="6.82355">
        <ele>965.21698</ele>
        <time>2018-05-26T15:55:00Z</time>
      </trkpt>
      <trkpt lat="47.81753" lon="6.82359">
        <ele>965.186584</ele>
        <time>2018-05-26T15:55:01Z</time>
      </trkpt>
      <trkpt lat="47.81753" lon="6.82364">
        <ele>965.127502</ele>
        <time>2018-05-26T15:55:02Z</time>
      </trkpt>
      <trkpt lat="47.81752" lon="6.82369">
        <ele>965.089783</ele>
        <time>2018-05-26T15:55:03Z</time>
      </trkpt>
      <trkpt lat="47.81752" lon="6.82375">
        <ele>965.054932</ele>
        <time>2018-05-26T15:55:04Z</time>
      </trkpt>
      <trkpt lat="47.81751" lon="6.82379">
        <ele>964.989075</ele>
        <time>2018-05-26T15:55:05Z</time>
      </trkpt>
      <trkpt lat="47.81751" lon="6.82384">
        <ele>964.93219</ele>
        <time>2018-05-26T15:55:06Z</time>
      </trkpt>
      <trkpt lat="47.81751" lon="6.82389">
        <ele>964.838318</ele>
        <time>2018-05-26T15:55:07Z</time>
      </trkpt>
      <trkpt lat="47.81751" lon="6.82394">
        <ele>964.783142</ele>
        <time>2018-05-26T15:55:08Z</time>
      </trkpt>
      <trkpt lat="47.81751" lon="6.82399">
        <ele>964.73175</ele>
        <time>2018-05-26T15:55:09Z</time>
      </trkpt>
      <trkpt lat="47.81751" lon="6.82404">
        <ele>964.658936</ele>
        <time>2018-05-26T15:55:10Z</time>
      </trkpt>
      <trkpt lat="47.81752" lon="6.82408">
        <ele>964.613708</ele>
        <time>2018-05-26T15:55:11Z</time>
      </trkpt>
      <trkpt lat="47.81752" lon="6.82413">
        <ele>964.550842</ele>
        <time>2018-05-26T15:55:12Z</time>
      </trkpt>
      <trkpt lat="47.81752" lon="6.82418">
        <ele>964.504578</ele>
        <time>2018-05-26T15:55:13Z</time>
      </trkpt>
      <trkpt lat="47.81753" lon="6.82423">
        <ele>964.436462</ele>
        <time>2018-05-26T15:55:14Z</time>
      </trkpt>
      <trkpt lat="47.81754" lon="6.82427">
        <ele>964.396301</ele>
        <time>2018-05-26T15:55:15Z</time>
      </trkpt>
      <trkpt lat="47.81755" lon="6.82432">
        <ele>964.345154</ele>
        <time>2018-05-26T15:55:16Z</time>
      </trkpt>
      <trkpt lat="47.81756" lon="6.82437">
        <ele>964.306702</ele>
        <time>2018-05-26T15:55:17Z</time>
      </trkpt>
      <trkpt lat="47.81757" lon="6.82443">
        <ele>964.269531</ele>
        <time>2018-05-26T15:55:18Z</time>
      </trkpt>
      <trkpt lat="47.81759" lon="6.82449">
        <ele>964.243469</ele>
        <time>2018-05-26T15:55:19Z</time>
      </trkpt>
      <trkpt lat="47.8176" lon="6.82454">
        <ele>964.237122</ele>
        <time>2018-05-26T15:55:20Z</time>
      </trkpt>
      <trkpt lat="47.81761" lon="6.8246">
        <ele>964.227051</ele>
        <time>2018-05-26T15:55:21Z</time>
      </trkpt>
      <trkpt lat="47.81762" lon="6.82465">
        <ele>964.216248</ele>
        <time>2018-05-26T15:55:22Z</time>
      </trkpt>
      <trkpt lat="47.81763" lon="6.8247">
        <ele>964.20752</ele>
        <time>2018-05-26T15:55:23Z</time>
      </trkpt>
      <trkpt lat="47.81765" lon="6.82475">
        <ele>964.206726</ele>
        <time>2018-05-26T15:55:24Z</time>
      </trkpt>
      <trkpt lat="47.81766" lon="6.8248">
        <ele>964.203674</ele>
        <time>2018-05-26T15:55:25Z</time>
      </trkpt>
      <trkpt lat="47.81768" lon="6.82484">
        <ele>964.201599</ele>
        <time>2018-05-26T15:55:26Z</time>
      </trkpt>
      <trkpt lat="47.8177" lon="6.82488">
        <ele>964.188965</ele>
        <time>2018-05-26T15:55:27Z</time>
      </trkpt>
      <trkpt lat="47.81772" lon="6.82491">
        <ele>964.186218</ele>
        <time>2018-05-26T15:55:28Z</time>
      </trkpt>
      <trkpt lat="47.81775" lon="6.82494">
        <ele>964.182678</ele>
        <time>2018-05-26T15:55:29Z</time>
      </trkpt>
      <trkpt lat="47.81776" lon="6.82497">
        <ele>964.174866</ele>
        <time>2018-05-26T15:55:30Z</time>
      </trkpt>
      <trkpt lat="47.81778" lon="6.825">
        <ele>964.166077</ele>
        <time>2018-05-26T15:55:31Z</time>
      </trkpt>
      <trkpt lat="47.81781" lon="6.82503">
        <ele>964.162292</ele>
        <time>2018-05-26T15:55:32Z</time>
      </trkpt>
      <trkpt lat="47.81783" lon="6.82507">
        <ele>964.163879</ele>
        <time>2018-05-26T15:55:33Z</time>
      </trkpt>
      <trkpt lat="47.81785" lon="6.82511">
        <ele>964.167725</ele>
        <time>2018-05-26T15:55:34Z</time>
      </trkpt>
      <trkpt lat="47.81787" lon="6.82515">
        <ele>964.166016</ele>
        <time>2018-05-26T15:55:35Z</time>
      </trkpt>
      <trkpt lat="47.81789" lon="6.8252">
        <ele>964.155457</ele>
        <time>2018-05-26T15:55:36Z</time>
      </trkpt>
      <trkpt lat="47.8179" lon="6.82525">
        <ele>964.138</ele>
        <time>2018-05-26T15:55:37Z</time>
      </trkpt>
      <trkpt lat="47.81792" lon="6.82529">
        <ele>964.123535</ele>
        <time>2018-05-26T15:55:38Z</time>
      </trkpt>
      <trkpt lat="47.81792" lon="6.82534">
        <ele>964.085754</ele>
        <time>2018-05-26T15:55:39Z</time>
      </trkpt>
      <trkpt lat="47.81793" lon="6.82539">
        <ele>964.05365</ele>
        <time>2018-05-26T15:55:40Z</time>
      </trkpt>
      <trkpt lat="47.81794" lon="6.82544">
        <ele>964.001709</ele>
        <time>2018-05-26T15:55:41Z</time>
      </trkpt>
      <trkpt lat="47.81793" lon="6.82549">
        <ele>963.970215</ele>
        <time>2018-05-26T15:55:42Z</time>
      </trkpt>
      <trkpt lat="47.81792" lon="6.82554">
        <ele>963.947937</ele>
        <time>2018-05-26T15:55:43Z</time>
      </trkpt>
      <trkpt lat="47.81791" lon="6.82559">
        <ele>963.914795</ele>
        <time>2018-05-26T15:55:44Z</time>
      </trkpt>
      <trkpt lat="47.8179" lon="6.82564">
        <ele>963.899353</ele>
        <time>2018-05-26T15:55:45Z</time>
      </trkpt>
      <trkpt lat="47.8179" lon="6.82569">
        <ele>963.865906</ele>
        <time>2018-05-26T15:55:46Z</time>
      </trkpt>
      <trkpt lat="47.81789" lon="6.82575">
        <ele>963.831238</ele>
        <time>2018-05-26T15:55:47Z</time>
      </trkpt>
      <trkpt lat="47.81789" lon="6.82581">
        <ele>963.794739</ele>
        <time>2018-05-26T15:55:48Z</time>
      </trkpt>
      <trkpt lat="47.81789" lon="6.82587">
        <ele>963.736145</ele>
        <time>2018-05-26T15:55:49Z</time>
      </trkpt>
      <trkpt lat="47.81789" lon="6.82593">
        <ele>963.701233</ele>
        <time>2018-05-26T15:55:50Z</time>
      </trkpt>
      <trkpt lat="47.81789" lon="6.826">
        <ele>963.649902</ele>
        <time>2018-05-26T15:55:51Z</time>
      </trkpt>
      <trkpt lat="47.81791" lon="6.82606">
        <ele>963.606201</ele>
        <time>2018-05-26T15:55:52Z</time>
      </trkpt>
      <trkpt lat="47.81793" lon="6.82612">
        <ele>963.522461</ele>
        <time>2018-05-26T15:55:53Z</time>
      </trkpt>
      <trkpt lat="47.81796" lon="6.82617">
        <ele>963.461609</ele>
        <time>2018-05-26T15:55:54Z</time>
      </trkpt>
      <trkpt lat="47.81798" lon="6.82622">
        <ele>963.37738</ele>
        <time>2018-05-26T15:55:55Z</time>
      </trkpt>
      <trkpt lat="47.81801" lon="6.82626">
        <ele>963.322021</ele>
        <time>2018-05-26T15:55:56Z</time>
      </trkpt>
      <trkpt lat="47.81803" lon="6.82631">
        <ele>963.269043</ele>
        <time>2018-05-26T15:55:57Z</time>
      </trkpt>
      <trkpt lat="47.81805" lon="6.82635">
        <ele>963.210388</ele>
        <time>2018-05-26T15:55:58Z</time>
      </trkpt>
      <trkpt lat="47.81809" lon="6.82639">
        <ele>963.19281</ele>
        <time>2018-05-26T15:55:59Z</time>
      </trkpt>
      <trkpt lat="47.81812" lon="6.82644">
        <ele>963.18042</ele>
        <time>2018-05-26T15:56:00Z</time>
      </trkpt>
      <trkpt lat="47.81815" lon="6.82648">
        <ele>963.166748</ele>
        <time>2018-05-26T15:56:01Z</time>
      </trkpt>
      <trkpt lat="47.81818" lon="6.82653">
        <ele>963.136719</ele>
        <time>2018-05-26T15:56:02Z</time>
      </trkpt>
      <trkpt lat="47.81822" lon="6.82657">
        <ele>963.057129</ele>
        <time>2018-05-26T15:56:03Z</time>
      </trkpt>
      <trkpt lat="47.81826" lon="6.8266">
        <ele>962.974792</ele>
        <time>2018-05-26T15:56:04Z</time>
      </trkpt>
      <trkpt lat="47.8183" lon="6.82663">
        <ele>962.814514</ele>
        <time>2018-05-26T15:56:05Z</time>
      </trkpt>
      <trkpt lat="47.81833" lon="6.82666">
        <ele>962.698669</ele>
        <time>2018-05-26T15:56:06Z</time>
      </trkpt>
      <trkpt lat="47.81836" lon="6.82669">
        <ele>962.548523</ele>
        <time>2018-05-26T15:56:07Z</time>
      </trkpt>
      <trkpt lat="47.81839" lon="6.82671">
        <ele>962.475647</ele>
        <time>2018-05-26T15:56:08Z</time>
      </trkpt>
      <trkpt lat="47.81843" lon="6.82673">
        <ele>962.421387</ele>
        <time>2018-05-26T15:56:09Z</time>
      </trkpt>
      <trkpt lat="47.81846" lon="6.82675">
        <ele>962.361267</ele>
        <time>2018-05-26T15:56:10Z</time>
      </trkpt>
      <trkpt lat="47.8185" lon="6.82676">
        <ele>962.332703</ele>
        <time>2018-05-26T15:56:11Z</time>
      </trkpt>
      <trkpt lat="47.81854" lon="6.82678">
        <ele>962.289368</ele>
        <time>2018-05-26T15:56:12Z</time>
      </trkpt>
      <trkpt lat="47.81857" lon="6.8268">
        <ele>962.249817</ele>
        <time>2018-05-26T15:56:13Z</time>
      </trkpt>
      <trkpt lat="47.8186" lon="6.82682">
        <ele>962.196716</ele>
        <time>2018-05-26T15:56:14Z</time>
      </trkpt>
      <trkpt lat="47.81864" lon="6.82684">
        <ele>962.100098</ele>
        <time>2018-05-26T15:56:15Z</time>
      </trkpt>
      <trkpt lat="47.81867" lon="6.82686">
        <ele>962.042419</ele>
        <time>2018-05-26T15:56:16Z</time>
      </trkpt>
      <trkpt lat="47.81871" lon="6.82689">
        <ele>961.973938</ele>
        <time>2018-05-26T15:56:17Z</time>
      </trkpt>
      <trkpt lat="47.81874" lon="6.82691">
        <ele>961.937805</ele>
        <time>2018-05-26T15:56:18Z</time>
      </trkpt>
      <trkpt lat="47.81877" lon="6.82693">
        <ele>961.894714</ele>
        <time>2018-05-26T15:56:19Z</time>
      </trkpt>
      <trkpt lat="47.81881" lon="6.82696">
        <ele>961.870361</ele>
        <time>2018-05-26T15:56:20Z</time>
      </trkpt>
      <trkpt lat="47.81886" lon="6.82698">
        <ele>961.835632</ele>
        <time>2018-05-26T15:56:21Z</time>
      </trkpt>
      <trkpt lat="47.81889" lon="6.827">
        <ele>961.752258</ele>
        <time>2018-05-26T15:56:22Z</time>
      </trkpt>
      <trkpt lat="47.81893" lon="6.82701">
        <ele>961.681641</ele>
        <time>2018-05-26T15:56:23Z</time>
      </trkpt>
      <trkpt lat="47.81897" lon="6.82702">
        <ele>961.575378</ele>
        <time>2018-05-26T15:56:24Z</time>
      </trkpt>
      <trkpt lat="47.81901" lon="6.82705">
        <ele>961.503967</ele>
        <time>2018-05-26T15:56:25Z</time>
      </trkpt>
      <trkpt lat="47.81905" lon="6.82706">
        <ele>961.393799</ele>
        <time>2018-05-26T15:56:26Z</time>
      </trkpt>
      <trkpt lat="47.81909" lon="6.82708">
        <ele>961.329834</ele>
        <time>2018-05-26T15:56:27Z</time>
      </trkpt>
      <trkpt lat="47.81913" lon="6.82711">
        <ele>961.257813</ele>
        <time>2018-05-26T15:56:28Z</time>
      </trkpt>
      <trkpt lat="47.81917" lon="6.82713">
        <ele>961.221008</ele>
        <time>2018-05-26T15:56:29Z</time>
      </trkpt>
      <trkpt lat="47.81921" lon="6.82714">
        <ele>961.183838</ele>
        <time>2018-05-26T15:56:30Z</time>
      </trkpt>
      <trkpt lat="47.81926" lon="6.82716">
        <ele>961.111633</ele>
        <time>2018-05-26T15:56:31Z</time>
      </trkpt>
      <trkpt lat="47.81929" lon="6.82717">
        <ele>961.056213</ele>
        <time>2018-05-26T15:56:32Z</time>
      </trkpt>
      <trkpt lat="47.81933" lon="6.82718">
        <ele>960.963867</ele>
        <time>2018-05-26T15:56:33Z</time>
      </trkpt>
      <trkpt lat="47.81937" lon="6.8272">
        <ele>960.891113</ele>
        <time>2018-05-26T15:56:34Z</time>
      </trkpt>
      <trkpt lat="47.81942" lon="6.82721">
        <ele>960.781677</ele>
        <time>2018-05-26T15:56:35Z</time>
      </trkpt>
      <trkpt lat="47.81946" lon="6.82722">
        <ele>960.722107</ele>
        <time>2018-05-26T15:56:36Z</time>
      </trkpt>
      <trkpt lat="47.8195" lon="6.82723">
        <ele>960.661316</ele>
        <time>2018-05-26T15:56:37Z</time>
      </trkpt>
      <trkpt lat="47.81955" lon="6.82723">
        <ele>960.628601</ele>
        <time>2018-05-26T15:56:38Z</time>
      </trkpt>
      <trkpt lat="47.81958" lon="6.82724">
        <ele>960.594421</ele>
        <time>2018-05-26T15:56:39Z</time>
      </trkpt>
      <trkpt lat="47.81963" lon="6.82725">
        <ele>960.528809</ele>
        <time>2018-05-26T15:56:40Z</time>
      </trkpt>
      <trkpt lat="47.81966" lon="6.82727">
        <ele>960.477844</ele>
        <time>2018-05-26T15:56:41Z</time>
      </trkpt>
      <trkpt lat="47.8197" lon="6.8273">
        <ele>960.373474</ele>
        <time>2018-05-26T15:56:42Z</time>
      </trkpt>
      <trkpt lat="47.81973" lon="6.82732">
        <ele>960.288879</ele>
        <time>2018-05-26T15:56:43Z</time>
      </trkpt>
      <trkpt lat="47.81976" lon="6.82735">
        <ele>960.170898</ele>
        <time>2018-05-26T15:56:44Z</time>
      </trkpt>
      <trkpt lat="47.81979" lon="6.82737">
        <ele>960.142883</ele>
        <time>2018-05-26T15:56:45Z</time>
      </trkpt>
      <trkpt lat="47.81982" lon="6.82739">
        <ele>960.100403</ele>
        <time>2018-05-26T15:56:46Z</time>
      </trkpt>
      <trkpt lat="47.81986" lon="6.82742">
        <ele>960.098572</ele>
        <time>2018-05-26T15:56:47Z</time>
      </trkpt>
      <trkpt lat="47.8199" lon="6.82747">
        <ele>960.101379</ele>
        <time>2018-05-26T15:56:48Z</time>
      </trkpt>
      <trkpt lat="47.81993" lon="6.8275">
        <ele>960.101379</ele>
        <time>2018-05-26T15:56:49Z</time>
      </trkpt>
      <trkpt lat="47.81997" lon="6.82754">
        <ele>960.08667</ele>
        <time>2018-05-26T15:56:50Z</time>
      </trkpt>
      <trkpt lat="47.82001" lon="6.82758">
        <ele>960.05542</ele>
        <time>2018-05-26T15:56:51Z</time>
      </trkpt>
      <trkpt lat="47.82005" lon="6.82761">
        <ele>960.004333</ele>
        <time>2018-05-26T15:56:52Z</time>
      </trkpt>
      <trkpt lat="47.82008" lon="6.82765">
        <ele>959.891113</ele>
        <time>2018-05-26T15:56:53Z</time>
      </trkpt>
      <trkpt lat="47.82012" lon="6.82769">
        <ele>959.801758</ele>
        <time>2018-05-26T15:56:54Z</time>
      </trkpt>
      <trkpt lat="47.82016" lon="6.82772">
        <ele>959.68335</ele>
        <time>2018-05-26T15:56:55Z</time>
      </trkpt>
      <trkpt lat="47.82019" lon="6.82775">
        <ele>959.620422</ele>
        <time>2018-05-26T15:56:56Z</time>
      </trkpt>
      <trkpt lat="47.82023" lon="6.82778">
        <ele>959.554871</ele>
        <time>2018-05-26T15:56:57Z</time>
      </trkpt>
      <trkpt lat="47.82026" lon="6.8278">
        <ele>959.539307</ele>
        <time>2018-05-26T15:56:58Z</time>
      </trkpt>
      <trkpt lat="47.82029" lon="6.82783">
        <ele>959.539307</ele>
        <time>2018-05-26T15:56:59Z</time>
      </trkpt>
      <trkpt lat="47.82031" lon="6.82786">
        <ele>959.572083</ele>
        <time>2018-05-26T15:57:00Z</time>
      </trkpt>
      <trkpt lat="47.82034" lon="6.82789">
        <ele>959.612549</ele>
        <time>2018-05-26T15:57:01Z</time>
      </trkpt>
      <trkpt lat="47.82037" lon="6.82791">
        <ele>959.669373</ele>
        <time>2018-05-26T15:57:02Z</time>
      </trkpt>
      <trkpt lat="47.8204" lon="6.82794">
        <ele>959.706604</ele>
        <time>2018-05-26T15:57:03Z</time>
      </trkpt>
      <trkpt lat="47.82044" lon="6.82796">
        <ele>959.762756</ele>
        <time>2018-05-26T15:57:04Z</time>
      </trkpt>
      <trkpt lat="47.82046" lon="6.82798">
        <ele>959.803711</ele>
        <time>2018-05-26T15:57:05Z</time>
      </trkpt>
      <trkpt lat="47.82049" lon="6.828">
        <ele>959.859619</ele>
        <time>2018-05-26T15:57:06Z</time>
      </trkpt>
      <trkpt lat="47.82052" lon="6.82801">
        <ele>959.893127</ele>
        <time>2018-05-26T15:57:07Z</time>
      </trkpt>
      <trkpt lat="47.82055" lon="6.82803">
        <ele>959.940002</ele>
        <time>2018-05-26T15:57:08Z</time>
      </trkpt>
      <trkpt lat="47.82058" lon="6.82805">
        <ele>959.960388</ele>
        <time>2018-05-26T15:57:09Z</time>
      </trkpt>
      <trkpt lat="47.82061" lon="6.82807">
        <ele>959.962708</ele>
        <time>2018-05-26T15:57:10Z</time>
      </trkpt>
      <trkpt lat="47.82063" lon="6.82809">
        <ele>959.945496</ele>
        <time>2018-05-26T15:57:11Z</time>
      </trkpt>
      <trkpt lat="47.82066" lon="6.82811">
        <ele>959.899902</ele>
        <time>2018-05-26T15:57:12Z</time>
      </trkpt>
      <trkpt lat="47.82069" lon="6.82813">
        <ele>959.806152</ele>
        <time>2018-05-26T15:57:13Z</time>
      </trkpt>
      <trkpt lat="47.82073" lon="6.82815">
        <ele>959.739075</ele>
        <time>2018-05-26T15:57:14Z</time>
      </trkpt>
      <trkpt lat="47.82076" lon="6.82817">
        <ele>959.635925</ele>
        <time>2018-05-26T15:57:15Z</time>
      </trkpt>
      <trkpt lat="47.82079" lon="6.82819">
        <ele>959.58429</ele>
        <time>2018-05-26T15:57:16Z</time>
      </trkpt>
      <trkpt lat="47.82083" lon="6.82821">
        <ele>959.553406</ele>
        <time>2018-05-26T15:57:17Z</time>
      </trkpt>
      <trkpt lat="47.82088" lon="6.82823">
        <ele>959.527405</ele>
        <time>2018-05-26T15:57:18Z</time>
      </trkpt>
      <trkpt lat="47.82092" lon="6.82825">
        <ele>959.509583</ele>
        <time>2018-05-26T15:57:19Z</time>
      </trkpt>
      <trkpt lat="47.82097" lon="6.82826">
        <ele>959.486511</ele>
        <time>2018-05-26T15:57:20Z</time>
      </trkpt>
      <trkpt lat="47.82101" lon="6.82827">
        <ele>959.467957</ele>
        <time>2018-05-26T15:57:21Z</time>
      </trkpt>
      <trkpt lat="47.82106" lon="6.82828">
        <ele>959.426208</ele>
        <time>2018-05-26T15:57:22Z</time>
      </trkpt>
      <trkpt lat="47.82111" lon="6.82829">
        <ele>959.384766</ele>
        <time>2018-05-26T15:57:23Z</time>
      </trkpt>
      <trkpt lat="47.82115" lon="6.8283">
        <ele>959.318604</ele>
        <time>2018-05-26T15:57:24Z</time>
      </trkpt>
      <trkpt lat="47.82119" lon="6.82831">
        <ele>959.28418</ele>
        <time>2018-05-26T15:57:25Z</time>
      </trkpt>
      <trkpt lat="47.82124" lon="6.82833">
        <ele>959.24762</ele>
        <time>2018-05-26T15:57:26Z</time>
      </trkpt>
      <trkpt lat="47.82128" lon="6.82836">
        <ele>959.240967</ele>
        <time>2018-05-26T15:57:27Z</time>
      </trkpt>
      <trkpt lat="47.82131" lon="6.8284">
        <ele>959.240906</ele>
        <time>2018-05-26T15:57:28Z</time>
      </trkpt>
      <trkpt lat="47.82135" lon="6.82843">
        <ele>959.247009</ele>
        <time>2018-05-26T15:57:29Z</time>
      </trkpt>
      <trkpt lat="47.82139" lon="6.82847">
        <ele>959.250061</ele>
        <time>2018-05-26T15:57:30Z</time>
      </trkpt>
      <trkpt lat="47.82142" lon="6.82851">
        <ele>959.24884</ele>
        <time>2018-05-26T15:57:31Z</time>
      </trkpt>
      <trkpt lat="47.82146" lon="6.82856">
        <ele>959.236084</ele>
        <time>2018-05-26T15:57:32Z</time>
      </trkpt>
      <trkpt lat="47.82149" lon="6.82861">
        <ele>959.213562</ele>
        <time>2018-05-26T15:57:33Z</time>
      </trkpt>
      <trkpt lat="47.82152" lon="6.82865">
        <ele>959.162903</ele>
        <time>2018-05-26T15:57:34Z</time>
      </trkpt>
      <trkpt lat="47.82155" lon="6.8287">
        <ele>959.129578</ele>
        <time>2018-05-26T15:57:35Z</time>
      </trkpt>
      <trkpt lat="47.82159" lon="6.82875">
        <ele>959.079102</ele>
        <time>2018-05-26T15:57:36Z</time>
      </trkpt>
      <trkpt lat="47.82162" lon="6.82879">
        <ele>959.038574</ele>
        <time>2018-05-26T15:57:37Z</time>
      </trkpt>
      <trkpt lat="47.82166" lon="6.82881">
        <ele>958.954041</ele>
        <time>2018-05-26T15:57:38Z</time>
      </trkpt>
      <trkpt lat="47.82169" lon="6.82883">
        <ele>958.891113</ele>
        <time>2018-05-26T15:57:39Z</time>
      </trkpt>
      <trkpt lat="47.82173" lon="6.82885">
        <ele>958.824219</ele>
        <time>2018-05-26T15:57:40Z</time>
      </trkpt>
      <trkpt lat="47.82177" lon="6.82886">
        <ele>958.735168</ele>
        <time>2018-05-26T15:57:41Z</time>
      </trkpt>
      <trkpt lat="47.8218" lon="6.82885">
        <ele>958.694275</ele>
        <time>2018-05-26T15:57:42Z</time>
      </trkpt>
      <trkpt lat="47.82184" lon="6.82884">
        <ele>958.683899</ele>
        <time>2018-05-26T15:57:43Z</time>
      </trkpt>
      <trkpt lat="47.82188" lon="6.82883">
        <ele>958.687073</ele>
        <time>2018-05-26T15:57:44Z</time>
      </trkpt>
      <trkpt lat="47.82193" lon="6.82883">
        <ele>958.720398</ele>
        <time>2018-05-26T15:57:45Z</time>
      </trkpt>
      <trkpt lat="47.82197" lon="6.82883">
        <ele>958.734924</ele>
        <time>2018-05-26T15:57:46Z</time>
      </trkpt>
      <trkpt lat="47.82201" lon="6.82884">
        <ele>958.734924</ele>
        <time>2018-05-26T15:57:47Z</time>
      </trkpt>
      <trkpt lat="47.82205" lon="6.82885">
        <ele>958.768494</ele>
        <time>2018-05-26T15:57:48Z</time>
      </trkpt>
      <trkpt lat="47.82209" lon="6.82886">
        <ele>958.777283</ele>
        <time>2018-05-26T15:57:49Z</time>
      </trkpt>
      <trkpt lat="47.82214" lon="6.82887">
        <ele>958.778992</ele>
        <time>2018-05-26T15:57:50Z</time>
      </trkpt>
      <trkpt lat="47.82218" lon="6.82889">
        <ele>958.774902</ele>
        <time>2018-05-26T15:57:51Z</time>
      </trkpt>
      <trkpt lat="47.82222" lon="6.8289">
        <ele>958.764587</ele>
        <time>2018-05-26T15:57:52Z</time>
      </trkpt>
      <trkpt lat="47.82226" lon="6.82892">
        <ele>958.736755</ele>
        <time>2018-05-26T15:57:53Z</time>
      </trkpt>
      <trkpt lat="47.8223" lon="6.82893">
        <ele>958.721619</ele>
        <time>2018-05-26T15:57:54Z</time>
      </trkpt>
      <trkpt lat="47.82233" lon="6.82895">
        <ele>958.718323</ele>
        <time>2018-05-26T15:57:55Z</time>
      </trkpt>
      <trkpt lat="47.82238" lon="6.82897">
        <ele>958.724609</ele>
        <time>2018-05-26T15:57:56Z</time>
      </trkpt>
      <trkpt lat="47.82242" lon="6.82898">
        <ele>958.746765</ele>
        <time>2018-05-26T15:57:57Z</time>
      </trkpt>
      <trkpt lat="47.82246" lon="6.82901">
        <ele>958.791809</ele>
        <time>2018-05-26T15:57:58Z</time>
      </trkpt>
      <trkpt lat="47.82249" lon="6.82902">
        <ele>958.836914</ele>
        <time>2018-05-26T15:57:59Z</time>
      </trkpt>
      <trkpt lat="47.82253" lon="6.82904">
        <ele>958.9375</ele>
        <time>2018-05-26T15:58:00Z</time>
      </trkpt>
      <trkpt lat="47.82256" lon="6.82906">
        <ele>959.022766</ele>
        <time>2018-05-26T15:58:01Z</time>
      </trkpt>
      <trkpt lat="47.8226" lon="6.82907">
        <ele>959.159851</ele>
        <time>2018-05-26T15:58:02Z</time>
      </trkpt>
      <trkpt lat="47.82264" lon="6.82909">
        <ele>959.254089</ele>
        <time>2018-05-26T15:58:03Z</time>
      </trkpt>
      <trkpt lat="47.82267" lon="6.8291">
        <ele>959.390869</ele>
        <time>2018-05-26T15:58:04Z</time>
      </trkpt>
      <trkpt lat="47.8227" lon="6.82912">
        <ele>959.470947</ele>
        <time>2018-05-26T15:58:05Z</time>
      </trkpt>
      <trkpt lat="47.82274" lon="6.82914">
        <ele>959.556641</ele>
        <time>2018-05-26T15:58:06Z</time>
      </trkpt>
      <trkpt lat="47.82278" lon="6.82917">
        <ele>959.588196</ele>
        <time>2018-05-26T15:58:07Z</time>
      </trkpt>
      <trkpt lat="47.82281" lon="6.8292">
        <ele>959.605652</ele>
        <time>2018-05-26T15:58:08Z</time>
      </trkpt>
      <trkpt lat="47.82285" lon="6.82923">
        <ele>959.632019</ele>
        <time>2018-05-26T15:58:09Z</time>
      </trkpt>
      <trkpt lat="47.82289" lon="6.82926">
        <ele>959.65863</ele>
        <time>2018-05-26T15:58:10Z</time>
      </trkpt>
      <trkpt lat="47.82292" lon="6.8293">
        <ele>959.710999</ele>
        <time>2018-05-26T15:58:11Z</time>
      </trkpt>
      <trkpt lat="47.82296" lon="6.82933">
        <ele>959.754211</ele>
        <time>2018-05-26T15:58:12Z</time>
      </trkpt>
      <trkpt lat="47.82298" lon="6.82936">
        <ele>959.807312</ele>
        <time>2018-05-26T15:58:13Z</time>
      </trkpt>
      <trkpt lat="47.82302" lon="6.82939">
        <ele>959.893738</ele>
        <time>2018-05-26T15:58:14Z</time>
      </trkpt>
      <trkpt lat="47.82306" lon="6.8294">
        <ele>959.942322</ele>
        <time>2018-05-26T15:58:15Z</time>
      </trkpt>
      <trkpt lat="47.8231" lon="6.8294">
        <ele>959.991028</ele>
        <time>2018-05-26T15:58:16Z</time>
      </trkpt>
      <trkpt lat="47.82314" lon="6.82941">
        <ele>960.012512</ele>
        <time>2018-05-26T15:58:17Z</time>
      </trkpt>
      <trkpt lat="47.82317" lon="6.8294">
        <ele>960.04248</ele>
        <time>2018-05-26T15:58:18Z</time>
      </trkpt>
      <trkpt lat="47.82321" lon="6.82941">
        <ele>960.062195</ele>
        <time>2018-05-26T15:58:19Z</time>
      </trkpt>
      <trkpt lat="47.82325" lon="6.82941">
        <ele>960.07959</ele>
        <time>2018-05-26T15:58:20Z</time>
      </trkpt>
      <trkpt lat="47.82328" lon="6.82941">
        <ele>960.105164</ele>
        <time>2018-05-26T15:58:21Z</time>
      </trkpt>
      <trkpt lat="47.82332" lon="6.82941">
        <ele>960.137024</ele>
        <time>2018-05-26T15:58:22Z</time>
      </trkpt>
      <trkpt lat="47.82336" lon="6.82941">
        <ele>960.208984</ele>
        <time>2018-05-26T15:58:23Z</time>
      </trkpt>
      <trkpt lat="47.8234" lon="6.82942">
        <ele>960.263</ele>
        <time>2018-05-26T15:58:24Z</time>
      </trkpt>
      <trkpt lat="47.82344" lon="6.82943">
        <ele>960.325195</ele>
        <time>2018-05-26T15:58:25Z</time>
      </trkpt>
      <trkpt lat="47.82348" lon="6.82945">
        <ele>960.351746</ele>
        <time>2018-05-26T15:58:26Z</time>
      </trkpt>
      <trkpt lat="47.82352" lon="6.82946">
        <ele>960.369446</ele>
        <time>2018-05-26T15:58:27Z</time>
      </trkpt>
      <trkpt lat="47.82357" lon="6.82948">
        <ele>960.374023</ele>
        <time>2018-05-26T15:58:28Z</time>
      </trkpt>
      <trkpt lat="47.82362" lon="6.82949">
        <ele>960.364807</ele>
        <time>2018-05-26T15:58:29Z</time>
      </trkpt>
      <trkpt lat="47.82366" lon="6.82949">
        <ele>960.296387</ele>
        <time>2018-05-26T15:58:30Z</time>
      </trkpt>
      <trkpt lat="47.82371" lon="6.82949">
        <ele>960.222168</ele>
        <time>2018-05-26T15:58:31Z</time>
      </trkpt>
      <trkpt lat="47.82376" lon="6.82949">
        <ele>960.083435</ele>
        <time>2018-05-26T15:58:32Z</time>
      </trkpt>
      <trkpt lat="47.82381" lon="6.82949">
        <ele>959.969238</ele>
        <time>2018-05-26T15:58:33Z</time>
      </trkpt>
      <trkpt lat="47.82386" lon="6.82949">
        <ele>959.846619</ele>
        <time>2018-05-26T15:58:34Z</time>
      </trkpt>
      <trkpt lat="47.82392" lon="6.82948">
        <ele>959.683289</ele>
        <time>2018-05-26T15:58:35Z</time>
      </trkpt>
      <trkpt lat="47.82398" lon="6.82949">
        <ele>959.590759</ele>
        <time>2018-05-26T15:58:36Z</time>
      </trkpt>
      <trkpt lat="47.82403" lon="6.82949">
        <ele>959.442566</ele>
        <time>2018-05-26T15:58:37Z</time>
      </trkpt>
      <trkpt lat="47.82408" lon="6.82948">
        <ele>959.335693</ele>
        <time>2018-05-26T15:58:38Z</time>
      </trkpt>
      <trkpt lat="47.82413" lon="6.82948">
        <ele>959.231201</ele>
        <time>2018-05-26T15:58:39Z</time>
      </trkpt>
      <trkpt lat="47.82418" lon="6.82949">
        <ele>959.088379</ele>
        <time>2018-05-26T15:58:40Z</time>
      </trkpt>
      <trkpt lat="47.82424" lon="6.82949">
        <ele>958.968506</ele>
        <time>2018-05-26T15:58:41Z</time>
      </trkpt>
      <trkpt lat="47.8243" lon="6.82951">
        <ele>958.695007</ele>
        <time>2018-05-26T15:58:42Z</time>
      </trkpt>
      <trkpt lat="47.82436" lon="6.82953">
        <ele>958.458313</ele>
        <time>2018-05-26T15:58:43Z</time>
      </trkpt>
      <trkpt lat="47.82441" lon="6.82956">
        <ele>958.065125</ele>
        <time>2018-05-26T15:58:44Z</time>
      </trkpt>
      <trkpt lat="47.82447" lon="6.82959">
        <ele>957.781738</ele>
        <time>2018-05-26T15:58:45Z</time>
      </trkpt>
      <trkpt lat="47.82454" lon="6.8296">
        <ele>957.487061</ele>
        <time>2018-05-26T15:58:46Z</time>
      </trkpt>
      <trkpt lat="47.8246" lon="6.8296">
        <ele>957.18988</ele>
        <time>2018-05-26T15:58:47Z</time>
      </trkpt>
      <trkpt lat="47.82467" lon="6.8296">
        <ele>956.903137</ele>
        <time>2018-05-26T15:58:48Z</time>
      </trkpt>
      <trkpt lat="47.82474" lon="6.82962">
        <ele>956.628723</ele>
        <time>2018-05-26T15:58:49Z</time>
      </trkpt>
      <trkpt lat="47.82481" lon="6.82965">
        <ele>956.229431</ele>
        <time>2018-05-26T15:58:50Z</time>
      </trkpt>
      <trkpt lat="47.82488" lon="6.82969">
        <ele>955.950745</ele>
        <time>2018-05-26T15:58:51Z</time>
      </trkpt>
      <trkpt lat="47.82494" lon="6.82974">
        <ele>955.471252</ele>
        <time>2018-05-26T15:58:52Z</time>
      </trkpt>
      <trkpt lat="47.82502" lon="6.82977">
        <ele>955.107666</ele>
        <time>2018-05-26T15:58:53Z</time>
      </trkpt>
      <trkpt lat="47.82509" lon="6.82978">
        <ele>954.516602</ele>
        <time>2018-05-26T15:58:54Z</time>
      </trkpt>
      <trkpt lat="47.82516" lon="6.82977">
        <ele>954.105713</ele>
        <time>2018-05-26T15:58:55Z</time>
      </trkpt>
      <trkpt lat="47.82524" lon="6.82976">
        <ele>953.467224</ele>
        <time>2018-05-26T15:58:56Z</time>
      </trkpt>
      <trkpt lat="47.82532" lon="6.82974">
        <ele>953.029602</ele>
        <time>2018-05-26T15:58:57Z</time>
      </trkpt>
      <trkpt lat="47.82539" lon="6.82974">
        <ele>952.381348</ele>
        <time>2018-05-26T15:58:58Z</time>
      </trkpt>
      <trkpt lat="47.82547" lon="6.82973">
        <ele>951.951355</ele>
        <time>2018-05-26T15:58:59Z</time>
      </trkpt>
      <trkpt lat="47.82555" lon="6.82972">
        <ele>951.521667</ele>
        <time>2018-05-26T15:59:00Z</time>
      </trkpt>
      <trkpt lat="47.82564" lon="6.82972">
        <ele>950.878845</ele>
        <time>2018-05-26T15:59:01Z</time>
      </trkpt>
      <trkpt lat="47.82572" lon="6.82973">
        <ele>950.434631</ele>
        <time>2018-05-26T15:59:02Z</time>
      </trkpt>
      <trkpt lat="47.82581" lon="6.82975">
        <ele>949.702637</ele>
        <time>2018-05-26T15:59:03Z</time>
      </trkpt>
      <trkpt lat="47.8259" lon="6.82976">
        <ele>949.171875</ele>
        <time>2018-05-26T15:59:04Z</time>
      </trkpt>
      <trkpt lat="47.82599" lon="6.82975">
        <ele>948.369324</ele>
        <time>2018-05-26T15:59:05Z</time>
      </trkpt>
      <trkpt lat="47.82607" lon="6.82976">
        <ele>947.862488</ele>
        <time>2018-05-26T15:59:06Z</time>
      </trkpt>
      <trkpt lat="47.82616" lon="6.82977">
        <ele>947.355408</ele>
        <time>2018-05-26T15:59:07Z</time>
      </trkpt>
      <trkpt lat="47.82624" lon="6.82979">
        <ele>946.587891</ele>
        <time>2018-05-26T15:59:08Z</time>
      </trkpt>
      <trkpt lat="47.82633" lon="6.82981">
        <ele>946.110352</ele>
        <time>2018-05-26T15:59:09Z</time>
      </trkpt>
      <trkpt lat="47.82641" lon="6.82983">
        <ele>945.482849</ele>
        <time>2018-05-26T15:59:10Z</time>
      </trkpt>
      <trkpt lat="47.82649" lon="6.82985">
        <ele>945.083984</ele>
        <time>2018-05-26T15:59:11Z</time>
      </trkpt>
      <trkpt lat="47.82658" lon="6.82987">
        <ele>944.668152</ele>
        <time>2018-05-26T15:59:12Z</time>
      </trkpt>
      <trkpt lat="47.82666" lon="6.82989">
        <ele>944.020935</ele>
        <time>2018-05-26T15:59:13Z</time>
      </trkpt>
      <trkpt lat="47.82675" lon="6.82992">
        <ele>943.587585</ele>
        <time>2018-05-26T15:59:14Z</time>
      </trkpt>
      <trkpt lat="47.82684" lon="6.82993">
        <ele>942.936829</ele>
        <time>2018-05-26T15:59:15Z</time>
      </trkpt>
      <trkpt lat="47.82693" lon="6.82994">
        <ele>942.509827</ele>
        <time>2018-05-26T15:59:16Z</time>
      </trkpt>
      <trkpt lat="47.82702" lon="6.82993">
        <ele>941.88031</ele>
        <time>2018-05-26T15:59:17Z</time>
      </trkpt>
      <trkpt lat="47.8271" lon="6.82992">
        <ele>941.458008</ele>
        <time>2018-05-26T15:59:18Z</time>
      </trkpt>
      <trkpt lat="47.82719" lon="6.82991">
        <ele>941.027649</ele>
        <time>2018-05-26T15:59:19Z</time>
      </trkpt>
      <trkpt lat="47.82727" lon="6.8299">
        <ele>940.375305</ele>
        <time>2018-05-26T15:59:20Z</time>
      </trkpt>
      <trkpt lat="47.82737" lon="6.8299">
        <ele>939.922058</ele>
        <time>2018-05-26T15:59:21Z</time>
      </trkpt>
      <trkpt lat="47.82745" lon="6.82991">
        <ele>939.184631</ele>
        <time>2018-05-26T15:59:22Z</time>
      </trkpt>
      <trkpt lat="47.82754" lon="6.82992">
        <ele>938.639954</ele>
        <time>2018-05-26T15:59:23Z</time>
      </trkpt>
      <trkpt lat="47.82763" lon="6.82996">
        <ele>938.051514</ele>
        <time>2018-05-26T15:59:24Z</time>
      </trkpt>
      <trkpt lat="47.82771" lon="6.83">
        <ele>937.120789</ele>
        <time>2018-05-26T15:59:25Z</time>
      </trkpt>
      <trkpt lat="47.8278" lon="6.83006">
        <ele>936.515625</ele>
        <time>2018-05-26T15:59:26Z</time>
      </trkpt>
      <trkpt lat="47.82788" lon="6.83011">
        <ele>935.663879</ele>
        <time>2018-05-26T15:59:27Z</time>
      </trkpt>
      <trkpt lat="47.82797" lon="6.83017">
        <ele>935.127197</ele>
        <time>2018-05-26T15:59:28Z</time>
      </trkpt>
      <trkpt lat="47.82806" lon="6.83022">
        <ele>934.311584</ele>
        <time>2018-05-26T15:59:29Z</time>
      </trkpt>
      <trkpt lat="47.82814" lon="6.83027">
        <ele>933.729919</ele>
        <time>2018-05-26T15:59:30Z</time>
      </trkpt>
      <trkpt lat="47.82822" lon="6.83032">
        <ele>932.836609</ele>
        <time>2018-05-26T15:59:31Z</time>
      </trkpt>
      <trkpt lat="47.8283" lon="6.83038">
        <ele>932.242859</ele>
        <time>2018-05-26T15:59:32Z</time>
      </trkpt>
      <trkpt lat="47.82838" lon="6.83045">
        <ele>931.645935</ele>
        <time>2018-05-26T15:59:33Z</time>
      </trkpt>
      <trkpt lat="47.82847" lon="6.83051">
        <ele>930.736328</ele>
        <time>2018-05-26T15:59:34Z</time>
      </trkpt>
      <trkpt lat="47.82855" lon="6.83057">
        <ele>930.151367</ele>
        <time>2018-05-26T15:59:35Z</time>
      </trkpt>
      <trkpt lat="47.82861" lon="6.83063">
        <ele>929.374756</ele>
        <time>2018-05-26T15:59:36Z</time>
      </trkpt>
      <trkpt lat="47.82867" lon="6.83069">
        <ele>928.892639</ele>
        <time>2018-05-26T15:59:37Z</time>
      </trkpt>
      <trkpt lat="47.82874" lon="6.83077">
        <ele>928.16925</ele>
        <time>2018-05-26T15:59:38Z</time>
      </trkpt>
      <trkpt lat="47.82881" lon="6.83085">
        <ele>927.705994</ele>
        <time>2018-05-26T15:59:39Z</time>
      </trkpt>
      <trkpt lat="47.82887" lon="6.83093">
        <ele>927.050232</ele>
        <time>2018-05-26T15:59:40Z</time>
      </trkpt>
      <trkpt lat="47.82892" lon="6.83098">
        <ele>926.622375</ele>
        <time>2018-05-26T15:59:41Z</time>
      </trkpt>
      <trkpt lat="47.82901" lon="6.83094">
        <ele>926.012024</ele>
        <time>2018-05-26T15:59:42Z</time>
      </trkpt>
      <trkpt lat="47.82908" lon="6.83094">
        <ele>925.623108</ele>
        <time>2018-05-26T15:59:43Z</time>
      </trkpt>
      <trkpt lat="47.82915" lon="6.83092">
        <ele>925.245117</ele>
        <time>2018-05-26T15:59:44Z</time>
      </trkpt>
      <trkpt lat="47.82923" lon="6.83089">
        <ele>924.641663</ele>
        <time>2018-05-26T15:59:45Z</time>
      </trkpt>
      <trkpt lat="47.82932" lon="6.83085">
        <ele>924.210938</ele>
        <time>2018-05-26T15:59:46Z</time>
      </trkpt>
      <trkpt lat="47.8294" lon="6.83082">
        <ele>923.520264</ele>
        <time>2018-05-26T15:59:47Z</time>
      </trkpt>
      <trkpt lat="47.82949" lon="6.83079">
        <ele>923.2854</ele>
        <time>2018-05-26T15:59:48Z</time>
      </trkpt>
      <trkpt lat="47.82959" lon="6.83079">
        <ele>923.2854</ele>
        <time>2018-05-26T15:59:49Z</time>
      </trkpt>
      <trkpt lat="47.82967" lon="6.8308">
        <ele>922.576965</ele>
        <time>2018-05-26T15:59:50Z</time>
      </trkpt>
      <trkpt lat="47.82972" lon="6.83081">
        <ele>922.100647</ele>
        <time>2018-05-26T15:59:51Z</time>
      </trkpt>
      <trkpt lat="47.82978" lon="6.83082">
        <ele>921.602966</ele>
        <time>2018-05-26T15:59:52Z</time>
      </trkpt>
      <trkpt lat="47.82984" lon="6.8308">
        <ele>920.812012</ele>
        <time>2018-05-26T15:59:53Z</time>
      </trkpt>
      <trkpt lat="47.82989" lon="6.83074">
        <ele>920.272766</ele>
        <time>2018-05-26T15:59:54Z</time>
      </trkpt>
      <trkpt lat="47.82991" lon="6.83069">
        <ele>919.47113</ele>
        <time>2018-05-26T15:59:55Z</time>
      </trkpt>
      <trkpt lat="47.8299" lon="6.83062">
        <ele>918.953125</ele>
        <time>2018-05-26T15:59:56Z</time>
      </trkpt>
      <trkpt lat="47.82988" lon="6.83056">
        <ele>918.20282</ele>
        <time>2018-05-26T15:59:57Z</time>
      </trkpt>
      <trkpt lat="47.82985" lon="6.83049">
        <ele>917.747864</ele>
        <time>2018-05-26T15:59:58Z</time>
      </trkpt>
      <trkpt lat="47.82982" lon="6.83044">
        <ele>917.356689</ele>
        <time>2018-05-26T15:59:59Z</time>
      </trkpt>
      <trkpt lat="47.82978" lon="6.83039">
        <ele>916.88092</ele>
        <time>2018-05-26T16:00:00Z</time>
      </trkpt>
      <trkpt lat="47.82975" lon="6.83034">
        <ele>916.613037</ele>
        <time>2018-05-26T16:00:01Z</time>
      </trkpt>
      <trkpt lat="47.8297" lon="6.8303">
        <ele>916.268982</ele>
        <time>2018-05-26T16:00:02Z</time>
      </trkpt>
      <trkpt lat="47.82966" lon="6.83025">
        <ele>916.082336</ele>
        <time>2018-05-26T16:00:03Z</time>
      </trkpt>
      <trkpt lat="47.82962" lon="6.8302">
        <ele>915.8526</ele>
        <time>2018-05-26T16:00:04Z</time>
      </trkpt>
      <trkpt lat="47.82959" lon="6.83014">
        <ele>915.724609</ele>
        <time>2018-05-26T16:00:05Z</time>
      </trkpt>
      <trkpt lat="47.82954" lon="6.83009">
        <ele>915.611633</ele>
        <time>2018-05-26T16:00:06Z</time>
      </trkpt>
      <trkpt lat="47.8295" lon="6.83003">
        <ele>915.461426</ele>
        <time>2018-05-26T16:00:07Z</time>
      </trkpt>
      <trkpt lat="47.82946" lon="6.82998">
        <ele>915.359863</ele>
        <time>2018-05-26T16:00:08Z</time>
      </trkpt>
      <trkpt lat="47.82942" lon="6.82992">
        <ele>915.16748</ele>
        <time>2018-05-26T16:00:09Z</time>
      </trkpt>
      <trkpt lat="47.82938" lon="6.82985">
        <ele>915.004456</ele>
        <time>2018-05-26T16:00:10Z</time>
      </trkpt>
      <trkpt lat="47.82935" lon="6.82977">
        <ele>914.728455</ele>
        <time>2018-05-26T16:00:11Z</time>
      </trkpt>
      <trkpt lat="47.82933" lon="6.82969">
        <ele>914.528076</ele>
        <time>2018-05-26T16:00:12Z</time>
      </trkpt>
      <trkpt lat="47.82933" lon="6.82961">
        <ele>914.202087</ele>
        <time>2018-05-26T16:00:13Z</time>
      </trkpt>
      <trkpt lat="47.82934" lon="6.82952">
        <ele>913.980042</ele>
        <time>2018-05-26T16:00:14Z</time>
      </trkpt>
      <trkpt lat="47.82936" lon="6.82944">
        <ele>913.659851</ele>
        <time>2018-05-26T16:00:15Z</time>
      </trkpt>
      <trkpt lat="47.8294" lon="6.82937">
        <ele>913.452698</ele>
        <time>2018-05-26T16:00:16Z</time>
      </trkpt>
      <trkpt lat="47.82943" lon="6.82933">
        <ele>913.249939</ele>
        <time>2018-05-26T16:00:17Z</time>
      </trkpt>
      <trkpt lat="47.82946" lon="6.82929">
        <ele>912.979492</ele>
        <time>2018-05-26T16:00:18Z</time>
      </trkpt>
      <trkpt lat="47.82949" lon="6.82924">
        <ele>912.821533</ele>
        <time>2018-05-26T16:00:19Z</time>
      </trkpt>
      <trkpt lat="47.82952" lon="6.82919">
        <ele>912.60614</ele>
        <time>2018-05-26T16:00:20Z</time>
      </trkpt>
      <trkpt lat="47.82955" lon="6.82915">
        <ele>912.468567</ele>
        <time>2018-05-26T16:00:21Z</time>
      </trkpt>
      <trkpt lat="47.82959" lon="6.82911">
        <ele>912.272949</ele>
        <time>2018-05-26T16:00:22Z</time>
      </trkpt>
      <trkpt lat="47.82962" lon="6.82908">
        <ele>912.151306</ele>
        <time>2018-05-26T16:00:23Z</time>
      </trkpt>
      <trkpt lat="47.82967" lon="6.82906">
        <ele>912.028503</ele>
        <time>2018-05-26T16:00:24Z</time>
      </trkpt>
      <trkpt lat="47.82972" lon="6.82902">
        <ele>911.81134</ele>
        <time>2018-05-26T16:00:25Z</time>
      </trkpt>
      <trkpt lat="47.82976" lon="6.82897">
        <ele>911.632996</ele>
        <time>2018-05-26T16:00:26Z</time>
      </trkpt>
      <trkpt lat="47.82982" lon="6.82894">
        <ele>911.302307</ele>
        <time>2018-05-26T16:00:27Z</time>
      </trkpt>
      <trkpt lat="47.82988" lon="6.82891">
        <ele>911.035217</ele>
        <time>2018-05-26T16:00:28Z</time>
      </trkpt>
      <trkpt lat="47.82994" lon="6.82888">
        <ele>910.576843</ele>
        <time>2018-05-26T16:00:29Z</time>
      </trkpt>
      <trkpt lat="47.83" lon="6.82887">
        <ele>910.253235</ele>
        <time>2018-05-26T16:00:30Z</time>
      </trkpt>
      <trkpt lat="47.83006" lon="6.82886">
        <ele>909.932312</ele>
        <time>2018-05-26T16:00:31Z</time>
      </trkpt>
      <trkpt lat="47.83012" lon="6.82885">
        <ele>909.459717</ele>
        <time>2018-05-26T16:00:32Z</time>
      </trkpt>
      <trkpt lat="47.8302" lon="6.82885">
        <ele>909.137207</ele>
        <time>2018-05-26T16:00:33Z</time>
      </trkpt>
      <trkpt lat="47.83027" lon="6.82885">
        <ele>908.61615</ele>
        <time>2018-05-26T16:00:34Z</time>
      </trkpt>
      <trkpt lat="47.83034" lon="6.82885">
        <ele>908.230774</ele>
        <time>2018-05-26T16:00:35Z</time>
      </trkpt>
      <trkpt lat="47.83042" lon="6.82887">
        <ele>907.825195</ele>
        <time>2018-05-26T16:00:36Z</time>
      </trkpt>
      <trkpt lat="47.83049" lon="6.82888">
        <ele>907.204285</ele>
        <time>2018-05-26T16:00:37Z</time>
      </trkpt>
      <trkpt lat="47.83057" lon="6.82889">
        <ele>906.761292</ele>
        <time>2018-05-26T16:00:38Z</time>
      </trkpt>
      <trkpt lat="47.83066" lon="6.82891">
        <ele>905.998291</ele>
        <time>2018-05-26T16:00:39Z</time>
      </trkpt>
      <trkpt lat="47.83074" lon="6.82892">
        <ele>905.430603</ele>
        <time>2018-05-26T16:00:40Z</time>
      </trkpt>
      <trkpt lat="47.83083" lon="6.82894">
        <ele>904.510681</ele>
        <time>2018-05-26T16:00:41Z</time>
      </trkpt>
      <trkpt lat="47.83092" lon="6.82896">
        <ele>903.867737</ele>
        <time>2018-05-26T16:00:42Z</time>
      </trkpt>
      <trkpt lat="47.83101" lon="6.82897">
        <ele>903.236145</ele>
        <time>2018-05-26T16:00:43Z</time>
      </trkpt>
      <trkpt lat="47.8311" lon="6.82898">
        <ele>902.347656</ele>
        <time>2018-05-26T16:00:44Z</time>
      </trkpt>
      <trkpt lat="47.83119" lon="6.82898">
        <ele>901.768372</ele>
        <time>2018-05-26T16:00:45Z</time>
      </trkpt>
      <trkpt lat="47.83128" lon="6.829">
        <ele>900.854797</ele>
        <time>2018-05-26T16:00:46Z</time>
      </trkpt>
      <trkpt lat="47.83138" lon="6.82902">
        <ele>900.213806</ele>
        <time>2018-05-26T16:00:47Z</time>
      </trkpt>
      <trkpt lat="47.83147" lon="6.82904">
        <ele>899.541565</ele>
        <time>2018-05-26T16:00:48Z</time>
      </trkpt>
      <trkpt lat="47.83155" lon="6.82906">
        <ele>898.85907</ele>
        <time>2018-05-26T16:00:49Z</time>
      </trkpt>
      <trkpt lat="47.83164" lon="6.82909">
        <ele>898.179016</ele>
        <time>2018-05-26T16:00:50Z</time>
      </trkpt>
      <trkpt lat="47.83173" lon="6.82911">
        <ele>897.215271</ele>
        <time>2018-05-26T16:00:51Z</time>
      </trkpt>
      <trkpt lat="47.83181" lon="6.82914">
        <ele>896.613464</ele>
        <time>2018-05-26T16:00:52Z</time>
      </trkpt>
      <trkpt lat="47.8319" lon="6.82917">
        <ele>895.757568</ele>
        <time>2018-05-26T16:00:53Z</time>
      </trkpt>
      <trkpt lat="47.83199" lon="6.8292">
        <ele>895.207703</ele>
        <time>2018-05-26T16:00:54Z</time>
      </trkpt>
      <trkpt lat="47.83208" lon="6.82923">
        <ele>894.388916</ele>
        <time>2018-05-26T16:00:55Z</time>
      </trkpt>
      <trkpt lat="47.83217" lon="6.82924">
        <ele>893.825684</ele>
        <time>2018-05-26T16:00:56Z</time>
      </trkpt>
      <trkpt lat="47.83225" lon="6.82926">
        <ele>893.256653</ele>
        <time>2018-05-26T16:00:57Z</time>
      </trkpt>
      <trkpt lat="47.83233" lon="6.82927">
        <ele>892.43634</ele>
        <time>2018-05-26T16:00:58Z</time>
      </trkpt>
      <trkpt lat="47.83242" lon="6.82927">
        <ele>891.916077</ele>
        <time>2018-05-26T16:00:59Z</time>
      </trkpt>
      <trkpt lat="47.83251" lon="6.82927">
        <ele>891.162354</ele>
        <time>2018-05-26T16:01:00Z</time>
      </trkpt>
      <trkpt lat="47.8326" lon="6.82925">
        <ele>890.667542</ele>
        <time>2018-05-26T16:01:01Z</time>
      </trkpt>
      <trkpt lat="47.83267" lon="6.8292">
        <ele>889.953369</ele>
        <time>2018-05-26T16:01:02Z</time>
      </trkpt>
      <trkpt lat="47.83276" lon="6.82916">
        <ele>889.500549</ele>
        <time>2018-05-26T16:01:03Z</time>
      </trkpt>
      <trkpt lat="47.83284" lon="6.82912">
        <ele>888.852356</ele>
        <time>2018-05-26T16:01:04Z</time>
      </trkpt>
      <trkpt lat="47.83293" lon="6.8291">
        <ele>888.453613</ele>
        <time>2018-05-26T16:01:05Z</time>
      </trkpt>
      <trkpt lat="47.83302" lon="6.82908">
        <ele>887.902039</ele>
        <time>2018-05-26T16:01:06Z</time>
      </trkpt>
      <trkpt lat="47.83311" lon="6.82907">
        <ele>887.52594</ele>
        <time>2018-05-26T16:01:07Z</time>
      </trkpt>
      <trkpt lat="47.8332" lon="6.82906">
        <ele>886.927307</ele>
        <time>2018-05-26T16:01:08Z</time>
      </trkpt>
      <trkpt lat="47.83329" lon="6.82906">
        <ele>886.477234</ele>
        <time>2018-05-26T16:01:09Z</time>
      </trkpt>
      <trkpt lat="47.83338" lon="6.82905">
        <ele>885.979065</ele>
        <time>2018-05-26T16:01:10Z</time>
      </trkpt>
      <trkpt lat="47.83347" lon="6.82905">
        <ele>885.113098</ele>
        <time>2018-05-26T16:01:11Z</time>
      </trkpt>
      <trkpt lat="47.83357" lon="6.82904">
        <ele>884.48175</ele>
        <time>2018-05-26T16:01:12Z</time>
      </trkpt>
      <trkpt lat="47.83366" lon="6.82904">
        <ele>883.466003</ele>
        <time>2018-05-26T16:01:13Z</time>
      </trkpt>
      <trkpt lat="47.83375" lon="6.82904">
        <ele>882.771301</ele>
        <time>2018-05-26T16:01:14Z</time>
      </trkpt>
      <trkpt lat="47.83384" lon="6.82904">
        <ele>882.084045</ele>
        <time>2018-05-26T16:01:15Z</time>
      </trkpt>
      <trkpt lat="47.83393" lon="6.82905">
        <ele>881.096863</ele>
        <time>2018-05-26T16:01:16Z</time>
      </trkpt>
      <trkpt lat="47.83402" lon="6.82907">
        <ele>880.485352</ele>
        <time>2018-05-26T16:01:17Z</time>
      </trkpt>
      <trkpt lat="47.83412" lon="6.8291">
        <ele>879.585632</ele>
        <time>2018-05-26T16:01:18Z</time>
      </trkpt>
      <trkpt lat="47.83421" lon="6.82912">
        <ele>878.962158</ele>
        <time>2018-05-26T16:01:19Z</time>
      </trkpt>
      <trkpt lat="47.83431" lon="6.82914">
        <ele>877.974304</ele>
        <time>2018-05-26T16:01:20Z</time>
      </trkpt>
      <trkpt lat="47.83439" lon="6.82917">
        <ele>877.295593</ele>
        <time>2018-05-26T16:01:21Z</time>
      </trkpt>
      <trkpt lat="47.83448" lon="6.82919">
        <ele>876.597717</ele>
        <time>2018-05-26T16:01:22Z</time>
      </trkpt>
      <trkpt lat="47.83458" lon="6.82922">
        <ele>875.51947</ele>
        <time>2018-05-26T16:01:23Z</time>
      </trkpt>
      <trkpt lat="47.83467" lon="6.82925">
        <ele>874.798645</ele>
        <time>2018-05-26T16:01:24Z</time>
      </trkpt>
      <trkpt lat="47.83476" lon="6.82931">
        <ele>873.762512</ele>
        <time>2018-05-26T16:01:25Z</time>
      </trkpt>
      <trkpt lat="47.83484" lon="6.82938">
        <ele>873.12616</ele>
        <time>2018-05-26T16:01:26Z</time>
      </trkpt>
      <trkpt lat="47.83492" lon="6.82945">
        <ele>872.520935</ele>
        <time>2018-05-26T16:01:27Z</time>
      </trkpt>
      <trkpt lat="47.83498" lon="6.82954">
        <ele>871.683044</ele>
        <time>2018-05-26T16:01:28Z</time>
      </trkpt>
      <trkpt lat="47.83504" lon="6.82962">
        <ele>871.168945</ele>
        <time>2018-05-26T16:01:29Z</time>
      </trkpt>
      <trkpt lat="47.8351" lon="6.82967">
        <ele>870.431458</ele>
        <time>2018-05-26T16:01:30Z</time>
      </trkpt>
      <trkpt lat="47.83517" lon="6.82969">
        <ele>869.952942</ele>
        <time>2018-05-26T16:01:31Z</time>
      </trkpt>
      <trkpt lat="47.83525" lon="6.82965">
        <ele>869.282654</ele>
        <time>2018-05-26T16:01:32Z</time>
      </trkpt>
      <trkpt lat="47.83532" lon="6.8296">
        <ele>868.881653</ele>
        <time>2018-05-26T16:01:33Z</time>
      </trkpt>
      <trkpt lat="47.83539" lon="6.82956">
        <ele>868.492493</ele>
        <time>2018-05-26T16:01:34Z</time>
      </trkpt>
      <trkpt lat="47.83545" lon="6.82949">
        <ele>867.947815</ele>
        <time>2018-05-26T16:01:35Z</time>
      </trkpt>
      <trkpt lat="47.8355" lon="6.8294">
        <ele>867.606262</ele>
        <time>2018-05-26T16:01:36Z</time>
      </trkpt>
      <trkpt lat="47.83554" lon="6.8293">
        <ele>867.112244</ele>
        <time>2018-05-26T16:01:37Z</time>
      </trkpt>
      <trkpt lat="47.83558" lon="6.82919">
        <ele>866.769531</ele>
        <time>2018-05-26T16:01:38Z</time>
      </trkpt>
      <trkpt lat="47.83561" lon="6.82908">
        <ele>866.403015</ele>
        <time>2018-05-26T16:01:39Z</time>
      </trkpt>
      <trkpt lat="47.83565" lon="6.82897">
        <ele>865.811096</ele>
        <time>2018-05-26T16:01:40Z</time>
      </trkpt>
      <trkpt lat="47.83568" lon="6.82886">
        <ele>865.392029</ele>
        <time>2018-05-26T16:01:41Z</time>
      </trkpt>
      <trkpt lat="47.8357" lon="6.82874">
        <ele>864.71283</ele>
        <time>2018-05-26T16:01:42Z</time>
      </trkpt>
      <trkpt lat="47.83572" lon="6.82862">
        <ele>864.210266</ele>
        <time>2018-05-26T16:01:43Z</time>
      </trkpt>
      <trkpt lat="47.83575" lon="6.82848">
        <ele>863.384583</ele>
        <time>2018-05-26T16:01:44Z</time>
      </trkpt>
      <trkpt lat="47.83576" lon="6.82834">
        <ele>862.795105</ele>
        <time>2018-05-26T16:01:45Z</time>
      </trkpt>
      <trkpt lat="47.83577" lon="6.8282">
        <ele>861.901428</ele>
        <time>2018-05-26T16:01:46Z</time>
      </trkpt>
      <trkpt lat="47.83578" lon="6.82806">
        <ele>861.315002</ele>
        <time>2018-05-26T16:01:47Z</time>
      </trkpt>
      <trkpt lat="47.83579" lon="6.82793">
        <ele>860.741272</ele>
        <time>2018-05-26T16:01:48Z</time>
      </trkpt>
      <trkpt lat="47.83579" lon="6.82779">
        <ele>860.187073</ele>
        <time>2018-05-26T16:01:49Z</time>
      </trkpt>
      <trkpt lat="47.83579" lon="6.82766">
        <ele>859.662048</ele>
        <time>2018-05-26T16:01:50Z</time>
      </trkpt>
      <trkpt lat="47.8358" lon="6.82753">
        <ele>859.168152</ele>
        <time>2018-05-26T16:01:51Z</time>
      </trkpt>
      <trkpt lat="47.8358" lon="6.82742">
        <ele>858.461975</ele>
        <time>2018-05-26T16:01:52Z</time>
      </trkpt>
      <trkpt lat="47.83581" lon="6.82732">
        <ele>857.996399</ele>
        <time>2018-05-26T16:01:53Z</time>
      </trkpt>
      <trkpt lat="47.83582" lon="6.82723">
        <ele>857.312561</ele>
        <time>2018-05-26T16:01:54Z</time>
      </trkpt>
      <trkpt lat="47.83582" lon="6.82717">
        <ele>856.881165</ele>
        <time>2018-05-26T16:01:55Z</time>
      </trkpt>
      <trkpt lat="47.83584" lon="6.82711">
        <ele>856.256287</ele>
        <time>2018-05-26T16:01:56Z</time>
      </trkpt>
      <trkpt lat="47.83585" lon="6.82706">
        <ele>855.861145</ele>
        <time>2018-05-26T16:01:57Z</time>
      </trkpt>
      <trkpt lat="47.83587" lon="6.82701">
        <ele>855.345947</ele>
        <time>2018-05-26T16:01:58Z</time>
      </trkpt>
      <trkpt lat="47.83588" lon="6.82696">
        <ele>855.074219</ele>
        <time>2018-05-26T16:01:59Z</time>
      </trkpt>
      <trkpt lat="47.8359" lon="6.82691">
        <ele>854.748474</ele>
        <time>2018-05-26T16:02:00Z</time>
      </trkpt>
      <trkpt lat="47.83592" lon="6.82686">
        <ele>854.572266</ele>
        <time>2018-05-26T16:02:01Z</time>
      </trkpt>
      <trkpt lat="47.83593" lon="6.82681">
        <ele>854.420715</ele>
        <time>2018-05-26T16:02:02Z</time>
      </trkpt>
      <trkpt lat="47.83595" lon="6.82677">
        <ele>854.219055</ele>
        <time>2018-05-26T16:02:03Z</time>
      </trkpt>
      <trkpt lat="47.83597" lon="6.82672">
        <ele>854.091858</ele>
        <time>2018-05-26T16:02:04Z</time>
      </trkpt>
      <trkpt lat="47.836" lon="6.82667">
        <ele>853.90033</ele>
        <time>2018-05-26T16:02:05Z</time>
      </trkpt>
      <trkpt lat="47.83604" lon="6.82662">
        <ele>853.766785</ele>
        <time>2018-05-26T16:02:06Z</time>
      </trkpt>
      <trkpt lat="47.83608" lon="6.82657">
        <ele>853.560608</ele>
        <time>2018-05-26T16:02:07Z</time>
      </trkpt>
      <trkpt lat="47.83613" lon="6.82654">
        <ele>853.422302</ele>
        <time>2018-05-26T16:02:08Z</time>
      </trkpt>
      <trkpt lat="47.83618" lon="6.82651">
        <ele>853.272278</ele>
        <time>2018-05-26T16:02:09Z</time>
      </trkpt>
      <trkpt lat="47.83624" lon="6.82649">
        <ele>853.014099</ele>
        <time>2018-05-26T16:02:10Z</time>
      </trkpt>
      <trkpt lat="47.8363" lon="6.82646">
        <ele>852.817932</ele>
        <time>2018-05-26T16:02:11Z</time>
      </trkpt>
      <trkpt lat="47.83636" lon="6.82644">
        <ele>852.473083</ele>
        <time>2018-05-26T16:02:12Z</time>
      </trkpt>
      <trkpt lat="47.83642" lon="6.82641">
        <ele>852.203857</ele>
        <time>2018-05-26T16:02:13Z</time>
      </trkpt>
      <trkpt lat="47.83648" lon="6.82638">
        <ele>851.752258</ele>
        <time>2018-05-26T16:02:14Z</time>
      </trkpt>
      <trkpt lat="47.83655" lon="6.82636">
        <ele>851.418884</ele>
        <time>2018-05-26T16:02:15Z</time>
      </trkpt>
      <trkpt lat="47.83662" lon="6.82634">
        <ele>851.05304</ele>
        <time>2018-05-26T16:02:16Z</time>
      </trkpt>
      <trkpt lat="47.8367" lon="6.82632">
        <ele>850.447998</ele>
        <time>2018-05-26T16:02:17Z</time>
      </trkpt>
      <trkpt lat="47.83677" lon="6.82632">
        <ele>850.01947</ele>
        <time>2018-05-26T16:02:18Z</time>
      </trkpt>
      <trkpt lat="47.83683" lon="6.82632">
        <ele>849.352722</ele>
        <time>2018-05-26T16:02:19Z</time>
      </trkpt>
      <trkpt lat="47.83688" lon="6.8263">
        <ele>848.896667</ele>
        <time>2018-05-26T16:02:20Z</time>
      </trkpt>
      <trkpt lat="47.83689" lon="6.82627">
        <ele>848.218567</ele>
        <time>2018-05-26T16:02:21Z</time>
      </trkpt>
      <trkpt lat="47.83688" lon="6.82624">
        <ele>847.79657</ele>
        <time>2018-05-26T16:02:22Z</time>
      </trkpt>
      <trkpt lat="47.83686" lon="6.82621">
        <ele>847.422546</ele>
        <time>2018-05-26T16:02:23Z</time>
      </trkpt>
      <trkpt lat="47.83683" lon="6.82618">
        <ele>846.98761</ele>
        <time>2018-05-26T16:02:24Z</time>
      </trkpt>
      <trkpt lat="47.83679" lon="6.82617">
        <ele>846.773743</ele>
        <time>2018-05-26T16:02:25Z</time>
      </trkpt>
      <trkpt lat="47.83674" lon="6.82616">
        <ele>846.540039</ele>
        <time>2018-05-26T16:02:26Z</time>
      </trkpt>
      <trkpt lat="47.83669" lon="6.82615">
        <ele>846.422791</ele>
        <time>2018-05-26T16:02:27Z</time>
      </trkpt>
      <trkpt lat="47.83664" lon="6.82615">
        <ele>846.272644</ele>
        <time>2018-05-26T16:02:28Z</time>
      </trkpt>
      <trkpt lat="47.83658" lon="6.82614">
        <ele>846.167664</ele>
        <time>2018-05-26T16:02:29Z</time>
      </trkpt>
      <trkpt lat="47.83653" lon="6.82614">
        <ele>846.046387</ele>
        <time>2018-05-26T16:02:30Z</time>
      </trkpt>
      <trkpt lat="47.83647" lon="6.82614">
        <ele>845.834412</ele>
        <time>2018-05-26T16:02:31Z</time>
      </trkpt>
      <trkpt lat="47.83641" lon="6.82615">
        <ele>845.679871</ele>
        <time>2018-05-26T16:02:32Z</time>
      </trkpt>
      <trkpt lat="47.83635" lon="6.82615">
        <ele>845.440735</ele>
        <time>2018-05-26T16:02:33Z</time>
      </trkpt>
      <trkpt lat="47.83629" lon="6.82615">
        <ele>845.27533</ele>
        <time>2018-05-26T16:02:34Z</time>
      </trkpt>
      <trkpt lat="47.83623" lon="6.82615">
        <ele>845.029724</ele>
        <time>2018-05-26T16:02:35Z</time>
      </trkpt>
      <trkpt lat="47.83617" lon="6.82616">
        <ele>844.86615</ele>
        <time>2018-05-26T16:02:36Z</time>
      </trkpt>
      <trkpt lat="47.83612" lon="6.82617">
        <ele>844.700378</ele>
        <time>2018-05-26T16:02:37Z</time>
      </trkpt>
      <trkpt lat="47.83608" lon="6.8262">
        <ele>844.456482</ele>
        <time>2018-05-26T16:02:38Z</time>
      </trkpt>
      <trkpt lat="47.83603" lon="6.82622">
        <ele>844.308594</ele>
        <time>2018-05-26T16:02:39Z</time>
      </trkpt>
      <trkpt lat="47.83598" lon="6.82625">
        <ele>844.126221</ele>
        <time>2018-05-26T16:02:40Z</time>
      </trkpt>
      <trkpt lat="47.83593" lon="6.82628">
        <ele>844.026184</ele>
        <time>2018-05-26T16:02:41Z</time>
      </trkpt>
      <trkpt lat="47.83588" lon="6.82632">
        <ele>843.928223</ele>
        <time>2018-05-26T16:02:42Z</time>
      </trkpt>
      <trkpt lat="47.83585" lon="6.82635">
        <ele>843.759583</ele>
        <time>2018-05-26T16:02:43Z</time>
      </trkpt>
      <trkpt lat="47.8358" lon="6.82638">
        <ele>843.641785</ele>
        <time>2018-05-26T16:02:44Z</time>
      </trkpt>
      <trkpt lat="47.83575" lon="6.82642">
        <ele>843.460144</ele>
        <time>2018-05-26T16:02:45Z</time>
      </trkpt>
      <trkpt lat="47.83571" lon="6.82646">
        <ele>843.328796</ele>
        <time>2018-05-26T16:02:46Z</time>
      </trkpt>
      <trkpt lat="47.83567" lon="6.82647">
        <ele>843.114319</ele>
        <time>2018-05-26T16:02:47Z</time>
      </trkpt>
      <trkpt lat="47.83564" lon="6.82646">
        <ele>842.963623</ele>
        <time>2018-05-26T16:02:48Z</time>
      </trkpt>
      <trkpt lat="47.83561" lon="6.82642">
        <ele>842.80365</ele>
        <time>2018-05-26T16:02:49Z</time>
      </trkpt>
      <trkpt lat="47.8356" lon="6.82636">
        <ele>842.719177</ele>
        <time>2018-05-26T16:02:50Z</time>
      </trkpt>
      <trkpt lat="47.83559" lon="6.8263">
        <ele>842.719177</ele>
        <time>2018-05-26T16:02:51Z</time>
      </trkpt>
      <trkpt lat="47.83562" lon="6.82622">
        <ele>842.433594</ele>
        <time>2018-05-26T16:02:52Z</time>
      </trkpt>
      <trkpt lat="47.83566" lon="6.82616">
        <ele>842.205383</ele>
        <time>2018-05-26T16:02:53Z</time>
      </trkpt>
      <trkpt lat="47.8357" lon="6.82609">
        <ele>841.776917</ele>
        <time>2018-05-26T16:02:54Z</time>
      </trkpt>
      <trkpt lat="47.83575" lon="6.82603">
        <ele>841.41925</ele>
        <time>2018-05-26T16:02:55Z</time>
      </trkpt>
      <trkpt lat="47.83581" lon="6.82595">
        <ele>841.001953</ele>
        <time>2018-05-26T16:02:56Z</time>
      </trkpt>
      <trkpt lat="47.83586" lon="6.82585">
        <ele>840.239746</ele>
        <time>2018-05-26T16:02:57Z</time>
      </trkpt>
      <trkpt lat="47.83591" lon="6.82575">
        <ele>839.62262</ele>
        <time>2018-05-26T16:02:58Z</time>
      </trkpt>
      <trkpt lat="47.83594" lon="6.82564">
        <ele>838.55304</ele>
        <time>2018-05-26T16:02:59Z</time>
      </trkpt>
      <trkpt lat="47.83597" lon="6.82553">
        <ele>837.773376</ele>
        <time>2018-05-26T16:03:00Z</time>
      </trkpt>
      <trkpt lat="47.83599" lon="6.8254">
        <ele>836.506531</ele>
        <time>2018-05-26T16:03:01Z</time>
      </trkpt>
      <trkpt lat="47.836" lon="6.82527">
        <ele>835.60498</ele>
        <time>2018-05-26T16:03:02Z</time>
      </trkpt>
      <trkpt lat="47.836" lon="6.82514">
        <ele>834.681702</ele>
        <time>2018-05-26T16:03:03Z</time>
      </trkpt>
      <trkpt lat="47.83601" lon="6.825">
        <ele>833.283691</ele>
        <time>2018-05-26T16:03:04Z</time>
      </trkpt>
      <trkpt lat="47.83601" lon="6.82485">
        <ele>832.326904</ele>
        <time>2018-05-26T16:03:05Z</time>
      </trkpt>
      <trkpt lat="47.83601" lon="6.8247">
        <ele>830.836426</ele>
        <time>2018-05-26T16:03:06Z</time>
      </trkpt>
      <trkpt lat="47.83601" lon="6.82455">
        <ele>829.811279</ele>
        <time>2018-05-26T16:03:07Z</time>
      </trkpt>
      <trkpt lat="47.83599" lon="6.82439">
        <ele>828.201965</ele>
        <time>2018-05-26T16:03:08Z</time>
      </trkpt>
      <trkpt lat="47.83598" lon="6.82425">
        <ele>827.061523</ele>
        <time>2018-05-26T16:03:09Z</time>
      </trkpt>
      <trkpt lat="47.83597" lon="6.82411">
        <ele>825.254333</ele>
        <time>2018-05-26T16:03:10Z</time>
      </trkpt>
      <trkpt lat="47.83597" lon="6.82398">
        <ele>824.01001</ele>
        <time>2018-05-26T16:03:11Z</time>
      </trkpt>
      <trkpt lat="47.83598" lon="6.82386">
        <ele>822.173096</ele>
        <time>2018-05-26T16:03:12Z</time>
      </trkpt>
      <trkpt lat="47.83599" lon="6.82375">
        <ele>820.991455</ele>
        <time>2018-05-26T16:03:13Z</time>
      </trkpt>
      <trkpt lat="47.83601" lon="6.82363">
        <ele>819.849915</ele>
        <time>2018-05-26T16:03:14Z</time>
      </trkpt>
      <trkpt lat="47.83604" lon="6.82352">
        <ele>818.226563</ele>
        <time>2018-05-26T16:03:15Z</time>
      </trkpt>
      <trkpt lat="47.83608" lon="6.82343">
        <ele>817.195984</ele>
        <time>2018-05-26T16:03:16Z</time>
      </trkpt>
      <trkpt lat="47.83615" lon="6.82333">
        <ele>815.673096</ele>
        <time>2018-05-26T16:03:17Z</time>
      </trkpt>
      <trkpt lat="47.83622" lon="6.82323">
        <ele>814.643555</ele>
        <time>2018-05-26T16:03:18Z</time>
      </trkpt>
      <trkpt lat="47.8363" lon="6.82315">
        <ele>813.110596</ele>
        <time>2018-05-26T16:03:19Z</time>
      </trkpt>
      <trkpt lat="47.83638" lon="6.82307">
        <ele>812.12616</ele>
        <time>2018-05-26T16:03:20Z</time>
      </trkpt>
      <trkpt lat="47.83648" lon="6.82301">
        <ele>811.188232</ele>
        <time>2018-05-26T16:03:21Z</time>
      </trkpt>
      <trkpt lat="47.83657" lon="6.82295">
        <ele>809.848694</ele>
        <time>2018-05-26T16:03:22Z</time>
      </trkpt>
      <trkpt lat="47.83666" lon="6.82289">
        <ele>808.964355</ele>
        <time>2018-05-26T16:03:23Z</time>
      </trkpt>
      <trkpt lat="47.83675" lon="6.82282">
        <ele>807.564148</ele>
        <time>2018-05-26T16:03:24Z</time>
      </trkpt>
      <trkpt lat="47.83683" lon="6.82274">
        <ele>806.552063</ele>
        <time>2018-05-26T16:03:25Z</time>
      </trkpt>
      <trkpt lat="47.83692" lon="6.82267">
        <ele>804.907654</ele>
        <time>2018-05-26T16:03:26Z</time>
      </trkpt>
      <trkpt lat="47.83701" lon="6.82261">
        <ele>803.746826</ele>
        <time>2018-05-26T16:03:27Z</time>
      </trkpt>
      <trkpt lat="47.83712" lon="6.82257">
        <ele>802.579346</ele>
        <time>2018-05-26T16:03:28Z</time>
      </trkpt>
      <trkpt lat="47.83722" lon="6.82252">
        <ele>800.919922</ele>
        <time>2018-05-26T16:03:29Z</time>
      </trkpt>
      <trkpt lat="47.83732" lon="6.82248">
        <ele>799.896301</ele>
        <time>2018-05-26T16:03:30Z</time>
      </trkpt>
      <trkpt lat="47.83742" lon="6.82243">
        <ele>798.495911</ele>
        <time>2018-05-26T16:03:31Z</time>
      </trkpt>
      <trkpt lat="47.83753" lon="6.82236">
        <ele>797.630798</ele>
        <time>2018-05-26T16:03:32Z</time>
      </trkpt>
      <trkpt lat="47.83763" lon="6.82229">
        <ele>796.36322</ele>
        <time>2018-05-26T16:03:33Z</time>
      </trkpt>
      <trkpt lat="47.83773" lon="6.82223">
        <ele>795.476135</ele>
        <time>2018-05-26T16:03:34Z</time>
      </trkpt>
      <trkpt lat="47.83783" lon="6.82216">
        <ele>794.532471</ele>
        <time>2018-05-26T16:03:35Z</time>
      </trkpt>
      <trkpt lat="47.83792" lon="6.8221">
        <ele>793.01709</ele>
        <time>2018-05-26T16:03:36Z</time>
      </trkpt>
      <trkpt lat="47.83801" lon="6.82203">
        <ele>791.958496</ele>
        <time>2018-05-26T16:03:37Z</time>
      </trkpt>
      <trkpt lat="47.8381" lon="6.82196">
        <ele>790.390381</ele>
        <time>2018-05-26T16:03:38Z</time>
      </trkpt>
      <trkpt lat="47.8382" lon="6.82188">
        <ele>789.398621</ele>
        <time>2018-05-26T16:03:39Z</time>
      </trkpt>
      <trkpt lat="47.83828" lon="6.82178">
        <ele>788.458557</ele>
        <time>2018-05-26T16:03:40Z</time>
      </trkpt>
      <trkpt lat="47.83836" lon="6.82167">
        <ele>787.078857</ele>
        <time>2018-05-26T16:03:41Z</time>
      </trkpt>
      <trkpt lat="47.83844" lon="6.82157">
        <ele>786.126648</ele>
        <time>2018-05-26T16:03:42Z</time>
      </trkpt>
      <trkpt lat="47.83852" lon="6.82147">
        <ele>784.605225</ele>
        <time>2018-05-26T16:03:43Z</time>
      </trkpt>
      <trkpt lat="47.8386" lon="6.82138">
        <ele>783.535095</ele>
        <time>2018-05-26T16:03:44Z</time>
      </trkpt>
      <trkpt lat="47.83868" lon="6.82129">
        <ele>781.84552</ele>
        <time>2018-05-26T16:03:45Z</time>
      </trkpt>
      <trkpt lat="47.83876" lon="6.8212">
        <ele>780.677551</ele>
        <time>2018-05-26T16:03:46Z</time>
      </trkpt>
      <trkpt lat="47.83885" lon="6.82111">
        <ele>779.521423</ele>
        <time>2018-05-26T16:03:47Z</time>
      </trkpt>
      <trkpt lat="47.83894" lon="6.82101">
        <ele>777.846619</ele>
        <time>2018-05-26T16:03:48Z</time>
      </trkpt>
      <trkpt lat="47.83902" lon="6.8209">
        <ele>776.749329</ele>
        <time>2018-05-26T16:03:49Z</time>
      </trkpt>
      <trkpt lat="47.83911" lon="6.82081">
        <ele>775.642578</ele>
        <time>2018-05-26T16:03:50Z</time>
      </trkpt>
      <trkpt lat="47.8392" lon="6.82071">
        <ele>774.505127</ele>
        <time>2018-05-26T16:03:51Z</time>
      </trkpt>
      <trkpt lat="47.8393" lon="6.82062">
        <ele>773.333923</ele>
        <time>2018-05-26T16:03:52Z</time>
      </trkpt>
      <trkpt lat="47.8394" lon="6.82054">
        <ele>771.525574</ele>
        <time>2018-05-26T16:03:53Z</time>
      </trkpt>
      <trkpt lat="47.8395" lon="6.82046">
        <ele>770.281921</ele>
        <time>2018-05-26T16:03:54Z</time>
      </trkpt>
      <trkpt lat="47.83958" lon="6.82037">
        <ele>768.290344</ele>
        <time>2018-05-26T16:03:55Z</time>
      </trkpt>
      <trkpt lat="47.83968" lon="6.82028">
        <ele>766.883362</ele>
        <time>2018-05-26T16:03:56Z</time>
      </trkpt>
      <trkpt lat="47.83978" lon="6.82019">
        <ele>764.800476</ele>
        <time>2018-05-26T16:03:57Z</time>
      </trkpt>
      <trkpt lat="47.83987" lon="6.8201">
        <ele>763.477783</ele>
        <time>2018-05-26T16:03:58Z</time>
      </trkpt>
      <trkpt lat="47.83995" lon="6.82003">
        <ele>762.207458</ele>
        <time>2018-05-26T16:03:59Z</time>
      </trkpt>
      <trkpt lat="47.84003" lon="6.81995">
        <ele>760.416809</ele>
        <time>2018-05-26T16:04:00Z</time>
      </trkpt>
      <trkpt lat="47.84011" lon="6.81987">
        <ele>759.289612</ele>
        <time>2018-05-26T16:04:01Z</time>
      </trkpt>
      <trkpt lat="47.84019" lon="6.81979">
        <ele>757.611023</ele>
        <time>2018-05-26T16:04:02Z</time>
      </trkpt>
      <trkpt lat="47.84027" lon="6.81971">
        <ele>756.453796</ele>
        <time>2018-05-26T16:04:03Z</time>
      </trkpt>
      <trkpt lat="47.84035" lon="6.81962">
        <ele>754.664734</ele>
        <time>2018-05-26T16:04:04Z</time>
      </trkpt>
      <trkpt lat="47.84042" lon="6.81952">
        <ele>753.467468</ele>
        <time>2018-05-26T16:04:05Z</time>
      </trkpt>
      <trkpt lat="47.84048" lon="6.8194">
        <ele>751.738037</ele>
        <time>2018-05-26T16:04:06Z</time>
      </trkpt>
      <trkpt lat="47.84053" lon="6.81927">
        <ele>750.630859</ele>
        <time>2018-05-26T16:04:07Z</time>
      </trkpt>
      <trkpt lat="47.84059" lon="6.81913">
        <ele>749.540527</ele>
        <time>2018-05-26T16:04:08Z</time>
      </trkpt>
      <trkpt lat="47.84065" lon="6.81897">
        <ele>747.916809</ele>
        <time>2018-05-26T16:04:09Z</time>
      </trkpt>
      <trkpt lat="47.84071" lon="6.81882">
        <ele>746.826843</ele>
        <time>2018-05-26T16:04:10Z</time>
      </trkpt>
      <trkpt lat="47.84077" lon="6.81867">
        <ele>745.159607</ele>
        <time>2018-05-26T16:04:11Z</time>
      </trkpt>
      <trkpt lat="47.84084" lon="6.81852">
        <ele>744.028076</ele>
        <time>2018-05-26T16:04:12Z</time>
      </trkpt>
      <trkpt lat="47.8409" lon="6.81838">
        <ele>742.877136</ele>
        <time>2018-05-26T16:04:13Z</time>
      </trkpt>
      <trkpt lat="47.84096" lon="6.81824">
        <ele>741.098572</ele>
        <time>2018-05-26T16:04:14Z</time>
      </trkpt>
      <trkpt lat="47.84101" lon="6.81812">
        <ele>739.902039</ele>
        <time>2018-05-26T16:04:15Z</time>
      </trkpt>
      <trkpt lat="47.84106" lon="6.818">
        <ele>738.166809</ele>
        <time>2018-05-26T16:04:16Z</time>
      </trkpt>
      <trkpt lat="47.84111" lon="6.81789">
        <ele>737.055603</ele>
        <time>2018-05-26T16:04:17Z</time>
      </trkpt>
      <trkpt lat="47.84116" lon="6.81777">
        <ele>735.41803</ele>
        <time>2018-05-26T16:04:18Z</time>
      </trkpt>
      <trkpt lat="47.84121" lon="6.81765">
        <ele>734.324219</ele>
        <time>2018-05-26T16:04:19Z</time>
      </trkpt>
      <trkpt lat="47.84126" lon="6.81754">
        <ele>733.227844</ele>
        <time>2018-05-26T16:04:20Z</time>
      </trkpt>
      <trkpt lat="47.84132" lon="6.81744">
        <ele>731.563049</ele>
        <time>2018-05-26T16:04:21Z</time>
      </trkpt>
      <trkpt lat="47.84138" lon="6.81735">
        <ele>730.43219</ele>
        <time>2018-05-26T16:04:22Z</time>
      </trkpt>
      <trkpt lat="47.84143" lon="6.81727">
        <ele>728.683655</ele>
        <time>2018-05-26T16:04:23Z</time>
      </trkpt>
      <trkpt lat="47.8415" lon="6.81721">
        <ele>727.479797</ele>
        <time>2018-05-26T16:04:24Z</time>
      </trkpt>
      <trkpt lat="47.84158" lon="6.81716">
        <ele>726.285583</ele>
        <time>2018-05-26T16:04:25Z</time>
      </trkpt>
      <trkpt lat="47.84166" lon="6.8171">
        <ele>724.54071</ele>
        <time>2018-05-26T16:04:26Z</time>
      </trkpt>
      <trkpt lat="47.84176" lon="6.81705">
        <ele>723.400452</ele>
        <time>2018-05-26T16:04:27Z</time>
      </trkpt>
      <trkpt lat="47.84185" lon="6.81702">
        <ele>721.703186</ele>
        <time>2018-05-26T16:04:28Z</time>
      </trkpt>
      <trkpt lat="47.84195" lon="6.81697">
        <ele>720.586243</ele>
        <time>2018-05-26T16:04:29Z</time>
      </trkpt>
      <trkpt lat="47.84203" lon="6.8169">
        <ele>718.888</ele>
        <time>2018-05-26T16:04:30Z</time>
      </trkpt>
      <trkpt lat="47.84211" lon="6.81683">
        <ele>717.725525</ele>
        <time>2018-05-26T16:04:31Z</time>
      </trkpt>
      <trkpt lat="47.84219" lon="6.81673">
        <ele>716.548096</ele>
        <time>2018-05-26T16:04:32Z</time>
      </trkpt>
      <trkpt lat="47.84227" lon="6.81663">
        <ele>714.747375</ele>
        <time>2018-05-26T16:04:33Z</time>
      </trkpt>
      <trkpt lat="47.84234" lon="6.81654">
        <ele>713.5047</ele>
        <time>2018-05-26T16:04:34Z</time>
      </trkpt>
      <trkpt lat="47.8424" lon="6.81646">
        <ele>711.59259</ele>
        <time>2018-05-26T16:04:35Z</time>
      </trkpt>
      <trkpt lat="47.84245" lon="6.81639">
        <ele>710.312195</ele>
        <time>2018-05-26T16:04:36Z</time>
      </trkpt>
      <trkpt lat="47.8425" lon="6.81632">
        <ele>708.423767</ele>
        <time>2018-05-26T16:04:37Z</time>
      </trkpt>
      <trkpt lat="47.84257" lon="6.81626">
        <ele>707.23407</ele>
        <time>2018-05-26T16:04:38Z</time>
      </trkpt>
      <trkpt lat="47.84264" lon="6.81618">
        <ele>706.117859</ele>
        <time>2018-05-26T16:04:39Z</time>
      </trkpt>
      <trkpt lat="47.84272" lon="6.81609">
        <ele>704.513855</ele>
        <time>2018-05-26T16:04:40Z</time>
      </trkpt>
      <trkpt lat="47.8428" lon="6.81599">
        <ele>703.489258</ele>
        <time>2018-05-26T16:04:41Z</time>
      </trkpt>
      <trkpt lat="47.84288" lon="6.81588">
        <ele>702.000244</ele>
        <time>2018-05-26T16:04:42Z</time>
      </trkpt>
      <trkpt lat="47.84296" lon="6.81577">
        <ele>700.995667</ele>
        <time>2018-05-26T16:04:43Z</time>
      </trkpt>
      <trkpt lat="47.84304" lon="6.81565">
        <ele>699.346252</ele>
        <time>2018-05-26T16:04:44Z</time>
      </trkpt>
      <trkpt lat="47.84313" lon="6.81553">
        <ele>698.138489</ele>
        <time>2018-05-26T16:04:45Z</time>
      </trkpt>
      <trkpt lat="47.84321" lon="6.81542">
        <ele>696.211182</ele>
        <time>2018-05-26T16:04:46Z</time>
      </trkpt>
      <trkpt lat="47.8433" lon="6.81531">
        <ele>694.883728</ele>
        <time>2018-05-26T16:04:47Z</time>
      </trkpt>
      <trkpt lat="47.84337" lon="6.8152">
        <ele>692.855652</ele>
        <time>2018-05-26T16:04:48Z</time>
      </trkpt>
      <trkpt lat="47.84344" lon="6.81508">
        <ele>691.49707</ele>
        <time>2018-05-26T16:04:49Z</time>
      </trkpt>
      <trkpt lat="47.8435" lon="6.81496">
        <ele>690.131165</ele>
        <time>2018-05-26T16:04:50Z</time>
      </trkpt>
      <trkpt lat="47.84357" lon="6.81485">
        <ele>688.740784</ele>
        <time>2018-05-26T16:04:51Z</time>
      </trkpt>
      <trkpt lat="47.84364" lon="6.81474">
        <ele>687.313721</ele>
        <time>2018-05-26T16:04:52Z</time>
      </trkpt>
      <trkpt lat="47.8437" lon="6.81461">
        <ele>685.848938</ele>
        <time>2018-05-26T16:04:53Z</time>
      </trkpt>
      <trkpt lat="47.84374" lon="6.8145">
        <ele>683.620605</ele>
        <time>2018-05-26T16:04:54Z</time>
      </trkpt>
      <trkpt lat="47.84378" lon="6.8144">
        <ele>682.130798</ele>
        <time>2018-05-26T16:04:55Z</time>
      </trkpt>
      <trkpt lat="47.84383" lon="6.8143">
        <ele>679.928467</ele>
        <time>2018-05-26T16:04:56Z</time>
      </trkpt>
      <trkpt lat="47.84388" lon="6.81421">
        <ele>678.50885</ele>
        <time>2018-05-26T16:04:57Z</time>
      </trkpt>
      <trkpt lat="47.84395" lon="6.81412">
        <ele>677.158508</ele>
        <time>2018-05-26T16:04:58Z</time>
      </trkpt>
      <trkpt lat="47.84401" lon="6.81402">
        <ele>675.266907</ele>
        <time>2018-05-26T16:04:59Z</time>
      </trkpt>
      <trkpt lat="47.84408" lon="6.81394">
        <ele>674.088928</ele>
        <time>2018-05-26T16:05:00Z</time>
      </trkpt>
      <trkpt lat="47.84413" lon="6.81386">
        <ele>672.416077</ele>
        <time>2018-05-26T16:05:01Z</time>
      </trkpt>
      <trkpt lat="47.84418" lon="6.81378">
        <ele>671.350159</ele>
        <time>2018-05-26T16:05:02Z</time>
      </trkpt>
      <trkpt lat="47.84423" lon="6.81368">
        <ele>670.311707</ele>
        <time>2018-05-26T16:05:03Z</time>
      </trkpt>
      <trkpt lat="47.8443" lon="6.81359">
        <ele>668.800598</ele>
        <time>2018-05-26T16:05:04Z</time>
      </trkpt>
      <trkpt lat="47.84437" lon="6.8135">
        <ele>667.794373</ele>
        <time>2018-05-26T16:05:05Z</time>
      </trkpt>
      <trkpt lat="47.84445" lon="6.81339">
        <ele>666.202393</ele>
        <time>2018-05-26T16:05:06Z</time>
      </trkpt>
      <trkpt lat="47.84452" lon="6.81329">
        <ele>665.067444</ele>
        <time>2018-05-26T16:05:07Z</time>
      </trkpt>
      <trkpt lat="47.84459" lon="6.81319">
        <ele>663.249512</ele>
        <time>2018-05-26T16:05:08Z</time>
      </trkpt>
      <trkpt lat="47.84465" lon="6.81309">
        <ele>661.97168</ele>
        <time>2018-05-26T16:05:09Z</time>
      </trkpt>
      <trkpt lat="47.84472" lon="6.81301">
        <ele>660.010193</ele>
        <time>2018-05-26T16:05:10Z</time>
      </trkpt>
      <trkpt lat="47.84479" lon="6.81292">
        <ele>658.713074</ele>
        <time>2018-05-26T16:05:11Z</time>
      </trkpt>
      <trkpt lat="47.84486" lon="6.81284">
        <ele>657.458435</ele>
        <time>2018-05-26T16:05:12Z</time>
      </trkpt>
      <trkpt lat="47.84493" lon="6.81276">
        <ele>655.696472</ele>
        <time>2018-05-26T16:05:13Z</time>
      </trkpt>
      <trkpt lat="47.84501" lon="6.81268">
        <ele>654.582214</ele>
        <time>2018-05-26T16:05:14Z</time>
      </trkpt>
      <trkpt lat="47.84509" lon="6.81259">
        <ele>652.923706</ele>
        <time>2018-05-26T16:05:15Z</time>
      </trkpt>
      <trkpt lat="47.84517" lon="6.81249">
        <ele>651.792358</ele>
        <time>2018-05-26T16:05:16Z</time>
      </trkpt>
      <trkpt lat="47.84523" lon="6.81237">
        <ele>650.023071</ele>
        <time>2018-05-26T16:05:17Z</time>
      </trkpt>
      <trkpt lat="47.8453" lon="6.81225">
        <ele>648.779236</ele>
        <time>2018-05-26T16:05:18Z</time>
      </trkpt>
      <trkpt lat="47.84536" lon="6.81215">
        <ele>646.830811</ele>
        <time>2018-05-26T16:05:19Z</time>
      </trkpt>
      <trkpt lat="47.84541" lon="6.81205">
        <ele>645.510376</ele>
        <time>2018-05-26T16:05:20Z</time>
      </trkpt>
      <trkpt lat="47.84547" lon="6.81196">
        <ele>644.217468</ele>
        <time>2018-05-26T16:05:21Z</time>
      </trkpt>
      <trkpt lat="47.84554" lon="6.81187">
        <ele>642.384583</ele>
        <time>2018-05-26T16:05:22Z</time>
      </trkpt>
      <trkpt lat="47.84561" lon="6.81178">
        <ele>641.221375</ele>
        <time>2018-05-26T16:05:23Z</time>
      </trkpt>
      <trkpt lat="47.8457" lon="6.81168">
        <ele>639.461792</ele>
        <time>2018-05-26T16:05:24Z</time>
      </trkpt>
      <trkpt lat="47.84579" lon="6.81157">
        <ele>638.257324</ele>
        <time>2018-05-26T16:05:25Z</time>
      </trkpt>
      <trkpt lat="47.84588" lon="6.81146">
        <ele>636.396484</ele>
        <time>2018-05-26T16:05:26Z</time>
      </trkpt>
      <trkpt lat="47.84596" lon="6.81135">
        <ele>635.110291</ele>
        <time>2018-05-26T16:05:27Z</time>
      </trkpt>
      <trkpt lat="47.84604" lon="6.81125">
        <ele>633.137878</ele>
        <time>2018-05-26T16:05:28Z</time>
      </trkpt>
      <trkpt lat="47.84612" lon="6.81117">
        <ele>631.825256</ele>
        <time>2018-05-26T16:05:29Z</time>
      </trkpt>
      <trkpt lat="47.84619" lon="6.81109">
        <ele>630.532593</ele>
        <time>2018-05-26T16:05:30Z</time>
      </trkpt>
      <trkpt lat="47.84627" lon="6.81099">
        <ele>628.624573</ele>
        <time>2018-05-26T16:05:31Z</time>
      </trkpt>
      <trkpt lat="47.84634" lon="6.81089">
        <ele>627.366516</ele>
        <time>2018-05-26T16:05:32Z</time>
      </trkpt>
      <trkpt lat="47.84641" lon="6.81082">
        <ele>625.471191</ele>
        <time>2018-05-26T16:05:33Z</time>
      </trkpt>
      <trkpt lat="47.84649" lon="6.81077">
        <ele>624.207336</ele>
        <time>2018-05-26T16:05:34Z</time>
      </trkpt>
      <trkpt lat="47.84657" lon="6.81071">
        <ele>622.956177</ele>
        <time>2018-05-26T16:05:35Z</time>
      </trkpt>
      <trkpt lat="47.84666" lon="6.81066">
        <ele>621.085632</ele>
        <time>2018-05-26T16:05:36Z</time>
      </trkpt>
      <trkpt lat="47.84676" lon="6.81062">
        <ele>619.83374</ele>
        <time>2018-05-26T16:05:37Z</time>
      </trkpt>
      <trkpt lat="47.84686" lon="6.81057">
        <ele>618.013611</ele>
        <time>2018-05-26T16:05:38Z</time>
      </trkpt>
      <trkpt lat="47.84695" lon="6.81051">
        <ele>616.857727</ele>
        <time>2018-05-26T16:05:39Z</time>
      </trkpt>
      <trkpt lat="47.84705" lon="6.81045">
        <ele>615.141846</ele>
        <time>2018-05-26T16:05:40Z</time>
      </trkpt>
      <trkpt lat="47.84714" lon="6.8104">
        <ele>613.948303</ele>
        <time>2018-05-26T16:05:41Z</time>
      </trkpt>
      <trkpt lat="47.84722" lon="6.81036">
        <ele>612.716125</ele>
        <time>2018-05-26T16:05:42Z</time>
      </trkpt>
      <trkpt lat="47.84728" lon="6.81033">
        <ele>610.820251</ele>
        <time>2018-05-26T16:05:43Z</time>
      </trkpt>
      <trkpt lat="47.84732" lon="6.8103">
        <ele>609.537109</ele>
        <time>2018-05-26T16:05:44Z</time>
      </trkpt>
      <trkpt lat="47.84734" lon="6.81027">
        <ele>607.630554</ele>
        <time>2018-05-26T16:05:45Z</time>
      </trkpt>
      <trkpt lat="47.84735" lon="6.81023">
        <ele>606.441223</ele>
        <time>2018-05-26T16:05:46Z</time>
      </trkpt>
      <trkpt lat="47.84733" lon="6.81021">
        <ele>605.377014</ele>
        <time>2018-05-26T16:05:47Z</time>
      </trkpt>
      <trkpt lat="47.84729" lon="6.8102">
        <ele>604.059387</ele>
        <time>2018-05-26T16:05:48Z</time>
      </trkpt>
      <trkpt lat="47.84727" lon="6.81021">
        <ele>603.349792</ele>
        <time>2018-05-26T16:05:49Z</time>
      </trkpt>
      <trkpt lat="47.84724" lon="6.81022">
        <ele>602.495178</ele>
        <time>2018-05-26T16:05:50Z</time>
      </trkpt>
      <trkpt lat="47.84722" lon="6.81023">
        <ele>602.261841</ele>
        <time>2018-05-26T16:05:51Z</time>
      </trkpt>
      <trkpt lat="47.84718" lon="6.81023">
        <ele>602.261841</ele>
        <time>2018-05-26T16:05:52Z</time>
      </trkpt>
      <trkpt lat="47.84715" lon="6.81023">
        <ele>601.705139</ele>
        <time>2018-05-26T16:05:53Z</time>
      </trkpt>
      <trkpt lat="47.84712" lon="6.81023">
        <ele>601.440369</ele>
        <time>2018-05-26T16:05:54Z</time>
      </trkpt>
      <trkpt lat="47.8471" lon="6.81023">
        <ele>601.253479</ele>
        <time>2018-05-26T16:05:55Z</time>
      </trkpt>
      <trkpt lat="47.84707" lon="6.81022">
        <ele>601.07782</ele>
        <time>2018-05-26T16:05:56Z</time>
      </trkpt>
      <trkpt lat="47.84703" lon="6.81022">
        <ele>601.005432</ele>
        <time>2018-05-26T16:05:57Z</time>
      </trkpt>
      <trkpt lat="47.847" lon="6.81022">
        <ele>600.934509</ele>
        <time>2018-05-26T16:05:58Z</time>
      </trkpt>
      <trkpt lat="47.84697" lon="6.81021">
        <ele>600.903503</ele>
        <time>2018-05-26T16:05:59Z</time>
      </trkpt>
      <trkpt lat="47.84694" lon="6.81021">
        <ele>600.871765</ele>
        <time>2018-05-26T16:06:00Z</time>
      </trkpt>
      <trkpt lat="47.84691" lon="6.81022">
        <ele>600.853699</ele>
        <time>2018-05-26T16:06:01Z</time>
      </trkpt>
      <trkpt lat="47.84687" lon="6.81022">
        <ele>600.829285</ele>
        <time>2018-05-26T16:06:02Z</time>
      </trkpt>
      <trkpt lat="47.84684" lon="6.81023">
        <ele>600.819336</ele>
        <time>2018-05-26T16:06:03Z</time>
      </trkpt>
      <trkpt lat="47.84681" lon="6.81023">
        <ele>600.815613</ele>
        <time>2018-05-26T16:06:04Z</time>
      </trkpt>
      <trkpt lat="47.84678" lon="6.81024">
        <ele>600.815613</ele>
        <time>2018-05-26T16:06:05Z</time>
      </trkpt>
      <trkpt lat="47.84674" lon="6.81025">
        <ele>600.821777</ele>
        <time>2018-05-26T16:06:06Z</time>
      </trkpt>
      <trkpt lat="47.84671" lon="6.81025">
        <ele>600.854248</ele>
        <time>2018-05-26T16:06:07Z</time>
      </trkpt>
      <trkpt lat="47.84667" lon="6.81025">
        <ele>600.897278</ele>
        <time>2018-05-26T16:06:08Z</time>
      </trkpt>
      <trkpt lat="47.84663" lon="6.81026">
        <ele>600.974548</ele>
        <time>2018-05-26T16:06:09Z</time>
      </trkpt>
      <trkpt lat="47.8466" lon="6.81027">
        <ele>601.018982</ele>
        <time>2018-05-26T16:06:10Z</time>
      </trkpt>
      <trkpt lat="47.84656" lon="6.81027">
        <ele>601.07135</ele>
        <time>2018-05-26T16:06:11Z</time>
      </trkpt>
      <trkpt lat="47.84653" lon="6.81028">
        <ele>601.100586</ele>
        <time>2018-05-26T16:06:12Z</time>
      </trkpt>
      <trkpt lat="47.84649" lon="6.81029">
        <ele>601.135193</ele>
        <time>2018-05-26T16:06:13Z</time>
      </trkpt>
      <trkpt lat="47.84646" lon="6.81029">
        <ele>601.147644</ele>
        <time>2018-05-26T16:06:14Z</time>
      </trkpt>
      <trkpt lat="47.84642" lon="6.8103">
        <ele>601.156311</ele>
        <time>2018-05-26T16:06:15Z</time>
      </trkpt>
      <trkpt lat="47.84638" lon="6.8103">
        <ele>601.170898</ele>
        <time>2018-05-26T16:06:16Z</time>
      </trkpt>
      <trkpt lat="47.84634" lon="6.81029">
        <ele>601.203064</ele>
        <time>2018-05-26T16:06:17Z</time>
      </trkpt>
      <trkpt lat="47.8463" lon="6.81029">
        <ele>601.287415</ele>
        <time>2018-05-26T16:06:18Z</time>
      </trkpt>
      <trkpt lat="47.84626" lon="6.81029">
        <ele>601.389221</ele>
        <time>2018-05-26T16:06:19Z</time>
      </trkpt>
      <trkpt lat="47.84622" lon="6.8103">
        <ele>601.505798</ele>
        <time>2018-05-26T16:06:20Z</time>
      </trkpt>
      <trkpt lat="47.84619" lon="6.8103">
        <ele>601.552185</ele>
        <time>2018-05-26T16:06:21Z</time>
      </trkpt>
      <trkpt lat="47.84617" lon="6.8103">
        <ele>601.707336</ele>
        <time>2018-05-26T16:06:22Z</time>
      </trkpt>
      <trkpt lat="47.84614" lon="6.81032">
        <ele>601.812317</ele>
        <time>2018-05-26T16:06:23Z</time>
      </trkpt>
      <trkpt lat="47.84612" lon="6.81033">
        <ele>601.904724</ele>
        <time>2018-05-26T16:06:24Z</time>
      </trkpt>
      <trkpt lat="47.8461" lon="6.81034">
        <ele>602.016052</ele>
        <time>2018-05-26T16:06:25Z</time>
      </trkpt>
      <trkpt lat="47.84609" lon="6.81036">
        <ele>602.072266</ele>
        <time>2018-05-26T16:06:26Z</time>
      </trkpt>
      <trkpt lat="47.84609" lon="6.81037">
        <ele>602.133728</ele>
        <time>2018-05-26T16:06:27Z</time>
      </trkpt>
      <trkpt lat="47.8461" lon="6.81038">
        <ele>602.155457</ele>
        <time>2018-05-26T16:06:28Z</time>
      </trkpt>
      <trkpt lat="47.84612" lon="6.81038">
        <ele>602.168396</ele>
        <time>2018-05-26T16:06:29Z</time>
      </trkpt>
      <trkpt lat="47.84613" lon="6.81039">
        <ele>602.170471</ele>
        <time>2018-05-26T16:06:30Z</time>
      </trkpt>
      <trkpt lat="47.84613" lon="6.81041">
        <ele>602.184753</ele>
        <time>2018-05-26T16:06:31Z</time>
      </trkpt>
      <trkpt lat="47.84612" lon="6.81043">
        <ele>602.208435</ele>
        <time>2018-05-26T16:06:32Z</time>
      </trkpt>
      <trkpt lat="47.84611" lon="6.81044">
        <ele>602.242737</ele>
        <time>2018-05-26T16:06:33Z</time>
      </trkpt>
      <trkpt lat="47.84609" lon="6.81046">
        <ele>602.296814</ele>
        <time>2018-05-26T16:06:34Z</time>
      </trkpt>
      <trkpt lat="47.84607" lon="6.81049">
        <ele>602.330078</ele>
        <time>2018-05-26T16:06:35Z</time>
      </trkpt>
      <trkpt lat="47.84604" lon="6.8105">
        <ele>602.366699</ele>
        <time>2018-05-26T16:06:36Z</time>
      </trkpt>
      <trkpt lat="47.84602" lon="6.81051">
        <ele>602.439758</ele>
        <time>2018-05-26T16:06:37Z</time>
      </trkpt>
      <trkpt lat="47.84601" lon="6.81053">
        <ele>602.499939</ele>
        <time>2018-05-26T16:06:38Z</time>
      </trkpt>
      <trkpt lat="47.84599" lon="6.81056">
        <ele>602.601013</ele>
        <time>2018-05-26T16:06:39Z</time>
      </trkpt>
      <trkpt lat="47.84598" lon="6.81059">
        <ele>602.675598</ele>
        <time>2018-05-26T16:06:40Z</time>
      </trkpt>
      <trkpt lat="47.84596" lon="6.81061">
        <ele>602.793274</ele>
        <time>2018-05-26T16:06:41Z</time>
      </trkpt>
      <trkpt lat="47.84594" lon="6.81065">
        <ele>602.871765</ele>
        <time>2018-05-26T16:06:42Z</time>
      </trkpt>
      <trkpt lat="47.84592" lon="6.81068">
        <ele>602.945923</ele>
        <time>2018-05-26T16:06:43Z</time>
      </trkpt>
      <trkpt lat="47.84591" lon="6.8107">
        <ele>603.050537</ele>
        <time>2018-05-26T16:06:44Z</time>
      </trkpt>
      <trkpt lat="47.84589" lon="6.81073">
        <ele>603.124695</ele>
        <time>2018-05-26T16:06:45Z</time>
      </trkpt>
      <trkpt lat="47.84586" lon="6.81075">
        <ele>603.257263</ele>
        <time>2018-05-26T16:06:46Z</time>
      </trkpt>
      <trkpt lat="47.84584" lon="6.81078">
        <ele>603.358093</ele>
        <time>2018-05-26T16:06:47Z</time>
      </trkpt>
      <trkpt lat="47.84583" lon="6.81081">
        <ele>603.522644</ele>
        <time>2018-05-26T16:06:48Z</time>
      </trkpt>
      <trkpt lat="47.8458" lon="6.81084">
        <ele>603.642029</ele>
        <time>2018-05-26T16:06:49Z</time>
      </trkpt>
      <trkpt lat="47.84578" lon="6.81086">
        <ele>603.770691</ele>
        <time>2018-05-26T16:06:50Z</time>
      </trkpt>
      <trkpt lat="47.84576" lon="6.81088">
        <ele>603.977783</ele>
        <time>2018-05-26T16:06:51Z</time>
      </trkpt>
      <trkpt lat="47.84573" lon="6.81091">
        <ele>604.117188</ele>
        <time>2018-05-26T16:06:52Z</time>
      </trkpt>
      <trkpt lat="47.84571" lon="6.81093">
        <ele>604.248474</ele>
        <time>2018-05-26T16:06:53Z</time>
      </trkpt>
      <trkpt lat="47.84569" lon="6.81096">
        <ele>604.370789</ele>
        <time>2018-05-26T16:06:54Z</time>
      </trkpt>
      <trkpt lat="47.84567" lon="6.81098">
        <ele>604.552551</ele>
        <time>2018-05-26T16:06:55Z</time>
      </trkpt>
      <trkpt lat="47.84564" lon="6.811">
        <ele>604.680481</ele>
        <time>2018-05-26T16:06:56Z</time>
      </trkpt>
      <trkpt lat="47.84562" lon="6.81103">
        <ele>604.877441</ele>
        <time>2018-05-26T16:06:57Z</time>
      </trkpt>
      <trkpt lat="47.8456" lon="6.81105">
        <ele>605.005188</ele>
        <time>2018-05-26T16:06:58Z</time>
      </trkpt>
      <trkpt lat="47.84557" lon="6.81106">
        <ele>605.187561</ele>
        <time>2018-05-26T16:06:59Z</time>
      </trkpt>
      <trkpt lat="47.84554" lon="6.81108">
        <ele>605.303406</ele>
        <time>2018-05-26T16:07:00Z</time>
      </trkpt>
      <trkpt lat="47.84552" lon="6.81108">
        <ele>605.47699</ele>
        <time>2018-05-26T16:07:01Z</time>
      </trkpt>
      <trkpt lat="47.8455" lon="6.81109">
        <ele>605.588928</ele>
        <time>2018-05-26T16:07:02Z</time>
      </trkpt>
      <trkpt lat="47.84547" lon="6.8111">
        <ele>605.735779</ele>
        <time>2018-05-26T16:07:03Z</time>
      </trkpt>
      <trkpt lat="47.84546" lon="6.81111">
        <ele>605.819885</ele>
        <time>2018-05-26T16:07:04Z</time>
      </trkpt>
      <trkpt lat="47.84543" lon="6.81112">
        <ele>605.902771</ele>
        <time>2018-05-26T16:07:05Z</time>
      </trkpt>
      <trkpt lat="47.84541" lon="6.81113">
        <ele>606.031189</ele>
        <time>2018-05-26T16:07:06Z</time>
      </trkpt>
      <trkpt lat="47.84539" lon="6.81114">
        <ele>606.117737</ele>
        <time>2018-05-26T16:07:07Z</time>
      </trkpt>
      <trkpt lat="47.84537" lon="6.81116">
        <ele>606.251282</ele>
        <time>2018-05-26T16:07:08Z</time>
      </trkpt>
      <trkpt lat="47.84534" lon="6.81117">
        <ele>606.353821</ele>
        <time>2018-05-26T16:07:09Z</time>
      </trkpt>
      <trkpt lat="47.84532" lon="6.81118">
        <ele>606.528931</ele>
        <time>2018-05-26T16:07:10Z</time>
      </trkpt>
      <trkpt lat="47.8453" lon="6.81118">
        <ele>606.658203</ele>
        <time>2018-05-26T16:07:11Z</time>
      </trkpt>
      <trkpt lat="47.84528" lon="6.81119">
        <ele>606.869385</ele>
        <time>2018-05-26T16:07:12Z</time>
      </trkpt>
      <trkpt lat="47.84526" lon="6.8112">
        <ele>607.01416</ele>
        <time>2018-05-26T16:07:13Z</time>
      </trkpt>
      <trkpt lat="47.84524" lon="6.81121">
        <ele>607.155457</ele>
        <time>2018-05-26T16:07:14Z</time>
      </trkpt>
      <trkpt lat="47.84522" lon="6.81123">
        <ele>607.366699</ele>
        <time>2018-05-26T16:07:15Z</time>
      </trkpt>
      <trkpt lat="47.8452" lon="6.81124">
        <ele>607.512695</ele>
        <time>2018-05-26T16:07:16Z</time>
      </trkpt>
      <trkpt lat="47.84517" lon="6.81125">
        <ele>607.740295</ele>
        <time>2018-05-26T16:07:17Z</time>
      </trkpt>
      <trkpt lat="47.84515" lon="6.81126">
        <ele>607.895691</ele>
        <time>2018-05-26T16:07:18Z</time>
      </trkpt>
      <trkpt lat="47.84513" lon="6.81128">
        <ele>608.05072</ele>
        <time>2018-05-26T16:07:19Z</time>
      </trkpt>
      <trkpt lat="47.84512" lon="6.8113">
        <ele>608.282288</ele>
        <time>2018-05-26T16:07:20Z</time>
      </trkpt>
      <trkpt lat="47.8451" lon="6.81131">
        <ele>608.431519</ele>
        <time>2018-05-26T16:07:21Z</time>
      </trkpt>
      <trkpt lat="47.84507" lon="6.81133">
        <ele>608.642151</ele>
        <time>2018-05-26T16:07:22Z</time>
      </trkpt>
      <trkpt lat="47.84506" lon="6.81135">
        <ele>608.78186</ele>
        <time>2018-05-26T16:07:23Z</time>
      </trkpt>
      <trkpt lat="47.84504" lon="6.81137">
        <ele>608.996887</ele>
        <time>2018-05-26T16:07:24Z</time>
      </trkpt>
      <trkpt lat="47.84502" lon="6.81139">
        <ele>609.14093</ele>
        <time>2018-05-26T16:07:25Z</time>
      </trkpt>
      <trkpt lat="47.84501" lon="6.81141">
        <ele>609.279053</ele>
        <time>2018-05-26T16:07:26Z</time>
      </trkpt>
      <trkpt lat="47.84498" lon="6.81142">
        <ele>609.466858</ele>
        <time>2018-05-26T16:07:27Z</time>
      </trkpt>
      <trkpt lat="47.84497" lon="6.81144">
        <ele>609.57135</ele>
        <time>2018-05-26T16:07:28Z</time>
      </trkpt>
      <trkpt lat="47.84494" lon="6.81146">
        <ele>609.71521</ele>
        <time>2018-05-26T16:07:29Z</time>
      </trkpt>
      <trkpt lat="47.84493" lon="6.81148">
        <ele>609.812927</ele>
        <time>2018-05-26T16:07:30Z</time>
      </trkpt>
      <trkpt lat="47.84491" lon="6.81151">
        <ele>609.917664</ele>
        <time>2018-05-26T16:07:31Z</time>
      </trkpt>
      <trkpt lat="47.84489" lon="6.81153">
        <ele>610.070251</ele>
        <time>2018-05-26T16:07:32Z</time>
      </trkpt>
      <trkpt lat="47.84487" lon="6.81155">
        <ele>610.165405</ele>
        <time>2018-05-26T16:07:33Z</time>
      </trkpt>
      <trkpt lat="47.84485" lon="6.81158">
        <ele>610.301453</ele>
        <time>2018-05-26T16:07:34Z</time>
      </trkpt>
      <trkpt lat="47.84483" lon="6.8116">
        <ele>610.393433</ele>
        <time>2018-05-26T16:07:35Z</time>
      </trkpt>
      <trkpt lat="47.84481" lon="6.81162">
        <ele>610.513916</ele>
        <time>2018-05-26T16:07:36Z</time>
      </trkpt>
      <trkpt lat="47.84479" lon="6.81164">
        <ele>610.578918</ele>
        <time>2018-05-26T16:07:37Z</time>
      </trkpt>
      <trkpt lat="47.84477" lon="6.81166">
        <ele>610.635925</ele>
        <time>2018-05-26T16:07:38Z</time>
      </trkpt>
      <trkpt lat="47.84475" lon="6.81168">
        <ele>610.727478</ele>
        <time>2018-05-26T16:07:39Z</time>
      </trkpt>
      <trkpt lat="47.84472" lon="6.81169">
        <ele>610.795227</ele>
        <time>2018-05-26T16:07:40Z</time>
      </trkpt>
      <trkpt lat="47.8447" lon="6.81171">
        <ele>610.910522</ele>
        <time>2018-05-26T16:07:41Z</time>
      </trkpt>
      <trkpt lat="47.84468" lon="6.81172">
        <ele>610.993835</ele>
        <time>2018-05-26T16:07:42Z</time>
      </trkpt>
      <trkpt lat="47.84465" lon="6.81173">
        <ele>611.126953</ele>
        <time>2018-05-26T16:07:43Z</time>
      </trkpt>
      <trkpt lat="47.84463" lon="6.81175">
        <ele>611.220825</ele>
        <time>2018-05-26T16:07:44Z</time>
      </trkpt>
      <trkpt lat="47.84461" lon="6.81177">
        <ele>611.317993</ele>
        <time>2018-05-26T16:07:45Z</time>
      </trkpt>
      <trkpt lat="47.84459" lon="6.81178">
        <ele>611.476013</ele>
        <time>2018-05-26T16:07:46Z</time>
      </trkpt>
      <trkpt lat="47.84457" lon="6.81179">
        <ele>611.760376</ele>
        <time>2018-05-26T16:07:47Z</time>
      </trkpt>
      <trkpt lat="47.84455" lon="6.8118">
        <ele>611.917297</ele>
        <time>2018-05-26T16:07:49Z</time>
      </trkpt>
      <trkpt lat="47.84452" lon="6.81181">
        <ele>612.015076</ele>
        <time>2018-05-26T16:07:50Z</time>
      </trkpt>
      <trkpt lat="47.84449" lon="6.81182">
        <ele>612.112305</ele>
        <time>2018-05-26T16:07:51Z</time>
      </trkpt>
      <trkpt lat="47.84447" lon="6.81183">
        <ele>612.160156</ele>
        <time>2018-05-26T16:07:52Z</time>
      </trkpt>
      <trkpt lat="47.84444" lon="6.81185">
        <ele>612.208862</ele>
        <time>2018-05-26T16:07:53Z</time>
      </trkpt>
      <trkpt lat="47.84442" lon="6.81186">
        <ele>612.360596</ele>
        <time>2018-05-26T16:07:54Z</time>
      </trkpt>
      <trkpt lat="47.84439" lon="6.81187">
        <ele>612.462158</ele>
        <time>2018-05-26T16:07:55Z</time>
      </trkpt>
      <trkpt lat="47.84437" lon="6.81188">
        <ele>612.625366</ele>
        <time>2018-05-26T16:07:56Z</time>
      </trkpt>
      <trkpt lat="47.84435" lon="6.8119">
        <ele>612.753296</ele>
        <time>2018-05-26T16:07:57Z</time>
      </trkpt>
      <trkpt lat="47.84433" lon="6.81191">
        <ele>612.978271</ele>
        <time>2018-05-26T16:07:58Z</time>
      </trkpt>
      <trkpt lat="47.8443" lon="6.81192">
        <ele>613.142883</ele>
        <time>2018-05-26T16:07:59Z</time>
      </trkpt>
      <trkpt lat="47.84427" lon="6.81193">
        <ele>613.310608</ele>
        <time>2018-05-26T16:08:00Z</time>
      </trkpt>
      <trkpt lat="47.84425" lon="6.81195">
        <ele>613.556396</ele>
        <time>2018-05-26T16:08:01Z</time>
      </trkpt>
      <trkpt lat="47.84422" lon="6.81196">
        <ele>613.711609</ele>
        <time>2018-05-26T16:08:02Z</time>
      </trkpt>
      <trkpt lat="47.8442" lon="6.81197">
        <ele>613.933533</ele>
        <time>2018-05-26T16:08:03Z</time>
      </trkpt>
      <trkpt lat="47.84417" lon="6.81198">
        <ele>614.077332</ele>
        <time>2018-05-26T16:08:04Z</time>
      </trkpt>
      <trkpt lat="47.84414" lon="6.81199">
        <ele>614.281677</ele>
        <time>2018-05-26T16:08:05Z</time>
      </trkpt>
      <trkpt lat="47.84412" lon="6.812">
        <ele>614.407227</ele>
        <time>2018-05-26T16:08:06Z</time>
      </trkpt>
      <trkpt lat="47.84409" lon="6.81201">
        <ele>614.528381</ele>
        <time>2018-05-26T16:08:07Z</time>
      </trkpt>
      <trkpt lat="47.84406" lon="6.81202">
        <ele>614.717224</ele>
        <time>2018-05-26T16:08:08Z</time>
      </trkpt>
      <trkpt lat="47.84404" lon="6.81202">
        <ele>614.848633</ele>
        <time>2018-05-26T16:08:09Z</time>
      </trkpt>
      <trkpt lat="47.84402" lon="6.81204">
        <ele>615.050964</ele>
        <time>2018-05-26T16:08:10Z</time>
      </trkpt>
      <trkpt lat="47.844" lon="6.81205">
        <ele>615.190369</ele>
        <time>2018-05-26T16:08:11Z</time>
      </trkpt>
      <trkpt lat="47.84398" lon="6.81206">
        <ele>615.335999</ele>
        <time>2018-05-26T16:08:12Z</time>
      </trkpt>
      <trkpt lat="47.84395" lon="6.81207">
        <ele>615.561218</ele>
        <time>2018-05-26T16:08:13Z</time>
      </trkpt>
      <trkpt lat="47.84393" lon="6.81208">
        <ele>615.709778</ele>
        <time>2018-05-26T16:08:14Z</time>
      </trkpt>
      <trkpt lat="47.8439" lon="6.81209">
        <ele>615.916321</ele>
        <time>2018-05-26T16:08:15Z</time>
      </trkpt>
      <trkpt lat="47.84387" lon="6.81209">
        <ele>616.043884</ele>
        <time>2018-05-26T16:08:16Z</time>
      </trkpt>
      <trkpt lat="47.84385" lon="6.81209">
        <ele>616.222534</ele>
        <time>2018-05-26T16:08:17Z</time>
      </trkpt>
      <trkpt lat="47.84382" lon="6.81209">
        <ele>616.331055</ele>
        <time>2018-05-26T16:08:18Z</time>
      </trkpt>
      <trkpt lat="47.84379" lon="6.8121">
        <ele>616.431152</ele>
        <time>2018-05-26T16:08:19Z</time>
      </trkpt>
      <trkpt lat="47.84377" lon="6.81211">
        <ele>616.571228</ele>
        <time>2018-05-26T16:08:20Z</time>
      </trkpt>
      <trkpt lat="47.84374" lon="6.81212">
        <ele>616.66095</ele>
        <time>2018-05-26T16:08:21Z</time>
      </trkpt>
      <trkpt lat="47.84371" lon="6.81213">
        <ele>616.799194</ele>
        <time>2018-05-26T16:08:22Z</time>
      </trkpt>
      <trkpt lat="47.84369" lon="6.81215">
        <ele>616.897583</ele>
        <time>2018-05-26T16:08:23Z</time>
      </trkpt>
      <trkpt lat="47.84367" lon="6.81216">
        <ele>617.001526</ele>
        <time>2018-05-26T16:08:24Z</time>
      </trkpt>
      <trkpt lat="47.84365" lon="6.81217">
        <ele>617.17511</ele>
        <time>2018-05-26T16:08:25Z</time>
      </trkpt>
      <trkpt lat="47.84363" lon="6.81219">
        <ele>617.30481</ele>
        <time>2018-05-26T16:08:26Z</time>
      </trkpt>
      <trkpt lat="47.84361" lon="6.8122">
        <ele>617.522217</ele>
        <time>2018-05-26T16:08:27Z</time>
      </trkpt>
      <trkpt lat="47.84359" lon="6.81221">
        <ele>617.677551</ele>
        <time>2018-05-26T16:08:28Z</time>
      </trkpt>
      <trkpt lat="47.84357" lon="6.81222">
        <ele>617.90741</ele>
        <time>2018-05-26T16:08:29Z</time>
      </trkpt>
      <trkpt lat="47.84354" lon="6.81223">
        <ele>618.051331</ele>
        <time>2018-05-26T16:08:30Z</time>
      </trkpt>
      <trkpt lat="47.84353" lon="6.81224">
        <ele>618.262939</ele>
        <time>2018-05-26T16:08:31Z</time>
      </trkpt>
      <trkpt lat="47.84351" lon="6.81226">
        <ele>618.411682</ele>
        <time>2018-05-26T16:08:32Z</time>
      </trkpt>
      <trkpt lat="47.84349" lon="6.81228">
        <ele>618.569397</ele>
        <time>2018-05-26T16:08:33Z</time>
      </trkpt>
      <trkpt lat="47.84348" lon="6.81231">
        <ele>618.829895</ele>
        <time>2018-05-26T16:08:34Z</time>
      </trkpt>
      <trkpt lat="47.84346" lon="6.81233">
        <ele>619.017151</ele>
        <time>2018-05-26T16:08:35Z</time>
      </trkpt>
      <trkpt lat="47.84344" lon="6.81235">
        <ele>619.295227</ele>
        <time>2018-05-26T16:08:36Z</time>
      </trkpt>
      <trkpt lat="47.84342" lon="6.81237">
        <ele>619.554626</ele>
        <time>2018-05-26T16:08:37Z</time>
      </trkpt>
      <trkpt lat="47.8434" lon="6.8124">
        <ele>619.729797</ele>
        <time>2018-05-26T16:08:38Z</time>
      </trkpt>
      <trkpt lat="47.84338" lon="6.81243">
        <ele>619.910461</ele>
        <time>2018-05-26T16:08:39Z</time>
      </trkpt>
      <trkpt lat="47.84337" lon="6.81244">
        <ele>620.169128</ele>
        <time>2018-05-26T16:08:40Z</time>
      </trkpt>
      <trkpt lat="47.84335" lon="6.81246">
        <ele>620.32373</ele>
        <time>2018-05-26T16:08:41Z</time>
      </trkpt>
      <trkpt lat="47.84333" lon="6.81249">
        <ele>620.544861</ele>
        <time>2018-05-26T16:08:42Z</time>
      </trkpt>
      <trkpt lat="47.84331" lon="6.81251">
        <ele>620.694763</ele>
        <time>2018-05-26T16:08:43Z</time>
      </trkpt>
      <trkpt lat="47.84329" lon="6.81253">
        <ele>620.842773</ele>
        <time>2018-05-26T16:08:44Z</time>
      </trkpt>
      <trkpt lat="47.84327" lon="6.81255">
        <ele>621.055359</ele>
        <time>2018-05-26T16:08:45Z</time>
      </trkpt>
      <trkpt lat="47.84325" lon="6.81257">
        <ele>621.193542</ele>
        <time>2018-05-26T16:08:46Z</time>
      </trkpt>
      <trkpt lat="47.84324" lon="6.81259">
        <ele>621.395691</ele>
        <time>2018-05-26T16:08:47Z</time>
      </trkpt>
      <trkpt lat="47.84322" lon="6.81262">
        <ele>621.52655</ele>
        <time>2018-05-26T16:08:48Z</time>
      </trkpt>
      <trkpt lat="47.8432" lon="6.81264">
        <ele>621.716187</ele>
        <time>2018-05-26T16:08:49Z</time>
      </trkpt>
      <trkpt lat="47.84318" lon="6.81267">
        <ele>621.829529</ele>
        <time>2018-05-26T16:08:50Z</time>
      </trkpt>
      <trkpt lat="47.84316" lon="6.81269">
        <ele>621.963989</ele>
        <time>2018-05-26T16:08:51Z</time>
      </trkpt>
      <trkpt lat="47.84315" lon="6.81272">
        <ele>622.004272</ele>
        <time>2018-05-26T16:08:52Z</time>
      </trkpt>
      <trkpt lat="47.84312" lon="6.81274">
        <ele>622.130188</ele>
        <time>2018-05-26T16:08:53Z</time>
      </trkpt>
      <trkpt lat="47.84311" lon="6.81276">
        <ele>622.228699</ele>
        <time>2018-05-26T16:08:54Z</time>
      </trkpt>
      <trkpt lat="47.84309" lon="6.81279">
        <ele>622.389465</ele>
        <time>2018-05-26T16:08:55Z</time>
      </trkpt>
      <trkpt lat="47.84308" lon="6.81281">
        <ele>622.506897</ele>
        <time>2018-05-26T16:08:56Z</time>
      </trkpt>
      <trkpt lat="47.84306" lon="6.81283">
        <ele>622.708191</ele>
        <time>2018-05-26T16:08:57Z</time>
      </trkpt>
      <trkpt lat="47.84304" lon="6.81285">
        <ele>622.854248</ele>
        <time>2018-05-26T16:08:58Z</time>
      </trkpt>
      <trkpt lat="47.84302" lon="6.81288">
        <ele>622.994446</ele>
        <time>2018-05-26T16:08:59Z</time>
      </trkpt>
      <trkpt lat="47.843" lon="6.8129">
        <ele>623.178955</ele>
        <time>2018-05-26T16:09:00Z</time>
      </trkpt>
      <trkpt lat="47.84298" lon="6.81292">
        <ele>623.288086</ele>
        <time>2018-05-26T16:09:01Z</time>
      </trkpt>
      <trkpt lat="47.84296" lon="6.81294">
        <ele>623.443115</ele>
        <time>2018-05-26T16:09:02Z</time>
      </trkpt>
      <trkpt lat="47.84295" lon="6.81297">
        <ele>623.539734</ele>
        <time>2018-05-26T16:09:03Z</time>
      </trkpt>
      <trkpt lat="47.84292" lon="6.81299">
        <ele>623.676941</ele>
        <time>2018-05-26T16:09:04Z</time>
      </trkpt>
      <trkpt lat="47.8429" lon="6.81301">
        <ele>623.763245</ele>
        <time>2018-05-26T16:09:05Z</time>
      </trkpt>
      <trkpt lat="47.84288" lon="6.81304">
        <ele>623.881592</ele>
        <time>2018-05-26T16:09:06Z</time>
      </trkpt>
      <trkpt lat="47.84286" lon="6.81306">
        <ele>623.954651</ele>
        <time>2018-05-26T16:09:07Z</time>
      </trkpt>
      <trkpt lat="47.84284" lon="6.81309">
        <ele>624.027039</ele>
        <time>2018-05-26T16:09:08Z</time>
      </trkpt>
      <trkpt lat="47.84283" lon="6.81311">
        <ele>624.135559</ele>
        <time>2018-05-26T16:09:09Z</time>
      </trkpt>
      <trkpt lat="47.8428" lon="6.81313">
        <ele>624.213928</ele>
        <time>2018-05-26T16:09:10Z</time>
      </trkpt>
      <trkpt lat="47.84279" lon="6.81315">
        <ele>624.343079</ele>
        <time>2018-05-26T16:09:11Z</time>
      </trkpt>
      <trkpt lat="47.84276" lon="6.81317">
        <ele>624.428528</ele>
        <time>2018-05-26T16:09:12Z</time>
      </trkpt>
      <trkpt lat="47.84274" lon="6.8132">
        <ele>624.562561</ele>
        <time>2018-05-26T16:09:13Z</time>
      </trkpt>
      <trkpt lat="47.84272" lon="6.81322">
        <ele>624.665039</ele>
        <time>2018-05-26T16:09:14Z</time>
      </trkpt>
      <trkpt lat="47.84269" lon="6.81324">
        <ele>624.842468</ele>
        <time>2018-05-26T16:09:15Z</time>
      </trkpt>
      <trkpt lat="47.84267" lon="6.81325">
        <ele>624.9599</ele>
        <time>2018-05-26T16:09:16Z</time>
      </trkpt>
      <trkpt lat="47.84265" lon="6.81327">
        <ele>625.112366</ele>
        <time>2018-05-26T16:09:17Z</time>
      </trkpt>
      <trkpt lat="47.84263" lon="6.81328">
        <ele>625.194275</ele>
        <time>2018-05-26T16:09:18Z</time>
      </trkpt>
      <trkpt lat="47.8426" lon="6.81329">
        <ele>625.259094</ele>
        <time>2018-05-26T16:09:19Z</time>
      </trkpt>
      <trkpt lat="47.84258" lon="6.8133">
        <ele>625.326538</ele>
        <time>2018-05-26T16:09:20Z</time>
      </trkpt>
      <trkpt lat="47.84255" lon="6.81331">
        <ele>625.361145</ele>
        <time>2018-05-26T16:09:21Z</time>
      </trkpt>
      <trkpt lat="47.84253" lon="6.81332">
        <ele>625.427185</ele>
        <time>2018-05-26T16:09:22Z</time>
      </trkpt>
      <trkpt lat="47.8425" lon="6.81332">
        <ele>625.48468</ele>
        <time>2018-05-26T16:09:23Z</time>
      </trkpt>
      <trkpt lat="47.84247" lon="6.81332">
        <ele>625.595276</ele>
        <time>2018-05-26T16:09:24Z</time>
      </trkpt>
      <trkpt lat="47.84244" lon="6.81332">
        <ele>625.679382</ele>
        <time>2018-05-26T16:09:25Z</time>
      </trkpt>
      <trkpt lat="47.84241" lon="6.81331">
        <ele>625.803833</ele>
        <time>2018-05-26T16:09:26Z</time>
      </trkpt>
      <trkpt lat="47.84238" lon="6.8133">
        <ele>625.879089</ele>
        <time>2018-05-26T16:09:27Z</time>
      </trkpt>
      <trkpt lat="47.84236" lon="6.81327">
        <ele>625.939514</ele>
        <time>2018-05-26T16:09:28Z</time>
      </trkpt>
      <trkpt lat="47.84233" lon="6.81325">
        <ele>625.990295</ele>
        <time>2018-05-26T16:09:29Z</time>
      </trkpt>
      <trkpt lat="47.8423" lon="6.81322">
        <ele>625.992249</ele>
        <time>2018-05-26T16:09:30Z</time>
      </trkpt>
      <trkpt lat="47.84228" lon="6.81319">
        <ele>625.98175</ele>
        <time>2018-05-26T16:09:31Z</time>
      </trkpt>
      <trkpt lat="47.84226" lon="6.81315">
        <ele>625.957764</ele>
        <time>2018-05-26T16:09:32Z</time>
      </trkpt>
      <trkpt lat="47.84224" lon="6.81311">
        <ele>625.935059</ele>
        <time>2018-05-26T16:09:33Z</time>
      </trkpt>
      <trkpt lat="47.84222" lon="6.81307">
        <ele>625.89801</ele>
        <time>2018-05-26T16:09:34Z</time>
      </trkpt>
      <trkpt lat="47.84221" lon="6.81303">
        <ele>625.868042</ele>
        <time>2018-05-26T16:09:35Z</time>
      </trkpt>
      <trkpt lat="47.84219" lon="6.81298">
        <ele>625.826416</ele>
        <time>2018-05-26T16:09:36Z</time>
      </trkpt>
      <trkpt lat="47.84218" lon="6.81294">
        <ele>625.812317</ele>
        <time>2018-05-26T16:09:37Z</time>
      </trkpt>
      <trkpt lat="47.84216" lon="6.81289">
        <ele>625.810059</ele>
        <time>2018-05-26T16:09:38Z</time>
      </trkpt>
      <trkpt lat="47.84214" lon="6.81285">
        <ele>625.816223</ele>
        <time>2018-05-26T16:09:39Z</time>
      </trkpt>
      <trkpt lat="47.84213" lon="6.8128">
        <ele>625.833618</ele>
        <time>2018-05-26T16:09:40Z</time>
      </trkpt>
      <trkpt lat="47.84211" lon="6.81275">
        <ele>625.866882</ele>
        <time>2018-05-26T16:09:41Z</time>
      </trkpt>
      <trkpt lat="47.84209" lon="6.81271">
        <ele>625.887939</ele>
        <time>2018-05-26T16:09:42Z</time>
      </trkpt>
      <trkpt lat="47.84207" lon="6.81266">
        <ele>625.914856</ele>
        <time>2018-05-26T16:09:43Z</time>
      </trkpt>
      <trkpt lat="47.84205" lon="6.81262">
        <ele>625.92627</ele>
        <time>2018-05-26T16:09:44Z</time>
      </trkpt>
      <trkpt lat="47.84203" lon="6.81258">
        <ele>625.92804</ele>
        <time>2018-05-26T16:09:45Z</time>
      </trkpt>
      <trkpt lat="47.84201" lon="6.81254">
        <ele>625.923645</ele>
        <time>2018-05-26T16:09:46Z</time>
      </trkpt>
      <trkpt lat="47.84199" lon="6.8125">
        <ele>625.91095</ele>
        <time>2018-05-26T16:09:47Z</time>
      </trkpt>
      <trkpt lat="47.84197" lon="6.81246">
        <ele>625.88501</ele>
        <time>2018-05-26T16:09:48Z</time>
      </trkpt>
      <trkpt lat="47.84195" lon="6.81243">
        <ele>625.871094</ele>
        <time>2018-05-26T16:09:49Z</time>
      </trkpt>
      <trkpt lat="47.84192" lon="6.8124">
        <ele>625.868958</ele>
        <time>2018-05-26T16:09:50Z</time>
      </trkpt>
      <trkpt lat="47.84189" lon="6.81237">
        <ele>625.875427</ele>
        <time>2018-05-26T16:09:51Z</time>
      </trkpt>
      <trkpt lat="47.84186" lon="6.81235">
        <ele>625.899353</ele>
        <time>2018-05-26T16:09:52Z</time>
      </trkpt>
      <trkpt lat="47.84183" lon="6.81233">
        <ele>625.913696</ele>
        <time>2018-05-26T16:09:53Z</time>
      </trkpt>
      <trkpt lat="47.8418" lon="6.81231">
        <ele>625.94635</ele>
        <time>2018-05-26T16:09:54Z</time>
      </trkpt>
      <trkpt lat="47.84177" lon="6.81231">
        <ele>625.987</ele>
        <time>2018-05-26T16:09:55Z</time>
      </trkpt>
      <trkpt lat="47.84174" lon="6.8123">
        <ele>626.039124</ele>
        <time>2018-05-26T16:09:56Z</time>
      </trkpt>
      <trkpt lat="47.84171" lon="6.8123">
        <ele>626.149048</ele>
        <time>2018-05-26T16:09:57Z</time>
      </trkpt>
      <trkpt lat="47.84167" lon="6.8123">
        <ele>626.243469</ele>
        <time>2018-05-26T16:09:58Z</time>
      </trkpt>
      <trkpt lat="47.84164" lon="6.8123">
        <ele>626.40387</ele>
        <time>2018-05-26T16:09:59Z</time>
      </trkpt>
      <trkpt lat="47.84161" lon="6.81231">
        <ele>626.513123</ele>
        <time>2018-05-26T16:10:00Z</time>
      </trkpt>
      <trkpt lat="47.84159" lon="6.81231">
        <ele>626.68158</ele>
        <time>2018-05-26T16:10:01Z</time>
      </trkpt>
      <trkpt lat="47.84156" lon="6.81232">
        <ele>626.799438</ele>
        <time>2018-05-26T16:10:02Z</time>
      </trkpt>
      <trkpt lat="47.84153" lon="6.81233">
        <ele>626.980896</ele>
        <time>2018-05-26T16:10:03Z</time>
      </trkpt>
      <trkpt lat="47.8415" lon="6.81234">
        <ele>627.095764</ele>
        <time>2018-05-26T16:10:04Z</time>
      </trkpt>
      <trkpt lat="47.84148" lon="6.81234">
        <ele>627.199341</ele>
        <time>2018-05-26T16:10:05Z</time>
      </trkpt>
      <trkpt lat="47.84145" lon="6.81235">
        <ele>627.350159</ele>
        <time>2018-05-26T16:10:06Z</time>
      </trkpt>
      <trkpt lat="47.84142" lon="6.81236">
        <ele>627.450989</ele>
        <time>2018-05-26T16:10:07Z</time>
      </trkpt>
      <trkpt lat="47.8414" lon="6.81236">
        <ele>627.608154</ele>
        <time>2018-05-26T16:10:08Z</time>
      </trkpt>
      <trkpt lat="47.84137" lon="6.81237">
        <ele>627.71875</ele>
        <time>2018-05-26T16:10:09Z</time>
      </trkpt>
      <trkpt lat="47.84135" lon="6.81238">
        <ele>627.838806</ele>
        <time>2018-05-26T16:10:10Z</time>
      </trkpt>
      <trkpt lat="47.84132" lon="6.81238">
        <ele>628.02356</ele>
        <time>2018-05-26T16:10:11Z</time>
      </trkpt>
      <trkpt lat="47.84129" lon="6.81239">
        <ele>628.144653</ele>
        <time>2018-05-26T16:10:12Z</time>
      </trkpt>
      <trkpt lat="47.84126" lon="6.81239">
        <ele>628.325195</ele>
        <time>2018-05-26T16:10:13Z</time>
      </trkpt>
      <trkpt lat="47.84124" lon="6.8124">
        <ele>628.446899</ele>
        <time>2018-05-26T16:10:14Z</time>
      </trkpt>
      <trkpt lat="47.84121" lon="6.81241">
        <ele>628.624939</ele>
        <time>2018-05-26T16:10:15Z</time>
      </trkpt>
      <trkpt lat="47.84119" lon="6.81243">
        <ele>628.748108</ele>
        <time>2018-05-26T16:10:16Z</time>
      </trkpt>
      <trkpt lat="47.84116" lon="6.81243">
        <ele>628.878662</ele>
        <time>2018-05-26T16:10:17Z</time>
      </trkpt>
      <trkpt lat="47.84113" lon="6.81243">
        <ele>629.088074</ele>
        <time>2018-05-26T16:10:18Z</time>
      </trkpt>
      <trkpt lat="47.84111" lon="6.81244">
        <ele>629.223938</ele>
        <time>2018-05-26T16:10:19Z</time>
      </trkpt>
      <trkpt lat="47.84108" lon="6.81244">
        <ele>629.406982</ele>
        <time>2018-05-26T16:10:20Z</time>
      </trkpt>
      <trkpt lat="47.84106" lon="6.81245">
        <ele>629.510803</ele>
        <time>2018-05-26T16:10:21Z</time>
      </trkpt>
      <trkpt lat="47.84103" lon="6.81245">
        <ele>629.606018</ele>
        <time>2018-05-26T16:10:22Z</time>
      </trkpt>
      <trkpt lat="47.841" lon="6.81246">
        <ele>629.736023</ele>
        <time>2018-05-26T16:10:23Z</time>
      </trkpt>
      <trkpt lat="47.84097" lon="6.81246">
        <ele>629.815125</ele>
        <time>2018-05-26T16:10:24Z</time>
      </trkpt>
      <trkpt lat="47.84095" lon="6.81246">
        <ele>629.91217</ele>
        <time>2018-05-26T16:10:25Z</time>
      </trkpt>
      <trkpt lat="47.84092" lon="6.81246">
        <ele>629.963562</ele>
        <time>2018-05-26T16:10:26Z</time>
      </trkpt>
      <trkpt lat="47.84089" lon="6.81245">
        <ele>630.034485</ele>
        <time>2018-05-26T16:10:27Z</time>
      </trkpt>
      <trkpt lat="47.84087" lon="6.81245">
        <ele>630.084656</ele>
        <time>2018-05-26T16:10:28Z</time>
      </trkpt>
      <trkpt lat="47.84084" lon="6.81244">
        <ele>630.132996</ele>
        <time>2018-05-26T16:10:29Z</time>
      </trkpt>
      <trkpt lat="47.84081" lon="6.81243">
        <ele>630.194641</ele>
        <time>2018-05-26T16:10:30Z</time>
      </trkpt>
      <trkpt lat="47.84079" lon="6.81241">
        <ele>630.232666</ele>
        <time>2018-05-26T16:10:31Z</time>
      </trkpt>
      <trkpt lat="47.84077" lon="6.8124">
        <ele>630.307434</ele>
        <time>2018-05-26T16:10:32Z</time>
      </trkpt>
      <trkpt lat="47.84074" lon="6.8124">
        <ele>630.368164</ele>
        <time>2018-05-26T16:10:33Z</time>
      </trkpt>
      <trkpt lat="47.84073" lon="6.8124">
        <ele>630.457947</ele>
        <time>2018-05-26T16:10:34Z</time>
      </trkpt>
      <trkpt lat="47.84071" lon="6.8124">
        <ele>630.511169</ele>
        <time>2018-05-26T16:10:35Z</time>
      </trkpt>
      <trkpt lat="47.84069" lon="6.8124">
        <ele>630.587219</ele>
        <time>2018-05-26T16:10:36Z</time>
      </trkpt>
      <trkpt lat="47.84068" lon="6.8124">
        <ele>630.725098</ele>
        <time>2018-05-26T16:10:37Z</time>
      </trkpt>
      <trkpt lat="47.84067" lon="6.8124">
        <ele>630.867371</ele>
        <time>2018-05-26T16:10:39Z</time>
      </trkpt>
      <trkpt lat="47.84065" lon="6.81241">
        <ele>630.98175</ele>
        <time>2018-05-26T16:10:40Z</time>
      </trkpt>
      <trkpt lat="47.84063" lon="6.81241">
        <ele>631.18988</ele>
        <time>2018-05-26T16:10:41Z</time>
      </trkpt>
      <trkpt lat="47.84061" lon="6.81242">
        <ele>631.342712</ele>
        <time>2018-05-26T16:10:42Z</time>
      </trkpt>
      <trkpt lat="47.8406" lon="6.81242">
        <ele>631.582031</ele>
        <time>2018-05-26T16:10:43Z</time>
      </trkpt>
      <trkpt lat="47.84058" lon="6.81241">
        <ele>631.737976</ele>
        <time>2018-05-26T16:10:44Z</time>
      </trkpt>
      <trkpt lat="47.84056" lon="6.81241">
        <ele>631.881836</ele>
        <time>2018-05-26T16:10:45Z</time>
      </trkpt>
      <trkpt lat="47.84055" lon="6.8124">
        <ele>632.073059</ele>
        <time>2018-05-26T16:10:46Z</time>
      </trkpt>
      <trkpt lat="47.84053" lon="6.8124">
        <ele>632.201477</ele>
        <time>2018-05-26T16:10:47Z</time>
      </trkpt>
      <trkpt lat="47.84052" lon="6.81239">
        <ele>632.412964</ele>
        <time>2018-05-26T16:10:48Z</time>
      </trkpt>
      <trkpt lat="47.84051" lon="6.81238">
        <ele>632.557251</ele>
        <time>2018-05-26T16:10:49Z</time>
      </trkpt>
      <trkpt lat="47.84049" lon="6.81236">
        <ele>632.77948</ele>
        <time>2018-05-26T16:10:50Z</time>
      </trkpt>
      <trkpt lat="47.84048" lon="6.81235">
        <ele>632.940186</ele>
        <time>2018-05-26T16:10:51Z</time>
      </trkpt>
      <trkpt lat="47.84047" lon="6.81233">
        <ele>633.203674</ele>
        <time>2018-05-26T16:10:52Z</time>
      </trkpt>
      <trkpt lat="47.84046" lon="6.81231">
        <ele>633.292786</ele>
        <time>2018-05-26T16:10:53Z</time>
      </trkpt>
      <trkpt lat="47.84045" lon="6.81229">
        <ele>633.379578</ele>
        <time>2018-05-26T16:10:54Z</time>
      </trkpt>
      <trkpt lat="47.84045" lon="6.81226">
        <ele>633.622253</ele>
        <time>2018-05-26T16:10:55Z</time>
      </trkpt>
      <trkpt lat="47.84045" lon="6.81223">
        <ele>633.777527</ele>
        <time>2018-05-26T16:10:56Z</time>
      </trkpt>
      <trkpt lat="47.84046" lon="6.8122">
        <ele>634.016968</ele>
        <time>2018-05-26T16:10:57Z</time>
      </trkpt>
      <trkpt lat="47.84046" lon="6.81218">
        <ele>634.180481</ele>
        <time>2018-05-26T16:10:58Z</time>
      </trkpt>
      <trkpt lat="47.84047" lon="6.81215">
        <ele>634.434875</ele>
        <time>2018-05-26T16:10:59Z</time>
      </trkpt>
      <trkpt lat="47.84047" lon="6.81213">
        <ele>634.608215</ele>
        <time>2018-05-26T16:11:00Z</time>
      </trkpt>
      <trkpt lat="47.84049" lon="6.81211">
        <ele>634.864319</ele>
        <time>2018-05-26T16:11:01Z</time>
      </trkpt>
      <trkpt lat="47.8405" lon="6.81209">
        <ele>635.027649</ele>
        <time>2018-05-26T16:11:02Z</time>
      </trkpt>
      <trkpt lat="47.8405" lon="6.81208">
        <ele>635.421448</ele>
        <time>2018-05-26T16:11:03Z</time>
      </trkpt>
      <trkpt lat="47.84051" lon="6.81207">
        <ele>635.580505</ele>
        <time>2018-05-26T16:11:05Z</time>
      </trkpt>
      <trkpt lat="47.84052" lon="6.81205">
        <ele>635.826233</ele>
        <time>2018-05-26T16:11:06Z</time>
      </trkpt>
      <trkpt lat="47.84053" lon="6.81204">
        <ele>635.988464</ele>
        <time>2018-05-26T16:11:07Z</time>
      </trkpt>
      <trkpt lat="47.84055" lon="6.81203">
        <ele>636.474609</ele>
        <time>2018-05-26T16:11:09Z</time>
      </trkpt>
      <trkpt lat="47.84057" lon="6.81203">
        <ele>636.66394</ele>
        <time>2018-05-26T16:11:11Z</time>
      </trkpt>
      <trkpt lat="47.84058" lon="6.81203">
        <ele>636.787109</ele>
        <time>2018-05-26T16:11:12Z</time>
      </trkpt>
      <trkpt lat="47.84059" lon="6.81202">
        <ele>636.906921</ele>
        <time>2018-05-26T16:11:13Z</time>
      </trkpt>
      <trkpt lat="47.8406" lon="6.81201">
        <ele>637.10376</ele>
        <time>2018-05-26T16:11:14Z</time>
      </trkpt>
      <trkpt lat="47.84061" lon="6.81201">
        <ele>637.255066</ele>
        <time>2018-05-26T16:11:15Z</time>
      </trkpt>
      <trkpt lat="47.84063" lon="6.812">
        <ele>637.499084</ele>
        <time>2018-05-26T16:11:16Z</time>
      </trkpt>
      <trkpt lat="47.84063" lon="6.81199">
        <ele>637.652466</ele>
        <time>2018-05-26T16:11:17Z</time>
      </trkpt>
      <trkpt lat="47.84065" lon="6.81198">
        <ele>637.853271</ele>
        <time>2018-05-26T16:11:18Z</time>
      </trkpt>
      <trkpt lat="47.84066" lon="6.81197">
        <ele>637.969238</ele>
        <time>2018-05-26T16:11:19Z</time>
      </trkpt>
      <trkpt lat="47.84067" lon="6.81197">
        <ele>638.076843</ele>
        <time>2018-05-26T16:11:20Z</time>
      </trkpt>
      <trkpt lat="47.84069" lon="6.81196">
        <ele>638.220459</ele>
        <time>2018-05-26T16:11:21Z</time>
      </trkpt>
      <trkpt lat="47.84071" lon="6.81196">
        <ele>638.306458</ele>
        <time>2018-05-26T16:11:22Z</time>
      </trkpt>
      <trkpt lat="47.84073" lon="6.81196">
        <ele>638.439209</ele>
        <time>2018-05-26T16:11:23Z</time>
      </trkpt>
      <trkpt lat="47.84074" lon="6.81195">
        <ele>638.54126</ele>
        <time>2018-05-26T16:11:24Z</time>
      </trkpt>
      <trkpt lat="47.84075" lon="6.81194">
        <ele>638.656555</ele>
        <time>2018-05-26T16:11:25Z</time>
      </trkpt>
      <trkpt lat="47.84076" lon="6.81193">
        <ele>638.855652</ele>
        <time>2018-05-26T16:11:26Z</time>
      </trkpt>
      <trkpt lat="47.84077" lon="6.81192">
        <ele>639.00824</ele>
        <time>2018-05-26T16:11:27Z</time>
      </trkpt>
      <trkpt lat="47.84079" lon="6.81191">
        <ele>639.251282</ele>
        <time>2018-05-26T16:11:28Z</time>
      </trkpt>
      <trkpt lat="47.8408" lon="6.8119">
        <ele>639.408447</ele>
        <time>2018-05-26T16:11:29Z</time>
      </trkpt>
      <trkpt lat="47.84081" lon="6.81189">
        <ele>639.631104</ele>
        <time>2018-05-26T16:11:30Z</time>
      </trkpt>
      <trkpt lat="47.84082" lon="6.81188">
        <ele>639.774292</ele>
        <time>2018-05-26T16:11:31Z</time>
      </trkpt>
      <trkpt lat="47.84084" lon="6.81186">
        <ele>639.985107</ele>
        <time>2018-05-26T16:11:32Z</time>
      </trkpt>
      <trkpt lat="47.84086" lon="6.81186">
        <ele>640.118835</ele>
        <time>2018-05-26T16:11:33Z</time>
      </trkpt>
      <trkpt lat="47.84087" lon="6.81185">
        <ele>640.246826</ele>
        <time>2018-05-26T16:11:34Z</time>
      </trkpt>
      <trkpt lat="47.84088" lon="6.81186">
        <ele>640.429993</ele>
        <time>2018-05-26T16:11:35Z</time>
      </trkpt>
      <trkpt lat="47.8409" lon="6.81185">
        <ele>640.54657</ele>
        <time>2018-05-26T16:11:36Z</time>
      </trkpt>
      <trkpt lat="47.84091" lon="6.81184">
        <ele>640.716858</ele>
        <time>2018-05-26T16:11:37Z</time>
      </trkpt>
      <trkpt lat="47.84092" lon="6.81183">
        <ele>640.833191</ele>
        <time>2018-05-26T16:11:38Z</time>
      </trkpt>
      <trkpt lat="47.84094" lon="6.81182">
        <ele>641.011292</ele>
        <time>2018-05-26T16:11:39Z</time>
      </trkpt>
      <trkpt lat="47.84094" lon="6.81181">
        <ele>641.131287</ele>
        <time>2018-05-26T16:11:40Z</time>
      </trkpt>
      <trkpt lat="47.84096" lon="6.81179">
        <ele>641.317139</ele>
        <time>2018-05-26T16:11:41Z</time>
      </trkpt>
      <trkpt lat="47.84097" lon="6.81178">
        <ele>641.445984</ele>
        <time>2018-05-26T16:11:42Z</time>
      </trkpt>
      <trkpt lat="47.84098" lon="6.81177">
        <ele>641.579407</ele>
        <time>2018-05-26T16:11:43Z</time>
      </trkpt>
      <trkpt lat="47.841" lon="6.81176">
        <ele>641.780334</ele>
        <time>2018-05-26T16:11:44Z</time>
      </trkpt>
      <trkpt lat="47.84101" lon="6.81175">
        <ele>641.916565</ele>
        <time>2018-05-26T16:11:45Z</time>
      </trkpt>
      <trkpt lat="47.84102" lon="6.81174">
        <ele>642.127502</ele>
        <time>2018-05-26T16:11:46Z</time>
      </trkpt>
      <trkpt lat="47.84103" lon="6.81173">
        <ele>642.273193</ele>
        <time>2018-05-26T16:11:47Z</time>
      </trkpt>
      <trkpt lat="47.84103" lon="6.81173">
        <ele>642.49469</ele>
        <time>2018-05-26T16:11:48Z</time>
      </trkpt>
      <trkpt lat="47.84105" lon="6.81173">
        <ele>642.638733</ele>
        <time>2018-05-26T16:11:49Z</time>
      </trkpt>
      <trkpt lat="47.84106" lon="6.81172">
        <ele>642.847351</ele>
        <time>2018-05-26T16:11:50Z</time>
      </trkpt>
      <trkpt lat="47.84107" lon="6.81171">
        <ele>642.982239</ele>
        <time>2018-05-26T16:11:51Z</time>
      </trkpt>
      <trkpt lat="47.84108" lon="6.81171">
        <ele>643.108337</ele>
        <time>2018-05-26T16:11:52Z</time>
      </trkpt>
      <trkpt lat="47.84109" lon="6.8117">
        <ele>643.266907</ele>
        <time>2018-05-26T16:11:53Z</time>
      </trkpt>
      <trkpt lat="47.84109" lon="6.81168">
        <ele>643.312256</ele>
        <time>2018-05-26T16:11:54Z</time>
      </trkpt>
      <trkpt lat="47.8411" lon="6.81166">
        <ele>643.451538</ele>
        <time>2018-05-26T16:11:55Z</time>
      </trkpt>
      <trkpt lat="47.84111" lon="6.81164">
        <ele>643.558655</ele>
        <time>2018-05-26T16:11:56Z</time>
      </trkpt>
      <trkpt lat="47.84112" lon="6.81163">
        <ele>643.737061</ele>
        <time>2018-05-26T16:11:57Z</time>
      </trkpt>
      <trkpt lat="47.84113" lon="6.81162">
        <ele>643.861084</ele>
        <time>2018-05-26T16:11:58Z</time>
      </trkpt>
      <trkpt lat="47.84113" lon="6.81162">
        <ele>644.174316</ele>
        <time>2018-05-26T16:11:59Z</time>
      </trkpt>
      <trkpt lat="47.84115" lon="6.81161">
        <ele>644.295166</ele>
        <time>2018-05-26T16:12:01Z</time>
      </trkpt>
      <trkpt lat="47.84115" lon="6.8116">
        <ele>644.460754</ele>
        <time>2018-05-26T16:12:02Z</time>
      </trkpt>
      <trkpt lat="47.84116" lon="6.81158">
        <ele>644.558838</ele>
        <time>2018-05-26T16:12:03Z</time>
      </trkpt>
      <trkpt lat="47.84117" lon="6.81157">
        <ele>644.698425</ele>
        <time>2018-05-26T16:12:04Z</time>
      </trkpt>
      <trkpt lat="47.84118" lon="6.81155">
        <ele>644.798401</ele>
        <time>2018-05-26T16:12:05Z</time>
      </trkpt>
      <trkpt lat="47.84119" lon="6.81154">
        <ele>644.968079</ele>
        <time>2018-05-26T16:12:06Z</time>
      </trkpt>
      <trkpt lat="47.84121" lon="6.81154">
        <ele>645.09198</ele>
        <time>2018-05-26T16:12:07Z</time>
      </trkpt>
      <trkpt lat="47.84123" lon="6.81152">
        <ele>645.218811</ele>
        <time>2018-05-26T16:12:08Z</time>
      </trkpt>
      <trkpt lat="47.84123" lon="6.8115">
        <ele>645.418152</ele>
        <time>2018-05-26T16:12:09Z</time>
      </trkpt>
      <trkpt lat="47.84124" lon="6.81149">
        <ele>645.552551</ele>
        <time>2018-05-26T16:12:10Z</time>
      </trkpt>
      <trkpt lat="47.84126" lon="6.81147">
        <ele>645.747986</ele>
        <time>2018-05-26T16:12:11Z</time>
      </trkpt>
      <trkpt lat="47.84126" lon="6.81145">
        <ele>645.871765</ele>
        <time>2018-05-26T16:12:12Z</time>
      </trkpt>
      <trkpt lat="47.84127" lon="6.81144">
        <ele>646.055481</ele>
        <time>2018-05-26T16:12:13Z</time>
      </trkpt>
      <trkpt lat="47.84128" lon="6.81142">
        <ele>646.180115</ele>
        <time>2018-05-26T16:12:14Z</time>
      </trkpt>
      <trkpt lat="47.84129" lon="6.8114">
        <ele>646.305115</ele>
        <time>2018-05-26T16:12:15Z</time>
      </trkpt>
      <trkpt lat="47.84129" lon="6.81139">
        <ele>646.491394</ele>
        <time>2018-05-26T16:12:16Z</time>
      </trkpt>
      <trkpt lat="47.8413" lon="6.81137">
        <ele>646.612488</ele>
        <time>2018-05-26T16:12:17Z</time>
      </trkpt>
      <trkpt lat="47.84131" lon="6.81136">
        <ele>646.800598</ele>
        <time>2018-05-26T16:12:18Z</time>
      </trkpt>
      <trkpt lat="47.84132" lon="6.81134">
        <ele>646.934814</ele>
        <time>2018-05-26T16:12:19Z</time>
      </trkpt>
      <trkpt lat="47.84133" lon="6.81133">
        <ele>647.144348</ele>
        <time>2018-05-26T16:12:20Z</time>
      </trkpt>
      <trkpt lat="47.84134" lon="6.81132">
        <ele>647.28125</ele>
        <time>2018-05-26T16:12:21Z</time>
      </trkpt>
      <trkpt lat="47.84135" lon="6.81131">
        <ele>647.479004</ele>
        <time>2018-05-26T16:12:22Z</time>
      </trkpt>
      <trkpt lat="47.84136" lon="6.8113">
        <ele>647.612061</ele>
        <time>2018-05-26T16:12:23Z</time>
      </trkpt>
      <trkpt lat="47.84137" lon="6.81129">
        <ele>647.812744</ele>
        <time>2018-05-26T16:12:24Z</time>
      </trkpt>
      <trkpt lat="47.84138" lon="6.81128">
        <ele>647.934143</ele>
        <time>2018-05-26T16:12:25Z</time>
      </trkpt>
      <trkpt lat="47.84139" lon="6.81127">
        <ele>648.035583</ele>
        <time>2018-05-26T16:12:26Z</time>
      </trkpt>
      <trkpt lat="47.8414" lon="6.81126">
        <ele>648.171692</ele>
        <time>2018-05-26T16:12:27Z</time>
      </trkpt>
      <trkpt lat="47.8414" lon="6.81124">
        <ele>648.271667</ele>
        <time>2018-05-26T16:12:28Z</time>
      </trkpt>
      <trkpt lat="47.84141" lon="6.81123">
        <ele>648.450439</ele>
        <time>2018-05-26T16:12:29Z</time>
      </trkpt>
      <trkpt lat="47.84142" lon="6.81122">
        <ele>648.581726</ele>
        <time>2018-05-26T16:12:30Z</time>
      </trkpt>
      <trkpt lat="47.84143" lon="6.81121">
        <ele>648.790649</ele>
        <time>2018-05-26T16:12:31Z</time>
      </trkpt>
      <trkpt lat="47.84144" lon="6.8112">
        <ele>648.938538</ele>
        <time>2018-05-26T16:12:32Z</time>
      </trkpt>
      <trkpt lat="47.84146" lon="6.81119">
        <ele>649.164978</ele>
        <time>2018-05-26T16:12:33Z</time>
      </trkpt>
      <trkpt lat="47.84147" lon="6.81119">
        <ele>649.312256</ele>
        <time>2018-05-26T16:12:34Z</time>
      </trkpt>
      <trkpt lat="47.84148" lon="6.81117">
        <ele>649.455627</ele>
        <time>2018-05-26T16:12:35Z</time>
      </trkpt>
      <trkpt lat="47.84149" lon="6.81117">
        <ele>649.663208</ele>
        <time>2018-05-26T16:12:36Z</time>
      </trkpt>
      <trkpt lat="47.8415" lon="6.81116">
        <ele>649.801697</ele>
        <time>2018-05-26T16:12:37Z</time>
      </trkpt>
      <trkpt lat="47.84151" lon="6.81115">
        <ele>650.020752</ele>
        <time>2018-05-26T16:12:38Z</time>
      </trkpt>
      <trkpt lat="47.84152" lon="6.81114">
        <ele>650.173584</ele>
        <time>2018-05-26T16:12:39Z</time>
      </trkpt>
      <trkpt lat="47.84153" lon="6.81112">
        <ele>650.326477</ele>
        <time>2018-05-26T16:12:40Z</time>
      </trkpt>
      <trkpt lat="47.84154" lon="6.81112">
        <ele>650.547729</ele>
        <time>2018-05-26T16:12:41Z</time>
      </trkpt>
      <trkpt lat="47.84155" lon="6.81111">
        <ele>650.688782</ele>
        <time>2018-05-26T16:12:42Z</time>
      </trkpt>
      <trkpt lat="47.84156" lon="6.8111">
        <ele>650.897949</ele>
        <time>2018-05-26T16:12:43Z</time>
      </trkpt>
      <trkpt lat="47.84156" lon="6.8111">
        <ele>651.037781</ele>
        <time>2018-05-26T16:12:44Z</time>
      </trkpt>
      <trkpt lat="47.84158" lon="6.81108">
        <ele>651.175964</ele>
        <time>2018-05-26T16:12:45Z</time>
      </trkpt>
      <trkpt lat="47.84159" lon="6.81107">
        <ele>651.385498</ele>
        <time>2018-05-26T16:12:46Z</time>
      </trkpt>
      <trkpt lat="47.8416" lon="6.81105">
        <ele>651.527771</ele>
        <time>2018-05-26T16:12:47Z</time>
      </trkpt>
      <trkpt lat="47.84161" lon="6.81104">
        <ele>651.740906</ele>
        <time>2018-05-26T16:12:48Z</time>
      </trkpt>
      <trkpt lat="47.84162" lon="6.81104">
        <ele>651.879822</ele>
        <time>2018-05-26T16:12:49Z</time>
      </trkpt>
      <trkpt lat="47.84164" lon="6.81103">
        <ele>652.079529</ele>
        <time>2018-05-26T16:12:50Z</time>
      </trkpt>
      <trkpt lat="47.84164" lon="6.81101">
        <ele>652.203369</ele>
        <time>2018-05-26T16:12:51Z</time>
      </trkpt>
      <trkpt lat="47.84165" lon="6.811">
        <ele>652.331238</ele>
        <time>2018-05-26T16:12:52Z</time>
      </trkpt>
      <trkpt lat="47.84167" lon="6.81099">
        <ele>652.532288</ele>
        <time>2018-05-26T16:12:53Z</time>
      </trkpt>
      <trkpt lat="47.84168" lon="6.81098">
        <ele>652.669312</ele>
        <time>2018-05-26T16:12:54Z</time>
      </trkpt>
      <trkpt lat="47.8417" lon="6.81096">
        <ele>652.737183</ele>
        <time>2018-05-26T16:12:56Z</time>
      </trkpt>
      <trkpt lat="47.84171" lon="6.81095">
        <ele>652.804932</ele>
        <time>2018-05-26T16:12:57Z</time>
      </trkpt>
      <trkpt lat="47.84172" lon="6.81094">
        <ele>653.015442</ele>
        <time>2018-05-26T16:12:58Z</time>
      </trkpt>
      <trkpt lat="47.84172" lon="6.81093">
        <ele>653.164551</ele>
        <time>2018-05-26T16:12:59Z</time>
      </trkpt>
      <trkpt lat="47.84174" lon="6.81092">
        <ele>653.321228</ele>
        <time>2018-05-26T16:13:00Z</time>
      </trkpt>
      <trkpt lat="47.84174" lon="6.81091">
        <ele>653.555969</ele>
        <time>2018-05-26T16:13:01Z</time>
      </trkpt>
      <trkpt lat="47.84175" lon="6.81089">
        <ele>653.706604</ele>
        <time>2018-05-26T16:13:02Z</time>
      </trkpt>
      <trkpt lat="47.84176" lon="6.81088">
        <ele>653.921082</ele>
        <time>2018-05-26T16:13:03Z</time>
      </trkpt>
      <trkpt lat="47.84177" lon="6.81087">
        <ele>654.055664</ele>
        <time>2018-05-26T16:13:04Z</time>
      </trkpt>
      <trkpt lat="47.84178" lon="6.81086">
        <ele>654.247864</ele>
        <time>2018-05-26T16:13:05Z</time>
      </trkpt>
      <trkpt lat="47.84179" lon="6.81086">
        <ele>654.373169</ele>
        <time>2018-05-26T16:13:06Z</time>
      </trkpt>
      <trkpt lat="47.84179" lon="6.81084">
        <ele>654.496521</ele>
        <time>2018-05-26T16:13:07Z</time>
      </trkpt>
      <trkpt lat="47.8418" lon="6.81083">
        <ele>654.688904</ele>
        <time>2018-05-26T16:13:08Z</time>
      </trkpt>
      <trkpt lat="47.84181" lon="6.81083">
        <ele>655.05835</ele>
        <time>2018-05-26T16:13:09Z</time>
      </trkpt>
      <trkpt lat="47.84182" lon="6.81082">
        <ele>655.223389</ele>
        <time>2018-05-26T16:13:11Z</time>
      </trkpt>
      <trkpt lat="47.84183" lon="6.81081">
        <ele>655.397278</ele>
        <time>2018-05-26T16:13:12Z</time>
      </trkpt>
      <trkpt lat="47.84184" lon="6.8108">
        <ele>655.669861</ele>
        <time>2018-05-26T16:13:13Z</time>
      </trkpt>
      <trkpt lat="47.84185" lon="6.81079">
        <ele>655.848694</ele>
        <time>2018-05-26T16:13:14Z</time>
      </trkpt>
      <trkpt lat="47.84186" lon="6.81079">
        <ele>656.09967</ele>
        <time>2018-05-26T16:13:15Z</time>
      </trkpt>
      <trkpt lat="47.84188" lon="6.81078">
        <ele>656.253357</ele>
        <time>2018-05-26T16:13:16Z</time>
      </trkpt>
      <trkpt lat="47.84189" lon="6.81076">
        <ele>656.473816</ele>
        <time>2018-05-26T16:13:17Z</time>
      </trkpt>
      <trkpt lat="47.8419" lon="6.81075">
        <ele>656.618164</ele>
        <time>2018-05-26T16:13:18Z</time>
      </trkpt>
      <trkpt lat="47.84191" lon="6.81073">
        <ele>656.762024</ele>
        <time>2018-05-26T16:13:19Z</time>
      </trkpt>
      <trkpt lat="47.84192" lon="6.81071">
        <ele>656.976868</ele>
        <time>2018-05-26T16:13:20Z</time>
      </trkpt>
      <trkpt lat="47.84193" lon="6.8107">
        <ele>657.122437</ele>
        <time>2018-05-26T16:13:21Z</time>
      </trkpt>
      <trkpt lat="47.84193" lon="6.81069">
        <ele>657.34729</ele>
        <time>2018-05-26T16:13:22Z</time>
      </trkpt>
      <trkpt lat="47.84195" lon="6.81068">
        <ele>657.498901</ele>
        <time>2018-05-26T16:13:23Z</time>
      </trkpt>
      <trkpt lat="47.84196" lon="6.81067">
        <ele>657.651489</ele>
        <time>2018-05-26T16:13:24Z</time>
      </trkpt>
      <trkpt lat="47.84197" lon="6.81066">
        <ele>657.870361</ele>
        <time>2018-05-26T16:13:25Z</time>
      </trkpt>
      <trkpt lat="47.84198" lon="6.81065">
        <ele>658.005188</ele>
        <time>2018-05-26T16:13:26Z</time>
      </trkpt>
      <trkpt lat="47.84199" lon="6.81065">
        <ele>658.200439</ele>
        <time>2018-05-26T16:13:27Z</time>
      </trkpt>
      <trkpt lat="47.842" lon="6.81063">
        <ele>658.329163</ele>
        <time>2018-05-26T16:13:28Z</time>
      </trkpt>
      <trkpt lat="47.84201" lon="6.81062">
        <ele>658.523132</ele>
        <time>2018-05-26T16:13:29Z</time>
      </trkpt>
      <trkpt lat="47.84202" lon="6.8106">
        <ele>658.652161</ele>
        <time>2018-05-26T16:13:30Z</time>
      </trkpt>
      <trkpt lat="47.84203" lon="6.81059">
        <ele>658.851563</ele>
        <time>2018-05-26T16:13:31Z</time>
      </trkpt>
      <trkpt lat="47.84204" lon="6.81058">
        <ele>658.990723</ele>
        <time>2018-05-26T16:13:32Z</time>
      </trkpt>
      <trkpt lat="47.84205" lon="6.81057">
        <ele>659.133972</ele>
        <time>2018-05-26T16:13:33Z</time>
      </trkpt>
      <trkpt lat="47.84206" lon="6.81055">
        <ele>659.345459</ele>
        <time>2018-05-26T16:13:34Z</time>
      </trkpt>
      <trkpt lat="47.84207" lon="6.81054">
        <ele>659.482117</ele>
        <time>2018-05-26T16:13:35Z</time>
      </trkpt>
      <trkpt lat="47.84208" lon="6.81053">
        <ele>659.683594</ele>
        <time>2018-05-26T16:13:36Z</time>
      </trkpt>
      <trkpt lat="47.84209" lon="6.81052">
        <ele>659.821533</ele>
        <time>2018-05-26T16:13:37Z</time>
      </trkpt>
      <trkpt lat="47.8421" lon="6.81051">
        <ele>660.041992</ele>
        <time>2018-05-26T16:13:38Z</time>
      </trkpt>
      <trkpt lat="47.84211" lon="6.8105">
        <ele>660.198242</ele>
        <time>2018-05-26T16:13:39Z</time>
      </trkpt>
      <trkpt lat="47.84212" lon="6.81049">
        <ele>660.442322</ele>
        <time>2018-05-26T16:13:40Z</time>
      </trkpt>
      <trkpt lat="47.84213" lon="6.81047">
        <ele>660.608887</ele>
        <time>2018-05-26T16:13:41Z</time>
      </trkpt>
      <trkpt lat="47.84214" lon="6.81045">
        <ele>660.771606</ele>
        <time>2018-05-26T16:13:42Z</time>
      </trkpt>
      <trkpt lat="47.84214" lon="6.81043">
        <ele>660.997009</ele>
        <time>2018-05-26T16:13:43Z</time>
      </trkpt>
      <trkpt lat="47.84216" lon="6.81042">
        <ele>661.131531</ele>
        <time>2018-05-26T16:13:44Z</time>
      </trkpt>
      <trkpt lat="47.84216" lon="6.81041">
        <ele>661.317627</ele>
        <time>2018-05-26T16:13:45Z</time>
      </trkpt>
      <trkpt lat="47.84217" lon="6.8104">
        <ele>661.43573</ele>
        <time>2018-05-26T16:13:46Z</time>
      </trkpt>
      <trkpt lat="47.84218" lon="6.81038">
        <ele>661.5495</ele>
        <time>2018-05-26T16:13:47Z</time>
      </trkpt>
      <trkpt lat="47.84219" lon="6.81037">
        <ele>661.715637</ele>
        <time>2018-05-26T16:13:48Z</time>
      </trkpt>
      <trkpt lat="47.84219" lon="6.81035">
        <ele>661.821838</ele>
        <time>2018-05-26T16:13:49Z</time>
      </trkpt>
      <trkpt lat="47.8422" lon="6.81033">
        <ele>661.984375</ele>
        <time>2018-05-26T16:13:50Z</time>
      </trkpt>
      <trkpt lat="47.84221" lon="6.81032">
        <ele>662.102722</ele>
        <time>2018-05-26T16:13:51Z</time>
      </trkpt>
      <trkpt lat="47.84221" lon="6.81031">
        <ele>662.30835</ele>
        <time>2018-05-26T16:13:52Z</time>
      </trkpt>
      <trkpt lat="47.84222" lon="6.8103">
        <ele>662.463135</ele>
        <time>2018-05-26T16:13:53Z</time>
      </trkpt>
      <trkpt lat="47.84223" lon="6.81028">
        <ele>662.626526</ele>
        <time>2018-05-26T16:13:54Z</time>
      </trkpt>
      <trkpt lat="47.84224" lon="6.81027">
        <ele>662.880127</ele>
        <time>2018-05-26T16:13:55Z</time>
      </trkpt>
      <trkpt lat="47.84224" lon="6.81025">
        <ele>662.964294</ele>
        <time>2018-05-26T16:13:56Z</time>
      </trkpt>
      <trkpt lat="47.84225" lon="6.81023">
        <ele>663.04718</ele>
        <time>2018-05-26T16:13:57Z</time>
      </trkpt>
      <trkpt lat="47.84226" lon="6.81021">
        <ele>663.295837</ele>
        <time>2018-05-26T16:13:58Z</time>
      </trkpt>
      <trkpt lat="47.84227" lon="6.8102">
        <ele>663.462952</ele>
        <time>2018-05-26T16:13:59Z</time>
      </trkpt>
      <trkpt lat="47.84227" lon="6.81018">
        <ele>663.635803</ele>
        <time>2018-05-26T16:14:00Z</time>
      </trkpt>
      <trkpt lat="47.84228" lon="6.81017">
        <ele>663.905396</ele>
        <time>2018-05-26T16:14:01Z</time>
      </trkpt>
      <trkpt lat="47.84229" lon="6.81015">
        <ele>664.09729</ele>
        <time>2018-05-26T16:14:02Z</time>
      </trkpt>
      <trkpt lat="47.84229" lon="6.81013">
        <ele>664.389954</ele>
        <time>2018-05-26T16:14:03Z</time>
      </trkpt>
      <trkpt lat="47.8423" lon="6.81012">
        <ele>664.573853</ele>
        <time>2018-05-26T16:14:04Z</time>
      </trkpt>
      <trkpt lat="47.8423" lon="6.8101">
        <ele>664.81134</ele>
        <time>2018-05-26T16:14:05Z</time>
      </trkpt>
      <trkpt lat="47.84231" lon="6.81008">
        <ele>664.945313</ele>
        <time>2018-05-26T16:14:06Z</time>
      </trkpt>
      <trkpt lat="47.84232" lon="6.81007">
        <ele>665.066833</ele>
        <time>2018-05-26T16:14:07Z</time>
      </trkpt>
      <trkpt lat="47.84233" lon="6.81006">
        <ele>665.244324</ele>
        <time>2018-05-26T16:14:08Z</time>
      </trkpt>
      <trkpt lat="47.84234" lon="6.81004">
        <ele>665.36377</ele>
        <time>2018-05-26T16:14:09Z</time>
      </trkpt>
      <trkpt lat="47.84234" lon="6.81002">
        <ele>665.55304</ele>
        <time>2018-05-26T16:14:10Z</time>
      </trkpt>
      <trkpt lat="47.84235" lon="6.81">
        <ele>665.686951</ele>
        <time>2018-05-26T16:14:11Z</time>
      </trkpt>
      <trkpt lat="47.84235" lon="6.80999">
        <ele>665.895264</ele>
        <time>2018-05-26T16:14:12Z</time>
      </trkpt>
      <trkpt lat="47.84235" lon="6.80997">
        <ele>666.039734</ele>
        <time>2018-05-26T16:14:13Z</time>
      </trkpt>
      <trkpt lat="47.84235" lon="6.80995">
        <ele>666.187561</ele>
        <time>2018-05-26T16:14:14Z</time>
      </trkpt>
      <trkpt lat="47.84236" lon="6.80993">
        <ele>666.415222</ele>
        <time>2018-05-26T16:14:15Z</time>
      </trkpt>
      <trkpt lat="47.84236" lon="6.8099">
        <ele>666.565369</ele>
        <time>2018-05-26T16:14:16Z</time>
      </trkpt>
      <trkpt lat="47.84236" lon="6.80988">
        <ele>666.784912</ele>
        <time>2018-05-26T16:14:17Z</time>
      </trkpt>
      <trkpt lat="47.84236" lon="6.80986">
        <ele>666.921875</ele>
        <time>2018-05-26T16:14:18Z</time>
      </trkpt>
      <trkpt lat="47.84237" lon="6.80984">
        <ele>667.100342</ele>
        <time>2018-05-26T16:14:19Z</time>
      </trkpt>
      <trkpt lat="47.84237" lon="6.80982">
        <ele>667.202332</ele>
        <time>2018-05-26T16:14:20Z</time>
      </trkpt>
      <trkpt lat="47.84237" lon="6.8098">
        <ele>667.29657</ele>
        <time>2018-05-26T16:14:21Z</time>
      </trkpt>
      <trkpt lat="47.84237" lon="6.80978">
        <ele>667.433167</ele>
        <time>2018-05-26T16:14:22Z</time>
      </trkpt>
      <trkpt lat="47.84237" lon="6.80977">
        <ele>667.520081</ele>
        <time>2018-05-26T16:14:23Z</time>
      </trkpt>
      <trkpt lat="47.84237" lon="6.80975">
        <ele>667.658813</ele>
        <time>2018-05-26T16:14:24Z</time>
      </trkpt>
      <trkpt lat="47.84237" lon="6.80972">
        <ele>667.766174</ele>
        <time>2018-05-26T16:14:25Z</time>
      </trkpt>
      <trkpt lat="47.84237" lon="6.8097">
        <ele>667.941956</ele>
        <time>2018-05-26T16:14:26Z</time>
      </trkpt>
      <trkpt lat="47.84237" lon="6.80968">
        <ele>668.062927</ele>
        <time>2018-05-26T16:14:27Z</time>
      </trkpt>
      <trkpt lat="47.84238" lon="6.80966">
        <ele>668.247986</ele>
        <time>2018-05-26T16:14:28Z</time>
      </trkpt>
      <trkpt lat="47.84238" lon="6.80963">
        <ele>668.371765</ele>
        <time>2018-05-26T16:14:29Z</time>
      </trkpt>
      <trkpt lat="47.84238" lon="6.80961">
        <ele>668.547302</ele>
        <time>2018-05-26T16:14:30Z</time>
      </trkpt>
      <trkpt lat="47.84239" lon="6.8096">
        <ele>668.662048</ele>
        <time>2018-05-26T16:14:31Z</time>
      </trkpt>
      <trkpt lat="47.8424" lon="6.80958">
        <ele>668.845459</ele>
        <time>2018-05-26T16:14:32Z</time>
      </trkpt>
      <trkpt lat="47.8424" lon="6.80956">
        <ele>668.982727</ele>
        <time>2018-05-26T16:14:33Z</time>
      </trkpt>
      <trkpt lat="47.8424" lon="6.80955">
        <ele>669.129944</ele>
        <time>2018-05-26T16:14:34Z</time>
      </trkpt>
      <trkpt lat="47.84241" lon="6.80953">
        <ele>669.36615</ele>
        <time>2018-05-26T16:14:35Z</time>
      </trkpt>
      <trkpt lat="47.84241" lon="6.80951">
        <ele>669.526062</ele>
        <time>2018-05-26T16:14:36Z</time>
      </trkpt>
      <trkpt lat="47.84241" lon="6.80949">
        <ele>669.767151</ele>
        <time>2018-05-26T16:14:37Z</time>
      </trkpt>
      <trkpt lat="47.84242" lon="6.80947">
        <ele>669.923523</ele>
        <time>2018-05-26T16:14:38Z</time>
      </trkpt>
      <trkpt lat="47.84242" lon="6.80945">
        <ele>670.13739</ele>
        <time>2018-05-26T16:14:39Z</time>
      </trkpt>
      <trkpt lat="47.84242" lon="6.80943">
        <ele>670.260864</ele>
        <time>2018-05-26T16:14:40Z</time>
      </trkpt>
      <trkpt lat="47.84242" lon="6.8094">
        <ele>670.375183</ele>
        <time>2018-05-26T16:14:41Z</time>
      </trkpt>
      <trkpt lat="47.84242" lon="6.80938">
        <ele>670.542542</ele>
        <time>2018-05-26T16:14:42Z</time>
      </trkpt>
      <trkpt lat="47.84242" lon="6.80936">
        <ele>670.66217</ele>
        <time>2018-05-26T16:14:43Z</time>
      </trkpt>
      <trkpt lat="47.84242" lon="6.80934">
        <ele>670.859558</ele>
        <time>2018-05-26T16:14:44Z</time>
      </trkpt>
      <trkpt lat="47.84243" lon="6.80932">
        <ele>671.005554</ele>
        <time>2018-05-26T16:14:45Z</time>
      </trkpt>
      <trkpt lat="47.84243" lon="6.8093">
        <ele>671.247192</ele>
        <time>2018-05-26T16:14:46Z</time>
      </trkpt>
      <trkpt lat="47.84243" lon="6.80928">
        <ele>671.420166</ele>
        <time>2018-05-26T16:14:47Z</time>
      </trkpt>
      <trkpt lat="47.84243" lon="6.80926">
        <ele>671.682434</ele>
        <time>2018-05-26T16:14:48Z</time>
      </trkpt>
      <trkpt lat="47.84244" lon="6.80924">
        <ele>671.849426</ele>
        <time>2018-05-26T16:14:49Z</time>
      </trkpt>
      <trkpt lat="47.84244" lon="6.80922">
        <ele>672.084229</ele>
        <time>2018-05-26T16:14:50Z</time>
      </trkpt>
      <trkpt lat="47.84245" lon="6.80921">
        <ele>672.231384</ele>
        <time>2018-05-26T16:14:51Z</time>
      </trkpt>
      <trkpt lat="47.84245" lon="6.80919">
        <ele>672.373352</ele>
        <time>2018-05-26T16:14:52Z</time>
      </trkpt>
      <trkpt lat="47.84245" lon="6.80917">
        <ele>672.586243</ele>
        <time>2018-05-26T16:14:53Z</time>
      </trkpt>
      <trkpt lat="47.84246" lon="6.80915">
        <ele>672.743713</ele>
        <time>2018-05-26T16:14:54Z</time>
      </trkpt>
      <trkpt lat="47.84246" lon="6.80913">
        <ele>673.019775</ele>
        <time>2018-05-26T16:14:55Z</time>
      </trkpt>
      <trkpt lat="47.84246" lon="6.80911">
        <ele>673.221252</ele>
        <time>2018-05-26T16:14:56Z</time>
      </trkpt>
      <trkpt lat="47.84246" lon="6.80909">
        <ele>673.320496</ele>
        <time>2018-05-26T16:14:57Z</time>
      </trkpt>
      <trkpt lat="47.84245" lon="6.80908">
        <ele>673.597168</ele>
        <time>2018-05-26T16:14:58Z</time>
      </trkpt>
      <trkpt lat="47.84245" lon="6.80906">
        <ele>673.757629</ele>
        <time>2018-05-26T16:14:59Z</time>
      </trkpt>
      <trkpt lat="47.84245" lon="6.80905">
        <ele>673.977356</ele>
        <time>2018-05-26T16:15:00Z</time>
      </trkpt>
      <trkpt lat="47.84245" lon="6.80903">
        <ele>674.118164</ele>
        <time>2018-05-26T16:15:01Z</time>
      </trkpt>
      <trkpt lat="47.84245" lon="6.80901">
        <ele>674.336487</ele>
        <time>2018-05-26T16:15:02Z</time>
      </trkpt>
      <trkpt lat="47.84245" lon="6.80899">
        <ele>674.492065</ele>
        <time>2018-05-26T16:15:03Z</time>
      </trkpt>
      <trkpt lat="47.84245" lon="6.80896">
        <ele>674.663147</ele>
        <time>2018-05-26T16:15:04Z</time>
      </trkpt>
      <trkpt lat="47.84245" lon="6.80893">
        <ele>674.956116</ele>
        <time>2018-05-26T16:15:05Z</time>
      </trkpt>
      <trkpt lat="47.84244" lon="6.80891">
        <ele>675.163513</ele>
        <time>2018-05-26T16:15:06Z</time>
      </trkpt>
      <trkpt lat="47.84243" lon="6.80889">
        <ele>675.458557</ele>
        <time>2018-05-26T16:15:07Z</time>
      </trkpt>
      <trkpt lat="47.84243" lon="6.80887">
        <ele>675.625671</ele>
        <time>2018-05-26T16:15:08Z</time>
      </trkpt>
      <trkpt lat="47.84242" lon="6.80885">
        <ele>675.827454</ele>
        <time>2018-05-26T16:15:09Z</time>
      </trkpt>
      <trkpt lat="47.84242" lon="6.80883">
        <ele>675.937561</ele>
        <time>2018-05-26T16:15:10Z</time>
      </trkpt>
      <trkpt lat="47.84241" lon="6.80881">
        <ele>676.034546</ele>
        <time>2018-05-26T16:15:11Z</time>
      </trkpt>
      <trkpt lat="47.8424" lon="6.80878">
        <ele>676.167053</ele>
        <time>2018-05-26T16:15:12Z</time>
      </trkpt>
      <trkpt lat="47.8424" lon="6.80877">
        <ele>676.260071</ele>
        <time>2018-05-26T16:15:13Z</time>
      </trkpt>
      <trkpt lat="47.8424" lon="6.80875">
        <ele>676.426636</ele>
        <time>2018-05-26T16:15:14Z</time>
      </trkpt>
      <trkpt lat="47.8424" lon="6.80873">
        <ele>676.557129</ele>
        <time>2018-05-26T16:15:15Z</time>
      </trkpt>
      <trkpt lat="47.8424" lon="6.80871">
        <ele>676.778015</ele>
        <time>2018-05-26T16:15:16Z</time>
      </trkpt>
      <trkpt lat="47.8424" lon="6.80869">
        <ele>676.940613</ele>
        <time>2018-05-26T16:15:17Z</time>
      </trkpt>
      <trkpt lat="47.84239" lon="6.80867">
        <ele>677.114014</ele>
        <time>2018-05-26T16:15:18Z</time>
      </trkpt>
      <trkpt lat="47.84238" lon="6.80865">
        <ele>677.387878</ele>
        <time>2018-05-26T16:15:19Z</time>
      </trkpt>
      <trkpt lat="47.84237" lon="6.80863">
        <ele>677.572937</ele>
        <time>2018-05-26T16:15:20Z</time>
      </trkpt>
      <trkpt lat="47.84237" lon="6.80861">
        <ele>677.83905</ele>
        <time>2018-05-26T16:15:21Z</time>
      </trkpt>
      <trkpt lat="47.84237" lon="6.80859">
        <ele>678.007813</ele>
        <time>2018-05-26T16:15:22Z</time>
      </trkpt>
      <trkpt lat="47.84237" lon="6.80857">
        <ele>678.245728</ele>
        <time>2018-05-26T16:15:23Z</time>
      </trkpt>
      <trkpt lat="47.84237" lon="6.80855">
        <ele>678.396423</ele>
        <time>2018-05-26T16:15:24Z</time>
      </trkpt>
      <trkpt lat="47.84237" lon="6.80852">
        <ele>678.611084</ele>
        <time>2018-05-26T16:15:25Z</time>
      </trkpt>
      <trkpt lat="47.84237" lon="6.8085">
        <ele>678.750854</ele>
        <time>2018-05-26T16:15:26Z</time>
      </trkpt>
      <trkpt lat="47.84237" lon="6.80848">
        <ele>678.890564</ele>
        <time>2018-05-26T16:15:27Z</time>
      </trkpt>
      <trkpt lat="47.84237" lon="6.80846">
        <ele>679.105164</ele>
        <time>2018-05-26T16:15:28Z</time>
      </trkpt>
      <trkpt lat="47.84236" lon="6.80844">
        <ele>679.250305</ele>
        <time>2018-05-26T16:15:29Z</time>
      </trkpt>
      <trkpt lat="47.84236" lon="6.80841">
        <ele>679.467346</ele>
        <time>2018-05-26T16:15:30Z</time>
      </trkpt>
      <trkpt lat="47.84237" lon="6.80839">
        <ele>679.613037</ele>
        <time>2018-05-26T16:15:31Z</time>
      </trkpt>
      <trkpt lat="47.84237" lon="6.80837">
        <ele>679.826416</ele>
        <time>2018-05-26T16:15:32Z</time>
      </trkpt>
      <trkpt lat="47.84237" lon="6.80835">
        <ele>679.958252</ele>
        <time>2018-05-26T16:15:33Z</time>
      </trkpt>
      <trkpt lat="47.84237" lon="6.80833">
        <ele>680.080994</ele>
        <time>2018-05-26T16:15:34Z</time>
      </trkpt>
      <trkpt lat="47.84237" lon="6.80831">
        <ele>680.258362</ele>
        <time>2018-05-26T16:15:35Z</time>
      </trkpt>
      <trkpt lat="47.84237" lon="6.80829">
        <ele>680.374695</ele>
        <time>2018-05-26T16:15:36Z</time>
      </trkpt>
      <trkpt lat="47.84237" lon="6.80828">
        <ele>680.549072</ele>
        <time>2018-05-26T16:15:37Z</time>
      </trkpt>
      <trkpt lat="47.84237" lon="6.80826">
        <ele>680.671814</ele>
        <time>2018-05-26T16:15:38Z</time>
      </trkpt>
      <trkpt lat="47.84238" lon="6.80824">
        <ele>680.808167</ele>
        <time>2018-05-26T16:15:39Z</time>
      </trkpt>
      <trkpt lat="47.84238" lon="6.80822">
        <ele>681.042053</ele>
        <time>2018-05-26T16:15:40Z</time>
      </trkpt>
      <trkpt lat="47.84238" lon="6.80821">
        <ele>681.212463</ele>
        <time>2018-05-26T16:15:41Z</time>
      </trkpt>
      <trkpt lat="47.84238" lon="6.8082">
        <ele>681.477844</ele>
        <time>2018-05-26T16:15:42Z</time>
      </trkpt>
      <trkpt lat="47.84239" lon="6.80819">
        <ele>681.841736</ele>
        <time>2018-05-26T16:15:43Z</time>
      </trkpt>
      <trkpt lat="47.84238" lon="6.80818">
        <ele>682.289856</ele>
        <time>2018-05-26T16:15:45Z</time>
      </trkpt>
      <trkpt lat="47.84238" lon="6.80816">
        <ele>682.531494</ele>
        <time>2018-05-26T16:15:47Z</time>
      </trkpt>
      <trkpt lat="47.84238" lon="6.80814">
        <ele>682.681091</ele>
        <time>2018-05-26T16:15:48Z</time>
      </trkpt>
      <trkpt lat="47.84238" lon="6.80813">
        <ele>682.898743</ele>
        <time>2018-05-26T16:15:49Z</time>
      </trkpt>
      <trkpt lat="47.84238" lon="6.80811">
        <ele>683.041992</ele>
        <time>2018-05-26T16:15:50Z</time>
      </trkpt>
      <trkpt lat="47.84238" lon="6.80809">
        <ele>683.185547</ele>
        <time>2018-05-26T16:15:51Z</time>
      </trkpt>
      <trkpt lat="47.84238" lon="6.80807">
        <ele>683.394836</ele>
        <time>2018-05-26T16:15:52Z</time>
      </trkpt>
      <trkpt lat="47.84238" lon="6.80804">
        <ele>683.535706</ele>
        <time>2018-05-26T16:15:53Z</time>
      </trkpt>
      <trkpt lat="47.84238" lon="6.80802">
        <ele>683.7547</ele>
        <time>2018-05-26T16:15:54Z</time>
      </trkpt>
      <trkpt lat="47.84238" lon="6.80801">
        <ele>684.045227</ele>
        <time>2018-05-26T16:15:55Z</time>
      </trkpt>
      <trkpt lat="47.84237" lon="6.808">
        <ele>684.246826</ele>
        <time>2018-05-26T16:15:57Z</time>
      </trkpt>
      <trkpt lat="47.84237" lon="6.80798">
        <ele>684.311584</ele>
        <time>2018-05-26T16:15:58Z</time>
      </trkpt>
      <trkpt lat="47.84237" lon="6.80795">
        <ele>684.376282</ele>
        <time>2018-05-26T16:15:59Z</time>
      </trkpt>
      <trkpt lat="47.84237" lon="6.80793">
        <ele>684.570251</ele>
        <time>2018-05-26T16:16:00Z</time>
      </trkpt>
      <trkpt lat="47.84236" lon="6.8079">
        <ele>684.700745</ele>
        <time>2018-05-26T16:16:01Z</time>
      </trkpt>
      <trkpt lat="47.84235" lon="6.80787">
        <ele>684.899231</ele>
        <time>2018-05-26T16:16:02Z</time>
      </trkpt>
      <trkpt lat="47.84235" lon="6.80784">
        <ele>685.03656</ele>
        <time>2018-05-26T16:16:03Z</time>
      </trkpt>
      <trkpt lat="47.84234" lon="6.80783">
        <ele>685.252197</ele>
        <time>2018-05-26T16:16:04Z</time>
      </trkpt>
      <trkpt lat="47.84234" lon="6.80782">
        <ele>685.400635</ele>
        <time>2018-05-26T16:16:05Z</time>
      </trkpt>
      <trkpt lat="47.84234" lon="6.8078">
        <ele>685.550232</ele>
        <time>2018-05-26T16:16:06Z</time>
      </trkpt>
      <trkpt lat="47.84234" lon="6.80779">
        <ele>685.76947</ele>
        <time>2018-05-26T16:16:07Z</time>
      </trkpt>
      <trkpt lat="47.84233" lon="6.80777">
        <ele>685.918762</ele>
        <time>2018-05-26T16:16:08Z</time>
      </trkpt>
      <trkpt lat="47.84233" lon="6.80774">
        <ele>686.15863</ele>
        <time>2018-05-26T16:16:09Z</time>
      </trkpt>
      <trkpt lat="47.84233" lon="6.80772">
        <ele>686.324158</ele>
        <time>2018-05-26T16:16:10Z</time>
      </trkpt>
      <trkpt lat="47.84233" lon="6.8077">
        <ele>686.486877</ele>
        <time>2018-05-26T16:16:11Z</time>
      </trkpt>
      <trkpt lat="47.84233" lon="6.80769">
        <ele>686.883606</ele>
        <time>2018-05-26T16:16:12Z</time>
      </trkpt>
      <trkpt lat="47.84233" lon="6.80768">
        <ele>687.112793</ele>
        <time>2018-05-26T16:16:14Z</time>
      </trkpt>
      <trkpt lat="47.84233" lon="6.80766">
        <ele>687.260071</ele>
        <time>2018-05-26T16:16:15Z</time>
      </trkpt>
      <trkpt lat="47.84232" lon="6.80765">
        <ele>687.482422</ele>
        <time>2018-05-26T16:16:16Z</time>
      </trkpt>
      <trkpt lat="47.84231" lon="6.80762">
        <ele>687.635498</ele>
        <time>2018-05-26T16:16:17Z</time>
      </trkpt>
      <trkpt lat="47.8423" lon="6.80759">
        <ele>687.7901</ele>
        <time>2018-05-26T16:16:18Z</time>
      </trkpt>
      <trkpt lat="47.8423" lon="6.80755">
        <ele>688.030579</ele>
        <time>2018-05-26T16:16:19Z</time>
      </trkpt>
      <trkpt lat="47.8423" lon="6.80752">
        <ele>688.196472</ele>
        <time>2018-05-26T16:16:20Z</time>
      </trkpt>
      <trkpt lat="47.84229" lon="6.8075">
        <ele>688.441101</ele>
        <time>2018-05-26T16:16:21Z</time>
      </trkpt>
      <trkpt lat="47.84229" lon="6.80748">
        <ele>688.5979</ele>
        <time>2018-05-26T16:16:22Z</time>
      </trkpt>
      <trkpt lat="47.8423" lon="6.80746">
        <ele>688.756104</ele>
        <time>2018-05-26T16:16:23Z</time>
      </trkpt>
      <trkpt lat="47.8423" lon="6.80744">
        <ele>689.000427</ele>
        <time>2018-05-26T16:16:24Z</time>
      </trkpt>
      <trkpt lat="47.8423" lon="6.80742">
        <ele>689.165466</ele>
        <time>2018-05-26T16:16:25Z</time>
      </trkpt>
      <trkpt lat="47.84229" lon="6.8074">
        <ele>689.410583</ele>
        <time>2018-05-26T16:16:26Z</time>
      </trkpt>
      <trkpt lat="47.84229" lon="6.80739">
        <ele>689.577942</ele>
        <time>2018-05-26T16:16:27Z</time>
      </trkpt>
      <trkpt lat="47.84229" lon="6.80737">
        <ele>689.850281</ele>
        <time>2018-05-26T16:16:28Z</time>
      </trkpt>
      <trkpt lat="47.84228" lon="6.80735">
        <ele>690.044189</ele>
        <time>2018-05-26T16:16:29Z</time>
      </trkpt>
      <trkpt lat="47.84227" lon="6.80733">
        <ele>690.24585</ele>
        <time>2018-05-26T16:16:30Z</time>
      </trkpt>
      <trkpt lat="47.84227" lon="6.80731">
        <ele>690.551208</ele>
        <time>2018-05-26T16:16:31Z</time>
      </trkpt>
      <trkpt lat="47.84227" lon="6.80729">
        <ele>690.753235</ele>
        <time>2018-05-26T16:16:32Z</time>
      </trkpt>
      <trkpt lat="47.84227" lon="6.80727">
        <ele>691.042908</ele>
        <time>2018-05-26T16:16:33Z</time>
      </trkpt>
      <trkpt lat="47.84226" lon="6.80725">
        <ele>691.223572</ele>
        <time>2018-05-26T16:16:34Z</time>
      </trkpt>
      <trkpt lat="47.84225" lon="6.80723">
        <ele>691.484131</ele>
        <time>2018-05-26T16:16:35Z</time>
      </trkpt>
      <trkpt lat="47.84224" lon="6.8072">
        <ele>691.660217</ele>
        <time>2018-05-26T16:16:36Z</time>
      </trkpt>
      <trkpt lat="47.84224" lon="6.80718">
        <ele>691.839844</ele>
        <time>2018-05-26T16:16:37Z</time>
      </trkpt>
      <trkpt lat="47.84223" lon="6.80716">
        <ele>692.094543</ele>
        <time>2018-05-26T16:16:38Z</time>
      </trkpt>
      <trkpt lat="47.84222" lon="6.80714">
        <ele>692.249756</ele>
        <time>2018-05-26T16:16:39Z</time>
      </trkpt>
      <trkpt lat="47.84222" lon="6.80713">
        <ele>692.768799</ele>
        <time>2018-05-26T16:16:41Z</time>
      </trkpt>
      <trkpt lat="47.84222" lon="6.8071">
        <ele>692.877686</ele>
        <time>2018-05-26T16:16:43Z</time>
      </trkpt>
      <trkpt lat="47.84221" lon="6.80708">
        <ele>692.983643</ele>
        <time>2018-05-26T16:16:44Z</time>
      </trkpt>
      <trkpt lat="47.8422" lon="6.80706">
        <ele>693.139648</ele>
        <time>2018-05-26T16:16:45Z</time>
      </trkpt>
      <trkpt lat="47.8422" lon="6.80704">
        <ele>693.245178</ele>
        <time>2018-05-26T16:16:46Z</time>
      </trkpt>
      <trkpt lat="47.8422" lon="6.80702">
        <ele>693.405762</ele>
        <time>2018-05-26T16:16:47Z</time>
      </trkpt>
      <trkpt lat="47.8422" lon="6.807">
        <ele>693.510071</ele>
        <time>2018-05-26T16:16:48Z</time>
      </trkpt>
      <trkpt lat="47.84219" lon="6.80698">
        <ele>693.665344</ele>
        <time>2018-05-26T16:16:49Z</time>
      </trkpt>
      <trkpt lat="47.84219" lon="6.80696">
        <ele>693.777832</ele>
        <time>2018-05-26T16:16:50Z</time>
      </trkpt>
      <trkpt lat="47.84218" lon="6.80695">
        <ele>694.110352</ele>
        <time>2018-05-26T16:16:51Z</time>
      </trkpt>
      <trkpt lat="47.84218" lon="6.80694">
        <ele>694.252136</ele>
        <time>2018-05-26T16:16:53Z</time>
      </trkpt>
      <trkpt lat="47.84218" lon="6.80692">
        <ele>694.464417</ele>
        <time>2018-05-26T16:16:54Z</time>
      </trkpt>
      <trkpt lat="47.84218" lon="6.8069">
        <ele>694.606445</ele>
        <time>2018-05-26T16:16:55Z</time>
      </trkpt>
      <trkpt lat="47.84217" lon="6.80688">
        <ele>694.825989</ele>
        <time>2018-05-26T16:16:56Z</time>
      </trkpt>
      <trkpt lat="47.84216" lon="6.80686">
        <ele>694.975281</ele>
        <time>2018-05-26T16:16:57Z</time>
      </trkpt>
      <trkpt lat="47.84216" lon="6.80685">
        <ele>695.200989</ele>
        <time>2018-05-26T16:16:58Z</time>
      </trkpt>
      <trkpt lat="47.84215" lon="6.80683">
        <ele>695.354431</ele>
        <time>2018-05-26T16:17:00Z</time>
      </trkpt>
      <trkpt lat="47.84214" lon="6.80681">
        <ele>695.728027</ele>
        <time>2018-05-26T16:17:01Z</time>
      </trkpt>
      <trkpt lat="47.84214" lon="6.80679">
        <ele>695.873108</ele>
        <time>2018-05-26T16:17:03Z</time>
      </trkpt>
      <trkpt lat="47.84214" lon="6.80678">
        <ele>696.088074</ele>
        <time>2018-05-26T16:17:04Z</time>
      </trkpt>
      <trkpt lat="47.84213" lon="6.80676">
        <ele>696.220886</ele>
        <time>2018-05-26T16:17:05Z</time>
      </trkpt>
      <trkpt lat="47.84208" lon="6.80663">
        <ele>697.805481</ele>
        <time>2018-05-26T16:17:14Z</time>
      </trkpt>
      <trkpt lat="47.84208" lon="6.8066">
        <ele>697.989746</ele>
        <time>2018-05-26T16:17:16Z</time>
      </trkpt>
      <trkpt lat="47.84207" lon="6.80658">
        <ele>698.275208</ele>
        <time>2018-05-26T16:17:17Z</time>
      </trkpt>
      <trkpt lat="47.84206" lon="6.80656">
        <ele>698.46875</ele>
        <time>2018-05-26T16:17:18Z</time>
      </trkpt>
      <trkpt lat="47.84205" lon="6.80654">
        <ele>698.751404</ele>
        <time>2018-05-26T16:17:19Z</time>
      </trkpt>
      <trkpt lat="47.84205" lon="6.80652">
        <ele>698.919861</ele>
        <time>2018-05-26T16:17:20Z</time>
      </trkpt>
      <trkpt lat="47.84205" lon="6.8065">
        <ele>699.065369</ele>
        <time>2018-05-26T16:17:21Z</time>
      </trkpt>
      <trkpt lat="47.84204" lon="6.80647">
        <ele>699.25531</ele>
        <time>2018-05-26T16:17:22Z</time>
      </trkpt>
      <trkpt lat="47.84203" lon="6.80645">
        <ele>699.378479</ele>
        <time>2018-05-26T16:17:23Z</time>
      </trkpt>
      <trkpt lat="47.84203" lon="6.80642">
        <ele>699.575439</ele>
        <time>2018-05-26T16:17:24Z</time>
      </trkpt>
      <trkpt lat="47.84203" lon="6.8064">
        <ele>699.717712</ele>
        <time>2018-05-26T16:17:25Z</time>
      </trkpt>
      <trkpt lat="47.84201" lon="6.80638">
        <ele>699.953857</ele>
        <time>2018-05-26T16:17:26Z</time>
      </trkpt>
      <trkpt lat="47.84201" lon="6.80636">
        <ele>700.270996</ele>
        <time>2018-05-26T16:17:27Z</time>
      </trkpt>
      <trkpt lat="47.84201" lon="6.80634">
        <ele>700.488586</ele>
        <time>2018-05-26T16:17:29Z</time>
      </trkpt>
      <trkpt lat="47.84201" lon="6.80633">
        <ele>700.625671</ele>
        <time>2018-05-26T16:17:30Z</time>
      </trkpt>
      <trkpt lat="47.84201" lon="6.80631">
        <ele>700.812988</ele>
        <time>2018-05-26T16:17:31Z</time>
      </trkpt>
      <trkpt lat="47.842" lon="6.80628">
        <ele>700.92804</ele>
        <time>2018-05-26T16:17:32Z</time>
      </trkpt>
      <trkpt lat="47.84199" lon="6.80626">
        <ele>701.041443</ele>
        <time>2018-05-26T16:17:33Z</time>
      </trkpt>
      <trkpt lat="47.84199" lon="6.80624">
        <ele>701.381897</ele>
        <time>2018-05-26T16:17:34Z</time>
      </trkpt>
      <trkpt lat="47.84198" lon="6.80623">
        <ele>701.601624</ele>
        <time>2018-05-26T16:17:36Z</time>
      </trkpt>
      <trkpt lat="47.84198" lon="6.80621">
        <ele>701.738586</ele>
        <time>2018-05-26T16:17:37Z</time>
      </trkpt>
      <trkpt lat="47.84197" lon="6.8062">
        <ele>701.944336</ele>
        <time>2018-05-26T16:17:38Z</time>
      </trkpt>
      <trkpt lat="47.84197" lon="6.80618">
        <ele>702.093933</ele>
        <time>2018-05-26T16:17:39Z</time>
      </trkpt>
      <trkpt lat="47.84196" lon="6.80616">
        <ele>702.336914</ele>
        <time>2018-05-26T16:17:40Z</time>
      </trkpt>
      <trkpt lat="47.84195" lon="6.80614">
        <ele>702.498596</ele>
        <time>2018-05-26T16:17:41Z</time>
      </trkpt>
      <trkpt lat="47.84195" lon="6.80611">
        <ele>702.652649</ele>
        <time>2018-05-26T16:17:42Z</time>
      </trkpt>
      <trkpt lat="47.84194" lon="6.80609">
        <ele>702.879333</ele>
        <time>2018-05-26T16:17:43Z</time>
      </trkpt>
      <trkpt lat="47.84193" lon="6.80607">
        <ele>703.036194</ele>
        <time>2018-05-26T16:17:44Z</time>
      </trkpt>
      <trkpt lat="47.84192" lon="6.80606">
        <ele>703.283752</ele>
        <time>2018-05-26T16:17:45Z</time>
      </trkpt>
      <trkpt lat="47.84191" lon="6.80605">
        <ele>703.448975</ele>
        <time>2018-05-26T16:17:46Z</time>
      </trkpt>
      <trkpt lat="47.84191" lon="6.80604">
        <ele>703.834229</ele>
        <time>2018-05-26T16:17:47Z</time>
      </trkpt>
      <trkpt lat="47.8419" lon="6.80602">
        <ele>704.05719</ele>
        <time>2018-05-26T16:17:49Z</time>
      </trkpt>
      <trkpt lat="47.84189" lon="6.80601">
        <ele>704.323792</ele>
        <time>2018-05-26T16:17:50Z</time>
      </trkpt>
      <trkpt lat="47.84188" lon="6.806">
        <ele>704.486755</ele>
        <time>2018-05-26T16:17:52Z</time>
      </trkpt>
      <trkpt lat="47.84186" lon="6.80598">
        <ele>704.585022</ele>
        <time>2018-05-26T16:17:53Z</time>
      </trkpt>
      <trkpt lat="47.84185" lon="6.80597">
        <ele>704.734863</ele>
        <time>2018-05-26T16:17:54Z</time>
      </trkpt>
      <trkpt lat="47.84185" lon="6.80596">
        <ele>704.835876</ele>
        <time>2018-05-26T16:17:55Z</time>
      </trkpt>
      <trkpt lat="47.84184" lon="6.80595">
        <ele>704.992004</ele>
        <time>2018-05-26T16:17:56Z</time>
      </trkpt>
      <trkpt lat="47.84184" lon="6.80593">
        <ele>705.103699</ele>
        <time>2018-05-26T16:17:57Z</time>
      </trkpt>
      <trkpt lat="47.84182" lon="6.80592">
        <ele>705.222961</ele>
        <time>2018-05-26T16:17:58Z</time>
      </trkpt>
      <trkpt lat="47.84182" lon="6.80591">
        <ele>705.348633</ele>
        <time>2018-05-26T16:17:59Z</time>
      </trkpt>
      <trkpt lat="47.8418" lon="6.80589">
        <ele>705.48114</ele>
        <time>2018-05-26T16:18:00Z</time>
      </trkpt>
      <trkpt lat="47.84179" lon="6.80587">
        <ele>705.621338</ele>
        <time>2018-05-26T16:18:01Z</time>
      </trkpt>
      <trkpt lat="47.84177" lon="6.80586">
        <ele>705.837097</ele>
        <time>2018-05-26T16:18:02Z</time>
      </trkpt>
      <trkpt lat="47.84176" lon="6.80584">
        <ele>705.97821</ele>
        <time>2018-05-26T16:18:03Z</time>
      </trkpt>
      <trkpt lat="47.84176" lon="6.80583">
        <ele>706.185364</ele>
        <time>2018-05-26T16:18:04Z</time>
      </trkpt>
      <trkpt lat="47.84175" lon="6.80581">
        <ele>706.320068</ele>
        <time>2018-05-26T16:18:05Z</time>
      </trkpt>
      <trkpt lat="47.84174" lon="6.8058">
        <ele>706.51532</ele>
        <time>2018-05-26T16:18:06Z</time>
      </trkpt>
      <trkpt lat="47.84173" lon="6.80578">
        <ele>706.632629</ele>
        <time>2018-05-26T16:18:07Z</time>
      </trkpt>
      <trkpt lat="47.84172" lon="6.80577">
        <ele>706.889099</ele>
        <time>2018-05-26T16:18:08Z</time>
      </trkpt>
      <trkpt lat="47.84172" lon="6.80576">
        <ele>706.993652</ele>
        <time>2018-05-26T16:18:10Z</time>
      </trkpt>
      <trkpt lat="47.84171" lon="6.80574">
        <ele>707.153992</ele>
        <time>2018-05-26T16:18:11Z</time>
      </trkpt>
      <trkpt lat="47.84171" lon="6.80573">
        <ele>707.259705</ele>
        <time>2018-05-26T16:18:12Z</time>
      </trkpt>
      <trkpt lat="47.84169" lon="6.80572">
        <ele>707.421448</ele>
        <time>2018-05-26T16:18:13Z</time>
      </trkpt>
      <trkpt lat="47.84168" lon="6.8057">
        <ele>707.533691</ele>
        <time>2018-05-26T16:18:14Z</time>
      </trkpt>
      <trkpt lat="47.84168" lon="6.80568">
        <ele>707.643066</ele>
        <time>2018-05-26T16:18:15Z</time>
      </trkpt>
      <trkpt lat="47.84167" lon="6.80566">
        <ele>707.802063</ele>
        <time>2018-05-26T16:18:16Z</time>
      </trkpt>
      <trkpt lat="47.8416" lon="6.80554">
        <ele>709.307068</ele>
        <time>2018-05-26T16:18:24Z</time>
      </trkpt>
      <trkpt lat="47.84159" lon="6.80551">
        <ele>709.572021</ele>
        <time>2018-05-26T16:18:26Z</time>
      </trkpt>
      <trkpt lat="47.84159" lon="6.8055">
        <ele>709.972351</ele>
        <time>2018-05-26T16:18:27Z</time>
      </trkpt>
      <trkpt lat="47.84158" lon="6.80548">
        <ele>710.112976</ele>
        <time>2018-05-26T16:18:29Z</time>
      </trkpt>
      <trkpt lat="47.84157" lon="6.80546">
        <ele>710.243958</ele>
        <time>2018-05-26T16:18:30Z</time>
      </trkpt>
      <trkpt lat="47.84156" lon="6.80544">
        <ele>710.434998</ele>
        <time>2018-05-26T16:18:31Z</time>
      </trkpt>
      <trkpt lat="47.84155" lon="6.80542">
        <ele>710.564392</ele>
        <time>2018-05-26T16:18:32Z</time>
      </trkpt>
      <trkpt lat="47.84154" lon="6.8054">
        <ele>710.753906</ele>
        <time>2018-05-26T16:18:33Z</time>
      </trkpt>
      <trkpt lat="47.84153" lon="6.80538">
        <ele>710.87677</ele>
        <time>2018-05-26T16:18:34Z</time>
      </trkpt>
      <trkpt lat="47.84152" lon="6.80536">
        <ele>710.996643</ele>
        <time>2018-05-26T16:18:35Z</time>
      </trkpt>
      <trkpt lat="47.84151" lon="6.80534">
        <ele>711.173828</ele>
        <time>2018-05-26T16:18:36Z</time>
      </trkpt>
      <trkpt lat="47.84151" lon="6.80532">
        <ele>711.297058</ele>
        <time>2018-05-26T16:18:37Z</time>
      </trkpt>
      <trkpt lat="47.8415" lon="6.8053">
        <ele>711.50177</ele>
        <time>2018-05-26T16:18:38Z</time>
      </trkpt>
      <trkpt lat="47.84149" lon="6.80529">
        <ele>711.645325</ele>
        <time>2018-05-26T16:18:39Z</time>
      </trkpt>
      <trkpt lat="47.84148" lon="6.80527">
        <ele>711.860535</ele>
        <time>2018-05-26T16:18:40Z</time>
      </trkpt>
      <trkpt lat="47.84148" lon="6.80525">
        <ele>712.007019</ele>
        <time>2018-05-26T16:18:41Z</time>
      </trkpt>
      <trkpt lat="47.84147" lon="6.80524">
        <ele>712.154053</ele>
        <time>2018-05-26T16:18:42Z</time>
      </trkpt>
      <trkpt lat="47.84146" lon="6.80522">
        <ele>712.369568</ele>
        <time>2018-05-26T16:18:43Z</time>
      </trkpt>
      <trkpt lat="47.84145" lon="6.8052">
        <ele>712.499756</ele>
        <time>2018-05-26T16:18:44Z</time>
      </trkpt>
      <trkpt lat="47.84143" lon="6.80519">
        <ele>712.677673</ele>
        <time>2018-05-26T16:18:45Z</time>
      </trkpt>
      <trkpt lat="47.84142" lon="6.80518">
        <ele>712.791687</ele>
        <time>2018-05-26T16:18:46Z</time>
      </trkpt>
      <trkpt lat="47.8414" lon="6.80517">
        <ele>712.959045</ele>
        <time>2018-05-26T16:18:47Z</time>
      </trkpt>
      <trkpt lat="47.84139" lon="6.80515">
        <ele>713.063477</ele>
        <time>2018-05-26T16:18:48Z</time>
      </trkpt>
      <trkpt lat="47.84138" lon="6.80514">
        <ele>713.168457</ele>
        <time>2018-05-26T16:18:49Z</time>
      </trkpt>
      <trkpt lat="47.84137" lon="6.80512">
        <ele>713.342041</ele>
        <time>2018-05-26T16:18:50Z</time>
      </trkpt>
      <trkpt lat="47.84136" lon="6.80511">
        <ele>713.46698</ele>
        <time>2018-05-26T16:18:51Z</time>
      </trkpt>
      <trkpt lat="47.84134" lon="6.80509">
        <ele>713.649414</ele>
        <time>2018-05-26T16:18:52Z</time>
      </trkpt>
      <trkpt lat="47.84133" lon="6.80508">
        <ele>713.76825</ele>
        <time>2018-05-26T16:18:53Z</time>
      </trkpt>
      <trkpt lat="47.84131" lon="6.80507">
        <ele>713.887878</ele>
        <time>2018-05-26T16:18:54Z</time>
      </trkpt>
      <trkpt lat="47.8413" lon="6.80506">
        <ele>714.130615</ele>
        <time>2018-05-26T16:18:55Z</time>
      </trkpt>
      <trkpt lat="47.84129" lon="6.80505">
        <ele>714.24469</ele>
        <time>2018-05-26T16:18:56Z</time>
      </trkpt>
      <trkpt lat="47.84129" lon="6.80504">
        <ele>714.351501</ele>
        <time>2018-05-26T16:18:57Z</time>
      </trkpt>
      <trkpt lat="47.84127" lon="6.80502">
        <ele>714.45752</ele>
        <time>2018-05-26T16:18:58Z</time>
      </trkpt>
      <trkpt lat="47.84126" lon="6.80501">
        <ele>714.570068</ele>
        <time>2018-05-26T16:18:59Z</time>
      </trkpt>
      <trkpt lat="47.84125" lon="6.80501">
        <ele>714.693298</ele>
        <time>2018-05-26T16:19:00Z</time>
      </trkpt>
      <trkpt lat="47.84124" lon="6.805">
        <ele>714.828613</ele>
        <time>2018-05-26T16:19:01Z</time>
      </trkpt>
      <trkpt lat="47.84123" lon="6.80499">
        <ele>715.047852</ele>
        <time>2018-05-26T16:19:02Z</time>
      </trkpt>
      <trkpt lat="47.84122" lon="6.80498">
        <ele>715.197266</ele>
        <time>2018-05-26T16:19:03Z</time>
      </trkpt>
      <trkpt lat="47.8412" lon="6.80497">
        <ele>715.416077</ele>
        <time>2018-05-26T16:19:04Z</time>
      </trkpt>
      <trkpt lat="47.84119" lon="6.80495">
        <ele>715.550537</ele>
        <time>2018-05-26T16:19:05Z</time>
      </trkpt>
      <trkpt lat="47.84118" lon="6.80494">
        <ele>715.725647</ele>
        <time>2018-05-26T16:19:06Z</time>
      </trkpt>
      <trkpt lat="47.84117" lon="6.80493">
        <ele>715.950867</ele>
        <time>2018-05-26T16:19:07Z</time>
      </trkpt>
      <trkpt lat="47.84116" lon="6.80491">
        <ele>716.136963</ele>
        <time>2018-05-26T16:19:09Z</time>
      </trkpt>
      <trkpt lat="47.84115" lon="6.8049">
        <ele>716.264465</ele>
        <time>2018-05-26T16:19:10Z</time>
      </trkpt>
      <trkpt lat="47.84113" lon="6.80489">
        <ele>716.455078</ele>
        <time>2018-05-26T16:19:11Z</time>
      </trkpt>
      <trkpt lat="47.84112" lon="6.80487">
        <ele>716.576416</ele>
        <time>2018-05-26T16:19:12Z</time>
      </trkpt>
      <trkpt lat="47.84111" lon="6.80486">
        <ele>716.743469</ele>
        <time>2018-05-26T16:19:13Z</time>
      </trkpt>
      <trkpt lat="47.8411" lon="6.80484">
        <ele>716.850586</ele>
        <time>2018-05-26T16:19:14Z</time>
      </trkpt>
      <trkpt lat="47.84108" lon="6.80483">
        <ele>716.959412</ele>
        <time>2018-05-26T16:19:15Z</time>
      </trkpt>
      <trkpt lat="47.84106" lon="6.80482">
        <ele>717.126038</ele>
        <time>2018-05-26T16:19:16Z</time>
      </trkpt>
      <trkpt lat="47.84105" lon="6.80481">
        <ele>717.238708</ele>
        <time>2018-05-26T16:19:17Z</time>
      </trkpt>
      <trkpt lat="47.84104" lon="6.80481">
        <ele>717.419922</ele>
        <time>2018-05-26T16:19:18Z</time>
      </trkpt>
      <trkpt lat="47.84103" lon="6.8048">
        <ele>717.555237</ele>
        <time>2018-05-26T16:19:19Z</time>
      </trkpt>
      <trkpt lat="47.84102" lon="6.80479">
        <ele>717.788879</ele>
        <time>2018-05-26T16:19:20Z</time>
      </trkpt>
      <trkpt lat="47.84101" lon="6.80477">
        <ele>717.962097</ele>
        <time>2018-05-26T16:19:21Z</time>
      </trkpt>
      <trkpt lat="47.841" lon="6.80475">
        <ele>718.229065</ele>
        <time>2018-05-26T16:19:22Z</time>
      </trkpt>
      <trkpt lat="47.84098" lon="6.80474">
        <ele>718.403564</ele>
        <time>2018-05-26T16:19:23Z</time>
      </trkpt>
      <trkpt lat="47.84097" lon="6.80473">
        <ele>718.961975</ele>
        <time>2018-05-26T16:19:25Z</time>
      </trkpt>
      <trkpt lat="47.84095" lon="6.80472">
        <ele>719.155945</ele>
        <time>2018-05-26T16:19:27Z</time>
      </trkpt>
      <trkpt lat="47.84094" lon="6.80472">
        <ele>719.267639</ele>
        <time>2018-05-26T16:19:28Z</time>
      </trkpt>
      <trkpt lat="47.84092" lon="6.80471">
        <ele>719.377014</ele>
        <time>2018-05-26T16:19:29Z</time>
      </trkpt>
      <trkpt lat="47.84091" lon="6.8047">
        <ele>719.549133</ele>
        <time>2018-05-26T16:19:30Z</time>
      </trkpt>
      <trkpt lat="47.8409" lon="6.80469">
        <ele>719.667053</ele>
        <time>2018-05-26T16:19:31Z</time>
      </trkpt>
      <trkpt lat="47.84089" lon="6.80468">
        <ele>719.834656</ele>
        <time>2018-05-26T16:19:32Z</time>
      </trkpt>
      <trkpt lat="47.84087" lon="6.80467">
        <ele>719.938232</ele>
        <time>2018-05-26T16:19:33Z</time>
      </trkpt>
      <trkpt lat="47.84086" lon="6.80466">
        <ele>720.082458</ele>
        <time>2018-05-26T16:19:34Z</time>
      </trkpt>
      <trkpt lat="47.84084" lon="6.80464">
        <ele>720.179871</ele>
        <time>2018-05-26T16:19:35Z</time>
      </trkpt>
      <trkpt lat="47.84082" lon="6.80463">
        <ele>720.277344</ele>
        <time>2018-05-26T16:19:36Z</time>
      </trkpt>
      <trkpt lat="47.84081" lon="6.80463">
        <ele>720.434509</ele>
        <time>2018-05-26T16:19:37Z</time>
      </trkpt>
      <trkpt lat="47.8408" lon="6.80462">
        <ele>720.556702</ele>
        <time>2018-05-26T16:19:38Z</time>
      </trkpt>
      <trkpt lat="47.84079" lon="6.80461">
        <ele>720.773743</ele>
        <time>2018-05-26T16:19:39Z</time>
      </trkpt>
      <trkpt lat="47.84077" lon="6.8046">
        <ele>720.928772</ele>
        <time>2018-05-26T16:19:40Z</time>
      </trkpt>
      <trkpt lat="47.84076" lon="6.80459">
        <ele>721.087708</ele>
        <time>2018-05-26T16:19:41Z</time>
      </trkpt>
      <trkpt lat="47.84074" lon="6.80458">
        <ele>721.32373</ele>
        <time>2018-05-26T16:19:42Z</time>
      </trkpt>
      <trkpt lat="47.84073" lon="6.80458">
        <ele>721.475647</ele>
        <time>2018-05-26T16:19:43Z</time>
      </trkpt>
      <trkpt lat="47.84071" lon="6.80457">
        <ele>721.675354</ele>
        <time>2018-05-26T16:19:44Z</time>
      </trkpt>
      <trkpt lat="47.84069" lon="6.80456">
        <ele>721.788818</ele>
        <time>2018-05-26T16:19:45Z</time>
      </trkpt>
      <trkpt lat="47.84068" lon="6.80455">
        <ele>721.946472</ele>
        <time>2018-05-26T16:19:46Z</time>
      </trkpt>
      <trkpt lat="47.84066" lon="6.80454">
        <ele>722.054993</ele>
        <time>2018-05-26T16:19:47Z</time>
      </trkpt>
      <trkpt lat="47.84065" lon="6.80454">
        <ele>722.165527</ele>
        <time>2018-05-26T16:19:48Z</time>
      </trkpt>
      <trkpt lat="47.84063" lon="6.80454">
        <ele>722.325256</ele>
        <time>2018-05-26T16:19:49Z</time>
      </trkpt>
      <trkpt lat="47.84062" lon="6.80454">
        <ele>722.429443</ele>
        <time>2018-05-26T16:19:50Z</time>
      </trkpt>
      <trkpt lat="47.84061" lon="6.80454">
        <ele>722.599548</ele>
        <time>2018-05-26T16:19:51Z</time>
      </trkpt>
      <trkpt lat="47.84059" lon="6.80453">
        <ele>722.722351</ele>
        <time>2018-05-26T16:19:52Z</time>
      </trkpt>
      <trkpt lat="47.84058" lon="6.80453">
        <ele>722.911438</ele>
        <time>2018-05-26T16:19:53Z</time>
      </trkpt>
      <trkpt lat="47.84056" lon="6.80452">
        <ele>723.045227</ele>
        <time>2018-05-26T16:19:54Z</time>
      </trkpt>
      <trkpt lat="47.84054" lon="6.80452">
        <ele>723.186035</ele>
        <time>2018-05-26T16:19:55Z</time>
      </trkpt>
      <trkpt lat="47.84053" lon="6.80452">
        <ele>723.394348</ele>
        <time>2018-05-26T16:19:56Z</time>
      </trkpt>
      <trkpt lat="47.84051" lon="6.80452">
        <ele>723.524475</ele>
        <time>2018-05-26T16:19:57Z</time>
      </trkpt>
      <trkpt lat="47.8405" lon="6.80452">
        <ele>723.708801</ele>
        <time>2018-05-26T16:19:58Z</time>
      </trkpt>
      <trkpt lat="47.84048" lon="6.80452">
        <ele>723.832947</ele>
        <time>2018-05-26T16:19:59Z</time>
      </trkpt>
      <trkpt lat="47.84047" lon="6.80452">
        <ele>723.89502</ele>
        <time>2018-05-26T16:20:00Z</time>
      </trkpt>
      <trkpt lat="47.84045" lon="6.80453">
        <ele>724.019104</ele>
        <time>2018-05-26T16:20:01Z</time>
      </trkpt>
      <trkpt lat="47.84044" lon="6.80453">
        <ele>724.141357</ele>
        <time>2018-05-26T16:20:02Z</time>
      </trkpt>
      <trkpt lat="47.84042" lon="6.80452">
        <ele>724.267151</ele>
        <time>2018-05-26T16:20:03Z</time>
      </trkpt>
      <trkpt lat="47.84041" lon="6.80452">
        <ele>724.480225</ele>
        <time>2018-05-26T16:20:04Z</time>
      </trkpt>
      <trkpt lat="47.84039" lon="6.80452">
        <ele>724.636169</ele>
        <time>2018-05-26T16:20:05Z</time>
      </trkpt>
      <trkpt lat="47.84038" lon="6.80452">
        <ele>724.872131</ele>
        <time>2018-05-26T16:20:06Z</time>
      </trkpt>
      <trkpt lat="47.84037" lon="6.80452">
        <ele>725.022949</ele>
        <time>2018-05-26T16:20:07Z</time>
      </trkpt>
      <trkpt lat="47.84035" lon="6.80452">
        <ele>725.172546</ele>
        <time>2018-05-26T16:20:08Z</time>
      </trkpt>
      <trkpt lat="47.84033" lon="6.80452">
        <ele>725.393066</ele>
        <time>2018-05-26T16:20:09Z</time>
      </trkpt>
      <trkpt lat="47.84032" lon="6.80451">
        <ele>725.535217</ele>
        <time>2018-05-26T16:20:10Z</time>
      </trkpt>
      <trkpt lat="47.8403" lon="6.80451">
        <ele>725.729553</ele>
        <time>2018-05-26T16:20:11Z</time>
      </trkpt>
      <trkpt lat="47.84028" lon="6.80451">
        <ele>725.851746</ele>
        <time>2018-05-26T16:20:12Z</time>
      </trkpt>
      <trkpt lat="47.84026" lon="6.80452">
        <ele>726.034424</ele>
        <time>2018-05-26T16:20:13Z</time>
      </trkpt>
      <trkpt lat="47.84025" lon="6.80452">
        <ele>726.171204</ele>
        <time>2018-05-26T16:20:14Z</time>
      </trkpt>
      <trkpt lat="47.84023" lon="6.80453">
        <ele>726.321289</ele>
        <time>2018-05-26T16:20:15Z</time>
      </trkpt>
      <trkpt lat="47.84021" lon="6.80453">
        <ele>726.570618</ele>
        <time>2018-05-26T16:20:16Z</time>
      </trkpt>
      <trkpt lat="47.8402" lon="6.80454">
        <ele>726.746338</ele>
        <time>2018-05-26T16:20:17Z</time>
      </trkpt>
      <trkpt lat="47.84018" lon="6.80455">
        <ele>727.022217</ele>
        <time>2018-05-26T16:20:18Z</time>
      </trkpt>
      <trkpt lat="47.84016" lon="6.80455">
        <ele>727.205872</ele>
        <time>2018-05-26T16:20:19Z</time>
      </trkpt>
      <trkpt lat="47.84015" lon="6.80456">
        <ele>727.455139</ele>
        <time>2018-05-26T16:20:20Z</time>
      </trkpt>
      <trkpt lat="47.84014" lon="6.80456">
        <ele>727.592712</ele>
        <time>2018-05-26T16:20:21Z</time>
      </trkpt>
      <trkpt lat="47.84012" lon="6.80457">
        <ele>727.709961</ele>
        <time>2018-05-26T16:20:22Z</time>
      </trkpt>
      <trkpt lat="47.84011" lon="6.80457">
        <ele>727.861511</ele>
        <time>2018-05-26T16:20:23Z</time>
      </trkpt>
      <trkpt lat="47.84009" lon="6.80457">
        <ele>727.95166</ele>
        <time>2018-05-26T16:20:24Z</time>
      </trkpt>
      <trkpt lat="47.84008" lon="6.80457">
        <ele>728.085144</ele>
        <time>2018-05-26T16:20:25Z</time>
      </trkpt>
      <trkpt lat="47.84007" lon="6.80456">
        <ele>728.177307</ele>
        <time>2018-05-26T16:20:26Z</time>
      </trkpt>
      <trkpt lat="47.84005" lon="6.80456">
        <ele>728.27417</ele>
        <time>2018-05-26T16:20:27Z</time>
      </trkpt>
      <trkpt lat="47.84004" lon="6.80456">
        <ele>728.426453</ele>
        <time>2018-05-26T16:20:28Z</time>
      </trkpt>
      <trkpt lat="47.84003" lon="6.80456">
        <ele>728.67865</ele>
        <time>2018-05-26T16:20:29Z</time>
      </trkpt>
      <trkpt lat="47.84002" lon="6.80455">
        <ele>728.768799</ele>
        <time>2018-05-26T16:20:31Z</time>
      </trkpt>
      <trkpt lat="47.84" lon="6.80454">
        <ele>728.894226</ele>
        <time>2018-05-26T16:20:32Z</time>
      </trkpt>
      <trkpt lat="47.83999" lon="6.80454">
        <ele>728.980774</ele>
        <time>2018-05-26T16:20:33Z</time>
      </trkpt>
      <trkpt lat="47.83998" lon="6.80454">
        <ele>729.076172</ele>
        <time>2018-05-26T16:20:34Z</time>
      </trkpt>
      <trkpt lat="47.83997" lon="6.80454">
        <ele>729.232422</ele>
        <time>2018-05-26T16:20:35Z</time>
      </trkpt>
      <trkpt lat="47.83995" lon="6.80453">
        <ele>729.344421</ele>
        <time>2018-05-26T16:20:36Z</time>
      </trkpt>
      <trkpt lat="47.83994" lon="6.80452">
        <ele>729.53717</ele>
        <time>2018-05-26T16:20:37Z</time>
      </trkpt>
      <trkpt lat="47.83992" lon="6.80452">
        <ele>729.680481</ele>
        <time>2018-05-26T16:20:38Z</time>
      </trkpt>
      <trkpt lat="47.83992" lon="6.80451">
        <ele>729.896423</ele>
        <time>2018-05-26T16:20:39Z</time>
      </trkpt>
      <trkpt lat="47.83991" lon="6.8045">
        <ele>730.035583</ele>
        <time>2018-05-26T16:20:40Z</time>
      </trkpt>
      <trkpt lat="47.83989" lon="6.80449">
        <ele>730.239441</ele>
        <time>2018-05-26T16:20:41Z</time>
      </trkpt>
      <trkpt lat="47.83988" lon="6.80449">
        <ele>730.373962</ele>
        <time>2018-05-26T16:20:42Z</time>
      </trkpt>
      <trkpt lat="47.83987" lon="6.80448">
        <ele>730.502625</ele>
        <time>2018-05-26T16:20:43Z</time>
      </trkpt>
      <trkpt lat="47.83986" lon="6.80448">
        <ele>730.672302</ele>
        <time>2018-05-26T16:20:44Z</time>
      </trkpt>
      <trkpt lat="47.83984" lon="6.80447">
        <ele>730.766113</ele>
        <time>2018-05-26T16:20:45Z</time>
      </trkpt>
      <trkpt lat="47.83983" lon="6.80447">
        <ele>730.895691</ele>
        <time>2018-05-26T16:20:46Z</time>
      </trkpt>
      <trkpt lat="47.83982" lon="6.80446">
        <ele>730.986389</ele>
        <time>2018-05-26T16:20:47Z</time>
      </trkpt>
      <trkpt lat="47.83981" lon="6.80445">
        <ele>731.140381</ele>
        <time>2018-05-26T16:20:48Z</time>
      </trkpt>
      <trkpt lat="47.8398" lon="6.80444">
        <ele>731.250671</ele>
        <time>2018-05-26T16:20:49Z</time>
      </trkpt>
      <trkpt lat="47.83979" lon="6.80443">
        <ele>731.418213</ele>
        <time>2018-05-26T16:20:50Z</time>
      </trkpt>
      <trkpt lat="47.83978" lon="6.80441">
        <ele>731.536316</ele>
        <time>2018-05-26T16:20:51Z</time>
      </trkpt>
      <trkpt lat="47.83977" lon="6.8044">
        <ele>731.728027</ele>
        <time>2018-05-26T16:20:52Z</time>
      </trkpt>
      <trkpt lat="47.83976" lon="6.80439">
        <ele>731.863525</ele>
        <time>2018-05-26T16:20:53Z</time>
      </trkpt>
      <trkpt lat="47.83975" lon="6.80438">
        <ele>732.071045</ele>
        <time>2018-05-26T16:20:54Z</time>
      </trkpt>
      <trkpt lat="47.83973" lon="6.80438">
        <ele>732.209656</ele>
        <time>2018-05-26T16:20:55Z</time>
      </trkpt>
      <trkpt lat="47.83971" lon="6.80438">
        <ele>732.339172</ele>
        <time>2018-05-26T16:20:56Z</time>
      </trkpt>
      <trkpt lat="47.8397" lon="6.80438">
        <ele>732.513245</ele>
        <time>2018-05-26T16:20:57Z</time>
      </trkpt>
      <trkpt lat="47.83968" lon="6.80437">
        <ele>732.622375</ele>
        <time>2018-05-26T16:20:58Z</time>
      </trkpt>
      <trkpt lat="47.83966" lon="6.80436">
        <ele>732.780823</ele>
        <time>2018-05-26T16:20:59Z</time>
      </trkpt>
      <trkpt lat="47.83965" lon="6.80435">
        <ele>732.828857</ele>
        <time>2018-05-26T16:21:00Z</time>
      </trkpt>
      <trkpt lat="47.83963" lon="6.80434">
        <ele>732.914612</ele>
        <time>2018-05-26T16:21:01Z</time>
      </trkpt>
      <trkpt lat="47.83962" lon="6.80433">
        <ele>732.985168</ele>
        <time>2018-05-26T16:21:02Z</time>
      </trkpt>
      <trkpt lat="47.8396" lon="6.80432">
        <ele>733.047119</ele>
        <time>2018-05-26T16:21:03Z</time>
      </trkpt>
      <trkpt lat="47.83959" lon="6.8043">
        <ele>733.127441</ele>
        <time>2018-05-26T16:21:04Z</time>
      </trkpt>
      <trkpt lat="47.83957" lon="6.80428">
        <ele>733.182861</ele>
        <time>2018-05-26T16:21:05Z</time>
      </trkpt>
      <trkpt lat="47.83956" lon="6.80427">
        <ele>733.282043</ele>
        <time>2018-05-26T16:21:06Z</time>
      </trkpt>
      <trkpt lat="47.83954" lon="6.80425">
        <ele>733.364929</ele>
        <time>2018-05-26T16:21:07Z</time>
      </trkpt>
      <trkpt lat="47.83953" lon="6.80423">
        <ele>733.518066</ele>
        <time>2018-05-26T16:21:08Z</time>
      </trkpt>
      <trkpt lat="47.83951" lon="6.80421">
        <ele>733.629395</ele>
        <time>2018-05-26T16:21:09Z</time>
      </trkpt>
      <trkpt lat="47.8395" lon="6.80419">
        <ele>733.735352</ele>
        <time>2018-05-26T16:21:10Z</time>
      </trkpt>
      <trkpt lat="47.8395" lon="6.80417">
        <ele>733.868958</ele>
        <time>2018-05-26T16:21:11Z</time>
      </trkpt>
      <trkpt lat="47.83949" lon="6.80415">
        <ele>733.940491</ele>
        <time>2018-05-26T16:21:12Z</time>
      </trkpt>
      <trkpt lat="47.83949" lon="6.80412">
        <ele>734.026184</ele>
        <time>2018-05-26T16:21:13Z</time>
      </trkpt>
      <trkpt lat="47.83948" lon="6.8041">
        <ele>734.06958</ele>
        <time>2018-05-26T16:21:14Z</time>
      </trkpt>
      <trkpt lat="47.83948" lon="6.80408">
        <ele>734.100098</ele>
        <time>2018-05-26T16:21:15Z</time>
      </trkpt>
      <trkpt lat="47.83948" lon="6.80405">
        <ele>734.140564</ele>
        <time>2018-05-26T16:21:16Z</time>
      </trkpt>
      <trkpt lat="47.83947" lon="6.80403">
        <ele>734.179382</ele>
        <time>2018-05-26T16:21:17Z</time>
      </trkpt>
      <trkpt lat="47.83947" lon="6.80401">
        <ele>734.266907</ele>
        <time>2018-05-26T16:21:18Z</time>
      </trkpt>
      <trkpt lat="47.83947" lon="6.80399">
        <ele>734.341064</ele>
        <time>2018-05-26T16:21:19Z</time>
      </trkpt>
      <trkpt lat="47.83947" lon="6.80397">
        <ele>734.470398</ele>
        <time>2018-05-26T16:21:20Z</time>
      </trkpt>
      <trkpt lat="47.83947" lon="6.80395">
        <ele>734.569275</ele>
        <time>2018-05-26T16:21:21Z</time>
      </trkpt>
      <trkpt lat="47.83947" lon="6.80393">
        <ele>734.680725</ele>
        <time>2018-05-26T16:21:22Z</time>
      </trkpt>
      <trkpt lat="47.83946" lon="6.8039">
        <ele>734.87262</ele>
        <time>2018-05-26T16:21:23Z</time>
      </trkpt>
      <trkpt lat="47.83946" lon="6.80388">
        <ele>735.015137</ele>
        <time>2018-05-26T16:21:24Z</time>
      </trkpt>
      <trkpt lat="47.83946" lon="6.80386">
        <ele>735.229797</ele>
        <time>2018-05-26T16:21:25Z</time>
      </trkpt>
      <trkpt lat="47.83946" lon="6.80384">
        <ele>735.366455</ele>
        <time>2018-05-26T16:21:26Z</time>
      </trkpt>
      <trkpt lat="47.83946" lon="6.80382">
        <ele>735.500244</ele>
        <time>2018-05-26T16:21:27Z</time>
      </trkpt>
      <trkpt lat="47.83946" lon="6.80379">
        <ele>735.700989</ele>
        <time>2018-05-26T16:21:28Z</time>
      </trkpt>
      <trkpt lat="47.83945" lon="6.80377">
        <ele>735.834778</ele>
        <time>2018-05-26T16:21:29Z</time>
      </trkpt>
      <trkpt lat="47.83945" lon="6.80375">
        <ele>736.031738</ele>
        <time>2018-05-26T16:21:30Z</time>
      </trkpt>
      <trkpt lat="47.83944" lon="6.80373">
        <ele>736.162598</ele>
        <time>2018-05-26T16:21:31Z</time>
      </trkpt>
      <trkpt lat="47.83944" lon="6.80371">
        <ele>736.363831</ele>
        <time>2018-05-26T16:21:32Z</time>
      </trkpt>
      <trkpt lat="47.83944" lon="6.80368">
        <ele>736.502258</ele>
        <time>2018-05-26T16:21:33Z</time>
      </trkpt>
      <trkpt lat="47.83944" lon="6.80366">
        <ele>736.646545</ele>
        <time>2018-05-26T16:21:34Z</time>
      </trkpt>
      <trkpt lat="47.83944" lon="6.80363">
        <ele>736.864807</ele>
        <time>2018-05-26T16:21:35Z</time>
      </trkpt>
      <trkpt lat="47.83944" lon="6.80361">
        <ele>737.00592</ele>
        <time>2018-05-26T16:21:36Z</time>
      </trkpt>
      <trkpt lat="47.83944" lon="6.80358">
        <ele>737.207458</ele>
        <time>2018-05-26T16:21:37Z</time>
      </trkpt>
      <trkpt lat="47.83944" lon="6.80356">
        <ele>737.339905</ele>
        <time>2018-05-26T16:21:38Z</time>
      </trkpt>
      <trkpt lat="47.83944" lon="6.80354">
        <ele>737.470215</ele>
        <time>2018-05-26T16:21:39Z</time>
      </trkpt>
      <trkpt lat="47.83944" lon="6.80352">
        <ele>737.665039</ele>
        <time>2018-05-26T16:21:40Z</time>
      </trkpt>
      <trkpt lat="47.83944" lon="6.8035">
        <ele>737.79657</ele>
        <time>2018-05-26T16:21:41Z</time>
      </trkpt>
      <trkpt lat="47.83944" lon="6.80347">
        <ele>737.992615</ele>
        <time>2018-05-26T16:21:42Z</time>
      </trkpt>
      <trkpt lat="47.83944" lon="6.80345">
        <ele>738.123779</ele>
        <time>2018-05-26T16:21:43Z</time>
      </trkpt>
      <trkpt lat="47.83944" lon="6.80343">
        <ele>738.331299</ele>
        <time>2018-05-26T16:21:44Z</time>
      </trkpt>
      <trkpt lat="47.83944" lon="6.8034">
        <ele>738.4776</ele>
        <time>2018-05-26T16:21:45Z</time>
      </trkpt>
      <trkpt lat="47.83944" lon="6.80338">
        <ele>738.698792</ele>
        <time>2018-05-26T16:21:46Z</time>
      </trkpt>
      <trkpt lat="47.83944" lon="6.80336">
        <ele>738.841553</ele>
        <time>2018-05-26T16:21:47Z</time>
      </trkpt>
      <trkpt lat="47.83943" lon="6.80334">
        <ele>739.055237</ele>
        <time>2018-05-26T16:21:48Z</time>
      </trkpt>
      <trkpt lat="47.83943" lon="6.80332">
        <ele>739.202148</ele>
        <time>2018-05-26T16:21:49Z</time>
      </trkpt>
      <trkpt lat="47.83943" lon="6.8033">
        <ele>739.426819</ele>
        <time>2018-05-26T16:21:50Z</time>
      </trkpt>
      <trkpt lat="47.83943" lon="6.80327">
        <ele>739.584534</ele>
        <time>2018-05-26T16:21:51Z</time>
      </trkpt>
      <trkpt lat="47.83943" lon="6.80325">
        <ele>739.755615</ele>
        <time>2018-05-26T16:21:52Z</time>
      </trkpt>
      <trkpt lat="47.83943" lon="6.80322">
        <ele>740.021667</ele>
        <time>2018-05-26T16:21:53Z</time>
      </trkpt>
      <trkpt lat="47.83943" lon="6.8032">
        <ele>740.197205</ele>
        <time>2018-05-26T16:21:54Z</time>
      </trkpt>
      <trkpt lat="47.83943" lon="6.80317">
        <ele>740.464539</ele>
        <time>2018-05-26T16:21:55Z</time>
      </trkpt>
      <trkpt lat="47.83943" lon="6.80315">
        <ele>740.647217</ele>
        <time>2018-05-26T16:21:56Z</time>
      </trkpt>
      <trkpt lat="47.83943" lon="6.80313">
        <ele>740.928406</ele>
        <time>2018-05-26T16:21:57Z</time>
      </trkpt>
      <trkpt lat="47.83943" lon="6.8031">
        <ele>741.113525</ele>
        <time>2018-05-26T16:21:58Z</time>
      </trkpt>
      <trkpt lat="47.83943" lon="6.80308">
        <ele>741.387939</ele>
        <time>2018-05-26T16:21:59Z</time>
      </trkpt>
      <trkpt lat="47.83943" lon="6.80305">
        <ele>741.480408</ele>
        <time>2018-05-26T16:22:00Z</time>
      </trkpt>
      <trkpt lat="47.83944" lon="6.80303">
        <ele>741.765076</ele>
        <time>2018-05-26T16:22:01Z</time>
      </trkpt>
      <trkpt lat="47.83944" lon="6.803">
        <ele>741.954163</ele>
        <time>2018-05-26T16:22:02Z</time>
      </trkpt>
      <trkpt lat="47.83944" lon="6.80298">
        <ele>742.22876</ele>
        <time>2018-05-26T16:22:03Z</time>
      </trkpt>
      <trkpt lat="47.83944" lon="6.80296">
        <ele>742.412598</ele>
        <time>2018-05-26T16:22:04Z</time>
      </trkpt>
      <trkpt lat="47.83944" lon="6.80293">
        <ele>742.682922</ele>
        <time>2018-05-26T16:22:05Z</time>
      </trkpt>
      <trkpt lat="47.83945" lon="6.80291">
        <ele>742.853516</ele>
        <time>2018-05-26T16:22:06Z</time>
      </trkpt>
      <trkpt lat="47.83945" lon="6.80288">
        <ele>743.017517</ele>
        <time>2018-05-26T16:22:07Z</time>
      </trkpt>
      <trkpt lat="47.83946" lon="6.80285">
        <ele>743.263733</ele>
        <time>2018-05-26T16:22:08Z</time>
      </trkpt>
      <trkpt lat="47.83946" lon="6.80283">
        <ele>743.43042</ele>
        <time>2018-05-26T16:22:09Z</time>
      </trkpt>
      <trkpt lat="47.83947" lon="6.80281">
        <ele>743.678284</ele>
        <time>2018-05-26T16:22:10Z</time>
      </trkpt>
      <trkpt lat="47.83948" lon="6.80279">
        <ele>743.839783</ele>
        <time>2018-05-26T16:22:11Z</time>
      </trkpt>
      <trkpt lat="47.83949" lon="6.80277">
        <ele>743.994202</ele>
        <time>2018-05-26T16:22:12Z</time>
      </trkpt>
      <trkpt lat="47.83949" lon="6.80275">
        <ele>744.211975</ele>
        <time>2018-05-26T16:22:13Z</time>
      </trkpt>
      <trkpt lat="47.8395" lon="6.80273">
        <ele>744.339172</ele>
        <time>2018-05-26T16:22:14Z</time>
      </trkpt>
      <trkpt lat="47.83951" lon="6.80271">
        <ele>744.510559</ele>
        <time>2018-05-26T16:22:15Z</time>
      </trkpt>
      <trkpt lat="47.83952" lon="6.80269">
        <ele>744.61499</ele>
        <time>2018-05-26T16:22:16Z</time>
      </trkpt>
      <trkpt lat="47.83953" lon="6.80267">
        <ele>744.762268</ele>
        <time>2018-05-26T16:22:17Z</time>
      </trkpt>
      <trkpt lat="47.83954" lon="6.80265">
        <ele>744.856873</ele>
        <time>2018-05-26T16:22:18Z</time>
      </trkpt>
      <trkpt lat="47.83955" lon="6.80264">
        <ele>744.99707</ele>
        <time>2018-05-26T16:22:19Z</time>
      </trkpt>
      <trkpt lat="47.83957" lon="6.80262">
        <ele>745.09613</ele>
        <time>2018-05-26T16:22:20Z</time>
      </trkpt>
      <trkpt lat="47.83958" lon="6.80261">
        <ele>745.20752</ele>
        <time>2018-05-26T16:22:21Z</time>
      </trkpt>
      <trkpt lat="47.83959" lon="6.8026">
        <ele>745.395325</ele>
        <time>2018-05-26T16:22:22Z</time>
      </trkpt>
      <trkpt lat="47.8396" lon="6.80259">
        <ele>745.533386</ele>
        <time>2018-05-26T16:22:23Z</time>
      </trkpt>
      <trkpt lat="47.83962" lon="6.80259">
        <ele>745.768005</ele>
        <time>2018-05-26T16:22:24Z</time>
      </trkpt>
      <trkpt lat="47.83963" lon="6.80258">
        <ele>745.940186</ele>
        <time>2018-05-26T16:22:25Z</time>
      </trkpt>
      <trkpt lat="47.83964" lon="6.80257">
        <ele>746.209961</ele>
        <time>2018-05-26T16:22:26Z</time>
      </trkpt>
      <trkpt lat="47.83966" lon="6.80256">
        <ele>746.390808</ele>
        <time>2018-05-26T16:22:27Z</time>
      </trkpt>
      <trkpt lat="47.83967" lon="6.80254">
        <ele>746.644287</ele>
        <time>2018-05-26T16:22:28Z</time>
      </trkpt>
      <trkpt lat="47.83968" lon="6.80253">
        <ele>746.797607</ele>
        <time>2018-05-26T16:22:29Z</time>
      </trkpt>
      <trkpt lat="47.8397" lon="6.80252">
        <ele>746.934021</ele>
        <time>2018-05-26T16:22:30Z</time>
      </trkpt>
      <trkpt lat="47.83971" lon="6.80251">
        <ele>747.114502</ele>
        <time>2018-05-26T16:22:31Z</time>
      </trkpt>
      <trkpt lat="47.83972" lon="6.80249">
        <ele>747.220764</ele>
        <time>2018-05-26T16:22:32Z</time>
      </trkpt>
      <trkpt lat="47.83973" lon="6.80248">
        <ele>747.368591</ele>
        <time>2018-05-26T16:22:33Z</time>
      </trkpt>
      <trkpt lat="47.83974" lon="6.80247">
        <ele>747.461426</ele>
        <time>2018-05-26T16:22:34Z</time>
      </trkpt>
      <trkpt lat="47.83975" lon="6.80246">
        <ele>747.554871</ele>
        <time>2018-05-26T16:22:35Z</time>
      </trkpt>
      <trkpt lat="47.83976" lon="6.80245">
        <ele>747.702209</ele>
        <time>2018-05-26T16:22:36Z</time>
      </trkpt>
      <trkpt lat="47.83978" lon="6.80244">
        <ele>747.812988</ele>
        <time>2018-05-26T16:22:37Z</time>
      </trkpt>
      <trkpt lat="47.83978" lon="6.80243">
        <ele>748.007385</ele>
        <time>2018-05-26T16:22:38Z</time>
      </trkpt>
      <trkpt lat="47.83979" lon="6.80243">
        <ele>748.375732</ele>
        <time>2018-05-26T16:22:39Z</time>
      </trkpt>
      <trkpt lat="47.83979" lon="6.80242">
        <ele>748.532898</ele>
        <time>2018-05-26T16:22:41Z</time>
      </trkpt>
      <trkpt lat="47.83981" lon="6.80243">
        <ele>748.923035</ele>
        <time>2018-05-26T16:22:42Z</time>
      </trkpt>
      <trkpt lat="47.83983" lon="6.80242">
        <ele>749.060974</ele>
        <time>2018-05-26T16:22:44Z</time>
      </trkpt>
      <trkpt lat="47.83984" lon="6.80241">
        <ele>749.249329</ele>
        <time>2018-05-26T16:22:45Z</time>
      </trkpt>
      <trkpt lat="47.83986" lon="6.8024">
        <ele>749.371338</ele>
        <time>2018-05-26T16:22:46Z</time>
      </trkpt>
      <trkpt lat="47.83987" lon="6.8024">
        <ele>749.561218</ele>
        <time>2018-05-26T16:22:47Z</time>
      </trkpt>
      <trkpt lat="47.83989" lon="6.80239">
        <ele>749.695007</ele>
        <time>2018-05-26T16:22:48Z</time>
      </trkpt>
      <trkpt lat="47.8399" lon="6.80238">
        <ele>749.831848</ele>
        <time>2018-05-26T16:22:49Z</time>
      </trkpt>
      <trkpt lat="47.83992" lon="6.80237">
        <ele>750.043213</ele>
        <time>2018-05-26T16:22:50Z</time>
      </trkpt>
      <trkpt lat="47.83993" lon="6.80236">
        <ele>750.190613</ele>
        <time>2018-05-26T16:22:51Z</time>
      </trkpt>
      <trkpt lat="47.83995" lon="6.80236">
        <ele>750.420593</ele>
        <time>2018-05-26T16:22:52Z</time>
      </trkpt>
      <trkpt lat="47.83996" lon="6.80234">
        <ele>750.578857</ele>
        <time>2018-05-26T16:22:53Z</time>
      </trkpt>
      <trkpt lat="47.83997" lon="6.80233">
        <ele>750.816406</ele>
        <time>2018-05-26T16:22:54Z</time>
      </trkpt>
      <trkpt lat="47.83999" lon="6.80232">
        <ele>750.970764</ele>
        <time>2018-05-26T16:22:55Z</time>
      </trkpt>
      <trkpt lat="47.84001" lon="6.80231">
        <ele>751.121582</ele>
        <time>2018-05-26T16:22:56Z</time>
      </trkpt>
      <trkpt lat="47.84002" lon="6.8023">
        <ele>751.335999</ele>
        <time>2018-05-26T16:22:57Z</time>
      </trkpt>
      <trkpt lat="47.84003" lon="6.8023">
        <ele>751.471924</ele>
        <time>2018-05-26T16:22:58Z</time>
      </trkpt>
      <trkpt lat="47.84005" lon="6.80229">
        <ele>751.679443</ele>
        <time>2018-05-26T16:22:59Z</time>
      </trkpt>
      <trkpt lat="47.84006" lon="6.80228">
        <ele>751.823547</ele>
        <time>2018-05-26T16:23:00Z</time>
      </trkpt>
      <trkpt lat="47.84007" lon="6.80227">
        <ele>751.968994</ele>
        <time>2018-05-26T16:23:01Z</time>
      </trkpt>
      <trkpt lat="47.84009" lon="6.80227">
        <ele>752.110413</ele>
        <time>2018-05-26T16:23:02Z</time>
      </trkpt>
      <trkpt lat="47.84009" lon="6.80226">
        <ele>752.242615</ele>
        <time>2018-05-26T16:23:03Z</time>
      </trkpt>
      <trkpt lat="47.84011" lon="6.80225">
        <ele>752.423279</ele>
        <time>2018-05-26T16:23:04Z</time>
      </trkpt>
      <trkpt lat="47.84012" lon="6.80224">
        <ele>752.54071</ele>
        <time>2018-05-26T16:23:05Z</time>
      </trkpt>
      <trkpt lat="47.84013" lon="6.80223">
        <ele>752.714355</ele>
        <time>2018-05-26T16:23:06Z</time>
      </trkpt>
      <trkpt lat="47.84015" lon="6.80222">
        <ele>752.832214</ele>
        <time>2018-05-26T16:23:07Z</time>
      </trkpt>
      <trkpt lat="47.84016" lon="6.8022">
        <ele>752.962097</ele>
        <time>2018-05-26T16:23:08Z</time>
      </trkpt>
      <trkpt lat="47.84017" lon="6.80219">
        <ele>753.18512</ele>
        <time>2018-05-26T16:23:09Z</time>
      </trkpt>
      <trkpt lat="47.84018" lon="6.80218">
        <ele>753.337402</ele>
        <time>2018-05-26T16:23:10Z</time>
      </trkpt>
      <trkpt lat="47.84019" lon="6.80216">
        <ele>753.545349</ele>
        <time>2018-05-26T16:23:11Z</time>
      </trkpt>
      <trkpt lat="47.84019" lon="6.80214">
        <ele>753.671448</ele>
        <time>2018-05-26T16:23:12Z</time>
      </trkpt>
      <trkpt lat="47.8402" lon="6.80212">
        <ele>753.85321</ele>
        <time>2018-05-26T16:23:13Z</time>
      </trkpt>
      <trkpt lat="47.84022" lon="6.8021">
        <ele>753.970398</ele>
        <time>2018-05-26T16:23:14Z</time>
      </trkpt>
      <trkpt lat="47.84023" lon="6.80209">
        <ele>754.129822</ele>
        <time>2018-05-26T16:23:15Z</time>
      </trkpt>
      <trkpt lat="47.84024" lon="6.80207">
        <ele>754.232178</ele>
        <time>2018-05-26T16:23:16Z</time>
      </trkpt>
      <trkpt lat="47.84026" lon="6.80206">
        <ele>754.33667</ele>
        <time>2018-05-26T16:23:17Z</time>
      </trkpt>
      <trkpt lat="47.84027" lon="6.80204">
        <ele>754.491211</ele>
        <time>2018-05-26T16:23:18Z</time>
      </trkpt>
      <trkpt lat="47.84028" lon="6.80203">
        <ele>754.59137</ele>
        <time>2018-05-26T16:23:19Z</time>
      </trkpt>
      <trkpt lat="47.84029" lon="6.80201">
        <ele>754.749573</ele>
        <time>2018-05-26T16:23:20Z</time>
      </trkpt>
      <trkpt lat="47.84031" lon="6.802">
        <ele>754.864197</ele>
        <time>2018-05-26T16:23:21Z</time>
      </trkpt>
      <trkpt lat="47.84032" lon="6.80198">
        <ele>755.042786</ele>
        <time>2018-05-26T16:23:22Z</time>
      </trkpt>
      <trkpt lat="47.84033" lon="6.80197">
        <ele>755.165466</ele>
        <time>2018-05-26T16:23:23Z</time>
      </trkpt>
      <trkpt lat="47.84034" lon="6.80196">
        <ele>755.375</ele>
        <time>2018-05-26T16:23:24Z</time>
      </trkpt>
      <trkpt lat="47.84035" lon="6.80194">
        <ele>755.5224</ele>
        <time>2018-05-26T16:23:25Z</time>
      </trkpt>
      <trkpt lat="47.84036" lon="6.80193">
        <ele>755.730408</ele>
        <time>2018-05-26T16:23:26Z</time>
      </trkpt>
      <trkpt lat="47.84037" lon="6.80191">
        <ele>755.85791</ele>
        <time>2018-05-26T16:23:27Z</time>
      </trkpt>
      <trkpt lat="47.84038" lon="6.80189">
        <ele>755.986572</ele>
        <time>2018-05-26T16:23:28Z</time>
      </trkpt>
      <trkpt lat="47.84039" lon="6.80187">
        <ele>756.18158</ele>
        <time>2018-05-26T16:23:29Z</time>
      </trkpt>
      <trkpt lat="47.8404" lon="6.80185">
        <ele>756.301514</ele>
        <time>2018-05-26T16:23:30Z</time>
      </trkpt>
      <trkpt lat="47.84041" lon="6.80184">
        <ele>756.441467</ele>
        <time>2018-05-26T16:23:31Z</time>
      </trkpt>
      <trkpt lat="47.84042" lon="6.80182">
        <ele>756.513855</ele>
        <time>2018-05-26T16:23:32Z</time>
      </trkpt>
      <trkpt lat="47.84044" lon="6.80181">
        <ele>756.588379</ele>
        <time>2018-05-26T16:23:33Z</time>
      </trkpt>
      <trkpt lat="47.84045" lon="6.8018">
        <ele>756.717346</ele>
        <time>2018-05-26T16:23:34Z</time>
      </trkpt>
      <trkpt lat="47.84047" lon="6.80178">
        <ele>756.818054</ele>
        <time>2018-05-26T16:23:35Z</time>
      </trkpt>
      <trkpt lat="47.84048" lon="6.80177">
        <ele>756.985535</ele>
        <time>2018-05-26T16:23:36Z</time>
      </trkpt>
      <trkpt lat="47.84049" lon="6.80175">
        <ele>757.109314</ele>
        <time>2018-05-26T16:23:37Z</time>
      </trkpt>
      <trkpt lat="47.8405" lon="6.80174">
        <ele>757.42218</ele>
        <time>2018-05-26T16:23:38Z</time>
      </trkpt>
      <trkpt lat="47.84052" lon="6.80172">
        <ele>757.532654</ele>
        <time>2018-05-26T16:23:40Z</time>
      </trkpt>
      <trkpt lat="47.84053" lon="6.8017">
        <ele>757.673645</ele>
        <time>2018-05-26T16:23:41Z</time>
      </trkpt>
      <trkpt lat="47.84054" lon="6.80168">
        <ele>757.753723</ele>
        <time>2018-05-26T16:23:42Z</time>
      </trkpt>
      <trkpt lat="47.84055" lon="6.80166">
        <ele>757.863098</ele>
        <time>2018-05-26T16:23:43Z</time>
      </trkpt>
      <trkpt lat="47.84057" lon="6.80164">
        <ele>757.935364</ele>
        <time>2018-05-26T16:23:44Z</time>
      </trkpt>
      <trkpt lat="47.84058" lon="6.80163">
        <ele>758.058411</ele>
        <time>2018-05-26T16:23:45Z</time>
      </trkpt>
      <trkpt lat="47.84059" lon="6.80161">
        <ele>758.15802</ele>
        <time>2018-05-26T16:23:46Z</time>
      </trkpt>
      <trkpt lat="47.8406" lon="6.8016">
        <ele>758.273254</ele>
        <time>2018-05-26T16:23:47Z</time>
      </trkpt>
      <trkpt lat="47.84061" lon="6.80158">
        <ele>758.471863</ele>
        <time>2018-05-26T16:23:48Z</time>
      </trkpt>
      <trkpt lat="47.84063" lon="6.80156">
        <ele>758.622314</ele>
        <time>2018-05-26T16:23:49Z</time>
      </trkpt>
      <trkpt lat="47.84064" lon="6.80154">
        <ele>758.861023</ele>
        <time>2018-05-26T16:23:50Z</time>
      </trkpt>
      <trkpt lat="47.84065" lon="6.80153">
        <ele>759.218079</ele>
        <time>2018-05-26T16:23:51Z</time>
      </trkpt>
      <trkpt lat="47.84066" lon="6.8015">
        <ele>759.338562</ele>
        <time>2018-05-26T16:23:53Z</time>
      </trkpt>
      <trkpt lat="47.84067" lon="6.80148">
        <ele>759.444885</ele>
        <time>2018-05-26T16:23:54Z</time>
      </trkpt>
      <trkpt lat="47.84068" lon="6.80145">
        <ele>759.580261</ele>
        <time>2018-05-26T16:23:55Z</time>
      </trkpt>
      <trkpt lat="47.84069" lon="6.80142">
        <ele>759.647705</ele>
        <time>2018-05-26T16:23:56Z</time>
      </trkpt>
      <trkpt lat="47.8407" lon="6.8014">
        <ele>759.721924</ele>
        <time>2018-05-26T16:23:57Z</time>
      </trkpt>
      <trkpt lat="47.84071" lon="6.80137">
        <ele>759.757874</ele>
        <time>2018-05-26T16:23:58Z</time>
      </trkpt>
      <trkpt lat="47.84073" lon="6.80134">
        <ele>759.789551</ele>
        <time>2018-05-26T16:23:59Z</time>
      </trkpt>
      <trkpt lat="47.84074" lon="6.8013">
        <ele>759.826233</ele>
        <time>2018-05-26T16:24:00Z</time>
      </trkpt>
      <trkpt lat="47.84074" lon="6.80127">
        <ele>759.844971</ele>
        <time>2018-05-26T16:24:01Z</time>
      </trkpt>
      <trkpt lat="47.84075" lon="6.80123">
        <ele>759.853943</ele>
        <time>2018-05-26T16:24:02Z</time>
      </trkpt>
      <trkpt lat="47.84076" lon="6.80121">
        <ele>759.853943</ele>
        <time>2018-05-26T16:24:03Z</time>
      </trkpt>
      <trkpt lat="47.84077" lon="6.80119">
        <ele>759.874451</ele>
        <time>2018-05-26T16:24:04Z</time>
      </trkpt>
      <trkpt lat="47.84078" lon="6.80117">
        <ele>759.919434</ele>
        <time>2018-05-26T16:24:05Z</time>
      </trkpt>
      <trkpt lat="47.84079" lon="6.80114">
        <ele>759.958191</ele>
        <time>2018-05-26T16:24:06Z</time>
      </trkpt>
      <trkpt lat="47.84081" lon="6.8011">
        <ele>760.031555</ele>
        <time>2018-05-26T16:24:07Z</time>
      </trkpt>
      <trkpt lat="47.84082" lon="6.80106">
        <ele>760.081482</ele>
        <time>2018-05-26T16:24:08Z</time>
      </trkpt>
      <trkpt lat="47.84084" lon="6.80103">
        <ele>760.157166</ele>
        <time>2018-05-26T16:24:09Z</time>
      </trkpt>
      <trkpt lat="47.84085" lon="6.801">
        <ele>760.209961</ele>
        <time>2018-05-26T16:24:10Z</time>
      </trkpt>
      <trkpt lat="47.84086" lon="6.80098">
        <ele>760.294922</ele>
        <time>2018-05-26T16:24:11Z</time>
      </trkpt>
      <trkpt lat="47.84087" lon="6.80095">
        <ele>760.356445</ele>
        <time>2018-05-26T16:24:12Z</time>
      </trkpt>
      <trkpt lat="47.84089" lon="6.80093">
        <ele>760.425537</ele>
        <time>2018-05-26T16:24:13Z</time>
      </trkpt>
      <trkpt lat="47.84091" lon="6.80091">
        <ele>760.551025</ele>
        <time>2018-05-26T16:24:14Z</time>
      </trkpt>
      <trkpt lat="47.84093" lon="6.80089">
        <ele>760.641602</ele>
        <time>2018-05-26T16:24:15Z</time>
      </trkpt>
      <trkpt lat="47.84094" lon="6.80087">
        <ele>760.774353</ele>
        <time>2018-05-26T16:24:16Z</time>
      </trkpt>
      <trkpt lat="47.84096" lon="6.80086">
        <ele>760.864441</ele>
        <time>2018-05-26T16:24:17Z</time>
      </trkpt>
      <trkpt lat="47.84098" lon="6.80086">
        <ele>761.001221</ele>
        <time>2018-05-26T16:24:18Z</time>
      </trkpt>
      <trkpt lat="47.841" lon="6.80085">
        <ele>761.085449</ele>
        <time>2018-05-26T16:24:19Z</time>
      </trkpt>
      <trkpt lat="47.84102" lon="6.80084">
        <ele>761.19281</ele>
        <time>2018-05-26T16:24:20Z</time>
      </trkpt>
      <trkpt lat="47.84104" lon="6.80084">
        <ele>761.263977</ele>
        <time>2018-05-26T16:24:21Z</time>
      </trkpt>
      <trkpt lat="47.84106" lon="6.80084">
        <ele>761.387634</ele>
        <time>2018-05-26T16:24:22Z</time>
      </trkpt>
      <trkpt lat="47.84109" lon="6.80084">
        <ele>761.480408</ele>
        <time>2018-05-26T16:24:23Z</time>
      </trkpt>
      <trkpt lat="47.84111" lon="6.80085">
        <ele>761.571045</ele>
        <time>2018-05-26T16:24:24Z</time>
      </trkpt>
      <trkpt lat="47.84113" lon="6.80085">
        <ele>761.694275</ele>
        <time>2018-05-26T16:24:25Z</time>
      </trkpt>
      <trkpt lat="47.84115" lon="6.80086">
        <ele>761.770996</ele>
        <time>2018-05-26T16:24:26Z</time>
      </trkpt>
      <trkpt lat="47.84116" lon="6.80086">
        <ele>761.889587</ele>
        <time>2018-05-26T16:24:27Z</time>
      </trkpt>
      <trkpt lat="47.84119" lon="6.80086">
        <ele>761.971436</ele>
        <time>2018-05-26T16:24:28Z</time>
      </trkpt>
      <trkpt lat="47.84122" lon="6.80086">
        <ele>762.054749</ele>
        <time>2018-05-26T16:24:29Z</time>
      </trkpt>
      <trkpt lat="47.84124" lon="6.80087">
        <ele>762.179504</ele>
        <time>2018-05-26T16:24:30Z</time>
      </trkpt>
      <trkpt lat="47.84126" lon="6.80087">
        <ele>762.264954</ele>
        <time>2018-05-26T16:24:31Z</time>
      </trkpt>
      <trkpt lat="47.84128" lon="6.80087">
        <ele>762.400879</ele>
        <time>2018-05-26T16:24:32Z</time>
      </trkpt>
      <trkpt lat="47.8413" lon="6.80087">
        <ele>762.493347</ele>
        <time>2018-05-26T16:24:33Z</time>
      </trkpt>
      <trkpt lat="47.84133" lon="6.80088">
        <ele>762.620667</ele>
        <time>2018-05-26T16:24:34Z</time>
      </trkpt>
      <trkpt lat="47.84135" lon="6.80088">
        <ele>762.693359</ele>
        <time>2018-05-26T16:24:35Z</time>
      </trkpt>
      <trkpt lat="47.84138" lon="6.80089">
        <ele>762.757263</ele>
        <time>2018-05-26T16:24:36Z</time>
      </trkpt>
      <trkpt lat="47.8414" lon="6.80089">
        <ele>762.844299</ele>
        <time>2018-05-26T16:24:37Z</time>
      </trkpt>
      <trkpt lat="47.84143" lon="6.80089">
        <ele>762.903748</ele>
        <time>2018-05-26T16:24:38Z</time>
      </trkpt>
      <trkpt lat="47.84145" lon="6.80089">
        <ele>762.99469</ele>
        <time>2018-05-26T16:24:39Z</time>
      </trkpt>
      <trkpt lat="47.84148" lon="6.80088">
        <ele>763.058105</ele>
        <time>2018-05-26T16:24:40Z</time>
      </trkpt>
      <trkpt lat="47.8415" lon="6.80088">
        <ele>763.17157</ele>
        <time>2018-05-26T16:24:41Z</time>
      </trkpt>
      <trkpt lat="47.84153" lon="6.80088">
        <ele>763.260071</ele>
        <time>2018-05-26T16:24:42Z</time>
      </trkpt>
      <trkpt lat="47.84155" lon="6.80089">
        <ele>763.458923</ele>
        <time>2018-05-26T16:24:43Z</time>
      </trkpt>
      <trkpt lat="47.84158" lon="6.80089">
        <ele>763.561096</ele>
        <time>2018-05-26T16:24:44Z</time>
      </trkpt>
      <trkpt lat="47.8416" lon="6.80089">
        <ele>763.609863</ele>
        <time>2018-05-26T16:24:45Z</time>
      </trkpt>
      <trkpt lat="47.84163" lon="6.80089">
        <ele>763.74408</ele>
        <time>2018-05-26T16:24:46Z</time>
      </trkpt>
      <trkpt lat="47.84165" lon="6.80089">
        <ele>763.825745</ele>
        <time>2018-05-26T16:24:47Z</time>
      </trkpt>
      <trkpt lat="47.84168" lon="6.80089">
        <ele>763.929688</ele>
        <time>2018-05-26T16:24:48Z</time>
      </trkpt>
      <trkpt lat="47.8417" lon="6.80089">
        <ele>763.98291</ele>
        <time>2018-05-26T16:24:49Z</time>
      </trkpt>
      <trkpt lat="47.84172" lon="6.80089">
        <ele>764.024841</ele>
        <time>2018-05-26T16:24:50Z</time>
      </trkpt>
      <trkpt lat="47.84175" lon="6.80089">
        <ele>764.074768</ele>
        <time>2018-05-26T16:24:51Z</time>
      </trkpt>
      <trkpt lat="47.84177" lon="6.80089">
        <ele>764.106262</ele>
        <time>2018-05-26T16:24:52Z</time>
      </trkpt>
      <trkpt lat="47.84179" lon="6.8009">
        <ele>764.167297</ele>
        <time>2018-05-26T16:24:53Z</time>
      </trkpt>
      <trkpt lat="47.84182" lon="6.8009">
        <ele>764.218201</ele>
        <time>2018-05-26T16:24:54Z</time>
      </trkpt>
      <trkpt lat="47.84185" lon="6.80091">
        <ele>764.271545</ele>
        <time>2018-05-26T16:24:55Z</time>
      </trkpt>
      <trkpt lat="47.84187" lon="6.80092">
        <ele>764.361084</ele>
        <time>2018-05-26T16:24:56Z</time>
      </trkpt>
      <trkpt lat="47.84189" lon="6.80093">
        <ele>764.441589</ele>
        <time>2018-05-26T16:24:57Z</time>
      </trkpt>
      <trkpt lat="47.84192" lon="6.80093">
        <ele>764.603821</ele>
        <time>2018-05-26T16:24:58Z</time>
      </trkpt>
      <trkpt lat="47.84194" lon="6.80094">
        <ele>764.727783</ele>
        <time>2018-05-26T16:24:59Z</time>
      </trkpt>
      <trkpt lat="47.84196" lon="6.80094">
        <ele>764.915833</ele>
        <time>2018-05-26T16:25:00Z</time>
      </trkpt>
      <trkpt lat="47.84198" lon="6.80095">
        <ele>765.040344</ele>
        <time>2018-05-26T16:25:01Z</time>
      </trkpt>
      <trkpt lat="47.842" lon="6.80096">
        <ele>765.162109</ele>
        <time>2018-05-26T16:25:02Z</time>
      </trkpt>
      <trkpt lat="47.84203" lon="6.80097">
        <ele>765.275574</ele>
        <time>2018-05-26T16:25:03Z</time>
      </trkpt>
      <trkpt lat="47.84206" lon="6.80097">
        <ele>765.377258</ele>
        <time>2018-05-26T16:25:04Z</time>
      </trkpt>
      <trkpt lat="47.84208" lon="6.80098">
        <ele>765.466003</ele>
        <time>2018-05-26T16:25:05Z</time>
      </trkpt>
      <trkpt lat="47.84211" lon="6.80098">
        <ele>765.584229</ele>
        <time>2018-05-26T16:25:06Z</time>
      </trkpt>
      <trkpt lat="47.84214" lon="6.80098">
        <ele>765.656677</ele>
        <time>2018-05-26T16:25:07Z</time>
      </trkpt>
      <trkpt lat="47.84216" lon="6.80099">
        <ele>765.757629</ele>
        <time>2018-05-26T16:25:08Z</time>
      </trkpt>
      <trkpt lat="47.84218" lon="6.80099">
        <ele>765.818848</ele>
        <time>2018-05-26T16:25:09Z</time>
      </trkpt>
      <trkpt lat="47.84221" lon="6.801">
        <ele>765.900452</ele>
        <time>2018-05-26T16:25:10Z</time>
      </trkpt>
      <trkpt lat="47.84223" lon="6.801">
        <ele>765.953796</ele>
        <time>2018-05-26T16:25:11Z</time>
      </trkpt>
      <trkpt lat="47.84226" lon="6.80101">
        <ele>766.05304</ele>
        <time>2018-05-26T16:25:12Z</time>
      </trkpt>
      <trkpt lat="47.84228" lon="6.80101">
        <ele>766.130127</ele>
        <time>2018-05-26T16:25:13Z</time>
      </trkpt>
      <trkpt lat="47.8423" lon="6.80102">
        <ele>766.207947</ele>
        <time>2018-05-26T16:25:14Z</time>
      </trkpt>
      <trkpt lat="47.84232" lon="6.80102">
        <ele>766.320374</ele>
        <time>2018-05-26T16:25:15Z</time>
      </trkpt>
      <trkpt lat="47.84234" lon="6.80102">
        <ele>766.400085</ele>
        <time>2018-05-26T16:25:16Z</time>
      </trkpt>
      <trkpt lat="47.84237" lon="6.80103">
        <ele>766.527832</ele>
        <time>2018-05-26T16:25:17Z</time>
      </trkpt>
      <trkpt lat="47.8424" lon="6.80104">
        <ele>766.610657</ele>
        <time>2018-05-26T16:25:18Z</time>
      </trkpt>
      <trkpt lat="47.84242" lon="6.80104">
        <ele>766.715149</ele>
        <time>2018-05-26T16:25:19Z</time>
      </trkpt>
      <trkpt lat="47.84244" lon="6.80104">
        <ele>766.774414</ele>
        <time>2018-05-26T16:25:20Z</time>
      </trkpt>
      <trkpt lat="47.84247" lon="6.80104">
        <ele>766.853333</ele>
        <time>2018-05-26T16:25:21Z</time>
      </trkpt>
      <trkpt lat="47.84249" lon="6.80104">
        <ele>766.907898</ele>
        <time>2018-05-26T16:25:22Z</time>
      </trkpt>
      <trkpt lat="47.84252" lon="6.80105">
        <ele>766.991882</ele>
        <time>2018-05-26T16:25:23Z</time>
      </trkpt>
      <trkpt lat="47.84255" lon="6.80106">
        <ele>767.04248</ele>
        <time>2018-05-26T16:25:24Z</time>
      </trkpt>
      <trkpt lat="47.84257" lon="6.80106">
        <ele>767.092285</ele>
        <time>2018-05-26T16:25:25Z</time>
      </trkpt>
      <trkpt lat="47.8426" lon="6.80107">
        <ele>767.178711</ele>
        <time>2018-05-26T16:25:26Z</time>
      </trkpt>
      <trkpt lat="47.84262" lon="6.80107">
        <ele>767.249207</ele>
        <time>2018-05-26T16:25:27Z</time>
      </trkpt>
      <trkpt lat="47.84264" lon="6.80107">
        <ele>767.370422</ele>
        <time>2018-05-26T16:25:28Z</time>
      </trkpt>
      <trkpt lat="47.84266" lon="6.80107">
        <ele>767.457458</ele>
        <time>2018-05-26T16:25:29Z</time>
      </trkpt>
      <trkpt lat="47.84269" lon="6.80108">
        <ele>767.592041</ele>
        <time>2018-05-26T16:25:30Z</time>
      </trkpt>
      <trkpt lat="47.84271" lon="6.80109">
        <ele>767.68573</ele>
        <time>2018-05-26T16:25:31Z</time>
      </trkpt>
      <trkpt lat="47.84273" lon="6.8011">
        <ele>767.781738</ele>
        <time>2018-05-26T16:25:32Z</time>
      </trkpt>
      <trkpt lat="47.84275" lon="6.80111">
        <ele>767.910645</ele>
        <time>2018-05-26T16:25:33Z</time>
      </trkpt>
      <trkpt lat="47.84277" lon="6.80112">
        <ele>767.987</ele>
        <time>2018-05-26T16:25:34Z</time>
      </trkpt>
      <trkpt lat="47.84279" lon="6.80112">
        <ele>768.099121</ele>
        <time>2018-05-26T16:25:35Z</time>
      </trkpt>
      <trkpt lat="47.84282" lon="6.80113">
        <ele>768.167297</ele>
        <time>2018-05-26T16:25:36Z</time>
      </trkpt>
      <trkpt lat="47.84283" lon="6.80114">
        <ele>768.228271</ele>
        <time>2018-05-26T16:25:37Z</time>
      </trkpt>
      <trkpt lat="47.84285" lon="6.80116">
        <ele>768.312988</ele>
        <time>2018-05-26T16:25:38Z</time>
      </trkpt>
      <trkpt lat="47.84287" lon="6.80118">
        <ele>768.375732</ele>
        <time>2018-05-26T16:25:39Z</time>
      </trkpt>
      <trkpt lat="47.84289" lon="6.80119">
        <ele>768.47345</ele>
        <time>2018-05-26T16:25:40Z</time>
      </trkpt>
      <trkpt lat="47.84292" lon="6.8012">
        <ele>768.528564</ele>
        <time>2018-05-26T16:25:41Z</time>
      </trkpt>
      <trkpt lat="47.84295" lon="6.80122">
        <ele>768.595032</ele>
        <time>2018-05-26T16:25:42Z</time>
      </trkpt>
      <trkpt lat="47.84296" lon="6.80124">
        <ele>768.641785</ele>
        <time>2018-05-26T16:25:43Z</time>
      </trkpt>
      <trkpt lat="47.84299" lon="6.80127">
        <ele>768.698792</ele>
        <time>2018-05-26T16:25:44Z</time>
      </trkpt>
      <trkpt lat="47.84301" lon="6.80129">
        <ele>768.804749</ele>
        <time>2018-05-26T16:25:45Z</time>
      </trkpt>
      <trkpt lat="47.84303" lon="6.8013">
        <ele>768.889221</ele>
        <time>2018-05-26T16:25:46Z</time>
      </trkpt>
      <trkpt lat="47.84306" lon="6.8013">
        <ele>769.038086</ele>
        <time>2018-05-26T16:25:47Z</time>
      </trkpt>
      <trkpt lat="47.84308" lon="6.80131">
        <ele>769.154236</ele>
        <time>2018-05-26T16:25:48Z</time>
      </trkpt>
      <trkpt lat="47.84309" lon="6.80133">
        <ele>769.34668</ele>
        <time>2018-05-26T16:25:49Z</time>
      </trkpt>
      <trkpt lat="47.84311" lon="6.80134">
        <ele>769.478088</ele>
        <time>2018-05-26T16:25:50Z</time>
      </trkpt>
      <trkpt lat="47.84313" lon="6.80135">
        <ele>769.609924</ele>
        <time>2018-05-26T16:25:51Z</time>
      </trkpt>
      <trkpt lat="47.84315" lon="6.80136">
        <ele>769.80957</ele>
        <time>2018-05-26T16:25:52Z</time>
      </trkpt>
      <trkpt lat="47.84316" lon="6.80136">
        <ele>769.953552</ele>
        <time>2018-05-26T16:25:53Z</time>
      </trkpt>
      <trkpt lat="47.84318" lon="6.80136">
        <ele>770.189697</ele>
        <time>2018-05-26T16:25:54Z</time>
      </trkpt>
      <trkpt lat="47.84319" lon="6.80136">
        <ele>770.35376</ele>
        <time>2018-05-26T16:25:55Z</time>
      </trkpt>
      <trkpt lat="47.84322" lon="6.80137">
        <ele>770.52179</ele>
        <time>2018-05-26T16:25:56Z</time>
      </trkpt>
      <trkpt lat="47.84323" lon="6.80139">
        <ele>770.796204</ele>
        <time>2018-05-26T16:25:57Z</time>
      </trkpt>
      <trkpt lat="47.84325" lon="6.8014">
        <ele>770.995361</ele>
        <time>2018-05-26T16:25:58Z</time>
      </trkpt>
      <trkpt lat="47.84326" lon="6.80142">
        <ele>771.30249</ele>
        <time>2018-05-26T16:25:59Z</time>
      </trkpt>
      <trkpt lat="47.84327" lon="6.80142">
        <ele>771.497559</ele>
        <time>2018-05-26T16:26:00Z</time>
      </trkpt>
      <trkpt lat="47.84328" lon="6.80142">
        <ele>771.764099</ele>
        <time>2018-05-26T16:26:01Z</time>
      </trkpt>
      <trkpt lat="47.8433" lon="6.80142">
        <ele>771.92511</ele>
        <time>2018-05-26T16:26:02Z</time>
      </trkpt>
      <trkpt lat="47.84331" lon="6.80141">
        <ele>772.139832</ele>
        <time>2018-05-26T16:26:03Z</time>
      </trkpt>
      <trkpt lat="47.84332" lon="6.80141">
        <ele>772.204285</ele>
        <time>2018-05-26T16:26:04Z</time>
      </trkpt>
      <trkpt lat="47.84338" lon="6.80151">
        <ele>772.666565</ele>
        <time>2018-05-26T16:26:10Z</time>
      </trkpt>
      <trkpt lat="47.8434" lon="6.80156">
        <ele>772.628662</ele>
        <time>2018-05-26T16:26:12Z</time>
      </trkpt>
      <trkpt lat="47.84342" lon="6.80161">
        <ele>772.500061</ele>
        <time>2018-05-26T16:26:13Z</time>
      </trkpt>
      <trkpt lat="47.84345" lon="6.80166">
        <ele>772.367676</ele>
        <time>2018-05-26T16:26:14Z</time>
      </trkpt>
      <trkpt lat="47.84347" lon="6.80171">
        <ele>772.191956</ele>
        <time>2018-05-26T16:26:15Z</time>
      </trkpt>
      <trkpt lat="47.84351" lon="6.80176">
        <ele>771.848328</ele>
        <time>2018-05-26T16:26:16Z</time>
      </trkpt>
      <trkpt lat="47.84354" lon="6.80182">
        <ele>771.558411</ele>
        <time>2018-05-26T16:26:17Z</time>
      </trkpt>
      <trkpt lat="47.84358" lon="6.80189">
        <ele>771.04541</ele>
        <time>2018-05-26T16:26:18Z</time>
      </trkpt>
      <trkpt lat="47.84362" lon="6.80195">
        <ele>770.658997</ele>
        <time>2018-05-26T16:26:19Z</time>
      </trkpt>
      <trkpt lat="47.84366" lon="6.80202">
        <ele>770.244934</ele>
        <time>2018-05-26T16:26:20Z</time>
      </trkpt>
      <trkpt lat="47.8437" lon="6.80207">
        <ele>769.606201</ele>
        <time>2018-05-26T16:26:21Z</time>
      </trkpt>
      <trkpt lat="47.84374" lon="6.80214">
        <ele>769.1922</ele>
        <time>2018-05-26T16:26:22Z</time>
      </trkpt>
      <trkpt lat="47.84379" lon="6.8022">
        <ele>768.598206</ele>
        <time>2018-05-26T16:26:23Z</time>
      </trkpt>
      <trkpt lat="47.84383" lon="6.80226">
        <ele>768.22467</ele>
        <time>2018-05-26T16:26:24Z</time>
      </trkpt>
      <trkpt lat="47.84388" lon="6.80231">
        <ele>767.698914</ele>
        <time>2018-05-26T16:26:25Z</time>
      </trkpt>
      <trkpt lat="47.84392" lon="6.80236">
        <ele>767.357849</ele>
        <time>2018-05-26T16:26:26Z</time>
      </trkpt>
      <trkpt lat="47.84396" lon="6.80241">
        <ele>767.015808</ele>
        <time>2018-05-26T16:26:27Z</time>
      </trkpt>
      <trkpt lat="47.844" lon="6.80246">
        <ele>766.516907</ele>
        <time>2018-05-26T16:26:28Z</time>
      </trkpt>
      <trkpt lat="47.84404" lon="6.80251">
        <ele>766.197327</ele>
        <time>2018-05-26T16:26:29Z</time>
      </trkpt>
      <trkpt lat="47.84408" lon="6.80255">
        <ele>765.755615</ele>
        <time>2018-05-26T16:26:30Z</time>
      </trkpt>
      <trkpt lat="47.84413" lon="6.80259">
        <ele>765.502441</ele>
        <time>2018-05-26T16:26:31Z</time>
      </trkpt>
      <trkpt lat="47.84417" lon="6.80262">
        <ele>765.293518</ele>
        <time>2018-05-26T16:26:32Z</time>
      </trkpt>
      <trkpt lat="47.84421" lon="6.80266">
        <ele>765.056702</ele>
        <time>2018-05-26T16:26:33Z</time>
      </trkpt>
      <trkpt lat="47.84425" lon="6.80269">
        <ele>764.938049</ele>
        <time>2018-05-26T16:26:34Z</time>
      </trkpt>
      <trkpt lat="47.84429" lon="6.80272">
        <ele>764.784668</ele>
        <time>2018-05-26T16:26:35Z</time>
      </trkpt>
      <trkpt lat="47.84433" lon="6.80276">
        <ele>764.696289</ele>
        <time>2018-05-26T16:26:36Z</time>
      </trkpt>
      <trkpt lat="47.84437" lon="6.8028">
        <ele>764.595947</ele>
        <time>2018-05-26T16:26:37Z</time>
      </trkpt>
      <trkpt lat="47.84442" lon="6.80282">
        <ele>764.539795</ele>
        <time>2018-05-26T16:26:38Z</time>
      </trkpt>
      <trkpt lat="47.84446" lon="6.80285">
        <ele>764.482422</ele>
        <time>2018-05-26T16:26:39Z</time>
      </trkpt>
      <trkpt lat="47.84449" lon="6.80288">
        <ele>764.37384</ele>
        <time>2018-05-26T16:26:40Z</time>
      </trkpt>
      <trkpt lat="47.84452" lon="6.8029">
        <ele>764.301941</ele>
        <time>2018-05-26T16:26:41Z</time>
      </trkpt>
      <trkpt lat="47.84456" lon="6.80293">
        <ele>764.215332</ele>
        <time>2018-05-26T16:26:42Z</time>
      </trkpt>
      <trkpt lat="47.84459" lon="6.80296">
        <ele>764.182434</ele>
        <time>2018-05-26T16:26:43Z</time>
      </trkpt>
      <trkpt lat="47.84463" lon="6.80299">
        <ele>764.153381</ele>
        <time>2018-05-26T16:26:44Z</time>
      </trkpt>
      <trkpt lat="47.84465" lon="6.80302">
        <ele>764.147034</ele>
        <time>2018-05-26T16:26:45Z</time>
      </trkpt>
      <trkpt lat="47.84469" lon="6.80304">
        <ele>764.149658</ele>
        <time>2018-05-26T16:26:46Z</time>
      </trkpt>
      <trkpt lat="47.84471" lon="6.80307">
        <ele>764.169922</ele>
        <time>2018-05-26T16:26:47Z</time>
      </trkpt>
      <trkpt lat="47.84474" lon="6.80309">
        <ele>764.249023</ele>
        <time>2018-05-26T16:26:48Z</time>
      </trkpt>
      <trkpt lat="47.84477" lon="6.80311">
        <ele>764.319092</ele>
        <time>2018-05-26T16:26:49Z</time>
      </trkpt>
      <trkpt lat="47.84481" lon="6.80313">
        <ele>764.434387</ele>
        <time>2018-05-26T16:26:50Z</time>
      </trkpt>
      <trkpt lat="47.84484" lon="6.80316">
        <ele>764.511902</ele>
        <time>2018-05-26T16:26:51Z</time>
      </trkpt>
      <trkpt lat="47.84488" lon="6.80318">
        <ele>764.592468</ele>
        <time>2018-05-26T16:26:52Z</time>
      </trkpt>
      <trkpt lat="47.84491" lon="6.8032">
        <ele>764.707336</ele>
        <time>2018-05-26T16:26:53Z</time>
      </trkpt>
      <trkpt lat="47.84494" lon="6.80322">
        <ele>764.770508</ele>
        <time>2018-05-26T16:26:54Z</time>
      </trkpt>
      <trkpt lat="47.84498" lon="6.80324">
        <ele>764.843201</ele>
        <time>2018-05-26T16:26:55Z</time>
      </trkpt>
      <trkpt lat="47.84501" lon="6.80326">
        <ele>764.886902</ele>
        <time>2018-05-26T16:26:56Z</time>
      </trkpt>
      <trkpt lat="47.84504" lon="6.80327">
        <ele>764.953857</ele>
        <time>2018-05-26T16:26:57Z</time>
      </trkpt>
      <trkpt lat="47.84506" lon="6.80329">
        <ele>764.991394</ele>
        <time>2018-05-26T16:26:58Z</time>
      </trkpt>
      <trkpt lat="47.84509" lon="6.80331">
        <ele>765.018799</ele>
        <time>2018-05-26T16:26:59Z</time>
      </trkpt>
      <trkpt lat="47.84512" lon="6.80334">
        <ele>765.069763</ele>
        <time>2018-05-26T16:27:00Z</time>
      </trkpt>
      <trkpt lat="47.84514" lon="6.80336">
        <ele>765.112976</ele>
        <time>2018-05-26T16:27:01Z</time>
      </trkpt>
      <trkpt lat="47.84517" lon="6.80338">
        <ele>765.177429</ele>
        <time>2018-05-26T16:27:02Z</time>
      </trkpt>
      <trkpt lat="47.84519" lon="6.8034">
        <ele>765.217041</ele>
        <time>2018-05-26T16:27:03Z</time>
      </trkpt>
      <trkpt lat="47.84522" lon="6.80343">
        <ele>765.263977</ele>
        <time>2018-05-26T16:27:04Z</time>
      </trkpt>
      <trkpt lat="47.84524" lon="6.80345">
        <ele>765.290833</ele>
        <time>2018-05-26T16:27:05Z</time>
      </trkpt>
      <trkpt lat="47.84526" lon="6.80346">
        <ele>765.350769</ele>
        <time>2018-05-26T16:27:06Z</time>
      </trkpt>
      <trkpt lat="47.8453" lon="6.80348">
        <ele>765.417786</ele>
        <time>2018-05-26T16:27:07Z</time>
      </trkpt>
      <trkpt lat="47.84533" lon="6.8035">
        <ele>765.533203</ele>
        <time>2018-05-26T16:27:08Z</time>
      </trkpt>
      <trkpt lat="47.84535" lon="6.80352">
        <ele>765.616211</ele>
        <time>2018-05-26T16:27:09Z</time>
      </trkpt>
      <trkpt lat="47.84538" lon="6.80353">
        <ele>765.697327</ele>
        <time>2018-05-26T16:27:10Z</time>
      </trkpt>
      <trkpt lat="47.8454" lon="6.80356">
        <ele>765.80835</ele>
        <time>2018-05-26T16:27:11Z</time>
      </trkpt>
      <trkpt lat="47.84543" lon="6.80357">
        <ele>765.87915</ele>
        <time>2018-05-26T16:27:12Z</time>
      </trkpt>
      <trkpt lat="47.84546" lon="6.80358">
        <ele>765.987488</ele>
        <time>2018-05-26T16:27:13Z</time>
      </trkpt>
      <trkpt lat="47.84549" lon="6.80359">
        <ele>766.059998</ele>
        <time>2018-05-26T16:27:14Z</time>
      </trkpt>
      <trkpt lat="47.84551" lon="6.80361">
        <ele>766.177979</ele>
        <time>2018-05-26T16:27:15Z</time>
      </trkpt>
      <trkpt lat="47.84554" lon="6.80363">
        <ele>766.274231</ele>
        <time>2018-05-26T16:27:16Z</time>
      </trkpt>
      <trkpt lat="47.84557" lon="6.80365">
        <ele>766.437012</ele>
        <time>2018-05-26T16:27:17Z</time>
      </trkpt>
      <trkpt lat="47.8456" lon="6.80366">
        <ele>766.541321</ele>
        <time>2018-05-26T16:27:18Z</time>
      </trkpt>
      <trkpt lat="47.84563" lon="6.80367">
        <ele>766.634766</ele>
        <time>2018-05-26T16:27:19Z</time>
      </trkpt>
      <trkpt lat="47.84566" lon="6.80367">
        <ele>766.760193</ele>
        <time>2018-05-26T16:27:20Z</time>
      </trkpt>
      <trkpt lat="47.84568" lon="6.80369">
        <ele>766.837952</ele>
        <time>2018-05-26T16:27:21Z</time>
      </trkpt>
      <trkpt lat="47.84571" lon="6.8037">
        <ele>766.949402</ele>
        <time>2018-05-26T16:27:22Z</time>
      </trkpt>
      <trkpt lat="47.84574" lon="6.80371">
        <ele>767.018372</ele>
        <time>2018-05-26T16:27:23Z</time>
      </trkpt>
      <trkpt lat="47.84577" lon="6.80372">
        <ele>767.08197</ele>
        <time>2018-05-26T16:27:24Z</time>
      </trkpt>
      <trkpt lat="47.8458" lon="6.80373">
        <ele>767.171875</ele>
        <time>2018-05-26T16:27:25Z</time>
      </trkpt>
      <trkpt lat="47.84583" lon="6.80373">
        <ele>767.222473</ele>
        <time>2018-05-26T16:27:26Z</time>
      </trkpt>
      <trkpt lat="47.84586" lon="6.80373">
        <ele>767.283447</ele>
        <time>2018-05-26T16:27:27Z</time>
      </trkpt>
      <trkpt lat="47.8459" lon="6.80373">
        <ele>767.3125</ele>
        <time>2018-05-26T16:27:28Z</time>
      </trkpt>
      <trkpt lat="47.84593" lon="6.80374">
        <ele>767.342041</ele>
        <time>2018-05-26T16:27:29Z</time>
      </trkpt>
      <trkpt lat="47.84596" lon="6.80374">
        <ele>767.355774</ele>
        <time>2018-05-26T16:27:30Z</time>
      </trkpt>
      <trkpt lat="47.84599" lon="6.80374">
        <ele>767.366028</ele>
        <time>2018-05-26T16:27:31Z</time>
      </trkpt>
      <trkpt lat="47.84602" lon="6.80374">
        <ele>767.383789</ele>
        <time>2018-05-26T16:27:32Z</time>
      </trkpt>
      <trkpt lat="47.84605" lon="6.80374">
        <ele>767.400391</ele>
        <time>2018-05-26T16:27:33Z</time>
      </trkpt>
      <trkpt lat="47.84609" lon="6.80375">
        <ele>767.431152</ele>
        <time>2018-05-26T16:27:34Z</time>
      </trkpt>
      <trkpt lat="47.84612" lon="6.80375">
        <ele>767.454407</ele>
        <time>2018-05-26T16:27:35Z</time>
      </trkpt>
      <trkpt lat="47.84615" lon="6.80376">
        <ele>767.480408</ele>
        <time>2018-05-26T16:27:36Z</time>
      </trkpt>
      <trkpt lat="47.84618" lon="6.80377">
        <ele>767.519043</ele>
        <time>2018-05-26T16:27:37Z</time>
      </trkpt>
      <trkpt lat="47.84621" lon="6.80377">
        <ele>767.542236</ele>
        <time>2018-05-26T16:27:38Z</time>
      </trkpt>
      <trkpt lat="47.84625" lon="6.80378">
        <ele>767.578125</ele>
        <time>2018-05-26T16:27:39Z</time>
      </trkpt>
      <trkpt lat="47.84628" lon="6.80377">
        <ele>767.618591</ele>
        <time>2018-05-26T16:27:40Z</time>
      </trkpt>
      <trkpt lat="47.84631" lon="6.80377">
        <ele>767.709534</ele>
        <time>2018-05-26T16:27:41Z</time>
      </trkpt>
      <trkpt lat="47.84635" lon="6.80378">
        <ele>767.783997</ele>
        <time>2018-05-26T16:27:42Z</time>
      </trkpt>
      <trkpt lat="47.84638" lon="6.80377">
        <ele>767.915955</ele>
        <time>2018-05-26T16:27:43Z</time>
      </trkpt>
      <trkpt lat="47.8464" lon="6.80377">
        <ele>768.014832</ele>
        <time>2018-05-26T16:27:44Z</time>
      </trkpt>
      <trkpt lat="47.84643" lon="6.80376">
        <ele>768.11084</ele>
        <time>2018-05-26T16:27:45Z</time>
      </trkpt>
      <trkpt lat="47.84646" lon="6.80375">
        <ele>768.234375</ele>
        <time>2018-05-26T16:27:46Z</time>
      </trkpt>
      <trkpt lat="47.84649" lon="6.80373">
        <ele>768.305237</ele>
        <time>2018-05-26T16:27:47Z</time>
      </trkpt>
      <trkpt lat="47.84651" lon="6.80371">
        <ele>768.413757</ele>
        <time>2018-05-26T16:27:48Z</time>
      </trkpt>
      <trkpt lat="47.84654" lon="6.8037">
        <ele>768.494385</ele>
        <time>2018-05-26T16:27:49Z</time>
      </trkpt>
      <trkpt lat="47.84657" lon="6.80368">
        <ele>768.634338</ele>
        <time>2018-05-26T16:27:50Z</time>
      </trkpt>
      <trkpt lat="47.84658" lon="6.80365">
        <ele>768.741028</ele>
        <time>2018-05-26T16:27:51Z</time>
      </trkpt>
      <trkpt lat="47.84661" lon="6.80363">
        <ele>768.908997</ele>
        <time>2018-05-26T16:27:52Z</time>
      </trkpt>
      <trkpt lat="47.84664" lon="6.8036">
        <ele>769.019775</ele>
        <time>2018-05-26T16:27:53Z</time>
      </trkpt>
      <trkpt lat="47.84666" lon="6.80357">
        <ele>769.118164</ele>
        <time>2018-05-26T16:27:54Z</time>
      </trkpt>
      <trkpt lat="47.84669" lon="6.80353">
        <ele>769.232117</ele>
        <time>2018-05-26T16:27:55Z</time>
      </trkpt>
      <trkpt lat="47.84672" lon="6.8035">
        <ele>769.281189</ele>
        <time>2018-05-26T16:27:56Z</time>
      </trkpt>
      <trkpt lat="47.84674" lon="6.80346">
        <ele>769.34375</ele>
        <time>2018-05-26T16:27:57Z</time>
      </trkpt>
      <trkpt lat="47.84676" lon="6.80342">
        <ele>769.381836</ele>
        <time>2018-05-26T16:27:58Z</time>
      </trkpt>
      <trkpt lat="47.84678" lon="6.80337">
        <ele>769.429504</ele>
        <time>2018-05-26T16:27:59Z</time>
      </trkpt>
      <trkpt lat="47.8468" lon="6.80333">
        <ele>769.45636</ele>
        <time>2018-05-26T16:28:00Z</time>
      </trkpt>
      <trkpt lat="47.84681" lon="6.80328">
        <ele>769.501221</ele>
        <time>2018-05-26T16:28:01Z</time>
      </trkpt>
      <trkpt lat="47.84683" lon="6.80323">
        <ele>769.528748</ele>
        <time>2018-05-26T16:28:02Z</time>
      </trkpt>
      <trkpt lat="47.84684" lon="6.80318">
        <ele>769.541443</ele>
        <time>2018-05-26T16:28:03Z</time>
      </trkpt>
      <trkpt lat="47.84686" lon="6.80313">
        <ele>769.548645</ele>
        <time>2018-05-26T16:28:04Z</time>
      </trkpt>
      <trkpt lat="47.84687" lon="6.80308">
        <ele>769.553528</ele>
        <time>2018-05-26T16:28:05Z</time>
      </trkpt>
      <trkpt lat="47.84687" lon="6.80303">
        <ele>769.5578</ele>
        <time>2018-05-26T16:28:06Z</time>
      </trkpt>
      <trkpt lat="47.84689" lon="6.80298">
        <ele>769.569336</ele>
        <time>2018-05-26T16:28:07Z</time>
      </trkpt>
      <trkpt lat="47.8469" lon="6.80293">
        <ele>769.578796</ele>
        <time>2018-05-26T16:28:08Z</time>
      </trkpt>
      <trkpt lat="47.84691" lon="6.80287">
        <ele>769.576904</ele>
        <time>2018-05-26T16:28:09Z</time>
      </trkpt>
      <trkpt lat="47.84691" lon="6.80281">
        <ele>769.546387</ele>
        <time>2018-05-26T16:28:10Z</time>
      </trkpt>
      <trkpt lat="47.84692" lon="6.80275">
        <ele>769.494385</ele>
        <time>2018-05-26T16:28:11Z</time>
      </trkpt>
      <trkpt lat="47.84694" lon="6.80268">
        <ele>769.406921</ele>
        <time>2018-05-26T16:28:12Z</time>
      </trkpt>
      <trkpt lat="47.84694" lon="6.80261">
        <ele>769.198486</ele>
        <time>2018-05-26T16:28:13Z</time>
      </trkpt>
      <trkpt lat="47.84694" lon="6.80253">
        <ele>769.025391</ele>
        <time>2018-05-26T16:28:14Z</time>
      </trkpt>
      <trkpt lat="47.84695" lon="6.80245">
        <ele>768.71637</ele>
        <time>2018-05-26T16:28:15Z</time>
      </trkpt>
      <trkpt lat="47.84695" lon="6.80237">
        <ele>768.487</ele>
        <time>2018-05-26T16:28:16Z</time>
      </trkpt>
      <trkpt lat="47.84695" lon="6.80229">
        <ele>768.126282</ele>
        <time>2018-05-26T16:28:17Z</time>
      </trkpt>
      <trkpt lat="47.84695" lon="6.8022">
        <ele>767.894531</ele>
        <time>2018-05-26T16:28:18Z</time>
      </trkpt>
      <trkpt lat="47.84695" lon="6.80212">
        <ele>767.52533</ele>
        <time>2018-05-26T16:28:19Z</time>
      </trkpt>
      <trkpt lat="47.84695" lon="6.80203">
        <ele>767.24823</ele>
        <time>2018-05-26T16:28:20Z</time>
      </trkpt>
      <trkpt lat="47.84694" lon="6.80195">
        <ele>766.952637</ele>
        <time>2018-05-26T16:28:21Z</time>
      </trkpt>
      <trkpt lat="47.84694" lon="6.80186">
        <ele>766.501465</ele>
        <time>2018-05-26T16:28:22Z</time>
      </trkpt>
      <trkpt lat="47.84693" lon="6.80176">
        <ele>766.193787</ele>
        <time>2018-05-26T16:28:23Z</time>
      </trkpt>
      <trkpt lat="47.84693" lon="6.80168">
        <ele>765.716003</ele>
        <time>2018-05-26T16:28:24Z</time>
      </trkpt>
      <trkpt lat="47.84694" lon="6.8016">
        <ele>765.386963</ele>
        <time>2018-05-26T16:28:25Z</time>
      </trkpt>
      <trkpt lat="47.84694" lon="6.80154">
        <ele>764.875</ele>
        <time>2018-05-26T16:28:26Z</time>
      </trkpt>
      <trkpt lat="47.84695" lon="6.80147">
        <ele>764.544739</ele>
        <time>2018-05-26T16:28:27Z</time>
      </trkpt>
      <trkpt lat="47.84696" lon="6.80141">
        <ele>764.092468</ele>
        <time>2018-05-26T16:28:28Z</time>
      </trkpt>
      <trkpt lat="47.84697" lon="6.80135">
        <ele>763.824951</ele>
        <time>2018-05-26T16:28:29Z</time>
      </trkpt>
      <trkpt lat="47.84698" lon="6.8013">
        <ele>763.496521</ele>
        <time>2018-05-26T16:28:30Z</time>
      </trkpt>
      <trkpt lat="47.84699" lon="6.80124">
        <ele>763.327637</ele>
        <time>2018-05-26T16:28:31Z</time>
      </trkpt>
      <trkpt lat="47.847" lon="6.80118">
        <ele>763.112305</ele>
        <time>2018-05-26T16:28:32Z</time>
      </trkpt>
      <trkpt lat="47.84702" lon="6.80112">
        <ele>762.96991</ele>
        <time>2018-05-26T16:28:33Z</time>
      </trkpt>
      <trkpt lat="47.84704" lon="6.80106">
        <ele>762.832214</ele>
        <time>2018-05-26T16:28:34Z</time>
      </trkpt>
      <trkpt lat="47.84707" lon="6.801">
        <ele>762.629944</ele>
        <time>2018-05-26T16:28:35Z</time>
      </trkpt>
      <trkpt lat="47.84709" lon="6.80094">
        <ele>762.495117</ele>
        <time>2018-05-26T16:28:36Z</time>
      </trkpt>
      <trkpt lat="47.84712" lon="6.80087">
        <ele>762.284607</ele>
        <time>2018-05-26T16:28:37Z</time>
      </trkpt>
      <trkpt lat="47.84713" lon="6.80081">
        <ele>762.140076</ele>
        <time>2018-05-26T16:28:38Z</time>
      </trkpt>
      <trkpt lat="47.84716" lon="6.80074">
        <ele>761.919922</ele>
        <time>2018-05-26T16:28:39Z</time>
      </trkpt>
      <trkpt lat="47.84718" lon="6.80068">
        <ele>761.768066</ele>
        <time>2018-05-26T16:28:40Z</time>
      </trkpt>
      <trkpt lat="47.8472" lon="6.80061">
        <ele>761.523132</ele>
        <time>2018-05-26T16:28:41Z</time>
      </trkpt>
      <trkpt lat="47.84722" lon="6.80054">
        <ele>761.346436</ele>
        <time>2018-05-26T16:28:42Z</time>
      </trkpt>
      <trkpt lat="47.84723" lon="6.80047">
        <ele>761.160217</ele>
        <time>2018-05-26T16:28:43Z</time>
      </trkpt>
      <trkpt lat="47.84725" lon="6.8004">
        <ele>760.864258</ele>
        <time>2018-05-26T16:28:44Z</time>
      </trkpt>
      <trkpt lat="47.84726" lon="6.80033">
        <ele>760.671631</ele>
        <time>2018-05-26T16:28:45Z</time>
      </trkpt>
      <trkpt lat="47.84728" lon="6.80025">
        <ele>760.398682</ele>
        <time>2018-05-26T16:28:46Z</time>
      </trkpt>
      <trkpt lat="47.84728" lon="6.80017">
        <ele>760.213928</ele>
        <time>2018-05-26T16:28:47Z</time>
      </trkpt>
      <trkpt lat="47.84729" lon="6.80009">
        <ele>759.911377</ele>
        <time>2018-05-26T16:28:48Z</time>
      </trkpt>
      <trkpt lat="47.84729" lon="6.8">
        <ele>759.70282</ele>
        <time>2018-05-26T16:28:49Z</time>
      </trkpt>
      <trkpt lat="47.84729" lon="6.79992">
        <ele>759.510315</ele>
        <time>2018-05-26T16:28:50Z</time>
      </trkpt>
      <trkpt lat="47.84729" lon="6.79983">
        <ele>759.238953</ele>
        <time>2018-05-26T16:28:51Z</time>
      </trkpt>
      <trkpt lat="47.84729" lon="6.79975">
        <ele>759.043945</ele>
        <time>2018-05-26T16:28:52Z</time>
      </trkpt>
      <trkpt lat="47.84729" lon="6.79966">
        <ele>758.700867</ele>
        <time>2018-05-26T16:28:53Z</time>
      </trkpt>
      <trkpt lat="47.84728" lon="6.79957">
        <ele>758.451355</ele>
        <time>2018-05-26T16:28:54Z</time>
      </trkpt>
      <trkpt lat="47.84729" lon="6.79948">
        <ele>758.196777</ele>
        <time>2018-05-26T16:28:55Z</time>
      </trkpt>
      <trkpt lat="47.8473" lon="6.7994">
        <ele>757.814453</ele>
        <time>2018-05-26T16:28:56Z</time>
      </trkpt>
      <trkpt lat="47.84731" lon="6.79931">
        <ele>757.540771</ele>
        <time>2018-05-26T16:28:57Z</time>
      </trkpt>
      <trkpt lat="47.84732" lon="6.79923">
        <ele>757.109802</ele>
        <time>2018-05-26T16:28:58Z</time>
      </trkpt>
      <trkpt lat="47.84734" lon="6.79915">
        <ele>756.834229</ele>
        <time>2018-05-26T16:28:59Z</time>
      </trkpt>
      <trkpt lat="47.84735" lon="6.79906">
        <ele>756.446045</ele>
        <time>2018-05-26T16:29:00Z</time>
      </trkpt>
      <trkpt lat="47.84736" lon="6.79898">
        <ele>756.175232</ele>
        <time>2018-05-26T16:29:01Z</time>
      </trkpt>
      <trkpt lat="47.84737" lon="6.79889">
        <ele>755.874451</ele>
        <time>2018-05-26T16:29:02Z</time>
      </trkpt>
      <trkpt lat="47.84738" lon="6.7988">
        <ele>755.370605</ele>
        <time>2018-05-26T16:29:03Z</time>
      </trkpt>
      <trkpt lat="47.84739" lon="6.79871">
        <ele>755.030945</ele>
        <time>2018-05-26T16:29:04Z</time>
      </trkpt>
      <trkpt lat="47.84739" lon="6.79862">
        <ele>754.537842</ele>
        <time>2018-05-26T16:29:05Z</time>
      </trkpt>
      <trkpt lat="47.8474" lon="6.79854">
        <ele>754.378662</ele>
        <time>2018-05-26T16:29:06Z</time>
      </trkpt>
      <trkpt lat="47.8474" lon="6.79846">
        <ele>754.084229</ele>
        <time>2018-05-26T16:29:07Z</time>
      </trkpt>
      <trkpt lat="47.84741" lon="6.79838">
        <ele>753.828918</ele>
        <time>2018-05-26T16:29:08Z</time>
      </trkpt>
      <trkpt lat="47.84742" lon="6.7983">
        <ele>753.609924</ele>
        <time>2018-05-26T16:29:09Z</time>
      </trkpt>
      <trkpt lat="47.84744" lon="6.79822">
        <ele>753.284973</ele>
        <time>2018-05-26T16:29:10Z</time>
      </trkpt>
      <trkpt lat="47.84746" lon="6.79814">
        <ele>753.039063</ele>
        <time>2018-05-26T16:29:11Z</time>
      </trkpt>
      <trkpt lat="47.84749" lon="6.79806">
        <ele>752.624512</ele>
        <time>2018-05-26T16:29:12Z</time>
      </trkpt>
      <trkpt lat="47.8475" lon="6.79797">
        <ele>752.351379</ele>
        <time>2018-05-26T16:29:13Z</time>
      </trkpt>
      <trkpt lat="47.84753" lon="6.79789">
        <ele>752.076904</ele>
        <time>2018-05-26T16:29:14Z</time>
      </trkpt>
      <trkpt lat="47.84756" lon="6.79782">
        <ele>751.652893</ele>
        <time>2018-05-26T16:29:15Z</time>
      </trkpt>
      <trkpt lat="47.84761" lon="6.79775">
        <ele>751.369446</ele>
        <time>2018-05-26T16:29:16Z</time>
      </trkpt>
      <trkpt lat="47.84765" lon="6.7977">
        <ele>750.977539</ele>
        <time>2018-05-26T16:29:17Z</time>
      </trkpt>
      <trkpt lat="47.8477" lon="6.79764">
        <ele>750.737549</ele>
        <time>2018-05-26T16:29:18Z</time>
      </trkpt>
      <trkpt lat="47.84775" lon="6.7976">
        <ele>750.406799</ele>
        <time>2018-05-26T16:29:19Z</time>
      </trkpt>
      <trkpt lat="47.8478" lon="6.79758">
        <ele>750.197021</ele>
        <time>2018-05-26T16:29:20Z</time>
      </trkpt>
      <trkpt lat="47.84785" lon="6.79757">
        <ele>750.001709</ele>
        <time>2018-05-26T16:29:21Z</time>
      </trkpt>
      <trkpt lat="47.84789" lon="6.79758">
        <ele>749.752136</ele>
        <time>2018-05-26T16:29:22Z</time>
      </trkpt>
      <trkpt lat="47.84794" lon="6.79759">
        <ele>749.621887</ele>
        <time>2018-05-26T16:29:23Z</time>
      </trkpt>
      <trkpt lat="47.84798" lon="6.79762">
        <ele>749.487793</ele>
        <time>2018-05-26T16:29:24Z</time>
      </trkpt>
      <trkpt lat="47.84802" lon="6.79765">
        <ele>749.444397</ele>
        <time>2018-05-26T16:29:25Z</time>
      </trkpt>
      <trkpt lat="47.84806" lon="6.79767">
        <ele>749.421387</ele>
        <time>2018-05-26T16:29:26Z</time>
      </trkpt>
      <trkpt lat="47.8481" lon="6.79769">
        <ele>749.399231</ele>
        <time>2018-05-26T16:29:27Z</time>
      </trkpt>
      <trkpt lat="47.84814" lon="6.79771">
        <ele>749.378906</ele>
        <time>2018-05-26T16:29:28Z</time>
      </trkpt>
      <trkpt lat="47.84818" lon="6.79773">
        <ele>749.338074</ele>
        <time>2018-05-26T16:29:29Z</time>
      </trkpt>
      <trkpt lat="47.84822" lon="6.79776">
        <ele>749.297668</ele>
        <time>2018-05-26T16:29:30Z</time>
      </trkpt>
      <trkpt lat="47.84826" lon="6.79778">
        <ele>749.249939</ele>
        <time>2018-05-26T16:29:31Z</time>
      </trkpt>
      <trkpt lat="47.84831" lon="6.7978">
        <ele>749.157288</ele>
        <time>2018-05-26T16:29:32Z</time>
      </trkpt>
      <trkpt lat="47.84835" lon="6.79783">
        <ele>749.0896</ele>
        <time>2018-05-26T16:29:33Z</time>
      </trkpt>
      <trkpt lat="47.8484" lon="6.79786">
        <ele>748.973816</ele>
        <time>2018-05-26T16:29:34Z</time>
      </trkpt>
      <trkpt lat="47.84844" lon="6.79789">
        <ele>748.889648</ele>
        <time>2018-05-26T16:29:35Z</time>
      </trkpt>
      <trkpt lat="47.84849" lon="6.79793">
        <ele>748.76886</ele>
        <time>2018-05-26T16:29:36Z</time>
      </trkpt>
      <trkpt lat="47.84853" lon="6.79796">
        <ele>748.693359</ele>
        <time>2018-05-26T16:29:37Z</time>
      </trkpt>
      <trkpt lat="47.84858" lon="6.798">
        <ele>748.617188</ele>
        <time>2018-05-26T16:29:38Z</time>
      </trkpt>
      <trkpt lat="47.84862" lon="6.79803">
        <ele>748.487793</ele>
        <time>2018-05-26T16:29:39Z</time>
      </trkpt>
      <trkpt lat="47.84866" lon="6.79807">
        <ele>748.402832</ele>
        <time>2018-05-26T16:29:40Z</time>
      </trkpt>
      <trkpt lat="47.8487" lon="6.7981">
        <ele>748.30072</ele>
        <time>2018-05-26T16:29:41Z</time>
      </trkpt>
      <trkpt lat="47.84874" lon="6.79813">
        <ele>748.254089</ele>
        <time>2018-05-26T16:29:42Z</time>
      </trkpt>
      <trkpt lat="47.84879" lon="6.79816">
        <ele>748.190002</ele>
        <time>2018-05-26T16:29:43Z</time>
      </trkpt>
      <trkpt lat="47.84883" lon="6.79819">
        <ele>748.14917</ele>
        <time>2018-05-26T16:29:44Z</time>
      </trkpt>
      <trkpt lat="47.84887" lon="6.79821">
        <ele>748.118408</ele>
        <time>2018-05-26T16:29:45Z</time>
      </trkpt>
      <trkpt lat="47.84892" lon="6.79823">
        <ele>748.093262</ele>
        <time>2018-05-26T16:29:46Z</time>
      </trkpt>
      <trkpt lat="47.84897" lon="6.79826">
        <ele>748.079529</ele>
        <time>2018-05-26T16:29:47Z</time>
      </trkpt>
      <trkpt lat="47.84901" lon="6.79828">
        <ele>748.05127</ele>
        <time>2018-05-26T16:29:48Z</time>
      </trkpt>
      <trkpt lat="47.84905" lon="6.79831">
        <ele>748.030273</ele>
        <time>2018-05-26T16:29:49Z</time>
      </trkpt>
      <trkpt lat="47.8491" lon="6.79833">
        <ele>748.005554</ele>
        <time>2018-05-26T16:29:50Z</time>
      </trkpt>
      <trkpt lat="47.84915" lon="6.79836">
        <ele>747.966064</ele>
        <time>2018-05-26T16:29:51Z</time>
      </trkpt>
      <trkpt lat="47.84919" lon="6.79838">
        <ele>747.935242</ele>
        <time>2018-05-26T16:29:52Z</time>
      </trkpt>
      <trkpt lat="47.84924" lon="6.7984">
        <ele>747.88678</ele>
        <time>2018-05-26T16:29:53Z</time>
      </trkpt>
      <trkpt lat="47.84928" lon="6.79842">
        <ele>747.851563</ele>
        <time>2018-05-26T16:29:54Z</time>
      </trkpt>
      <trkpt lat="47.84933" lon="6.79844">
        <ele>747.810852</ele>
        <time>2018-05-26T16:29:55Z</time>
      </trkpt>
      <trkpt lat="47.84938" lon="6.79846">
        <ele>747.737549</ele>
        <time>2018-05-26T16:29:56Z</time>
      </trkpt>
      <trkpt lat="47.84942" lon="6.79848">
        <ele>747.691406</ele>
        <time>2018-05-26T16:29:57Z</time>
      </trkpt>
      <trkpt lat="47.84946" lon="6.79849">
        <ele>747.634949</ele>
        <time>2018-05-26T16:29:58Z</time>
      </trkpt>
      <trkpt lat="47.84951" lon="6.79849">
        <ele>747.603821</ele>
        <time>2018-05-26T16:29:59Z</time>
      </trkpt>
      <trkpt lat="47.84956" lon="6.79851">
        <ele>747.564209</ele>
        <time>2018-05-26T16:30:00Z</time>
      </trkpt>
      <trkpt lat="47.8496" lon="6.79852">
        <ele>747.535583</ele>
        <time>2018-05-26T16:30:01Z</time>
      </trkpt>
      <trkpt lat="47.84964" lon="6.79853">
        <ele>747.513184</ele>
        <time>2018-05-26T16:30:02Z</time>
      </trkpt>
      <trkpt lat="47.84968" lon="6.79853">
        <ele>747.483826</ele>
        <time>2018-05-26T16:30:03Z</time>
      </trkpt>
      <trkpt lat="47.84973" lon="6.79853">
        <ele>747.457031</ele>
        <time>2018-05-26T16:30:04Z</time>
      </trkpt>
      <trkpt lat="47.84978" lon="6.79854">
        <ele>747.385071</ele>
        <time>2018-05-26T16:30:05Z</time>
      </trkpt>
      <trkpt lat="47.84982" lon="6.79855">
        <ele>747.31842</ele>
        <time>2018-05-26T16:30:06Z</time>
      </trkpt>
      <trkpt lat="47.84987" lon="6.79855">
        <ele>747.24884</ele>
        <time>2018-05-26T16:30:07Z</time>
      </trkpt>
      <trkpt lat="47.84991" lon="6.79855">
        <ele>747.185059</ele>
        <time>2018-05-26T16:30:08Z</time>
      </trkpt>
      <trkpt lat="47.84996" lon="6.79854">
        <ele>747.083191</ele>
        <time>2018-05-26T16:30:09Z</time>
      </trkpt>
      <trkpt lat="47.85" lon="6.79853">
        <ele>747.006042</ele>
        <time>2018-05-26T16:30:10Z</time>
      </trkpt>
      <trkpt lat="47.85004" lon="6.79851">
        <ele>746.886536</ele>
        <time>2018-05-26T16:30:11Z</time>
      </trkpt>
      <trkpt lat="47.85009" lon="6.79849">
        <ele>746.810791</ele>
        <time>2018-05-26T16:30:12Z</time>
      </trkpt>
      <trkpt lat="47.85014" lon="6.79847">
        <ele>746.74292</ele>
        <time>2018-05-26T16:30:13Z</time>
      </trkpt>
      <trkpt lat="47.85019" lon="6.79845">
        <ele>746.639832</ele>
        <time>2018-05-26T16:30:14Z</time>
      </trkpt>
      <trkpt lat="47.85023" lon="6.79842">
        <ele>746.572754</ele>
        <time>2018-05-26T16:30:15Z</time>
      </trkpt>
      <trkpt lat="47.85027" lon="6.7984">
        <ele>746.467712</ele>
        <time>2018-05-26T16:30:16Z</time>
      </trkpt>
      <trkpt lat="47.85031" lon="6.79837">
        <ele>746.394226</ele>
        <time>2018-05-26T16:30:17Z</time>
      </trkpt>
      <trkpt lat="47.85035" lon="6.79834">
        <ele>746.278748</ele>
        <time>2018-05-26T16:30:18Z</time>
      </trkpt>
      <trkpt lat="47.8504" lon="6.79832">
        <ele>746.208069</ele>
        <time>2018-05-26T16:30:19Z</time>
      </trkpt>
      <trkpt lat="47.85043" lon="6.79829">
        <ele>746.140808</ele>
        <time>2018-05-26T16:30:20Z</time>
      </trkpt>
      <trkpt lat="47.85048" lon="6.79825">
        <ele>746.040527</ele>
        <time>2018-05-26T16:30:21Z</time>
      </trkpt>
      <trkpt lat="47.85051" lon="6.79822">
        <ele>745.977051</ele>
        <time>2018-05-26T16:30:22Z</time>
      </trkpt>
      <trkpt lat="47.85055" lon="6.79818">
        <ele>745.90448</ele>
        <time>2018-05-26T16:30:23Z</time>
      </trkpt>
      <trkpt lat="47.85059" lon="6.79814">
        <ele>745.870056</ele>
        <time>2018-05-26T16:30:24Z</time>
      </trkpt>
      <trkpt lat="47.85063" lon="6.7981">
        <ele>745.815735</ele>
        <time>2018-05-26T16:30:25Z</time>
      </trkpt>
      <trkpt lat="47.85067" lon="6.79806">
        <ele>745.78241</ele>
        <time>2018-05-26T16:30:26Z</time>
      </trkpt>
      <trkpt lat="47.85071" lon="6.79801">
        <ele>745.754395</ele>
        <time>2018-05-26T16:30:27Z</time>
      </trkpt>
      <trkpt lat="47.85075" lon="6.79797">
        <ele>745.729004</ele>
        <time>2018-05-26T16:30:28Z</time>
      </trkpt>
      <trkpt lat="47.85079" lon="6.79794">
        <ele>745.703308</ele>
        <time>2018-05-26T16:30:29Z</time>
      </trkpt>
      <trkpt lat="47.85083" lon="6.7979">
        <ele>745.638489</ele>
        <time>2018-05-26T16:30:30Z</time>
      </trkpt>
      <trkpt lat="47.85087" lon="6.79787">
        <ele>745.586609</ele>
        <time>2018-05-26T16:30:31Z</time>
      </trkpt>
      <trkpt lat="47.85091" lon="6.79783">
        <ele>745.544922</ele>
        <time>2018-05-26T16:30:32Z</time>
      </trkpt>
      <trkpt lat="47.85095" lon="6.7978">
        <ele>745.487732</ele>
        <time>2018-05-26T16:30:33Z</time>
      </trkpt>
      <trkpt lat="47.85098" lon="6.79776">
        <ele>745.457458</ele>
        <time>2018-05-26T16:30:34Z</time>
      </trkpt>
      <trkpt lat="47.85102" lon="6.79773">
        <ele>745.435364</ele>
        <time>2018-05-26T16:30:35Z</time>
      </trkpt>
      <trkpt lat="47.85106" lon="6.79769">
        <ele>745.435364</ele>
        <time>2018-05-26T16:30:36Z</time>
      </trkpt>
      <trkpt lat="47.85109" lon="6.79764">
        <ele>745.444336</ele>
        <time>2018-05-26T16:30:37Z</time>
      </trkpt>
      <trkpt lat="47.85111" lon="6.79759">
        <ele>745.463135</ele>
        <time>2018-05-26T16:30:38Z</time>
      </trkpt>
      <trkpt lat="47.85114" lon="6.79753">
        <ele>745.509583</ele>
        <time>2018-05-26T16:30:39Z</time>
      </trkpt>
      <trkpt lat="47.85117" lon="6.79748">
        <ele>745.550293</ele>
        <time>2018-05-26T16:30:40Z</time>
      </trkpt>
      <trkpt lat="47.85118" lon="6.79742">
        <ele>745.592957</ele>
        <time>2018-05-26T16:30:41Z</time>
      </trkpt>
      <trkpt lat="47.8512" lon="6.79736">
        <ele>745.641541</ele>
        <time>2018-05-26T16:30:42Z</time>
      </trkpt>
      <trkpt lat="47.85122" lon="6.7973">
        <ele>745.664063</ele>
        <time>2018-05-26T16:30:43Z</time>
      </trkpt>
      <trkpt lat="47.85123" lon="6.79725">
        <ele>745.672791</ele>
        <time>2018-05-26T16:30:44Z</time>
      </trkpt>
      <trkpt lat="47.85124" lon="6.7972">
        <ele>745.672791</ele>
        <time>2018-05-26T16:30:45Z</time>
      </trkpt>
      <trkpt lat="47.85125" lon="6.79715">
        <ele>745.659119</ele>
        <time>2018-05-26T16:30:46Z</time>
      </trkpt>
      <trkpt lat="47.85126" lon="6.79709">
        <ele>745.646057</ele>
        <time>2018-05-26T16:30:47Z</time>
      </trkpt>
      <trkpt lat="47.85127" lon="6.79703">
        <ele>745.620789</ele>
        <time>2018-05-26T16:30:48Z</time>
      </trkpt>
      <trkpt lat="47.85127" lon="6.79697">
        <ele>745.600769</ele>
        <time>2018-05-26T16:30:49Z</time>
      </trkpt>
      <trkpt lat="47.85128" lon="6.79692">
        <ele>745.565186</ele>
        <time>2018-05-26T16:30:50Z</time>
      </trkpt>
      <trkpt lat="47.85128" lon="6.79688">
        <ele>745.53241</ele>
        <time>2018-05-26T16:30:51Z</time>
      </trkpt>
      <trkpt lat="47.85128" lon="6.79685">
        <ele>745.487366</ele>
        <time>2018-05-26T16:30:52Z</time>
      </trkpt>
      <trkpt lat="47.85128" lon="6.79682">
        <ele>745.4021</ele>
        <time>2018-05-26T16:30:53Z</time>
      </trkpt>
      <trkpt lat="47.85128" lon="6.7968">
        <ele>745.336182</ele>
        <time>2018-05-26T16:30:54Z</time>
      </trkpt>
      <trkpt lat="47.85128" lon="6.79676">
        <ele>745.227295</ele>
        <time>2018-05-26T16:30:55Z</time>
      </trkpt>
      <trkpt lat="47.85128" lon="6.79672">
        <ele>745.150452</ele>
        <time>2018-05-26T16:30:56Z</time>
      </trkpt>
      <trkpt lat="47.85128" lon="6.79668">
        <ele>745.051331</ele>
        <time>2018-05-26T16:30:57Z</time>
      </trkpt>
      <trkpt lat="47.85127" lon="6.79664">
        <ele>744.99884</ele>
        <time>2018-05-26T16:30:58Z</time>
      </trkpt>
      <trkpt lat="47.85127" lon="6.79659">
        <ele>744.94928</ele>
        <time>2018-05-26T16:30:59Z</time>
      </trkpt>
      <trkpt lat="47.85127" lon="6.79653">
        <ele>744.858398</ele>
        <time>2018-05-26T16:31:00Z</time>
      </trkpt>
      <trkpt lat="47.85127" lon="6.79649">
        <ele>744.784668</ele>
        <time>2018-05-26T16:31:01Z</time>
      </trkpt>
      <trkpt lat="47.85127" lon="6.79645">
        <ele>744.667175</ele>
        <time>2018-05-26T16:31:02Z</time>
      </trkpt>
      <trkpt lat="47.85127" lon="6.79642">
        <ele>744.588196</ele>
        <time>2018-05-26T16:31:03Z</time>
      </trkpt>
      <trkpt lat="47.85126" lon="6.7964">
        <ele>744.510437</ele>
        <time>2018-05-26T16:31:04Z</time>
      </trkpt>
      <trkpt lat="47.85125" lon="6.79638">
        <ele>744.389587</ele>
        <time>2018-05-26T16:31:05Z</time>
      </trkpt>
      <trkpt lat="47.85124" lon="6.79636">
        <ele>744.314941</ele>
        <time>2018-05-26T16:31:06Z</time>
      </trkpt>
      <trkpt lat="47.85124" lon="6.79635">
        <ele>744.281677</ele>
        <time>2018-05-26T16:31:07Z</time>
      </trkpt>
      <trkpt lat="47.85123" lon="6.79634">
        <ele>744.230652</ele>
        <time>2018-05-26T16:31:08Z</time>
      </trkpt>
      <trkpt lat="47.85121" lon="6.79635">
        <ele>744.187195</ele>
        <time>2018-05-26T16:31:09Z</time>
      </trkpt>
      <trkpt lat="47.8512" lon="6.79637">
        <ele>744.148621</ele>
        <time>2018-05-26T16:31:10Z</time>
      </trkpt>
      <trkpt lat="47.8512" lon="6.79639">
        <ele>744.108398</ele>
        <time>2018-05-26T16:31:11Z</time>
      </trkpt>
      <trkpt lat="47.8512" lon="6.79641">
        <ele>744.106934</ele>
        <time>2018-05-26T16:31:12Z</time>
      </trkpt>
      <trkpt lat="47.8512" lon="6.79643">
        <ele>744.118835</ele>
        <time>2018-05-26T16:31:13Z</time>
      </trkpt>
      <trkpt lat="47.8512" lon="6.79646">
        <ele>744.147705</ele>
        <time>2018-05-26T16:31:14Z</time>
      </trkpt>
      <trkpt lat="47.85119" lon="6.79649">
        <ele>744.188293</ele>
        <time>2018-05-26T16:31:15Z</time>
      </trkpt>
      <trkpt lat="47.85119" lon="6.79651">
        <ele>744.276917</ele>
        <time>2018-05-26T16:31:16Z</time>
      </trkpt>
      <trkpt lat="47.85118" lon="6.79654">
        <ele>744.35791</ele>
        <time>2018-05-26T16:31:17Z</time>
      </trkpt>
      <trkpt lat="47.85118" lon="6.79656">
        <ele>744.499023</ele>
        <time>2018-05-26T16:31:18Z</time>
      </trkpt>
      <trkpt lat="47.85117" lon="6.79659">
        <ele>744.597839</ele>
        <time>2018-05-26T16:31:19Z</time>
      </trkpt>
      <trkpt lat="47.85117" lon="6.79661">
        <ele>744.747253</ele>
        <time>2018-05-26T16:31:20Z</time>
      </trkpt>
      <trkpt lat="47.85117" lon="6.79663">
        <ele>744.845032</ele>
        <time>2018-05-26T16:31:21Z</time>
      </trkpt>
      <trkpt lat="47.85116" lon="6.79666">
        <ele>744.947754</ele>
        <time>2018-05-26T16:31:22Z</time>
      </trkpt>
      <trkpt lat="47.85115" lon="6.79668">
        <ele>745.107605</ele>
        <time>2018-05-26T16:31:23Z</time>
      </trkpt>
      <trkpt lat="47.85115" lon="6.79671">
        <ele>745.217468</ele>
        <time>2018-05-26T16:31:24Z</time>
      </trkpt>
      <trkpt lat="47.85115" lon="6.79673">
        <ele>745.385437</ele>
        <time>2018-05-26T16:31:25Z</time>
      </trkpt>
      <trkpt lat="47.85115" lon="6.79675">
        <ele>745.504395</ele>
        <time>2018-05-26T16:31:26Z</time>
      </trkpt>
      <trkpt lat="47.85114" lon="6.79678">
        <ele>745.63623</ele>
        <time>2018-05-26T16:31:27Z</time>
      </trkpt>
      <trkpt lat="47.85114" lon="6.79679">
        <ele>745.851379</ele>
        <time>2018-05-26T16:31:28Z</time>
      </trkpt>
      <trkpt lat="47.85114" lon="6.79681">
        <ele>746.000732</ele>
        <time>2018-05-26T16:31:29Z</time>
      </trkpt>
      <trkpt lat="47.85113" lon="6.79683">
        <ele>746.235168</ele>
        <time>2018-05-26T16:31:30Z</time>
      </trkpt>
      <trkpt lat="47.85112" lon="6.79684">
        <ele>746.40625</ele>
        <time>2018-05-26T16:31:31Z</time>
      </trkpt>
      <trkpt lat="47.85112" lon="6.79686">
        <ele>746.677429</ele>
        <time>2018-05-26T16:31:32Z</time>
      </trkpt>
      <trkpt lat="47.85112" lon="6.79688">
        <ele>746.858704</ele>
        <time>2018-05-26T16:31:33Z</time>
      </trkpt>
      <trkpt lat="47.85111" lon="6.7969">
        <ele>747.036621</ele>
        <time>2018-05-26T16:31:34Z</time>
      </trkpt>
      <trkpt lat="47.85111" lon="6.79691">
        <ele>747.298096</ele>
        <time>2018-05-26T16:31:35Z</time>
      </trkpt>
      <trkpt lat="47.8511" lon="6.79692">
        <ele>747.466309</ele>
        <time>2018-05-26T16:31:36Z</time>
      </trkpt>
      <trkpt lat="47.85109" lon="6.79694">
        <ele>747.71167</ele>
        <time>2018-05-26T16:31:37Z</time>
      </trkpt>
      <trkpt lat="47.85108" lon="6.79695">
        <ele>747.87207</ele>
        <time>2018-05-26T16:31:38Z</time>
      </trkpt>
      <trkpt lat="47.85107" lon="6.79696">
        <ele>748.033752</ele>
        <time>2018-05-26T16:31:39Z</time>
      </trkpt>
      <trkpt lat="47.85106" lon="6.79698">
        <ele>748.271301</ele>
        <time>2018-05-26T16:31:40Z</time>
      </trkpt>
      <trkpt lat="47.85106" lon="6.797">
        <ele>748.426697</ele>
        <time>2018-05-26T16:31:41Z</time>
      </trkpt>
      <trkpt lat="47.85105" lon="6.79702">
        <ele>748.648743</ele>
        <time>2018-05-26T16:31:42Z</time>
      </trkpt>
      <trkpt lat="47.85104" lon="6.79702">
        <ele>748.787537</ele>
        <time>2018-05-26T16:31:43Z</time>
      </trkpt>
      <trkpt lat="47.85103" lon="6.79703">
        <ele>748.981445</ele>
        <time>2018-05-26T16:31:44Z</time>
      </trkpt>
      <trkpt lat="47.85101" lon="6.79704">
        <ele>749.106445</ele>
        <time>2018-05-26T16:31:45Z</time>
      </trkpt>
      <trkpt lat="47.851" lon="6.79705">
        <ele>749.23407</ele>
        <time>2018-05-26T16:31:46Z</time>
      </trkpt>
      <trkpt lat="47.85099" lon="6.79706">
        <ele>749.43512</ele>
        <time>2018-05-26T16:31:47Z</time>
      </trkpt>
      <trkpt lat="47.85098" lon="6.79707">
        <ele>749.579041</ele>
        <time>2018-05-26T16:31:48Z</time>
      </trkpt>
      <trkpt lat="47.85097" lon="6.79708">
        <ele>749.816956</ele>
        <time>2018-05-26T16:31:49Z</time>
      </trkpt>
      <trkpt lat="47.85096" lon="6.79709">
        <ele>749.983826</ele>
        <time>2018-05-26T16:31:50Z</time>
      </trkpt>
      <trkpt lat="47.85095" lon="6.7971">
        <ele>750.230225</ele>
        <time>2018-05-26T16:31:51Z</time>
      </trkpt>
      <trkpt lat="47.85093" lon="6.79711">
        <ele>750.39801</ele>
        <time>2018-05-26T16:31:52Z</time>
      </trkpt>
      <trkpt lat="47.85092" lon="6.79711">
        <ele>750.569885</ele>
        <time>2018-05-26T16:31:53Z</time>
      </trkpt>
      <trkpt lat="47.85091" lon="6.79712">
        <ele>750.84491</ele>
        <time>2018-05-26T16:31:54Z</time>
      </trkpt>
      <trkpt lat="47.8509" lon="6.79712">
        <ele>751.035889</ele>
        <time>2018-05-26T16:31:55Z</time>
      </trkpt>
      <trkpt lat="47.85088" lon="6.79712">
        <ele>751.327454</ele>
        <time>2018-05-26T16:31:56Z</time>
      </trkpt>
      <trkpt lat="47.85087" lon="6.79712">
        <ele>751.517883</ele>
        <time>2018-05-26T16:31:57Z</time>
      </trkpt>
      <trkpt lat="47.85085" lon="6.79712">
        <ele>751.783691</ele>
        <time>2018-05-26T16:31:58Z</time>
      </trkpt>
      <trkpt lat="47.85084" lon="6.79712">
        <ele>751.942566</ele>
        <time>2018-05-26T16:31:59Z</time>
      </trkpt>
      <trkpt lat="47.85082" lon="6.79712">
        <ele>752.161865</ele>
        <time>2018-05-26T16:32:00Z</time>
      </trkpt>
      <trkpt lat="47.85081" lon="6.79712">
        <ele>752.302979</ele>
        <time>2018-05-26T16:32:01Z</time>
      </trkpt>
      <trkpt lat="47.85079" lon="6.79712">
        <ele>752.503723</ele>
        <time>2018-05-26T16:32:02Z</time>
      </trkpt>
      <trkpt lat="47.85078" lon="6.79712">
        <ele>752.632813</ele>
        <time>2018-05-26T16:32:03Z</time>
      </trkpt>
      <trkpt lat="47.85076" lon="6.79712">
        <ele>752.830566</ele>
        <time>2018-05-26T16:32:04Z</time>
      </trkpt>
      <trkpt lat="47.85075" lon="6.79711">
        <ele>752.964661</ele>
        <time>2018-05-26T16:32:05Z</time>
      </trkpt>
      <trkpt lat="47.85073" lon="6.79711">
        <ele>753.094788</ele>
        <time>2018-05-26T16:32:06Z</time>
      </trkpt>
      <trkpt lat="47.85072" lon="6.79711">
        <ele>753.157227</ele>
        <time>2018-05-26T16:32:07Z</time>
      </trkpt>
      <trkpt lat="47.8507" lon="6.79711">
        <ele>753.280945</ele>
        <time>2018-05-26T16:32:08Z</time>
      </trkpt>
      <trkpt lat="47.85069" lon="6.79711">
        <ele>753.41095</ele>
        <time>2018-05-26T16:32:09Z</time>
      </trkpt>
      <trkpt lat="47.85067" lon="6.7971">
        <ele>753.549805</ele>
        <time>2018-05-26T16:32:10Z</time>
      </trkpt>
      <trkpt lat="47.85066" lon="6.7971">
        <ele>753.769592</ele>
        <time>2018-05-26T16:32:11Z</time>
      </trkpt>
      <trkpt lat="47.85065" lon="6.79709">
        <ele>753.924805</ele>
        <time>2018-05-26T16:32:12Z</time>
      </trkpt>
      <trkpt lat="47.85063" lon="6.79709">
        <ele>754.180359</ele>
        <time>2018-05-26T16:32:13Z</time>
      </trkpt>
      <trkpt lat="47.85062" lon="6.79709">
        <ele>754.362976</ele>
        <time>2018-05-26T16:32:14Z</time>
      </trkpt>
      <trkpt lat="47.85061" lon="6.79708">
        <ele>754.64209</ele>
        <time>2018-05-26T16:32:15Z</time>
      </trkpt>
      <trkpt lat="47.85059" lon="6.79707">
        <ele>754.821472</ele>
        <time>2018-05-26T16:32:16Z</time>
      </trkpt>
      <trkpt lat="47.85057" lon="6.79706">
        <ele>755.06366</ele>
        <time>2018-05-26T16:32:17Z</time>
      </trkpt>
      <trkpt lat="47.85056" lon="6.79705">
        <ele>755.207947</ele>
        <time>2018-05-26T16:32:18Z</time>
      </trkpt>
      <trkpt lat="47.85054" lon="6.79704">
        <ele>755.343689</ele>
        <time>2018-05-26T16:32:19Z</time>
      </trkpt>
      <trkpt lat="47.85052" lon="6.79704">
        <ele>755.526062</ele>
        <time>2018-05-26T16:32:20Z</time>
      </trkpt>
      <trkpt lat="47.85051" lon="6.79703">
        <ele>755.622253</ele>
        <time>2018-05-26T16:32:21Z</time>
      </trkpt>
      <trkpt lat="47.8505" lon="6.79701">
        <ele>755.728699</ele>
        <time>2018-05-26T16:32:22Z</time>
      </trkpt>
      <trkpt lat="47.85049" lon="6.79701">
        <ele>755.790466</ele>
        <time>2018-05-26T16:32:23Z</time>
      </trkpt>
      <trkpt lat="47.85047" lon="6.797">
        <ele>755.850769</ele>
        <time>2018-05-26T16:32:24Z</time>
      </trkpt>
      <trkpt lat="47.85045" lon="6.79698">
        <ele>755.936829</ele>
        <time>2018-05-26T16:32:25Z</time>
      </trkpt>
      <trkpt lat="47.85044" lon="6.79696">
        <ele>755.987854</ele>
        <time>2018-05-26T16:32:26Z</time>
      </trkpt>
      <trkpt lat="47.85042" lon="6.79694">
        <ele>756.060364</ele>
        <time>2018-05-26T16:32:27Z</time>
      </trkpt>
      <trkpt lat="47.85041" lon="6.79693">
        <ele>756.113525</ele>
        <time>2018-05-26T16:32:28Z</time>
      </trkpt>
      <trkpt lat="47.85039" lon="6.79691">
        <ele>756.208069</ele>
        <time>2018-05-26T16:32:29Z</time>
      </trkpt>
      <trkpt lat="47.85038" lon="6.79689">
        <ele>756.278076</ele>
        <time>2018-05-26T16:32:30Z</time>
      </trkpt>
      <trkpt lat="47.85036" lon="6.79688">
        <ele>756.346375</ele>
        <time>2018-05-26T16:32:31Z</time>
      </trkpt>
      <trkpt lat="47.85034" lon="6.79686">
        <ele>756.441101</ele>
        <time>2018-05-26T16:32:32Z</time>
      </trkpt>
      <trkpt lat="47.85032" lon="6.79685">
        <ele>756.500244</ele>
        <time>2018-05-26T16:32:33Z</time>
      </trkpt>
      <trkpt lat="47.85031" lon="6.79683">
        <ele>756.591492</ele>
        <time>2018-05-26T16:32:34Z</time>
      </trkpt>
      <trkpt lat="47.85029" lon="6.79682">
        <ele>756.657776</ele>
        <time>2018-05-26T16:32:35Z</time>
      </trkpt>
      <trkpt lat="47.85028" lon="6.79682">
        <ele>756.732178</ele>
        <time>2018-05-26T16:32:36Z</time>
      </trkpt>
      <trkpt lat="47.85026" lon="6.79681">
        <ele>756.854553</ele>
        <time>2018-05-26T16:32:37Z</time>
      </trkpt>
      <trkpt lat="47.85025" lon="6.7968">
        <ele>756.944275</ele>
        <time>2018-05-26T16:32:38Z</time>
      </trkpt>
      <trkpt lat="47.85023" lon="6.79678">
        <ele>757.089661</ele>
        <time>2018-05-26T16:32:39Z</time>
      </trkpt>
      <trkpt lat="47.8502" lon="6.79677">
        <ele>757.196594</ele>
        <time>2018-05-26T16:32:40Z</time>
      </trkpt>
      <trkpt lat="47.85019" lon="6.79676">
        <ele>757.352844</ele>
        <time>2018-05-26T16:32:41Z</time>
      </trkpt>
      <trkpt lat="47.85017" lon="6.79674">
        <ele>757.445068</ele>
        <time>2018-05-26T16:32:42Z</time>
      </trkpt>
      <trkpt lat="47.85016" lon="6.79673">
        <ele>757.559265</ele>
        <time>2018-05-26T16:32:43Z</time>
      </trkpt>
      <trkpt lat="47.85014" lon="6.79672">
        <ele>757.623596</ele>
        <time>2018-05-26T16:32:44Z</time>
      </trkpt>
      <trkpt lat="47.85012" lon="6.7967">
        <ele>757.685547</ele>
        <time>2018-05-26T16:32:45Z</time>
      </trkpt>
      <trkpt lat="47.85011" lon="6.79669">
        <ele>757.797058</ele>
        <time>2018-05-26T16:32:46Z</time>
      </trkpt>
      <trkpt lat="47.85009" lon="6.79667">
        <ele>757.880554</ele>
        <time>2018-05-26T16:32:47Z</time>
      </trkpt>
      <trkpt lat="47.85007" lon="6.79666">
        <ele>758.010193</ele>
        <time>2018-05-26T16:32:48Z</time>
      </trkpt>
      <trkpt lat="47.85006" lon="6.79664">
        <ele>758.101868</ele>
        <time>2018-05-26T16:32:49Z</time>
      </trkpt>
      <trkpt lat="47.85004" lon="6.79663">
        <ele>758.246582</ele>
        <time>2018-05-26T16:32:50Z</time>
      </trkpt>
      <trkpt lat="47.85003" lon="6.79661">
        <ele>758.343445</ele>
        <time>2018-05-26T16:32:51Z</time>
      </trkpt>
      <trkpt lat="47.85002" lon="6.79659">
        <ele>758.497314</ele>
        <time>2018-05-26T16:32:52Z</time>
      </trkpt>
      <trkpt lat="47.85001" lon="6.79657">
        <ele>758.610596</ele>
        <time>2018-05-26T16:32:53Z</time>
      </trkpt>
      <trkpt lat="47.85" lon="6.79655">
        <ele>758.793701</ele>
        <time>2018-05-26T16:32:54Z</time>
      </trkpt>
      <trkpt lat="47.84999" lon="6.79653">
        <ele>758.92041</ele>
        <time>2018-05-26T16:32:55Z</time>
      </trkpt>
      <trkpt lat="47.84998" lon="6.7965">
        <ele>759.119629</ele>
        <time>2018-05-26T16:32:56Z</time>
      </trkpt>
      <trkpt lat="47.84996" lon="6.79647">
        <ele>759.251404</ele>
        <time>2018-05-26T16:32:57Z</time>
      </trkpt>
      <trkpt lat="47.84996" lon="6.79645">
        <ele>759.372742</ele>
        <time>2018-05-26T16:32:58Z</time>
      </trkpt>
      <trkpt lat="47.84994" lon="6.79643">
        <ele>759.533386</ele>
        <time>2018-05-26T16:32:59Z</time>
      </trkpt>
      <trkpt lat="47.84993" lon="6.79641">
        <ele>759.638245</ele>
        <time>2018-05-26T16:33:00Z</time>
      </trkpt>
      <trkpt lat="47.84992" lon="6.79638">
        <ele>759.81665</ele>
        <time>2018-05-26T16:33:01Z</time>
      </trkpt>
      <trkpt lat="47.84991" lon="6.79636">
        <ele>759.950867</ele>
        <time>2018-05-26T16:33:02Z</time>
      </trkpt>
      <trkpt lat="47.8499" lon="6.79634">
        <ele>760.089661</ele>
        <time>2018-05-26T16:33:03Z</time>
      </trkpt>
      <trkpt lat="47.84988" lon="6.79632">
        <ele>760.291504</ele>
        <time>2018-05-26T16:33:04Z</time>
      </trkpt>
      <trkpt lat="47.84987" lon="6.7963">
        <ele>760.41803</ele>
        <time>2018-05-26T16:33:05Z</time>
      </trkpt>
      <trkpt lat="47.84987" lon="6.79628">
        <ele>760.598145</ele>
        <time>2018-05-26T16:33:06Z</time>
      </trkpt>
      <trkpt lat="47.84986" lon="6.79626">
        <ele>760.654114</ele>
        <time>2018-05-26T16:33:07Z</time>
      </trkpt>
      <trkpt lat="47.84984" lon="6.79624">
        <ele>760.810303</ele>
        <time>2018-05-26T16:33:08Z</time>
      </trkpt>
      <trkpt lat="47.84982" lon="6.79623">
        <ele>760.905334</ele>
        <time>2018-05-26T16:33:09Z</time>
      </trkpt>
      <trkpt lat="47.84981" lon="6.79621">
        <ele>761.047546</ele>
        <time>2018-05-26T16:33:10Z</time>
      </trkpt>
      <trkpt lat="47.8498" lon="6.79619">
        <ele>761.149658</ele>
        <time>2018-05-26T16:33:11Z</time>
      </trkpt>
      <trkpt lat="47.84979" lon="6.79617">
        <ele>761.319885</ele>
        <time>2018-05-26T16:33:12Z</time>
      </trkpt>
      <trkpt lat="47.84977" lon="6.79615">
        <ele>761.44165</ele>
        <time>2018-05-26T16:33:13Z</time>
      </trkpt>
      <trkpt lat="47.84976" lon="6.79614">
        <ele>761.559998</ele>
        <time>2018-05-26T16:33:14Z</time>
      </trkpt>
      <trkpt lat="47.84975" lon="6.79612">
        <ele>761.724548</ele>
        <time>2018-05-26T16:33:15Z</time>
      </trkpt>
      <trkpt lat="47.84974" lon="6.79612">
        <ele>762.023499</ele>
        <time>2018-05-26T16:33:16Z</time>
      </trkpt>
      <trkpt lat="47.84973" lon="6.79611">
        <ele>762.147766</ele>
        <time>2018-05-26T16:33:18Z</time>
      </trkpt>
      <trkpt lat="47.84972" lon="6.7961">
        <ele>762.268372</ele>
        <time>2018-05-26T16:33:19Z</time>
      </trkpt>
      <trkpt lat="47.84971" lon="6.79609">
        <ele>762.445251</ele>
        <time>2018-05-26T16:33:20Z</time>
      </trkpt>
      <trkpt lat="47.8497" lon="6.79607">
        <ele>762.562317</ele>
        <time>2018-05-26T16:33:21Z</time>
      </trkpt>
      <trkpt lat="47.8497" lon="6.79605">
        <ele>762.738342</ele>
        <time>2018-05-26T16:33:22Z</time>
      </trkpt>
      <trkpt lat="47.84969" lon="6.79604">
        <ele>762.864563</ele>
        <time>2018-05-26T16:33:23Z</time>
      </trkpt>
      <trkpt lat="47.84969" lon="6.79602">
        <ele>763.085022</ele>
        <time>2018-05-26T16:33:24Z</time>
      </trkpt>
      <trkpt lat="47.84968" lon="6.79599">
        <ele>763.251892</ele>
        <time>2018-05-26T16:33:25Z</time>
      </trkpt>
      <trkpt lat="47.84967" lon="6.79597">
        <ele>763.529846</ele>
        <time>2018-05-26T16:33:26Z</time>
      </trkpt>
      <trkpt lat="47.84966" lon="6.79594">
        <ele>763.733582</ele>
        <time>2018-05-26T16:33:27Z</time>
      </trkpt>
      <trkpt lat="47.84966" lon="6.79592">
        <ele>763.949219</ele>
        <time>2018-05-26T16:33:28Z</time>
      </trkpt>
      <trkpt lat="47.84965" lon="6.7959">
        <ele>764.278381</ele>
        <time>2018-05-26T16:33:29Z</time>
      </trkpt>
      <trkpt lat="47.84964" lon="6.79588">
        <ele>764.494934</ele>
        <time>2018-05-26T16:33:30Z</time>
      </trkpt>
      <trkpt lat="47.84964" lon="6.79586">
        <ele>764.803467</ele>
        <time>2018-05-26T16:33:31Z</time>
      </trkpt>
      <trkpt lat="47.84963" lon="6.79583">
        <ele>764.998352</ele>
        <time>2018-05-26T16:33:32Z</time>
      </trkpt>
      <trkpt lat="47.84962" lon="6.7958">
        <ele>765.283203</ele>
        <time>2018-05-26T16:33:33Z</time>
      </trkpt>
      <trkpt lat="47.84961" lon="6.79577">
        <ele>765.479553</ele>
        <time>2018-05-26T16:33:34Z</time>
      </trkpt>
      <trkpt lat="47.8496" lon="6.79574">
        <ele>765.78595</ele>
        <time>2018-05-26T16:33:35Z</time>
      </trkpt>
      <trkpt lat="47.84959" lon="6.79572">
        <ele>765.990906</ele>
        <time>2018-05-26T16:33:36Z</time>
      </trkpt>
      <trkpt lat="47.84958" lon="6.79569">
        <ele>766.294861</ele>
        <time>2018-05-26T16:33:37Z</time>
      </trkpt>
      <trkpt lat="47.84957" lon="6.79566">
        <ele>766.485657</ele>
        <time>2018-05-26T16:33:38Z</time>
      </trkpt>
      <trkpt lat="47.84955" lon="6.79564">
        <ele>766.657288</ele>
        <time>2018-05-26T16:33:39Z</time>
      </trkpt>
      <trkpt lat="47.84954" lon="6.79562">
        <ele>766.874451</ele>
        <time>2018-05-26T16:33:40Z</time>
      </trkpt>
      <trkpt lat="47.84954" lon="6.79559">
        <ele>767.000488</ele>
        <time>2018-05-26T16:33:41Z</time>
      </trkpt>
      <trkpt lat="47.84953" lon="6.79557">
        <ele>767.182556</ele>
        <time>2018-05-26T16:33:42Z</time>
      </trkpt>
      <trkpt lat="47.84952" lon="6.79554">
        <ele>767.302185</ele>
        <time>2018-05-26T16:33:43Z</time>
      </trkpt>
      <trkpt lat="47.84951" lon="6.79551">
        <ele>767.46991</ele>
        <time>2018-05-26T16:33:44Z</time>
      </trkpt>
      <trkpt lat="47.8495" lon="6.79549">
        <ele>767.577881</ele>
        <time>2018-05-26T16:33:45Z</time>
      </trkpt>
      <trkpt lat="47.84949" lon="6.79546">
        <ele>767.689453</ele>
        <time>2018-05-26T16:33:46Z</time>
      </trkpt>
      <trkpt lat="47.84949" lon="6.79544">
        <ele>767.850586</ele>
        <time>2018-05-26T16:33:47Z</time>
      </trkpt>
      <trkpt lat="47.84948" lon="6.79542">
        <ele>767.94165</ele>
        <time>2018-05-26T16:33:48Z</time>
      </trkpt>
      <trkpt lat="47.84947" lon="6.79539">
        <ele>768.037659</ele>
        <time>2018-05-26T16:33:49Z</time>
      </trkpt>
      <trkpt lat="47.84946" lon="6.79537">
        <ele>768.077087</ele>
        <time>2018-05-26T16:33:50Z</time>
      </trkpt>
      <trkpt lat="47.84946" lon="6.79535">
        <ele>768.092041</ele>
        <time>2018-05-26T16:33:51Z</time>
      </trkpt>
      <trkpt lat="47.84945" lon="6.79533">
        <ele>768.092041</ele>
        <time>2018-05-26T16:33:52Z</time>
      </trkpt>
      <trkpt lat="47.84945" lon="6.7953">
        <ele>768.059143</ele>
        <time>2018-05-26T16:33:53Z</time>
      </trkpt>
      <trkpt lat="47.84944" lon="6.79528">
        <ele>768.025635</ele>
        <time>2018-05-26T16:33:54Z</time>
      </trkpt>
      <trkpt lat="47.84943" lon="6.79526">
        <ele>767.993103</ele>
        <time>2018-05-26T16:33:55Z</time>
      </trkpt>
      <trkpt lat="47.84943" lon="6.79523">
        <ele>767.964539</ele>
        <time>2018-05-26T16:33:56Z</time>
      </trkpt>
      <trkpt lat="47.84942" lon="6.7952">
        <ele>767.962585</ele>
        <time>2018-05-26T16:33:57Z</time>
      </trkpt>
      <trkpt lat="47.84941" lon="6.79517">
        <ele>767.972656</ele>
        <time>2018-05-26T16:33:58Z</time>
      </trkpt>
      <trkpt lat="47.8494" lon="6.79515">
        <ele>767.996582</ele>
        <time>2018-05-26T16:33:59Z</time>
      </trkpt>
      <trkpt lat="47.84938" lon="6.79512">
        <ele>768.031189</ele>
        <time>2018-05-26T16:34:00Z</time>
      </trkpt>
      <trkpt lat="47.84938" lon="6.7951">
        <ele>768.102966</ele>
        <time>2018-05-26T16:34:01Z</time>
      </trkpt>
      <trkpt lat="47.84937" lon="6.79507">
        <ele>768.163025</ele>
        <time>2018-05-26T16:34:02Z</time>
      </trkpt>
      <trkpt lat="47.84935" lon="6.79504">
        <ele>768.256653</ele>
        <time>2018-05-26T16:34:03Z</time>
      </trkpt>
      <trkpt lat="47.84934" lon="6.79501">
        <ele>768.306946</ele>
        <time>2018-05-26T16:34:04Z</time>
      </trkpt>
      <trkpt lat="47.84933" lon="6.79499">
        <ele>768.343811</ele>
        <time>2018-05-26T16:34:05Z</time>
      </trkpt>
      <trkpt lat="47.84932" lon="6.79497">
        <ele>768.389587</ele>
        <time>2018-05-26T16:34:06Z</time>
      </trkpt>
      <trkpt lat="47.84931" lon="6.79494">
        <ele>768.417725</ele>
        <time>2018-05-26T16:34:07Z</time>
      </trkpt>
      <trkpt lat="47.84929" lon="6.79491">
        <ele>768.429016</ele>
        <time>2018-05-26T16:34:08Z</time>
      </trkpt>
      <trkpt lat="47.84928" lon="6.79489">
        <ele>768.429016</ele>
        <time>2018-05-26T16:34:09Z</time>
      </trkpt>
      <trkpt lat="47.84926" lon="6.79487">
        <ele>768.456787</ele>
        <time>2018-05-26T16:34:10Z</time>
      </trkpt>
      <trkpt lat="47.84925" lon="6.79485">
        <ele>768.479675</ele>
        <time>2018-05-26T16:34:11Z</time>
      </trkpt>
      <trkpt lat="47.84924" lon="6.79483">
        <ele>768.518127</ele>
        <time>2018-05-26T16:34:12Z</time>
      </trkpt>
      <trkpt lat="47.84922" lon="6.7948">
        <ele>768.609619</ele>
        <time>2018-05-26T16:34:13Z</time>
      </trkpt>
      <trkpt lat="47.84921" lon="6.79478">
        <ele>768.692139</ele>
        <time>2018-05-26T16:34:14Z</time>
      </trkpt>
      <trkpt lat="47.84919" lon="6.79476">
        <ele>768.820862</ele>
        <time>2018-05-26T16:34:15Z</time>
      </trkpt>
      <trkpt lat="47.84918" lon="6.79474">
        <ele>768.903809</ele>
        <time>2018-05-26T16:34:16Z</time>
      </trkpt>
      <trkpt lat="47.84917" lon="6.79473">
        <ele>768.985535</ele>
        <time>2018-05-26T16:34:17Z</time>
      </trkpt>
      <trkpt lat="47.84916" lon="6.79471">
        <ele>769.11499</ele>
        <time>2018-05-26T16:34:18Z</time>
      </trkpt>
      <trkpt lat="47.84915" lon="6.79469">
        <ele>769.208435</ele>
        <time>2018-05-26T16:34:19Z</time>
      </trkpt>
      <trkpt lat="47.84915" lon="6.79467">
        <ele>769.344238</ele>
        <time>2018-05-26T16:34:20Z</time>
      </trkpt>
      <trkpt lat="47.84914" lon="6.79465">
        <ele>769.42865</ele>
        <time>2018-05-26T16:34:21Z</time>
      </trkpt>
      <trkpt lat="47.84913" lon="6.79462">
        <ele>769.547607</ele>
        <time>2018-05-26T16:34:22Z</time>
      </trkpt>
      <trkpt lat="47.84912" lon="6.7946">
        <ele>769.616638</ele>
        <time>2018-05-26T16:34:23Z</time>
      </trkpt>
      <trkpt lat="47.84911" lon="6.79457">
        <ele>769.705505</ele>
        <time>2018-05-26T16:34:24Z</time>
      </trkpt>
      <trkpt lat="47.84911" lon="6.79456">
        <ele>769.830383</ele>
        <time>2018-05-26T16:34:25Z</time>
      </trkpt>
      <trkpt lat="47.8491" lon="6.79453">
        <ele>769.942627</ele>
        <time>2018-05-26T16:34:27Z</time>
      </trkpt>
      <trkpt lat="47.84909" lon="6.79451">
        <ele>770.031738</ele>
        <time>2018-05-26T16:34:28Z</time>
      </trkpt>
      <trkpt lat="47.84908" lon="6.79448">
        <ele>770.186768</ele>
        <time>2018-05-26T16:34:29Z</time>
      </trkpt>
      <trkpt lat="47.84906" lon="6.79446">
        <ele>770.300842</ele>
        <time>2018-05-26T16:34:30Z</time>
      </trkpt>
      <trkpt lat="47.84905" lon="6.79443">
        <ele>770.488098</ele>
        <time>2018-05-26T16:34:31Z</time>
      </trkpt>
      <trkpt lat="47.84905" lon="6.79441">
        <ele>770.625244</ele>
        <time>2018-05-26T16:34:32Z</time>
      </trkpt>
      <trkpt lat="47.84904" lon="6.79438">
        <ele>770.855774</ele>
        <time>2018-05-26T16:34:33Z</time>
      </trkpt>
      <trkpt lat="47.84902" lon="6.79436">
        <ele>771.023865</ele>
        <time>2018-05-26T16:34:34Z</time>
      </trkpt>
      <trkpt lat="47.84901" lon="6.79433">
        <ele>771.282043</ele>
        <time>2018-05-26T16:34:35Z</time>
      </trkpt>
      <trkpt lat="47.849" lon="6.79431">
        <ele>771.440857</ele>
        <time>2018-05-26T16:34:36Z</time>
      </trkpt>
      <trkpt lat="47.84899" lon="6.79428">
        <ele>771.582825</ele>
        <time>2018-05-26T16:34:37Z</time>
      </trkpt>
      <trkpt lat="47.84898" lon="6.79425">
        <ele>771.763733</ele>
        <time>2018-05-26T16:34:38Z</time>
      </trkpt>
      <trkpt lat="47.84897" lon="6.79423">
        <ele>771.865295</ele>
        <time>2018-05-26T16:34:39Z</time>
      </trkpt>
      <trkpt lat="47.84896" lon="6.7942">
        <ele>771.981628</ele>
        <time>2018-05-26T16:34:40Z</time>
      </trkpt>
      <trkpt lat="47.84895" lon="6.79417">
        <ele>772.047668</ele>
        <time>2018-05-26T16:34:41Z</time>
      </trkpt>
      <trkpt lat="47.84893" lon="6.79416">
        <ele>772.116882</ele>
        <time>2018-05-26T16:34:42Z</time>
      </trkpt>
      <trkpt lat="47.84892" lon="6.79414">
        <ele>772.239075</ele>
        <time>2018-05-26T16:34:43Z</time>
      </trkpt>
      <trkpt lat="47.84892" lon="6.79412">
        <ele>772.336121</ele>
        <time>2018-05-26T16:34:44Z</time>
      </trkpt>
      <trkpt lat="47.84891" lon="6.7941">
        <ele>772.519836</ele>
        <time>2018-05-26T16:34:45Z</time>
      </trkpt>
      <trkpt lat="47.8489" lon="6.79407">
        <ele>772.665222</ele>
        <time>2018-05-26T16:34:46Z</time>
      </trkpt>
      <trkpt lat="47.84889" lon="6.79404">
        <ele>772.900818</ele>
        <time>2018-05-26T16:34:47Z</time>
      </trkpt>
      <trkpt lat="47.84889" lon="6.79402">
        <ele>773.065979</ele>
        <time>2018-05-26T16:34:48Z</time>
      </trkpt>
      <trkpt lat="47.84889" lon="6.79399">
        <ele>773.238464</ele>
        <time>2018-05-26T16:34:49Z</time>
      </trkpt>
      <trkpt lat="47.84888" lon="6.79396">
        <ele>773.497375</ele>
        <time>2018-05-26T16:34:50Z</time>
      </trkpt>
      <trkpt lat="47.84888" lon="6.79394">
        <ele>773.662109</ele>
        <time>2018-05-26T16:34:51Z</time>
      </trkpt>
      <trkpt lat="47.84887" lon="6.79391">
        <ele>773.892517</ele>
        <time>2018-05-26T16:34:52Z</time>
      </trkpt>
      <trkpt lat="47.84886" lon="6.79389">
        <ele>774.044861</ele>
        <time>2018-05-26T16:34:53Z</time>
      </trkpt>
      <trkpt lat="47.84886" lon="6.79386">
        <ele>774.19574</ele>
        <time>2018-05-26T16:34:54Z</time>
      </trkpt>
      <trkpt lat="47.84886" lon="6.79384">
        <ele>774.408875</ele>
        <time>2018-05-26T16:34:55Z</time>
      </trkpt>
      <trkpt lat="47.84886" lon="6.79382">
        <ele>774.537292</ele>
        <time>2018-05-26T16:34:56Z</time>
      </trkpt>
      <trkpt lat="47.84886" lon="6.79379">
        <ele>774.717834</ele>
        <time>2018-05-26T16:34:57Z</time>
      </trkpt>
      <trkpt lat="47.84886" lon="6.79377">
        <ele>774.842346</ele>
        <time>2018-05-26T16:34:58Z</time>
      </trkpt>
      <trkpt lat="47.84885" lon="6.79373">
        <ele>775.031555</ele>
        <time>2018-05-26T16:34:59Z</time>
      </trkpt>
      <trkpt lat="47.84885" lon="6.7937">
        <ele>775.154358</ele>
        <time>2018-05-26T16:35:00Z</time>
      </trkpt>
      <trkpt lat="47.84885" lon="6.79367">
        <ele>775.276917</ele>
        <time>2018-05-26T16:35:01Z</time>
      </trkpt>
      <trkpt lat="47.84885" lon="6.79365">
        <ele>775.479492</ele>
        <time>2018-05-26T16:35:02Z</time>
      </trkpt>
      <trkpt lat="47.84885" lon="6.79362">
        <ele>775.618164</ele>
        <time>2018-05-26T16:35:03Z</time>
      </trkpt>
      <trkpt lat="47.84885" lon="6.7936">
        <ele>775.810059</ele>
        <time>2018-05-26T16:35:04Z</time>
      </trkpt>
      <trkpt lat="47.84885" lon="6.79357">
        <ele>775.923523</ele>
        <time>2018-05-26T16:35:05Z</time>
      </trkpt>
      <trkpt lat="47.84885" lon="6.79354">
        <ele>776.029968</ele>
        <time>2018-05-26T16:35:06Z</time>
      </trkpt>
      <trkpt lat="47.84885" lon="6.79351">
        <ele>776.189514</ele>
        <time>2018-05-26T16:35:07Z</time>
      </trkpt>
      <trkpt lat="47.84884" lon="6.79349">
        <ele>776.294617</ele>
        <time>2018-05-26T16:35:08Z</time>
      </trkpt>
      <trkpt lat="47.84884" lon="6.79347">
        <ele>776.398621</ele>
        <time>2018-05-26T16:35:09Z</time>
      </trkpt>
      <trkpt lat="47.84884" lon="6.79345">
        <ele>776.513184</ele>
        <time>2018-05-26T16:35:10Z</time>
      </trkpt>
      <trkpt lat="47.84884" lon="6.79342">
        <ele>776.64447</ele>
        <time>2018-05-26T16:35:11Z</time>
      </trkpt>
      <trkpt lat="47.84883" lon="6.7934">
        <ele>776.863464</ele>
        <time>2018-05-26T16:35:12Z</time>
      </trkpt>
      <trkpt lat="47.84884" lon="6.79338">
        <ele>777.011292</ele>
        <time>2018-05-26T16:35:13Z</time>
      </trkpt>
      <trkpt lat="47.84884" lon="6.79337">
        <ele>777.242859</ele>
        <time>2018-05-26T16:35:14Z</time>
      </trkpt>
      <trkpt lat="47.84883" lon="6.79334">
        <ele>777.415955</ele>
        <time>2018-05-26T16:35:15Z</time>
      </trkpt>
      <trkpt lat="47.84882" lon="6.79331">
        <ele>777.603577</ele>
        <time>2018-05-26T16:35:16Z</time>
      </trkpt>
      <trkpt lat="47.84882" lon="6.79328">
        <ele>777.891418</ele>
        <time>2018-05-26T16:35:17Z</time>
      </trkpt>
      <trkpt lat="47.84882" lon="6.79326">
        <ele>778.082825</ele>
        <time>2018-05-26T16:35:18Z</time>
      </trkpt>
      <trkpt lat="47.84881" lon="6.79323">
        <ele>778.369812</ele>
        <time>2018-05-26T16:35:19Z</time>
      </trkpt>
      <trkpt lat="47.8488" lon="6.79321">
        <ele>778.556885</ele>
        <time>2018-05-26T16:35:20Z</time>
      </trkpt>
      <trkpt lat="47.8488" lon="6.79319">
        <ele>778.838928</ele>
        <time>2018-05-26T16:35:21Z</time>
      </trkpt>
      <trkpt lat="47.84879" lon="6.79316">
        <ele>779.025635</ele>
        <time>2018-05-26T16:35:22Z</time>
      </trkpt>
      <trkpt lat="47.84879" lon="6.79313">
        <ele>779.297607</ele>
        <time>2018-05-26T16:35:23Z</time>
      </trkpt>
      <trkpt lat="47.84878" lon="6.7931">
        <ele>779.473145</ele>
        <time>2018-05-26T16:35:24Z</time>
      </trkpt>
      <trkpt lat="47.84877" lon="6.79307">
        <ele>779.644531</ele>
        <time>2018-05-26T16:35:25Z</time>
      </trkpt>
      <trkpt lat="47.84877" lon="6.79305">
        <ele>779.895813</ele>
        <time>2018-05-26T16:35:26Z</time>
      </trkpt>
      <trkpt lat="47.84876" lon="6.79302">
        <ele>780.064148</ele>
        <time>2018-05-26T16:35:27Z</time>
      </trkpt>
      <trkpt lat="47.84876" lon="6.793">
        <ele>780.325195</ele>
        <time>2018-05-26T16:35:28Z</time>
      </trkpt>
      <trkpt lat="47.84876" lon="6.79298">
        <ele>780.498535</ele>
        <time>2018-05-26T16:35:29Z</time>
      </trkpt>
      <trkpt lat="47.84876" lon="6.79295">
        <ele>780.749451</ele>
        <time>2018-05-26T16:35:30Z</time>
      </trkpt>
      <trkpt lat="47.84875" lon="6.79292">
        <ele>780.907776</ele>
        <time>2018-05-26T16:35:31Z</time>
      </trkpt>
      <trkpt lat="47.84874" lon="6.79291">
        <ele>781.127441</ele>
        <time>2018-05-26T16:35:32Z</time>
      </trkpt>
      <trkpt lat="47.84874" lon="6.79289">
        <ele>781.249023</ele>
        <time>2018-05-26T16:35:33Z</time>
      </trkpt>
      <trkpt lat="47.84873" lon="6.79286">
        <ele>781.347595</ele>
        <time>2018-05-26T16:35:34Z</time>
      </trkpt>
      <trkpt lat="47.84873" lon="6.79283">
        <ele>781.468262</ele>
        <time>2018-05-26T16:35:35Z</time>
      </trkpt>
      <trkpt lat="47.84874" lon="6.7928">
        <ele>781.54303</ele>
        <time>2018-05-26T16:35:36Z</time>
      </trkpt>
      <trkpt lat="47.84875" lon="6.79278">
        <ele>781.651428</ele>
        <time>2018-05-26T16:35:37Z</time>
      </trkpt>
      <trkpt lat="47.84876" lon="6.79276">
        <ele>781.720215</ele>
        <time>2018-05-26T16:35:38Z</time>
      </trkpt>
      <trkpt lat="47.84878" lon="6.79274">
        <ele>781.794373</ele>
        <time>2018-05-26T16:35:39Z</time>
      </trkpt>
      <trkpt lat="47.84879" lon="6.79272">
        <ele>781.918701</ele>
        <time>2018-05-26T16:35:40Z</time>
      </trkpt>
      <trkpt lat="47.8488" lon="6.79271">
        <ele>782.001404</ele>
        <time>2018-05-26T16:35:41Z</time>
      </trkpt>
      <trkpt lat="47.84881" lon="6.79269">
        <ele>782.11377</ele>
        <time>2018-05-26T16:35:42Z</time>
      </trkpt>
      <trkpt lat="47.84882" lon="6.79269">
        <ele>782.184631</ele>
        <time>2018-05-26T16:35:43Z</time>
      </trkpt>
      <trkpt lat="47.84883" lon="6.79268">
        <ele>782.29541</ele>
        <time>2018-05-26T16:35:44Z</time>
      </trkpt>
      <trkpt lat="47.84884" lon="6.79269">
        <ele>782.367676</ele>
        <time>2018-05-26T16:35:45Z</time>
      </trkpt>
      <trkpt lat="47.84886" lon="6.79269">
        <ele>782.479065</ele>
        <time>2018-05-26T16:35:46Z</time>
      </trkpt>
      <trkpt lat="47.84888" lon="6.7927">
        <ele>782.569153</ele>
        <time>2018-05-26T16:35:47Z</time>
      </trkpt>
      <trkpt lat="47.84889" lon="6.7927">
        <ele>782.677002</ele>
        <time>2018-05-26T16:35:48Z</time>
      </trkpt>
      <trkpt lat="47.8489" lon="6.79269">
        <ele>782.861755</ele>
        <time>2018-05-26T16:35:49Z</time>
      </trkpt>
      <trkpt lat="47.84892" lon="6.79269">
        <ele>782.995544</ele>
        <time>2018-05-26T16:35:50Z</time>
      </trkpt>
      <trkpt lat="47.84893" lon="6.79269">
        <ele>783.204346</ele>
        <time>2018-05-26T16:35:51Z</time>
      </trkpt>
      <trkpt lat="47.84895" lon="6.79269">
        <ele>783.346741</ele>
        <time>2018-05-26T16:35:52Z</time>
      </trkpt>
      <trkpt lat="47.84897" lon="6.79269">
        <ele>783.493103</ele>
        <time>2018-05-26T16:35:53Z</time>
      </trkpt>
      <trkpt lat="47.84899" lon="6.79268">
        <ele>783.704529</ele>
        <time>2018-05-26T16:35:54Z</time>
      </trkpt>
      <trkpt lat="47.84901" lon="6.79268">
        <ele>783.840576</ele>
        <time>2018-05-26T16:35:55Z</time>
      </trkpt>
      <trkpt lat="47.84902" lon="6.79268">
        <ele>784.049622</ele>
        <time>2018-05-26T16:35:56Z</time>
      </trkpt>
      <trkpt lat="47.84905" lon="6.79267">
        <ele>784.195251</ele>
        <time>2018-05-26T16:35:57Z</time>
      </trkpt>
      <trkpt lat="47.84906" lon="6.79267">
        <ele>784.345276</ele>
        <time>2018-05-26T16:35:58Z</time>
      </trkpt>
      <trkpt lat="47.84908" lon="6.79266">
        <ele>784.575745</ele>
        <time>2018-05-26T16:35:59Z</time>
      </trkpt>
      <trkpt lat="47.84909" lon="6.79266">
        <ele>784.730713</ele>
        <time>2018-05-26T16:36:00Z</time>
      </trkpt>
      <trkpt lat="47.84911" lon="6.79266">
        <ele>784.954529</ele>
        <time>2018-05-26T16:36:01Z</time>
      </trkpt>
      <trkpt lat="47.84912" lon="6.79267">
        <ele>785.090637</ele>
        <time>2018-05-26T16:36:02Z</time>
      </trkpt>
      <trkpt lat="47.84913" lon="6.79268">
        <ele>785.279968</ele>
        <time>2018-05-26T16:36:03Z</time>
      </trkpt>
      <trkpt lat="47.84915" lon="6.79268">
        <ele>785.400818</ele>
        <time>2018-05-26T16:36:04Z</time>
      </trkpt>
      <trkpt lat="47.84917" lon="6.79268">
        <ele>785.516663</ele>
        <time>2018-05-26T16:36:05Z</time>
      </trkpt>
      <trkpt lat="47.84919" lon="6.79268">
        <ele>785.679749</ele>
        <time>2018-05-26T16:36:06Z</time>
      </trkpt>
      <trkpt lat="47.8492" lon="6.79268">
        <ele>785.794617</ele>
        <time>2018-05-26T16:36:07Z</time>
      </trkpt>
      <trkpt lat="47.84922" lon="6.79268">
        <ele>785.997498</ele>
        <time>2018-05-26T16:36:08Z</time>
      </trkpt>
      <trkpt lat="47.84923" lon="6.79267">
        <ele>786.072205</ele>
        <time>2018-05-26T16:36:09Z</time>
      </trkpt>
      <trkpt lat="47.84925" lon="6.79267">
        <ele>786.304993</ele>
        <time>2018-05-26T16:36:10Z</time>
      </trkpt>
      <trkpt lat="47.84927" lon="6.79267">
        <ele>786.464661</ele>
        <time>2018-05-26T16:36:11Z</time>
      </trkpt>
      <trkpt lat="47.84929" lon="6.79267">
        <ele>786.717041</ele>
        <time>2018-05-26T16:36:12Z</time>
      </trkpt>
      <trkpt lat="47.8493" lon="6.79266">
        <ele>786.886047</ele>
        <time>2018-05-26T16:36:13Z</time>
      </trkpt>
      <trkpt lat="47.84931" lon="6.79266">
        <ele>787.120422</ele>
        <time>2018-05-26T16:36:14Z</time>
      </trkpt>
      <trkpt lat="47.84933" lon="6.79266">
        <ele>787.26947</ele>
        <time>2018-05-26T16:36:15Z</time>
      </trkpt>
      <trkpt lat="47.84935" lon="6.79266">
        <ele>787.421082</ele>
        <time>2018-05-26T16:36:16Z</time>
      </trkpt>
      <trkpt lat="47.84936" lon="6.79265">
        <ele>787.663513</ele>
        <time>2018-05-26T16:36:17Z</time>
      </trkpt>
      <trkpt lat="47.84937" lon="6.79265">
        <ele>787.829285</ele>
        <time>2018-05-26T16:36:18Z</time>
      </trkpt>
      <trkpt lat="47.84938" lon="6.79264">
        <ele>788.072998</ele>
        <time>2018-05-26T16:36:19Z</time>
      </trkpt>
      <trkpt lat="47.84941" lon="6.79263">
        <ele>788.230225</ele>
        <time>2018-05-26T16:36:20Z</time>
      </trkpt>
      <trkpt lat="47.84943" lon="6.79262">
        <ele>788.462585</ele>
        <time>2018-05-26T16:36:21Z</time>
      </trkpt>
      <trkpt lat="47.84945" lon="6.79261">
        <ele>788.611511</ele>
        <time>2018-05-26T16:36:22Z</time>
      </trkpt>
      <trkpt lat="47.84946" lon="6.7926">
        <ele>788.751038</ele>
        <time>2018-05-26T16:36:23Z</time>
      </trkpt>
      <trkpt lat="47.84948" lon="6.79259">
        <ele>788.937561</ele>
        <time>2018-05-26T16:36:24Z</time>
      </trkpt>
      <trkpt lat="47.8495" lon="6.79257">
        <ele>789.054993</ele>
        <time>2018-05-26T16:36:25Z</time>
      </trkpt>
      <trkpt lat="47.84951" lon="6.79256">
        <ele>789.23175</ele>
        <time>2018-05-26T16:36:26Z</time>
      </trkpt>
      <trkpt lat="47.84954" lon="6.79254">
        <ele>789.349854</ele>
        <time>2018-05-26T16:36:27Z</time>
      </trkpt>
      <trkpt lat="47.84955" lon="6.79252">
        <ele>789.530945</ele>
        <time>2018-05-26T16:36:28Z</time>
      </trkpt>
      <trkpt lat="47.84957" lon="6.7925">
        <ele>789.663635</ele>
        <time>2018-05-26T16:36:29Z</time>
      </trkpt>
      <trkpt lat="47.84958" lon="6.79248">
        <ele>789.876282</ele>
        <time>2018-05-26T16:36:30Z</time>
      </trkpt>
      <trkpt lat="47.8496" lon="6.79247">
        <ele>790.016602</ele>
        <time>2018-05-26T16:36:31Z</time>
      </trkpt>
      <trkpt lat="47.84961" lon="6.79245">
        <ele>790.219421</ele>
        <time>2018-05-26T16:36:32Z</time>
      </trkpt>
      <trkpt lat="47.84963" lon="6.79244">
        <ele>790.357239</ele>
        <time>2018-05-26T16:36:33Z</time>
      </trkpt>
      <trkpt lat="47.84964" lon="6.79242">
        <ele>790.500916</ele>
        <time>2018-05-26T16:36:34Z</time>
      </trkpt>
      <trkpt lat="47.84966" lon="6.7924">
        <ele>790.711731</ele>
        <time>2018-05-26T16:36:35Z</time>
      </trkpt>
      <trkpt lat="47.84967" lon="6.79238">
        <ele>790.831482</ele>
        <time>2018-05-26T16:36:36Z</time>
      </trkpt>
      <trkpt lat="47.84968" lon="6.79236">
        <ele>790.974182</ele>
        <time>2018-05-26T16:36:37Z</time>
      </trkpt>
      <trkpt lat="47.84969" lon="6.79233">
        <ele>791.055115</ele>
        <time>2018-05-26T16:36:38Z</time>
      </trkpt>
      <trkpt lat="47.84971" lon="6.79231">
        <ele>791.156738</ele>
        <time>2018-05-26T16:36:39Z</time>
      </trkpt>
      <trkpt lat="47.84971" lon="6.79229">
        <ele>791.211121</ele>
        <time>2018-05-26T16:36:40Z</time>
      </trkpt>
      <trkpt lat="47.84972" lon="6.79226">
        <ele>791.253235</ele>
        <time>2018-05-26T16:36:41Z</time>
      </trkpt>
      <trkpt lat="47.84974" lon="6.79224">
        <ele>791.306152</ele>
        <time>2018-05-26T16:36:42Z</time>
      </trkpt>
      <trkpt lat="47.84975" lon="6.79222">
        <ele>791.340881</ele>
        <time>2018-05-26T16:36:43Z</time>
      </trkpt>
      <trkpt lat="47.84976" lon="6.79219">
        <ele>791.406311</ele>
        <time>2018-05-26T16:36:44Z</time>
      </trkpt>
      <trkpt lat="47.84977" lon="6.79217">
        <ele>791.461243</ele>
        <time>2018-05-26T16:36:45Z</time>
      </trkpt>
      <trkpt lat="47.84978" lon="6.79214">
        <ele>791.561707</ele>
        <time>2018-05-26T16:36:46Z</time>
      </trkpt>
      <trkpt lat="47.84979" lon="6.79211">
        <ele>791.63501</ele>
        <time>2018-05-26T16:36:47Z</time>
      </trkpt>
      <trkpt lat="47.8498" lon="6.79209">
        <ele>791.714111</ele>
        <time>2018-05-26T16:36:48Z</time>
      </trkpt>
      <trkpt lat="47.84981" lon="6.79206">
        <ele>791.845032</ele>
        <time>2018-05-26T16:36:49Z</time>
      </trkpt>
      <trkpt lat="47.84981" lon="6.79203">
        <ele>791.936523</ele>
        <time>2018-05-26T16:36:50Z</time>
      </trkpt>
      <trkpt lat="47.84982" lon="6.792">
        <ele>792.073486</ele>
        <time>2018-05-26T16:36:51Z</time>
      </trkpt>
      <trkpt lat="47.84982" lon="6.79197">
        <ele>792.169617</ele>
        <time>2018-05-26T16:36:52Z</time>
      </trkpt>
      <trkpt lat="47.84982" lon="6.79194">
        <ele>792.266602</ele>
        <time>2018-05-26T16:36:53Z</time>
      </trkpt>
      <trkpt lat="47.84982" lon="6.79191">
        <ele>792.404114</ele>
        <time>2018-05-26T16:36:54Z</time>
      </trkpt>
      <trkpt lat="47.84981" lon="6.79188">
        <ele>792.487793</ele>
        <time>2018-05-26T16:36:55Z</time>
      </trkpt>
      <trkpt lat="47.84981" lon="6.79185">
        <ele>792.607605</ele>
        <time>2018-05-26T16:36:56Z</time>
      </trkpt>
      <trkpt lat="47.84981" lon="6.79182">
        <ele>792.681335</ele>
        <time>2018-05-26T16:36:57Z</time>
      </trkpt>
      <trkpt lat="47.84981" lon="6.79178">
        <ele>792.765686</ele>
        <time>2018-05-26T16:36:58Z</time>
      </trkpt>
      <trkpt lat="47.8498" lon="6.79175">
        <ele>792.802917</ele>
        <time>2018-05-26T16:36:59Z</time>
      </trkpt>
      <trkpt lat="47.8498" lon="6.79172">
        <ele>792.837585</ele>
        <time>2018-05-26T16:37:00Z</time>
      </trkpt>
      <trkpt lat="47.8498" lon="6.79169">
        <ele>792.903259</ele>
        <time>2018-05-26T16:37:01Z</time>
      </trkpt>
      <trkpt lat="47.84979" lon="6.79165">
        <ele>792.96344</ele>
        <time>2018-05-26T16:37:02Z</time>
      </trkpt>
      <trkpt lat="47.84978" lon="6.79161">
        <ele>793.063416</ele>
        <time>2018-05-26T16:37:03Z</time>
      </trkpt>
      <trkpt lat="47.84977" lon="6.79158">
        <ele>793.131165</ele>
        <time>2018-05-26T16:37:04Z</time>
      </trkpt>
      <trkpt lat="47.84976" lon="6.79154">
        <ele>793.216797</ele>
        <time>2018-05-26T16:37:05Z</time>
      </trkpt>
      <trkpt lat="47.84975" lon="6.7915">
        <ele>793.26239</ele>
        <time>2018-05-26T16:37:06Z</time>
      </trkpt>
      <trkpt lat="47.84974" lon="6.79146">
        <ele>793.297058</ele>
        <time>2018-05-26T16:37:07Z</time>
      </trkpt>
      <trkpt lat="47.84973" lon="6.79142">
        <ele>793.321777</ele>
        <time>2018-05-26T16:37:08Z</time>
      </trkpt>
      <trkpt lat="47.84972" lon="6.79138">
        <ele>793.32196</ele>
        <time>2018-05-26T16:37:09Z</time>
      </trkpt>
      <trkpt lat="47.84972" lon="6.79134">
        <ele>793.32196</ele>
        <time>2018-05-26T16:37:10Z</time>
      </trkpt>
      <trkpt lat="47.84971" lon="6.7913">
        <ele>793.309326</ele>
        <time>2018-05-26T16:37:11Z</time>
      </trkpt>
      <trkpt lat="47.84971" lon="6.79125">
        <ele>793.282776</ele>
        <time>2018-05-26T16:37:12Z</time>
      </trkpt>
      <trkpt lat="47.84969" lon="6.79121">
        <ele>793.215393</ele>
        <time>2018-05-26T16:37:13Z</time>
      </trkpt>
      <trkpt lat="47.84967" lon="6.79115">
        <ele>793.149902</ele>
        <time>2018-05-26T16:37:14Z</time>
      </trkpt>
      <trkpt lat="47.84966" lon="6.7911">
        <ele>793.068542</ele>
        <time>2018-05-26T16:37:15Z</time>
      </trkpt>
      <trkpt lat="47.84964" lon="6.79104">
        <ele>792.909119</ele>
        <time>2018-05-26T16:37:16Z</time>
      </trkpt>
      <trkpt lat="47.84963" lon="6.79099">
        <ele>792.774475</ele>
        <time>2018-05-26T16:37:17Z</time>
      </trkpt>
      <trkpt lat="47.84961" lon="6.79093">
        <ele>792.539795</ele>
        <time>2018-05-26T16:37:18Z</time>
      </trkpt>
      <trkpt lat="47.84959" lon="6.79087">
        <ele>792.377441</ele>
        <time>2018-05-26T16:37:19Z</time>
      </trkpt>
      <trkpt lat="47.84958" lon="6.79082">
        <ele>792.221497</ele>
        <time>2018-05-26T16:37:20Z</time>
      </trkpt>
      <trkpt lat="47.84956" lon="6.79077">
        <ele>791.994629</ele>
        <time>2018-05-26T16:37:21Z</time>
      </trkpt>
      <trkpt lat="47.84954" lon="6.79073">
        <ele>791.849304</ele>
        <time>2018-05-26T16:37:22Z</time>
      </trkpt>
      <trkpt lat="47.84953" lon="6.79068">
        <ele>791.674255</ele>
        <time>2018-05-26T16:37:23Z</time>
      </trkpt>
      <trkpt lat="47.84951" lon="6.79064">
        <ele>791.598206</ele>
        <time>2018-05-26T16:37:24Z</time>
      </trkpt>
      <trkpt lat="47.8495" lon="6.79059">
        <ele>791.548523</ele>
        <time>2018-05-26T16:37:25Z</time>
      </trkpt>
      <trkpt lat="47.84948" lon="6.79055">
        <ele>791.506775</ele>
        <time>2018-05-26T16:37:26Z</time>
      </trkpt>
      <trkpt lat="47.84946" lon="6.7905">
        <ele>791.504395</ele>
        <time>2018-05-26T16:37:27Z</time>
      </trkpt>
      <trkpt lat="47.84945" lon="6.79046">
        <ele>791.522278</ele>
        <time>2018-05-26T16:37:28Z</time>
      </trkpt>
      <trkpt lat="47.84944" lon="6.79041">
        <ele>791.567627</ele>
        <time>2018-05-26T16:37:29Z</time>
      </trkpt>
      <trkpt lat="47.84943" lon="6.79038">
        <ele>791.623718</ele>
        <time>2018-05-26T16:37:30Z</time>
      </trkpt>
      <trkpt lat="47.84942" lon="6.79034">
        <ele>791.720764</ele>
        <time>2018-05-26T16:37:31Z</time>
      </trkpt>
      <trkpt lat="47.8494" lon="6.79031">
        <ele>791.808533</ele>
        <time>2018-05-26T16:37:32Z</time>
      </trkpt>
      <trkpt lat="47.84938" lon="6.79028">
        <ele>791.997253</ele>
        <time>2018-05-26T16:37:33Z</time>
      </trkpt>
      <trkpt lat="47.84937" lon="6.79025">
        <ele>792.154236</ele>
        <time>2018-05-26T16:37:34Z</time>
      </trkpt>
      <trkpt lat="47.84936" lon="6.79021">
        <ele>792.410461</ele>
        <time>2018-05-26T16:37:35Z</time>
      </trkpt>
      <trkpt lat="47.84935" lon="6.79017">
        <ele>792.597351</ele>
        <time>2018-05-26T16:37:36Z</time>
      </trkpt>
      <trkpt lat="47.84934" lon="6.79013">
        <ele>792.796631</ele>
        <time>2018-05-26T16:37:37Z</time>
      </trkpt>
      <trkpt lat="47.84932" lon="6.79008">
        <ele>793.091797</ele>
        <time>2018-05-26T16:37:38Z</time>
      </trkpt>
      <trkpt lat="47.84932" lon="6.79004">
        <ele>793.261719</ele>
        <time>2018-05-26T16:37:39Z</time>
      </trkpt>
      <trkpt lat="47.84931" lon="6.79">
        <ele>793.457458</ele>
        <time>2018-05-26T16:37:40Z</time>
      </trkpt>
      <trkpt lat="47.8493" lon="6.78996">
        <ele>793.568054</ele>
        <time>2018-05-26T16:37:41Z</time>
      </trkpt>
      <trkpt lat="47.8493" lon="6.78991">
        <ele>793.679199</ele>
        <time>2018-05-26T16:37:42Z</time>
      </trkpt>
      <trkpt lat="47.84931" lon="6.78986">
        <ele>793.850098</ele>
        <time>2018-05-26T16:37:43Z</time>
      </trkpt>
      <trkpt lat="47.84931" lon="6.78981">
        <ele>793.958679</ele>
        <time>2018-05-26T16:37:44Z</time>
      </trkpt>
      <trkpt lat="47.84932" lon="6.78976">
        <ele>794.113525</ele>
        <time>2018-05-26T16:37:45Z</time>
      </trkpt>
      <trkpt lat="47.84933" lon="6.78972">
        <ele>794.206055</ele>
        <time>2018-05-26T16:37:46Z</time>
      </trkpt>
      <trkpt lat="47.84935" lon="6.78968">
        <ele>794.315918</ele>
        <time>2018-05-26T16:37:47Z</time>
      </trkpt>
      <trkpt lat="47.84936" lon="6.78964">
        <ele>794.363953</ele>
        <time>2018-05-26T16:37:48Z</time>
      </trkpt>
      <trkpt lat="47.84937" lon="6.78958">
        <ele>794.393982</ele>
        <time>2018-05-26T16:37:49Z</time>
      </trkpt>
      <trkpt lat="47.84939" lon="6.78953">
        <ele>794.396179</ele>
        <time>2018-05-26T16:37:50Z</time>
      </trkpt>
      <trkpt lat="47.84942" lon="6.78949">
        <ele>794.393738</ele>
        <time>2018-05-26T16:37:51Z</time>
      </trkpt>
      <trkpt lat="47.84945" lon="6.78945">
        <ele>794.369202</ele>
        <time>2018-05-26T16:37:52Z</time>
      </trkpt>
      <trkpt lat="47.84947" lon="6.78941">
        <ele>794.34613</ele>
        <time>2018-05-26T16:37:53Z</time>
      </trkpt>
      <trkpt lat="47.8495" lon="6.78936">
        <ele>794.316895</ele>
        <time>2018-05-26T16:37:54Z</time>
      </trkpt>
      <trkpt lat="47.84953" lon="6.78931">
        <ele>794.288635</ele>
        <time>2018-05-26T16:37:55Z</time>
      </trkpt>
      <trkpt lat="47.84956" lon="6.78927">
        <ele>794.210999</ele>
        <time>2018-05-26T16:37:56Z</time>
      </trkpt>
      <trkpt lat="47.84958" lon="6.78924">
        <ele>794.132141</ele>
        <time>2018-05-26T16:37:57Z</time>
      </trkpt>
      <trkpt lat="47.84962" lon="6.78921">
        <ele>793.993896</ele>
        <time>2018-05-26T16:37:58Z</time>
      </trkpt>
      <trkpt lat="47.84965" lon="6.78917">
        <ele>793.889221</ele>
        <time>2018-05-26T16:37:59Z</time>
      </trkpt>
      <trkpt lat="47.84967" lon="6.78913">
        <ele>793.713867</ele>
        <time>2018-05-26T16:38:00Z</time>
      </trkpt>
      <trkpt lat="47.84967" lon="6.7891">
        <ele>793.596008</ele>
        <time>2018-05-26T16:38:01Z</time>
      </trkpt>
      <trkpt lat="47.84967" lon="6.78908">
        <ele>793.490906</ele>
        <time>2018-05-26T16:38:02Z</time>
      </trkpt>
      <trkpt lat="47.84971" lon="6.78906">
        <ele>793.36499</ele>
        <time>2018-05-26T16:38:03Z</time>
      </trkpt>
      <trkpt lat="47.84975" lon="6.78902">
        <ele>793.292908</ele>
        <time>2018-05-26T16:38:04Z</time>
      </trkpt>
      <trkpt lat="47.8498" lon="6.78898">
        <ele>793.193787</ele>
        <time>2018-05-26T16:38:05Z</time>
      </trkpt>
      <trkpt lat="47.84984" lon="6.78895">
        <ele>793.127686</ele>
        <time>2018-05-26T16:38:06Z</time>
      </trkpt>
      <trkpt lat="47.84988" lon="6.78893">
        <ele>793.020447</ele>
        <time>2018-05-26T16:38:07Z</time>
      </trkpt>
      <trkpt lat="47.84993" lon="6.7889">
        <ele>792.932129</ele>
        <time>2018-05-26T16:38:08Z</time>
      </trkpt>
      <trkpt lat="47.84996" lon="6.78887">
        <ele>792.829163</ele>
        <time>2018-05-26T16:38:09Z</time>
      </trkpt>
      <trkpt lat="47.85" lon="6.78885">
        <ele>792.656738</ele>
        <time>2018-05-26T16:38:10Z</time>
      </trkpt>
      <trkpt lat="47.85004" lon="6.78883">
        <ele>792.602234</ele>
        <time>2018-05-26T16:38:11Z</time>
      </trkpt>
      <trkpt lat="47.85008" lon="6.78881">
        <ele>792.507141</ele>
        <time>2018-05-26T16:38:12Z</time>
      </trkpt>
      <trkpt lat="47.85012" lon="6.78879">
        <ele>792.443054</ele>
        <time>2018-05-26T16:38:13Z</time>
      </trkpt>
      <trkpt lat="47.85016" lon="6.78877">
        <ele>792.403992</ele>
        <time>2018-05-26T16:38:14Z</time>
      </trkpt>
      <trkpt lat="47.8502" lon="6.78875">
        <ele>792.365906</ele>
        <time>2018-05-26T16:38:15Z</time>
      </trkpt>
      <trkpt lat="47.85024" lon="6.78874">
        <ele>792.349304</ele>
        <time>2018-05-26T16:38:16Z</time>
      </trkpt>
      <trkpt lat="47.85028" lon="6.78872">
        <ele>792.337402</ele>
        <time>2018-05-26T16:38:17Z</time>
      </trkpt>
      <trkpt lat="47.85032" lon="6.7887">
        <ele>792.333252</ele>
        <time>2018-05-26T16:38:18Z</time>
      </trkpt>
      <trkpt lat="47.85035" lon="6.78868">
        <ele>792.322266</ele>
        <time>2018-05-26T16:38:19Z</time>
      </trkpt>
      <trkpt lat="47.85039" lon="6.78867">
        <ele>792.273254</ele>
        <time>2018-05-26T16:38:20Z</time>
      </trkpt>
      <trkpt lat="47.85042" lon="6.78865">
        <ele>792.230408</ele>
        <time>2018-05-26T16:38:21Z</time>
      </trkpt>
      <trkpt lat="47.85046" lon="6.78864">
        <ele>792.171387</ele>
        <time>2018-05-26T16:38:22Z</time>
      </trkpt>
      <trkpt lat="47.85049" lon="6.78862">
        <ele>792.128601</ele>
        <time>2018-05-26T16:38:23Z</time>
      </trkpt>
      <trkpt lat="47.85053" lon="6.78861">
        <ele>792.048828</ele>
        <time>2018-05-26T16:38:24Z</time>
      </trkpt>
      <trkpt lat="47.85056" lon="6.78859">
        <ele>792.001038</ele>
        <time>2018-05-26T16:38:25Z</time>
      </trkpt>
      <trkpt lat="47.85059" lon="6.78858">
        <ele>791.969177</ele>
        <time>2018-05-26T16:38:26Z</time>
      </trkpt>
      <trkpt lat="47.85062" lon="6.78856">
        <ele>791.938171</ele>
        <time>2018-05-26T16:38:27Z</time>
      </trkpt>
      <trkpt lat="47.85065" lon="6.78854">
        <ele>791.90863</ele>
        <time>2018-05-26T16:38:28Z</time>
      </trkpt>
      <trkpt lat="47.85069" lon="6.78852">
        <ele>791.854309</ele>
        <time>2018-05-26T16:38:29Z</time>
      </trkpt>
      <trkpt lat="47.85072" lon="6.78851">
        <ele>791.82666</ele>
        <time>2018-05-26T16:38:30Z</time>
      </trkpt>
      <trkpt lat="47.85075" lon="6.78849">
        <ele>791.80542</ele>
        <time>2018-05-26T16:38:31Z</time>
      </trkpt>
      <trkpt lat="47.85079" lon="6.78846">
        <ele>791.747009</ele>
        <time>2018-05-26T16:38:32Z</time>
      </trkpt>
      <trkpt lat="47.85083" lon="6.78843">
        <ele>791.685974</ele>
        <time>2018-05-26T16:38:33Z</time>
      </trkpt>
      <trkpt lat="47.85088" lon="6.7884">
        <ele>791.587952</ele>
        <time>2018-05-26T16:38:34Z</time>
      </trkpt>
      <trkpt lat="47.85091" lon="6.78838">
        <ele>791.529846</ele>
        <time>2018-05-26T16:38:35Z</time>
      </trkpt>
      <trkpt lat="47.85095" lon="6.78836">
        <ele>791.471375</ele>
        <time>2018-05-26T16:38:36Z</time>
      </trkpt>
      <trkpt lat="47.85098" lon="6.78834">
        <ele>791.368958</ele>
        <time>2018-05-26T16:38:37Z</time>
      </trkpt>
      <trkpt lat="47.85102" lon="6.78833">
        <ele>791.292908</ele>
        <time>2018-05-26T16:38:38Z</time>
      </trkpt>
      <trkpt lat="47.85106" lon="6.78832">
        <ele>791.181458</ele>
        <time>2018-05-26T16:38:39Z</time>
      </trkpt>
      <trkpt lat="47.85111" lon="6.78831">
        <ele>791.112854</ele>
        <time>2018-05-26T16:38:40Z</time>
      </trkpt>
      <trkpt lat="47.85115" lon="6.7883">
        <ele>791.014832</ele>
        <time>2018-05-26T16:38:41Z</time>
      </trkpt>
      <trkpt lat="47.85119" lon="6.7883">
        <ele>790.945374</ele>
        <time>2018-05-26T16:38:42Z</time>
      </trkpt>
      <trkpt lat="47.85122" lon="6.78828">
        <ele>790.873047</ele>
        <time>2018-05-26T16:38:43Z</time>
      </trkpt>
      <trkpt lat="47.85127" lon="6.78826">
        <ele>790.763184</ele>
        <time>2018-05-26T16:38:44Z</time>
      </trkpt>
      <trkpt lat="47.85132" lon="6.78825">
        <ele>790.688538</ele>
        <time>2018-05-26T16:38:45Z</time>
      </trkpt>
      <trkpt lat="47.85137" lon="6.78823">
        <ele>790.56366</ele>
        <time>2018-05-26T16:38:46Z</time>
      </trkpt>
      <trkpt lat="47.85141" lon="6.7882">
        <ele>790.471863</ele>
        <time>2018-05-26T16:38:47Z</time>
      </trkpt>
      <trkpt lat="47.85145" lon="6.78818">
        <ele>790.32196</ele>
        <time>2018-05-26T16:38:48Z</time>
      </trkpt>
      <trkpt lat="47.85149" lon="6.78815">
        <ele>790.215576</ele>
        <time>2018-05-26T16:38:49Z</time>
      </trkpt>
      <trkpt lat="47.85153" lon="6.78812">
        <ele>790.105164</ele>
        <time>2018-05-26T16:38:50Z</time>
      </trkpt>
      <trkpt lat="47.85157" lon="6.78809">
        <ele>789.920654</ele>
        <time>2018-05-26T16:38:51Z</time>
      </trkpt>
      <trkpt lat="47.8516" lon="6.78806">
        <ele>789.792542</ele>
        <time>2018-05-26T16:38:52Z</time>
      </trkpt>
      <trkpt lat="47.85163" lon="6.78803">
        <ele>789.64032</ele>
        <time>2018-05-26T16:38:53Z</time>
      </trkpt>
      <trkpt lat="47.85166" lon="6.788">
        <ele>789.60791</ele>
        <time>2018-05-26T16:38:54Z</time>
      </trkpt>
      <trkpt lat="47.85169" lon="6.78798">
        <ele>789.611755</ele>
        <time>2018-05-26T16:38:55Z</time>
      </trkpt>
      <trkpt lat="47.85172" lon="6.78796">
        <ele>789.650879</ele>
        <time>2018-05-26T16:38:56Z</time>
      </trkpt>
      <trkpt lat="47.85174" lon="6.78794">
        <ele>789.711975</ele>
        <time>2018-05-26T16:38:57Z</time>
      </trkpt>
      <trkpt lat="47.85178" lon="6.78793">
        <ele>789.8255</ele>
        <time>2018-05-26T16:38:58Z</time>
      </trkpt>
      <trkpt lat="47.85181" lon="6.78791">
        <ele>789.928162</ele>
        <time>2018-05-26T16:38:59Z</time>
      </trkpt>
      <trkpt lat="47.85184" lon="6.7879">
        <ele>790.118652</ele>
        <time>2018-05-26T16:39:00Z</time>
      </trkpt>
      <trkpt lat="47.85186" lon="6.78788">
        <ele>790.260986</ele>
        <time>2018-05-26T16:39:01Z</time>
      </trkpt>
      <trkpt lat="47.85189" lon="6.78786">
        <ele>790.496582</ele>
        <time>2018-05-26T16:39:02Z</time>
      </trkpt>
      <trkpt lat="47.85191" lon="6.78784">
        <ele>790.673523</ele>
        <time>2018-05-26T16:39:03Z</time>
      </trkpt>
      <trkpt lat="47.85193" lon="6.78782">
        <ele>790.860535</ele>
        <time>2018-05-26T16:39:04Z</time>
      </trkpt>
      <trkpt lat="47.85196" lon="6.78781">
        <ele>791.135742</ele>
        <time>2018-05-26T16:39:05Z</time>
      </trkpt>
      <trkpt lat="47.85199" lon="6.7878">
        <ele>791.297546</ele>
        <time>2018-05-26T16:39:06Z</time>
      </trkpt>
      <trkpt lat="47.85201" lon="6.78779">
        <ele>791.50531</ele>
        <time>2018-05-26T16:39:07Z</time>
      </trkpt>
      <trkpt lat="47.85205" lon="6.78778">
        <ele>791.641113</ele>
        <time>2018-05-26T16:39:08Z</time>
      </trkpt>
      <trkpt lat="47.85207" lon="6.78777">
        <ele>791.869446</ele>
        <time>2018-05-26T16:39:09Z</time>
      </trkpt>
      <trkpt lat="47.8521" lon="6.78776">
        <ele>792.026367</ele>
        <time>2018-05-26T16:39:10Z</time>
      </trkpt>
      <trkpt lat="47.85214" lon="6.78776">
        <ele>792.242004</ele>
        <time>2018-05-26T16:39:11Z</time>
      </trkpt>
      <trkpt lat="47.85216" lon="6.78775">
        <ele>792.310059</ele>
        <time>2018-05-26T16:39:12Z</time>
      </trkpt>
      <trkpt lat="47.85218" lon="6.78774">
        <ele>792.377136</ele>
        <time>2018-05-26T16:39:13Z</time>
      </trkpt>
      <trkpt lat="47.85221" lon="6.78773">
        <ele>792.585754</ele>
        <time>2018-05-26T16:39:14Z</time>
      </trkpt>
      <trkpt lat="47.85222" lon="6.78773">
        <ele>792.729919</ele>
        <time>2018-05-26T16:39:15Z</time>
      </trkpt>
      <trkpt lat="47.85225" lon="6.78772">
        <ele>792.934387</ele>
        <time>2018-05-26T16:39:16Z</time>
      </trkpt>
      <trkpt lat="47.85228" lon="6.78771">
        <ele>793.055969</ele>
        <time>2018-05-26T16:39:17Z</time>
      </trkpt>
      <trkpt lat="47.85231" lon="6.78771">
        <ele>793.222168</ele>
        <time>2018-05-26T16:39:18Z</time>
      </trkpt>
      <trkpt lat="47.85234" lon="6.7877">
        <ele>793.324158</ele>
        <time>2018-05-26T16:39:19Z</time>
      </trkpt>
      <trkpt lat="47.85236" lon="6.78769">
        <ele>793.420715</ele>
        <time>2018-05-26T16:39:20Z</time>
      </trkpt>
      <trkpt lat="47.85239" lon="6.78769">
        <ele>793.562012</ele>
        <time>2018-05-26T16:39:21Z</time>
      </trkpt>
      <trkpt lat="47.85241" lon="6.78769">
        <ele>793.647278</ele>
        <time>2018-05-26T16:39:22Z</time>
      </trkpt>
      <trkpt lat="47.85244" lon="6.78768">
        <ele>793.755615</ele>
        <time>2018-05-26T16:39:23Z</time>
      </trkpt>
      <trkpt lat="47.85247" lon="6.78768">
        <ele>793.823792</ele>
        <time>2018-05-26T16:39:24Z</time>
      </trkpt>
      <trkpt lat="47.85249" lon="6.78767">
        <ele>793.897461</ele>
        <time>2018-05-26T16:39:25Z</time>
      </trkpt>
      <trkpt lat="47.85252" lon="6.78767">
        <ele>794.00946</ele>
        <time>2018-05-26T16:39:26Z</time>
      </trkpt>
      <trkpt lat="47.85255" lon="6.78767">
        <ele>794.076843</ele>
        <time>2018-05-26T16:39:27Z</time>
      </trkpt>
      <trkpt lat="47.85257" lon="6.78766">
        <ele>794.1745</ele>
        <time>2018-05-26T16:39:28Z</time>
      </trkpt>
      <trkpt lat="47.85258" lon="6.78765">
        <ele>794.244568</ele>
        <time>2018-05-26T16:39:29Z</time>
      </trkpt>
      <trkpt lat="47.8526" lon="6.78765">
        <ele>794.320068</ele>
        <time>2018-05-26T16:39:30Z</time>
      </trkpt>
      <trkpt lat="47.85262" lon="6.78764">
        <ele>794.448792</ele>
        <time>2018-05-26T16:39:31Z</time>
      </trkpt>
      <trkpt lat="47.85263" lon="6.78763">
        <ele>794.549561</ele>
        <time>2018-05-26T16:39:32Z</time>
      </trkpt>
      <trkpt lat="47.85265" lon="6.78761">
        <ele>794.736145</ele>
        <time>2018-05-26T16:39:33Z</time>
      </trkpt>
      <trkpt lat="47.85267" lon="6.7876">
        <ele>794.886414</ele>
        <time>2018-05-26T16:39:34Z</time>
      </trkpt>
      <trkpt lat="47.85268" lon="6.78758">
        <ele>795.058533</ele>
        <time>2018-05-26T16:39:35Z</time>
      </trkpt>
      <trkpt lat="47.85269" lon="6.78757">
        <ele>795.356934</ele>
        <time>2018-05-26T16:39:36Z</time>
      </trkpt>
      <trkpt lat="47.85271" lon="6.78755">
        <ele>795.578613</ele>
        <time>2018-05-26T16:39:37Z</time>
      </trkpt>
      <trkpt lat="47.85272" lon="6.78753">
        <ele>795.927673</ele>
        <time>2018-05-26T16:39:38Z</time>
      </trkpt>
      <trkpt lat="47.85273" lon="6.78751">
        <ele>796.1604</ele>
        <time>2018-05-26T16:39:39Z</time>
      </trkpt>
      <trkpt lat="47.85275" lon="6.7875">
        <ele>796.385315</ele>
        <time>2018-05-26T16:39:40Z</time>
      </trkpt>
      <trkpt lat="47.85276" lon="6.78748">
        <ele>796.696716</ele>
        <time>2018-05-26T16:39:41Z</time>
      </trkpt>
      <trkpt lat="47.85278" lon="6.78746">
        <ele>796.891663</ele>
        <time>2018-05-26T16:39:42Z</time>
      </trkpt>
      <trkpt lat="47.85278" lon="6.78744">
        <ele>797.168945</ele>
        <time>2018-05-26T16:39:43Z</time>
      </trkpt>
      <trkpt lat="47.8528" lon="6.78741">
        <ele>797.347717</ele>
        <time>2018-05-26T16:39:44Z</time>
      </trkpt>
      <trkpt lat="47.85281" lon="6.78739">
        <ele>797.611084</ele>
        <time>2018-05-26T16:39:45Z</time>
      </trkpt>
      <trkpt lat="47.85282" lon="6.78737">
        <ele>797.781921</ele>
        <time>2018-05-26T16:39:46Z</time>
      </trkpt>
      <trkpt lat="47.85283" lon="6.78734">
        <ele>798.024719</ele>
        <time>2018-05-26T16:39:47Z</time>
      </trkpt>
      <trkpt lat="47.85285" lon="6.78732">
        <ele>798.175232</ele>
        <time>2018-05-26T16:39:48Z</time>
      </trkpt>
      <trkpt lat="47.85286" lon="6.7873">
        <ele>798.373108</ele>
        <time>2018-05-26T16:39:49Z</time>
      </trkpt>
      <trkpt lat="47.85287" lon="6.78728">
        <ele>798.489258</ele>
        <time>2018-05-26T16:39:50Z</time>
      </trkpt>
      <trkpt lat="47.85288" lon="6.78726">
        <ele>798.597961</ele>
        <time>2018-05-26T16:39:51Z</time>
      </trkpt>
      <trkpt lat="47.8529" lon="6.78724">
        <ele>798.756897</ele>
        <time>2018-05-26T16:39:52Z</time>
      </trkpt>
      <trkpt lat="47.85291" lon="6.78721">
        <ele>798.868713</ele>
        <time>2018-05-26T16:39:53Z</time>
      </trkpt>
      <trkpt lat="47.85292" lon="6.78718">
        <ele>799.043762</ele>
        <time>2018-05-26T16:39:54Z</time>
      </trkpt>
      <trkpt lat="47.85294" lon="6.78716">
        <ele>799.162781</ele>
        <time>2018-05-26T16:39:55Z</time>
      </trkpt>
      <trkpt lat="47.85296" lon="6.78713">
        <ele>799.358459</ele>
        <time>2018-05-26T16:39:56Z</time>
      </trkpt>
      <trkpt lat="47.85297" lon="6.78711">
        <ele>799.496155</ele>
        <time>2018-05-26T16:39:57Z</time>
      </trkpt>
      <trkpt lat="47.85298" lon="6.78708">
        <ele>799.69458</ele>
        <time>2018-05-26T16:39:58Z</time>
      </trkpt>
      <trkpt lat="47.853" lon="6.78706">
        <ele>799.804016</ele>
        <time>2018-05-26T16:39:59Z</time>
      </trkpt>
      <trkpt lat="47.85302" lon="6.78704">
        <ele>799.920105</ele>
        <time>2018-05-26T16:40:00Z</time>
      </trkpt>
      <trkpt lat="47.85305" lon="6.78703">
        <ele>799.965759</ele>
        <time>2018-05-26T16:40:01Z</time>
      </trkpt>
      <trkpt lat="47.85308" lon="6.78701">
        <ele>799.989197</ele>
        <time>2018-05-26T16:40:02Z</time>
      </trkpt>
      <trkpt lat="47.8531" lon="6.787">
        <ele>799.991882</ele>
        <time>2018-05-26T16:40:03Z</time>
      </trkpt>
      <trkpt lat="47.85313" lon="6.78699">
        <ele>799.984314</ele>
        <time>2018-05-26T16:40:04Z</time>
      </trkpt>
      <trkpt lat="47.85316" lon="6.78698">
        <ele>799.952576</ele>
        <time>2018-05-26T16:40:05Z</time>
      </trkpt>
      <trkpt lat="47.85319" lon="6.78697">
        <ele>799.92926</ele>
        <time>2018-05-26T16:40:06Z</time>
      </trkpt>
      <trkpt lat="47.85321" lon="6.78696">
        <ele>799.899902</ele>
        <time>2018-05-26T16:40:07Z</time>
      </trkpt>
      <trkpt lat="47.85324" lon="6.78695">
        <ele>799.894958</ele>
        <time>2018-05-26T16:40:08Z</time>
      </trkpt>
      <trkpt lat="47.85326" lon="6.78695">
        <ele>799.896729</ele>
        <time>2018-05-26T16:40:09Z</time>
      </trkpt>
      <trkpt lat="47.85329" lon="6.78695">
        <ele>799.91156</ele>
        <time>2018-05-26T16:40:10Z</time>
      </trkpt>
      <trkpt lat="47.85333" lon="6.78694">
        <ele>799.933411</ele>
        <time>2018-05-26T16:40:11Z</time>
      </trkpt>
      <trkpt lat="47.85335" lon="6.78694">
        <ele>799.975769</ele>
        <time>2018-05-26T16:40:12Z</time>
      </trkpt>
      <trkpt lat="47.85338" lon="6.78694">
        <ele>799.993164</ele>
        <time>2018-05-26T16:40:13Z</time>
      </trkpt>
      <trkpt lat="47.85341" lon="6.78694">
        <ele>800.05304</ele>
        <time>2018-05-26T16:40:14Z</time>
      </trkpt>
      <trkpt lat="47.85344" lon="6.78694">
        <ele>800.089355</ele>
        <time>2018-05-26T16:40:15Z</time>
      </trkpt>
      <trkpt lat="47.85347" lon="6.78695">
        <ele>800.119385</ele>
        <time>2018-05-26T16:40:16Z</time>
      </trkpt>
      <trkpt lat="47.8535" lon="6.78695">
        <ele>800.123108</ele>
        <time>2018-05-26T16:40:17Z</time>
      </trkpt>
      <trkpt lat="47.85353" lon="6.78695">
        <ele>800.123047</ele>
        <time>2018-05-26T16:40:18Z</time>
      </trkpt>
      <trkpt lat="47.85355" lon="6.78695">
        <ele>800.117371</ele>
        <time>2018-05-26T16:40:19Z</time>
      </trkpt>
      <trkpt lat="47.85358" lon="6.78696">
        <ele>800.107361</ele>
        <time>2018-05-26T16:40:20Z</time>
      </trkpt>
      <trkpt lat="47.85361" lon="6.78697">
        <ele>800.105469</ele>
        <time>2018-05-26T16:40:21Z</time>
      </trkpt>
      <trkpt lat="47.85364" lon="6.78698">
        <ele>800.111755</ele>
        <time>2018-05-26T16:40:22Z</time>
      </trkpt>
      <trkpt lat="47.85366" lon="6.78699">
        <ele>800.142883</ele>
        <time>2018-05-26T16:40:23Z</time>
      </trkpt>
      <trkpt lat="47.85369" lon="6.78699">
        <ele>800.169006</ele>
        <time>2018-05-26T16:40:24Z</time>
      </trkpt>
      <trkpt lat="47.85371" lon="6.787">
        <ele>800.20874</ele>
        <time>2018-05-26T16:40:25Z</time>
      </trkpt>
      <trkpt lat="47.85375" lon="6.78701">
        <ele>800.240051</ele>
        <time>2018-05-26T16:40:26Z</time>
      </trkpt>
      <trkpt lat="47.85377" lon="6.78701">
        <ele>800.294434</ele>
        <time>2018-05-26T16:40:27Z</time>
      </trkpt>
      <trkpt lat="47.85379" lon="6.78701">
        <ele>800.337708</ele>
        <time>2018-05-26T16:40:28Z</time>
      </trkpt>
      <trkpt lat="47.85382" lon="6.787">
        <ele>800.393555</ele>
        <time>2018-05-26T16:40:29Z</time>
      </trkpt>
      <trkpt lat="47.85385" lon="6.78699">
        <ele>800.508606</ele>
        <time>2018-05-26T16:40:30Z</time>
      </trkpt>
      <trkpt lat="47.85388" lon="6.78699">
        <ele>800.593262</ele>
        <time>2018-05-26T16:40:31Z</time>
      </trkpt>
      <trkpt lat="47.85391" lon="6.78699">
        <ele>800.702576</ele>
        <time>2018-05-26T16:40:32Z</time>
      </trkpt>
      <trkpt lat="47.85394" lon="6.787">
        <ele>800.760681</ele>
        <time>2018-05-26T16:40:33Z</time>
      </trkpt>
      <trkpt lat="47.85397" lon="6.78701">
        <ele>800.807068</ele>
        <time>2018-05-26T16:40:34Z</time>
      </trkpt>
      <trkpt lat="47.854" lon="6.78703">
        <ele>800.807068</ele>
        <time>2018-05-26T16:40:35Z</time>
      </trkpt>
      <trkpt lat="47.85402" lon="6.78705">
        <ele>800.757385</ele>
        <time>2018-05-26T16:40:36Z</time>
      </trkpt>
      <trkpt lat="47.85405" lon="6.78706">
        <ele>800.6875</ele>
        <time>2018-05-26T16:40:37Z</time>
      </trkpt>
      <trkpt lat="47.85409" lon="6.78708">
        <ele>800.620422</ele>
        <time>2018-05-26T16:40:38Z</time>
      </trkpt>
      <trkpt lat="47.85412" lon="6.7871">
        <ele>800.535156</ele>
        <time>2018-05-26T16:40:39Z</time>
      </trkpt>
      <trkpt lat="47.85415" lon="6.78712">
        <ele>800.490662</ele>
        <time>2018-05-26T16:40:40Z</time>
      </trkpt>
      <trkpt lat="47.85418" lon="6.78714">
        <ele>800.448914</ele>
        <time>2018-05-26T16:40:41Z</time>
      </trkpt>
      <trkpt lat="47.85421" lon="6.78715">
        <ele>800.439148</ele>
        <time>2018-05-26T16:40:42Z</time>
      </trkpt>
      <trkpt lat="47.85424" lon="6.78718">
        <ele>800.438965</ele>
        <time>2018-05-26T16:40:43Z</time>
      </trkpt>
      <trkpt lat="47.85427" lon="6.7872">
        <ele>800.442627</ele>
        <time>2018-05-26T16:40:44Z</time>
      </trkpt>
      <trkpt lat="47.8543" lon="6.78723">
        <ele>800.443298</ele>
        <time>2018-05-26T16:40:45Z</time>
      </trkpt>
      <trkpt lat="47.85432" lon="6.78726">
        <ele>800.449219</ele>
        <time>2018-05-26T16:40:46Z</time>
      </trkpt>
      <trkpt lat="47.85434" lon="6.78729">
        <ele>800.457581</ele>
        <time>2018-05-26T16:40:47Z</time>
      </trkpt>
      <trkpt lat="47.85437" lon="6.78732">
        <ele>800.493896</ele>
        <time>2018-05-26T16:40:48Z</time>
      </trkpt>
      <trkpt lat="47.8544" lon="6.78735">
        <ele>800.541931</ele>
        <time>2018-05-26T16:40:49Z</time>
      </trkpt>
      <trkpt lat="47.85443" lon="6.78736">
        <ele>800.632568</ele>
        <time>2018-05-26T16:40:50Z</time>
      </trkpt>
      <trkpt lat="47.85446" lon="6.78738">
        <ele>800.697021</ele>
        <time>2018-05-26T16:40:51Z</time>
      </trkpt>
      <trkpt lat="47.85449" lon="6.7874">
        <ele>800.767334</ele>
        <time>2018-05-26T16:40:52Z</time>
      </trkpt>
      <trkpt lat="47.85452" lon="6.78742">
        <ele>800.886658</ele>
        <time>2018-05-26T16:40:53Z</time>
      </trkpt>
      <trkpt lat="47.85456" lon="6.78744">
        <ele>800.966125</ele>
        <time>2018-05-26T16:40:54Z</time>
      </trkpt>
      <trkpt lat="47.8546" lon="6.78746">
        <ele>801.058411</ele>
        <time>2018-05-26T16:40:55Z</time>
      </trkpt>
      <trkpt lat="47.85463" lon="6.78748">
        <ele>801.091492</ele>
        <time>2018-05-26T16:40:56Z</time>
      </trkpt>
      <trkpt lat="47.85467" lon="6.7875">
        <ele>801.097839</ele>
        <time>2018-05-26T16:40:57Z</time>
      </trkpt>
      <trkpt lat="47.85472" lon="6.7875">
        <ele>801.09198</ele>
        <time>2018-05-26T16:40:58Z</time>
      </trkpt>
      <trkpt lat="47.85475" lon="6.78751">
        <ele>801.047363</ele>
        <time>2018-05-26T16:40:59Z</time>
      </trkpt>
      <trkpt lat="47.85478" lon="6.78753">
        <ele>800.999084</ele>
        <time>2018-05-26T16:41:00Z</time>
      </trkpt>
      <trkpt lat="47.85482" lon="6.78754">
        <ele>800.941223</ele>
        <time>2018-05-26T16:41:01Z</time>
      </trkpt>
      <trkpt lat="47.85485" lon="6.78755">
        <ele>800.862793</ele>
        <time>2018-05-26T16:41:02Z</time>
      </trkpt>
      <trkpt lat="47.85488" lon="6.78756">
        <ele>800.83429</ele>
        <time>2018-05-26T16:41:03Z</time>
      </trkpt>
      <trkpt lat="47.85492" lon="6.78757">
        <ele>800.827454</ele>
        <time>2018-05-26T16:41:04Z</time>
      </trkpt>
      <trkpt lat="47.85494" lon="6.78758">
        <ele>800.832825</ele>
        <time>2018-05-26T16:41:05Z</time>
      </trkpt>
      <trkpt lat="47.85497" lon="6.78759">
        <ele>800.855286</ele>
        <time>2018-05-26T16:41:06Z</time>
      </trkpt>
      <trkpt lat="47.855" lon="6.7876">
        <ele>800.924133</ele>
        <time>2018-05-26T16:41:07Z</time>
      </trkpt>
      <trkpt lat="47.85503" lon="6.7876">
        <ele>800.987549</ele>
        <time>2018-05-26T16:41:08Z</time>
      </trkpt>
      <trkpt lat="47.85506" lon="6.78761">
        <ele>801.113464</ele>
        <time>2018-05-26T16:41:09Z</time>
      </trkpt>
      <trkpt lat="47.85509" lon="6.78761">
        <ele>801.210632</ele>
        <time>2018-05-26T16:41:10Z</time>
      </trkpt>
      <trkpt lat="47.85512" lon="6.78762">
        <ele>801.318054</ele>
        <time>2018-05-26T16:41:11Z</time>
      </trkpt>
      <trkpt lat="47.85516" lon="6.78763">
        <ele>801.502258</ele>
        <time>2018-05-26T16:41:12Z</time>
      </trkpt>
      <trkpt lat="47.85519" lon="6.78764">
        <ele>801.640869</ele>
        <time>2018-05-26T16:41:13Z</time>
      </trkpt>
      <trkpt lat="47.85522" lon="6.78765">
        <ele>801.712341</ele>
        <time>2018-05-26T16:41:14Z</time>
      </trkpt>
      <trkpt lat="47.85526" lon="6.78766">
        <ele>801.712341</ele>
        <time>2018-05-26T16:41:15Z</time>
      </trkpt>
      <trkpt lat="47.85529" lon="6.78766">
        <ele>801.927551</ele>
        <time>2018-05-26T16:41:16Z</time>
      </trkpt>
      <trkpt lat="47.85532" lon="6.78766">
        <ele>802.059143</ele>
        <time>2018-05-26T16:41:17Z</time>
      </trkpt>
      <trkpt lat="47.85535" lon="6.78767">
        <ele>802.176025</ele>
        <time>2018-05-26T16:41:18Z</time>
      </trkpt>
      <trkpt lat="47.85538" lon="6.78768">
        <ele>802.326721</ele>
        <time>2018-05-26T16:41:19Z</time>
      </trkpt>
      <trkpt lat="47.85541" lon="6.78768">
        <ele>802.418884</ele>
        <time>2018-05-26T16:41:20Z</time>
      </trkpt>
      <trkpt lat="47.85543" lon="6.78768">
        <ele>802.536133</ele>
        <time>2018-05-26T16:41:21Z</time>
      </trkpt>
      <trkpt lat="47.85547" lon="6.78767">
        <ele>802.600098</ele>
        <time>2018-05-26T16:41:22Z</time>
      </trkpt>
      <trkpt lat="47.8555" lon="6.78766">
        <ele>802.652527</ele>
        <time>2018-05-26T16:41:23Z</time>
      </trkpt>
      <trkpt lat="47.85553" lon="6.78765">
        <ele>802.708679</ele>
        <time>2018-05-26T16:41:24Z</time>
      </trkpt>
      <trkpt lat="47.85556" lon="6.78763">
        <ele>802.739929</ele>
        <time>2018-05-26T16:41:25Z</time>
      </trkpt>
      <trkpt lat="47.8556" lon="6.78761">
        <ele>802.778809</ele>
        <time>2018-05-26T16:41:26Z</time>
      </trkpt>
      <trkpt lat="47.85563" lon="6.78759">
        <ele>802.79657</ele>
        <time>2018-05-26T16:41:27Z</time>
      </trkpt>
      <trkpt lat="47.85566" lon="6.78757">
        <ele>802.81958</ele>
        <time>2018-05-26T16:41:28Z</time>
      </trkpt>
      <trkpt lat="47.85569" lon="6.78754">
        <ele>802.835876</ele>
        <time>2018-05-26T16:41:29Z</time>
      </trkpt>
      <trkpt lat="47.85571" lon="6.78752">
        <ele>802.870117</ele>
        <time>2018-05-26T16:41:30Z</time>
      </trkpt>
      <trkpt lat="47.85574" lon="6.7875">
        <ele>802.904236</ele>
        <time>2018-05-26T16:41:31Z</time>
      </trkpt>
      <trkpt lat="47.85575" lon="6.78748">
        <ele>802.942383</ele>
        <time>2018-05-26T16:41:32Z</time>
      </trkpt>
      <trkpt lat="47.85576" lon="6.78746">
        <ele>802.997803</ele>
        <time>2018-05-26T16:41:33Z</time>
      </trkpt>
      <trkpt lat="47.85577" lon="6.78745">
        <ele>803.035461</ele>
        <time>2018-05-26T16:41:34Z</time>
      </trkpt>
      <trkpt lat="47.85579" lon="6.78744">
        <ele>803.099854</ele>
        <time>2018-05-26T16:41:35Z</time>
      </trkpt>
      <trkpt lat="47.8558" lon="6.78743">
        <ele>803.143555</ele>
        <time>2018-05-26T16:41:36Z</time>
      </trkpt>
      <trkpt lat="47.85581" lon="6.78743">
        <ele>803.234924</ele>
        <time>2018-05-26T16:41:38Z</time>
      </trkpt>
      <trkpt lat="47.85583" lon="6.78741">
        <ele>803.234924</ele>
        <time>2018-05-26T16:41:40Z</time>
      </trkpt>
      <trkpt lat="47.85585" lon="6.78738">
        <ele>803.224792</ele>
        <time>2018-05-26T16:41:41Z</time>
      </trkpt>
      <trkpt lat="47.85586" lon="6.78736">
        <ele>803.179688</ele>
        <time>2018-05-26T16:41:42Z</time>
      </trkpt>
      <trkpt lat="47.85587" lon="6.78735">
        <ele>803.132507</ele>
        <time>2018-05-26T16:41:43Z</time>
      </trkpt>
      <trkpt lat="47.85589" lon="6.78733">
        <ele>803.021973</ele>
        <time>2018-05-26T16:41:44Z</time>
      </trkpt>
      <trkpt lat="47.8559" lon="6.7873">
        <ele>802.917297</ele>
        <time>2018-05-26T16:41:45Z</time>
      </trkpt>
      <trkpt lat="47.85592" lon="6.78728">
        <ele>802.730469</ele>
        <time>2018-05-26T16:41:46Z</time>
      </trkpt>
      <trkpt lat="47.85593" lon="6.78727">
        <ele>802.592041</ele>
        <time>2018-05-26T16:41:47Z</time>
      </trkpt>
      <trkpt lat="47.85594" lon="6.78727">
        <ele>802.440857</ele>
        <time>2018-05-26T16:41:48Z</time>
      </trkpt>
      <trkpt lat="47.85598" lon="6.78714">
        <ele>800.992493</ele>
        <time>2018-05-26T16:42:29Z</time>
      </trkpt>
      <trkpt lat="47.85599" lon="6.78712">
        <ele>800.968933</ele>
        <time>2018-05-26T16:42:31Z</time>
      </trkpt>
      <trkpt lat="47.856" lon="6.78709">
        <ele>800.932556</ele>
        <time>2018-05-26T16:42:32Z</time>
      </trkpt>
      <trkpt lat="47.856" lon="6.78706">
        <ele>800.897888</ele>
        <time>2018-05-26T16:42:33Z</time>
      </trkpt>
      <trkpt lat="47.85602" lon="6.78702">
        <ele>800.855408</ele>
        <time>2018-05-26T16:42:34Z</time>
      </trkpt>
      <trkpt lat="47.85603" lon="6.78697">
        <ele>800.793457</ele>
        <time>2018-05-26T16:42:35Z</time>
      </trkpt>
      <trkpt lat="47.85605" lon="6.78692">
        <ele>800.757813</ele>
        <time>2018-05-26T16:42:36Z</time>
      </trkpt>
      <trkpt lat="47.85606" lon="6.78687">
        <ele>800.677917</ele>
        <time>2018-05-26T16:42:37Z</time>
      </trkpt>
      <trkpt lat="47.85608" lon="6.78681">
        <ele>800.585938</ele>
        <time>2018-05-26T16:42:38Z</time>
      </trkpt>
      <trkpt lat="47.85609" lon="6.78676">
        <ele>800.374695</ele>
        <time>2018-05-26T16:42:39Z</time>
      </trkpt>
      <trkpt lat="47.8561" lon="6.7867">
        <ele>800.190247</ele>
        <time>2018-05-26T16:42:40Z</time>
      </trkpt>
      <trkpt lat="47.85611" lon="6.78663">
        <ele>799.855652</ele>
        <time>2018-05-26T16:42:41Z</time>
      </trkpt>
      <trkpt lat="47.85611" lon="6.78656">
        <ele>799.59845</ele>
        <time>2018-05-26T16:42:42Z</time>
      </trkpt>
      <trkpt lat="47.85611" lon="6.78648">
        <ele>799.333008</ele>
        <time>2018-05-26T16:42:43Z</time>
      </trkpt>
      <trkpt lat="47.85611" lon="6.7864">
        <ele>798.965393</ele>
        <time>2018-05-26T16:42:44Z</time>
      </trkpt>
      <trkpt lat="47.8561" lon="6.7863">
        <ele>798.750549</ele>
        <time>2018-05-26T16:42:45Z</time>
      </trkpt>
      <trkpt lat="47.85609" lon="6.78619">
        <ele>798.447754</ele>
        <time>2018-05-26T16:42:46Z</time>
      </trkpt>
      <trkpt lat="47.85609" lon="6.78608">
        <ele>798.222961</ele>
        <time>2018-05-26T16:42:47Z</time>
      </trkpt>
      <trkpt lat="47.85609" lon="6.78597">
        <ele>797.765381</ele>
        <time>2018-05-26T16:42:48Z</time>
      </trkpt>
      <trkpt lat="47.85608" lon="6.78585">
        <ele>797.371643</ele>
        <time>2018-05-26T16:42:49Z</time>
      </trkpt>
      <trkpt lat="47.85607" lon="6.78573">
        <ele>796.66626</ele>
        <time>2018-05-26T16:42:50Z</time>
      </trkpt>
      <trkpt lat="47.85606" lon="6.7856">
        <ele>796.130188</ele>
        <time>2018-05-26T16:42:51Z</time>
      </trkpt>
      <trkpt lat="47.85606" lon="6.78546">
        <ele>795.539856</ele>
        <time>2018-05-26T16:42:52Z</time>
      </trkpt>
      <trkpt lat="47.85606" lon="6.78532">
        <ele>794.571106</ele>
        <time>2018-05-26T16:42:53Z</time>
      </trkpt>
      <trkpt lat="47.85606" lon="6.78518">
        <ele>793.872009</ele>
        <time>2018-05-26T16:42:54Z</time>
      </trkpt>
      <trkpt lat="47.85607" lon="6.78505">
        <ele>792.78949</ele>
        <time>2018-05-26T16:42:55Z</time>
      </trkpt>
      <trkpt lat="47.85607" lon="6.78493">
        <ele>792.08136</ele>
        <time>2018-05-26T16:42:56Z</time>
      </trkpt>
      <trkpt lat="47.85606" lon="6.7848">
        <ele>791.108826</ele>
        <time>2018-05-26T16:42:57Z</time>
      </trkpt>
      <trkpt lat="47.85605" lon="6.78468">
        <ele>790.530273</ele>
        <time>2018-05-26T16:42:58Z</time>
      </trkpt>
      <trkpt lat="47.85604" lon="6.78455">
        <ele>789.979187</ele>
        <time>2018-05-26T16:42:59Z</time>
      </trkpt>
      <trkpt lat="47.85602" lon="6.78442">
        <ele>789.206848</ele>
        <time>2018-05-26T16:43:00Z</time>
      </trkpt>
      <trkpt lat="47.856" lon="6.7843">
        <ele>788.725586</ele>
        <time>2018-05-26T16:43:01Z</time>
      </trkpt>
      <trkpt lat="47.85598" lon="6.78418">
        <ele>787.995605</ele>
        <time>2018-05-26T16:43:02Z</time>
      </trkpt>
      <trkpt lat="47.85598" lon="6.78407">
        <ele>787.463196</ele>
        <time>2018-05-26T16:43:03Z</time>
      </trkpt>
      <trkpt lat="47.856" lon="6.78397">
        <ele>786.662659</ele>
        <time>2018-05-26T16:43:04Z</time>
      </trkpt>
      <trkpt lat="47.85604" lon="6.78389">
        <ele>786.17041</ele>
        <time>2018-05-26T16:43:05Z</time>
      </trkpt>
      <trkpt lat="47.85609" lon="6.78382">
        <ele>785.725037</ele>
        <time>2018-05-26T16:43:06Z</time>
      </trkpt>
      <trkpt lat="47.85615" lon="6.78377">
        <ele>785.165466</ele>
        <time>2018-05-26T16:43:07Z</time>
      </trkpt>
      <trkpt lat="47.8562" lon="6.78371">
        <ele>784.86499</ele>
        <time>2018-05-26T16:43:08Z</time>
      </trkpt>
      <trkpt lat="47.85624" lon="6.78365">
        <ele>784.505615</ele>
        <time>2018-05-26T16:43:09Z</time>
      </trkpt>
      <trkpt lat="47.85627" lon="6.78357">
        <ele>784.321838</ele>
        <time>2018-05-26T16:43:10Z</time>
      </trkpt>
      <trkpt lat="47.85631" lon="6.78349">
        <ele>784.180237</ele>
        <time>2018-05-26T16:43:11Z</time>
      </trkpt>
      <trkpt lat="47.85634" lon="6.7834">
        <ele>783.998474</ele>
        <time>2018-05-26T16:43:12Z</time>
      </trkpt>
      <trkpt lat="47.85637" lon="6.78331">
        <ele>783.864014</ele>
        <time>2018-05-26T16:43:13Z</time>
      </trkpt>
      <trkpt lat="47.85642" lon="6.78322">
        <ele>783.58783</ele>
        <time>2018-05-26T16:43:14Z</time>
      </trkpt>
      <trkpt lat="47.85646" lon="6.78314">
        <ele>783.350098</ele>
        <time>2018-05-26T16:43:15Z</time>
      </trkpt>
      <trkpt lat="47.85651" lon="6.78306">
        <ele>783.067566</ele>
        <time>2018-05-26T16:43:16Z</time>
      </trkpt>
      <trkpt lat="47.85656" lon="6.78298">
        <ele>782.726257</ele>
        <time>2018-05-26T16:43:17Z</time>
      </trkpt>
      <trkpt lat="47.85661" lon="6.7829">
        <ele>782.115967</ele>
        <time>2018-05-26T16:43:18Z</time>
      </trkpt>
      <trkpt lat="47.85665" lon="6.78282">
        <ele>781.688965</ele>
        <time>2018-05-26T16:43:19Z</time>
      </trkpt>
      <trkpt lat="47.85669" lon="6.78273">
        <ele>781.108582</ele>
        <time>2018-05-26T16:43:20Z</time>
      </trkpt>
      <trkpt lat="47.85674" lon="6.78265">
        <ele>780.756042</ele>
        <time>2018-05-26T16:43:21Z</time>
      </trkpt>
      <trkpt lat="47.85678" lon="6.78257">
        <ele>780.438782</ele>
        <time>2018-05-26T16:43:22Z</time>
      </trkpt>
      <trkpt lat="47.85681" lon="6.7825">
        <ele>780.045959</ele>
        <time>2018-05-26T16:43:23Z</time>
      </trkpt>
      <trkpt lat="47.85685" lon="6.78243">
        <ele>779.869324</ele>
        <time>2018-05-26T16:43:24Z</time>
      </trkpt>
      <trkpt lat="47.85687" lon="6.78237">
        <ele>779.730957</ele>
        <time>2018-05-26T16:43:25Z</time>
      </trkpt>
      <trkpt lat="47.8569" lon="6.78231">
        <ele>779.721985</ele>
        <time>2018-05-26T16:43:26Z</time>
      </trkpt>
      <trkpt lat="47.85692" lon="6.78224">
        <ele>779.748352</ele>
        <time>2018-05-26T16:43:27Z</time>
      </trkpt>
      <trkpt lat="47.85695" lon="6.78218">
        <ele>779.825378</ele>
        <time>2018-05-26T16:43:28Z</time>
      </trkpt>
      <trkpt lat="47.85698" lon="6.78212">
        <ele>779.919006</ele>
        <time>2018-05-26T16:43:29Z</time>
      </trkpt>
      <trkpt lat="47.85703" lon="6.78207">
        <ele>780.048401</ele>
        <time>2018-05-26T16:43:30Z</time>
      </trkpt>
      <trkpt lat="47.85707" lon="6.78203">
        <ele>780.098816</ele>
        <time>2018-05-26T16:43:31Z</time>
      </trkpt>
      <trkpt lat="47.85712" lon="6.782">
        <ele>780.104248</ele>
        <time>2018-05-26T16:43:32Z</time>
      </trkpt>
      <trkpt lat="47.85717" lon="6.78198">
        <ele>780.080994</ele>
        <time>2018-05-26T16:43:33Z</time>
      </trkpt>
      <trkpt lat="47.85724" lon="6.78195">
        <ele>779.965881</ele>
        <time>2018-05-26T16:43:34Z</time>
      </trkpt>
      <trkpt lat="47.8573" lon="6.78191">
        <ele>779.842041</ele>
        <time>2018-05-26T16:43:35Z</time>
      </trkpt>
      <trkpt lat="47.85738" lon="6.78187">
        <ele>779.566589</ele>
        <time>2018-05-26T16:43:36Z</time>
      </trkpt>
      <trkpt lat="47.85745" lon="6.78181">
        <ele>779.319031</ele>
        <time>2018-05-26T16:43:37Z</time>
      </trkpt>
      <trkpt lat="47.85752" lon="6.78174">
        <ele>779.012695</ele>
        <time>2018-05-26T16:43:38Z</time>
      </trkpt>
      <trkpt lat="47.85759" lon="6.78168">
        <ele>778.409424</ele>
        <time>2018-05-26T16:43:39Z</time>
      </trkpt>
      <trkpt lat="47.85766" lon="6.7816">
        <ele>777.878113</ele>
        <time>2018-05-26T16:43:40Z</time>
      </trkpt>
      <trkpt lat="47.85773" lon="6.78153">
        <ele>776.907532</ele>
        <time>2018-05-26T16:43:41Z</time>
      </trkpt>
      <trkpt lat="47.8578" lon="6.78145">
        <ele>776.212708</ele>
        <time>2018-05-26T16:43:42Z</time>
      </trkpt>
      <trkpt lat="47.85786" lon="6.78137">
        <ele>775.181396</ele>
        <time>2018-05-26T16:43:43Z</time>
      </trkpt>
      <trkpt lat="47.85792" lon="6.78129">
        <ele>774.504456</ele>
        <time>2018-05-26T16:43:44Z</time>
      </trkpt>
      <trkpt lat="47.85798" lon="6.7812">
        <ele>773.578674</ele>
        <time>2018-05-26T16:43:45Z</time>
      </trkpt>
      <trkpt lat="47.85803" lon="6.7811">
        <ele>773.038391</ele>
        <time>2018-05-26T16:43:46Z</time>
      </trkpt>
      <trkpt lat="47.85808" lon="6.78101">
        <ele>772.563965</ele>
        <time>2018-05-26T16:43:47Z</time>
      </trkpt>
      <trkpt lat="47.85813" lon="6.78091">
        <ele>771.920105</ele>
        <time>2018-05-26T16:43:48Z</time>
      </trkpt>
      <trkpt lat="47.85816" lon="6.7808">
        <ele>771.499023</ele>
        <time>2018-05-26T16:43:49Z</time>
      </trkpt>
      <trkpt lat="47.85818" lon="6.78068">
        <ele>770.80127</ele>
        <time>2018-05-26T16:43:50Z</time>
      </trkpt>
      <trkpt lat="47.85819" lon="6.78055">
        <ele>770.280518</ele>
        <time>2018-05-26T16:43:51Z</time>
      </trkpt>
      <trkpt lat="47.85819" lon="6.78041">
        <ele>769.708435</ele>
        <time>2018-05-26T16:43:52Z</time>
      </trkpt>
      <trkpt lat="47.8582" lon="6.78027">
        <ele>768.784851</ele>
        <time>2018-05-26T16:43:53Z</time>
      </trkpt>
      <trkpt lat="47.85821" lon="6.78013">
        <ele>768.125793</ele>
        <time>2018-05-26T16:43:54Z</time>
      </trkpt>
      <trkpt lat="47.85822" lon="6.78">
        <ele>767.05127</ele>
        <time>2018-05-26T16:43:55Z</time>
      </trkpt>
      <trkpt lat="47.85822" lon="6.77988">
        <ele>766.303162</ele>
        <time>2018-05-26T16:43:56Z</time>
      </trkpt>
      <trkpt lat="47.85823" lon="6.77976">
        <ele>765.225647</ele>
        <time>2018-05-26T16:43:57Z</time>
      </trkpt>
      <trkpt lat="47.85823" lon="6.77965">
        <ele>764.589417</ele>
        <time>2018-05-26T16:43:58Z</time>
      </trkpt>
      <trkpt lat="47.85823" lon="6.77955">
        <ele>764.048889</ele>
        <time>2018-05-26T16:43:59Z</time>
      </trkpt>
      <trkpt lat="47.85823" lon="6.77944">
        <ele>763.414246</ele>
        <time>2018-05-26T16:44:00Z</time>
      </trkpt>
      <trkpt lat="47.85825" lon="6.77934">
        <ele>763.1026</ele>
        <time>2018-05-26T16:44:01Z</time>
      </trkpt>
      <trkpt lat="47.85826" lon="6.77925">
        <ele>762.869202</ele>
        <time>2018-05-26T16:44:02Z</time>
      </trkpt>
      <trkpt lat="47.85828" lon="6.77916">
        <ele>762.624512</ele>
        <time>2018-05-26T16:44:03Z</time>
      </trkpt>
      <trkpt lat="47.85829" lon="6.77907">
        <ele>762.50824</ele>
        <time>2018-05-26T16:44:04Z</time>
      </trkpt>
      <trkpt lat="47.85832" lon="6.779">
        <ele>762.353027</ele>
        <time>2018-05-26T16:44:05Z</time>
      </trkpt>
      <trkpt lat="47.85835" lon="6.77894">
        <ele>762.236328</ele>
        <time>2018-05-26T16:44:06Z</time>
      </trkpt>
      <trkpt lat="47.8584" lon="6.7789">
        <ele>762.040466</ele>
        <time>2018-05-26T16:44:07Z</time>
      </trkpt>
      <trkpt lat="47.85843" lon="6.77888">
        <ele>761.903503</ele>
        <time>2018-05-26T16:44:08Z</time>
      </trkpt>
      <trkpt lat="47.85854" lon="6.77884">
        <ele>760.614441</ele>
        <time>2018-05-26T16:44:22Z</time>
      </trkpt>
      <trkpt lat="47.85857" lon="6.77881">
        <ele>760.542297</ele>
        <time>2018-05-26T16:44:24Z</time>
      </trkpt>
      <trkpt lat="47.8586" lon="6.77878">
        <ele>760.382141</ele>
        <time>2018-05-26T16:44:25Z</time>
      </trkpt>
      <trkpt lat="47.85865" lon="6.77875">
        <ele>760.232361</ele>
        <time>2018-05-26T16:44:26Z</time>
      </trkpt>
      <trkpt lat="47.8587" lon="6.77871">
        <ele>759.940674</ele>
        <time>2018-05-26T16:44:27Z</time>
      </trkpt>
      <trkpt lat="47.85874" lon="6.77866">
        <ele>759.702698</ele>
        <time>2018-05-26T16:44:28Z</time>
      </trkpt>
      <trkpt lat="47.85879" lon="6.77861">
        <ele>759.309082</ele>
        <time>2018-05-26T16:44:29Z</time>
      </trkpt>
      <trkpt lat="47.85884" lon="6.77856">
        <ele>759.037415</ele>
        <time>2018-05-26T16:44:30Z</time>
      </trkpt>
      <trkpt lat="47.85889" lon="6.7785">
        <ele>758.754883</ele>
        <time>2018-05-26T16:44:31Z</time>
      </trkpt>
      <trkpt lat="47.85893" lon="6.77843">
        <ele>758.292969</ele>
        <time>2018-05-26T16:44:32Z</time>
      </trkpt>
      <trkpt lat="47.85898" lon="6.77836">
        <ele>757.94043</ele>
        <time>2018-05-26T16:44:33Z</time>
      </trkpt>
      <trkpt lat="47.85902" lon="6.77829">
        <ele>757.310364</ele>
        <time>2018-05-26T16:44:34Z</time>
      </trkpt>
      <trkpt lat="47.85907" lon="6.77821">
        <ele>756.816406</ele>
        <time>2018-05-26T16:44:35Z</time>
      </trkpt>
      <trkpt lat="47.85911" lon="6.77813">
        <ele>756.086182</ele>
        <time>2018-05-26T16:44:36Z</time>
      </trkpt>
      <trkpt lat="47.85915" lon="6.77805">
        <ele>755.663879</ele>
        <time>2018-05-26T16:44:37Z</time>
      </trkpt>
      <trkpt lat="47.85918" lon="6.77796">
        <ele>755.141296</ele>
        <time>2018-05-26T16:44:38Z</time>
      </trkpt>
      <trkpt lat="47.85923" lon="6.77787">
        <ele>754.820068</ele>
        <time>2018-05-26T16:44:39Z</time>
      </trkpt>
      <trkpt lat="47.85926" lon="6.77779">
        <ele>754.518738</ele>
        <time>2018-05-26T16:44:40Z</time>
      </trkpt>
      <trkpt lat="47.85931" lon="6.77771">
        <ele>754.071106</ele>
        <time>2018-05-26T16:44:41Z</time>
      </trkpt>
      <trkpt lat="47.85936" lon="6.77766">
        <ele>753.759583</ele>
        <time>2018-05-26T16:44:42Z</time>
      </trkpt>
      <trkpt lat="47.85941" lon="6.77761">
        <ele>753.194519</ele>
        <time>2018-05-26T16:44:43Z</time>
      </trkpt>
      <trkpt lat="47.85947" lon="6.77757">
        <ele>752.735168</ele>
        <time>2018-05-26T16:44:44Z</time>
      </trkpt>
      <trkpt lat="47.85954" lon="6.77754">
        <ele>751.981628</ele>
        <time>2018-05-26T16:44:45Z</time>
      </trkpt>
      <trkpt lat="47.85962" lon="6.7775">
        <ele>751.493469</ele>
        <time>2018-05-26T16:44:46Z</time>
      </trkpt>
      <trkpt lat="47.85969" lon="6.77745">
        <ele>750.79718</ele>
        <time>2018-05-26T16:44:47Z</time>
      </trkpt>
      <trkpt lat="47.85976" lon="6.77738">
        <ele>750.322571</ele>
        <time>2018-05-26T16:44:48Z</time>
      </trkpt>
      <trkpt lat="47.85983" lon="6.7773">
        <ele>749.809021</ele>
        <time>2018-05-26T16:44:49Z</time>
      </trkpt>
      <trkpt lat="47.85989" lon="6.77721">
        <ele>748.927795</ele>
        <time>2018-05-26T16:44:50Z</time>
      </trkpt>
      <trkpt lat="47.85994" lon="6.77711">
        <ele>748.247314</ele>
        <time>2018-05-26T16:44:51Z</time>
      </trkpt>
      <trkpt lat="47.85998" lon="6.777">
        <ele>747.120178</ele>
        <time>2018-05-26T16:44:52Z</time>
      </trkpt>
      <trkpt lat="47.86002" lon="6.77687">
        <ele>746.335693</ele>
        <time>2018-05-26T16:44:53Z</time>
      </trkpt>
      <trkpt lat="47.86007" lon="6.77675">
        <ele>745.192932</ele>
        <time>2018-05-26T16:44:54Z</time>
      </trkpt>
      <trkpt lat="47.8601" lon="6.77662">
        <ele>744.464355</ele>
        <time>2018-05-26T16:44:55Z</time>
      </trkpt>
      <trkpt lat="47.86013" lon="6.77648">
        <ele>743.431946</ele>
        <time>2018-05-26T16:44:56Z</time>
      </trkpt>
      <trkpt lat="47.86014" lon="6.77635">
        <ele>742.775391</ele>
        <time>2018-05-26T16:44:57Z</time>
      </trkpt>
      <trkpt lat="47.86014" lon="6.77622">
        <ele>742.124817</ele>
        <time>2018-05-26T16:44:58Z</time>
      </trkpt>
      <trkpt lat="47.86013" lon="6.77609">
        <ele>741.120789</ele>
        <time>2018-05-26T16:44:59Z</time>
      </trkpt>
      <trkpt lat="47.86011" lon="6.77598">
        <ele>740.427063</ele>
        <time>2018-05-26T16:45:00Z</time>
      </trkpt>
      <trkpt lat="47.8601" lon="6.77586">
        <ele>739.394775</ele>
        <time>2018-05-26T16:45:01Z</time>
      </trkpt>
      <trkpt lat="47.86009" lon="6.77574">
        <ele>738.726868</ele>
        <time>2018-05-26T16:45:02Z</time>
      </trkpt>
      <trkpt lat="47.86009" lon="6.77562">
        <ele>737.72876</ele>
        <time>2018-05-26T16:45:03Z</time>
      </trkpt>
      <trkpt lat="47.86009" lon="6.77549">
        <ele>737.056335</ele>
        <time>2018-05-26T16:45:04Z</time>
      </trkpt>
      <trkpt lat="47.8601" lon="6.77536">
        <ele>736.381836</ele>
        <time>2018-05-26T16:45:05Z</time>
      </trkpt>
      <trkpt lat="47.86012" lon="6.77521">
        <ele>735.338318</ele>
        <time>2018-05-26T16:45:06Z</time>
      </trkpt>
      <trkpt lat="47.86016" lon="6.77509">
        <ele>734.59259</ele>
        <time>2018-05-26T16:45:07Z</time>
      </trkpt>
      <trkpt lat="47.8602" lon="6.77496">
        <ele>733.338135</ele>
        <time>2018-05-26T16:45:08Z</time>
      </trkpt>
      <trkpt lat="47.86025" lon="6.77483">
        <ele>732.408142</ele>
        <time>2018-05-26T16:45:09Z</time>
      </trkpt>
      <trkpt lat="47.8603" lon="6.77469">
        <ele>730.9422</ele>
        <time>2018-05-26T16:45:10Z</time>
      </trkpt>
      <trkpt lat="47.86034" lon="6.77457">
        <ele>729.945129</ele>
        <time>2018-05-26T16:45:11Z</time>
      </trkpt>
      <trkpt lat="47.86037" lon="6.77445">
        <ele>728.923096</ele>
        <time>2018-05-26T16:45:12Z</time>
      </trkpt>
      <trkpt lat="47.86037" lon="6.77435">
        <ele>727.332825</ele>
        <time>2018-05-26T16:45:13Z</time>
      </trkpt>
      <trkpt lat="47.86037" lon="6.77425">
        <ele>726.251404</ele>
        <time>2018-05-26T16:45:14Z</time>
      </trkpt>
      <trkpt lat="47.86036" lon="6.77414">
        <ele>724.655823</ele>
        <time>2018-05-26T16:45:15Z</time>
      </trkpt>
      <trkpt lat="47.86033" lon="6.77404">
        <ele>724.142334</ele>
        <time>2018-05-26T16:45:16Z</time>
      </trkpt>
      <trkpt lat="47.86031" lon="6.77393">
        <ele>724.142334</ele>
        <time>2018-05-26T16:45:17Z</time>
      </trkpt>
      <trkpt lat="47.86028" lon="6.77382">
        <ele>722.622009</ele>
        <time>2018-05-26T16:45:18Z</time>
      </trkpt>
      <trkpt lat="47.86025" lon="6.77369">
        <ele>721.634766</ele>
        <time>2018-05-26T16:45:19Z</time>
      </trkpt>
      <trkpt lat="47.86023" lon="6.77357">
        <ele>720.676758</ele>
        <time>2018-05-26T16:45:20Z</time>
      </trkpt>
      <trkpt lat="47.86023" lon="6.77344">
        <ele>719.312195</ele>
        <time>2018-05-26T16:45:21Z</time>
      </trkpt>
      <trkpt lat="47.86023" lon="6.77331">
        <ele>718.430969</ele>
        <time>2018-05-26T16:45:22Z</time>
      </trkpt>
      <trkpt lat="47.86024" lon="6.77319">
        <ele>717.094055</ele>
        <time>2018-05-26T16:45:23Z</time>
      </trkpt>
      <trkpt lat="47.86025" lon="6.77308">
        <ele>716.171204</ele>
        <time>2018-05-26T16:45:24Z</time>
      </trkpt>
      <trkpt lat="47.86025" lon="6.77298">
        <ele>714.756592</ele>
        <time>2018-05-26T16:45:25Z</time>
      </trkpt>
      <trkpt lat="47.86027" lon="6.77288">
        <ele>713.83905</ele>
        <time>2018-05-26T16:45:26Z</time>
      </trkpt>
      <trkpt lat="47.86031" lon="6.77278">
        <ele>712.950134</ele>
        <time>2018-05-26T16:45:27Z</time>
      </trkpt>
      <trkpt lat="47.86035" lon="6.77268">
        <ele>711.64447</ele>
        <time>2018-05-26T16:45:28Z</time>
      </trkpt>
      <trkpt lat="47.86038" lon="6.77257">
        <ele>710.801758</ele>
        <time>2018-05-26T16:45:29Z</time>
      </trkpt>
      <trkpt lat="47.8604" lon="6.77246">
        <ele>709.545593</ele>
        <time>2018-05-26T16:45:30Z</time>
      </trkpt>
      <trkpt lat="47.86041" lon="6.77235">
        <ele>708.673828</ele>
        <time>2018-05-26T16:45:31Z</time>
      </trkpt>
      <trkpt lat="47.86041" lon="6.77223">
        <ele>707.293518</ele>
        <time>2018-05-26T16:45:32Z</time>
      </trkpt>
      <trkpt lat="47.86041" lon="6.77212">
        <ele>706.348145</ele>
        <time>2018-05-26T16:45:33Z</time>
      </trkpt>
      <trkpt lat="47.86041" lon="6.77202">
        <ele>704.905457</ele>
        <time>2018-05-26T16:45:34Z</time>
      </trkpt>
      <trkpt lat="47.86041" lon="6.77192">
        <ele>703.928223</ele>
        <time>2018-05-26T16:45:35Z</time>
      </trkpt>
      <trkpt lat="47.86041" lon="6.77182">
        <ele>702.44696</ele>
        <time>2018-05-26T16:45:36Z</time>
      </trkpt>
      <trkpt lat="47.86041" lon="6.77173">
        <ele>701.435974</ele>
        <time>2018-05-26T16:45:37Z</time>
      </trkpt>
      <trkpt lat="47.86041" lon="6.77163">
        <ele>699.85376</ele>
        <time>2018-05-26T16:45:38Z</time>
      </trkpt>
      <trkpt lat="47.86041" lon="6.77153">
        <ele>698.779846</ele>
        <time>2018-05-26T16:45:39Z</time>
      </trkpt>
      <trkpt lat="47.86041" lon="6.77143">
        <ele>697.703857</ele>
        <time>2018-05-26T16:45:40Z</time>
      </trkpt>
      <trkpt lat="47.8604" lon="6.77132">
        <ele>696.099792</ele>
        <time>2018-05-26T16:45:41Z</time>
      </trkpt>
      <trkpt lat="47.8604" lon="6.77121">
        <ele>695.037781</ele>
        <time>2018-05-26T16:45:42Z</time>
      </trkpt>
      <trkpt lat="47.86039" lon="6.7711">
        <ele>693.464844</ele>
        <time>2018-05-26T16:45:43Z</time>
      </trkpt>
      <trkpt lat="47.86037" lon="6.77098">
        <ele>692.426941</ele>
        <time>2018-05-26T16:45:44Z</time>
      </trkpt>
      <trkpt lat="47.86037" lon="6.77086">
        <ele>690.88739</ele>
        <time>2018-05-26T16:45:45Z</time>
      </trkpt>
      <trkpt lat="47.86037" lon="6.77074">
        <ele>689.880432</ele>
        <time>2018-05-26T16:45:46Z</time>
      </trkpt>
      <trkpt lat="47.86037" lon="6.77062">
        <ele>688.882751</ele>
        <time>2018-05-26T16:45:47Z</time>
      </trkpt>
      <trkpt lat="47.86037" lon="6.7705">
        <ele>687.400574</ele>
        <time>2018-05-26T16:45:48Z</time>
      </trkpt>
      <trkpt lat="47.86039" lon="6.7704">
        <ele>686.454834</ele>
        <time>2018-05-26T16:45:49Z</time>
      </trkpt>
      <trkpt lat="47.86041" lon="6.77031">
        <ele>685.164246</ele>
        <time>2018-05-26T16:45:50Z</time>
      </trkpt>
      <trkpt lat="47.86045" lon="6.77023">
        <ele>684.391418</ele>
        <time>2018-05-26T16:45:51Z</time>
      </trkpt>
      <trkpt lat="47.8605" lon="6.77017">
        <ele>683.686951</ele>
        <time>2018-05-26T16:45:52Z</time>
      </trkpt>
      <trkpt lat="47.86057" lon="6.77012">
        <ele>682.752197</ele>
        <time>2018-05-26T16:45:53Z</time>
      </trkpt>
      <trkpt lat="47.86063" lon="6.77008">
        <ele>682.215088</ele>
        <time>2018-05-26T16:45:54Z</time>
      </trkpt>
      <trkpt lat="47.8607" lon="6.77002">
        <ele>681.516663</ele>
        <time>2018-05-26T16:45:55Z</time>
      </trkpt>
      <trkpt lat="47.86073" lon="6.76994">
        <ele>681.101563</ele>
        <time>2018-05-26T16:45:56Z</time>
      </trkpt>
      <trkpt lat="47.86075" lon="6.76984">
        <ele>680.712952</ele>
        <time>2018-05-26T16:45:57Z</time>
      </trkpt>
      <trkpt lat="47.86076" lon="6.76975">
        <ele>680.163513</ele>
        <time>2018-05-26T16:45:58Z</time>
      </trkpt>
      <trkpt lat="47.86079" lon="6.76968">
        <ele>679.802673</ele>
        <time>2018-05-26T16:45:59Z</time>
      </trkpt>
      <trkpt lat="47.86083" lon="6.76962">
        <ele>679.268188</ele>
        <time>2018-05-26T16:46:00Z</time>
      </trkpt>
      <trkpt lat="47.86088" lon="6.76958">
        <ele>678.934448</ele>
        <time>2018-05-26T16:46:01Z</time>
      </trkpt>
      <trkpt lat="47.86093" lon="6.76955">
        <ele>678.510986</ele>
        <time>2018-05-26T16:46:02Z</time>
      </trkpt>
      <trkpt lat="47.86099" lon="6.76952">
        <ele>678.288086</ele>
        <time>2018-05-26T16:46:03Z</time>
      </trkpt>
      <trkpt lat="47.86105" lon="6.7695">
        <ele>678.114319</ele>
        <time>2018-05-26T16:46:04Z</time>
      </trkpt>
      <trkpt lat="47.8611" lon="6.76947">
        <ele>677.931519</ele>
        <time>2018-05-26T16:46:05Z</time>
      </trkpt>
      <trkpt lat="47.86115" lon="6.76943">
        <ele>677.864441</ele>
        <time>2018-05-26T16:46:06Z</time>
      </trkpt>
      <trkpt lat="47.8612" lon="6.76939">
        <ele>677.808899</ele>
        <time>2018-05-26T16:46:07Z</time>
      </trkpt>
      <trkpt lat="47.86125" lon="6.76935">
        <ele>677.785889</ele>
        <time>2018-05-26T16:46:08Z</time>
      </trkpt>
      <trkpt lat="47.8613" lon="6.76932">
        <ele>677.764221</ele>
        <time>2018-05-26T16:46:09Z</time>
      </trkpt>
      <trkpt lat="47.86134" lon="6.76931">
        <ele>677.742554</ele>
        <time>2018-05-26T16:46:10Z</time>
      </trkpt>
      <trkpt lat="47.86139" lon="6.76931">
        <ele>677.740173</ele>
        <time>2018-05-26T16:46:11Z</time>
      </trkpt>
      <trkpt lat="47.86142" lon="6.7693">
        <ele>677.750916</ele>
        <time>2018-05-26T16:46:12Z</time>
      </trkpt>
      <trkpt lat="47.86146" lon="6.76929">
        <ele>677.782166</ele>
        <time>2018-05-26T16:46:13Z</time>
      </trkpt>
      <trkpt lat="47.8615" lon="6.76928">
        <ele>677.838684</ele>
        <time>2018-05-26T16:46:14Z</time>
      </trkpt>
      <trkpt lat="47.86155" lon="6.76927">
        <ele>677.952087</ele>
        <time>2018-05-26T16:46:15Z</time>
      </trkpt>
      <trkpt lat="47.8616" lon="6.76925">
        <ele>678.03418</ele>
        <time>2018-05-26T16:46:16Z</time>
      </trkpt>
      <trkpt lat="47.86164" lon="6.76923">
        <ele>678.075439</ele>
        <time>2018-05-26T16:46:17Z</time>
      </trkpt>
      <trkpt lat="47.86169" lon="6.7692">
        <ele>678.190063</ele>
        <time>2018-05-26T16:46:18Z</time>
      </trkpt>
      <trkpt lat="47.86173" lon="6.76918">
        <ele>678.245911</ele>
        <time>2018-05-26T16:46:19Z</time>
      </trkpt>
      <trkpt lat="47.86177" lon="6.76915">
        <ele>678.259766</ele>
        <time>2018-05-26T16:46:20Z</time>
      </trkpt>
      <trkpt lat="47.86182" lon="6.76912">
        <ele>678.247253</ele>
        <time>2018-05-26T16:46:21Z</time>
      </trkpt>
      <trkpt lat="47.86187" lon="6.76909">
        <ele>678.133362</ele>
        <time>2018-05-26T16:46:22Z</time>
      </trkpt>
      <trkpt lat="47.86192" lon="6.76907">
        <ele>678.018311</ele>
        <time>2018-05-26T16:46:23Z</time>
      </trkpt>
      <trkpt lat="47.86197" lon="6.76905">
        <ele>677.824402</ele>
        <time>2018-05-26T16:46:24Z</time>
      </trkpt>
      <trkpt lat="47.86202" lon="6.76903">
        <ele>677.69696</ele>
        <time>2018-05-26T16:46:25Z</time>
      </trkpt>
      <trkpt lat="47.86206" lon="6.76898">
        <ele>677.574036</ele>
        <time>2018-05-26T16:46:26Z</time>
      </trkpt>
      <trkpt lat="47.86211" lon="6.76893">
        <ele>677.405762</ele>
        <time>2018-05-26T16:46:27Z</time>
      </trkpt>
      <trkpt lat="47.86216" lon="6.76888">
        <ele>677.296936</ele>
        <time>2018-05-26T16:46:28Z</time>
      </trkpt>
      <trkpt lat="47.86221" lon="6.76882">
        <ele>677.131042</ele>
        <time>2018-05-26T16:46:29Z</time>
      </trkpt>
      <trkpt lat="47.86226" lon="6.76875">
        <ele>676.994995</ele>
        <time>2018-05-26T16:46:30Z</time>
      </trkpt>
      <trkpt lat="47.86232" lon="6.76868">
        <ele>676.694031</ele>
        <time>2018-05-26T16:46:31Z</time>
      </trkpt>
      <trkpt lat="47.86238" lon="6.76861">
        <ele>676.406677</ele>
        <time>2018-05-26T16:46:32Z</time>
      </trkpt>
      <trkpt lat="47.86243" lon="6.76854">
        <ele>675.881348</ele>
        <time>2018-05-26T16:46:33Z</time>
      </trkpt>
      <trkpt lat="47.86248" lon="6.76847">
        <ele>675.502686</ele>
        <time>2018-05-26T16:46:34Z</time>
      </trkpt>
      <trkpt lat="47.86254" lon="6.7684">
        <ele>674.918152</ele>
        <time>2018-05-26T16:46:35Z</time>
      </trkpt>
      <trkpt lat="47.86258" lon="6.76833">
        <ele>674.523315</ele>
        <time>2018-05-26T16:46:36Z</time>
      </trkpt>
      <trkpt lat="47.86262" lon="6.76826">
        <ele>674.141235</ele>
        <time>2018-05-26T16:46:37Z</time>
      </trkpt>
      <trkpt lat="47.86266" lon="6.76819">
        <ele>673.656921</ele>
        <time>2018-05-26T16:46:38Z</time>
      </trkpt>
      <trkpt lat="47.86269" lon="6.76811">
        <ele>673.401917</ele>
        <time>2018-05-26T16:46:39Z</time>
      </trkpt>
      <trkpt lat="47.86272" lon="6.76803">
        <ele>673.108887</ele>
        <time>2018-05-26T16:46:40Z</time>
      </trkpt>
      <trkpt lat="47.86274" lon="6.76795">
        <ele>672.965637</ele>
        <time>2018-05-26T16:46:41Z</time>
      </trkpt>
      <trkpt lat="47.86277" lon="6.76787">
        <ele>672.859802</ele>
        <time>2018-05-26T16:46:42Z</time>
      </trkpt>
      <trkpt lat="47.86279" lon="6.76779">
        <ele>672.756165</ele>
        <time>2018-05-26T16:46:43Z</time>
      </trkpt>
      <trkpt lat="47.86281" lon="6.76771">
        <ele>672.709778</ele>
        <time>2018-05-26T16:46:44Z</time>
      </trkpt>
      <trkpt lat="47.86284" lon="6.76763">
        <ele>672.649841</ele>
        <time>2018-05-26T16:46:45Z</time>
      </trkpt>
      <trkpt lat="47.86286" lon="6.76755">
        <ele>672.616333</ele>
        <time>2018-05-26T16:46:46Z</time>
      </trkpt>
      <trkpt lat="47.86288" lon="6.76747">
        <ele>672.607666</ele>
        <time>2018-05-26T16:46:47Z</time>
      </trkpt>
      <trkpt lat="47.8629" lon="6.7674">
        <ele>672.615601</ele>
        <time>2018-05-26T16:46:48Z</time>
      </trkpt>
      <trkpt lat="47.86292" lon="6.76733">
        <ele>672.666565</ele>
        <time>2018-05-26T16:46:49Z</time>
      </trkpt>
      <trkpt lat="47.86294" lon="6.76727">
        <ele>672.824158</ele>
        <time>2018-05-26T16:46:50Z</time>
      </trkpt>
      <trkpt lat="47.86297" lon="6.7672">
        <ele>672.983154</ele>
        <time>2018-05-26T16:46:51Z</time>
      </trkpt>
      <trkpt lat="47.86299" lon="6.76714">
        <ele>673.262024</ele>
        <time>2018-05-26T16:46:52Z</time>
      </trkpt>
      <trkpt lat="47.86301" lon="6.76708">
        <ele>673.449829</ele>
        <time>2018-05-26T16:46:53Z</time>
      </trkpt>
      <trkpt lat="47.86303" lon="6.76701">
        <ele>673.624756</ele>
        <time>2018-05-26T16:46:54Z</time>
      </trkpt>
      <trkpt lat="47.86305" lon="6.76695">
        <ele>673.860168</ele>
        <time>2018-05-26T16:46:55Z</time>
      </trkpt>
      <trkpt lat="47.86307" lon="6.76689">
        <ele>673.994202</ele>
        <time>2018-05-26T16:46:56Z</time>
      </trkpt>
      <trkpt lat="47.86309" lon="6.76683">
        <ele>674.156738</ele>
        <time>2018-05-26T16:46:57Z</time>
      </trkpt>
      <trkpt lat="47.8631" lon="6.76677">
        <ele>674.247131</ele>
        <time>2018-05-26T16:46:58Z</time>
      </trkpt>
      <trkpt lat="47.86312" lon="6.76672">
        <ele>674.385376</ele>
        <time>2018-05-26T16:46:59Z</time>
      </trkpt>
      <trkpt lat="47.86314" lon="6.76667">
        <ele>674.483032</ele>
        <time>2018-05-26T16:47:00Z</time>
      </trkpt>
      <trkpt lat="47.86315" lon="6.76662">
        <ele>674.585999</ele>
        <time>2018-05-26T16:47:01Z</time>
      </trkpt>
      <trkpt lat="47.86317" lon="6.76657">
        <ele>674.734924</ele>
        <time>2018-05-26T16:47:02Z</time>
      </trkpt>
      <trkpt lat="47.8632" lon="6.76651">
        <ele>674.826233</ele>
        <time>2018-05-26T16:47:03Z</time>
      </trkpt>
      <trkpt lat="47.86322" lon="6.76645">
        <ele>674.937805</ele>
        <time>2018-05-26T16:47:04Z</time>
      </trkpt>
      <trkpt lat="47.86326" lon="6.76638">
        <ele>674.980774</ele>
        <time>2018-05-26T16:47:05Z</time>
      </trkpt>
      <trkpt lat="47.86329" lon="6.76632">
        <ele>674.983582</ele>
        <time>2018-05-26T16:47:06Z</time>
      </trkpt>
      <trkpt lat="47.86332" lon="6.76624">
        <ele>674.945618</ele>
        <time>2018-05-26T16:47:07Z</time>
      </trkpt>
      <trkpt lat="47.86336" lon="6.76616">
        <ele>674.842468</ele>
        <time>2018-05-26T16:47:08Z</time>
      </trkpt>
      <trkpt lat="47.8634" lon="6.76608">
        <ele>674.574036</ele>
        <time>2018-05-26T16:47:09Z</time>
      </trkpt>
      <trkpt lat="47.86343" lon="6.76599">
        <ele>674.311462</ele>
        <time>2018-05-26T16:47:10Z</time>
      </trkpt>
      <trkpt lat="47.86349" lon="6.7659">
        <ele>673.975891</ele>
        <time>2018-05-26T16:47:11Z</time>
      </trkpt>
      <trkpt lat="47.86354" lon="6.76581">
        <ele>673.354553</ele>
        <time>2018-05-26T16:47:12Z</time>
      </trkpt>
      <trkpt lat="47.86359" lon="6.76572">
        <ele>672.874756</ele>
        <time>2018-05-26T16:47:13Z</time>
      </trkpt>
      <trkpt lat="47.86364" lon="6.76562">
        <ele>672.069153</ele>
        <time>2018-05-26T16:47:14Z</time>
      </trkpt>
      <trkpt lat="47.86369" lon="6.76551">
        <ele>671.499939</ele>
        <time>2018-05-26T16:47:15Z</time>
      </trkpt>
      <trkpt lat="47.86373" lon="6.7654">
        <ele>670.649109</ele>
        <time>2018-05-26T16:47:16Z</time>
      </trkpt>
      <trkpt lat="47.86377" lon="6.7653">
        <ele>670.372498</ele>
        <time>2018-05-26T16:47:17Z</time>
      </trkpt>
      <trkpt lat="47.86381" lon="6.76521">
        <ele>670.372498</ele>
        <time>2018-05-26T16:47:18Z</time>
      </trkpt>
      <trkpt lat="47.86385" lon="6.76512">
        <ele>669.830383</ele>
        <time>2018-05-26T16:47:19Z</time>
      </trkpt>
      <trkpt lat="47.86388" lon="6.76503">
        <ele>669.060486</ele>
        <time>2018-05-26T16:47:20Z</time>
      </trkpt>
      <trkpt lat="47.86392" lon="6.76494">
        <ele>668.593811</ele>
        <time>2018-05-26T16:47:21Z</time>
      </trkpt>
      <trkpt lat="47.86396" lon="6.76485">
        <ele>667.973877</ele>
        <time>2018-05-26T16:47:22Z</time>
      </trkpt>
      <trkpt lat="47.86401" lon="6.76476">
        <ele>667.605042</ele>
        <time>2018-05-26T16:47:23Z</time>
      </trkpt>
      <trkpt lat="47.86406" lon="6.76466">
        <ele>667.111877</ele>
        <time>2018-05-26T16:47:24Z</time>
      </trkpt>
      <trkpt lat="47.86412" lon="6.76456">
        <ele>666.806213</ele>
        <time>2018-05-26T16:47:25Z</time>
      </trkpt>
      <trkpt lat="47.86419" lon="6.76446">
        <ele>666.320862</ele>
        <time>2018-05-26T16:47:26Z</time>
      </trkpt>
      <trkpt lat="47.86425" lon="6.76436">
        <ele>665.945923</ele>
        <time>2018-05-26T16:47:27Z</time>
      </trkpt>
      <trkpt lat="47.86431" lon="6.76425">
        <ele>665.52002</ele>
        <time>2018-05-26T16:47:28Z</time>
      </trkpt>
      <trkpt lat="47.86437" lon="6.76413">
        <ele>664.770447</ele>
        <time>2018-05-26T16:47:29Z</time>
      </trkpt>
      <trkpt lat="47.86442" lon="6.764">
        <ele>664.204163</ele>
        <time>2018-05-26T16:47:30Z</time>
      </trkpt>
      <trkpt lat="47.86448" lon="6.76388">
        <ele>663.277405</ele>
        <time>2018-05-26T16:47:31Z</time>
      </trkpt>
      <trkpt lat="47.86454" lon="6.76375">
        <ele>662.62323</ele>
        <time>2018-05-26T16:47:32Z</time>
      </trkpt>
      <trkpt lat="47.8646" lon="6.76363">
        <ele>661.608337</ele>
        <time>2018-05-26T16:47:33Z</time>
      </trkpt>
      <trkpt lat="47.86466" lon="6.76351">
        <ele>660.918945</ele>
        <time>2018-05-26T16:47:34Z</time>
      </trkpt>
      <trkpt lat="47.86472" lon="6.76339">
        <ele>659.88446</ele>
        <time>2018-05-26T16:47:35Z</time>
      </trkpt>
      <trkpt lat="47.86478" lon="6.7633">
        <ele>659.211426</ele>
        <time>2018-05-26T16:47:36Z</time>
      </trkpt>
      <trkpt lat="47.86485" lon="6.76322">
        <ele>658.576538</ele>
        <time>2018-05-26T16:47:37Z</time>
      </trkpt>
      <trkpt lat="47.86491" lon="6.76315">
        <ele>657.742065</ele>
        <time>2018-05-26T16:47:38Z</time>
      </trkpt>
      <trkpt lat="47.86497" lon="6.76309">
        <ele>657.275635</ele>
        <time>2018-05-26T16:47:39Z</time>
      </trkpt>
      <trkpt lat="47.86503" lon="6.76302">
        <ele>656.706848</ele>
        <time>2018-05-26T16:47:40Z</time>
      </trkpt>
      <trkpt lat="47.86509" lon="6.76296">
        <ele>656.404785</ele>
        <time>2018-05-26T16:47:41Z</time>
      </trkpt>
      <trkpt lat="47.86515" lon="6.76289">
        <ele>656.061218</ele>
        <time>2018-05-26T16:47:42Z</time>
      </trkpt>
      <trkpt lat="47.86522" lon="6.76282">
        <ele>655.884155</ele>
        <time>2018-05-26T16:47:43Z</time>
      </trkpt>
      <trkpt lat="47.86528" lon="6.76274">
        <ele>655.72821</ele>
        <time>2018-05-26T16:47:44Z</time>
      </trkpt>
      <trkpt lat="47.86535" lon="6.76266">
        <ele>655.492249</ele>
        <time>2018-05-26T16:47:45Z</time>
      </trkpt>
      <trkpt lat="47.86541" lon="6.76256">
        <ele>655.298279</ele>
        <time>2018-05-26T16:47:46Z</time>
      </trkpt>
      <trkpt lat="47.86546" lon="6.76246">
        <ele>654.900085</ele>
        <time>2018-05-26T16:47:47Z</time>
      </trkpt>
      <trkpt lat="47.86551" lon="6.76236">
        <ele>654.539673</ele>
        <time>2018-05-26T16:47:48Z</time>
      </trkpt>
      <trkpt lat="47.86555" lon="6.76228">
        <ele>653.843811</ele>
        <time>2018-05-26T16:47:49Z</time>
      </trkpt>
      <trkpt lat="47.86559" lon="6.76223">
        <ele>653.289978</ele>
        <time>2018-05-26T16:47:50Z</time>
      </trkpt>
      <trkpt lat="47.86562" lon="6.76219">
        <ele>652.692993</ele>
        <time>2018-05-26T16:47:51Z</time>
      </trkpt>
      <trkpt lat="47.86565" lon="6.76215">
        <ele>651.752869</ele>
        <time>2018-05-26T16:47:52Z</time>
      </trkpt>
      <trkpt lat="47.86566" lon="6.76211">
        <ele>651.121277</ele>
        <time>2018-05-26T16:47:53Z</time>
      </trkpt>
      <trkpt lat="47.86565" lon="6.76206">
        <ele>650.223633</ele>
        <time>2018-05-26T16:47:54Z</time>
      </trkpt>
      <trkpt lat="47.86565" lon="6.76201">
        <ele>649.685791</ele>
        <time>2018-05-26T16:47:55Z</time>
      </trkpt>
      <trkpt lat="47.86565" lon="6.76195">
        <ele>648.991394</ele>
        <time>2018-05-26T16:47:56Z</time>
      </trkpt>
      <trkpt lat="47.86564" lon="6.7619">
        <ele>648.626038</ele>
        <time>2018-05-26T16:47:57Z</time>
      </trkpt>
      <trkpt lat="47.86564" lon="6.76184">
        <ele>648.258362</ele>
        <time>2018-05-26T16:47:58Z</time>
      </trkpt>
      <trkpt lat="47.86564" lon="6.76178">
        <ele>648.120728</ele>
        <time>2018-05-26T16:47:59Z</time>
      </trkpt>
      <trkpt lat="47.86564" lon="6.76172">
        <ele>648.045593</ele>
        <time>2018-05-26T16:48:00Z</time>
      </trkpt>
      <trkpt lat="47.86564" lon="6.76166">
        <ele>648.007263</ele>
        <time>2018-05-26T16:48:01Z</time>
      </trkpt>
      <trkpt lat="47.86565" lon="6.76159">
        <ele>648.006775</ele>
        <time>2018-05-26T16:48:02Z</time>
      </trkpt>
      <trkpt lat="47.86564" lon="6.76151">
        <ele>648.000061</ele>
        <time>2018-05-26T16:48:03Z</time>
      </trkpt>
      <trkpt lat="47.86564" lon="6.76144">
        <ele>647.974243</ele>
        <time>2018-05-26T16:48:04Z</time>
      </trkpt>
      <trkpt lat="47.86564" lon="6.76138">
        <ele>647.898376</ele>
        <time>2018-05-26T16:48:05Z</time>
      </trkpt>
      <trkpt lat="47.86564" lon="6.76131">
        <ele>647.676941</ele>
        <time>2018-05-26T16:48:06Z</time>
      </trkpt>
      <trkpt lat="47.86563" lon="6.76124">
        <ele>647.484558</ele>
        <time>2018-05-26T16:48:07Z</time>
      </trkpt>
      <trkpt lat="47.86562" lon="6.76116">
        <ele>647.144958</ele>
        <time>2018-05-26T16:48:08Z</time>
      </trkpt>
      <trkpt lat="47.8656" lon="6.76108">
        <ele>646.887451</ele>
        <time>2018-05-26T16:48:09Z</time>
      </trkpt>
      <trkpt lat="47.86559" lon="6.761">
        <ele>646.606873</ele>
        <time>2018-05-26T16:48:10Z</time>
      </trkpt>
      <trkpt lat="47.86557" lon="6.76092">
        <ele>646.152771</ele>
        <time>2018-05-26T16:48:11Z</time>
      </trkpt>
      <trkpt lat="47.86556" lon="6.76085">
        <ele>645.831482</ele>
        <time>2018-05-26T16:48:12Z</time>
      </trkpt>
      <trkpt lat="47.86554" lon="6.76079">
        <ele>645.343689</ele>
        <time>2018-05-26T16:48:13Z</time>
      </trkpt>
      <trkpt lat="47.86552" lon="6.76073">
        <ele>645.015564</ele>
        <time>2018-05-26T16:48:14Z</time>
      </trkpt>
      <trkpt lat="47.86551" lon="6.76066">
        <ele>644.515137</ele>
        <time>2018-05-26T16:48:15Z</time>
      </trkpt>
      <trkpt lat="47.86548" lon="6.76059">
        <ele>644.180115</ele>
        <time>2018-05-26T16:48:16Z</time>
      </trkpt>
      <trkpt lat="47.86546" lon="6.76051">
        <ele>643.847412</ele>
        <time>2018-05-26T16:48:17Z</time>
      </trkpt>
      <trkpt lat="47.86545" lon="6.76044">
        <ele>643.681458</ele>
        <time>2018-05-26T16:48:18Z</time>
      </trkpt>
      <trkpt lat="47.86543" lon="6.76037">
        <ele>643.342468</ele>
        <time>2018-05-26T16:48:19Z</time>
      </trkpt>
      <trkpt lat="47.86541" lon="6.7603">
        <ele>642.988342</ele>
        <time>2018-05-26T16:48:20Z</time>
      </trkpt>
      <trkpt lat="47.86538" lon="6.76023">
        <ele>642.614441</ele>
        <time>2018-05-26T16:48:21Z</time>
      </trkpt>
      <trkpt lat="47.86535" lon="6.76016">
        <ele>642.011658</ele>
        <time>2018-05-26T16:48:22Z</time>
      </trkpt>
      <trkpt lat="47.86531" lon="6.76009">
        <ele>641.577332</ele>
        <time>2018-05-26T16:48:23Z</time>
      </trkpt>
      <trkpt lat="47.86528" lon="6.76002">
        <ele>640.896179</ele>
        <time>2018-05-26T16:48:24Z</time>
      </trkpt>
      <trkpt lat="47.86525" lon="6.75996">
        <ele>640.4505</ele>
        <time>2018-05-26T16:48:25Z</time>
      </trkpt>
      <trkpt lat="47.86521" lon="6.75991">
        <ele>640.028748</ele>
        <time>2018-05-26T16:48:26Z</time>
      </trkpt>
      <trkpt lat="47.86517" lon="6.75987">
        <ele>639.477234</ele>
        <time>2018-05-26T16:48:27Z</time>
      </trkpt>
      <trkpt lat="47.86513" lon="6.75984">
        <ele>639.191589</ele>
        <time>2018-05-26T16:48:28Z</time>
      </trkpt>
      <trkpt lat="47.86509" lon="6.7598">
        <ele>638.929138</ele>
        <time>2018-05-26T16:48:29Z</time>
      </trkpt>
      <trkpt lat="47.86506" lon="6.75978">
        <ele>638.864258</ele>
        <time>2018-05-26T16:48:30Z</time>
      </trkpt>
      <trkpt lat="47.86503" lon="6.75974">
        <ele>638.861267</ele>
        <time>2018-05-26T16:48:31Z</time>
      </trkpt>
      <trkpt lat="47.86499" lon="6.75971">
        <ele>638.899475</ele>
        <time>2018-05-26T16:48:32Z</time>
      </trkpt>
      <trkpt lat="47.86496" lon="6.75968">
        <ele>638.979126</ele>
        <time>2018-05-26T16:48:33Z</time>
      </trkpt>
      <trkpt lat="47.86492" lon="6.75964">
        <ele>639.12439</ele>
        <time>2018-05-26T16:48:34Z</time>
      </trkpt>
      <trkpt lat="47.86488" lon="6.75961">
        <ele>639.230164</ele>
        <time>2018-05-26T16:48:35Z</time>
      </trkpt>
      <trkpt lat="47.86485" lon="6.75957">
        <ele>639.408508</ele>
        <time>2018-05-26T16:48:36Z</time>
      </trkpt>
      <trkpt lat="47.86482" lon="6.75955">
        <ele>639.540222</ele>
        <time>2018-05-26T16:48:37Z</time>
      </trkpt>
      <trkpt lat="47.8648" lon="6.75952">
        <ele>639.678467</ele>
        <time>2018-05-26T16:48:38Z</time>
      </trkpt>
      <trkpt lat="47.86477" lon="6.75949">
        <ele>639.908325</ele>
        <time>2018-05-26T16:48:39Z</time>
      </trkpt>
      <trkpt lat="47.86475" lon="6.75945">
        <ele>640.083008</ele>
        <time>2018-05-26T16:48:40Z</time>
      </trkpt>
      <trkpt lat="47.86472" lon="6.75942">
        <ele>640.375793</ele>
        <time>2018-05-26T16:48:41Z</time>
      </trkpt>
      <trkpt lat="47.86469" lon="6.7594">
        <ele>640.575623</ele>
        <time>2018-05-26T16:48:42Z</time>
      </trkpt>
      <trkpt lat="47.86467" lon="6.75936">
        <ele>640.776062</ele>
        <time>2018-05-26T16:48:43Z</time>
      </trkpt>
      <trkpt lat="47.86464" lon="6.75932">
        <ele>641.071106</ele>
        <time>2018-05-26T16:48:44Z</time>
      </trkpt>
      <trkpt lat="47.86462" lon="6.75929">
        <ele>641.274353</ele>
        <time>2018-05-26T16:48:45Z</time>
      </trkpt>
      <trkpt lat="47.8646" lon="6.75926">
        <ele>641.584106</ele>
        <time>2018-05-26T16:48:46Z</time>
      </trkpt>
      <trkpt lat="47.86456" lon="6.75923">
        <ele>641.796692</ele>
        <time>2018-05-26T16:48:47Z</time>
      </trkpt>
      <trkpt lat="47.86454" lon="6.7592">
        <ele>642.109253</ele>
        <time>2018-05-26T16:48:48Z</time>
      </trkpt>
      <trkpt lat="47.8645" lon="6.75917">
        <ele>642.298767</ele>
        <time>2018-05-26T16:48:49Z</time>
      </trkpt>
      <trkpt lat="47.86447" lon="6.75914">
        <ele>642.462402</ele>
        <time>2018-05-26T16:48:50Z</time>
      </trkpt>
      <trkpt lat="47.86444" lon="6.75911">
        <ele>642.66864</ele>
        <time>2018-05-26T16:48:51Z</time>
      </trkpt>
      <trkpt lat="47.86441" lon="6.75909">
        <ele>642.78363</ele>
        <time>2018-05-26T16:48:52Z</time>
      </trkpt>
      <trkpt lat="47.86439" lon="6.75907">
        <ele>642.922913</ele>
        <time>2018-05-26T16:48:53Z</time>
      </trkpt>
      <trkpt lat="47.86437" lon="6.75905">
        <ele>642.997375</ele>
        <time>2018-05-26T16:48:54Z</time>
      </trkpt>
      <trkpt lat="47.86434" lon="6.75903">
        <ele>643.061951</ele>
        <time>2018-05-26T16:48:55Z</time>
      </trkpt>
      <trkpt lat="47.86431" lon="6.759">
        <ele>643.15564</ele>
        <time>2018-05-26T16:48:56Z</time>
      </trkpt>
      <trkpt lat="47.86429" lon="6.75898">
        <ele>643.21344</ele>
        <time>2018-05-26T16:48:57Z</time>
      </trkpt>
      <trkpt lat="47.86426" lon="6.75895">
        <ele>643.282776</ele>
        <time>2018-05-26T16:48:58Z</time>
      </trkpt>
      <trkpt lat="47.86424" lon="6.75893">
        <ele>643.323792</ele>
        <time>2018-05-26T16:48:59Z</time>
      </trkpt>
      <trkpt lat="47.86421" lon="6.75892">
        <ele>643.406433</ele>
        <time>2018-05-26T16:49:00Z</time>
      </trkpt>
      <trkpt lat="47.86419" lon="6.7589">
        <ele>643.484375</ele>
        <time>2018-05-26T16:49:01Z</time>
      </trkpt>
      <trkpt lat="47.86417" lon="6.75888">
        <ele>643.572815</ele>
        <time>2018-05-26T16:49:02Z</time>
      </trkpt>
      <trkpt lat="47.86415" lon="6.75887">
        <ele>643.717957</ele>
        <time>2018-05-26T16:49:03Z</time>
      </trkpt>
      <trkpt lat="47.86412" lon="6.75885">
        <ele>643.819153</ele>
        <time>2018-05-26T16:49:04Z</time>
      </trkpt>
      <trkpt lat="47.8641" lon="6.75884">
        <ele>643.972717</ele>
        <time>2018-05-26T16:49:05Z</time>
      </trkpt>
      <trkpt lat="47.86408" lon="6.75882">
        <ele>644.066406</ele>
        <time>2018-05-26T16:49:06Z</time>
      </trkpt>
      <trkpt lat="47.86406" lon="6.7588">
        <ele>644.180603</ele>
        <time>2018-05-26T16:49:07Z</time>
      </trkpt>
      <trkpt lat="47.86404" lon="6.75877">
        <ele>644.242615</ele>
        <time>2018-05-26T16:49:08Z</time>
      </trkpt>
      <trkpt lat="47.86402" lon="6.75875">
        <ele>644.304993</ele>
        <time>2018-05-26T16:49:09Z</time>
      </trkpt>
      <trkpt lat="47.86399" lon="6.75872">
        <ele>644.409119</ele>
        <time>2018-05-26T16:49:10Z</time>
      </trkpt>
      <trkpt lat="47.86398" lon="6.75869">
        <ele>644.485229</ele>
        <time>2018-05-26T16:49:11Z</time>
      </trkpt>
      <trkpt lat="47.86395" lon="6.75866">
        <ele>644.603455</ele>
        <time>2018-05-26T16:49:12Z</time>
      </trkpt>
      <trkpt lat="47.86393" lon="6.75864">
        <ele>644.679932</ele>
        <time>2018-05-26T16:49:13Z</time>
      </trkpt>
      <trkpt lat="47.86391" lon="6.7586">
        <ele>644.755005</ele>
        <time>2018-05-26T16:49:14Z</time>
      </trkpt>
      <trkpt lat="47.8639" lon="6.75856">
        <ele>644.868347</ele>
        <time>2018-05-26T16:49:15Z</time>
      </trkpt>
      <trkpt lat="47.86389" lon="6.75852">
        <ele>644.939148</ele>
        <time>2018-05-26T16:49:16Z</time>
      </trkpt>
      <trkpt lat="47.86391" lon="6.75848">
        <ele>645.014465</ele>
        <time>2018-05-26T16:49:17Z</time>
      </trkpt>
      <trkpt lat="47.86392" lon="6.75845">
        <ele>645.028381</ele>
        <time>2018-05-26T16:49:18Z</time>
      </trkpt>
      <trkpt lat="47.86395" lon="6.75841">
        <ele>645.028381</ele>
        <time>2018-05-26T16:49:19Z</time>
      </trkpt>
      <trkpt lat="47.86396" lon="6.75837">
        <ele>645.018066</ele>
        <time>2018-05-26T16:49:20Z</time>
      </trkpt>
      <trkpt lat="47.86398" lon="6.75832">
        <ele>644.96637</ele>
        <time>2018-05-26T16:49:21Z</time>
      </trkpt>
      <trkpt lat="47.86399" lon="6.75827">
        <ele>644.913513</ele>
        <time>2018-05-26T16:49:22Z</time>
      </trkpt>
      <trkpt lat="47.864" lon="6.75822">
        <ele>644.80658</ele>
        <time>2018-05-26T16:49:23Z</time>
      </trkpt>
      <trkpt lat="47.864" lon="6.75816">
        <ele>644.731995</ele>
        <time>2018-05-26T16:49:24Z</time>
      </trkpt>
      <trkpt lat="47.864" lon="6.75811">
        <ele>644.661011</ele>
        <time>2018-05-26T16:49:25Z</time>
      </trkpt>
      <trkpt lat="47.864" lon="6.75805">
        <ele>644.551208</ele>
        <time>2018-05-26T16:49:26Z</time>
      </trkpt>
      <trkpt lat="47.864" lon="6.75798">
        <ele>644.454834</ele>
        <time>2018-05-26T16:49:27Z</time>
      </trkpt>
      <trkpt lat="47.864" lon="6.75791">
        <ele>644.273926</ele>
        <time>2018-05-26T16:49:28Z</time>
      </trkpt>
      <trkpt lat="47.86401" lon="6.75784">
        <ele>644.139832</ele>
        <time>2018-05-26T16:49:29Z</time>
      </trkpt>
      <trkpt lat="47.86401" lon="6.75776">
        <ele>644.004639</ele>
        <time>2018-05-26T16:49:30Z</time>
      </trkpt>
      <trkpt lat="47.86402" lon="6.75767">
        <ele>643.797302</ele>
        <time>2018-05-26T16:49:31Z</time>
      </trkpt>
      <trkpt lat="47.86402" lon="6.75759">
        <ele>643.641968</ele>
        <time>2018-05-26T16:49:32Z</time>
      </trkpt>
      <trkpt lat="47.86403" lon="6.75752">
        <ele>643.348816</ele>
        <time>2018-05-26T16:49:33Z</time>
      </trkpt>
      <trkpt lat="47.86403" lon="6.75745">
        <ele>643.103149</ele>
        <time>2018-05-26T16:49:34Z</time>
      </trkpt>
      <trkpt lat="47.86404" lon="6.75738">
        <ele>642.647278</ele>
        <time>2018-05-26T16:49:35Z</time>
      </trkpt>
      <trkpt lat="47.86404" lon="6.75731">
        <ele>642.282898</ele>
        <time>2018-05-26T16:49:36Z</time>
      </trkpt>
      <trkpt lat="47.86404" lon="6.75723">
        <ele>641.885803</ele>
        <time>2018-05-26T16:49:37Z</time>
      </trkpt>
      <trkpt lat="47.86404" lon="6.75716">
        <ele>641.279968</ele>
        <time>2018-05-26T16:49:38Z</time>
      </trkpt>
      <trkpt lat="47.86403" lon="6.75709">
        <ele>640.892517</ele>
        <time>2018-05-26T16:49:39Z</time>
      </trkpt>
      <trkpt lat="47.86402" lon="6.75702">
        <ele>640.359314</ele>
        <time>2018-05-26T16:49:40Z</time>
      </trkpt>
      <trkpt lat="47.864" lon="6.75695">
        <ele>640.039063</ele>
        <time>2018-05-26T16:49:41Z</time>
      </trkpt>
      <trkpt lat="47.86398" lon="6.75688">
        <ele>639.570618</ele>
        <time>2018-05-26T16:49:42Z</time>
      </trkpt>
      <trkpt lat="47.86394" lon="6.75681">
        <ele>639.226318</ele>
        <time>2018-05-26T16:49:43Z</time>
      </trkpt>
      <trkpt lat="47.86391" lon="6.75673">
        <ele>638.604187</ele>
        <time>2018-05-26T16:49:44Z</time>
      </trkpt>
      <trkpt lat="47.86388" lon="6.75666">
        <ele>638.119873</ele>
        <time>2018-05-26T16:49:45Z</time>
      </trkpt>
      <trkpt lat="47.86385" lon="6.75658">
        <ele>637.596008</ele>
        <time>2018-05-26T16:49:46Z</time>
      </trkpt>
      <trkpt lat="47.86383" lon="6.7565">
        <ele>636.787903</ele>
        <time>2018-05-26T16:49:47Z</time>
      </trkpt>
      <trkpt lat="47.86381" lon="6.75642">
        <ele>636.283569</ele>
        <time>2018-05-26T16:49:48Z</time>
      </trkpt>
      <trkpt lat="47.86379" lon="6.75634">
        <ele>635.625732</ele>
        <time>2018-05-26T16:49:49Z</time>
      </trkpt>
      <trkpt lat="47.86379" lon="6.75627">
        <ele>635.253662</ele>
        <time>2018-05-26T16:49:50Z</time>
      </trkpt>
      <trkpt lat="47.86377" lon="6.7562">
        <ele>634.789612</ele>
        <time>2018-05-26T16:49:51Z</time>
      </trkpt>
      <trkpt lat="47.86375" lon="6.75613">
        <ele>634.544922</ele>
        <time>2018-05-26T16:49:52Z</time>
      </trkpt>
      <trkpt lat="47.86374" lon="6.75606">
        <ele>634.250793</ele>
        <time>2018-05-26T16:49:53Z</time>
      </trkpt>
      <trkpt lat="47.86373" lon="6.75599">
        <ele>634.082642</ele>
        <time>2018-05-26T16:49:54Z</time>
      </trkpt>
      <trkpt lat="47.86372" lon="6.75592">
        <ele>633.928528</ele>
        <time>2018-05-26T16:49:55Z</time>
      </trkpt>
      <trkpt lat="47.86371" lon="6.75586">
        <ele>633.729431</ele>
        <time>2018-05-26T16:49:56Z</time>
      </trkpt>
      <trkpt lat="47.8637" lon="6.75581">
        <ele>633.629395</ele>
        <time>2018-05-26T16:49:57Z</time>
      </trkpt>
      <trkpt lat="47.86369" lon="6.75575">
        <ele>633.541931</ele>
        <time>2018-05-26T16:49:58Z</time>
      </trkpt>
      <trkpt lat="47.86367" lon="6.7557">
        <ele>633.534729</ele>
        <time>2018-05-26T16:49:59Z</time>
      </trkpt>
      <trkpt lat="47.86366" lon="6.75565">
        <ele>633.555603</ele>
        <time>2018-05-26T16:50:00Z</time>
      </trkpt>
      <trkpt lat="47.86364" lon="6.75561">
        <ele>633.621826</ele>
        <time>2018-05-26T16:50:01Z</time>
      </trkpt>
      <trkpt lat="47.86363" lon="6.75557">
        <ele>633.750427</ele>
        <time>2018-05-26T16:50:02Z</time>
      </trkpt>
      <trkpt lat="47.86361" lon="6.75552">
        <ele>633.82843</ele>
        <time>2018-05-26T16:50:03Z</time>
      </trkpt>
      <trkpt lat="47.86359" lon="6.75547">
        <ele>633.893616</ele>
        <time>2018-05-26T16:50:04Z</time>
      </trkpt>
      <trkpt lat="47.86357" lon="6.75541">
        <ele>633.954895</ele>
        <time>2018-05-26T16:50:05Z</time>
      </trkpt>
      <trkpt lat="47.86356" lon="6.75537">
        <ele>633.959351</ele>
        <time>2018-05-26T16:50:06Z</time>
      </trkpt>
      <trkpt lat="47.86354" lon="6.75532">
        <ele>633.936096</ele>
        <time>2018-05-26T16:50:07Z</time>
      </trkpt>
      <trkpt lat="47.86353" lon="6.75527">
        <ele>633.871155</ele>
        <time>2018-05-26T16:50:08Z</time>
      </trkpt>
      <trkpt lat="47.8635" lon="6.75521">
        <ele>633.741638</ele>
        <time>2018-05-26T16:50:09Z</time>
      </trkpt>
      <trkpt lat="47.86349" lon="6.75513">
        <ele>633.658264</ele>
        <time>2018-05-26T16:50:10Z</time>
      </trkpt>
      <trkpt lat="47.86348" lon="6.75506">
        <ele>633.565857</ele>
        <time>2018-05-26T16:50:11Z</time>
      </trkpt>
      <trkpt lat="47.86347" lon="6.75499">
        <ele>633.368164</ele>
        <time>2018-05-26T16:50:12Z</time>
      </trkpt>
      <trkpt lat="47.86346" lon="6.75493">
        <ele>633.177429</ele>
        <time>2018-05-26T16:50:13Z</time>
      </trkpt>
      <trkpt lat="47.86345" lon="6.75488">
        <ele>632.801636</ele>
        <time>2018-05-26T16:50:14Z</time>
      </trkpt>
      <trkpt lat="47.86342" lon="6.75484">
        <ele>632.502686</ele>
        <time>2018-05-26T16:50:15Z</time>
      </trkpt>
      <trkpt lat="47.86338" lon="6.75481">
        <ele>632.008728</ele>
        <time>2018-05-26T16:50:16Z</time>
      </trkpt>
      <trkpt lat="47.86333" lon="6.75479">
        <ele>631.654175</ele>
        <time>2018-05-26T16:50:17Z</time>
      </trkpt>
      <trkpt lat="47.86327" lon="6.75477">
        <ele>631.276672</ele>
        <time>2018-05-26T16:50:18Z</time>
      </trkpt>
      <trkpt lat="47.86321" lon="6.75475">
        <ele>631.083801</ele>
        <time>2018-05-26T16:50:19Z</time>
      </trkpt>
      <trkpt lat="47.86315" lon="6.75473">
        <ele>630.684631</ele>
        <time>2018-05-26T16:50:20Z</time>
      </trkpt>
      <trkpt lat="47.86308" lon="6.75469">
        <ele>630.257263</ele>
        <time>2018-05-26T16:50:21Z</time>
      </trkpt>
      <trkpt lat="47.86301" lon="6.75465">
        <ele>629.788269</ele>
        <time>2018-05-26T16:50:22Z</time>
      </trkpt>
      <trkpt lat="47.86295" lon="6.75459">
        <ele>629.002747</ele>
        <time>2018-05-26T16:50:23Z</time>
      </trkpt>
      <trkpt lat="47.8629" lon="6.75452">
        <ele>628.430237</ele>
        <time>2018-05-26T16:50:24Z</time>
      </trkpt>
      <trkpt lat="47.86285" lon="6.75445">
        <ele>627.518616</ele>
        <time>2018-05-26T16:50:25Z</time>
      </trkpt>
      <trkpt lat="47.86282" lon="6.75438">
        <ele>626.920471</ele>
        <time>2018-05-26T16:50:26Z</time>
      </trkpt>
      <trkpt lat="47.8628" lon="6.7543">
        <ele>626.358704</ele>
        <time>2018-05-26T16:50:27Z</time>
      </trkpt>
      <trkpt lat="47.86278" lon="6.75422">
        <ele>625.601624</ele>
        <time>2018-05-26T16:50:28Z</time>
      </trkpt>
      <trkpt lat="47.86277" lon="6.75414">
        <ele>625.158386</ele>
        <time>2018-05-26T16:50:29Z</time>
      </trkpt>
      <trkpt lat="47.86276" lon="6.75409">
        <ele>624.591553</ele>
        <time>2018-05-26T16:50:30Z</time>
      </trkpt>
      <trkpt lat="47.86274" lon="6.75405">
        <ele>624.25592</ele>
        <time>2018-05-26T16:50:31Z</time>
      </trkpt>
      <trkpt lat="47.86274" lon="6.75402">
        <ele>623.739746</ele>
        <time>2018-05-26T16:50:32Z</time>
      </trkpt>
      <trkpt lat="47.86274" lon="6.75399">
        <ele>623.372375</ele>
        <time>2018-05-26T16:50:33Z</time>
      </trkpt>
      <trkpt lat="47.86274" lon="6.75396">
        <ele>622.997375</ele>
        <time>2018-05-26T16:50:34Z</time>
      </trkpt>
      <trkpt lat="47.86274" lon="6.75392">
        <ele>622.449097</ele>
        <time>2018-05-26T16:50:35Z</time>
      </trkpt>
      <trkpt lat="47.86274" lon="6.75387">
        <ele>622.103821</ele>
        <time>2018-05-26T16:50:36Z</time>
      </trkpt>
      <trkpt lat="47.86272" lon="6.75382">
        <ele>621.665527</ele>
        <time>2018-05-26T16:50:37Z</time>
      </trkpt>
      <trkpt lat="47.86269" lon="6.75378">
        <ele>621.438049</ele>
        <time>2018-05-26T16:50:38Z</time>
      </trkpt>
      <trkpt lat="47.86266" lon="6.75374">
        <ele>621.261536</ele>
        <time>2018-05-26T16:50:39Z</time>
      </trkpt>
      <trkpt lat="47.86264" lon="6.75372">
        <ele>621.07782</ele>
        <time>2018-05-26T16:50:40Z</time>
      </trkpt>
      <trkpt lat="47.86261" lon="6.7537">
        <ele>621.020691</ele>
        <time>2018-05-26T16:50:41Z</time>
      </trkpt>
      <trkpt lat="47.86259" lon="6.75368">
        <ele>621.013733</ele>
        <time>2018-05-26T16:50:42Z</time>
      </trkpt>
      <trkpt lat="47.86257" lon="6.75365">
        <ele>621.04541</ele>
        <time>2018-05-26T16:50:43Z</time>
      </trkpt>
      <trkpt lat="47.86255" lon="6.75362">
        <ele>621.189209</ele>
        <time>2018-05-26T16:50:44Z</time>
      </trkpt>
      <trkpt lat="47.86252" lon="6.75359">
        <ele>621.32959</ele>
        <time>2018-05-26T16:50:45Z</time>
      </trkpt>
      <trkpt lat="47.8625" lon="6.75356">
        <ele>621.492371</ele>
        <time>2018-05-26T16:50:46Z</time>
      </trkpt>
      <trkpt lat="47.86248" lon="6.75353">
        <ele>621.756531</ele>
        <time>2018-05-26T16:50:47Z</time>
      </trkpt>
      <trkpt lat="47.86246" lon="6.75351">
        <ele>621.940308</ele>
        <time>2018-05-26T16:50:48Z</time>
      </trkpt>
      <trkpt lat="47.86244" lon="6.75349">
        <ele>622.218811</ele>
        <time>2018-05-26T16:50:49Z</time>
      </trkpt>
      <trkpt lat="47.86241" lon="6.75346">
        <ele>622.395691</ele>
        <time>2018-05-26T16:50:50Z</time>
      </trkpt>
      <trkpt lat="47.86239" lon="6.75344">
        <ele>622.566956</ele>
        <time>2018-05-26T16:50:51Z</time>
      </trkpt>
      <trkpt lat="47.86237" lon="6.75342">
        <ele>622.820618</ele>
        <time>2018-05-26T16:50:52Z</time>
      </trkpt>
      <trkpt lat="47.86234" lon="6.7534">
        <ele>622.99585</ele>
        <time>2018-05-26T16:50:53Z</time>
      </trkpt>
      <trkpt lat="47.86232" lon="6.75338">
        <ele>623.259094</ele>
        <time>2018-05-26T16:50:54Z</time>
      </trkpt>
      <trkpt lat="47.86229" lon="6.75336">
        <ele>623.433838</ele>
        <time>2018-05-26T16:50:55Z</time>
      </trkpt>
      <trkpt lat="47.86226" lon="6.75335">
        <ele>623.611816</ele>
        <time>2018-05-26T16:50:56Z</time>
      </trkpt>
      <trkpt lat="47.86223" lon="6.75332">
        <ele>623.882202</ele>
        <time>2018-05-26T16:50:57Z</time>
      </trkpt>
      <trkpt lat="47.86221" lon="6.7533">
        <ele>624.046204</ele>
        <time>2018-05-26T16:50:58Z</time>
      </trkpt>
      <trkpt lat="47.86218" lon="6.75328">
        <ele>624.25824</ele>
        <time>2018-05-26T16:50:59Z</time>
      </trkpt>
      <trkpt lat="47.86215" lon="6.75325">
        <ele>624.388062</ele>
        <time>2018-05-26T16:51:00Z</time>
      </trkpt>
      <trkpt lat="47.86213" lon="6.75323">
        <ele>624.580139</ele>
        <time>2018-05-26T16:51:01Z</time>
      </trkpt>
      <trkpt lat="47.8621" lon="6.7532">
        <ele>624.697754</ele>
        <time>2018-05-26T16:51:02Z</time>
      </trkpt>
      <trkpt lat="47.86207" lon="6.75318">
        <ele>624.803528</ele>
        <time>2018-05-26T16:51:03Z</time>
      </trkpt>
      <trkpt lat="47.86204" lon="6.75315">
        <ele>624.954102</ele>
        <time>2018-05-26T16:51:04Z</time>
      </trkpt>
      <trkpt lat="47.86202" lon="6.75313">
        <ele>625.055359</ele>
        <time>2018-05-26T16:51:05Z</time>
      </trkpt>
      <trkpt lat="47.862" lon="6.7531">
        <ele>625.209412</ele>
        <time>2018-05-26T16:51:06Z</time>
      </trkpt>
      <trkpt lat="47.86197" lon="6.75307">
        <ele>625.320496</ele>
        <time>2018-05-26T16:51:07Z</time>
      </trkpt>
      <trkpt lat="47.86195" lon="6.75305">
        <ele>625.509338</ele>
        <time>2018-05-26T16:51:08Z</time>
      </trkpt>
      <trkpt lat="47.86193" lon="6.75302">
        <ele>625.648132</ele>
        <time>2018-05-26T16:51:09Z</time>
      </trkpt>
      <trkpt lat="47.86191" lon="6.753">
        <ele>625.79657</ele>
        <time>2018-05-26T16:51:10Z</time>
      </trkpt>
      <trkpt lat="47.86189" lon="6.75297">
        <ele>626.03479</ele>
        <time>2018-05-26T16:51:11Z</time>
      </trkpt>
      <trkpt lat="47.86187" lon="6.75294">
        <ele>626.197998</ele>
        <time>2018-05-26T16:51:12Z</time>
      </trkpt>
      <trkpt lat="47.86186" lon="6.75291">
        <ele>626.435059</ele>
        <time>2018-05-26T16:51:13Z</time>
      </trkpt>
      <trkpt lat="47.86184" lon="6.75288">
        <ele>626.585693</ele>
        <time>2018-05-26T16:51:14Z</time>
      </trkpt>
      <trkpt lat="47.86182" lon="6.75285">
        <ele>626.806274</ele>
        <time>2018-05-26T16:51:15Z</time>
      </trkpt>
      <trkpt lat="47.8618" lon="6.75282">
        <ele>626.950806</ele>
        <time>2018-05-26T16:51:16Z</time>
      </trkpt>
      <trkpt lat="47.86178" lon="6.75279">
        <ele>627.169739</ele>
        <time>2018-05-26T16:51:17Z</time>
      </trkpt>
      <trkpt lat="47.86176" lon="6.75275">
        <ele>627.313904</ele>
        <time>2018-05-26T16:51:18Z</time>
      </trkpt>
      <trkpt lat="47.86174" lon="6.75272">
        <ele>627.532654</ele>
        <time>2018-05-26T16:51:19Z</time>
      </trkpt>
      <trkpt lat="47.86173" lon="6.75269">
        <ele>627.609314</ele>
        <time>2018-05-26T16:51:20Z</time>
      </trkpt>
      <trkpt lat="47.86171" lon="6.75266">
        <ele>627.687561</ele>
        <time>2018-05-26T16:51:21Z</time>
      </trkpt>
      <trkpt lat="47.8617" lon="6.75262">
        <ele>627.929932</ele>
        <time>2018-05-26T16:51:22Z</time>
      </trkpt>
      <trkpt lat="47.86168" lon="6.75259">
        <ele>628.094421</ele>
        <time>2018-05-26T16:51:23Z</time>
      </trkpt>
      <trkpt lat="47.86167" lon="6.75255">
        <ele>628.257446</ele>
        <time>2018-05-26T16:51:24Z</time>
      </trkpt>
      <trkpt lat="47.86165" lon="6.75252">
        <ele>628.499939</ele>
        <time>2018-05-26T16:51:25Z</time>
      </trkpt>
      <trkpt lat="47.86164" lon="6.75248">
        <ele>628.660828</ele>
        <time>2018-05-26T16:51:26Z</time>
      </trkpt>
      <trkpt lat="47.86162" lon="6.75245">
        <ele>628.898865</ele>
        <time>2018-05-26T16:51:27Z</time>
      </trkpt>
      <trkpt lat="47.86161" lon="6.75241">
        <ele>629.048401</ele>
        <time>2018-05-26T16:51:28Z</time>
      </trkpt>
      <trkpt lat="47.8616" lon="6.75237">
        <ele>629.265442</ele>
        <time>2018-05-26T16:51:29Z</time>
      </trkpt>
      <trkpt lat="47.86159" lon="6.75233">
        <ele>629.413025</ele>
        <time>2018-05-26T16:51:30Z</time>
      </trkpt>
      <trkpt lat="47.86157" lon="6.7523">
        <ele>629.561768</ele>
        <time>2018-05-26T16:51:31Z</time>
      </trkpt>
      <trkpt lat="47.86156" lon="6.75226">
        <ele>629.792908</ele>
        <time>2018-05-26T16:51:32Z</time>
      </trkpt>
      <trkpt lat="47.86155" lon="6.75222">
        <ele>629.963806</ele>
        <time>2018-05-26T16:51:33Z</time>
      </trkpt>
      <trkpt lat="47.86154" lon="6.75219">
        <ele>630.235229</ele>
        <time>2018-05-26T16:51:34Z</time>
      </trkpt>
      <trkpt lat="47.86153" lon="6.75216">
        <ele>630.413147</ele>
        <time>2018-05-26T16:51:35Z</time>
      </trkpt>
      <trkpt lat="47.86153" lon="6.75213">
        <ele>630.580139</ele>
        <time>2018-05-26T16:51:36Z</time>
      </trkpt>
      <trkpt lat="47.86153" lon="6.75209">
        <ele>630.803162</ele>
        <time>2018-05-26T16:51:37Z</time>
      </trkpt>
      <trkpt lat="47.86153" lon="6.75204">
        <ele>630.919434</ele>
        <time>2018-05-26T16:51:38Z</time>
      </trkpt>
      <trkpt lat="47.86153" lon="6.75199">
        <ele>630.990723</ele>
        <time>2018-05-26T16:51:39Z</time>
      </trkpt>
      <trkpt lat="47.86153" lon="6.75192">
        <ele>630.990723</ele>
        <time>2018-05-26T16:51:40Z</time>
      </trkpt>
      <trkpt lat="47.86153" lon="6.75186">
        <ele>630.947937</ele>
        <time>2018-05-26T16:51:41Z</time>
      </trkpt>
      <trkpt lat="47.86153" lon="6.75179">
        <ele>630.743896</ele>
        <time>2018-05-26T16:51:42Z</time>
      </trkpt>
      <trkpt lat="47.86153" lon="6.75172">
        <ele>630.517334</ele>
        <time>2018-05-26T16:51:43Z</time>
      </trkpt>
      <trkpt lat="47.86154" lon="6.75167">
        <ele>630.055481</ele>
        <time>2018-05-26T16:51:44Z</time>
      </trkpt>
      <trkpt lat="47.86158" lon="6.75163">
        <ele>629.692566</ele>
        <time>2018-05-26T16:51:45Z</time>
      </trkpt>
      <trkpt lat="47.86162" lon="6.75159">
        <ele>629.312256</ele>
        <time>2018-05-26T16:51:46Z</time>
      </trkpt>
      <trkpt lat="47.86166" lon="6.75155">
        <ele>628.766418</ele>
        <time>2018-05-26T16:51:47Z</time>
      </trkpt>
      <trkpt lat="47.86168" lon="6.7515">
        <ele>628.442383</ele>
        <time>2018-05-26T16:51:48Z</time>
      </trkpt>
      <trkpt lat="47.8617" lon="6.75143">
        <ele>628.019348</ele>
        <time>2018-05-26T16:51:49Z</time>
      </trkpt>
      <trkpt lat="47.86171" lon="6.75136">
        <ele>627.772949</ele>
        <time>2018-05-26T16:51:50Z</time>
      </trkpt>
      <trkpt lat="47.86173" lon="6.75129">
        <ele>627.43573</ele>
        <time>2018-05-26T16:51:51Z</time>
      </trkpt>
      <trkpt lat="47.86174" lon="6.75123">
        <ele>627.217407</ele>
        <time>2018-05-26T16:51:52Z</time>
      </trkpt>
      <trkpt lat="47.86175" lon="6.75117">
        <ele>627.010254</ele>
        <time>2018-05-26T16:51:53Z</time>
      </trkpt>
      <trkpt lat="47.86176" lon="6.75111">
        <ele>626.720764</ele>
        <time>2018-05-26T16:51:54Z</time>
      </trkpt>
      <trkpt lat="47.86176" lon="6.75105">
        <ele>626.546814</ele>
        <time>2018-05-26T16:51:55Z</time>
      </trkpt>
      <trkpt lat="47.86175" lon="6.75098">
        <ele>626.311218</ele>
        <time>2018-05-26T16:51:56Z</time>
      </trkpt>
      <trkpt lat="47.86174" lon="6.7509">
        <ele>626.176025</ele>
        <time>2018-05-26T16:51:57Z</time>
      </trkpt>
      <trkpt lat="47.86173" lon="6.75082">
        <ele>626.005432</ele>
        <time>2018-05-26T16:51:58Z</time>
      </trkpt>
      <trkpt lat="47.86173" lon="6.75074">
        <ele>625.897583</ele>
        <time>2018-05-26T16:51:59Z</time>
      </trkpt>
      <trkpt lat="47.86173" lon="6.75065">
        <ele>625.695618</ele>
        <time>2018-05-26T16:52:00Z</time>
      </trkpt>
      <trkpt lat="47.86174" lon="6.75057">
        <ele>625.518982</ele>
        <time>2018-05-26T16:52:01Z</time>
      </trkpt>
      <trkpt lat="47.86176" lon="6.75049">
        <ele>625.313477</ele>
        <time>2018-05-26T16:52:02Z</time>
      </trkpt>
      <trkpt lat="47.86176" lon="6.7504">
        <ele>624.973267</ele>
        <time>2018-05-26T16:52:03Z</time>
      </trkpt>
      <trkpt lat="47.86176" lon="6.75031">
        <ele>624.728394</ele>
        <time>2018-05-26T16:52:04Z</time>
      </trkpt>
      <trkpt lat="47.86176" lon="6.75022">
        <ele>624.325989</ele>
        <time>2018-05-26T16:52:05Z</time>
      </trkpt>
      <trkpt lat="47.86176" lon="6.75013">
        <ele>624.030518</ele>
        <time>2018-05-26T16:52:06Z</time>
      </trkpt>
      <trkpt lat="47.86176" lon="6.75003">
        <ele>623.539063</ele>
        <time>2018-05-26T16:52:07Z</time>
      </trkpt>
      <trkpt lat="47.86176" lon="6.74992">
        <ele>623.163879</ele>
        <time>2018-05-26T16:52:08Z</time>
      </trkpt>
      <trkpt lat="47.86176" lon="6.74983">
        <ele>622.530334</ele>
        <time>2018-05-26T16:52:09Z</time>
      </trkpt>
      <trkpt lat="47.86176" lon="6.74973">
        <ele>622.072205</ele>
        <time>2018-05-26T16:52:10Z</time>
      </trkpt>
      <trkpt lat="47.86176" lon="6.74965">
        <ele>621.616028</ele>
        <time>2018-05-26T16:52:11Z</time>
      </trkpt>
      <trkpt lat="47.86175" lon="6.74956">
        <ele>620.959778</ele>
        <time>2018-05-26T16:52:12Z</time>
      </trkpt>
      <trkpt lat="47.86174" lon="6.74946">
        <ele>620.520447</ele>
        <time>2018-05-26T16:52:13Z</time>
      </trkpt>
      <trkpt lat="47.86173" lon="6.74936">
        <ele>619.830627</ele>
        <time>2018-05-26T16:52:14Z</time>
      </trkpt>
      <trkpt lat="47.86171" lon="6.74927">
        <ele>619.335693</ele>
        <time>2018-05-26T16:52:15Z</time>
      </trkpt>
      <trkpt lat="47.8617" lon="6.74919">
        <ele>618.552002</ele>
        <time>2018-05-26T16:52:16Z</time>
      </trkpt>
      <trkpt lat="47.8617" lon="6.7491">
        <ele>618.010437</ele>
        <time>2018-05-26T16:52:17Z</time>
      </trkpt>
      <trkpt lat="47.86171" lon="6.74903">
        <ele>617.261902</ele>
        <time>2018-05-26T16:52:18Z</time>
      </trkpt>
      <trkpt lat="47.86174" lon="6.74896">
        <ele>616.843445</ele>
        <time>2018-05-26T16:52:19Z</time>
      </trkpt>
      <trkpt lat="47.86178" lon="6.7489">
        <ele>616.505981</ele>
        <time>2018-05-26T16:52:20Z</time>
      </trkpt>
      <trkpt lat="47.86182" lon="6.74884">
        <ele>616.363708</ele>
        <time>2018-05-26T16:52:21Z</time>
      </trkpt>
      <trkpt lat="47.86187" lon="6.74878">
        <ele>616.119324</ele>
        <time>2018-05-26T16:52:22Z</time>
      </trkpt>
      <trkpt lat="47.86191" lon="6.74872">
        <ele>615.921936</ele>
        <time>2018-05-26T16:52:23Z</time>
      </trkpt>
      <trkpt lat="47.86197" lon="6.74867">
        <ele>615.664978</ele>
        <time>2018-05-26T16:52:24Z</time>
      </trkpt>
      <trkpt lat="47.86203" lon="6.74861">
        <ele>615.482971</ele>
        <time>2018-05-26T16:52:25Z</time>
      </trkpt>
      <trkpt lat="47.86209" lon="6.74857">
        <ele>615.266418</ele>
        <time>2018-05-26T16:52:26Z</time>
      </trkpt>
      <trkpt lat="47.86214" lon="6.74853">
        <ele>614.863831</ele>
        <time>2018-05-26T16:52:27Z</time>
      </trkpt>
      <trkpt lat="47.8622" lon="6.74849">
        <ele>614.542419</ele>
        <time>2018-05-26T16:52:28Z</time>
      </trkpt>
      <trkpt lat="47.86226" lon="6.74847">
        <ele>613.959534</ele>
        <time>2018-05-26T16:52:29Z</time>
      </trkpt>
      <trkpt lat="47.86231" lon="6.74845">
        <ele>613.496765</ele>
        <time>2018-05-26T16:52:30Z</time>
      </trkpt>
      <trkpt lat="47.86237" lon="6.74843">
        <ele>612.71167</ele>
        <time>2018-05-26T16:52:31Z</time>
      </trkpt>
      <trkpt lat="47.86243" lon="6.74843">
        <ele>612.146179</ele>
        <time>2018-05-26T16:52:32Z</time>
      </trkpt>
      <trkpt lat="47.8625" lon="6.74844">
        <ele>611.551331</ele>
        <time>2018-05-26T16:52:33Z</time>
      </trkpt>
      <trkpt lat="47.86256" lon="6.74845">
        <ele>610.585449</ele>
        <time>2018-05-26T16:52:34Z</time>
      </trkpt>
      <trkpt lat="47.86262" lon="6.74848">
        <ele>609.865295</ele>
        <time>2018-05-26T16:52:35Z</time>
      </trkpt>
      <trkpt lat="47.86267" lon="6.74853">
        <ele>608.640686</ele>
        <time>2018-05-26T16:52:36Z</time>
      </trkpt>
      <trkpt lat="47.86271" lon="6.74858">
        <ele>607.738525</ele>
        <time>2018-05-26T16:52:37Z</time>
      </trkpt>
      <trkpt lat="47.86276" lon="6.74862">
        <ele>606.785767</ele>
        <time>2018-05-26T16:52:38Z</time>
      </trkpt>
      <trkpt lat="47.86281" lon="6.74866">
        <ele>605.304749</ele>
        <time>2018-05-26T16:52:39Z</time>
      </trkpt>
      <trkpt lat="47.86287" lon="6.7487">
        <ele>604.320251</ele>
        <time>2018-05-26T16:52:40Z</time>
      </trkpt>
      <trkpt lat="47.86294" lon="6.74873">
        <ele>602.889343</ele>
        <time>2018-05-26T16:52:41Z</time>
      </trkpt>
      <trkpt lat="47.86303" lon="6.74877">
        <ele>601.953369</ele>
        <time>2018-05-26T16:52:42Z</time>
      </trkpt>
      <trkpt lat="47.86312" lon="6.7488">
        <ele>600.531799</ele>
        <time>2018-05-26T16:52:43Z</time>
      </trkpt>
      <trkpt lat="47.86321" lon="6.74884">
        <ele>599.54071</ele>
        <time>2018-05-26T16:52:44Z</time>
      </trkpt>
      <trkpt lat="47.8633" lon="6.7489">
        <ele>598.49884</ele>
        <time>2018-05-26T16:52:45Z</time>
      </trkpt>
      <trkpt lat="47.86339" lon="6.74895">
        <ele>596.813965</ele>
        <time>2018-05-26T16:52:46Z</time>
      </trkpt>
      <trkpt lat="47.86348" lon="6.74901">
        <ele>595.620789</ele>
        <time>2018-05-26T16:52:47Z</time>
      </trkpt>
      <trkpt lat="47.86358" lon="6.74909">
        <ele>593.80542</ele>
        <time>2018-05-26T16:52:48Z</time>
      </trkpt>
      <trkpt lat="47.86366" lon="6.74916">
        <ele>592.632019</ele>
        <time>2018-05-26T16:52:49Z</time>
      </trkpt>
      <trkpt lat="47.86375" lon="6.74924">
        <ele>591.515686</ele>
        <time>2018-05-26T16:52:50Z</time>
      </trkpt>
      <trkpt lat="47.86384" lon="6.74931">
        <ele>589.976746</ele>
        <time>2018-05-26T16:52:51Z</time>
      </trkpt>
      <trkpt lat="47.86392" lon="6.7494">
        <ele>589.036438</ele>
        <time>2018-05-26T16:52:52Z</time>
      </trkpt>
      <trkpt lat="47.86401" lon="6.7495">
        <ele>587.727356</ele>
        <time>2018-05-26T16:52:53Z</time>
      </trkpt>
      <trkpt lat="47.86409" lon="6.74959">
        <ele>586.900146</ele>
        <time>2018-05-26T16:52:54Z</time>
      </trkpt>
      <trkpt lat="47.86416" lon="6.74969">
        <ele>586.09259</ele>
        <time>2018-05-26T16:52:55Z</time>
      </trkpt>
      <trkpt lat="47.86424" lon="6.74977">
        <ele>584.925415</ele>
        <time>2018-05-26T16:52:56Z</time>
      </trkpt>
      <trkpt lat="47.86431" lon="6.74982">
        <ele>584.194763</ele>
        <time>2018-05-26T16:52:57Z</time>
      </trkpt>
      <trkpt lat="47.86438" lon="6.74984">
        <ele>583.180786</ele>
        <time>2018-05-26T16:52:58Z</time>
      </trkpt>
      <trkpt lat="47.86446" lon="6.74987">
        <ele>582.545837</ele>
        <time>2018-05-26T16:52:59Z</time>
      </trkpt>
      <trkpt lat="47.86453" lon="6.74991">
        <ele>581.647766</ele>
        <time>2018-05-26T16:53:00Z</time>
      </trkpt>
      <trkpt lat="47.86459" lon="6.74995">
        <ele>581.07782</ele>
        <time>2018-05-26T16:53:01Z</time>
      </trkpt>
      <trkpt lat="47.86466" lon="6.75">
        <ele>580.525452</ele>
        <time>2018-05-26T16:53:02Z</time>
      </trkpt>
      <trkpt lat="47.86472" lon="6.75003">
        <ele>579.71936</ele>
        <time>2018-05-26T16:53:03Z</time>
      </trkpt>
      <trkpt lat="47.8648" lon="6.75005">
        <ele>579.215332</ele>
        <time>2018-05-26T16:53:04Z</time>
      </trkpt>
      <trkpt lat="47.86487" lon="6.75007">
        <ele>578.527527</ele>
        <time>2018-05-26T16:53:05Z</time>
      </trkpt>
      <trkpt lat="47.86494" lon="6.75007">
        <ele>578.117798</ele>
        <time>2018-05-26T16:53:06Z</time>
      </trkpt>
      <trkpt lat="47.86502" lon="6.75007">
        <ele>577.553772</ele>
        <time>2018-05-26T16:53:07Z</time>
      </trkpt>
      <trkpt lat="47.86509" lon="6.75007">
        <ele>577.210876</ele>
        <time>2018-05-26T16:53:08Z</time>
      </trkpt>
      <trkpt lat="47.86516" lon="6.75006">
        <ele>576.752075</ele>
        <time>2018-05-26T16:53:09Z</time>
      </trkpt>
      <trkpt lat="47.86524" lon="6.75006">
        <ele>576.490601</ele>
        <time>2018-05-26T16:53:10Z</time>
      </trkpt>
      <trkpt lat="47.86532" lon="6.75005">
        <ele>576.259399</ele>
        <time>2018-05-26T16:53:11Z</time>
      </trkpt>
      <trkpt lat="47.8654" lon="6.75005">
        <ele>575.933899</ele>
        <time>2018-05-26T16:53:12Z</time>
      </trkpt>
      <trkpt lat="47.86548" lon="6.75005">
        <ele>575.716187</ele>
        <time>2018-05-26T16:53:13Z</time>
      </trkpt>
      <trkpt lat="47.86556" lon="6.75005">
        <ele>575.379578</ele>
        <time>2018-05-26T16:53:14Z</time>
      </trkpt>
      <trkpt lat="47.86564" lon="6.75004">
        <ele>575.152283</ele>
        <time>2018-05-26T16:53:15Z</time>
      </trkpt>
      <trkpt lat="47.86572" lon="6.75004">
        <ele>574.8172</ele>
        <time>2018-05-26T16:53:16Z</time>
      </trkpt>
      <trkpt lat="47.8658" lon="6.75004">
        <ele>574.612122</ele>
        <time>2018-05-26T16:53:17Z</time>
      </trkpt>
      <trkpt lat="47.86587" lon="6.75004">
        <ele>574.342346</ele>
        <time>2018-05-26T16:53:18Z</time>
      </trkpt>
      <trkpt lat="47.86595" lon="6.75005">
        <ele>574.181458</ele>
        <time>2018-05-26T16:53:19Z</time>
      </trkpt>
      <trkpt lat="47.86602" lon="6.75005">
        <ele>573.936951</ele>
        <time>2018-05-26T16:53:20Z</time>
      </trkpt>
      <trkpt lat="47.8661" lon="6.75007">
        <ele>573.860413</ele>
        <time>2018-05-26T16:53:21Z</time>
      </trkpt>
      <trkpt lat="47.86617" lon="6.75009">
        <ele>573.672913</ele>
        <time>2018-05-26T16:53:22Z</time>
      </trkpt>
      <trkpt lat="47.86624" lon="6.75011">
        <ele>573.569641</ele>
        <time>2018-05-26T16:53:23Z</time>
      </trkpt>
      <trkpt lat="47.86631" lon="6.75014">
        <ele>573.389465</ele>
        <time>2018-05-26T16:53:24Z</time>
      </trkpt>
      <trkpt lat="47.86638" lon="6.75018">
        <ele>573.231018</ele>
        <time>2018-05-26T16:53:25Z</time>
      </trkpt>
      <trkpt lat="47.86644" lon="6.75022">
        <ele>572.934753</ele>
        <time>2018-05-26T16:53:26Z</time>
      </trkpt>
      <trkpt lat="47.8665" lon="6.75026">
        <ele>572.71582</ele>
        <time>2018-05-26T16:53:27Z</time>
      </trkpt>
      <trkpt lat="47.86655" lon="6.7503">
        <ele>572.467102</ele>
        <time>2018-05-26T16:53:28Z</time>
      </trkpt>
      <trkpt lat="47.8666" lon="6.75035">
        <ele>572.025635</ele>
        <time>2018-05-26T16:53:29Z</time>
      </trkpt>
      <trkpt lat="47.86665" lon="6.75041">
        <ele>571.712219</ele>
        <time>2018-05-26T16:53:30Z</time>
      </trkpt>
      <trkpt lat="47.86669" lon="6.75047">
        <ele>571.29248</ele>
        <time>2018-05-26T16:53:31Z</time>
      </trkpt>
      <trkpt lat="47.86673" lon="6.75053">
        <ele>571.064209</ele>
        <time>2018-05-26T16:53:32Z</time>
      </trkpt>
      <trkpt lat="47.86678" lon="6.75059">
        <ele>570.874268</ele>
        <time>2018-05-26T16:53:33Z</time>
      </trkpt>
      <trkpt lat="47.86682" lon="6.75065">
        <ele>570.616028</ele>
        <time>2018-05-26T16:53:34Z</time>
      </trkpt>
      <trkpt lat="47.86686" lon="6.75072">
        <ele>570.437195</ele>
        <time>2018-05-26T16:53:35Z</time>
      </trkpt>
      <trkpt lat="47.86689" lon="6.75079">
        <ele>570.177795</ele>
        <time>2018-05-26T16:53:36Z</time>
      </trkpt>
      <trkpt lat="47.86693" lon="6.75087">
        <ele>570.02002</ele>
        <time>2018-05-26T16:53:37Z</time>
      </trkpt>
      <trkpt lat="47.86696" lon="6.75094">
        <ele>569.797302</ele>
        <time>2018-05-26T16:53:38Z</time>
      </trkpt>
      <trkpt lat="47.867" lon="6.75102">
        <ele>569.644958</ele>
        <time>2018-05-26T16:53:39Z</time>
      </trkpt>
      <trkpt lat="47.86704" lon="6.7511">
        <ele>569.489319</ele>
        <time>2018-05-26T16:53:40Z</time>
      </trkpt>
      <trkpt lat="47.86708" lon="6.75117">
        <ele>569.277222</ele>
        <time>2018-05-26T16:53:41Z</time>
      </trkpt>
      <trkpt lat="47.86712" lon="6.75125">
        <ele>569.146912</ele>
        <time>2018-05-26T16:53:42Z</time>
      </trkpt>
      <trkpt lat="47.86715" lon="6.75132">
        <ele>568.928833</ele>
        <time>2018-05-26T16:53:43Z</time>
      </trkpt>
      <trkpt lat="47.86719" lon="6.7514">
        <ele>568.776489</ele>
        <time>2018-05-26T16:53:44Z</time>
      </trkpt>
      <trkpt lat="47.86722" lon="6.75147">
        <ele>568.564758</ele>
        <time>2018-05-26T16:53:45Z</time>
      </trkpt>
      <trkpt lat="47.86725" lon="6.75154">
        <ele>568.414001</ele>
        <time>2018-05-26T16:53:46Z</time>
      </trkpt>
      <trkpt lat="47.86729" lon="6.75161">
        <ele>568.254456</ele>
        <time>2018-05-26T16:53:47Z</time>
      </trkpt>
      <trkpt lat="47.86733" lon="6.75168">
        <ele>568.031555</ele>
        <time>2018-05-26T16:53:48Z</time>
      </trkpt>
      <trkpt lat="47.86736" lon="6.75175">
        <ele>567.91156</ele>
        <time>2018-05-26T16:53:49Z</time>
      </trkpt>
      <trkpt lat="47.86739" lon="6.75183">
        <ele>567.741028</ele>
        <time>2018-05-26T16:53:50Z</time>
      </trkpt>
      <trkpt lat="47.86743" lon="6.7519">
        <ele>567.610229</ele>
        <time>2018-05-26T16:53:51Z</time>
      </trkpt>
      <trkpt lat="47.86746" lon="6.75198">
        <ele>567.466797</ele>
        <time>2018-05-26T16:53:52Z</time>
      </trkpt>
      <trkpt lat="47.86749" lon="6.75206">
        <ele>567.258972</ele>
        <time>2018-05-26T16:53:53Z</time>
      </trkpt>
      <trkpt lat="47.86753" lon="6.75214">
        <ele>567.116943</ele>
        <time>2018-05-26T16:53:54Z</time>
      </trkpt>
      <trkpt lat="47.86755" lon="6.75221">
        <ele>566.885071</ele>
        <time>2018-05-26T16:53:55Z</time>
      </trkpt>
      <trkpt lat="47.86757" lon="6.7523">
        <ele>566.732727</ele>
        <time>2018-05-26T16:53:56Z</time>
      </trkpt>
      <trkpt lat="47.8676" lon="6.75239">
        <ele>566.542786</ele>
        <time>2018-05-26T16:53:57Z</time>
      </trkpt>
      <trkpt lat="47.86762" lon="6.75248">
        <ele>566.434753</ele>
        <time>2018-05-26T16:53:58Z</time>
      </trkpt>
      <trkpt lat="47.86763" lon="6.75257">
        <ele>566.328552</ele>
        <time>2018-05-26T16:53:59Z</time>
      </trkpt>
      <trkpt lat="47.86765" lon="6.75266">
        <ele>566.161926</ele>
        <time>2018-05-26T16:54:00Z</time>
      </trkpt>
      <trkpt lat="47.86767" lon="6.75275">
        <ele>566.060486</ele>
        <time>2018-05-26T16:54:01Z</time>
      </trkpt>
      <trkpt lat="47.86769" lon="6.75284">
        <ele>565.909607</ele>
        <time>2018-05-26T16:54:02Z</time>
      </trkpt>
      <trkpt lat="47.86771" lon="6.75293">
        <ele>565.777771</ele>
        <time>2018-05-26T16:54:03Z</time>
      </trkpt>
      <trkpt lat="47.86773" lon="6.75302">
        <ele>565.600586</ele>
        <time>2018-05-26T16:54:04Z</time>
      </trkpt>
      <trkpt lat="47.86775" lon="6.75311">
        <ele>565.252502</ele>
        <time>2018-05-26T16:54:05Z</time>
      </trkpt>
      <trkpt lat="47.86778" lon="6.75319">
        <ele>564.977722</ele>
        <time>2018-05-26T16:54:06Z</time>
      </trkpt>
      <trkpt lat="47.86781" lon="6.75327">
        <ele>564.543396</ele>
        <time>2018-05-26T16:54:07Z</time>
      </trkpt>
      <trkpt lat="47.86784" lon="6.75335">
        <ele>564.253357</ele>
        <time>2018-05-26T16:54:08Z</time>
      </trkpt>
      <trkpt lat="47.86787" lon="6.75341">
        <ele>563.842102</ele>
        <time>2018-05-26T16:54:09Z</time>
      </trkpt>
      <trkpt lat="47.86791" lon="6.75348">
        <ele>563.606018</ele>
        <time>2018-05-26T16:54:10Z</time>
      </trkpt>
      <trkpt lat="47.86795" lon="6.75353">
        <ele>563.407898</ele>
        <time>2018-05-26T16:54:11Z</time>
      </trkpt>
      <trkpt lat="47.86799" lon="6.75357">
        <ele>563.193909</ele>
        <time>2018-05-26T16:54:12Z</time>
      </trkpt>
      <trkpt lat="47.86802" lon="6.7536">
        <ele>563.085632</ele>
        <time>2018-05-26T16:54:13Z</time>
      </trkpt>
      <trkpt lat="47.86804" lon="6.7536">
        <ele>562.948486</ele>
        <time>2018-05-26T16:54:14Z</time>
      </trkpt>
      <trkpt lat="47.86807" lon="6.75359">
        <ele>562.895935</ele>
        <time>2018-05-26T16:54:15Z</time>
      </trkpt>
      <trkpt lat="47.86811" lon="6.75357">
        <ele>562.885803</ele>
        <time>2018-05-26T16:54:16Z</time>
      </trkpt>
      <trkpt lat="47.86815" lon="6.75355">
        <ele>562.893494</ele>
        <time>2018-05-26T16:54:17Z</time>
      </trkpt>
      <trkpt lat="47.86819" lon="6.75351">
        <ele>562.919861</ele>
        <time>2018-05-26T16:54:18Z</time>
      </trkpt>
      <trkpt lat="47.86823" lon="6.75347">
        <ele>562.960083</ele>
        <time>2018-05-26T16:54:19Z</time>
      </trkpt>
      <trkpt lat="47.86828" lon="6.75342">
        <ele>562.978577</ele>
        <time>2018-05-26T16:54:20Z</time>
      </trkpt>
      <trkpt lat="47.86832" lon="6.75337">
        <ele>562.979431</ele>
        <time>2018-05-26T16:54:21Z</time>
      </trkpt>
      <trkpt lat="47.86837" lon="6.75333">
        <ele>562.973816</ele>
        <time>2018-05-26T16:54:22Z</time>
      </trkpt>
      <trkpt lat="47.86841" lon="6.75329">
        <ele>562.932678</ele>
        <time>2018-05-26T16:54:23Z</time>
      </trkpt>
      <trkpt lat="47.86845" lon="6.75325">
        <ele>562.920105</ele>
        <time>2018-05-26T16:54:24Z</time>
      </trkpt>
      <trkpt lat="47.86849" lon="6.75323">
        <ele>562.928833</ele>
        <time>2018-05-26T16:54:25Z</time>
      </trkpt>
      <trkpt lat="47.86853" lon="6.7532">
        <ele>562.979065</ele>
        <time>2018-05-26T16:54:26Z</time>
      </trkpt>
      <trkpt lat="47.86857" lon="6.75317">
        <ele>563.144897</ele>
        <time>2018-05-26T16:54:27Z</time>
      </trkpt>
      <trkpt lat="47.8686" lon="6.75314">
        <ele>563.313416</ele>
        <time>2018-05-26T16:54:28Z</time>
      </trkpt>
      <trkpt lat="47.86864" lon="6.75311">
        <ele>563.51239</ele>
        <time>2018-05-26T16:54:29Z</time>
      </trkpt>
      <trkpt lat="47.86866" lon="6.75308">
        <ele>563.832886</ele>
        <time>2018-05-26T16:54:30Z</time>
      </trkpt>
      <trkpt lat="47.86869" lon="6.75305">
        <ele>564.051575</ele>
        <time>2018-05-26T16:54:31Z</time>
      </trkpt>
      <trkpt lat="47.86872" lon="6.75301">
        <ele>564.384338</ele>
        <time>2018-05-26T16:54:32Z</time>
      </trkpt>
      <trkpt lat="47.86874" lon="6.75298">
        <ele>564.609863</ele>
        <time>2018-05-26T16:54:33Z</time>
      </trkpt>
      <trkpt lat="47.86877" lon="6.75294">
        <ele>564.957336</ele>
        <time>2018-05-26T16:54:34Z</time>
      </trkpt>
      <trkpt lat="47.86881" lon="6.75292">
        <ele>565.187988</ele>
        <time>2018-05-26T16:54:35Z</time>
      </trkpt>
      <trkpt lat="47.86884" lon="6.75289">
        <ele>565.41095</ele>
        <time>2018-05-26T16:54:36Z</time>
      </trkpt>
      <trkpt lat="47.86887" lon="6.75288">
        <ele>565.725647</ele>
        <time>2018-05-26T16:54:37Z</time>
      </trkpt>
      <trkpt lat="47.86891" lon="6.75287">
        <ele>565.91571</ele>
        <time>2018-05-26T16:54:38Z</time>
      </trkpt>
      <trkpt lat="47.86896" lon="6.75287">
        <ele>566.166016</ele>
        <time>2018-05-26T16:54:39Z</time>
      </trkpt>
      <trkpt lat="47.869" lon="6.75287">
        <ele>566.314453</ele>
        <time>2018-05-26T16:54:40Z</time>
      </trkpt>
      <trkpt lat="47.86904" lon="6.75287">
        <ele>566.516052</ele>
        <time>2018-05-26T16:54:41Z</time>
      </trkpt>
      <trkpt lat="47.86908" lon="6.75287">
        <ele>566.64032</ele>
        <time>2018-05-26T16:54:42Z</time>
      </trkpt>
      <trkpt lat="47.86913" lon="6.75287">
        <ele>566.827698</ele>
        <time>2018-05-26T16:54:43Z</time>
      </trkpt>
      <trkpt lat="47.86916" lon="6.75287">
        <ele>566.962158</ele>
        <time>2018-05-26T16:54:44Z</time>
      </trkpt>
      <trkpt lat="47.8692" lon="6.75288">
        <ele>567.176086</ele>
        <time>2018-05-26T16:54:45Z</time>
      </trkpt>
      <trkpt lat="47.86924" lon="6.75288">
        <ele>567.327332</ele>
        <time>2018-05-26T16:54:46Z</time>
      </trkpt>
      <trkpt lat="47.86929" lon="6.75288">
        <ele>567.561951</ele>
        <time>2018-05-26T16:54:47Z</time>
      </trkpt>
      <trkpt lat="47.86933" lon="6.75287">
        <ele>567.71051</ele>
        <time>2018-05-26T16:54:48Z</time>
      </trkpt>
      <trkpt lat="47.86937" lon="6.75286">
        <ele>567.843933</ele>
        <time>2018-05-26T16:54:49Z</time>
      </trkpt>
      <trkpt lat="47.8694" lon="6.75284">
        <ele>568.013428</ele>
        <time>2018-05-26T16:54:50Z</time>
      </trkpt>
      <trkpt lat="47.86944" lon="6.75281">
        <ele>568.111755</ele>
        <time>2018-05-26T16:54:51Z</time>
      </trkpt>
      <trkpt lat="47.86947" lon="6.75278">
        <ele>568.249146</ele>
        <time>2018-05-26T16:54:52Z</time>
      </trkpt>
      <trkpt lat="47.8695" lon="6.75275">
        <ele>568.332642</ele>
        <time>2018-05-26T16:54:53Z</time>
      </trkpt>
      <trkpt lat="47.86953" lon="6.75271">
        <ele>568.450623</ele>
        <time>2018-05-26T16:54:54Z</time>
      </trkpt>
      <trkpt lat="47.86956" lon="6.75267">
        <ele>568.529663</ele>
        <time>2018-05-26T16:54:55Z</time>
      </trkpt>
      <trkpt lat="47.86959" lon="6.75264">
        <ele>568.658752</ele>
        <time>2018-05-26T16:54:56Z</time>
      </trkpt>
      <trkpt lat="47.86963" lon="6.75262">
        <ele>568.744141</ele>
        <time>2018-05-26T16:54:57Z</time>
      </trkpt>
      <trkpt lat="47.86966" lon="6.7526">
        <ele>568.81958</ele>
        <time>2018-05-26T16:54:58Z</time>
      </trkpt>
      <trkpt lat="47.8697" lon="6.7526">
        <ele>568.896301</ele>
        <time>2018-05-26T16:54:59Z</time>
      </trkpt>
      <trkpt lat="47.86975" lon="6.7526">
        <ele>568.924011</ele>
        <time>2018-05-26T16:55:00Z</time>
      </trkpt>
      <trkpt lat="47.86979" lon="6.7526">
        <ele>568.929626</ele>
        <time>2018-05-26T16:55:01Z</time>
      </trkpt>
      <trkpt lat="47.86984" lon="6.75262">
        <ele>568.920837</ele>
        <time>2018-05-26T16:55:02Z</time>
      </trkpt>
      <trkpt lat="47.8699" lon="6.75263">
        <ele>568.878967</ele>
        <time>2018-05-26T16:55:03Z</time>
      </trkpt>
      <trkpt lat="47.86995" lon="6.75263">
        <ele>568.756653</ele>
        <time>2018-05-26T16:55:04Z</time>
      </trkpt>
      <trkpt lat="47.87001" lon="6.75263">
        <ele>568.638855</ele>
        <time>2018-05-26T16:55:05Z</time>
      </trkpt>
      <trkpt lat="47.87007" lon="6.75263">
        <ele>568.400146</ele>
        <time>2018-05-26T16:55:06Z</time>
      </trkpt>
      <trkpt lat="47.87014" lon="6.75263">
        <ele>568.204407</ele>
        <time>2018-05-26T16:55:07Z</time>
      </trkpt>
      <trkpt lat="47.8702" lon="6.75264">
        <ele>567.88092</ele>
        <time>2018-05-26T16:55:08Z</time>
      </trkpt>
      <trkpt lat="47.87027" lon="6.75264">
        <ele>567.652832</ele>
        <time>2018-05-26T16:55:09Z</time>
      </trkpt>
      <trkpt lat="47.87033" lon="6.75263">
        <ele>567.418945</ele>
        <time>2018-05-26T16:55:10Z</time>
      </trkpt>
      <trkpt lat="47.8704" lon="6.7526">
        <ele>567.059387</ele>
        <time>2018-05-26T16:55:11Z</time>
      </trkpt>
      <trkpt lat="47.87046" lon="6.75255">
        <ele>566.814758</ele>
        <time>2018-05-26T16:55:12Z</time>
      </trkpt>
      <trkpt lat="47.87053" lon="6.75251">
        <ele>566.431702</ele>
        <time>2018-05-26T16:55:13Z</time>
      </trkpt>
      <trkpt lat="47.8706" lon="6.75246">
        <ele>566.143799</ele>
        <time>2018-05-26T16:55:14Z</time>
      </trkpt>
      <trkpt lat="47.87067" lon="6.75241">
        <ele>565.819153</ele>
        <time>2018-05-26T16:55:15Z</time>
      </trkpt>
      <trkpt lat="47.87076" lon="6.75238">
        <ele>565.269592</ele>
        <time>2018-05-26T16:55:16Z</time>
      </trkpt>
      <trkpt lat="47.87085" lon="6.75237">
        <ele>564.861511</ele>
        <time>2018-05-26T16:55:17Z</time>
      </trkpt>
      <trkpt lat="47.87093" lon="6.75238">
        <ele>564.174377</ele>
        <time>2018-05-26T16:55:18Z</time>
      </trkpt>
      <trkpt lat="47.87103" lon="6.75239">
        <ele>563.682922</ele>
        <time>2018-05-26T16:55:19Z</time>
      </trkpt>
      <trkpt lat="47.87112" lon="6.75239">
        <ele>563.176331</ele>
        <time>2018-05-26T16:55:20Z</time>
      </trkpt>
      <trkpt lat="47.87122" lon="6.75237">
        <ele>562.381653</ele>
        <time>2018-05-26T16:55:21Z</time>
      </trkpt>
      <trkpt lat="47.87132" lon="6.75233">
        <ele>561.818665</ele>
        <time>2018-05-26T16:55:22Z</time>
      </trkpt>
      <trkpt lat="47.87141" lon="6.75228">
        <ele>561.527344</ele>
        <time>2018-05-26T16:55:23Z</time>
      </trkpt>
      <trkpt lat="47.8715" lon="6.75225">
        <ele>561.527344</ele>
        <time>2018-05-26T16:55:24Z</time>
      </trkpt>
      <trkpt lat="47.87159" lon="6.75225">
        <ele>560.628845</ele>
        <time>2018-05-26T16:55:25Z</time>
      </trkpt>
      <trkpt lat="47.87166" lon="6.75229">
        <ele>560.041748</ele>
        <time>2018-05-26T16:55:26Z</time>
      </trkpt>
      <trkpt lat="47.87172" lon="6.75234">
        <ele>559.499634</ele>
        <time>2018-05-26T16:55:27Z</time>
      </trkpt>
      <trkpt lat="47.87178" lon="6.75239">
        <ele>558.82428</ele>
        <time>2018-05-26T16:55:28Z</time>
      </trkpt>
      <trkpt lat="47.87182" lon="6.75244">
        <ele>558.497314</ele>
        <time>2018-05-26T16:55:29Z</time>
      </trkpt>
      <trkpt lat="47.87185" lon="6.75248">
        <ele>558.303284</ele>
        <time>2018-05-26T16:55:30Z</time>
      </trkpt>
      <trkpt lat="47.87189" lon="6.75253">
        <ele>558.303284</ele>
        <time>2018-05-26T16:55:31Z</time>
      </trkpt>
      <trkpt lat="47.87193" lon="6.75258">
        <ele>558.444763</ele>
        <time>2018-05-26T16:55:32Z</time>
      </trkpt>
      <trkpt lat="47.87196" lon="6.75263">
        <ele>558.631042</ele>
        <time>2018-05-26T16:55:33Z</time>
      </trkpt>
      <trkpt lat="47.87199" lon="6.75269">
        <ele>558.917786</ele>
        <time>2018-05-26T16:55:34Z</time>
      </trkpt>
      <trkpt lat="47.87203" lon="6.75275">
        <ele>559.083069</ele>
        <time>2018-05-26T16:55:35Z</time>
      </trkpt>
      <trkpt lat="47.87207" lon="6.75281">
        <ele>559.282288</ele>
        <time>2018-05-26T16:55:36Z</time>
      </trkpt>
      <trkpt lat="47.87211" lon="6.75286">
        <ele>559.381165</ele>
        <time>2018-05-26T16:55:37Z</time>
      </trkpt>
      <trkpt lat="47.87215" lon="6.75291">
        <ele>559.45636</ele>
        <time>2018-05-26T16:55:38Z</time>
      </trkpt>
      <trkpt lat="47.8722" lon="6.75297">
        <ele>559.533997</ele>
        <time>2018-05-26T16:55:39Z</time>
      </trkpt>
      <trkpt lat="47.87224" lon="6.75304">
        <ele>559.575195</ele>
        <time>2018-05-26T16:55:40Z</time>
      </trkpt>
      <trkpt lat="47.87228" lon="6.7531">
        <ele>559.630554</ele>
        <time>2018-05-26T16:55:41Z</time>
      </trkpt>
      <trkpt lat="47.87233" lon="6.75316">
        <ele>559.651306</ele>
        <time>2018-05-26T16:55:42Z</time>
      </trkpt>
      <trkpt lat="47.87237" lon="6.75323">
        <ele>559.652893</ele>
        <time>2018-05-26T16:55:43Z</time>
      </trkpt>
      <trkpt lat="47.87241" lon="6.7533">
        <ele>559.634338</ele>
        <time>2018-05-26T16:55:44Z</time>
      </trkpt>
      <trkpt lat="47.87245" lon="6.75337">
        <ele>559.552124</ele>
        <time>2018-05-26T16:55:45Z</time>
      </trkpt>
      <trkpt lat="47.87248" lon="6.75345">
        <ele>559.464966</ele>
        <time>2018-05-26T16:55:46Z</time>
      </trkpt>
      <trkpt lat="47.87251" lon="6.75353">
        <ele>559.292847</ele>
        <time>2018-05-26T16:55:47Z</time>
      </trkpt>
      <trkpt lat="47.87254" lon="6.75361">
        <ele>559.163574</ele>
        <time>2018-05-26T16:55:48Z</time>
      </trkpt>
      <trkpt lat="47.87257" lon="6.75369">
        <ele>559.032166</ele>
        <time>2018-05-26T16:55:49Z</time>
      </trkpt>
      <trkpt lat="47.8726" lon="6.75377">
        <ele>558.852539</ele>
        <time>2018-05-26T16:55:50Z</time>
      </trkpt>
      <trkpt lat="47.87263" lon="6.75385">
        <ele>558.747375</ele>
        <time>2018-05-26T16:55:51Z</time>
      </trkpt>
      <trkpt lat="47.87266" lon="6.75393">
        <ele>558.604553</ele>
        <time>2018-05-26T16:55:52Z</time>
      </trkpt>
      <trkpt lat="47.87269" lon="6.754">
        <ele>558.509583</ele>
        <time>2018-05-26T16:55:53Z</time>
      </trkpt>
      <trkpt lat="47.87272" lon="6.75408">
        <ele>558.354675</ele>
        <time>2018-05-26T16:55:54Z</time>
      </trkpt>
      <trkpt lat="47.87277" lon="6.75415">
        <ele>558.239929</ele>
        <time>2018-05-26T16:55:55Z</time>
      </trkpt>
      <trkpt lat="47.87282" lon="6.75421">
        <ele>558.109619</ele>
        <time>2018-05-26T16:55:56Z</time>
      </trkpt>
      <trkpt lat="47.87288" lon="6.75426">
        <ele>557.883301</ele>
        <time>2018-05-26T16:55:57Z</time>
      </trkpt>
      <trkpt lat="47.87294" lon="6.75429">
        <ele>557.71344</ele>
        <time>2018-05-26T16:55:58Z</time>
      </trkpt>
      <trkpt lat="47.87301" lon="6.75432">
        <ele>557.437317</ele>
        <time>2018-05-26T16:55:59Z</time>
      </trkpt>
      <trkpt lat="47.87307" lon="6.75436">
        <ele>557.240234</ele>
        <time>2018-05-26T16:56:00Z</time>
      </trkpt>
      <trkpt lat="47.87313" lon="6.7544">
        <ele>557.038147</ele>
        <time>2018-05-26T16:56:01Z</time>
      </trkpt>
      <trkpt lat="47.87319" lon="6.75444">
        <ele>556.738403</ele>
        <time>2018-05-26T16:56:02Z</time>
      </trkpt>
      <trkpt lat="47.87325" lon="6.75448">
        <ele>556.562744</ele>
        <time>2018-05-26T16:56:03Z</time>
      </trkpt>
      <trkpt lat="47.87331" lon="6.7545">
        <ele>556.343201</ele>
        <time>2018-05-26T16:56:04Z</time>
      </trkpt>
      <trkpt lat="47.87337" lon="6.75453">
        <ele>556.214722</ele>
        <time>2018-05-26T16:56:05Z</time>
      </trkpt>
      <trkpt lat="47.87343" lon="6.75457">
        <ele>556.044128</ele>
        <time>2018-05-26T16:56:06Z</time>
      </trkpt>
      <trkpt lat="47.87349" lon="6.7546">
        <ele>555.948975</ele>
        <time>2018-05-26T16:56:07Z</time>
      </trkpt>
      <trkpt lat="47.87355" lon="6.75463">
        <ele>555.862915</ele>
        <time>2018-05-26T16:56:08Z</time>
      </trkpt>
      <trkpt lat="47.87361" lon="6.75466">
        <ele>555.729675</ele>
        <time>2018-05-26T16:56:09Z</time>
      </trkpt>
      <trkpt lat="47.87367" lon="6.75468">
        <ele>555.629944</ele>
        <time>2018-05-26T16:56:10Z</time>
      </trkpt>
      <trkpt lat="47.87374" lon="6.75471">
        <ele>555.469971</ele>
        <time>2018-05-26T16:56:11Z</time>
      </trkpt>
      <trkpt lat="47.87381" lon="6.75474">
        <ele>555.355225</ele>
        <time>2018-05-26T16:56:12Z</time>
      </trkpt>
      <trkpt lat="47.87388" lon="6.75476">
        <ele>555.225464</ele>
        <time>2018-05-26T16:56:13Z</time>
      </trkpt>
      <trkpt lat="47.87395" lon="6.7548">
        <ele>554.986633</ele>
        <time>2018-05-26T16:56:14Z</time>
      </trkpt>
      <trkpt lat="47.87402" lon="6.75483">
        <ele>554.800781</ele>
        <time>2018-05-26T16:56:15Z</time>
      </trkpt>
      <trkpt lat="47.8741" lon="6.75486">
        <ele>554.474915</ele>
        <time>2018-05-26T16:56:16Z</time>
      </trkpt>
      <trkpt lat="47.87417" lon="6.75489">
        <ele>554.218506</ele>
        <time>2018-05-26T16:56:17Z</time>
      </trkpt>
      <trkpt lat="47.87424" lon="6.75492">
        <ele>553.783752</ele>
        <time>2018-05-26T16:56:18Z</time>
      </trkpt>
      <trkpt lat="47.8743" lon="6.75496">
        <ele>553.487854</ele>
        <time>2018-05-26T16:56:19Z</time>
      </trkpt>
      <trkpt lat="47.87436" lon="6.75499">
        <ele>553.207458</ele>
        <time>2018-05-26T16:56:20Z</time>
      </trkpt>
      <trkpt lat="47.87443" lon="6.75503">
        <ele>552.809387</ele>
        <time>2018-05-26T16:56:21Z</time>
      </trkpt>
      <trkpt lat="47.8745" lon="6.75503">
        <ele>552.543579</ele>
        <time>2018-05-26T16:56:22Z</time>
      </trkpt>
      <trkpt lat="47.87458" lon="6.755">
        <ele>552.137451</ele>
        <time>2018-05-26T16:56:23Z</time>
      </trkpt>
      <trkpt lat="47.87465" lon="6.75495">
        <ele>551.855835</ele>
        <time>2018-05-26T16:56:24Z</time>
      </trkpt>
      <trkpt lat="47.87473" lon="6.75489">
        <ele>551.546448</ele>
        <time>2018-05-26T16:56:25Z</time>
      </trkpt>
      <trkpt lat="47.87481" lon="6.75483">
        <ele>551.18927</ele>
        <time>2018-05-26T16:56:26Z</time>
      </trkpt>
      <trkpt lat="47.8749" lon="6.75477">
        <ele>550.549744</ele>
        <time>2018-05-26T16:56:27Z</time>
      </trkpt>
      <trkpt lat="47.87499" lon="6.75471">
        <ele>550.055481</ele>
        <time>2018-05-26T16:56:28Z</time>
      </trkpt>
      <trkpt lat="47.87507" lon="6.75466">
        <ele>549.211609</ele>
        <time>2018-05-26T16:56:29Z</time>
      </trkpt>
      <trkpt lat="47.87516" lon="6.75467">
        <ele>548.589355</ele>
        <time>2018-05-26T16:56:30Z</time>
      </trkpt>
      <trkpt lat="47.87524" lon="6.75469">
        <ele>547.937317</ele>
        <time>2018-05-26T16:56:31Z</time>
      </trkpt>
      <trkpt lat="47.87533" lon="6.75472">
        <ele>546.942871</ele>
        <time>2018-05-26T16:56:32Z</time>
      </trkpt>
      <trkpt lat="47.87542" lon="6.75474">
        <ele>546.286743</ele>
        <time>2018-05-26T16:56:33Z</time>
      </trkpt>
      <trkpt lat="47.87551" lon="6.75473">
        <ele>545.344666</ele>
        <time>2018-05-26T16:56:34Z</time>
      </trkpt>
      <trkpt lat="47.87561" lon="6.75472">
        <ele>544.752869</ele>
        <time>2018-05-26T16:56:35Z</time>
      </trkpt>
      <trkpt lat="47.8757" lon="6.7547">
        <ele>543.91095</ele>
        <time>2018-05-26T16:56:36Z</time>
      </trkpt>
      <trkpt lat="47.87579" lon="6.75468">
        <ele>543.359192</ele>
        <time>2018-05-26T16:56:37Z</time>
      </trkpt>
      <trkpt lat="47.87589" lon="6.75466">
        <ele>542.539246</ele>
        <time>2018-05-26T16:56:38Z</time>
      </trkpt>
      <trkpt lat="47.87598" lon="6.75464">
        <ele>541.998108</ele>
        <time>2018-05-26T16:56:39Z</time>
      </trkpt>
      <trkpt lat="47.87606" lon="6.75463">
        <ele>541.462463</ele>
        <time>2018-05-26T16:56:40Z</time>
      </trkpt>
      <trkpt lat="47.87614" lon="6.75462">
        <ele>540.686096</ele>
        <time>2018-05-26T16:56:41Z</time>
      </trkpt>
      <trkpt lat="47.87623" lon="6.75461">
        <ele>540.199402</ele>
        <time>2018-05-26T16:56:42Z</time>
      </trkpt>
      <trkpt lat="47.87631" lon="6.75458">
        <ele>539.514221</ele>
        <time>2018-05-26T16:56:43Z</time>
      </trkpt>
      <trkpt lat="47.87638" lon="6.75453">
        <ele>539.084534</ele>
        <time>2018-05-26T16:56:44Z</time>
      </trkpt>
      <trkpt lat="47.87645" lon="6.75448">
        <ele>538.665894</ele>
        <time>2018-05-26T16:56:45Z</time>
      </trkpt>
      <trkpt lat="47.87652" lon="6.75445">
        <ele>538.067383</ele>
        <time>2018-05-26T16:56:46Z</time>
      </trkpt>
      <trkpt lat="47.8766" lon="6.75443">
        <ele>537.682129</ele>
        <time>2018-05-26T16:56:47Z</time>
      </trkpt>
      <trkpt lat="47.87666" lon="6.75442">
        <ele>537.14093</ele>
        <time>2018-05-26T16:56:48Z</time>
      </trkpt>
      <trkpt lat="47.87673" lon="6.75441">
        <ele>536.811707</ele>
        <time>2018-05-26T16:56:49Z</time>
      </trkpt>
      <trkpt lat="47.8768" lon="6.7544">
        <ele>536.37677</ele>
        <time>2018-05-26T16:56:50Z</time>
      </trkpt>
      <trkpt lat="47.87686" lon="6.75439">
        <ele>536.122192</ele>
        <time>2018-05-26T16:56:51Z</time>
      </trkpt>
      <trkpt lat="47.87693" lon="6.75438">
        <ele>535.885254</ele>
        <time>2018-05-26T16:56:52Z</time>
      </trkpt>
      <trkpt lat="47.877" lon="6.75435">
        <ele>535.519592</ele>
        <time>2018-05-26T16:56:53Z</time>
      </trkpt>
      <trkpt lat="47.87707" lon="6.75432">
        <ele>535.250183</ele>
        <time>2018-05-26T16:56:54Z</time>
      </trkpt>
      <trkpt lat="47.87714" lon="6.75429">
        <ele>534.785339</ele>
        <time>2018-05-26T16:56:55Z</time>
      </trkpt>
      <trkpt lat="47.87721" lon="6.75425">
        <ele>534.43042</ele>
        <time>2018-05-26T16:56:56Z</time>
      </trkpt>
      <trkpt lat="47.87727" lon="6.75421">
        <ele>534.048096</ele>
        <time>2018-05-26T16:56:57Z</time>
      </trkpt>
      <trkpt lat="47.87734" lon="6.75417">
        <ele>533.49176</ele>
        <time>2018-05-26T16:56:58Z</time>
      </trkpt>
      <trkpt lat="47.8774" lon="6.75413">
        <ele>533.16571</ele>
        <time>2018-05-26T16:56:59Z</time>
      </trkpt>
      <trkpt lat="47.87746" lon="6.75408">
        <ele>532.731445</ele>
        <time>2018-05-26T16:57:00Z</time>
      </trkpt>
      <trkpt lat="47.87753" lon="6.75403">
        <ele>532.457581</ele>
        <time>2018-05-26T16:57:01Z</time>
      </trkpt>
      <trkpt lat="47.87759" lon="6.75398">
        <ele>532.064209</ele>
        <time>2018-05-26T16:57:02Z</time>
      </trkpt>
      <trkpt lat="47.87764" lon="6.75393">
        <ele>531.804016</ele>
        <time>2018-05-26T16:57:03Z</time>
      </trkpt>
      <trkpt lat="47.87771" lon="6.75387">
        <ele>531.537659</ele>
        <time>2018-05-26T16:57:04Z</time>
      </trkpt>
      <trkpt lat="47.87776" lon="6.75381">
        <ele>531.121399</ele>
        <time>2018-05-26T16:57:05Z</time>
      </trkpt>
      <trkpt lat="47.87781" lon="6.75374">
        <ele>530.836853</ele>
        <time>2018-05-26T16:57:06Z</time>
      </trkpt>
      <trkpt lat="47.87786" lon="6.75367">
        <ele>530.424988</ele>
        <time>2018-05-26T16:57:07Z</time>
      </trkpt>
      <trkpt lat="47.87791" lon="6.7536">
        <ele>530.151917</ele>
        <time>2018-05-26T16:57:08Z</time>
      </trkpt>
      <trkpt lat="47.87797" lon="6.75354">
        <ele>529.876221</ele>
        <time>2018-05-26T16:57:09Z</time>
      </trkpt>
      <trkpt lat="47.87803" lon="6.75349">
        <ele>529.458008</ele>
        <time>2018-05-26T16:57:10Z</time>
      </trkpt>
      <trkpt lat="47.8781" lon="6.75345">
        <ele>529.160767</ele>
        <time>2018-05-26T16:57:11Z</time>
      </trkpt>
      <trkpt lat="47.87817" lon="6.75341">
        <ele>528.650574</ele>
        <time>2018-05-26T16:57:12Z</time>
      </trkpt>
      <trkpt lat="47.87823" lon="6.75334">
        <ele>528.276306</ele>
        <time>2018-05-26T16:57:13Z</time>
      </trkpt>
      <trkpt lat="47.8783" lon="6.75327">
        <ele>527.687988</ele>
        <time>2018-05-26T16:57:14Z</time>
      </trkpt>
      <trkpt lat="47.87836" lon="6.7532">
        <ele>527.300598</ele>
        <time>2018-05-26T16:57:15Z</time>
      </trkpt>
      <trkpt lat="47.87842" lon="6.75312">
        <ele>526.930847</ele>
        <time>2018-05-26T16:57:16Z</time>
      </trkpt>
      <trkpt lat="47.87848" lon="6.75304">
        <ele>526.419373</ele>
        <time>2018-05-26T16:57:17Z</time>
      </trkpt>
      <trkpt lat="47.87854" lon="6.75297">
        <ele>526.111206</ele>
        <time>2018-05-26T16:57:18Z</time>
      </trkpt>
      <trkpt lat="47.87861" lon="6.75291">
        <ele>525.702332</ele>
        <time>2018-05-26T16:57:19Z</time>
      </trkpt>
      <trkpt lat="47.87867" lon="6.75284">
        <ele>525.448303</ele>
        <time>2018-05-26T16:57:20Z</time>
      </trkpt>
      <trkpt lat="47.87873" lon="6.75278">
        <ele>525.071289</ele>
        <time>2018-05-26T16:57:21Z</time>
      </trkpt>
      <trkpt lat="47.8788" lon="6.75272">
        <ele>524.837219</ele>
        <time>2018-05-26T16:57:22Z</time>
      </trkpt>
      <trkpt lat="47.87885" lon="6.75265">
        <ele>524.539001</ele>
        <time>2018-05-26T16:57:23Z</time>
      </trkpt>
      <trkpt lat="47.87891" lon="6.75257">
        <ele>524.35022</ele>
        <time>2018-05-26T16:57:24Z</time>
      </trkpt>
      <trkpt lat="47.87897" lon="6.75249">
        <ele>524.140198</ele>
        <time>2018-05-26T16:57:25Z</time>
      </trkpt>
      <trkpt lat="47.87902" lon="6.75241">
        <ele>523.904968</ele>
        <time>2018-05-26T16:57:26Z</time>
      </trkpt>
      <trkpt lat="47.87907" lon="6.75233">
        <ele>523.53949</ele>
        <time>2018-05-26T16:57:27Z</time>
      </trkpt>
      <trkpt lat="47.87912" lon="6.75224">
        <ele>523.293518</ele>
        <time>2018-05-26T16:57:28Z</time>
      </trkpt>
      <trkpt lat="47.87918" lon="6.75216">
        <ele>522.92511</ele>
        <time>2018-05-26T16:57:29Z</time>
      </trkpt>
      <trkpt lat="47.87923" lon="6.75208">
        <ele>522.690125</ele>
        <time>2018-05-26T16:57:30Z</time>
      </trkpt>
      <trkpt lat="47.87928" lon="6.752">
        <ele>522.384094</ele>
        <time>2018-05-26T16:57:31Z</time>
      </trkpt>
      <trkpt lat="47.87933" lon="6.75193">
        <ele>522.215271</ele>
        <time>2018-05-26T16:57:32Z</time>
      </trkpt>
      <trkpt lat="47.87938" lon="6.75185">
        <ele>522.063782</ele>
        <time>2018-05-26T16:57:33Z</time>
      </trkpt>
      <trkpt lat="47.87944" lon="6.75178">
        <ele>521.852783</ele>
        <time>2018-05-26T16:57:34Z</time>
      </trkpt>
      <trkpt lat="47.87949" lon="6.75171">
        <ele>521.723633</ele>
        <time>2018-05-26T16:57:35Z</time>
      </trkpt>
      <trkpt lat="47.87954" lon="6.75164">
        <ele>521.552246</ele>
        <time>2018-05-26T16:57:36Z</time>
      </trkpt>
      <trkpt lat="47.8796" lon="6.75159">
        <ele>521.453369</ele>
        <time>2018-05-26T16:57:37Z</time>
      </trkpt>
      <trkpt lat="47.87966" lon="6.75154">
        <ele>521.330627</ele>
        <time>2018-05-26T16:57:38Z</time>
      </trkpt>
      <trkpt lat="47.87972" lon="6.7515">
        <ele>521.262634</ele>
        <time>2018-05-26T16:57:39Z</time>
      </trkpt>
      <trkpt lat="47.87979" lon="6.75146">
        <ele>521.202026</ele>
        <time>2018-05-26T16:57:40Z</time>
      </trkpt>
      <trkpt lat="47.87986" lon="6.75142">
        <ele>521.114258</ele>
        <time>2018-05-26T16:57:41Z</time>
      </trkpt>
      <trkpt lat="47.87993" lon="6.75138">
        <ele>521.040955</ele>
        <time>2018-05-26T16:57:42Z</time>
      </trkpt>
      <trkpt lat="47.88" lon="6.75134">
        <ele>520.877136</ele>
        <time>2018-05-26T16:57:43Z</time>
      </trkpt>
      <trkpt lat="47.88007" lon="6.7513">
        <ele>520.71759</ele>
        <time>2018-05-26T16:57:44Z</time>
      </trkpt>
      <trkpt lat="47.88013" lon="6.75125">
        <ele>520.393799</ele>
        <time>2018-05-26T16:57:45Z</time>
      </trkpt>
      <trkpt lat="47.88019" lon="6.75119">
        <ele>520.140869</ele>
        <time>2018-05-26T16:57:46Z</time>
      </trkpt>
      <trkpt lat="47.88025" lon="6.75111">
        <ele>519.74176</ele>
        <time>2018-05-26T16:57:47Z</time>
      </trkpt>
      <trkpt lat="47.8803" lon="6.75103">
        <ele>519.479736</ele>
        <time>2018-05-26T16:57:48Z</time>
      </trkpt>
      <trkpt lat="47.88035" lon="6.75095">
        <ele>519.104187</ele>
        <time>2018-05-26T16:57:49Z</time>
      </trkpt>
      <trkpt lat="47.8804" lon="6.75089">
        <ele>518.857483</ele>
        <time>2018-05-26T16:57:50Z</time>
      </trkpt>
      <trkpt lat="47.88046" lon="6.75084">
        <ele>518.591064</ele>
        <time>2018-05-26T16:57:51Z</time>
      </trkpt>
      <trkpt lat="47.8805" lon="6.75079">
        <ele>518.128662</ele>
        <time>2018-05-26T16:57:52Z</time>
      </trkpt>
      <trkpt lat="47.88054" lon="6.75073">
        <ele>517.789795</ele>
        <time>2018-05-26T16:57:53Z</time>
      </trkpt>
      <trkpt lat="47.88057" lon="6.75066">
        <ele>517.438965</ele>
        <time>2018-05-26T16:57:54Z</time>
      </trkpt>
      <trkpt lat="47.8806" lon="6.75058">
        <ele>516.920593</ele>
        <time>2018-05-26T16:57:55Z</time>
      </trkpt>
      <trkpt lat="47.88063" lon="6.75049">
        <ele>516.603943</ele>
        <time>2018-05-26T16:57:56Z</time>
      </trkpt>
      <trkpt lat="47.88066" lon="6.7504">
        <ele>516.205933</ele>
        <time>2018-05-26T16:57:57Z</time>
      </trkpt>
      <trkpt lat="47.88069" lon="6.75032">
        <ele>515.990723</ele>
        <time>2018-05-26T16:57:58Z</time>
      </trkpt>
      <trkpt lat="47.88072" lon="6.75023">
        <ele>515.804993</ele>
        <time>2018-05-26T16:57:59Z</time>
      </trkpt>
      <trkpt lat="47.88075" lon="6.75015">
        <ele>515.569519</ele>
        <time>2018-05-26T16:58:00Z</time>
      </trkpt>
      <trkpt lat="47.88079" lon="6.75007">
        <ele>515.434631</ele>
        <time>2018-05-26T16:58:01Z</time>
      </trkpt>
      <trkpt lat="47.88083" lon="6.74999">
        <ele>515.264282</ele>
        <time>2018-05-26T16:58:02Z</time>
      </trkpt>
      <trkpt lat="47.88086" lon="6.74991">
        <ele>515.167542</ele>
        <time>2018-05-26T16:58:03Z</time>
      </trkpt>
      <trkpt lat="47.8809" lon="6.74983">
        <ele>515.085327</ele>
        <time>2018-05-26T16:58:04Z</time>
      </trkpt>
      <trkpt lat="47.88094" lon="6.74975">
        <ele>514.975708</ele>
        <time>2018-05-26T16:58:05Z</time>
      </trkpt>
      <trkpt lat="47.88097" lon="6.74967">
        <ele>514.911682</ele>
        <time>2018-05-26T16:58:06Z</time>
      </trkpt>
      <trkpt lat="47.88101" lon="6.74959">
        <ele>514.840149</ele>
        <time>2018-05-26T16:58:07Z</time>
      </trkpt>
      <trkpt lat="47.88104" lon="6.74951">
        <ele>514.813049</ele>
        <time>2018-05-26T16:58:08Z</time>
      </trkpt>
      <trkpt lat="47.88108" lon="6.74943">
        <ele>514.791382</ele>
        <time>2018-05-26T16:58:09Z</time>
      </trkpt>
      <trkpt lat="47.88112" lon="6.74935">
        <ele>514.776794</ele>
        <time>2018-05-26T16:58:10Z</time>
      </trkpt>
      <trkpt lat="47.88116" lon="6.74928">
        <ele>514.761047</ele>
        <time>2018-05-26T16:58:11Z</time>
      </trkpt>
      <trkpt lat="47.8812" lon="6.7492">
        <ele>514.732178</ele>
        <time>2018-05-26T16:58:12Z</time>
      </trkpt>
      <trkpt lat="47.88124" lon="6.74913">
        <ele>514.709351</ele>
        <time>2018-05-26T16:58:13Z</time>
      </trkpt>
      <trkpt lat="47.88129" lon="6.74906">
        <ele>514.665833</ele>
        <time>2018-05-26T16:58:14Z</time>
      </trkpt>
      <trkpt lat="47.88134" lon="6.749">
        <ele>514.630188</ele>
        <time>2018-05-26T16:58:15Z</time>
      </trkpt>
      <trkpt lat="47.88139" lon="6.74894">
        <ele>514.587952</ele>
        <time>2018-05-26T16:58:16Z</time>
      </trkpt>
      <trkpt lat="47.88145" lon="6.74889">
        <ele>514.526306</ele>
        <time>2018-05-26T16:58:17Z</time>
      </trkpt>
      <trkpt lat="47.8815" lon="6.74884">
        <ele>514.491028</ele>
        <time>2018-05-26T16:58:18Z</time>
      </trkpt>
      <trkpt lat="47.88156" lon="6.74878">
        <ele>514.456299</ele>
        <time>2018-05-26T16:58:19Z</time>
      </trkpt>
      <trkpt lat="47.88162" lon="6.74873">
        <ele>514.443176</ele>
        <time>2018-05-26T16:58:20Z</time>
      </trkpt>
      <trkpt lat="47.88167" lon="6.74868">
        <ele>514.426941</ele>
        <time>2018-05-26T16:58:21Z</time>
      </trkpt>
      <trkpt lat="47.88173" lon="6.74862">
        <ele>514.412842</ele>
        <time>2018-05-26T16:58:22Z</time>
      </trkpt>
      <trkpt lat="47.88178" lon="6.74857">
        <ele>514.380798</ele>
        <time>2018-05-26T16:58:23Z</time>
      </trkpt>
      <trkpt lat="47.88189" lon="6.74847">
        <ele>514.364929</ele>
        <time>2018-05-26T16:58:25Z</time>
      </trkpt>
      <trkpt lat="47.88195" lon="6.74841">
        <ele>514.347961</ele>
        <time>2018-05-26T16:58:26Z</time>
      </trkpt>
      <trkpt lat="47.882" lon="6.74836">
        <ele>514.285339</ele>
        <time>2018-05-26T16:58:27Z</time>
      </trkpt>
      <trkpt lat="47.88205" lon="6.74831">
        <ele>514.232178</ele>
        <time>2018-05-26T16:58:28Z</time>
      </trkpt>
      <trkpt lat="47.88211" lon="6.74825">
        <ele>514.16449</ele>
        <time>2018-05-26T16:58:29Z</time>
      </trkpt>
      <trkpt lat="47.88216" lon="6.74819">
        <ele>514.061707</ele>
        <time>2018-05-26T16:58:30Z</time>
      </trkpt>
      <trkpt lat="47.88221" lon="6.74812">
        <ele>514.008057</ele>
        <time>2018-05-26T16:58:31Z</time>
      </trkpt>
      <trkpt lat="47.88224" lon="6.74805">
        <ele>513.950195</ele>
        <time>2018-05-26T16:58:32Z</time>
      </trkpt>
      <trkpt lat="47.88229" lon="6.74798">
        <ele>513.914001</ele>
        <time>2018-05-26T16:58:33Z</time>
      </trkpt>
      <trkpt lat="47.88232" lon="6.7479">
        <ele>513.879395</ele>
        <time>2018-05-26T16:58:34Z</time>
      </trkpt>
      <trkpt lat="47.88236" lon="6.74783">
        <ele>513.831604</ele>
        <time>2018-05-26T16:58:35Z</time>
      </trkpt>
      <trkpt lat="47.88238" lon="6.74774">
        <ele>513.810181</ele>
        <time>2018-05-26T16:58:36Z</time>
      </trkpt>
      <trkpt lat="47.88241" lon="6.74766">
        <ele>513.801514</ele>
        <time>2018-05-26T16:58:37Z</time>
      </trkpt>
      <trkpt lat="47.88244" lon="6.74757">
        <ele>513.804016</ele>
        <time>2018-05-26T16:58:38Z</time>
      </trkpt>
      <trkpt lat="47.88246" lon="6.74749">
        <ele>513.838623</ele>
        <time>2018-05-26T16:58:39Z</time>
      </trkpt>
      <trkpt lat="47.88248" lon="6.7474">
        <ele>513.877991</ele>
        <time>2018-05-26T16:58:40Z</time>
      </trkpt>
      <trkpt lat="47.88251" lon="6.74732">
        <ele>513.921265</ele>
        <time>2018-05-26T16:58:41Z</time>
      </trkpt>
      <trkpt lat="47.88253" lon="6.74723">
        <ele>513.979553</ele>
        <time>2018-05-26T16:58:42Z</time>
      </trkpt>
      <trkpt lat="47.88256" lon="6.74714">
        <ele>514.006226</ele>
        <time>2018-05-26T16:58:43Z</time>
      </trkpt>
      <trkpt lat="47.88258" lon="6.74704">
        <ele>514.014404</ele>
        <time>2018-05-26T16:58:44Z</time>
      </trkpt>
      <trkpt lat="47.88261" lon="6.74695">
        <ele>514.011475</ele>
        <time>2018-05-26T16:58:45Z</time>
      </trkpt>
      <trkpt lat="47.88263" lon="6.74686">
        <ele>513.994751</ele>
        <time>2018-05-26T16:58:46Z</time>
      </trkpt>
      <trkpt lat="47.88266" lon="6.74677">
        <ele>513.96344</ele>
        <time>2018-05-26T16:58:47Z</time>
      </trkpt>
      <trkpt lat="47.88268" lon="6.74668">
        <ele>513.94397</ele>
        <time>2018-05-26T16:58:48Z</time>
      </trkpt>
      <trkpt lat="47.88271" lon="6.74659">
        <ele>513.911743</ele>
        <time>2018-05-26T16:58:49Z</time>
      </trkpt>
      <trkpt lat="47.88273" lon="6.7465">
        <ele>513.894897</ele>
        <time>2018-05-26T16:58:50Z</time>
      </trkpt>
      <trkpt lat="47.88276" lon="6.74641">
        <ele>513.876465</ele>
        <time>2018-05-26T16:58:51Z</time>
      </trkpt>
      <trkpt lat="47.88278" lon="6.74632">
        <ele>513.834412</ele>
        <time>2018-05-26T16:58:52Z</time>
      </trkpt>
      <trkpt lat="47.88281" lon="6.74623">
        <ele>513.785828</ele>
        <time>2018-05-26T16:58:53Z</time>
      </trkpt>
      <trkpt lat="47.88285" lon="6.74614">
        <ele>513.694397</ele>
        <time>2018-05-26T16:58:54Z</time>
      </trkpt>
      <trkpt lat="47.88289" lon="6.74606">
        <ele>513.631531</ele>
        <time>2018-05-26T16:58:55Z</time>
      </trkpt>
      <trkpt lat="47.88293" lon="6.74598">
        <ele>513.538086</ele>
        <time>2018-05-26T16:58:56Z</time>
      </trkpt>
      <trkpt lat="47.88298" lon="6.74591">
        <ele>513.463074</ele>
        <time>2018-05-26T16:58:57Z</time>
      </trkpt>
      <trkpt lat="47.88303" lon="6.74584">
        <ele>513.340637</ele>
        <time>2018-05-26T16:58:58Z</time>
      </trkpt>
      <trkpt lat="47.88309" lon="6.74578">
        <ele>513.264038</ele>
        <time>2018-05-26T16:58:59Z</time>
      </trkpt>
      <trkpt lat="47.88314" lon="6.74571">
        <ele>513.150818</ele>
        <time>2018-05-26T16:59:00Z</time>
      </trkpt>
      <trkpt lat="47.8832" lon="6.74565">
        <ele>513.062866</ele>
        <time>2018-05-26T16:59:01Z</time>
      </trkpt>
      <trkpt lat="47.88327" lon="6.7456">
        <ele>512.959412</ele>
        <time>2018-05-26T16:59:02Z</time>
      </trkpt>
      <trkpt lat="47.88334" lon="6.74556">
        <ele>512.774048</ele>
        <time>2018-05-26T16:59:03Z</time>
      </trkpt>
      <trkpt lat="47.88341" lon="6.74552">
        <ele>512.62677</ele>
        <time>2018-05-26T16:59:04Z</time>
      </trkpt>
      <trkpt lat="47.88348" lon="6.74549">
        <ele>512.360901</ele>
        <time>2018-05-26T16:59:05Z</time>
      </trkpt>
      <trkpt lat="47.88355" lon="6.74547">
        <ele>512.162781</ele>
        <time>2018-05-26T16:59:06Z</time>
      </trkpt>
      <trkpt lat="47.88362" lon="6.74545">
        <ele>511.864899</ele>
        <time>2018-05-26T16:59:07Z</time>
      </trkpt>
      <trkpt lat="47.88369" lon="6.74543">
        <ele>511.673187</ele>
        <time>2018-05-26T16:59:08Z</time>
      </trkpt>
      <trkpt lat="47.88377" lon="6.74541">
        <ele>511.493195</ele>
        <time>2018-05-26T16:59:09Z</time>
      </trkpt>
      <trkpt lat="47.88384" lon="6.74539">
        <ele>511.250641</ele>
        <time>2018-05-26T16:59:10Z</time>
      </trkpt>
      <trkpt lat="47.88391" lon="6.74537">
        <ele>511.107758</ele>
        <time>2018-05-26T16:59:11Z</time>
      </trkpt>
      <trkpt lat="47.88398" lon="6.74535">
        <ele>510.908325</ele>
        <time>2018-05-26T16:59:12Z</time>
      </trkpt>
      <trkpt lat="47.88405" lon="6.74532">
        <ele>510.778107</ele>
        <time>2018-05-26T16:59:13Z</time>
      </trkpt>
      <trkpt lat="47.88412" lon="6.74529">
        <ele>510.592865</ele>
        <time>2018-05-26T16:59:14Z</time>
      </trkpt>
      <trkpt lat="47.88419" lon="6.74526">
        <ele>510.478027</ele>
        <time>2018-05-26T16:59:15Z</time>
      </trkpt>
      <trkpt lat="47.88425" lon="6.74522">
        <ele>510.315765</ele>
        <time>2018-05-26T16:59:16Z</time>
      </trkpt>
      <trkpt lat="47.88431" lon="6.74518">
        <ele>510.210114</ele>
        <time>2018-05-26T16:59:17Z</time>
      </trkpt>
      <trkpt lat="47.88437" lon="6.74513">
        <ele>510.114044</ele>
        <time>2018-05-26T16:59:18Z</time>
      </trkpt>
      <trkpt lat="47.88443" lon="6.74506">
        <ele>509.992706</ele>
        <time>2018-05-26T16:59:19Z</time>
      </trkpt>
      <trkpt lat="47.88448" lon="6.745">
        <ele>509.933441</ele>
        <time>2018-05-26T16:59:20Z</time>
      </trkpt>
      <trkpt lat="47.88453" lon="6.74493">
        <ele>509.870148</ele>
        <time>2018-05-26T16:59:21Z</time>
      </trkpt>
      <trkpt lat="47.88458" lon="6.74486">
        <ele>509.839081</ele>
        <time>2018-05-26T16:59:22Z</time>
      </trkpt>
      <trkpt lat="47.88462" lon="6.74478">
        <ele>509.809937</ele>
        <time>2018-05-26T16:59:23Z</time>
      </trkpt>
      <trkpt lat="47.88466" lon="6.7447">
        <ele>509.774933</ele>
        <time>2018-05-26T16:59:24Z</time>
      </trkpt>
      <trkpt lat="47.8847" lon="6.74462">
        <ele>509.764069</ele>
        <time>2018-05-26T16:59:25Z</time>
      </trkpt>
      <trkpt lat="47.88474" lon="6.74454">
        <ele>509.738525</ele>
        <time>2018-05-26T16:59:26Z</time>
      </trkpt>
      <trkpt lat="47.88478" lon="6.74446">
        <ele>509.702148</ele>
        <time>2018-05-26T16:59:27Z</time>
      </trkpt>
      <trkpt lat="47.88482" lon="6.74437">
        <ele>509.654205</ele>
        <time>2018-05-26T16:59:28Z</time>
      </trkpt>
      <trkpt lat="47.88486" lon="6.74429">
        <ele>509.568878</ele>
        <time>2018-05-26T16:59:29Z</time>
      </trkpt>
      <trkpt lat="47.8849" lon="6.7442">
        <ele>509.503326</ele>
        <time>2018-05-26T16:59:30Z</time>
      </trkpt>
      <trkpt lat="47.88494" lon="6.74412">
        <ele>509.393555</ele>
        <time>2018-05-26T16:59:31Z</time>
      </trkpt>
      <trkpt lat="47.88498" lon="6.74404">
        <ele>509.314331</ele>
        <time>2018-05-26T16:59:32Z</time>
      </trkpt>
      <trkpt lat="47.88502" lon="6.74396">
        <ele>509.200195</ele>
        <time>2018-05-26T16:59:33Z</time>
      </trkpt>
      <trkpt lat="47.88506" lon="6.74388">
        <ele>509.13089</ele>
        <time>2018-05-26T16:59:34Z</time>
      </trkpt>
      <trkpt lat="47.8851" lon="6.7438">
        <ele>509.049683</ele>
        <time>2018-05-26T16:59:35Z</time>
      </trkpt>
      <trkpt lat="47.88514" lon="6.74372">
        <ele>509.016449</ele>
        <time>2018-05-26T16:59:36Z</time>
      </trkpt>
      <trkpt lat="47.88518" lon="6.74363">
        <ele>508.996796</ele>
        <time>2018-05-26T16:59:37Z</time>
      </trkpt>
      <trkpt lat="47.88522" lon="6.74355">
        <ele>508.961273</ele>
        <time>2018-05-26T16:59:38Z</time>
      </trkpt>
      <trkpt lat="47.88527" lon="6.74347">
        <ele>508.923676</ele>
        <time>2018-05-26T16:59:39Z</time>
      </trkpt>
      <trkpt lat="47.8853" lon="6.74339">
        <ele>508.85022</ele>
        <time>2018-05-26T16:59:40Z</time>
      </trkpt>
      <trkpt lat="47.88535" lon="6.74331">
        <ele>508.793182</ele>
        <time>2018-05-26T16:59:41Z</time>
      </trkpt>
      <trkpt lat="47.8854" lon="6.74324">
        <ele>508.73172</ele>
        <time>2018-05-26T16:59:42Z</time>
      </trkpt>
      <trkpt lat="47.88545" lon="6.74318">
        <ele>508.636688</ele>
        <time>2018-05-26T16:59:43Z</time>
      </trkpt>
      <trkpt lat="47.8855" lon="6.74311">
        <ele>508.579437</ele>
        <time>2018-05-26T16:59:44Z</time>
      </trkpt>
      <trkpt lat="47.88556" lon="6.74306">
        <ele>508.508179</ele>
        <time>2018-05-26T16:59:45Z</time>
      </trkpt>
      <trkpt lat="47.88562" lon="6.743">
        <ele>508.464478</ele>
        <time>2018-05-26T16:59:46Z</time>
      </trkpt>
      <trkpt lat="47.88567" lon="6.74294">
        <ele>508.421356</ele>
        <time>2018-05-26T16:59:47Z</time>
      </trkpt>
      <trkpt lat="47.88573" lon="6.74289">
        <ele>508.358124</ele>
        <time>2018-05-26T16:59:48Z</time>
      </trkpt>
      <trkpt lat="47.88578" lon="6.74283">
        <ele>508.31543</ele>
        <time>2018-05-26T16:59:49Z</time>
      </trkpt>
      <trkpt lat="47.88584" lon="6.74277">
        <ele>508.236084</ele>
        <time>2018-05-26T16:59:50Z</time>
      </trkpt>
      <trkpt lat="47.8859" lon="6.74272">
        <ele>508.166107</ele>
        <time>2018-05-26T16:59:51Z</time>
      </trkpt>
      <trkpt lat="47.88596" lon="6.74266">
        <ele>508.04541</ele>
        <time>2018-05-26T16:59:52Z</time>
      </trkpt>
      <trkpt lat="47.88601" lon="6.74261">
        <ele>507.963531</ele>
        <time>2018-05-26T16:59:53Z</time>
      </trkpt>
      <trkpt lat="47.88607" lon="6.74256">
        <ele>507.88205</ele>
        <time>2018-05-26T16:59:54Z</time>
      </trkpt>
      <trkpt lat="47.88613" lon="6.74251">
        <ele>507.769623</ele>
        <time>2018-05-26T16:59:55Z</time>
      </trkpt>
      <trkpt lat="47.88619" lon="6.74245">
        <ele>507.707031</ele>
        <time>2018-05-26T16:59:56Z</time>
      </trkpt>
      <trkpt lat="47.88625" lon="6.7424">
        <ele>507.628632</ele>
        <time>2018-05-26T16:59:57Z</time>
      </trkpt>
      <trkpt lat="47.88631" lon="6.74235">
        <ele>507.581573</ele>
        <time>2018-05-26T16:59:58Z</time>
      </trkpt>
      <trkpt lat="47.88636" lon="6.74229">
        <ele>507.537933</ele>
        <time>2018-05-26T16:59:59Z</time>
      </trkpt>
      <trkpt lat="47.88642" lon="6.74224">
        <ele>507.467987</ele>
        <time>2018-05-26T17:00:00Z</time>
      </trkpt>
      <trkpt lat="47.88648" lon="6.74219">
        <ele>507.411224</ele>
        <time>2018-05-26T17:00:01Z</time>
      </trkpt>
      <trkpt lat="47.88654" lon="6.74214">
        <ele>507.294312</ele>
        <time>2018-05-26T17:00:02Z</time>
      </trkpt>
      <trkpt lat="47.88659" lon="6.74209">
        <ele>507.195343</ele>
        <time>2018-05-26T17:00:03Z</time>
      </trkpt>
      <trkpt lat="47.88665" lon="6.74205">
        <ele>507.027222</ele>
        <time>2018-05-26T17:00:04Z</time>
      </trkpt>
      <trkpt lat="47.88672" lon="6.74201">
        <ele>506.914642</ele>
        <time>2018-05-26T17:00:05Z</time>
      </trkpt>
      <trkpt lat="47.88678" lon="6.74198">
        <ele>506.815521</ele>
        <time>2018-05-26T17:00:06Z</time>
      </trkpt>
      <trkpt lat="47.88685" lon="6.74196">
        <ele>506.696503</ele>
        <time>2018-05-26T17:00:07Z</time>
      </trkpt>
      <trkpt lat="47.88691" lon="6.74195">
        <ele>506.62735</ele>
        <time>2018-05-26T17:00:08Z</time>
      </trkpt>
      <trkpt lat="47.88698" lon="6.74195">
        <ele>506.521393</ele>
        <time>2018-05-26T17:00:09Z</time>
      </trkpt>
      <trkpt lat="47.88705" lon="6.74195">
        <ele>506.457855</ele>
        <time>2018-05-26T17:00:10Z</time>
      </trkpt>
      <trkpt lat="47.88712" lon="6.74194">
        <ele>506.369232</ele>
        <time>2018-05-26T17:00:11Z</time>
      </trkpt>
      <trkpt lat="47.88718" lon="6.74191">
        <ele>506.308014</ele>
        <time>2018-05-26T17:00:12Z</time>
      </trkpt>
      <trkpt lat="47.88724" lon="6.74186">
        <ele>506.241302</ele>
        <time>2018-05-26T17:00:13Z</time>
      </trkpt>
      <trkpt lat="47.8873" lon="6.7418">
        <ele>506.126343</ele>
        <time>2018-05-26T17:00:14Z</time>
      </trkpt>
      <trkpt lat="47.88735" lon="6.74173">
        <ele>506.030914</ele>
        <time>2018-05-26T17:00:15Z</time>
      </trkpt>
      <trkpt lat="47.8874" lon="6.74166">
        <ele>505.856171</ele>
        <time>2018-05-26T17:00:16Z</time>
      </trkpt>
      <trkpt lat="47.88746" lon="6.74158">
        <ele>505.719086</ele>
        <time>2018-05-26T17:00:17Z</time>
      </trkpt>
      <trkpt lat="47.88751" lon="6.7415">
        <ele>505.471771</ele>
        <time>2018-05-26T17:00:18Z</time>
      </trkpt>
      <trkpt lat="47.88755" lon="6.74142">
        <ele>505.27124</ele>
        <time>2018-05-26T17:00:19Z</time>
      </trkpt>
      <trkpt lat="47.88761" lon="6.74134">
        <ele>504.943451</ele>
        <time>2018-05-26T17:00:20Z</time>
      </trkpt>
      <trkpt lat="47.88766" lon="6.74126">
        <ele>504.735809</ele>
        <time>2018-05-26T17:00:21Z</time>
      </trkpt>
      <trkpt lat="47.88771" lon="6.74117">
        <ele>504.547699</ele>
        <time>2018-05-26T17:00:22Z</time>
      </trkpt>
      <trkpt lat="47.88777" lon="6.74109">
        <ele>504.272095</ele>
        <time>2018-05-26T17:00:23Z</time>
      </trkpt>
      <trkpt lat="47.88783" lon="6.741">
        <ele>504.081207</ele>
        <time>2018-05-26T17:00:24Z</time>
      </trkpt>
      <trkpt lat="47.88788" lon="6.74092">
        <ele>503.784546</ele>
        <time>2018-05-26T17:00:25Z</time>
      </trkpt>
      <trkpt lat="47.88794" lon="6.74083">
        <ele>503.685547</ele>
        <time>2018-05-26T17:00:26Z</time>
      </trkpt>
      <trkpt lat="47.888" lon="6.74075">
        <ele>503.685547</ele>
        <time>2018-05-26T17:00:27Z</time>
      </trkpt>
      <trkpt lat="47.88806" lon="6.74067">
        <ele>503.380646</ele>
        <time>2018-05-26T17:00:28Z</time>
      </trkpt>
      <trkpt lat="47.88812" lon="6.7406">
        <ele>503.155151</ele>
        <time>2018-05-26T17:00:29Z</time>
      </trkpt>
      <trkpt lat="47.88819" lon="6.74053">
        <ele>502.907379</ele>
        <time>2018-05-26T17:00:30Z</time>
      </trkpt>
      <trkpt lat="47.88825" lon="6.74047">
        <ele>502.511444</ele>
        <time>2018-05-26T17:00:31Z</time>
      </trkpt>
      <trkpt lat="47.88832" lon="6.74041">
        <ele>502.249603</ele>
        <time>2018-05-26T17:00:32Z</time>
      </trkpt>
      <trkpt lat="47.88838" lon="6.74035">
        <ele>501.883636</ele>
        <time>2018-05-26T17:00:33Z</time>
      </trkpt>
      <trkpt lat="47.88845" lon="6.7403">
        <ele>501.673676</ele>
        <time>2018-05-26T17:00:34Z</time>
      </trkpt>
      <trkpt lat="47.88851" lon="6.74025">
        <ele>501.434357</ele>
        <time>2018-05-26T17:00:35Z</time>
      </trkpt>
      <trkpt lat="47.88858" lon="6.7402">
        <ele>501.322266</ele>
        <time>2018-05-26T17:00:36Z</time>
      </trkpt>
      <trkpt lat="47.88864" lon="6.74015">
        <ele>501.237305</ele>
        <time>2018-05-26T17:00:37Z</time>
      </trkpt>
      <trkpt lat="47.8887" lon="6.7401">
        <ele>501.155762</ele>
        <time>2018-05-26T17:00:38Z</time>
      </trkpt>
      <trkpt lat="47.88876" lon="6.74006">
        <ele>501.140411</ele>
        <time>2018-05-26T17:00:39Z</time>
      </trkpt>
      <trkpt lat="47.88882" lon="6.74001">
        <ele>501.143555</ele>
        <time>2018-05-26T17:00:40Z</time>
      </trkpt>
      <trkpt lat="47.88887" lon="6.73996">
        <ele>501.167236</ele>
        <time>2018-05-26T17:00:41Z</time>
      </trkpt>
      <trkpt lat="47.88892" lon="6.73991">
        <ele>501.247711</ele>
        <time>2018-05-26T17:00:42Z</time>
      </trkpt>
      <trkpt lat="47.88898" lon="6.73986">
        <ele>501.326752</ele>
        <time>2018-05-26T17:00:43Z</time>
      </trkpt>
      <trkpt lat="47.88903" lon="6.73981">
        <ele>501.469391</ele>
        <time>2018-05-26T17:00:44Z</time>
      </trkpt>
      <trkpt lat="47.88908" lon="6.73976">
        <ele>501.571198</ele>
        <time>2018-05-26T17:00:45Z</time>
      </trkpt>
      <trkpt lat="47.88913" lon="6.73969">
        <ele>501.712494</ele>
        <time>2018-05-26T17:00:46Z</time>
      </trkpt>
      <trkpt lat="47.88918" lon="6.73962">
        <ele>501.790771</ele>
        <time>2018-05-26T17:00:47Z</time>
      </trkpt>
      <trkpt lat="47.88922" lon="6.73956">
        <ele>501.848389</ele>
        <time>2018-05-26T17:00:48Z</time>
      </trkpt>
      <trkpt lat="47.88927" lon="6.73949">
        <ele>501.895599</ele>
        <time>2018-05-26T17:00:49Z</time>
      </trkpt>
      <trkpt lat="47.88932" lon="6.73943">
        <ele>501.897003</ele>
        <time>2018-05-26T17:00:50Z</time>
      </trkpt>
      <trkpt lat="47.88938" lon="6.73937">
        <ele>501.876984</ele>
        <time>2018-05-26T17:00:51Z</time>
      </trkpt>
      <trkpt lat="47.88944" lon="6.73931">
        <ele>501.822906</ele>
        <time>2018-05-26T17:00:52Z</time>
      </trkpt>
      <trkpt lat="47.8895" lon="6.73926">
        <ele>501.737671</ele>
        <time>2018-05-26T17:00:53Z</time>
      </trkpt>
      <trkpt lat="47.88957" lon="6.73921">
        <ele>501.553558</ele>
        <time>2018-05-26T17:00:54Z</time>
      </trkpt>
      <trkpt lat="47.88964" lon="6.73918">
        <ele>501.400879</ele>
        <time>2018-05-26T17:00:55Z</time>
      </trkpt>
      <trkpt lat="47.88971" lon="6.73915">
        <ele>501.150238</ele>
        <time>2018-05-26T17:00:56Z</time>
      </trkpt>
      <trkpt lat="47.88979" lon="6.73914">
        <ele>500.98233</ele>
        <time>2018-05-26T17:00:57Z</time>
      </trkpt>
      <trkpt lat="47.88986" lon="6.73913">
        <ele>500.739655</ele>
        <time>2018-05-26T17:00:58Z</time>
      </trkpt>
      <trkpt lat="47.88994" lon="6.73912">
        <ele>500.585663</ele>
        <time>2018-05-26T17:00:59Z</time>
      </trkpt>
      <trkpt lat="47.89002" lon="6.73911">
        <ele>500.366547</ele>
        <time>2018-05-26T17:01:00Z</time>
      </trkpt>
      <trkpt lat="47.89009" lon="6.73911">
        <ele>500.22583</ele>
        <time>2018-05-26T17:01:01Z</time>
      </trkpt>
      <trkpt lat="47.89016" lon="6.7391">
        <ele>500.082611</ele>
        <time>2018-05-26T17:01:02Z</time>
      </trkpt>
      <trkpt lat="47.89023" lon="6.7391">
        <ele>499.853607</ele>
        <time>2018-05-26T17:01:03Z</time>
      </trkpt>
      <trkpt lat="47.89031" lon="6.7391">
        <ele>499.702148</ele>
        <time>2018-05-26T17:01:04Z</time>
      </trkpt>
      <trkpt lat="47.89038" lon="6.7391">
        <ele>499.509674</ele>
        <time>2018-05-26T17:01:05Z</time>
      </trkpt>
      <trkpt lat="47.89045" lon="6.73909">
        <ele>499.411987</ele>
        <time>2018-05-26T17:01:06Z</time>
      </trkpt>
      <trkpt lat="47.89051" lon="6.73909">
        <ele>499.339478</ele>
        <time>2018-05-26T17:01:07Z</time>
      </trkpt>
      <trkpt lat="47.89058" lon="6.73909">
        <ele>499.284424</ele>
        <time>2018-05-26T17:01:08Z</time>
      </trkpt>
      <trkpt lat="47.89064" lon="6.73908">
        <ele>499.280853</ele>
        <time>2018-05-26T17:01:09Z</time>
      </trkpt>
      <trkpt lat="47.89071" lon="6.73908">
        <ele>499.285889</ele>
        <time>2018-05-26T17:01:10Z</time>
      </trkpt>
      <trkpt lat="47.89078" lon="6.73908">
        <ele>499.293945</ele>
        <time>2018-05-26T17:01:11Z</time>
      </trkpt>
      <trkpt lat="47.89085" lon="6.73908">
        <ele>499.293945</ele>
        <time>2018-05-26T17:01:12Z</time>
      </trkpt>
      <trkpt lat="47.89091" lon="6.73909">
        <ele>499.270752</ele>
        <time>2018-05-26T17:01:13Z</time>
      </trkpt>
      <trkpt lat="47.89098" lon="6.73911">
        <ele>499.222656</ele>
        <time>2018-05-26T17:01:14Z</time>
      </trkpt>
      <trkpt lat="47.89105" lon="6.73915">
        <ele>499.089264</ele>
        <time>2018-05-26T17:01:15Z</time>
      </trkpt>
      <trkpt lat="47.89112" lon="6.7392">
        <ele>498.955658</ele>
        <time>2018-05-26T17:01:16Z</time>
      </trkpt>
      <trkpt lat="47.89119" lon="6.73927">
        <ele>498.689484</ele>
        <time>2018-05-26T17:01:17Z</time>
      </trkpt>
      <trkpt lat="47.89125" lon="6.73934">
        <ele>498.468964</ele>
        <time>2018-05-26T17:01:18Z</time>
      </trkpt>
      <trkpt lat="47.89132" lon="6.73941">
        <ele>498.209808</ele>
        <time>2018-05-26T17:01:19Z</time>
      </trkpt>
      <trkpt lat="47.8914" lon="6.73947">
        <ele>497.751831</ele>
        <time>2018-05-26T17:01:20Z</time>
      </trkpt>
      <trkpt lat="47.89147" lon="6.73949">
        <ele>497.410675</ele>
        <time>2018-05-26T17:01:21Z</time>
      </trkpt>
      <trkpt lat="47.89155" lon="6.73946">
        <ele>496.861084</ele>
        <time>2018-05-26T17:01:22Z</time>
      </trkpt>
      <trkpt lat="47.89161" lon="6.73939">
        <ele>496.489746</ele>
        <time>2018-05-26T17:01:23Z</time>
      </trkpt>
      <trkpt lat="47.89167" lon="6.73933">
        <ele>496.134918</ele>
        <time>2018-05-26T17:01:24Z</time>
      </trkpt>
      <trkpt lat="47.89172" lon="6.73926">
        <ele>495.674225</ele>
        <time>2018-05-26T17:01:25Z</time>
      </trkpt>
      <trkpt lat="47.89178" lon="6.73921">
        <ele>495.431519</ele>
        <time>2018-05-26T17:01:26Z</time>
      </trkpt>
      <trkpt lat="47.89184" lon="6.73916">
        <ele>495.245941</ele>
        <time>2018-05-26T17:01:27Z</time>
      </trkpt>
      <trkpt lat="47.8919" lon="6.73913">
        <ele>495.134399</ele>
        <time>2018-05-26T17:01:28Z</time>
      </trkpt>
      <trkpt lat="47.89196" lon="6.73912">
        <ele>495.11084</ele>
        <time>2018-05-26T17:01:29Z</time>
      </trkpt>
      <trkpt lat="47.89203" lon="6.73913">
        <ele>495.130005</ele>
        <time>2018-05-26T17:01:30Z</time>
      </trkpt>
      <trkpt lat="47.89209" lon="6.73913">
        <ele>495.223846</ele>
        <time>2018-05-26T17:01:31Z</time>
      </trkpt>
      <trkpt lat="47.89215" lon="6.73913">
        <ele>495.426178</ele>
        <time>2018-05-26T17:01:32Z</time>
      </trkpt>
      <trkpt lat="47.89222" lon="6.73913">
        <ele>495.570679</ele>
        <time>2018-05-26T17:01:33Z</time>
      </trkpt>
      <trkpt lat="47.89228" lon="6.73912">
        <ele>495.759064</ele>
        <time>2018-05-26T17:01:34Z</time>
      </trkpt>
      <trkpt lat="47.89235" lon="6.73909">
        <ele>495.848907</ele>
        <time>2018-05-26T17:01:35Z</time>
      </trkpt>
      <trkpt lat="47.8924" lon="6.73904">
        <ele>495.920868</ele>
        <time>2018-05-26T17:01:36Z</time>
      </trkpt>
      <trkpt lat="47.89245" lon="6.73897">
        <ele>495.927521</ele>
        <time>2018-05-26T17:01:37Z</time>
      </trkpt>
      <trkpt lat="47.8925" lon="6.73889">
        <ele>495.919434</ele>
        <time>2018-05-26T17:01:38Z</time>
      </trkpt>
      <trkpt lat="47.89254" lon="6.73882">
        <ele>495.887726</ele>
        <time>2018-05-26T17:01:39Z</time>
      </trkpt>
      <trkpt lat="47.8926" lon="6.73875">
        <ele>495.842896</ele>
        <time>2018-05-26T17:01:40Z</time>
      </trkpt>
      <trkpt lat="47.89265" lon="6.73868">
        <ele>495.759674</ele>
        <time>2018-05-26T17:01:41Z</time>
      </trkpt>
      <trkpt lat="47.8927" lon="6.73861">
        <ele>495.690399</ele>
        <time>2018-05-26T17:01:42Z</time>
      </trkpt>
      <trkpt lat="47.89275" lon="6.73854">
        <ele>495.557495</ele>
        <time>2018-05-26T17:01:43Z</time>
      </trkpt>
      <trkpt lat="47.89281" lon="6.73847">
        <ele>495.444</ele>
        <time>2018-05-26T17:01:44Z</time>
      </trkpt>
      <trkpt lat="47.89286" lon="6.73841">
        <ele>495.244598</ele>
        <time>2018-05-26T17:01:45Z</time>
      </trkpt>
      <trkpt lat="47.89292" lon="6.73834">
        <ele>495.098724</ele>
        <time>2018-05-26T17:01:46Z</time>
      </trkpt>
      <trkpt lat="47.89298" lon="6.73828">
        <ele>494.872437</ele>
        <time>2018-05-26T17:01:47Z</time>
      </trkpt>
      <trkpt lat="47.89303" lon="6.73821">
        <ele>494.72818</ele>
        <time>2018-05-26T17:01:48Z</time>
      </trkpt>
      <trkpt lat="47.89309" lon="6.73816">
        <ele>494.598663</ele>
        <time>2018-05-26T17:01:49Z</time>
      </trkpt>
      <trkpt lat="47.89315" lon="6.7381">
        <ele>494.426056</ele>
        <time>2018-05-26T17:01:50Z</time>
      </trkpt>
      <trkpt lat="47.89321" lon="6.73805">
        <ele>494.319122</ele>
        <time>2018-05-26T17:01:51Z</time>
      </trkpt>
      <trkpt lat="47.89327" lon="6.738">
        <ele>494.185699</ele>
        <time>2018-05-26T17:01:52Z</time>
      </trkpt>
      <trkpt lat="47.89333" lon="6.73795">
        <ele>494.121185</ele>
        <time>2018-05-26T17:01:53Z</time>
      </trkpt>
      <trkpt lat="47.89338" lon="6.73789">
        <ele>494.055573</ele>
        <time>2018-05-26T17:01:54Z</time>
      </trkpt>
      <trkpt lat="47.89344" lon="6.73784">
        <ele>494.026886</ele>
        <time>2018-05-26T17:01:55Z</time>
      </trkpt>
      <trkpt lat="47.8935" lon="6.73779">
        <ele>494.020477</ele>
        <time>2018-05-26T17:01:56Z</time>
      </trkpt>
      <trkpt lat="47.89356" lon="6.73774">
        <ele>494.024536</ele>
        <time>2018-05-26T17:01:57Z</time>
      </trkpt>
      <trkpt lat="47.89361" lon="6.73769">
        <ele>494.043121</ele>
        <time>2018-05-26T17:01:58Z</time>
      </trkpt>
      <trkpt lat="47.89367" lon="6.73763">
        <ele>494.08194</ele>
        <time>2018-05-26T17:01:59Z</time>
      </trkpt>
      <trkpt lat="47.89372" lon="6.73757">
        <ele>494.103546</ele>
        <time>2018-05-26T17:02:00Z</time>
      </trkpt>
      <trkpt lat="47.89377" lon="6.73751">
        <ele>494.12619</ele>
        <time>2018-05-26T17:02:01Z</time>
      </trkpt>
      <trkpt lat="47.89381" lon="6.73744">
        <ele>494.130249</ele>
        <time>2018-05-26T17:02:02Z</time>
      </trkpt>
      <trkpt lat="47.89386" lon="6.73738">
        <ele>494.125702</ele>
        <time>2018-05-26T17:02:03Z</time>
      </trkpt>
      <trkpt lat="47.89391" lon="6.73732">
        <ele>494.109283</ele>
        <time>2018-05-26T17:02:04Z</time>
      </trkpt>
      <trkpt lat="47.89396" lon="6.73725">
        <ele>494.088898</ele>
        <time>2018-05-26T17:02:05Z</time>
      </trkpt>
      <trkpt lat="47.89401" lon="6.73718">
        <ele>494.074615</ele>
        <time>2018-05-26T17:02:06Z</time>
      </trkpt>
      <trkpt lat="47.89405" lon="6.73711">
        <ele>494.074615</ele>
        <time>2018-05-26T17:02:07Z</time>
      </trkpt>
      <trkpt lat="47.89409" lon="6.73703">
        <ele>494.083862</ele>
        <time>2018-05-26T17:02:08Z</time>
      </trkpt>
      <trkpt lat="47.89413" lon="6.73695">
        <ele>494.099152</ele>
        <time>2018-05-26T17:02:09Z</time>
      </trkpt>
      <trkpt lat="47.89417" lon="6.73687">
        <ele>494.128754</ele>
        <time>2018-05-26T17:02:10Z</time>
      </trkpt>
      <trkpt lat="47.89421" lon="6.73679">
        <ele>494.150848</ele>
        <time>2018-05-26T17:02:11Z</time>
      </trkpt>
      <trkpt lat="47.89425" lon="6.73671">
        <ele>494.174072</ele>
        <time>2018-05-26T17:02:12Z</time>
      </trkpt>
      <trkpt lat="47.89428" lon="6.73662">
        <ele>494.204987</ele>
        <time>2018-05-26T17:02:13Z</time>
      </trkpt>
      <trkpt lat="47.89431" lon="6.73654">
        <ele>494.21814</ele>
        <time>2018-05-26T17:02:14Z</time>
      </trkpt>
      <trkpt lat="47.89435" lon="6.73645">
        <ele>494.230011</ele>
        <time>2018-05-26T17:02:15Z</time>
      </trkpt>
      <trkpt lat="47.89439" lon="6.73637">
        <ele>494.23642</ele>
        <time>2018-05-26T17:02:16Z</time>
      </trkpt>
      <trkpt lat="47.89442" lon="6.73629">
        <ele>494.244629</ele>
        <time>2018-05-26T17:02:17Z</time>
      </trkpt>
      <trkpt lat="47.89446" lon="6.73621">
        <ele>494.263214</ele>
        <time>2018-05-26T17:02:18Z</time>
      </trkpt>
      <trkpt lat="47.89449" lon="6.73613">
        <ele>494.281006</ele>
        <time>2018-05-26T17:02:19Z</time>
      </trkpt>
      <trkpt lat="47.89452" lon="6.73605">
        <ele>494.31192</ele>
        <time>2018-05-26T17:02:20Z</time>
      </trkpt>
      <trkpt lat="47.89455" lon="6.73597">
        <ele>494.333405</ele>
        <time>2018-05-26T17:02:21Z</time>
      </trkpt>
      <trkpt lat="47.89458" lon="6.73589">
        <ele>494.366058</ele>
        <time>2018-05-26T17:02:22Z</time>
      </trkpt>
      <trkpt lat="47.89461" lon="6.73581">
        <ele>494.403351</ele>
        <time>2018-05-26T17:02:23Z</time>
      </trkpt>
      <trkpt lat="47.89463" lon="6.73574">
        <ele>494.462494</ele>
        <time>2018-05-26T17:02:24Z</time>
      </trkpt>
      <trkpt lat="47.89466" lon="6.73566">
        <ele>494.598511</ele>
        <time>2018-05-26T17:02:25Z</time>
      </trkpt>
      <trkpt lat="47.8947" lon="6.7356">
        <ele>494.714996</ele>
        <time>2018-05-26T17:02:26Z</time>
      </trkpt>
      <trkpt lat="47.89473" lon="6.73556">
        <ele>494.937836</ele>
        <time>2018-05-26T17:02:27Z</time>
      </trkpt>
      <trkpt lat="47.89476" lon="6.73555">
        <ele>495.028046</ele>
        <time>2018-05-26T17:02:28Z</time>
      </trkpt>
      <trkpt lat="47.89477" lon="6.73556">
        <ele>495.127411</ele>
        <time>2018-05-26T17:02:29Z</time>
      </trkpt>
      <trkpt lat="47.89478" lon="6.73558">
        <ele>495.478424</ele>
        <time>2018-05-26T17:02:30Z</time>
      </trkpt>
      <trkpt lat="47.89479" lon="6.7356">
        <ele>495.746185</ele>
        <time>2018-05-26T17:02:31Z</time>
      </trkpt>
      <trkpt lat="47.89482" lon="6.73562">
        <ele>496.170746</ele>
        <time>2018-05-26T17:02:32Z</time>
      </trkpt>
      <trkpt lat="47.89484" lon="6.73562">
        <ele>496.453705</ele>
        <time>2018-05-26T17:02:33Z</time>
      </trkpt>
      <trkpt lat="47.89486" lon="6.73558">
        <ele>496.844971</ele>
        <time>2018-05-26T17:02:34Z</time>
      </trkpt>
      <trkpt lat="47.89487" lon="6.73554">
        <ele>497.062897</ele>
        <time>2018-05-26T17:02:35Z</time>
      </trkpt>
      <trkpt lat="47.89488" lon="6.73549">
        <ele>497.238861</ele>
        <time>2018-05-26T17:02:36Z</time>
      </trkpt>
      <trkpt lat="47.89489" lon="6.73543">
        <ele>497.419037</ele>
        <time>2018-05-26T17:02:37Z</time>
      </trkpt>
      <trkpt lat="47.89491" lon="6.73537">
        <ele>497.490875</ele>
        <time>2018-05-26T17:02:38Z</time>
      </trkpt>
      <trkpt lat="47.89493" lon="6.7353">
        <ele>497.535858</ele>
        <time>2018-05-26T17:02:39Z</time>
      </trkpt>
      <trkpt lat="47.89496" lon="6.73523">
        <ele>497.535858</ele>
        <time>2018-05-26T17:02:40Z</time>
      </trkpt>
      <trkpt lat="47.89498" lon="6.73515">
        <ele>497.528839</ele>
        <time>2018-05-26T17:02:41Z</time>
      </trkpt>
      <trkpt lat="47.895" lon="6.73508">
        <ele>497.485962</ele>
        <time>2018-05-26T17:02:42Z</time>
      </trkpt>
      <trkpt lat="47.89503" lon="6.735">
        <ele>497.450317</ele>
        <time>2018-05-26T17:02:43Z</time>
      </trkpt>
      <trkpt lat="47.89506" lon="6.73493">
        <ele>497.394257</ele>
        <time>2018-05-26T17:02:44Z</time>
      </trkpt>
      <trkpt lat="47.89509" lon="6.73486">
        <ele>497.355682</ele>
        <time>2018-05-26T17:02:45Z</time>
      </trkpt>
      <trkpt lat="47.89512" lon="6.73478">
        <ele>497.319183</ele>
        <time>2018-05-26T17:02:46Z</time>
      </trkpt>
      <trkpt lat="47.89515" lon="6.73471">
        <ele>497.291626</ele>
        <time>2018-05-26T17:02:47Z</time>
      </trkpt>
      <trkpt lat="47.89518" lon="6.73463">
        <ele>497.291626</ele>
        <time>2018-05-26T17:02:48Z</time>
      </trkpt>
      <trkpt lat="47.89521" lon="6.73456">
        <ele>497.317139</ele>
        <time>2018-05-26T17:02:49Z</time>
      </trkpt>
      <trkpt lat="47.89524" lon="6.73449">
        <ele>497.352875</ele>
        <time>2018-05-26T17:02:50Z</time>
      </trkpt>
      <trkpt lat="47.89527" lon="6.73442">
        <ele>497.404755</ele>
        <time>2018-05-26T17:02:51Z</time>
      </trkpt>
      <trkpt lat="47.89529" lon="6.73434">
        <ele>497.437225</ele>
        <time>2018-05-26T17:02:52Z</time>
      </trkpt>
      <trkpt lat="47.89532" lon="6.73426">
        <ele>497.464325</ele>
        <time>2018-05-26T17:02:53Z</time>
      </trkpt>
      <trkpt lat="47.89535" lon="6.73419">
        <ele>497.471771</ele>
        <time>2018-05-26T17:02:54Z</time>
      </trkpt>
      <trkpt lat="47.89538" lon="6.73411">
        <ele>497.465851</ele>
        <time>2018-05-26T17:02:55Z</time>
      </trkpt>
      <trkpt lat="47.8954" lon="6.73403">
        <ele>497.413208</ele>
        <time>2018-05-26T17:02:56Z</time>
      </trkpt>
      <trkpt lat="47.89542" lon="6.73395">
        <ele>497.368317</ele>
        <time>2018-05-26T17:02:57Z</time>
      </trkpt>
      <trkpt lat="47.89544" lon="6.73386">
        <ele>497.326508</ele>
        <time>2018-05-26T17:02:58Z</time>
      </trkpt>
      <trkpt lat="47.89546" lon="6.73378">
        <ele>497.266235</ele>
        <time>2018-05-26T17:02:59Z</time>
      </trkpt>
      <trkpt lat="47.8955" lon="6.7337">
        <ele>497.223145</ele>
        <time>2018-05-26T17:03:00Z</time>
      </trkpt>
      <trkpt lat="47.89554" lon="6.73366">
        <ele>497.154205</ele>
        <time>2018-05-26T17:03:01Z</time>
      </trkpt>
      <trkpt lat="47.89559" lon="6.73363">
        <ele>497.116211</ele>
        <time>2018-05-26T17:03:02Z</time>
      </trkpt>
      <trkpt lat="47.89564" lon="6.73361">
        <ele>497.107056</ele>
        <time>2018-05-26T17:03:03Z</time>
      </trkpt>
      <trkpt lat="47.89568" lon="6.7336">
        <ele>497.115356</ele>
        <time>2018-05-26T17:03:04Z</time>
      </trkpt>
      <trkpt lat="47.89572" lon="6.73358">
        <ele>497.171051</ele>
        <time>2018-05-26T17:03:05Z</time>
      </trkpt>
      <trkpt lat="47.89576" lon="6.73357">
        <ele>497.356445</ele>
        <time>2018-05-26T17:03:06Z</time>
      </trkpt>
      <trkpt lat="47.89581" lon="6.73356">
        <ele>497.54837</ele>
        <time>2018-05-26T17:03:07Z</time>
      </trkpt>
      <trkpt lat="47.89586" lon="6.73355">
        <ele>497.894897</ele>
        <time>2018-05-26T17:03:08Z</time>
      </trkpt>
      <trkpt lat="47.89591" lon="6.73354">
        <ele>498.127441</ele>
        <time>2018-05-26T17:03:09Z</time>
      </trkpt>
      <trkpt lat="47.89596" lon="6.73353">
        <ele>498.437164</ele>
        <time>2018-05-26T17:03:10Z</time>
      </trkpt>
      <trkpt lat="47.896" lon="6.73352">
        <ele>498.616852</ele>
        <time>2018-05-26T17:03:11Z</time>
      </trkpt>
      <trkpt lat="47.89605" lon="6.73352">
        <ele>498.854584</ele>
        <time>2018-05-26T17:03:12Z</time>
      </trkpt>
      <trkpt lat="47.8961" lon="6.73351">
        <ele>498.991302</ele>
        <time>2018-05-26T17:03:13Z</time>
      </trkpt>
      <trkpt lat="47.89614" lon="6.7335">
        <ele>499.110107</ele>
        <time>2018-05-26T17:03:14Z</time>
      </trkpt>
      <trkpt lat="47.89618" lon="6.7335">
        <ele>499.283173</ele>
        <time>2018-05-26T17:03:15Z</time>
      </trkpt>
      <trkpt lat="47.89623" lon="6.73349">
        <ele>499.419647</ele>
        <time>2018-05-26T17:03:16Z</time>
      </trkpt>
      <trkpt lat="47.89627" lon="6.73349">
        <ele>499.680084</ele>
        <time>2018-05-26T17:03:17Z</time>
      </trkpt>
      <trkpt lat="47.89631" lon="6.73348">
        <ele>499.883911</ele>
        <time>2018-05-26T17:03:18Z</time>
      </trkpt>
      <trkpt lat="47.89636" lon="6.73347">
        <ele>500.226715</ele>
        <time>2018-05-26T17:03:19Z</time>
      </trkpt>
      <trkpt lat="47.8964" lon="6.73346">
        <ele>500.468903</ele>
        <time>2018-05-26T17:03:20Z</time>
      </trkpt>
      <trkpt lat="47.89645" lon="6.73344">
        <ele>500.817963</ele>
        <time>2018-05-26T17:03:21Z</time>
      </trkpt>
      <trkpt lat="47.8965" lon="6.73343">
        <ele>501.024811</ele>
        <time>2018-05-26T17:03:22Z</time>
      </trkpt>
      <trkpt lat="47.89655" lon="6.73342">
        <ele>501.206787</ele>
        <time>2018-05-26T17:03:23Z</time>
      </trkpt>
      <trkpt lat="47.89659" lon="6.73341">
        <ele>501.421631</ele>
        <time>2018-05-26T17:03:24Z</time>
      </trkpt>
      <trkpt lat="47.89664" lon="6.73341">
        <ele>501.532318</ele>
        <time>2018-05-26T17:03:25Z</time>
      </trkpt>
      <trkpt lat="47.89668" lon="6.7334">
        <ele>501.672455</ele>
        <time>2018-05-26T17:03:26Z</time>
      </trkpt>
      <trkpt lat="47.89673" lon="6.7334">
        <ele>501.750488</ele>
        <time>2018-05-26T17:03:27Z</time>
      </trkpt>
      <trkpt lat="47.89678" lon="6.73339">
        <ele>501.84433</ele>
        <time>2018-05-26T17:03:28Z</time>
      </trkpt>
      <trkpt lat="47.89682" lon="6.73339">
        <ele>501.87027</ele>
        <time>2018-05-26T17:03:29Z</time>
      </trkpt>
      <trkpt lat="47.89686" lon="6.7334">
        <ele>501.894531</ele>
        <time>2018-05-26T17:03:30Z</time>
      </trkpt>
      <trkpt lat="47.8969" lon="6.7334">
        <ele>501.975098</ele>
        <time>2018-05-26T17:03:31Z</time>
      </trkpt>
      <trkpt lat="47.89694" lon="6.73341">
        <ele>502.029541</ele>
        <time>2018-05-26T17:03:32Z</time>
      </trkpt>
      <trkpt lat="47.89698" lon="6.73341">
        <ele>502.098541</ele>
        <time>2018-05-26T17:03:33Z</time>
      </trkpt>
      <trkpt lat="47.89701" lon="6.73341">
        <ele>502.134064</ele>
        <time>2018-05-26T17:03:34Z</time>
      </trkpt>
      <trkpt lat="47.89705" lon="6.73342">
        <ele>502.190796</ele>
        <time>2018-05-26T17:03:35Z</time>
      </trkpt>
      <trkpt lat="47.89708" lon="6.73342">
        <ele>502.232178</ele>
        <time>2018-05-26T17:03:36Z</time>
      </trkpt>
      <trkpt lat="47.89713" lon="6.73344">
        <ele>502.268341</ele>
        <time>2018-05-26T17:03:37Z</time>
      </trkpt>
      <trkpt lat="47.89717" lon="6.73347">
        <ele>502.313568</ele>
        <time>2018-05-26T17:03:38Z</time>
      </trkpt>
      <trkpt lat="47.89721" lon="6.73351">
        <ele>502.33725</ele>
        <time>2018-05-26T17:03:39Z</time>
      </trkpt>
      <trkpt lat="47.89724" lon="6.73354">
        <ele>502.356079</ele>
        <time>2018-05-26T17:03:40Z</time>
      </trkpt>
      <trkpt lat="47.89728" lon="6.73358">
        <ele>502.356079</ele>
        <time>2018-05-26T17:03:41Z</time>
      </trkpt>
      <trkpt lat="47.89732" lon="6.73363">
        <ele>502.345581</ele>
        <time>2018-05-26T17:03:42Z</time>
      </trkpt>
      <trkpt lat="47.89736" lon="6.73367">
        <ele>502.324707</ele>
        <time>2018-05-26T17:03:43Z</time>
      </trkpt>
      <trkpt lat="47.8974" lon="6.73372">
        <ele>502.298676</ele>
        <time>2018-05-26T17:03:44Z</time>
      </trkpt>
      <trkpt lat="47.89743" lon="6.73377">
        <ele>502.245697</ele>
        <time>2018-05-26T17:03:45Z</time>
      </trkpt>
      <trkpt lat="47.89747" lon="6.73381">
        <ele>502.211029</ele>
        <time>2018-05-26T17:03:46Z</time>
      </trkpt>
      <trkpt lat="47.89751" lon="6.73383">
        <ele>502.189941</ele>
        <time>2018-05-26T17:03:47Z</time>
      </trkpt>
      <trkpt lat="47.89756" lon="6.73384">
        <ele>502.189941</ele>
        <time>2018-05-26T17:03:48Z</time>
      </trkpt>
      <trkpt lat="47.89761" lon="6.73384">
        <ele>502.214081</ele>
        <time>2018-05-26T17:03:49Z</time>
      </trkpt>
      <trkpt lat="47.89765" lon="6.73383">
        <ele>502.316284</ele>
        <time>2018-05-26T17:03:50Z</time>
      </trkpt>
      <trkpt lat="47.89769" lon="6.73381">
        <ele>502.418304</ele>
        <time>2018-05-26T17:03:51Z</time>
      </trkpt>
      <trkpt lat="47.89772" lon="6.73379">
        <ele>502.618073</ele>
        <time>2018-05-26T17:03:52Z</time>
      </trkpt>
      <trkpt lat="47.89776" lon="6.73378">
        <ele>502.776123</ele>
        <time>2018-05-26T17:03:53Z</time>
      </trkpt>
      <trkpt lat="47.89779" lon="6.73376">
        <ele>503.04422</ele>
        <time>2018-05-26T17:03:54Z</time>
      </trkpt>
      <trkpt lat="47.89782" lon="6.73375">
        <ele>503.246002</ele>
        <time>2018-05-26T17:03:55Z</time>
      </trkpt>
      <trkpt lat="47.89786" lon="6.73374">
        <ele>503.467682</ele>
        <time>2018-05-26T17:03:56Z</time>
      </trkpt>
      <trkpt lat="47.8979" lon="6.73373">
        <ele>503.818512</ele>
        <time>2018-05-26T17:03:57Z</time>
      </trkpt>
      <trkpt lat="47.89795" lon="6.73373">
        <ele>504.047119</ele>
        <time>2018-05-26T17:03:58Z</time>
      </trkpt>
      <trkpt lat="47.89799" lon="6.73373">
        <ele>504.356537</ele>
        <time>2018-05-26T17:03:59Z</time>
      </trkpt>
      <trkpt lat="47.89803" lon="6.73374">
        <ele>504.536896</ele>
        <time>2018-05-26T17:04:00Z</time>
      </trkpt>
      <trkpt lat="47.89807" lon="6.73375">
        <ele>504.688843</ele>
        <time>2018-05-26T17:04:01Z</time>
      </trkpt>
      <trkpt lat="47.89811" lon="6.73375">
        <ele>504.860962</ele>
        <time>2018-05-26T17:04:02Z</time>
      </trkpt>
      <trkpt lat="47.89815" lon="6.73375">
        <ele>504.938751</ele>
        <time>2018-05-26T17:04:03Z</time>
      </trkpt>
      <trkpt lat="47.89819" lon="6.73376">
        <ele>505.025177</ele>
        <time>2018-05-26T17:04:04Z</time>
      </trkpt>
      <trkpt lat="47.89822" lon="6.73377">
        <ele>505.064545</ele>
        <time>2018-05-26T17:04:05Z</time>
      </trkpt>
      <trkpt lat="47.89826" lon="6.73377">
        <ele>505.11734</ele>
        <time>2018-05-26T17:04:06Z</time>
      </trkpt>
      <trkpt lat="47.8983" lon="6.73378">
        <ele>505.146393</ele>
        <time>2018-05-26T17:04:07Z</time>
      </trkpt>
      <trkpt lat="47.89834" lon="6.73378">
        <ele>505.169708</ele>
        <time>2018-05-26T17:04:08Z</time>
      </trkpt>
      <trkpt lat="47.89838" lon="6.73379">
        <ele>505.195038</ele>
        <time>2018-05-26T17:04:09Z</time>
      </trkpt>
      <trkpt lat="47.89842" lon="6.7338">
        <ele>505.215332</ele>
        <time>2018-05-26T17:04:10Z</time>
      </trkpt>
      <trkpt lat="47.89846" lon="6.73381">
        <ele>505.245087</ele>
        <time>2018-05-26T17:04:11Z</time>
      </trkpt>
      <trkpt lat="47.8985" lon="6.73381">
        <ele>505.259766</ele>
        <time>2018-05-26T17:04:12Z</time>
      </trkpt>
      <trkpt lat="47.89854" lon="6.73381">
        <ele>505.278717</ele>
        <time>2018-05-26T17:04:13Z</time>
      </trkpt>
      <trkpt lat="47.89858" lon="6.7338">
        <ele>505.293945</ele>
        <time>2018-05-26T17:04:14Z</time>
      </trkpt>
      <trkpt lat="47.89862" lon="6.7338">
        <ele>505.307953</ele>
        <time>2018-05-26T17:04:15Z</time>
      </trkpt>
      <trkpt lat="47.89866" lon="6.73379">
        <ele>505.307526</ele>
        <time>2018-05-26T17:04:16Z</time>
      </trkpt>
      <trkpt lat="47.89871" lon="6.73378">
        <ele>505.28833</ele>
        <time>2018-05-26T17:04:17Z</time>
      </trkpt>
      <trkpt lat="47.89876" lon="6.73376">
        <ele>505.2146</ele>
        <time>2018-05-26T17:04:18Z</time>
      </trkpt>
      <trkpt lat="47.89881" lon="6.73371">
        <ele>505.138428</ele>
        <time>2018-05-26T17:04:19Z</time>
      </trkpt>
      <trkpt lat="47.89886" lon="6.73366">
        <ele>504.96463</ele>
        <time>2018-05-26T17:04:20Z</time>
      </trkpt>
      <trkpt lat="47.89891" lon="6.73361">
        <ele>504.810822</ele>
        <time>2018-05-26T17:04:21Z</time>
      </trkpt>
      <trkpt lat="47.89895" lon="6.73358">
        <ele>504.53891</ele>
        <time>2018-05-26T17:04:22Z</time>
      </trkpt>
      <trkpt lat="47.89896" lon="6.73355">
        <ele>504.342285</ele>
        <time>2018-05-26T17:04:23Z</time>
      </trkpt>
      <trkpt lat="47.89896" lon="6.73352">
        <ele>504.135529</ele>
        <time>2018-05-26T17:04:24Z</time>
      </trkpt>
      <trkpt lat="47.89895" lon="6.73349">
        <ele>503.80603</ele>
        <time>2018-05-26T17:04:25Z</time>
      </trkpt>
      <trkpt lat="47.89892" lon="6.73346">
        <ele>503.574097</ele>
        <time>2018-05-26T17:04:26Z</time>
      </trkpt>
      <trkpt lat="47.89887" lon="6.73344">
        <ele>503.21463</ele>
        <time>2018-05-26T17:04:27Z</time>
      </trkpt>
      <trkpt lat="47.89882" lon="6.73343">
        <ele>502.959991</ele>
        <time>2018-05-26T17:04:28Z</time>
      </trkpt>
      <trkpt lat="47.89876" lon="6.73342">
        <ele>502.548248</ele>
        <time>2018-05-26T17:04:29Z</time>
      </trkpt>
      <trkpt lat="47.89871" lon="6.7334">
        <ele>502.250824</ele>
        <time>2018-05-26T17:04:30Z</time>
      </trkpt>
      <trkpt lat="47.89866" lon="6.73339">
        <ele>501.938477</ele>
        <time>2018-05-26T17:04:31Z</time>
      </trkpt>
      <trkpt lat="47.89861" lon="6.73338">
        <ele>501.616821</ele>
        <time>2018-05-26T17:04:32Z</time>
      </trkpt>
      <trkpt lat="47.89855" lon="6.73336">
        <ele>501.17337</ele>
        <time>2018-05-26T17:04:33Z</time>
      </trkpt>
      <trkpt lat="47.89851" lon="6.73334">
        <ele>500.931641</ele>
        <time>2018-05-26T17:04:34Z</time>
      </trkpt>
      <trkpt lat="47.89846" lon="6.73331">
        <ele>500.672943</ele>
        <time>2018-05-26T17:04:35Z</time>
      </trkpt>
      <trkpt lat="47.89842" lon="6.73327">
        <ele>500.566376</ele>
        <time>2018-05-26T17:04:36Z</time>
      </trkpt>
      <trkpt lat="47.8984" lon="6.7332">
        <ele>500.50293</ele>
        <time>2018-05-26T17:04:37Z</time>
      </trkpt>
      <trkpt lat="47.8984" lon="6.73312">
        <ele>500.455933</ele>
        <time>2018-05-26T17:04:38Z</time>
      </trkpt>
      <trkpt lat="47.8984" lon="6.73304">
        <ele>500.438385</ele>
        <time>2018-05-26T17:04:39Z</time>
      </trkpt>
      <trkpt lat="47.89842" lon="6.73297">
        <ele>500.415009</ele>
        <time>2018-05-26T17:04:40Z</time>
      </trkpt>
      <trkpt lat="47.89843" lon="6.73289">
        <ele>500.384735</ele>
        <time>2018-05-26T17:04:41Z</time>
      </trkpt>
      <trkpt lat="47.89844" lon="6.73282">
        <ele>500.306641</ele>
        <time>2018-05-26T17:04:42Z</time>
      </trkpt>
      <trkpt lat="47.89845" lon="6.73274">
        <ele>500.238647</ele>
        <time>2018-05-26T17:04:43Z</time>
      </trkpt>
      <trkpt lat="47.89846" lon="6.73266">
        <ele>500.165039</ele>
        <time>2018-05-26T17:04:44Z</time>
      </trkpt>
      <trkpt lat="47.89848" lon="6.73258">
        <ele>500.050934</ele>
        <time>2018-05-26T17:04:45Z</time>
      </trkpt>
      <trkpt lat="47.89848" lon="6.73251">
        <ele>499.971771</ele>
        <time>2018-05-26T17:04:46Z</time>
      </trkpt>
      <trkpt lat="47.89849" lon="6.73245">
        <ele>499.854218</ele>
        <time>2018-05-26T17:04:47Z</time>
      </trkpt>
      <trkpt lat="47.89851" lon="6.73239">
        <ele>499.772552</ele>
        <time>2018-05-26T17:04:48Z</time>
      </trkpt>
      <trkpt lat="47.89854" lon="6.73234">
        <ele>499.667572</ele>
        <time>2018-05-26T17:04:49Z</time>
      </trkpt>
      <trkpt lat="47.89857" lon="6.7323">
        <ele>499.428131</ele>
        <time>2018-05-26T17:04:50Z</time>
      </trkpt>
      <trkpt lat="47.89858" lon="6.73225">
        <ele>499.204315</ele>
        <time>2018-05-26T17:04:51Z</time>
      </trkpt>
      <trkpt lat="47.89859" lon="6.73219">
        <ele>498.794159</ele>
        <time>2018-05-26T17:04:52Z</time>
      </trkpt>
      <trkpt lat="47.89858" lon="6.73214">
        <ele>498.49057</ele>
        <time>2018-05-26T17:04:53Z</time>
      </trkpt>
      <trkpt lat="47.89857" lon="6.7321">
        <ele>497.989502</ele>
        <time>2018-05-26T17:04:54Z</time>
      </trkpt>
      <trkpt lat="47.89854" lon="6.73207">
        <ele>497.61792</ele>
        <time>2018-05-26T17:04:55Z</time>
      </trkpt>
      <trkpt lat="47.89851" lon="6.73207">
        <ele>497.036285</ele>
        <time>2018-05-26T17:04:56Z</time>
      </trkpt>
      <trkpt lat="47.89846" lon="6.73207">
        <ele>496.657104</ele>
        <time>2018-05-26T17:04:57Z</time>
      </trkpt>
      <trkpt lat="47.89842" lon="6.73209">
        <ele>496.125763</ele>
        <time>2018-05-26T17:04:58Z</time>
      </trkpt>
      <trkpt lat="47.89838" lon="6.7321">
        <ele>495.799194</ele>
        <time>2018-05-26T17:04:59Z</time>
      </trkpt>
      <trkpt lat="47.89834" lon="6.73211">
        <ele>495.494232</ele>
        <time>2018-05-26T17:05:00Z</time>
      </trkpt>
      <trkpt lat="47.8983" lon="6.73212">
        <ele>495.118561</ele>
        <time>2018-05-26T17:05:01Z</time>
      </trkpt>
      <trkpt lat="47.89825" lon="6.73213">
        <ele>494.932159</ele>
        <time>2018-05-26T17:05:02Z</time>
      </trkpt>
      <trkpt lat="47.89821" lon="6.73214">
        <ele>494.720978</ele>
        <time>2018-05-26T17:05:03Z</time>
      </trkpt>
      <trkpt lat="47.89817" lon="6.73215">
        <ele>494.603027</ele>
        <time>2018-05-26T17:05:04Z</time>
      </trkpt>
      <trkpt lat="47.89813" lon="6.73217">
        <ele>494.457642</ele>
        <time>2018-05-26T17:05:05Z</time>
      </trkpt>
      <trkpt lat="47.89809" lon="6.73219">
        <ele>494.386353</ele>
        <time>2018-05-26T17:05:06Z</time>
      </trkpt>
      <trkpt lat="47.89805" lon="6.73221">
        <ele>494.299561</ele>
        <time>2018-05-26T17:05:07Z</time>
      </trkpt>
      <trkpt lat="47.89801" lon="6.73222">
        <ele>494.236664</ele>
        <time>2018-05-26T17:05:08Z</time>
      </trkpt>
      <trkpt lat="47.89796" lon="6.73223">
        <ele>494.162872</ele>
        <time>2018-05-26T17:05:09Z</time>
      </trkpt>
      <trkpt lat="47.89794" lon="6.73225">
        <ele>494.050446</ele>
        <time>2018-05-26T17:05:10Z</time>
      </trkpt>
      <trkpt lat="47.89792" lon="6.73228">
        <ele>493.981476</ele>
        <time>2018-05-26T17:05:11Z</time>
      </trkpt>
      <trkpt lat="47.89791" lon="6.73231">
        <ele>493.892609</ele>
        <time>2018-05-26T17:05:12Z</time>
      </trkpt>
      <trkpt lat="47.89791" lon="6.73233">
        <ele>493.835327</ele>
        <time>2018-05-26T17:05:13Z</time>
      </trkpt>
    </trkseg>
  </trk>
</gpx>